<?xml version="1.0" encoding="UTF-8" standalone="no" ?>
<gpx xmlns="http://www.topografix.com/GPX/1/1" xmlns:xsi="http://www.w3.org/2001/XMLSchema-instance" xsi:schemaLocation="http://www.topografix.com/GPX/1/1 http://www.topografix.com/GPX/1/1/gpx.xsd" version="1.1" creator="VisuGPX - https://www.visugpx.com">
  <metadata>
    <name>Boucle StCannat Seuil Rognes 35km</name>
  </metadata>
  <trk>
    <name><![CDATA[Boucle StCannat Seuil Rognes 35km_1]]></name>
    <trkseg>
      <trkpt lat="43.61602" lon="5.29909">
        <ele>207.39999389648</ele>
        <time>2019-11-30T15:48:14.000Z</time>
      </trkpt>
      <trkpt lat="43.61598" lon="5.2991">
        <ele>207.60000610352</ele>
        <time>2019-11-30T15:48:15.000Z</time>
      </trkpt>
      <trkpt lat="43.61594" lon="5.29912">
        <ele>207.80000305176</ele>
        <time>2019-11-30T15:48:16.000Z</time>
      </trkpt>
      <trkpt lat="43.6159" lon="5.29913">
        <ele>208</ele>
        <time>2019-11-30T15:48:17.000Z</time>
      </trkpt>
      <trkpt lat="43.61562" lon="5.29968">
        <ele>210</ele>
        <time>2019-11-30T12:47:21.000Z</time>
      </trkpt>
      <trkpt lat="43.61562" lon="5.29968">
        <ele>210</ele>
        <time>2019-11-30T12:47:21.000Z</time>
      </trkpt>
      <trkpt lat="43.61562" lon="5.29968">
        <ele>210</ele>
        <time>2019-11-30T12:47:21.000Z</time>
      </trkpt>
      <trkpt lat="43.61562" lon="5.2997">
        <ele>210</ele>
        <time>2019-11-30T12:47:22.000Z</time>
      </trkpt>
      <trkpt lat="43.61561" lon="5.29975">
        <ele>210.19999694824</ele>
        <time>2019-11-30T12:47:23.000Z</time>
      </trkpt>
      <trkpt lat="43.61559" lon="5.2998">
        <ele>210.19999694824</ele>
        <time>2019-11-30T12:47:24.000Z</time>
      </trkpt>
      <trkpt lat="43.61557" lon="5.29986">
        <ele>210.39999389648</ele>
        <time>2019-11-30T12:47:25.000Z</time>
      </trkpt>
      <trkpt lat="43.61555" lon="5.29992">
        <ele>210.60000610352</ele>
        <time>2019-11-30T12:47:26.000Z</time>
      </trkpt>
      <trkpt lat="43.61553" lon="5.29998">
        <ele>210.80000305176</ele>
        <time>2019-11-30T12:47:27.000Z</time>
      </trkpt>
      <trkpt lat="43.61551" lon="5.30004">
        <ele>210.80000305176</ele>
        <time>2019-11-30T12:47:28.000Z</time>
      </trkpt>
      <trkpt lat="43.61549" lon="5.30009">
        <ele>210.80000305176</ele>
        <time>2019-11-30T12:47:29.000Z</time>
      </trkpt>
      <trkpt lat="43.61547" lon="5.30015">
        <ele>211</ele>
        <time>2019-11-30T12:47:30.000Z</time>
      </trkpt>
      <trkpt lat="43.61545" lon="5.30021">
        <ele>211</ele>
        <time>2019-11-30T12:47:31.000Z</time>
      </trkpt>
      <trkpt lat="43.61544" lon="5.30027">
        <ele>211.19999694824</ele>
        <time>2019-11-30T12:47:32.000Z</time>
      </trkpt>
      <trkpt lat="43.61542" lon="5.30033">
        <ele>211.19999694824</ele>
        <time>2019-11-30T12:47:33.000Z</time>
      </trkpt>
      <trkpt lat="43.6154" lon="5.30039">
        <ele>211.19999694824</ele>
        <time>2019-11-30T12:47:34.000Z</time>
      </trkpt>
      <trkpt lat="43.61538" lon="5.30045">
        <ele>211.39999389648</ele>
        <time>2019-11-30T12:47:35.000Z</time>
      </trkpt>
      <trkpt lat="43.61536" lon="5.30051">
        <ele>211.39999389648</ele>
        <time>2019-11-30T12:47:36.000Z</time>
      </trkpt>
      <trkpt lat="43.61534" lon="5.30057">
        <ele>211.39999389648</ele>
        <time>2019-11-30T12:47:37.000Z</time>
      </trkpt>
      <trkpt lat="43.61532" lon="5.30063">
        <ele>211.60000610352</ele>
        <time>2019-11-30T12:47:38.000Z</time>
      </trkpt>
      <trkpt lat="43.61529" lon="5.30069">
        <ele>211.80000305176</ele>
        <time>2019-11-30T12:47:39.000Z</time>
      </trkpt>
      <trkpt lat="43.61526" lon="5.30074">
        <ele>212</ele>
        <time>2019-11-30T12:47:40.000Z</time>
      </trkpt>
      <trkpt lat="43.61523" lon="5.30079">
        <ele>212.19999694824</ele>
        <time>2019-11-30T12:47:41.000Z</time>
      </trkpt>
      <trkpt lat="43.6152" lon="5.30084">
        <ele>212.39999389648</ele>
        <time>2019-11-30T12:47:42.000Z</time>
      </trkpt>
      <trkpt lat="43.61517" lon="5.3009">
        <ele>212.60000610352</ele>
        <time>2019-11-30T12:47:43.000Z</time>
      </trkpt>
      <trkpt lat="43.61514" lon="5.30095">
        <ele>212.80000305176</ele>
        <time>2019-11-30T12:47:44.000Z</time>
      </trkpt>
      <trkpt lat="43.61511" lon="5.301">
        <ele>213</ele>
        <time>2019-11-30T12:47:45.000Z</time>
      </trkpt>
      <trkpt lat="43.61508" lon="5.30106">
        <ele>213</ele>
        <time>2019-11-30T12:47:46.000Z</time>
      </trkpt>
      <trkpt lat="43.61505" lon="5.30111">
        <ele>213.19999694824</ele>
        <time>2019-11-30T12:47:47.000Z</time>
      </trkpt>
      <trkpt lat="43.61503" lon="5.30116">
        <ele>213.60000610352</ele>
        <time>2019-11-30T12:47:48.000Z</time>
      </trkpt>
      <trkpt lat="43.615" lon="5.30122">
        <ele>214</ele>
        <time>2019-11-30T12:47:49.000Z</time>
      </trkpt>
      <trkpt lat="43.61496" lon="5.30127">
        <ele>214.39999389648</ele>
        <time>2019-11-30T12:47:50.000Z</time>
      </trkpt>
      <trkpt lat="43.61492" lon="5.30131">
        <ele>215</ele>
        <time>2019-11-30T12:47:51.000Z</time>
      </trkpt>
      <trkpt lat="43.61488" lon="5.30135">
        <ele>215.19999694824</ele>
        <time>2019-11-30T12:47:52.000Z</time>
      </trkpt>
      <trkpt lat="43.61485" lon="5.3014">
        <ele>215.60000610352</ele>
        <time>2019-11-30T12:47:53.000Z</time>
      </trkpt>
      <trkpt lat="43.61481" lon="5.30144">
        <ele>215.80000305176</ele>
        <time>2019-11-30T12:47:54.000Z</time>
      </trkpt>
      <trkpt lat="43.61478" lon="5.30149">
        <ele>216.19999694824</ele>
        <time>2019-11-30T12:47:55.000Z</time>
      </trkpt>
      <trkpt lat="43.61474" lon="5.30153">
        <ele>216.39999389648</ele>
        <time>2019-11-30T12:47:56.000Z</time>
      </trkpt>
      <trkpt lat="43.61471" lon="5.30157">
        <ele>216.80000305176</ele>
        <time>2019-11-30T12:47:57.000Z</time>
      </trkpt>
      <trkpt lat="43.61467" lon="5.30161">
        <ele>217</ele>
        <time>2019-11-30T12:47:58.000Z</time>
      </trkpt>
      <trkpt lat="43.61464" lon="5.30166">
        <ele>217.19999694824</ele>
        <time>2019-11-30T12:47:59.000Z</time>
      </trkpt>
      <trkpt lat="43.6146" lon="5.3017">
        <ele>217.60000610352</ele>
        <time>2019-11-30T12:48:00.000Z</time>
      </trkpt>
      <trkpt lat="43.61457" lon="5.30175">
        <ele>217.80000305176</ele>
        <time>2019-11-30T12:48:01.000Z</time>
      </trkpt>
      <trkpt lat="43.61453" lon="5.30179">
        <ele>218</ele>
        <time>2019-11-30T12:48:02.000Z</time>
      </trkpt>
      <trkpt lat="43.6145" lon="5.30183">
        <ele>218.19999694824</ele>
        <time>2019-11-30T12:48:03.000Z</time>
      </trkpt>
      <trkpt lat="43.61446" lon="5.30188">
        <ele>218.39999389648</ele>
        <time>2019-11-30T12:48:04.000Z</time>
      </trkpt>
      <trkpt lat="43.61443" lon="5.30191">
        <ele>218.60000610352</ele>
        <time>2019-11-30T12:48:05.000Z</time>
      </trkpt>
      <trkpt lat="43.6144" lon="5.30195">
        <ele>218.80000305176</ele>
        <time>2019-11-30T12:48:06.000Z</time>
      </trkpt>
      <trkpt lat="43.61436" lon="5.302">
        <ele>219</ele>
        <time>2019-11-30T12:48:07.000Z</time>
      </trkpt>
      <trkpt lat="43.61433" lon="5.30204">
        <ele>219</ele>
        <time>2019-11-30T12:48:08.000Z</time>
      </trkpt>
      <trkpt lat="43.6143" lon="5.30208">
        <ele>219.19999694824</ele>
        <time>2019-11-30T12:48:09.000Z</time>
      </trkpt>
      <trkpt lat="43.61426" lon="5.30212">
        <ele>219.39999389648</ele>
        <time>2019-11-30T12:48:10.000Z</time>
      </trkpt>
      <trkpt lat="43.61423" lon="5.30216">
        <ele>219.80000305176</ele>
        <time>2019-11-30T12:48:11.000Z</time>
      </trkpt>
      <trkpt lat="43.6142" lon="5.3022">
        <ele>219.80000305176</ele>
        <time>2019-11-30T12:48:12.000Z</time>
      </trkpt>
      <trkpt lat="43.61417" lon="5.30224">
        <ele>220</ele>
        <time>2019-11-30T12:48:13.000Z</time>
      </trkpt>
      <trkpt lat="43.61413" lon="5.30228">
        <ele>220.19999694824</ele>
        <time>2019-11-30T12:48:14.000Z</time>
      </trkpt>
      <trkpt lat="43.6141" lon="5.30232">
        <ele>220.19999694824</ele>
        <time>2019-11-30T12:48:15.000Z</time>
      </trkpt>
      <trkpt lat="43.61406" lon="5.30237">
        <ele>220.39999389648</ele>
        <time>2019-11-30T12:48:16.000Z</time>
      </trkpt>
      <trkpt lat="43.61402" lon="5.30242">
        <ele>220.60000610352</ele>
        <time>2019-11-30T12:48:17.000Z</time>
      </trkpt>
      <trkpt lat="43.61399" lon="5.30246">
        <ele>220.80000305176</ele>
        <time>2019-11-30T12:48:18.000Z</time>
      </trkpt>
      <trkpt lat="43.61395" lon="5.3025">
        <ele>221</ele>
        <time>2019-11-30T12:48:19.000Z</time>
      </trkpt>
      <trkpt lat="43.61392" lon="5.30255">
        <ele>221.19999694824</ele>
        <time>2019-11-30T12:48:20.000Z</time>
      </trkpt>
      <trkpt lat="43.61389" lon="5.30259">
        <ele>221.39999389648</ele>
        <time>2019-11-30T12:48:21.000Z</time>
      </trkpt>
      <trkpt lat="43.61386" lon="5.30262">
        <ele>221.60000610352</ele>
        <time>2019-11-30T12:48:22.000Z</time>
      </trkpt>
      <trkpt lat="43.61383" lon="5.30266">
        <ele>221.80000305176</ele>
        <time>2019-11-30T12:48:23.000Z</time>
      </trkpt>
      <trkpt lat="43.6138" lon="5.30271">
        <ele>222</ele>
        <time>2019-11-30T12:48:24.000Z</time>
      </trkpt>
      <trkpt lat="43.61376" lon="5.30276">
        <ele>222.19999694824</ele>
        <time>2019-11-30T12:48:25.000Z</time>
      </trkpt>
      <trkpt lat="43.61373" lon="5.30281">
        <ele>222.39999389648</ele>
        <time>2019-11-30T12:48:26.000Z</time>
      </trkpt>
      <trkpt lat="43.6137" lon="5.30286">
        <ele>222.80000305176</ele>
        <time>2019-11-30T12:48:27.000Z</time>
      </trkpt>
      <trkpt lat="43.61367" lon="5.3029">
        <ele>223</ele>
        <time>2019-11-30T12:48:28.000Z</time>
      </trkpt>
      <trkpt lat="43.61364" lon="5.30295">
        <ele>223.19999694824</ele>
        <time>2019-11-30T12:48:29.000Z</time>
      </trkpt>
      <trkpt lat="43.61361" lon="5.303">
        <ele>223.60000610352</ele>
        <time>2019-11-30T12:48:30.000Z</time>
      </trkpt>
      <trkpt lat="43.61358" lon="5.30305">
        <ele>223.80000305176</ele>
        <time>2019-11-30T12:48:31.000Z</time>
      </trkpt>
      <trkpt lat="43.61354" lon="5.3031">
        <ele>223.80000305176</ele>
        <time>2019-11-30T12:48:32.000Z</time>
      </trkpt>
      <trkpt lat="43.61351" lon="5.30315">
        <ele>223.80000305176</ele>
        <time>2019-11-30T12:48:33.000Z</time>
      </trkpt>
      <trkpt lat="43.61348" lon="5.3032">
        <ele>223.80000305176</ele>
        <time>2019-11-30T12:48:34.000Z</time>
      </trkpt>
      <trkpt lat="43.61345" lon="5.30325">
        <ele>223.80000305176</ele>
        <time>2019-11-30T12:48:35.000Z</time>
      </trkpt>
      <trkpt lat="43.61342" lon="5.3033">
        <ele>223.80000305176</ele>
        <time>2019-11-30T12:48:36.000Z</time>
      </trkpt>
      <trkpt lat="43.61339" lon="5.30335">
        <ele>223.80000305176</ele>
        <time>2019-11-30T12:48:37.000Z</time>
      </trkpt>
      <trkpt lat="43.61335" lon="5.3034">
        <ele>223.60000610352</ele>
        <time>2019-11-30T12:48:38.000Z</time>
      </trkpt>
      <trkpt lat="43.61332" lon="5.30345">
        <ele>223.60000610352</ele>
        <time>2019-11-30T12:48:39.000Z</time>
      </trkpt>
      <trkpt lat="43.61329" lon="5.3035">
        <ele>223.60000610352</ele>
        <time>2019-11-30T12:48:40.000Z</time>
      </trkpt>
      <trkpt lat="43.61326" lon="5.30355">
        <ele>223.60000610352</ele>
        <time>2019-11-30T12:48:41.000Z</time>
      </trkpt>
      <trkpt lat="43.61323" lon="5.3036">
        <ele>223.80000305176</ele>
        <time>2019-11-30T12:48:42.000Z</time>
      </trkpt>
      <trkpt lat="43.61319" lon="5.30365">
        <ele>224</ele>
        <time>2019-11-30T12:48:43.000Z</time>
      </trkpt>
      <trkpt lat="43.61316" lon="5.3037">
        <ele>224.19999694824</ele>
        <time>2019-11-30T12:48:44.000Z</time>
      </trkpt>
      <trkpt lat="43.61313" lon="5.30376">
        <ele>224.39999389648</ele>
        <time>2019-11-30T12:48:45.000Z</time>
      </trkpt>
      <trkpt lat="43.61309" lon="5.30381">
        <ele>224.60000610352</ele>
        <time>2019-11-30T12:48:46.000Z</time>
      </trkpt>
      <trkpt lat="43.61306" lon="5.30387">
        <ele>224.80000305176</ele>
        <time>2019-11-30T12:48:47.000Z</time>
      </trkpt>
      <trkpt lat="43.61302" lon="5.30392">
        <ele>225</ele>
        <time>2019-11-30T12:48:48.000Z</time>
      </trkpt>
      <trkpt lat="43.61299" lon="5.30397">
        <ele>225.39999389648</ele>
        <time>2019-11-30T12:48:49.000Z</time>
      </trkpt>
      <trkpt lat="43.61295" lon="5.30403">
        <ele>225.60000610352</ele>
        <time>2019-11-30T12:48:50.000Z</time>
      </trkpt>
      <trkpt lat="43.61292" lon="5.30408">
        <ele>225.80000305176</ele>
        <time>2019-11-30T12:48:51.000Z</time>
      </trkpt>
      <trkpt lat="43.61288" lon="5.30413">
        <ele>226.19999694824</ele>
        <time>2019-11-30T12:48:52.000Z</time>
      </trkpt>
      <trkpt lat="43.61283" lon="5.30417">
        <ele>226.39999389648</ele>
        <time>2019-11-30T12:48:53.000Z</time>
      </trkpt>
      <trkpt lat="43.61279" lon="5.30421">
        <ele>226.60000610352</ele>
        <time>2019-11-30T12:48:54.000Z</time>
      </trkpt>
      <trkpt lat="43.61274" lon="5.30425">
        <ele>226.80000305176</ele>
        <time>2019-11-30T12:48:55.000Z</time>
      </trkpt>
      <trkpt lat="43.6127" lon="5.30429">
        <ele>227.19999694824</ele>
        <time>2019-11-30T12:48:56.000Z</time>
      </trkpt>
      <trkpt lat="43.61265" lon="5.30433">
        <ele>227.39999389648</ele>
        <time>2019-11-30T12:48:57.000Z</time>
      </trkpt>
      <trkpt lat="43.6126" lon="5.30438">
        <ele>227.60000610352</ele>
        <time>2019-11-30T12:48:58.000Z</time>
      </trkpt>
      <trkpt lat="43.61255" lon="5.30442">
        <ele>228</ele>
        <time>2019-11-30T12:48:59.000Z</time>
      </trkpt>
      <trkpt lat="43.61251" lon="5.30446">
        <ele>228.19999694824</ele>
        <time>2019-11-30T12:49:00.000Z</time>
      </trkpt>
      <trkpt lat="43.61246" lon="5.30449">
        <ele>228.39999389648</ele>
        <time>2019-11-30T12:49:01.000Z</time>
      </trkpt>
      <trkpt lat="43.61242" lon="5.30453">
        <ele>228.80000305176</ele>
        <time>2019-11-30T12:49:02.000Z</time>
      </trkpt>
      <trkpt lat="43.61238" lon="5.30457">
        <ele>229</ele>
        <time>2019-11-30T12:49:03.000Z</time>
      </trkpt>
      <trkpt lat="43.61233" lon="5.30461">
        <ele>229.19999694824</ele>
        <time>2019-11-30T12:49:04.000Z</time>
      </trkpt>
      <trkpt lat="43.61229" lon="5.30465">
        <ele>229.39999389648</ele>
        <time>2019-11-30T12:49:05.000Z</time>
      </trkpt>
      <trkpt lat="43.61224" lon="5.30469">
        <ele>229.80000305176</ele>
        <time>2019-11-30T12:49:06.000Z</time>
      </trkpt>
      <trkpt lat="43.6122" lon="5.30473">
        <ele>230</ele>
        <time>2019-11-30T12:49:07.000Z</time>
      </trkpt>
      <trkpt lat="43.61215" lon="5.30477">
        <ele>230.19999694824</ele>
        <time>2019-11-30T12:49:08.000Z</time>
      </trkpt>
      <trkpt lat="43.61211" lon="5.30481">
        <ele>230.39999389648</ele>
        <time>2019-11-30T12:49:09.000Z</time>
      </trkpt>
      <trkpt lat="43.61207" lon="5.30484">
        <ele>230.80000305176</ele>
        <time>2019-11-30T12:49:10.000Z</time>
      </trkpt>
      <trkpt lat="43.61202" lon="5.30488">
        <ele>230.80000305176</ele>
        <time>2019-11-30T12:49:11.000Z</time>
      </trkpt>
      <trkpt lat="43.61198" lon="5.30492">
        <ele>230.80000305176</ele>
        <time>2019-11-30T12:49:12.000Z</time>
      </trkpt>
      <trkpt lat="43.61194" lon="5.30495">
        <ele>231</ele>
        <time>2019-11-30T12:49:13.000Z</time>
      </trkpt>
      <trkpt lat="43.6119" lon="5.30498">
        <ele>231</ele>
        <time>2019-11-30T12:49:14.000Z</time>
      </trkpt>
      <trkpt lat="43.61186" lon="5.305">
        <ele>231</ele>
        <time>2019-11-30T12:49:15.000Z</time>
      </trkpt>
      <trkpt lat="43.61183" lon="5.30503">
        <ele>231</ele>
        <time>2019-11-30T12:49:16.000Z</time>
      </trkpt>
      <trkpt lat="43.61179" lon="5.30506">
        <ele>231</ele>
        <time>2019-11-30T12:49:17.000Z</time>
      </trkpt>
      <trkpt lat="43.61175" lon="5.30509">
        <ele>231.19999694824</ele>
        <time>2019-11-30T12:49:18.000Z</time>
      </trkpt>
      <trkpt lat="43.61172" lon="5.30512">
        <ele>231.19999694824</ele>
        <time>2019-11-30T12:49:19.000Z</time>
      </trkpt>
      <trkpt lat="43.61167" lon="5.30516">
        <ele>231.19999694824</ele>
        <time>2019-11-30T12:49:20.000Z</time>
      </trkpt>
      <trkpt lat="43.61164" lon="5.30519">
        <ele>231.19999694824</ele>
        <time>2019-11-30T12:49:21.000Z</time>
      </trkpt>
      <trkpt lat="43.6116" lon="5.30523">
        <ele>231.39999389648</ele>
        <time>2019-11-30T12:49:22.000Z</time>
      </trkpt>
      <trkpt lat="43.61157" lon="5.30526">
        <ele>231.39999389648</ele>
        <time>2019-11-30T12:49:23.000Z</time>
      </trkpt>
      <trkpt lat="43.61154" lon="5.3053">
        <ele>231.60000610352</ele>
        <time>2019-11-30T12:49:24.000Z</time>
      </trkpt>
      <trkpt lat="43.6115" lon="5.30534">
        <ele>231.60000610352</ele>
        <time>2019-11-30T12:49:25.000Z</time>
      </trkpt>
      <trkpt lat="43.61147" lon="5.30537">
        <ele>231.80000305176</ele>
        <time>2019-11-30T12:49:26.000Z</time>
      </trkpt>
      <trkpt lat="43.61144" lon="5.30541">
        <ele>232</ele>
        <time>2019-11-30T12:49:27.000Z</time>
      </trkpt>
      <trkpt lat="43.6114" lon="5.30544">
        <ele>232</ele>
        <time>2019-11-30T12:49:28.000Z</time>
      </trkpt>
      <trkpt lat="43.61137" lon="5.30548">
        <ele>232.19999694824</ele>
        <time>2019-11-30T12:49:29.000Z</time>
      </trkpt>
      <trkpt lat="43.61133" lon="5.30552">
        <ele>232.39999389648</ele>
        <time>2019-11-30T12:49:30.000Z</time>
      </trkpt>
      <trkpt lat="43.6113" lon="5.30555">
        <ele>232.60000610352</ele>
        <time>2019-11-30T12:49:31.000Z</time>
      </trkpt>
      <trkpt lat="43.61128" lon="5.30558">
        <ele>232.60000610352</ele>
        <time>2019-11-30T12:49:32.000Z</time>
      </trkpt>
      <trkpt lat="43.61125" lon="5.30561">
        <ele>232.80000305176</ele>
        <time>2019-11-30T12:49:33.000Z</time>
      </trkpt>
      <trkpt lat="43.61121" lon="5.30564">
        <ele>233</ele>
        <time>2019-11-30T12:49:34.000Z</time>
      </trkpt>
      <trkpt lat="43.61118" lon="5.30568">
        <ele>233</ele>
        <time>2019-11-30T12:49:35.000Z</time>
      </trkpt>
      <trkpt lat="43.61115" lon="5.30571">
        <ele>233.19999694824</ele>
        <time>2019-11-30T12:49:36.000Z</time>
      </trkpt>
      <trkpt lat="43.61111" lon="5.30575">
        <ele>233.19999694824</ele>
        <time>2019-11-30T12:49:37.000Z</time>
      </trkpt>
      <trkpt lat="43.61108" lon="5.30578">
        <ele>233.39999389648</ele>
        <time>2019-11-30T12:49:38.000Z</time>
      </trkpt>
      <trkpt lat="43.61105" lon="5.30582">
        <ele>233.39999389648</ele>
        <time>2019-11-30T12:49:39.000Z</time>
      </trkpt>
      <trkpt lat="43.61102" lon="5.30585">
        <ele>233.39999389648</ele>
        <time>2019-11-30T12:49:40.000Z</time>
      </trkpt>
      <trkpt lat="43.61099" lon="5.30588">
        <ele>233.60000610352</ele>
        <time>2019-11-30T12:49:41.000Z</time>
      </trkpt>
      <trkpt lat="43.61096" lon="5.30591">
        <ele>233.60000610352</ele>
        <time>2019-11-30T12:49:42.000Z</time>
      </trkpt>
      <trkpt lat="43.61093" lon="5.30595">
        <ele>233.80000305176</ele>
        <time>2019-11-30T12:49:43.000Z</time>
      </trkpt>
      <trkpt lat="43.6109" lon="5.30598">
        <ele>233.80000305176</ele>
        <time>2019-11-30T12:49:44.000Z</time>
      </trkpt>
      <trkpt lat="43.61087" lon="5.30601">
        <ele>234</ele>
        <time>2019-11-30T12:49:45.000Z</time>
      </trkpt>
      <trkpt lat="43.61084" lon="5.30605">
        <ele>234.19999694824</ele>
        <time>2019-11-30T12:49:46.000Z</time>
      </trkpt>
      <trkpt lat="43.6108" lon="5.30608">
        <ele>234.19999694824</ele>
        <time>2019-11-30T12:49:47.000Z</time>
      </trkpt>
      <trkpt lat="43.61077" lon="5.30612">
        <ele>234.39999389648</ele>
        <time>2019-11-30T12:49:48.000Z</time>
      </trkpt>
      <trkpt lat="43.61074" lon="5.30615">
        <ele>234.39999389648</ele>
        <time>2019-11-30T12:49:49.000Z</time>
      </trkpt>
      <trkpt lat="43.6107" lon="5.30619">
        <ele>234.39999389648</ele>
        <time>2019-11-30T12:49:50.000Z</time>
      </trkpt>
      <trkpt lat="43.61067" lon="5.30622">
        <ele>234.39999389648</ele>
        <time>2019-11-30T12:49:51.000Z</time>
      </trkpt>
      <trkpt lat="43.61064" lon="5.30625">
        <ele>234.39999389648</ele>
        <time>2019-11-30T12:49:52.000Z</time>
      </trkpt>
      <trkpt lat="43.61061" lon="5.30629">
        <ele>234.39999389648</ele>
        <time>2019-11-30T12:49:53.000Z</time>
      </trkpt>
      <trkpt lat="43.61058" lon="5.30632">
        <ele>234.60000610352</ele>
        <time>2019-11-30T12:49:54.000Z</time>
      </trkpt>
      <trkpt lat="43.61054" lon="5.30636">
        <ele>234.60000610352</ele>
        <time>2019-11-30T12:49:55.000Z</time>
      </trkpt>
      <trkpt lat="43.61051" lon="5.3064">
        <ele>234.60000610352</ele>
        <time>2019-11-30T12:49:56.000Z</time>
      </trkpt>
      <trkpt lat="43.61047" lon="5.30644">
        <ele>234.60000610352</ele>
        <time>2019-11-30T12:49:57.000Z</time>
      </trkpt>
      <trkpt lat="43.61044" lon="5.30647">
        <ele>234.60000610352</ele>
        <time>2019-11-30T12:49:58.000Z</time>
      </trkpt>
      <trkpt lat="43.61041" lon="5.30651">
        <ele>234.80000305176</ele>
        <time>2019-11-30T12:49:59.000Z</time>
      </trkpt>
      <trkpt lat="43.61038" lon="5.30654">
        <ele>234.80000305176</ele>
        <time>2019-11-30T12:50:00.000Z</time>
      </trkpt>
      <trkpt lat="43.61035" lon="5.30657">
        <ele>235</ele>
        <time>2019-11-30T12:50:01.000Z</time>
      </trkpt>
      <trkpt lat="43.61032" lon="5.30661">
        <ele>235.19999694824</ele>
        <time>2019-11-30T12:50:02.000Z</time>
      </trkpt>
      <trkpt lat="43.61029" lon="5.30664">
        <ele>235.39999389648</ele>
        <time>2019-11-30T12:50:03.000Z</time>
      </trkpt>
      <trkpt lat="43.61025" lon="5.30668">
        <ele>235.60000610352</ele>
        <time>2019-11-30T12:50:04.000Z</time>
      </trkpt>
      <trkpt lat="43.61022" lon="5.30671">
        <ele>235.80000305176</ele>
        <time>2019-11-30T12:50:05.000Z</time>
      </trkpt>
      <trkpt lat="43.61019" lon="5.30675">
        <ele>236</ele>
        <time>2019-11-30T12:50:06.000Z</time>
      </trkpt>
      <trkpt lat="43.61016" lon="5.30678">
        <ele>236.19999694824</ele>
        <time>2019-11-30T12:50:07.000Z</time>
      </trkpt>
      <trkpt lat="43.61013" lon="5.30681">
        <ele>236.39999389648</ele>
        <time>2019-11-30T12:50:08.000Z</time>
      </trkpt>
      <trkpt lat="43.6101" lon="5.30684">
        <ele>236.60000610352</ele>
        <time>2019-11-30T12:50:09.000Z</time>
      </trkpt>
      <trkpt lat="43.61007" lon="5.30688">
        <ele>236.60000610352</ele>
        <time>2019-11-30T12:50:10.000Z</time>
      </trkpt>
      <trkpt lat="43.61003" lon="5.30692">
        <ele>236.80000305176</ele>
        <time>2019-11-30T12:50:11.000Z</time>
      </trkpt>
      <trkpt lat="43.61" lon="5.30695">
        <ele>237</ele>
        <time>2019-11-30T12:50:12.000Z</time>
      </trkpt>
      <trkpt lat="43.60997" lon="5.30698">
        <ele>237</ele>
        <time>2019-11-30T12:50:13.000Z</time>
      </trkpt>
      <trkpt lat="43.60994" lon="5.30701">
        <ele>237.19999694824</ele>
        <time>2019-11-30T12:50:14.000Z</time>
      </trkpt>
      <trkpt lat="43.60992" lon="5.30704">
        <ele>237.19999694824</ele>
        <time>2019-11-30T12:50:15.000Z</time>
      </trkpt>
      <trkpt lat="43.6099" lon="5.30706">
        <ele>237.19999694824</ele>
        <time>2019-11-30T12:50:16.000Z</time>
      </trkpt>
      <trkpt lat="43.60989" lon="5.30708">
        <ele>237.19999694824</ele>
        <time>2019-11-30T12:50:17.000Z</time>
      </trkpt>
      <trkpt lat="43.60988" lon="5.30709">
        <ele>237.39999389648</ele>
        <time>2019-11-30T12:50:18.000Z</time>
      </trkpt>
      <trkpt lat="43.60986" lon="5.3071">
        <ele>237.39999389648</ele>
        <time>2019-11-30T12:50:19.000Z</time>
      </trkpt>
      <trkpt lat="43.60985" lon="5.30712">
        <ele>237.39999389648</ele>
        <time>2019-11-30T12:50:20.000Z</time>
      </trkpt>
      <trkpt lat="43.60983" lon="5.30714">
        <ele>237.39999389648</ele>
        <time>2019-11-30T12:50:21.000Z</time>
      </trkpt>
      <trkpt lat="43.60982" lon="5.30715">
        <ele>237.39999389648</ele>
        <time>2019-11-30T12:50:22.000Z</time>
      </trkpt>
      <trkpt lat="43.60982" lon="5.30715">
        <ele>237.39999389648</ele>
        <time>2019-11-30T12:50:23.000Z</time>
      </trkpt>
      <trkpt lat="43.60982" lon="5.30715">
        <ele>237.39999389648</ele>
        <time>2019-11-30T12:50:24.000Z</time>
      </trkpt>
      <trkpt lat="43.60982" lon="5.30715">
        <ele>237.39999389648</ele>
        <time>2019-11-30T12:50:25.000Z</time>
      </trkpt>
      <trkpt lat="43.60982" lon="5.30715">
        <ele>237.39999389648</ele>
        <time>2019-11-30T12:50:26.000Z</time>
      </trkpt>
      <trkpt lat="43.60982" lon="5.30715">
        <ele>237.39999389648</ele>
        <time>2019-11-30T12:50:27.000Z</time>
      </trkpt>
      <trkpt lat="43.60982" lon="5.30715">
        <ele>237.39999389648</ele>
        <time>2019-11-30T12:50:28.000Z</time>
      </trkpt>
      <trkpt lat="43.60982" lon="5.30715">
        <ele>237.39999389648</ele>
        <time>2019-11-30T12:50:29.000Z</time>
      </trkpt>
      <trkpt lat="43.60982" lon="5.30715">
        <ele>237.39999389648</ele>
        <time>2019-11-30T12:50:30.000Z</time>
      </trkpt>
      <trkpt lat="43.60982" lon="5.30715">
        <ele>237.39999389648</ele>
        <time>2019-11-30T12:50:31.000Z</time>
      </trkpt>
      <trkpt lat="43.60982" lon="5.30715">
        <ele>237.39999389648</ele>
        <time>2019-11-30T12:50:32.000Z</time>
      </trkpt>
      <trkpt lat="43.60982" lon="5.30715">
        <ele>237.39999389648</ele>
        <time>2019-11-30T12:50:33.000Z</time>
      </trkpt>
      <trkpt lat="43.60982" lon="5.30715">
        <ele>237.39999389648</ele>
        <time>2019-11-30T12:50:34.000Z</time>
      </trkpt>
      <trkpt lat="43.60982" lon="5.30715">
        <ele>237.39999389648</ele>
        <time>2019-11-30T12:50:35.000Z</time>
      </trkpt>
      <trkpt lat="43.60982" lon="5.30715">
        <ele>237.39999389648</ele>
        <time>2019-11-30T12:50:36.000Z</time>
      </trkpt>
      <trkpt lat="43.60982" lon="5.30715">
        <ele>237.39999389648</ele>
        <time>2019-11-30T12:50:37.000Z</time>
      </trkpt>
      <trkpt lat="43.6098" lon="5.30717">
        <ele>237.39999389648</ele>
        <time>2019-11-30T12:50:38.000Z</time>
      </trkpt>
      <trkpt lat="43.6098" lon="5.30717">
        <ele>237.39999389648</ele>
        <time>2019-11-30T12:50:39.000Z</time>
      </trkpt>
      <trkpt lat="43.6098" lon="5.30717">
        <ele>237.39999389648</ele>
        <time>2019-11-30T12:50:40.000Z</time>
      </trkpt>
      <trkpt lat="43.6098" lon="5.30717">
        <ele>237.39999389648</ele>
        <time>2019-11-30T12:50:41.000Z</time>
      </trkpt>
      <trkpt lat="43.6098" lon="5.30717">
        <ele>237.39999389648</ele>
        <time>2019-11-30T12:50:42.000Z</time>
      </trkpt>
      <trkpt lat="43.60975" lon="5.30722">
        <ele>237.39999389648</ele>
        <time>2019-11-30T12:50:43.000Z</time>
      </trkpt>
      <trkpt lat="43.60974" lon="5.30724">
        <ele>237.39999389648</ele>
        <time>2019-11-30T12:50:44.000Z</time>
      </trkpt>
      <trkpt lat="43.60972" lon="5.30726">
        <ele>237.39999389648</ele>
        <time>2019-11-30T12:50:45.000Z</time>
      </trkpt>
      <trkpt lat="43.60972" lon="5.30726">
        <ele>237.39999389648</ele>
        <time>2019-11-30T12:50:46.000Z</time>
      </trkpt>
      <trkpt lat="43.60972" lon="5.30726">
        <ele>237.39999389648</ele>
        <time>2019-11-30T12:50:47.000Z</time>
      </trkpt>
      <trkpt lat="43.60972" lon="5.30726">
        <ele>237.39999389648</ele>
        <time>2019-11-30T12:50:48.000Z</time>
      </trkpt>
      <trkpt lat="43.60972" lon="5.30726">
        <ele>237.39999389648</ele>
        <time>2019-11-30T12:50:49.000Z</time>
      </trkpt>
      <trkpt lat="43.60972" lon="5.30726">
        <ele>237.39999389648</ele>
        <time>2019-11-30T12:50:50.000Z</time>
      </trkpt>
      <trkpt lat="43.60972" lon="5.30726">
        <ele>237.39999389648</ele>
        <time>2019-11-30T12:50:51.000Z</time>
      </trkpt>
      <trkpt lat="43.60972" lon="5.30726">
        <ele>237.39999389648</ele>
        <time>2019-11-30T12:50:52.000Z</time>
      </trkpt>
      <trkpt lat="43.60972" lon="5.30726">
        <ele>237.39999389648</ele>
        <time>2019-11-30T12:50:53.000Z</time>
      </trkpt>
      <trkpt lat="43.60972" lon="5.30726">
        <ele>237.39999389648</ele>
        <time>2019-11-30T12:50:54.000Z</time>
      </trkpt>
      <trkpt lat="43.60972" lon="5.30726">
        <ele>237.39999389648</ele>
        <time>2019-11-30T12:50:55.000Z</time>
      </trkpt>
      <trkpt lat="43.60972" lon="5.30726">
        <ele>237.39999389648</ele>
        <time>2019-11-30T12:50:56.000Z</time>
      </trkpt>
      <trkpt lat="43.60972" lon="5.30726">
        <ele>237.39999389648</ele>
        <time>2019-11-30T12:50:57.000Z</time>
      </trkpt>
      <trkpt lat="43.60972" lon="5.30726">
        <ele>237.39999389648</ele>
        <time>2019-11-30T12:50:58.000Z</time>
      </trkpt>
      <trkpt lat="43.60972" lon="5.30726">
        <ele>237.39999389648</ele>
        <time>2019-11-30T12:50:59.000Z</time>
      </trkpt>
      <trkpt lat="43.60972" lon="5.30726">
        <ele>237.39999389648</ele>
        <time>2019-11-30T12:51:00.000Z</time>
      </trkpt>
      <trkpt lat="43.60972" lon="5.30726">
        <ele>237.39999389648</ele>
        <time>2019-11-30T12:51:01.000Z</time>
      </trkpt>
      <trkpt lat="43.60972" lon="5.30726">
        <ele>237.39999389648</ele>
        <time>2019-11-30T12:51:02.000Z</time>
      </trkpt>
      <trkpt lat="43.60972" lon="5.30726">
        <ele>237.39999389648</ele>
        <time>2019-11-30T12:51:03.000Z</time>
      </trkpt>
      <trkpt lat="43.60972" lon="5.30726">
        <ele>237.39999389648</ele>
        <time>2019-11-30T12:51:04.000Z</time>
      </trkpt>
      <trkpt lat="43.60972" lon="5.30726">
        <ele>237.39999389648</ele>
        <time>2019-11-30T12:51:05.000Z</time>
      </trkpt>
      <trkpt lat="43.60972" lon="5.30726">
        <ele>237.39999389648</ele>
        <time>2019-11-30T12:51:06.000Z</time>
      </trkpt>
      <trkpt lat="43.60972" lon="5.30726">
        <ele>237.39999389648</ele>
        <time>2019-11-30T12:51:07.000Z</time>
      </trkpt>
      <trkpt lat="43.60972" lon="5.30726">
        <ele>237.39999389648</ele>
        <time>2019-11-30T12:51:08.000Z</time>
      </trkpt>
      <trkpt lat="43.60972" lon="5.30726">
        <ele>237.39999389648</ele>
        <time>2019-11-30T12:51:09.000Z</time>
      </trkpt>
      <trkpt lat="43.60972" lon="5.30726">
        <ele>237.39999389648</ele>
        <time>2019-11-30T12:51:10.000Z</time>
      </trkpt>
      <trkpt lat="43.60972" lon="5.30726">
        <ele>237.39999389648</ele>
        <time>2019-11-30T12:51:11.000Z</time>
      </trkpt>
      <trkpt lat="43.60972" lon="5.30726">
        <ele>237.39999389648</ele>
        <time>2019-11-30T12:51:12.000Z</time>
      </trkpt>
      <trkpt lat="43.60972" lon="5.30726">
        <ele>237.39999389648</ele>
        <time>2019-11-30T12:51:13.000Z</time>
      </trkpt>
      <trkpt lat="43.60972" lon="5.30726">
        <ele>237.39999389648</ele>
        <time>2019-11-30T12:51:14.000Z</time>
      </trkpt>
      <trkpt lat="43.60972" lon="5.30726">
        <ele>237.39999389648</ele>
        <time>2019-11-30T12:51:15.000Z</time>
      </trkpt>
      <trkpt lat="43.60972" lon="5.30726">
        <ele>237.39999389648</ele>
        <time>2019-11-30T12:51:16.000Z</time>
      </trkpt>
      <trkpt lat="43.60972" lon="5.30726">
        <ele>237.39999389648</ele>
        <time>2019-11-30T12:51:17.000Z</time>
      </trkpt>
      <trkpt lat="43.60972" lon="5.30726">
        <ele>237.39999389648</ele>
        <time>2019-11-30T12:51:18.000Z</time>
      </trkpt>
      <trkpt lat="43.60972" lon="5.30726">
        <ele>237.39999389648</ele>
        <time>2019-11-30T12:51:19.000Z</time>
      </trkpt>
      <trkpt lat="43.60972" lon="5.30726">
        <ele>237.39999389648</ele>
        <time>2019-11-30T12:51:20.000Z</time>
      </trkpt>
      <trkpt lat="43.60972" lon="5.30726">
        <ele>237.39999389648</ele>
        <time>2019-11-30T12:51:21.000Z</time>
      </trkpt>
      <trkpt lat="43.60972" lon="5.30726">
        <ele>237.39999389648</ele>
        <time>2019-11-30T12:51:22.000Z</time>
      </trkpt>
      <trkpt lat="43.60972" lon="5.30726">
        <ele>237.39999389648</ele>
        <time>2019-11-30T12:51:23.000Z</time>
      </trkpt>
      <trkpt lat="43.60972" lon="5.30726">
        <ele>237.39999389648</ele>
        <time>2019-11-30T12:51:24.000Z</time>
      </trkpt>
      <trkpt lat="43.60972" lon="5.30726">
        <ele>237.39999389648</ele>
        <time>2019-11-30T12:51:25.000Z</time>
      </trkpt>
      <trkpt lat="43.60972" lon="5.30726">
        <ele>237.39999389648</ele>
        <time>2019-11-30T12:51:26.000Z</time>
      </trkpt>
      <trkpt lat="43.60972" lon="5.30726">
        <ele>237.39999389648</ele>
        <time>2019-11-30T12:51:27.000Z</time>
      </trkpt>
      <trkpt lat="43.60972" lon="5.30726">
        <ele>237.39999389648</ele>
        <time>2019-11-30T12:51:28.000Z</time>
      </trkpt>
      <trkpt lat="43.60972" lon="5.30726">
        <ele>237.39999389648</ele>
        <time>2019-11-30T12:51:29.000Z</time>
      </trkpt>
      <trkpt lat="43.60972" lon="5.30726">
        <ele>237.39999389648</ele>
        <time>2019-11-30T12:51:30.000Z</time>
      </trkpt>
      <trkpt lat="43.60972" lon="5.30726">
        <ele>237.39999389648</ele>
        <time>2019-11-30T12:51:31.000Z</time>
      </trkpt>
      <trkpt lat="43.60972" lon="5.30726">
        <ele>237.39999389648</ele>
        <time>2019-11-30T12:51:32.000Z</time>
      </trkpt>
      <trkpt lat="43.60969" lon="5.30729">
        <ele>237.39999389648</ele>
        <time>2019-11-30T12:51:33.000Z</time>
      </trkpt>
      <trkpt lat="43.60969" lon="5.30729">
        <ele>237.39999389648</ele>
        <time>2019-11-30T12:51:34.000Z</time>
      </trkpt>
      <trkpt lat="43.60969" lon="5.30729">
        <ele>237.39999389648</ele>
        <time>2019-11-30T12:51:35.000Z</time>
      </trkpt>
      <trkpt lat="43.60969" lon="5.30729">
        <ele>237.39999389648</ele>
        <time>2019-11-30T12:51:36.000Z</time>
      </trkpt>
      <trkpt lat="43.60966" lon="5.30733">
        <ele>237.39999389648</ele>
        <time>2019-11-30T12:51:37.000Z</time>
      </trkpt>
      <trkpt lat="43.60964" lon="5.30734">
        <ele>237.39999389648</ele>
        <time>2019-11-30T12:51:38.000Z</time>
      </trkpt>
      <trkpt lat="43.60962" lon="5.30736">
        <ele>237.39999389648</ele>
        <time>2019-11-30T12:51:39.000Z</time>
      </trkpt>
      <trkpt lat="43.6096" lon="5.30739">
        <ele>237.39999389648</ele>
        <time>2019-11-30T12:51:40.000Z</time>
      </trkpt>
      <trkpt lat="43.60957" lon="5.30742">
        <ele>237.60000610352</ele>
        <time>2019-11-30T12:51:41.000Z</time>
      </trkpt>
      <trkpt lat="43.60954" lon="5.30745">
        <ele>237.80000305176</ele>
        <time>2019-11-30T12:51:42.000Z</time>
      </trkpt>
      <trkpt lat="43.60951" lon="5.30748">
        <ele>237.80000305176</ele>
        <time>2019-11-30T12:51:43.000Z</time>
      </trkpt>
      <trkpt lat="43.60949" lon="5.30751">
        <ele>238</ele>
        <time>2019-11-30T12:51:44.000Z</time>
      </trkpt>
      <trkpt lat="43.60946" lon="5.30754">
        <ele>238</ele>
        <time>2019-11-30T12:51:45.000Z</time>
      </trkpt>
      <trkpt lat="43.60943" lon="5.30757">
        <ele>238.19999694824</ele>
        <time>2019-11-30T12:51:46.000Z</time>
      </trkpt>
      <trkpt lat="43.6094" lon="5.3076">
        <ele>238.39999389648</ele>
        <time>2019-11-30T12:51:47.000Z</time>
      </trkpt>
      <trkpt lat="43.60937" lon="5.30764">
        <ele>238.60000610352</ele>
        <time>2019-11-30T12:51:48.000Z</time>
      </trkpt>
      <trkpt lat="43.60933" lon="5.30768">
        <ele>238.60000610352</ele>
        <time>2019-11-30T12:51:49.000Z</time>
      </trkpt>
      <trkpt lat="43.6093" lon="5.30772">
        <ele>238.60000610352</ele>
        <time>2019-11-30T12:51:50.000Z</time>
      </trkpt>
      <trkpt lat="43.60926" lon="5.30776">
        <ele>238.80000305176</ele>
        <time>2019-11-30T12:51:51.000Z</time>
      </trkpt>
      <trkpt lat="43.60923" lon="5.30779">
        <ele>238.80000305176</ele>
        <time>2019-11-30T12:51:52.000Z</time>
      </trkpt>
      <trkpt lat="43.6092" lon="5.30783">
        <ele>238.80000305176</ele>
        <time>2019-11-30T12:51:53.000Z</time>
      </trkpt>
      <trkpt lat="43.60916" lon="5.30786">
        <ele>239</ele>
        <time>2019-11-30T12:51:54.000Z</time>
      </trkpt>
      <trkpt lat="43.60913" lon="5.3079">
        <ele>239.19999694824</ele>
        <time>2019-11-30T12:51:55.000Z</time>
      </trkpt>
      <trkpt lat="43.6091" lon="5.30794">
        <ele>239.39999389648</ele>
        <time>2019-11-30T12:51:56.000Z</time>
      </trkpt>
      <trkpt lat="43.60907" lon="5.30797">
        <ele>239.60000610352</ele>
        <time>2019-11-30T12:51:57.000Z</time>
      </trkpt>
      <trkpt lat="43.60904" lon="5.308">
        <ele>239.80000305176</ele>
        <time>2019-11-30T12:51:58.000Z</time>
      </trkpt>
      <trkpt lat="43.60901" lon="5.30803">
        <ele>239.80000305176</ele>
        <time>2019-11-30T12:51:59.000Z</time>
      </trkpt>
      <trkpt lat="43.60898" lon="5.30806">
        <ele>240</ele>
        <time>2019-11-30T12:52:00.000Z</time>
      </trkpt>
      <trkpt lat="43.60895" lon="5.30809">
        <ele>240.19999694824</ele>
        <time>2019-11-30T12:52:01.000Z</time>
      </trkpt>
      <trkpt lat="43.60892" lon="5.30812">
        <ele>240.19999694824</ele>
        <time>2019-11-30T12:52:02.000Z</time>
      </trkpt>
      <trkpt lat="43.60889" lon="5.30816">
        <ele>240.39999389648</ele>
        <time>2019-11-30T12:52:03.000Z</time>
      </trkpt>
      <trkpt lat="43.60885" lon="5.3082">
        <ele>240.39999389648</ele>
        <time>2019-11-30T12:52:04.000Z</time>
      </trkpt>
      <trkpt lat="43.60882" lon="5.30823">
        <ele>240.60000610352</ele>
        <time>2019-11-30T12:52:05.000Z</time>
      </trkpt>
      <trkpt lat="43.60879" lon="5.30827">
        <ele>240.80000305176</ele>
        <time>2019-11-30T12:52:06.000Z</time>
      </trkpt>
      <trkpt lat="43.60876" lon="5.3083">
        <ele>240.80000305176</ele>
        <time>2019-11-30T12:52:07.000Z</time>
      </trkpt>
      <trkpt lat="43.60873" lon="5.30833">
        <ele>241</ele>
        <time>2019-11-30T12:52:08.000Z</time>
      </trkpt>
      <trkpt lat="43.6087" lon="5.30837">
        <ele>241</ele>
        <time>2019-11-30T12:52:09.000Z</time>
      </trkpt>
      <trkpt lat="43.60867" lon="5.3084">
        <ele>241.19999694824</ele>
        <time>2019-11-30T12:52:10.000Z</time>
      </trkpt>
      <trkpt lat="43.60863" lon="5.30845">
        <ele>241.39999389648</ele>
        <time>2019-11-30T12:52:11.000Z</time>
      </trkpt>
      <trkpt lat="43.6086" lon="5.3085">
        <ele>241.39999389648</ele>
        <time>2019-11-30T12:52:12.000Z</time>
      </trkpt>
      <trkpt lat="43.60857" lon="5.30855">
        <ele>241.60000610352</ele>
        <time>2019-11-30T12:52:13.000Z</time>
      </trkpt>
      <trkpt lat="43.60853" lon="5.3086">
        <ele>241.80000305176</ele>
        <time>2019-11-30T12:52:14.000Z</time>
      </trkpt>
      <trkpt lat="43.6085" lon="5.30864">
        <ele>241.80000305176</ele>
        <time>2019-11-30T12:52:15.000Z</time>
      </trkpt>
      <trkpt lat="43.60847" lon="5.30869">
        <ele>241.80000305176</ele>
        <time>2019-11-30T12:52:16.000Z</time>
      </trkpt>
      <trkpt lat="43.60844" lon="5.30874">
        <ele>242</ele>
        <time>2019-11-30T12:52:17.000Z</time>
      </trkpt>
      <trkpt lat="43.6084" lon="5.30879">
        <ele>242.19999694824</ele>
        <time>2019-11-30T12:52:18.000Z</time>
      </trkpt>
      <trkpt lat="43.60837" lon="5.30883">
        <ele>242.19999694824</ele>
        <time>2019-11-30T12:52:19.000Z</time>
      </trkpt>
      <trkpt lat="43.60834" lon="5.30888">
        <ele>242.39999389648</ele>
        <time>2019-11-30T12:52:20.000Z</time>
      </trkpt>
      <trkpt lat="43.60831" lon="5.30892">
        <ele>242.39999389648</ele>
        <time>2019-11-30T12:52:21.000Z</time>
      </trkpt>
      <trkpt lat="43.60828" lon="5.30897">
        <ele>242.39999389648</ele>
        <time>2019-11-30T12:52:22.000Z</time>
      </trkpt>
      <trkpt lat="43.60826" lon="5.30901">
        <ele>242.60000610352</ele>
        <time>2019-11-30T12:52:23.000Z</time>
      </trkpt>
      <trkpt lat="43.60823" lon="5.30905">
        <ele>242.60000610352</ele>
        <time>2019-11-30T12:52:24.000Z</time>
      </trkpt>
      <trkpt lat="43.6082" lon="5.30909">
        <ele>242.80000305176</ele>
        <time>2019-11-30T12:52:25.000Z</time>
      </trkpt>
      <trkpt lat="43.60817" lon="5.30913">
        <ele>242.80000305176</ele>
        <time>2019-11-30T12:52:26.000Z</time>
      </trkpt>
      <trkpt lat="43.60815" lon="5.30917">
        <ele>242.80000305176</ele>
        <time>2019-11-30T12:52:27.000Z</time>
      </trkpt>
      <trkpt lat="43.60812" lon="5.3092">
        <ele>243</ele>
        <time>2019-11-30T12:52:28.000Z</time>
      </trkpt>
      <trkpt lat="43.6081" lon="5.30924">
        <ele>243</ele>
        <time>2019-11-30T12:52:29.000Z</time>
      </trkpt>
      <trkpt lat="43.60808" lon="5.30927">
        <ele>243.19999694824</ele>
        <time>2019-11-30T12:52:30.000Z</time>
      </trkpt>
      <trkpt lat="43.60828" lon="5.30958">
        <ele>243.60000610352</ele>
        <time>2019-11-30T12:52:31.000Z</time>
      </trkpt>
      <trkpt lat="43.6083" lon="5.30962">
        <ele>243.80000305176</ele>
        <time>2019-11-30T12:52:32.000Z</time>
      </trkpt>
      <trkpt lat="43.6083" lon="5.30966">
        <ele>243.80000305176</ele>
        <time>2019-11-30T12:52:33.000Z</time>
      </trkpt>
      <trkpt lat="43.60829" lon="5.30969">
        <ele>244</ele>
        <time>2019-11-30T12:52:34.000Z</time>
      </trkpt>
      <trkpt lat="43.60829" lon="5.30969">
        <ele>244</ele>
        <time>2019-11-30T12:52:35.000Z</time>
      </trkpt>
      <trkpt lat="43.60829" lon="5.3097">
        <ele>244</ele>
        <time>2019-11-30T12:52:36.000Z</time>
      </trkpt>
      <trkpt lat="43.60829" lon="5.3097">
        <ele>244</ele>
        <time>2019-11-30T12:52:37.000Z</time>
      </trkpt>
      <trkpt lat="43.60829" lon="5.3097">
        <ele>244</ele>
        <time>2019-11-30T12:52:38.000Z</time>
      </trkpt>
      <trkpt lat="43.60829" lon="5.30969">
        <ele>244</ele>
        <time>2019-11-30T12:52:39.000Z</time>
      </trkpt>
      <trkpt lat="43.60829" lon="5.30969">
        <ele>244</ele>
        <time>2019-11-30T12:52:40.000Z</time>
      </trkpt>
      <trkpt lat="43.60829" lon="5.30969">
        <ele>244</ele>
        <time>2019-11-30T12:52:41.000Z</time>
      </trkpt>
      <trkpt lat="43.60829" lon="5.30969">
        <ele>244</ele>
        <time>2019-11-30T12:52:42.000Z</time>
      </trkpt>
      <trkpt lat="43.60829" lon="5.3097">
        <ele>244</ele>
        <time>2019-11-30T12:52:43.000Z</time>
      </trkpt>
      <trkpt lat="43.60829" lon="5.3097">
        <ele>244</ele>
        <time>2019-11-30T12:52:44.000Z</time>
      </trkpt>
      <trkpt lat="43.60829" lon="5.3097">
        <ele>244</ele>
        <time>2019-11-30T12:52:45.000Z</time>
      </trkpt>
      <trkpt lat="43.60829" lon="5.3097">
        <ele>244</ele>
        <time>2019-11-30T12:52:46.000Z</time>
      </trkpt>
      <trkpt lat="43.6083" lon="5.30971">
        <ele>244</ele>
        <time>2019-11-30T12:52:47.000Z</time>
      </trkpt>
      <trkpt lat="43.6083" lon="5.30971">
        <ele>244</ele>
        <time>2019-11-30T12:52:48.000Z</time>
      </trkpt>
      <trkpt lat="43.6083" lon="5.30971">
        <ele>244</ele>
        <time>2019-11-30T12:52:49.000Z</time>
      </trkpt>
      <trkpt lat="43.6083" lon="5.30971">
        <ele>244</ele>
        <time>2019-11-30T12:52:50.000Z</time>
      </trkpt>
      <trkpt lat="43.6083" lon="5.30971">
        <ele>244</ele>
        <time>2019-11-30T12:52:51.000Z</time>
      </trkpt>
      <trkpt lat="43.6083" lon="5.30973">
        <ele>244</ele>
        <time>2019-11-30T12:52:52.000Z</time>
      </trkpt>
      <trkpt lat="43.6083" lon="5.30973">
        <ele>244</ele>
        <time>2019-11-30T12:52:53.000Z</time>
      </trkpt>
      <trkpt lat="43.60831" lon="5.30975">
        <ele>244</ele>
        <time>2019-11-30T12:52:54.000Z</time>
      </trkpt>
      <trkpt lat="43.60831" lon="5.30976">
        <ele>244</ele>
        <time>2019-11-30T12:52:55.000Z</time>
      </trkpt>
      <trkpt lat="43.60831" lon="5.30978">
        <ele>244</ele>
        <time>2019-11-30T12:52:56.000Z</time>
      </trkpt>
      <trkpt lat="43.60831" lon="5.3098">
        <ele>244.19999694824</ele>
        <time>2019-11-30T12:52:57.000Z</time>
      </trkpt>
      <trkpt lat="43.60832" lon="5.30983">
        <ele>244.19999694824</ele>
        <time>2019-11-30T12:52:58.000Z</time>
      </trkpt>
      <trkpt lat="43.60834" lon="5.30986">
        <ele>244.19999694824</ele>
        <time>2019-11-30T12:52:59.000Z</time>
      </trkpt>
      <trkpt lat="43.60838" lon="5.30988">
        <ele>244</ele>
        <time>2019-11-30T12:53:00.000Z</time>
      </trkpt>
      <trkpt lat="43.60843" lon="5.30991">
        <ele>244</ele>
        <time>2019-11-30T12:53:01.000Z</time>
      </trkpt>
      <trkpt lat="43.60847" lon="5.30994">
        <ele>243.80000305176</ele>
        <time>2019-11-30T12:53:02.000Z</time>
      </trkpt>
      <trkpt lat="43.60852" lon="5.30996">
        <ele>243.80000305176</ele>
        <time>2019-11-30T12:53:03.000Z</time>
      </trkpt>
      <trkpt lat="43.60856" lon="5.30999">
        <ele>243.80000305176</ele>
        <time>2019-11-30T12:53:04.000Z</time>
      </trkpt>
      <trkpt lat="43.60862" lon="5.31001">
        <ele>243.60000610352</ele>
        <time>2019-11-30T12:53:05.000Z</time>
      </trkpt>
      <trkpt lat="43.60866" lon="5.31004">
        <ele>243.60000610352</ele>
        <time>2019-11-30T12:53:06.000Z</time>
      </trkpt>
      <trkpt lat="43.6087" lon="5.31005">
        <ele>243.60000610352</ele>
        <time>2019-11-30T12:53:07.000Z</time>
      </trkpt>
      <trkpt lat="43.60873" lon="5.3101">
        <ele>243.60000610352</ele>
        <time>2019-11-30T12:53:08.000Z</time>
      </trkpt>
      <trkpt lat="43.60878" lon="5.31013">
        <ele>243.60000610352</ele>
        <time>2019-11-30T12:53:09.000Z</time>
      </trkpt>
      <trkpt lat="43.60883" lon="5.31013">
        <ele>243.39999389648</ele>
        <time>2019-11-30T12:53:10.000Z</time>
      </trkpt>
      <trkpt lat="43.60889" lon="5.31013">
        <ele>243.19999694824</ele>
        <time>2019-11-30T12:53:11.000Z</time>
      </trkpt>
      <trkpt lat="43.60894" lon="5.31015">
        <ele>243.19999694824</ele>
        <time>2019-11-30T12:53:12.000Z</time>
      </trkpt>
      <trkpt lat="43.60899" lon="5.31018">
        <ele>243.19999694824</ele>
        <time>2019-11-30T12:53:13.000Z</time>
      </trkpt>
      <trkpt lat="43.60904" lon="5.31022">
        <ele>243.19999694824</ele>
        <time>2019-11-30T12:53:14.000Z</time>
      </trkpt>
      <trkpt lat="43.60909" lon="5.31026">
        <ele>243.19999694824</ele>
        <time>2019-11-30T12:53:15.000Z</time>
      </trkpt>
      <trkpt lat="43.60913" lon="5.3103">
        <ele>243.19999694824</ele>
        <time>2019-11-30T12:53:16.000Z</time>
      </trkpt>
      <trkpt lat="43.60917" lon="5.31033">
        <ele>243</ele>
        <time>2019-11-30T12:53:17.000Z</time>
      </trkpt>
      <trkpt lat="43.60923" lon="5.31035">
        <ele>243</ele>
        <time>2019-11-30T12:53:18.000Z</time>
      </trkpt>
      <trkpt lat="43.60927" lon="5.31035">
        <ele>242.80000305176</ele>
        <time>2019-11-30T12:53:19.000Z</time>
      </trkpt>
      <trkpt lat="43.60932" lon="5.31034">
        <ele>242.80000305176</ele>
        <time>2019-11-30T12:53:20.000Z</time>
      </trkpt>
      <trkpt lat="43.60936" lon="5.31037">
        <ele>242.80000305176</ele>
        <time>2019-11-30T12:53:21.000Z</time>
      </trkpt>
      <trkpt lat="43.6094" lon="5.31042">
        <ele>242.60000610352</ele>
        <time>2019-11-30T12:53:22.000Z</time>
      </trkpt>
      <trkpt lat="43.60944" lon="5.31044">
        <ele>242.60000610352</ele>
        <time>2019-11-30T12:53:23.000Z</time>
      </trkpt>
      <trkpt lat="43.60948" lon="5.31047">
        <ele>242.39999389648</ele>
        <time>2019-11-30T12:53:24.000Z</time>
      </trkpt>
      <trkpt lat="43.60953" lon="5.3105">
        <ele>242.19999694824</ele>
        <time>2019-11-30T12:53:25.000Z</time>
      </trkpt>
      <trkpt lat="43.60959" lon="5.31051">
        <ele>241.80000305176</ele>
        <time>2019-11-30T12:53:26.000Z</time>
      </trkpt>
      <trkpt lat="43.60965" lon="5.31051">
        <ele>241.60000610352</ele>
        <time>2019-11-30T12:53:27.000Z</time>
      </trkpt>
      <trkpt lat="43.60969" lon="5.31056">
        <ele>241.39999389648</ele>
        <time>2019-11-30T12:53:28.000Z</time>
      </trkpt>
      <trkpt lat="43.60973" lon="5.31058">
        <ele>241.19999694824</ele>
        <time>2019-11-30T12:53:29.000Z</time>
      </trkpt>
      <trkpt lat="43.60978" lon="5.31059">
        <ele>241</ele>
        <time>2019-11-30T12:53:30.000Z</time>
      </trkpt>
      <trkpt lat="43.60981" lon="5.3106">
        <ele>240.80000305176</ele>
        <time>2019-11-30T12:53:31.000Z</time>
      </trkpt>
      <trkpt lat="43.60986" lon="5.31061">
        <ele>240.60000610352</ele>
        <time>2019-11-30T12:53:32.000Z</time>
      </trkpt>
      <trkpt lat="43.60991" lon="5.31063">
        <ele>240.39999389648</ele>
        <time>2019-11-30T12:53:33.000Z</time>
      </trkpt>
      <trkpt lat="43.60995" lon="5.31065">
        <ele>240.19999694824</ele>
        <time>2019-11-30T12:53:34.000Z</time>
      </trkpt>
      <trkpt lat="43.60997" lon="5.31069">
        <ele>240</ele>
        <time>2019-11-30T12:53:35.000Z</time>
      </trkpt>
      <trkpt lat="43.60999" lon="5.31075">
        <ele>240</ele>
        <time>2019-11-30T12:53:36.000Z</time>
      </trkpt>
      <trkpt lat="43.61002" lon="5.3108">
        <ele>239.80000305176</ele>
        <time>2019-11-30T12:53:37.000Z</time>
      </trkpt>
      <trkpt lat="43.61006" lon="5.31085">
        <ele>239.60000610352</ele>
        <time>2019-11-30T12:53:38.000Z</time>
      </trkpt>
      <trkpt lat="43.61009" lon="5.3109">
        <ele>239.39999389648</ele>
        <time>2019-11-30T12:53:39.000Z</time>
      </trkpt>
      <trkpt lat="43.61013" lon="5.31094">
        <ele>239.19999694824</ele>
        <time>2019-11-30T12:53:40.000Z</time>
      </trkpt>
      <trkpt lat="43.61018" lon="5.31096">
        <ele>239</ele>
        <time>2019-11-30T12:53:41.000Z</time>
      </trkpt>
      <trkpt lat="43.61022" lon="5.31096">
        <ele>239</ele>
        <time>2019-11-30T12:53:42.000Z</time>
      </trkpt>
      <trkpt lat="43.61027" lon="5.31098">
        <ele>239</ele>
        <time>2019-11-30T12:53:43.000Z</time>
      </trkpt>
      <trkpt lat="43.61031" lon="5.311">
        <ele>238.80000305176</ele>
        <time>2019-11-30T12:53:44.000Z</time>
      </trkpt>
      <trkpt lat="43.61035" lon="5.31102">
        <ele>238.80000305176</ele>
        <time>2019-11-30T12:53:45.000Z</time>
      </trkpt>
      <trkpt lat="43.6104" lon="5.31104">
        <ele>238.80000305176</ele>
        <time>2019-11-30T12:53:46.000Z</time>
      </trkpt>
      <trkpt lat="43.61045" lon="5.31106">
        <ele>238.60000610352</ele>
        <time>2019-11-30T12:53:47.000Z</time>
      </trkpt>
      <trkpt lat="43.61049" lon="5.31107">
        <ele>238.60000610352</ele>
        <time>2019-11-30T12:53:48.000Z</time>
      </trkpt>
      <trkpt lat="43.61053" lon="5.31105">
        <ele>238.60000610352</ele>
        <time>2019-11-30T12:53:49.000Z</time>
      </trkpt>
      <trkpt lat="43.61057" lon="5.31103">
        <ele>238.60000610352</ele>
        <time>2019-11-30T12:53:50.000Z</time>
      </trkpt>
      <trkpt lat="43.61061" lon="5.31104">
        <ele>238.39999389648</ele>
        <time>2019-11-30T12:53:51.000Z</time>
      </trkpt>
      <trkpt lat="43.61063" lon="5.31105">
        <ele>238.39999389648</ele>
        <time>2019-11-30T12:53:52.000Z</time>
      </trkpt>
      <trkpt lat="43.61066" lon="5.31105">
        <ele>238.39999389648</ele>
        <time>2019-11-30T12:53:53.000Z</time>
      </trkpt>
      <trkpt lat="43.61068" lon="5.31103">
        <ele>238.39999389648</ele>
        <time>2019-11-30T12:53:54.000Z</time>
      </trkpt>
      <trkpt lat="43.61072" lon="5.31103">
        <ele>238.39999389648</ele>
        <time>2019-11-30T12:53:55.000Z</time>
      </trkpt>
      <trkpt lat="43.61075" lon="5.31102">
        <ele>238.39999389648</ele>
        <time>2019-11-30T12:53:56.000Z</time>
      </trkpt>
      <trkpt lat="43.61078" lon="5.311">
        <ele>238.19999694824</ele>
        <time>2019-11-30T12:53:57.000Z</time>
      </trkpt>
      <trkpt lat="43.61079" lon="5.31095">
        <ele>238.19999694824</ele>
        <time>2019-11-30T12:53:58.000Z</time>
      </trkpt>
      <trkpt lat="43.61082" lon="5.31091">
        <ele>238</ele>
        <time>2019-11-30T12:53:59.000Z</time>
      </trkpt>
      <trkpt lat="43.61087" lon="5.3109">
        <ele>237.80000305176</ele>
        <time>2019-11-30T12:54:00.000Z</time>
      </trkpt>
      <trkpt lat="43.61091" lon="5.31088">
        <ele>237.80000305176</ele>
        <time>2019-11-30T12:54:01.000Z</time>
      </trkpt>
      <trkpt lat="43.61094" lon="5.31085">
        <ele>237.60000610352</ele>
        <time>2019-11-30T12:54:02.000Z</time>
      </trkpt>
      <trkpt lat="43.61097" lon="5.31082">
        <ele>237.60000610352</ele>
        <time>2019-11-30T12:54:03.000Z</time>
      </trkpt>
      <trkpt lat="43.61101" lon="5.31079">
        <ele>237.39999389648</ele>
        <time>2019-11-30T12:54:04.000Z</time>
      </trkpt>
      <trkpt lat="43.61103" lon="5.31081">
        <ele>237.39999389648</ele>
        <time>2019-11-30T12:54:05.000Z</time>
      </trkpt>
      <trkpt lat="43.61108" lon="5.31082">
        <ele>237.19999694824</ele>
        <time>2019-11-30T12:54:06.000Z</time>
      </trkpt>
      <trkpt lat="43.61111" lon="5.31083">
        <ele>237.19999694824</ele>
        <time>2019-11-30T12:54:07.000Z</time>
      </trkpt>
      <trkpt lat="43.61116" lon="5.31083">
        <ele>237.19999694824</ele>
        <time>2019-11-30T12:54:08.000Z</time>
      </trkpt>
      <trkpt lat="43.6112" lon="5.31084">
        <ele>237</ele>
        <time>2019-11-30T12:54:09.000Z</time>
      </trkpt>
      <trkpt lat="43.61123" lon="5.31085">
        <ele>237</ele>
        <time>2019-11-30T12:54:10.000Z</time>
      </trkpt>
      <trkpt lat="43.61127" lon="5.31088">
        <ele>236.80000305176</ele>
        <time>2019-11-30T12:54:11.000Z</time>
      </trkpt>
      <trkpt lat="43.6113" lon="5.31089">
        <ele>236.80000305176</ele>
        <time>2019-11-30T12:54:12.000Z</time>
      </trkpt>
      <trkpt lat="43.61133" lon="5.31089">
        <ele>236.80000305176</ele>
        <time>2019-11-30T12:54:13.000Z</time>
      </trkpt>
      <trkpt lat="43.61138" lon="5.3109">
        <ele>236.60000610352</ele>
        <time>2019-11-30T12:54:14.000Z</time>
      </trkpt>
      <trkpt lat="43.61142" lon="5.31092">
        <ele>236.60000610352</ele>
        <time>2019-11-30T12:54:15.000Z</time>
      </trkpt>
      <trkpt lat="43.61147" lon="5.31093">
        <ele>236.39999389648</ele>
        <time>2019-11-30T12:54:16.000Z</time>
      </trkpt>
      <trkpt lat="43.61151" lon="5.31096">
        <ele>236.39999389648</ele>
        <time>2019-11-30T12:54:17.000Z</time>
      </trkpt>
      <trkpt lat="43.61151" lon="5.31096">
        <ele>236.39999389648</ele>
        <time>2019-11-30T12:54:18.000Z</time>
      </trkpt>
      <trkpt lat="43.61153" lon="5.31096">
        <ele>236.39999389648</ele>
        <time>2019-11-30T12:54:19.000Z</time>
      </trkpt>
      <trkpt lat="43.61155" lon="5.31097">
        <ele>236.39999389648</ele>
        <time>2019-11-30T12:54:20.000Z</time>
      </trkpt>
      <trkpt lat="43.61156" lon="5.31099">
        <ele>236.39999389648</ele>
        <time>2019-11-30T12:54:21.000Z</time>
      </trkpt>
      <trkpt lat="43.61158" lon="5.31099">
        <ele>236.19999694824</ele>
        <time>2019-11-30T12:54:22.000Z</time>
      </trkpt>
      <trkpt lat="43.6116" lon="5.311">
        <ele>236.19999694824</ele>
        <time>2019-11-30T12:54:23.000Z</time>
      </trkpt>
      <trkpt lat="43.61162" lon="5.31101">
        <ele>236.19999694824</ele>
        <time>2019-11-30T12:54:24.000Z</time>
      </trkpt>
      <trkpt lat="43.61164" lon="5.31102">
        <ele>236.19999694824</ele>
        <time>2019-11-30T12:54:25.000Z</time>
      </trkpt>
      <trkpt lat="43.61169" lon="5.31101">
        <ele>236</ele>
        <time>2019-11-30T12:54:26.000Z</time>
      </trkpt>
      <trkpt lat="43.61174" lon="5.311">
        <ele>236</ele>
        <time>2019-11-30T12:54:27.000Z</time>
      </trkpt>
      <trkpt lat="43.6118" lon="5.31099">
        <ele>235.80000305176</ele>
        <time>2019-11-30T12:54:28.000Z</time>
      </trkpt>
      <trkpt lat="43.61187" lon="5.31094">
        <ele>235.19999694824</ele>
        <time>2019-11-30T12:54:29.000Z</time>
      </trkpt>
      <trkpt lat="43.61191" lon="5.31091">
        <ele>234.80000305176</ele>
        <time>2019-11-30T12:54:30.000Z</time>
      </trkpt>
      <trkpt lat="43.61195" lon="5.31087">
        <ele>234.19999694824</ele>
        <time>2019-11-30T12:54:31.000Z</time>
      </trkpt>
      <trkpt lat="43.61199" lon="5.31084">
        <ele>233.60000610352</ele>
        <time>2019-11-30T12:54:32.000Z</time>
      </trkpt>
      <trkpt lat="43.61206" lon="5.31083">
        <ele>232.80000305176</ele>
        <time>2019-11-30T12:54:33.000Z</time>
      </trkpt>
      <trkpt lat="43.61212" lon="5.31082">
        <ele>232</ele>
        <time>2019-11-30T12:54:34.000Z</time>
      </trkpt>
      <trkpt lat="43.61218" lon="5.31082">
        <ele>231</ele>
        <time>2019-11-30T12:54:35.000Z</time>
      </trkpt>
      <trkpt lat="43.61223" lon="5.31081">
        <ele>230.60000610352</ele>
        <time>2019-11-30T12:54:36.000Z</time>
      </trkpt>
      <trkpt lat="43.61228" lon="5.3108">
        <ele>230.19999694824</ele>
        <time>2019-11-30T12:54:37.000Z</time>
      </trkpt>
      <trkpt lat="43.61231" lon="5.31079">
        <ele>230</ele>
        <time>2019-11-30T12:54:38.000Z</time>
      </trkpt>
      <trkpt lat="43.61236" lon="5.31074">
        <ele>229.80000305176</ele>
        <time>2019-11-30T12:54:39.000Z</time>
      </trkpt>
      <trkpt lat="43.61241" lon="5.31068">
        <ele>229.60000610352</ele>
        <time>2019-11-30T12:54:40.000Z</time>
      </trkpt>
      <trkpt lat="43.61245" lon="5.31065">
        <ele>229.39999389648</ele>
        <time>2019-11-30T12:54:41.000Z</time>
      </trkpt>
      <trkpt lat="43.61251" lon="5.31061">
        <ele>229</ele>
        <time>2019-11-30T12:54:42.000Z</time>
      </trkpt>
      <trkpt lat="43.61258" lon="5.3106">
        <ele>228.39999389648</ele>
        <time>2019-11-30T12:54:43.000Z</time>
      </trkpt>
      <trkpt lat="43.61264" lon="5.31059">
        <ele>228</ele>
        <time>2019-11-30T12:54:44.000Z</time>
      </trkpt>
      <trkpt lat="43.61269" lon="5.31062">
        <ele>227.39999389648</ele>
        <time>2019-11-30T12:54:45.000Z</time>
      </trkpt>
      <trkpt lat="43.61271" lon="5.31066">
        <ele>227</ele>
        <time>2019-11-30T12:54:46.000Z</time>
      </trkpt>
      <trkpt lat="43.61278" lon="5.31073">
        <ele>226</ele>
        <time>2019-11-30T12:54:47.000Z</time>
      </trkpt>
      <trkpt lat="43.61276" lon="5.31077">
        <ele>226</ele>
        <time>2019-11-30T12:54:48.000Z</time>
      </trkpt>
      <trkpt lat="43.61274" lon="5.31082">
        <ele>226.19999694824</ele>
        <time>2019-11-30T12:54:49.000Z</time>
      </trkpt>
      <trkpt lat="43.61272" lon="5.31086">
        <ele>226.19999694824</ele>
        <time>2019-11-30T12:54:50.000Z</time>
      </trkpt>
      <trkpt lat="43.6127" lon="5.3109">
        <ele>226.39999389648</ele>
        <time>2019-11-30T12:54:51.000Z</time>
      </trkpt>
      <trkpt lat="43.61271" lon="5.31111">
        <ele>225.39999389648</ele>
        <time>2019-11-30T12:54:52.000Z</time>
      </trkpt>
      <trkpt lat="43.61275" lon="5.31113">
        <ele>224.80000305176</ele>
        <time>2019-11-30T12:54:53.000Z</time>
      </trkpt>
      <trkpt lat="43.6128" lon="5.31114">
        <ele>224.39999389648</ele>
        <time>2019-11-30T12:54:54.000Z</time>
      </trkpt>
      <trkpt lat="43.61284" lon="5.31115">
        <ele>223.80000305176</ele>
        <time>2019-11-30T12:54:55.000Z</time>
      </trkpt>
      <trkpt lat="43.61289" lon="5.31117">
        <ele>223.19999694824</ele>
        <time>2019-11-30T12:54:56.000Z</time>
      </trkpt>
      <trkpt lat="43.61295" lon="5.31119">
        <ele>222.60000610352</ele>
        <time>2019-11-30T12:54:57.000Z</time>
      </trkpt>
      <trkpt lat="43.613" lon="5.31121">
        <ele>222</ele>
        <time>2019-11-30T12:54:58.000Z</time>
      </trkpt>
      <trkpt lat="43.61304" lon="5.31122">
        <ele>221.39999389648</ele>
        <time>2019-11-30T12:54:59.000Z</time>
      </trkpt>
      <trkpt lat="43.61307" lon="5.31123">
        <ele>221</ele>
        <time>2019-11-30T12:55:00.000Z</time>
      </trkpt>
      <trkpt lat="43.61309" lon="5.31124">
        <ele>220.80000305176</ele>
        <time>2019-11-30T12:55:01.000Z</time>
      </trkpt>
      <trkpt lat="43.61311" lon="5.31124">
        <ele>220.60000610352</ele>
        <time>2019-11-30T12:55:02.000Z</time>
      </trkpt>
      <trkpt lat="43.61314" lon="5.31125">
        <ele>220.19999694824</ele>
        <time>2019-11-30T12:55:03.000Z</time>
      </trkpt>
      <trkpt lat="43.61317" lon="5.31126">
        <ele>219.80000305176</ele>
        <time>2019-11-30T12:55:04.000Z</time>
      </trkpt>
      <trkpt lat="43.61321" lon="5.31127">
        <ele>219.39999389648</ele>
        <time>2019-11-30T12:55:05.000Z</time>
      </trkpt>
      <trkpt lat="43.61325" lon="5.31129">
        <ele>219</ele>
        <time>2019-11-30T12:55:06.000Z</time>
      </trkpt>
      <trkpt lat="43.6133" lon="5.3113">
        <ele>218.39999389648</ele>
        <time>2019-11-30T12:55:07.000Z</time>
      </trkpt>
      <trkpt lat="43.61335" lon="5.31132">
        <ele>218</ele>
        <time>2019-11-30T12:55:08.000Z</time>
      </trkpt>
      <trkpt lat="43.61339" lon="5.31134">
        <ele>217.60000610352</ele>
        <time>2019-11-30T12:55:09.000Z</time>
      </trkpt>
      <trkpt lat="43.61344" lon="5.31139">
        <ele>217.39999389648</ele>
        <time>2019-11-30T12:55:10.000Z</time>
      </trkpt>
      <trkpt lat="43.61348" lon="5.31143">
        <ele>217.19999694824</ele>
        <time>2019-11-30T12:55:11.000Z</time>
      </trkpt>
      <trkpt lat="43.61352" lon="5.31147">
        <ele>217</ele>
        <time>2019-11-30T12:55:12.000Z</time>
      </trkpt>
      <trkpt lat="43.61356" lon="5.31151">
        <ele>217.39999389648</ele>
        <time>2019-11-30T12:55:13.000Z</time>
      </trkpt>
      <trkpt lat="43.6136" lon="5.31155">
        <ele>217.80000305176</ele>
        <time>2019-11-30T12:55:14.000Z</time>
      </trkpt>
      <trkpt lat="43.61364" lon="5.3116">
        <ele>218.19999694824</ele>
        <time>2019-11-30T12:55:15.000Z</time>
      </trkpt>
      <trkpt lat="43.61366" lon="5.31166">
        <ele>218.60000610352</ele>
        <time>2019-11-30T12:55:16.000Z</time>
      </trkpt>
      <trkpt lat="43.61369" lon="5.31171">
        <ele>219</ele>
        <time>2019-11-30T12:55:17.000Z</time>
      </trkpt>
      <trkpt lat="43.61371" lon="5.31177">
        <ele>219.39999389648</ele>
        <time>2019-11-30T12:55:18.000Z</time>
      </trkpt>
      <trkpt lat="43.61374" lon="5.31183">
        <ele>220</ele>
        <time>2019-11-30T12:55:19.000Z</time>
      </trkpt>
      <trkpt lat="43.61376" lon="5.31188">
        <ele>220.39999389648</ele>
        <time>2019-11-30T12:55:20.000Z</time>
      </trkpt>
      <trkpt lat="43.61378" lon="5.31194">
        <ele>220.80000305176</ele>
        <time>2019-11-30T12:55:21.000Z</time>
      </trkpt>
      <trkpt lat="43.61381" lon="5.31199">
        <ele>221.19999694824</ele>
        <time>2019-11-30T12:55:22.000Z</time>
      </trkpt>
      <trkpt lat="43.61383" lon="5.31204">
        <ele>221.60000610352</ele>
        <time>2019-11-30T12:55:23.000Z</time>
      </trkpt>
      <trkpt lat="43.61387" lon="5.31207">
        <ele>221.80000305176</ele>
        <time>2019-11-30T12:55:24.000Z</time>
      </trkpt>
      <trkpt lat="43.61391" lon="5.31207">
        <ele>222</ele>
        <time>2019-11-30T12:55:25.000Z</time>
      </trkpt>
      <trkpt lat="43.61394" lon="5.31206">
        <ele>222</ele>
        <time>2019-11-30T12:55:26.000Z</time>
      </trkpt>
      <trkpt lat="43.61396" lon="5.31203">
        <ele>222</ele>
        <time>2019-11-30T12:55:27.000Z</time>
      </trkpt>
      <trkpt lat="43.61399" lon="5.31199">
        <ele>221.80000305176</ele>
        <time>2019-11-30T12:55:28.000Z</time>
      </trkpt>
      <trkpt lat="43.61402" lon="5.31195">
        <ele>221.80000305176</ele>
        <time>2019-11-30T12:55:29.000Z</time>
      </trkpt>
      <trkpt lat="43.61405" lon="5.31192">
        <ele>221.60000610352</ele>
        <time>2019-11-30T12:55:30.000Z</time>
      </trkpt>
      <trkpt lat="43.61407" lon="5.31188">
        <ele>221.39999389648</ele>
        <time>2019-11-30T12:55:31.000Z</time>
      </trkpt>
      <trkpt lat="43.61408" lon="5.31182">
        <ele>221.19999694824</ele>
        <time>2019-11-30T12:55:32.000Z</time>
      </trkpt>
      <trkpt lat="43.6141" lon="5.31177">
        <ele>221.19999694824</ele>
        <time>2019-11-30T12:55:33.000Z</time>
      </trkpt>
      <trkpt lat="43.61412" lon="5.31172">
        <ele>221.19999694824</ele>
        <time>2019-11-30T12:55:34.000Z</time>
      </trkpt>
      <trkpt lat="43.61414" lon="5.31168">
        <ele>221</ele>
        <time>2019-11-30T12:55:35.000Z</time>
      </trkpt>
      <trkpt lat="43.61416" lon="5.31164">
        <ele>221</ele>
        <time>2019-11-30T12:55:36.000Z</time>
      </trkpt>
      <trkpt lat="43.61416" lon="5.31163">
        <ele>221</ele>
        <time>2019-11-30T12:55:37.000Z</time>
      </trkpt>
      <trkpt lat="43.61424" lon="5.31167">
        <ele>221.60000610352</ele>
        <time>2019-11-30T12:55:38.000Z</time>
      </trkpt>
      <trkpt lat="43.61426" lon="5.31168">
        <ele>221.80000305176</ele>
        <time>2019-11-30T12:55:39.000Z</time>
      </trkpt>
      <trkpt lat="43.61427" lon="5.3117">
        <ele>222</ele>
        <time>2019-11-30T12:55:40.000Z</time>
      </trkpt>
      <trkpt lat="43.61431" lon="5.31172">
        <ele>222.19999694824</ele>
        <time>2019-11-30T12:55:41.000Z</time>
      </trkpt>
      <trkpt lat="43.61433" lon="5.31173">
        <ele>222.39999389648</ele>
        <time>2019-11-30T12:55:42.000Z</time>
      </trkpt>
      <trkpt lat="43.61436" lon="5.31173">
        <ele>222.60000610352</ele>
        <time>2019-11-30T12:55:43.000Z</time>
      </trkpt>
      <trkpt lat="43.61444" lon="5.31171">
        <ele>222.60000610352</ele>
        <time>2019-11-30T12:55:44.000Z</time>
      </trkpt>
      <trkpt lat="43.61444" lon="5.31172">
        <ele>222.80000305176</ele>
        <time>2019-11-30T12:55:45.000Z</time>
      </trkpt>
      <trkpt lat="43.61444" lon="5.31172">
        <ele>222.80000305176</ele>
        <time>2019-11-30T12:55:46.000Z</time>
      </trkpt>
      <trkpt lat="43.61446" lon="5.31174">
        <ele>222.80000305176</ele>
        <time>2019-11-30T12:55:47.000Z</time>
      </trkpt>
      <trkpt lat="43.61447" lon="5.31175">
        <ele>222.80000305176</ele>
        <time>2019-11-30T12:55:48.000Z</time>
      </trkpt>
      <trkpt lat="43.61449" lon="5.31176">
        <ele>223</ele>
        <time>2019-11-30T12:55:49.000Z</time>
      </trkpt>
      <trkpt lat="43.61451" lon="5.31177">
        <ele>223</ele>
        <time>2019-11-30T12:55:50.000Z</time>
      </trkpt>
      <trkpt lat="43.61452" lon="5.31178">
        <ele>223.19999694824</ele>
        <time>2019-11-30T12:55:51.000Z</time>
      </trkpt>
      <trkpt lat="43.61444" lon="5.31172">
        <ele>222.80000305176</ele>
        <time>2019-11-30T12:55:52.000Z</time>
      </trkpt>
      <trkpt lat="43.61457" lon="5.31165">
        <ele>222.80000305176</ele>
        <time>2019-11-30T12:55:53.000Z</time>
      </trkpt>
      <trkpt lat="43.6146" lon="5.31162">
        <ele>222.80000305176</ele>
        <time>2019-11-30T12:55:54.000Z</time>
      </trkpt>
      <trkpt lat="43.61463" lon="5.31162">
        <ele>222.80000305176</ele>
        <time>2019-11-30T12:55:55.000Z</time>
      </trkpt>
      <trkpt lat="43.61465" lon="5.31162">
        <ele>222.80000305176</ele>
        <time>2019-11-30T12:55:56.000Z</time>
      </trkpt>
      <trkpt lat="43.61468" lon="5.31162">
        <ele>223</ele>
        <time>2019-11-30T12:55:57.000Z</time>
      </trkpt>
      <trkpt lat="43.61471" lon="5.31163">
        <ele>223.19999694824</ele>
        <time>2019-11-30T12:55:58.000Z</time>
      </trkpt>
      <trkpt lat="43.61475" lon="5.31162">
        <ele>223.60000610352</ele>
        <time>2019-11-30T12:55:59.000Z</time>
      </trkpt>
      <trkpt lat="43.61481" lon="5.31166">
        <ele>224.19999694824</ele>
        <time>2019-11-30T12:56:00.000Z</time>
      </trkpt>
      <trkpt lat="43.61482" lon="5.31164">
        <ele>224.39999389648</ele>
        <time>2019-11-30T12:56:01.000Z</time>
      </trkpt>
      <trkpt lat="43.61484" lon="5.31162">
        <ele>224.39999389648</ele>
        <time>2019-11-30T12:56:02.000Z</time>
      </trkpt>
      <trkpt lat="43.61485" lon="5.31158">
        <ele>224.80000305176</ele>
        <time>2019-11-30T12:56:03.000Z</time>
      </trkpt>
      <trkpt lat="43.61487" lon="5.31154">
        <ele>225</ele>
        <time>2019-11-30T12:56:04.000Z</time>
      </trkpt>
      <trkpt lat="43.6149" lon="5.31152">
        <ele>225.39999389648</ele>
        <time>2019-11-30T12:56:05.000Z</time>
      </trkpt>
      <trkpt lat="43.61493" lon="5.31151">
        <ele>225.80000305176</ele>
        <time>2019-11-30T12:56:06.000Z</time>
      </trkpt>
      <trkpt lat="43.61496" lon="5.31149">
        <ele>226.19999694824</ele>
        <time>2019-11-30T12:56:07.000Z</time>
      </trkpt>
      <trkpt lat="43.61499" lon="5.31148">
        <ele>226.39999389648</ele>
        <time>2019-11-30T12:56:08.000Z</time>
      </trkpt>
      <trkpt lat="43.61502" lon="5.31146">
        <ele>226.80000305176</ele>
        <time>2019-11-30T12:56:09.000Z</time>
      </trkpt>
      <trkpt lat="43.61504" lon="5.31145">
        <ele>227</ele>
        <time>2019-11-30T12:56:10.000Z</time>
      </trkpt>
      <trkpt lat="43.61506" lon="5.31144">
        <ele>227.19999694824</ele>
        <time>2019-11-30T12:56:11.000Z</time>
      </trkpt>
      <trkpt lat="43.61511" lon="5.3116">
        <ele>227.19999694824</ele>
        <time>2019-11-30T12:56:12.000Z</time>
      </trkpt>
      <trkpt lat="43.61514" lon="5.31165">
        <ele>227.19999694824</ele>
        <time>2019-11-30T12:56:13.000Z</time>
      </trkpt>
      <trkpt lat="43.61515" lon="5.31169">
        <ele>227.19999694824</ele>
        <time>2019-11-30T12:56:14.000Z</time>
      </trkpt>
      <trkpt lat="43.61515" lon="5.31173">
        <ele>227.19999694824</ele>
        <time>2019-11-30T12:56:15.000Z</time>
      </trkpt>
      <trkpt lat="43.61516" lon="5.31178">
        <ele>227</ele>
        <time>2019-11-30T12:56:16.000Z</time>
      </trkpt>
      <trkpt lat="43.61518" lon="5.31183">
        <ele>227</ele>
        <time>2019-11-30T12:56:17.000Z</time>
      </trkpt>
      <trkpt lat="43.6152" lon="5.31187">
        <ele>227</ele>
        <time>2019-11-30T12:56:18.000Z</time>
      </trkpt>
      <trkpt lat="43.61522" lon="5.31192">
        <ele>227</ele>
        <time>2019-11-30T12:56:19.000Z</time>
      </trkpt>
      <trkpt lat="43.61525" lon="5.31196">
        <ele>227</ele>
        <time>2019-11-30T12:56:20.000Z</time>
      </trkpt>
      <trkpt lat="43.61528" lon="5.312">
        <ele>227.19999694824</ele>
        <time>2019-11-30T12:56:21.000Z</time>
      </trkpt>
      <trkpt lat="43.6153" lon="5.31205">
        <ele>227.19999694824</ele>
        <time>2019-11-30T12:56:22.000Z</time>
      </trkpt>
      <trkpt lat="43.61533" lon="5.3121">
        <ele>227.19999694824</ele>
        <time>2019-11-30T12:56:23.000Z</time>
      </trkpt>
      <trkpt lat="43.61535" lon="5.31215">
        <ele>227.19999694824</ele>
        <time>2019-11-30T12:56:24.000Z</time>
      </trkpt>
      <trkpt lat="43.61536" lon="5.31219">
        <ele>227</ele>
        <time>2019-11-30T12:56:25.000Z</time>
      </trkpt>
      <trkpt lat="43.61538" lon="5.31223">
        <ele>227</ele>
        <time>2019-11-30T12:56:26.000Z</time>
      </trkpt>
      <trkpt lat="43.61541" lon="5.31227">
        <ele>227.19999694824</ele>
        <time>2019-11-30T12:56:27.000Z</time>
      </trkpt>
      <trkpt lat="43.61544" lon="5.3123">
        <ele>227.19999694824</ele>
        <time>2019-11-30T12:56:28.000Z</time>
      </trkpt>
      <trkpt lat="43.61548" lon="5.31232">
        <ele>227.39999389648</ele>
        <time>2019-11-30T12:56:29.000Z</time>
      </trkpt>
      <trkpt lat="43.61552" lon="5.31232">
        <ele>227.80000305176</ele>
        <time>2019-11-30T12:56:30.000Z</time>
      </trkpt>
      <trkpt lat="43.61555" lon="5.3123">
        <ele>228</ele>
        <time>2019-11-30T12:56:31.000Z</time>
      </trkpt>
      <trkpt lat="43.61558" lon="5.31226">
        <ele>228.39999389648</ele>
        <time>2019-11-30T12:56:32.000Z</time>
      </trkpt>
      <trkpt lat="43.61561" lon="5.31221">
        <ele>228.80000305176</ele>
        <time>2019-11-30T12:56:33.000Z</time>
      </trkpt>
      <trkpt lat="43.61564" lon="5.31217">
        <ele>229.19999694824</ele>
        <time>2019-11-30T12:56:34.000Z</time>
      </trkpt>
      <trkpt lat="43.61567" lon="5.31213">
        <ele>229.39999389648</ele>
        <time>2019-11-30T12:56:35.000Z</time>
      </trkpt>
      <trkpt lat="43.6157" lon="5.31209">
        <ele>229.80000305176</ele>
        <time>2019-11-30T12:56:36.000Z</time>
      </trkpt>
      <trkpt lat="43.61574" lon="5.31207">
        <ele>230.19999694824</ele>
        <time>2019-11-30T12:56:37.000Z</time>
      </trkpt>
      <trkpt lat="43.61578" lon="5.31207">
        <ele>230.60000610352</ele>
        <time>2019-11-30T12:56:38.000Z</time>
      </trkpt>
      <trkpt lat="43.61583" lon="5.31206">
        <ele>230.80000305176</ele>
        <time>2019-11-30T12:56:39.000Z</time>
      </trkpt>
      <trkpt lat="43.61587" lon="5.31207">
        <ele>231.19999694824</ele>
        <time>2019-11-30T12:56:40.000Z</time>
      </trkpt>
      <trkpt lat="43.61591" lon="5.31207">
        <ele>231.39999389648</ele>
        <time>2019-11-30T12:56:41.000Z</time>
      </trkpt>
      <trkpt lat="43.61594" lon="5.31206">
        <ele>231.80000305176</ele>
        <time>2019-11-30T12:56:42.000Z</time>
      </trkpt>
      <trkpt lat="43.61598" lon="5.31206">
        <ele>231.80000305176</ele>
        <time>2019-11-30T12:56:43.000Z</time>
      </trkpt>
      <trkpt lat="43.61601" lon="5.31204">
        <ele>232</ele>
        <time>2019-11-30T12:56:44.000Z</time>
      </trkpt>
      <trkpt lat="43.61603" lon="5.31199">
        <ele>232</ele>
        <time>2019-11-30T12:56:45.000Z</time>
      </trkpt>
      <trkpt lat="43.61605" lon="5.31197">
        <ele>232</ele>
        <time>2019-11-30T12:56:46.000Z</time>
      </trkpt>
      <trkpt lat="43.61608" lon="5.31195">
        <ele>232</ele>
        <time>2019-11-30T12:56:47.000Z</time>
      </trkpt>
      <trkpt lat="43.61611" lon="5.31194">
        <ele>232.19999694824</ele>
        <time>2019-11-30T12:56:48.000Z</time>
      </trkpt>
      <trkpt lat="43.61614" lon="5.31195">
        <ele>232.19999694824</ele>
        <time>2019-11-30T12:56:49.000Z</time>
      </trkpt>
      <trkpt lat="43.61615" lon="5.31198">
        <ele>232.19999694824</ele>
        <time>2019-11-30T12:56:50.000Z</time>
      </trkpt>
      <trkpt lat="43.61614" lon="5.31201">
        <ele>232.19999694824</ele>
        <time>2019-11-30T12:56:51.000Z</time>
      </trkpt>
      <trkpt lat="43.6161" lon="5.31204">
        <ele>232.19999694824</ele>
        <time>2019-11-30T12:56:52.000Z</time>
      </trkpt>
      <trkpt lat="43.61607" lon="5.31204">
        <ele>232</ele>
        <time>2019-11-30T12:56:53.000Z</time>
      </trkpt>
      <trkpt lat="43.61602" lon="5.31205">
        <ele>232</ele>
        <time>2019-11-30T12:56:54.000Z</time>
      </trkpt>
      <trkpt lat="43.61598" lon="5.31207">
        <ele>231.80000305176</ele>
        <time>2019-11-30T12:56:55.000Z</time>
      </trkpt>
      <trkpt lat="43.61594" lon="5.31207">
        <ele>231.60000610352</ele>
        <time>2019-11-30T12:56:56.000Z</time>
      </trkpt>
      <trkpt lat="43.61589" lon="5.31208">
        <ele>231.19999694824</ele>
        <time>2019-11-30T12:56:57.000Z</time>
      </trkpt>
      <trkpt lat="43.61583" lon="5.31209">
        <ele>230.80000305176</ele>
        <time>2019-11-30T12:56:58.000Z</time>
      </trkpt>
      <trkpt lat="43.61578" lon="5.3121">
        <ele>230.39999389648</ele>
        <time>2019-11-30T12:56:59.000Z</time>
      </trkpt>
      <trkpt lat="43.61574" lon="5.3121">
        <ele>230</ele>
        <time>2019-11-30T12:57:00.000Z</time>
      </trkpt>
      <trkpt lat="43.61569" lon="5.31212">
        <ele>229.60000610352</ele>
        <time>2019-11-30T12:57:01.000Z</time>
      </trkpt>
      <trkpt lat="43.61565" lon="5.31215">
        <ele>229.19999694824</ele>
        <time>2019-11-30T12:57:02.000Z</time>
      </trkpt>
      <trkpt lat="43.61561" lon="5.31219">
        <ele>228.80000305176</ele>
        <time>2019-11-30T12:57:03.000Z</time>
      </trkpt>
      <trkpt lat="43.61557" lon="5.31224">
        <ele>228.39999389648</ele>
        <time>2019-11-30T12:57:04.000Z</time>
      </trkpt>
      <trkpt lat="43.61555" lon="5.31228">
        <ele>228</ele>
        <time>2019-11-30T12:57:05.000Z</time>
      </trkpt>
      <trkpt lat="43.61553" lon="5.31231">
        <ele>227.80000305176</ele>
        <time>2019-11-30T12:57:06.000Z</time>
      </trkpt>
      <trkpt lat="43.61551" lon="5.31235">
        <ele>227.60000610352</ele>
        <time>2019-11-30T12:57:07.000Z</time>
      </trkpt>
      <trkpt lat="43.61551" lon="5.3124">
        <ele>227.39999389648</ele>
        <time>2019-11-30T12:57:08.000Z</time>
      </trkpt>
      <trkpt lat="43.61552" lon="5.31244">
        <ele>227.19999694824</ele>
        <time>2019-11-30T12:57:09.000Z</time>
      </trkpt>
      <trkpt lat="43.61553" lon="5.31249">
        <ele>227.19999694824</ele>
        <time>2019-11-30T12:57:10.000Z</time>
      </trkpt>
      <trkpt lat="43.61554" lon="5.31252">
        <ele>227.19999694824</ele>
        <time>2019-11-30T12:57:11.000Z</time>
      </trkpt>
      <trkpt lat="43.61555" lon="5.31255">
        <ele>227.19999694824</ele>
        <time>2019-11-30T12:57:12.000Z</time>
      </trkpt>
      <trkpt lat="43.61555" lon="5.31255">
        <ele>227.19999694824</ele>
        <time>2019-11-30T12:57:13.000Z</time>
      </trkpt>
      <trkpt lat="43.61555" lon="5.31254">
        <ele>227.19999694824</ele>
        <time>2019-11-30T12:57:14.000Z</time>
      </trkpt>
      <trkpt lat="43.61555" lon="5.31254">
        <ele>227.19999694824</ele>
        <time>2019-11-30T12:57:15.000Z</time>
      </trkpt>
      <trkpt lat="43.61555" lon="5.31254">
        <ele>227.19999694824</ele>
        <time>2019-11-30T12:57:16.000Z</time>
      </trkpt>
      <trkpt lat="43.61557" lon="5.31255">
        <ele>227.39999389648</ele>
        <time>2019-11-30T12:57:17.000Z</time>
      </trkpt>
      <trkpt lat="43.61559" lon="5.31255">
        <ele>227.39999389648</ele>
        <time>2019-11-30T12:57:18.000Z</time>
      </trkpt>
      <trkpt lat="43.61563" lon="5.31255">
        <ele>227.60000610352</ele>
        <time>2019-11-30T12:57:19.000Z</time>
      </trkpt>
      <trkpt lat="43.61566" lon="5.31256">
        <ele>227.80000305176</ele>
        <time>2019-11-30T12:57:20.000Z</time>
      </trkpt>
      <trkpt lat="43.61568" lon="5.31255">
        <ele>228</ele>
        <time>2019-11-30T12:57:21.000Z</time>
      </trkpt>
      <trkpt lat="43.61569" lon="5.31255">
        <ele>228.19999694824</ele>
        <time>2019-11-30T12:57:22.000Z</time>
      </trkpt>
      <trkpt lat="43.61569" lon="5.31255">
        <ele>228.19999694824</ele>
        <time>2019-11-30T12:57:23.000Z</time>
      </trkpt>
      <trkpt lat="43.61569" lon="5.31255">
        <ele>228.19999694824</ele>
        <time>2019-11-30T12:57:24.000Z</time>
      </trkpt>
      <trkpt lat="43.61569" lon="5.31255">
        <ele>228.19999694824</ele>
        <time>2019-11-30T12:57:25.000Z</time>
      </trkpt>
      <trkpt lat="43.61568" lon="5.31254">
        <ele>228.19999694824</ele>
        <time>2019-11-30T12:57:26.000Z</time>
      </trkpt>
      <trkpt lat="43.61568" lon="5.31254">
        <ele>228.19999694824</ele>
        <time>2019-11-30T12:57:27.000Z</time>
      </trkpt>
      <trkpt lat="43.61568" lon="5.31254">
        <ele>228</ele>
        <time>2019-11-30T12:57:28.000Z</time>
      </trkpt>
      <trkpt lat="43.61568" lon="5.31254">
        <ele>228</ele>
        <time>2019-11-30T12:57:29.000Z</time>
      </trkpt>
      <trkpt lat="43.61568" lon="5.31255">
        <ele>228</ele>
        <time>2019-11-30T12:57:30.000Z</time>
      </trkpt>
      <trkpt lat="43.61568" lon="5.31255">
        <ele>228</ele>
        <time>2019-11-30T12:57:31.000Z</time>
      </trkpt>
      <trkpt lat="43.61567" lon="5.31253">
        <ele>228</ele>
        <time>2019-11-30T12:57:32.000Z</time>
      </trkpt>
      <trkpt lat="43.61565" lon="5.31252">
        <ele>228</ele>
        <time>2019-11-30T12:57:33.000Z</time>
      </trkpt>
      <trkpt lat="43.61564" lon="5.31252">
        <ele>228</ele>
        <time>2019-11-30T12:57:34.000Z</time>
      </trkpt>
      <trkpt lat="43.61562" lon="5.31254">
        <ele>227.60000610352</ele>
        <time>2019-11-30T12:57:35.000Z</time>
      </trkpt>
      <trkpt lat="43.6156" lon="5.31253">
        <ele>227.60000610352</ele>
        <time>2019-11-30T12:57:36.000Z</time>
      </trkpt>
      <trkpt lat="43.61557" lon="5.31253">
        <ele>227.39999389648</ele>
        <time>2019-11-30T12:57:37.000Z</time>
      </trkpt>
      <trkpt lat="43.61554" lon="5.31252">
        <ele>227.19999694824</ele>
        <time>2019-11-30T12:57:38.000Z</time>
      </trkpt>
      <trkpt lat="43.61551" lon="5.31252">
        <ele>227</ele>
        <time>2019-11-30T12:57:39.000Z</time>
      </trkpt>
      <trkpt lat="43.61548" lon="5.31253">
        <ele>227</ele>
        <time>2019-11-30T12:57:40.000Z</time>
      </trkpt>
      <trkpt lat="43.61546" lon="5.3125">
        <ele>226.80000305176</ele>
        <time>2019-11-30T12:57:41.000Z</time>
      </trkpt>
      <trkpt lat="43.61545" lon="5.31246">
        <ele>226.80000305176</ele>
        <time>2019-11-30T12:57:42.000Z</time>
      </trkpt>
      <trkpt lat="43.61544" lon="5.31241">
        <ele>227</ele>
        <time>2019-11-30T12:57:43.000Z</time>
      </trkpt>
      <trkpt lat="43.61544" lon="5.31237">
        <ele>227</ele>
        <time>2019-11-30T12:57:44.000Z</time>
      </trkpt>
      <trkpt lat="43.61542" lon="5.31233">
        <ele>227</ele>
        <time>2019-11-30T12:57:45.000Z</time>
      </trkpt>
      <trkpt lat="43.6154" lon="5.31229">
        <ele>227</ele>
        <time>2019-11-30T12:57:46.000Z</time>
      </trkpt>
      <trkpt lat="43.61539" lon="5.31224">
        <ele>227</ele>
        <time>2019-11-30T12:57:47.000Z</time>
      </trkpt>
      <trkpt lat="43.61538" lon="5.3122">
        <ele>227.19999694824</ele>
        <time>2019-11-30T12:57:48.000Z</time>
      </trkpt>
      <trkpt lat="43.61537" lon="5.31216">
        <ele>227.19999694824</ele>
        <time>2019-11-30T12:57:49.000Z</time>
      </trkpt>
      <trkpt lat="43.61535" lon="5.31212">
        <ele>227.19999694824</ele>
        <time>2019-11-30T12:57:50.000Z</time>
      </trkpt>
      <trkpt lat="43.61532" lon="5.31208">
        <ele>227.19999694824</ele>
        <time>2019-11-30T12:57:51.000Z</time>
      </trkpt>
      <trkpt lat="43.61529" lon="5.31207">
        <ele>227</ele>
        <time>2019-11-30T12:57:52.000Z</time>
      </trkpt>
      <trkpt lat="43.61525" lon="5.31206">
        <ele>226.80000305176</ele>
        <time>2019-11-30T12:57:53.000Z</time>
      </trkpt>
      <trkpt lat="43.61521" lon="5.31205">
        <ele>226.39999389648</ele>
        <time>2019-11-30T12:57:54.000Z</time>
      </trkpt>
      <trkpt lat="43.61518" lon="5.31204">
        <ele>226.19999694824</ele>
        <time>2019-11-30T12:57:55.000Z</time>
      </trkpt>
      <trkpt lat="43.61514" lon="5.31202">
        <ele>226</ele>
        <time>2019-11-30T12:57:56.000Z</time>
      </trkpt>
      <trkpt lat="43.6151" lon="5.312">
        <ele>225.60000610352</ele>
        <time>2019-11-30T12:57:57.000Z</time>
      </trkpt>
      <trkpt lat="43.61505" lon="5.31199">
        <ele>225.19999694824</ele>
        <time>2019-11-30T12:57:58.000Z</time>
      </trkpt>
      <trkpt lat="43.615" lon="5.31199">
        <ele>225</ele>
        <time>2019-11-30T12:57:59.000Z</time>
      </trkpt>
      <trkpt lat="43.61495" lon="5.312">
        <ele>225</ele>
        <time>2019-11-30T12:58:00.000Z</time>
      </trkpt>
      <trkpt lat="43.61491" lon="5.31202">
        <ele>225</ele>
        <time>2019-11-30T12:58:01.000Z</time>
      </trkpt>
      <trkpt lat="43.61487" lon="5.31203">
        <ele>224.80000305176</ele>
        <time>2019-11-30T12:58:02.000Z</time>
      </trkpt>
      <trkpt lat="43.61482" lon="5.31204">
        <ele>224.80000305176</ele>
        <time>2019-11-30T12:58:03.000Z</time>
      </trkpt>
      <trkpt lat="43.61477" lon="5.31204">
        <ele>224.60000610352</ele>
        <time>2019-11-30T12:58:04.000Z</time>
      </trkpt>
      <trkpt lat="43.61474" lon="5.31205">
        <ele>224.60000610352</ele>
        <time>2019-11-30T12:58:05.000Z</time>
      </trkpt>
      <trkpt lat="43.61473" lon="5.31206">
        <ele>224.60000610352</ele>
        <time>2019-11-30T12:58:06.000Z</time>
      </trkpt>
      <trkpt lat="43.6147" lon="5.31207">
        <ele>224.60000610352</ele>
        <time>2019-11-30T12:58:07.000Z</time>
      </trkpt>
      <trkpt lat="43.6147" lon="5.3121">
        <ele>224.80000305176</ele>
        <time>2019-11-30T12:58:08.000Z</time>
      </trkpt>
      <trkpt lat="43.61471" lon="5.31216">
        <ele>224.80000305176</ele>
        <time>2019-11-30T12:58:09.000Z</time>
      </trkpt>
      <trkpt lat="43.61473" lon="5.31221">
        <ele>224.80000305176</ele>
        <time>2019-11-30T12:58:10.000Z</time>
      </trkpt>
      <trkpt lat="43.61475" lon="5.31227">
        <ele>224.80000305176</ele>
        <time>2019-11-30T12:58:11.000Z</time>
      </trkpt>
      <trkpt lat="43.61477" lon="5.31233">
        <ele>224.80000305176</ele>
        <time>2019-11-30T12:58:12.000Z</time>
      </trkpt>
      <trkpt lat="43.6148" lon="5.31239">
        <ele>224.80000305176</ele>
        <time>2019-11-30T12:58:13.000Z</time>
      </trkpt>
      <trkpt lat="43.61482" lon="5.31245">
        <ele>224.80000305176</ele>
        <time>2019-11-30T12:58:14.000Z</time>
      </trkpt>
      <trkpt lat="43.61484" lon="5.31252">
        <ele>224.80000305176</ele>
        <time>2019-11-30T12:58:15.000Z</time>
      </trkpt>
      <trkpt lat="43.61486" lon="5.31259">
        <ele>224.60000610352</ele>
        <time>2019-11-30T12:58:16.000Z</time>
      </trkpt>
      <trkpt lat="43.61489" lon="5.31265">
        <ele>224.60000610352</ele>
        <time>2019-11-30T12:58:17.000Z</time>
      </trkpt>
      <trkpt lat="43.61491" lon="5.31272">
        <ele>224.80000305176</ele>
        <time>2019-11-30T12:58:18.000Z</time>
      </trkpt>
      <trkpt lat="43.61493" lon="5.31279">
        <ele>225</ele>
        <time>2019-11-30T12:58:19.000Z</time>
      </trkpt>
      <trkpt lat="43.61496" lon="5.31286">
        <ele>225.39999389648</ele>
        <time>2019-11-30T12:58:20.000Z</time>
      </trkpt>
      <trkpt lat="43.61499" lon="5.31294">
        <ele>225.60000610352</ele>
        <time>2019-11-30T12:58:21.000Z</time>
      </trkpt>
      <trkpt lat="43.61501" lon="5.31302">
        <ele>225.80000305176</ele>
        <time>2019-11-30T12:58:22.000Z</time>
      </trkpt>
      <trkpt lat="43.61504" lon="5.3131">
        <ele>225.80000305176</ele>
        <time>2019-11-30T12:58:23.000Z</time>
      </trkpt>
      <trkpt lat="43.61507" lon="5.31319">
        <ele>226</ele>
        <time>2019-11-30T12:58:24.000Z</time>
      </trkpt>
      <trkpt lat="43.61509" lon="5.31327">
        <ele>226</ele>
        <time>2019-11-30T12:58:25.000Z</time>
      </trkpt>
      <trkpt lat="43.61508" lon="5.31334">
        <ele>226.19999694824</ele>
        <time>2019-11-30T12:58:26.000Z</time>
      </trkpt>
      <trkpt lat="43.61507" lon="5.31342">
        <ele>226.60000610352</ele>
        <time>2019-11-30T12:58:27.000Z</time>
      </trkpt>
      <trkpt lat="43.61505" lon="5.3135">
        <ele>226.80000305176</ele>
        <time>2019-11-30T12:58:28.000Z</time>
      </trkpt>
      <trkpt lat="43.61504" lon="5.31357">
        <ele>227</ele>
        <time>2019-11-30T12:58:29.000Z</time>
      </trkpt>
      <trkpt lat="43.61502" lon="5.31365">
        <ele>227.19999694824</ele>
        <time>2019-11-30T12:58:30.000Z</time>
      </trkpt>
      <trkpt lat="43.61501" lon="5.31372">
        <ele>227.39999389648</ele>
        <time>2019-11-30T12:58:31.000Z</time>
      </trkpt>
      <trkpt lat="43.615" lon="5.3138">
        <ele>227.39999389648</ele>
        <time>2019-11-30T12:58:32.000Z</time>
      </trkpt>
      <trkpt lat="43.61498" lon="5.31387">
        <ele>227.80000305176</ele>
        <time>2019-11-30T12:58:33.000Z</time>
      </trkpt>
      <trkpt lat="43.61497" lon="5.31395">
        <ele>228</ele>
        <time>2019-11-30T12:58:34.000Z</time>
      </trkpt>
      <trkpt lat="43.61495" lon="5.31402">
        <ele>228.39999389648</ele>
        <time>2019-11-30T12:58:35.000Z</time>
      </trkpt>
      <trkpt lat="43.61494" lon="5.3141">
        <ele>228.60000610352</ele>
        <time>2019-11-30T12:58:36.000Z</time>
      </trkpt>
      <trkpt lat="43.61493" lon="5.31417">
        <ele>229</ele>
        <time>2019-11-30T12:58:37.000Z</time>
      </trkpt>
      <trkpt lat="43.61491" lon="5.31424">
        <ele>229.19999694824</ele>
        <time>2019-11-30T12:58:38.000Z</time>
      </trkpt>
      <trkpt lat="43.6149" lon="5.31432">
        <ele>229.60000610352</ele>
        <time>2019-11-30T12:58:39.000Z</time>
      </trkpt>
      <trkpt lat="43.61489" lon="5.31439">
        <ele>229.80000305176</ele>
        <time>2019-11-30T12:58:40.000Z</time>
      </trkpt>
      <trkpt lat="43.61487" lon="5.31447">
        <ele>230</ele>
        <time>2019-11-30T12:58:41.000Z</time>
      </trkpt>
      <trkpt lat="43.61486" lon="5.31454">
        <ele>230.19999694824</ele>
        <time>2019-11-30T12:58:42.000Z</time>
      </trkpt>
      <trkpt lat="43.61485" lon="5.31461">
        <ele>230.39999389648</ele>
        <time>2019-11-30T12:58:43.000Z</time>
      </trkpt>
      <trkpt lat="43.61483" lon="5.31468">
        <ele>230.39999389648</ele>
        <time>2019-11-30T12:58:44.000Z</time>
      </trkpt>
      <trkpt lat="43.61482" lon="5.31475">
        <ele>230.60000610352</ele>
        <time>2019-11-30T12:58:45.000Z</time>
      </trkpt>
      <trkpt lat="43.61481" lon="5.31482">
        <ele>230.60000610352</ele>
        <time>2019-11-30T12:58:46.000Z</time>
      </trkpt>
      <trkpt lat="43.6148" lon="5.31489">
        <ele>230.80000305176</ele>
        <time>2019-11-30T12:58:47.000Z</time>
      </trkpt>
      <trkpt lat="43.61478" lon="5.31496">
        <ele>230.80000305176</ele>
        <time>2019-11-30T12:58:48.000Z</time>
      </trkpt>
      <trkpt lat="43.61478" lon="5.31503">
        <ele>231</ele>
        <time>2019-11-30T12:58:49.000Z</time>
      </trkpt>
      <trkpt lat="43.61478" lon="5.3151">
        <ele>231</ele>
        <time>2019-11-30T12:58:50.000Z</time>
      </trkpt>
      <trkpt lat="43.61477" lon="5.31517">
        <ele>231.19999694824</ele>
        <time>2019-11-30T12:58:51.000Z</time>
      </trkpt>
      <trkpt lat="43.61479" lon="5.31522">
        <ele>231.19999694824</ele>
        <time>2019-11-30T12:58:52.000Z</time>
      </trkpt>
      <trkpt lat="43.61482" lon="5.31527">
        <ele>231.19999694824</ele>
        <time>2019-11-30T12:58:53.000Z</time>
      </trkpt>
      <trkpt lat="43.61485" lon="5.31531">
        <ele>231.19999694824</ele>
        <time>2019-11-30T12:58:54.000Z</time>
      </trkpt>
      <trkpt lat="43.61488" lon="5.31536">
        <ele>231.19999694824</ele>
        <time>2019-11-30T12:58:55.000Z</time>
      </trkpt>
      <trkpt lat="43.61491" lon="5.31541">
        <ele>231.19999694824</ele>
        <time>2019-11-30T12:58:56.000Z</time>
      </trkpt>
      <trkpt lat="43.61494" lon="5.31546">
        <ele>231.19999694824</ele>
        <time>2019-11-30T12:58:57.000Z</time>
      </trkpt>
      <trkpt lat="43.61496" lon="5.3155">
        <ele>231.39999389648</ele>
        <time>2019-11-30T12:58:58.000Z</time>
      </trkpt>
      <trkpt lat="43.61497" lon="5.31558">
        <ele>231.60000610352</ele>
        <time>2019-11-30T12:58:59.000Z</time>
      </trkpt>
      <trkpt lat="43.61498" lon="5.31564">
        <ele>231.60000610352</ele>
        <time>2019-11-30T12:59:00.000Z</time>
      </trkpt>
      <trkpt lat="43.61499" lon="5.31571">
        <ele>231.80000305176</ele>
        <time>2019-11-30T12:59:01.000Z</time>
      </trkpt>
      <trkpt lat="43.615" lon="5.31577">
        <ele>232</ele>
        <time>2019-11-30T12:59:02.000Z</time>
      </trkpt>
      <trkpt lat="43.615" lon="5.31584">
        <ele>232.19999694824</ele>
        <time>2019-11-30T12:59:03.000Z</time>
      </trkpt>
      <trkpt lat="43.615" lon="5.31591">
        <ele>232.19999694824</ele>
        <time>2019-11-30T12:59:04.000Z</time>
      </trkpt>
      <trkpt lat="43.61499" lon="5.31598">
        <ele>232.39999389648</ele>
        <time>2019-11-30T12:59:05.000Z</time>
      </trkpt>
      <trkpt lat="43.61498" lon="5.31605">
        <ele>232.60000610352</ele>
        <time>2019-11-30T12:59:06.000Z</time>
      </trkpt>
      <trkpt lat="43.61497" lon="5.31612">
        <ele>232.80000305176</ele>
        <time>2019-11-30T12:59:07.000Z</time>
      </trkpt>
      <trkpt lat="43.61497" lon="5.31619">
        <ele>233</ele>
        <time>2019-11-30T12:59:08.000Z</time>
      </trkpt>
      <trkpt lat="43.61496" lon="5.31626">
        <ele>233.19999694824</ele>
        <time>2019-11-30T12:59:09.000Z</time>
      </trkpt>
      <trkpt lat="43.61495" lon="5.31632">
        <ele>233.39999389648</ele>
        <time>2019-11-30T12:59:10.000Z</time>
      </trkpt>
      <trkpt lat="43.61494" lon="5.31639">
        <ele>233.60000610352</ele>
        <time>2019-11-30T12:59:11.000Z</time>
      </trkpt>
      <trkpt lat="43.61494" lon="5.31646">
        <ele>233.80000305176</ele>
        <time>2019-11-30T12:59:12.000Z</time>
      </trkpt>
      <trkpt lat="43.61493" lon="5.31653">
        <ele>234.19999694824</ele>
        <time>2019-11-30T12:59:13.000Z</time>
      </trkpt>
      <trkpt lat="43.61492" lon="5.3166">
        <ele>234.39999389648</ele>
        <time>2019-11-30T12:59:14.000Z</time>
      </trkpt>
      <trkpt lat="43.61491" lon="5.31666">
        <ele>234.60000610352</ele>
        <time>2019-11-30T12:59:15.000Z</time>
      </trkpt>
      <trkpt lat="43.6149" lon="5.31673">
        <ele>234.80000305176</ele>
        <time>2019-11-30T12:59:16.000Z</time>
      </trkpt>
      <trkpt lat="43.6149" lon="5.3168">
        <ele>235.19999694824</ele>
        <time>2019-11-30T12:59:17.000Z</time>
      </trkpt>
      <trkpt lat="43.61489" lon="5.31687">
        <ele>235.19999694824</ele>
        <time>2019-11-30T12:59:18.000Z</time>
      </trkpt>
      <trkpt lat="43.61488" lon="5.31693">
        <ele>235.19999694824</ele>
        <time>2019-11-30T12:59:19.000Z</time>
      </trkpt>
      <trkpt lat="43.61487" lon="5.317">
        <ele>235</ele>
        <time>2019-11-30T12:59:20.000Z</time>
      </trkpt>
      <trkpt lat="43.61487" lon="5.31707">
        <ele>235</ele>
        <time>2019-11-30T12:59:21.000Z</time>
      </trkpt>
      <trkpt lat="43.61485" lon="5.31714">
        <ele>234.80000305176</ele>
        <time>2019-11-30T12:59:22.000Z</time>
      </trkpt>
      <trkpt lat="43.61483" lon="5.3172">
        <ele>234.60000610352</ele>
        <time>2019-11-30T12:59:23.000Z</time>
      </trkpt>
      <trkpt lat="43.61481" lon="5.31726">
        <ele>234.39999389648</ele>
        <time>2019-11-30T12:59:24.000Z</time>
      </trkpt>
      <trkpt lat="43.61478" lon="5.31731">
        <ele>234.39999389648</ele>
        <time>2019-11-30T12:59:25.000Z</time>
      </trkpt>
      <trkpt lat="43.61476" lon="5.31737">
        <ele>234.19999694824</ele>
        <time>2019-11-30T12:59:26.000Z</time>
      </trkpt>
      <trkpt lat="43.61474" lon="5.31743">
        <ele>234</ele>
        <time>2019-11-30T12:59:27.000Z</time>
      </trkpt>
      <trkpt lat="43.61471" lon="5.31749">
        <ele>233.80000305176</ele>
        <time>2019-11-30T12:59:28.000Z</time>
      </trkpt>
      <trkpt lat="43.61469" lon="5.31755">
        <ele>233.80000305176</ele>
        <time>2019-11-30T12:59:29.000Z</time>
      </trkpt>
      <trkpt lat="43.61466" lon="5.3176">
        <ele>234</ele>
        <time>2019-11-30T12:59:30.000Z</time>
      </trkpt>
      <trkpt lat="43.61462" lon="5.31765">
        <ele>234</ele>
        <time>2019-11-30T12:59:31.000Z</time>
      </trkpt>
      <trkpt lat="43.61458" lon="5.3177">
        <ele>234</ele>
        <time>2019-11-30T12:59:32.000Z</time>
      </trkpt>
      <trkpt lat="43.61454" lon="5.31775">
        <ele>234</ele>
        <time>2019-11-30T12:59:33.000Z</time>
      </trkpt>
      <trkpt lat="43.61449" lon="5.3178">
        <ele>234</ele>
        <time>2019-11-30T12:59:34.000Z</time>
      </trkpt>
      <trkpt lat="43.61445" lon="5.31786">
        <ele>234</ele>
        <time>2019-11-30T12:59:35.000Z</time>
      </trkpt>
      <trkpt lat="43.61441" lon="5.31791">
        <ele>234</ele>
        <time>2019-11-30T12:59:36.000Z</time>
      </trkpt>
      <trkpt lat="43.61437" lon="5.31797">
        <ele>234</ele>
        <time>2019-11-30T12:59:37.000Z</time>
      </trkpt>
      <trkpt lat="43.61436" lon="5.31797">
        <ele>234</ele>
        <time>2019-11-30T12:59:38.000Z</time>
      </trkpt>
      <trkpt lat="43.61421" lon="5.318">
        <ele>234.39999389648</ele>
        <time>2019-11-30T12:59:39.000Z</time>
      </trkpt>
      <trkpt lat="43.61418" lon="5.31807">
        <ele>234.80000305176</ele>
        <time>2019-11-30T12:59:40.000Z</time>
      </trkpt>
      <trkpt lat="43.61413" lon="5.31813">
        <ele>235.19999694824</ele>
        <time>2019-11-30T12:59:41.000Z</time>
      </trkpt>
      <trkpt lat="43.61408" lon="5.31819">
        <ele>235.39999389648</ele>
        <time>2019-11-30T12:59:42.000Z</time>
      </trkpt>
      <trkpt lat="43.61403" lon="5.31825">
        <ele>235.80000305176</ele>
        <time>2019-11-30T12:59:43.000Z</time>
      </trkpt>
      <trkpt lat="43.61398" lon="5.3183">
        <ele>236</ele>
        <time>2019-11-30T12:59:44.000Z</time>
      </trkpt>
      <trkpt lat="43.61393" lon="5.31836">
        <ele>236.39999389648</ele>
        <time>2019-11-30T12:59:45.000Z</time>
      </trkpt>
      <trkpt lat="43.61388" lon="5.31841">
        <ele>236.80000305176</ele>
        <time>2019-11-30T12:59:46.000Z</time>
      </trkpt>
      <trkpt lat="43.61384" lon="5.31846">
        <ele>237</ele>
        <time>2019-11-30T12:59:47.000Z</time>
      </trkpt>
      <trkpt lat="43.61381" lon="5.31853">
        <ele>237.39999389648</ele>
        <time>2019-11-30T12:59:48.000Z</time>
      </trkpt>
      <trkpt lat="43.61381" lon="5.31861">
        <ele>237.60000610352</ele>
        <time>2019-11-30T12:59:49.000Z</time>
      </trkpt>
      <trkpt lat="43.61381" lon="5.31869">
        <ele>237.80000305176</ele>
        <time>2019-11-30T12:59:50.000Z</time>
      </trkpt>
      <trkpt lat="43.61381" lon="5.31877">
        <ele>238.19999694824</ele>
        <time>2019-11-30T12:59:51.000Z</time>
      </trkpt>
      <trkpt lat="43.61382" lon="5.31887">
        <ele>238.39999389648</ele>
        <time>2019-11-30T12:59:52.000Z</time>
      </trkpt>
      <trkpt lat="43.61384" lon="5.31895">
        <ele>238.60000610352</ele>
        <time>2019-11-30T12:59:53.000Z</time>
      </trkpt>
      <trkpt lat="43.61386" lon="5.31903">
        <ele>238.80000305176</ele>
        <time>2019-11-30T12:59:54.000Z</time>
      </trkpt>
      <trkpt lat="43.61388" lon="5.31911">
        <ele>238.80000305176</ele>
        <time>2019-11-30T12:59:55.000Z</time>
      </trkpt>
      <trkpt lat="43.61391" lon="5.31919">
        <ele>239</ele>
        <time>2019-11-30T12:59:56.000Z</time>
      </trkpt>
      <trkpt lat="43.61393" lon="5.31926">
        <ele>239</ele>
        <time>2019-11-30T12:59:57.000Z</time>
      </trkpt>
      <trkpt lat="43.61395" lon="5.31933">
        <ele>239</ele>
        <time>2019-11-30T12:59:58.000Z</time>
      </trkpt>
      <trkpt lat="43.61397" lon="5.3194">
        <ele>239</ele>
        <time>2019-11-30T12:59:59.000Z</time>
      </trkpt>
      <trkpt lat="43.61396" lon="5.31948">
        <ele>239</ele>
        <time>2019-11-30T13:00:00.000Z</time>
      </trkpt>
      <trkpt lat="43.61393" lon="5.31955">
        <ele>239</ele>
        <time>2019-11-30T13:00:01.000Z</time>
      </trkpt>
      <trkpt lat="43.6139" lon="5.31962">
        <ele>239</ele>
        <time>2019-11-30T13:00:02.000Z</time>
      </trkpt>
      <trkpt lat="43.61388" lon="5.3197">
        <ele>239</ele>
        <time>2019-11-30T13:00:03.000Z</time>
      </trkpt>
      <trkpt lat="43.61385" lon="5.31976">
        <ele>239.19999694824</ele>
        <time>2019-11-30T13:00:04.000Z</time>
      </trkpt>
      <trkpt lat="43.61382" lon="5.31983">
        <ele>239.19999694824</ele>
        <time>2019-11-30T13:00:05.000Z</time>
      </trkpt>
      <trkpt lat="43.6138" lon="5.3199">
        <ele>239.39999389648</ele>
        <time>2019-11-30T13:00:06.000Z</time>
      </trkpt>
      <trkpt lat="43.61377" lon="5.31997">
        <ele>239.39999389648</ele>
        <time>2019-11-30T13:00:07.000Z</time>
      </trkpt>
      <trkpt lat="43.61375" lon="5.32003">
        <ele>239.19999694824</ele>
        <time>2019-11-30T13:00:08.000Z</time>
      </trkpt>
      <trkpt lat="43.61372" lon="5.3201">
        <ele>239.19999694824</ele>
        <time>2019-11-30T13:00:09.000Z</time>
      </trkpt>
      <trkpt lat="43.6137" lon="5.32016">
        <ele>239.19999694824</ele>
        <time>2019-11-30T13:00:10.000Z</time>
      </trkpt>
      <trkpt lat="43.61368" lon="5.32022">
        <ele>239.19999694824</ele>
        <time>2019-11-30T13:00:11.000Z</time>
      </trkpt>
      <trkpt lat="43.61365" lon="5.32029">
        <ele>239.19999694824</ele>
        <time>2019-11-30T13:00:12.000Z</time>
      </trkpt>
      <trkpt lat="43.61363" lon="5.32035">
        <ele>239.19999694824</ele>
        <time>2019-11-30T13:00:13.000Z</time>
      </trkpt>
      <trkpt lat="43.6136" lon="5.32042">
        <ele>239</ele>
        <time>2019-11-30T13:00:14.000Z</time>
      </trkpt>
      <trkpt lat="43.61358" lon="5.32049">
        <ele>239</ele>
        <time>2019-11-30T13:00:15.000Z</time>
      </trkpt>
      <trkpt lat="43.61355" lon="5.32056">
        <ele>239.19999694824</ele>
        <time>2019-11-30T13:00:16.000Z</time>
      </trkpt>
      <trkpt lat="43.61353" lon="5.32062">
        <ele>239.60000610352</ele>
        <time>2019-11-30T13:00:17.000Z</time>
      </trkpt>
      <trkpt lat="43.6135" lon="5.32069">
        <ele>239.80000305176</ele>
        <time>2019-11-30T13:00:18.000Z</time>
      </trkpt>
      <trkpt lat="43.61348" lon="5.32076">
        <ele>240.19999694824</ele>
        <time>2019-11-30T13:00:19.000Z</time>
      </trkpt>
      <trkpt lat="43.61345" lon="5.32083">
        <ele>240.39999389648</ele>
        <time>2019-11-30T13:00:20.000Z</time>
      </trkpt>
      <trkpt lat="43.61342" lon="5.32089">
        <ele>240.80000305176</ele>
        <time>2019-11-30T13:00:21.000Z</time>
      </trkpt>
      <trkpt lat="43.6134" lon="5.32096">
        <ele>241</ele>
        <time>2019-11-30T13:00:22.000Z</time>
      </trkpt>
      <trkpt lat="43.61338" lon="5.32103">
        <ele>241.39999389648</ele>
        <time>2019-11-30T13:00:23.000Z</time>
      </trkpt>
      <trkpt lat="43.61335" lon="5.32109">
        <ele>241.60000610352</ele>
        <time>2019-11-30T13:00:24.000Z</time>
      </trkpt>
      <trkpt lat="43.61333" lon="5.32116">
        <ele>241.80000305176</ele>
        <time>2019-11-30T13:00:25.000Z</time>
      </trkpt>
      <trkpt lat="43.6133" lon="5.32123">
        <ele>241.80000305176</ele>
        <time>2019-11-30T13:00:26.000Z</time>
      </trkpt>
      <trkpt lat="43.61328" lon="5.32129">
        <ele>241.80000305176</ele>
        <time>2019-11-30T13:00:27.000Z</time>
      </trkpt>
      <trkpt lat="43.61325" lon="5.32136">
        <ele>241.60000610352</ele>
        <time>2019-11-30T13:00:28.000Z</time>
      </trkpt>
      <trkpt lat="43.61321" lon="5.32142">
        <ele>241.60000610352</ele>
        <time>2019-11-30T13:00:29.000Z</time>
      </trkpt>
      <trkpt lat="43.61318" lon="5.32148">
        <ele>241.60000610352</ele>
        <time>2019-11-30T13:00:30.000Z</time>
      </trkpt>
      <trkpt lat="43.61315" lon="5.32154">
        <ele>241.60000610352</ele>
        <time>2019-11-30T13:00:31.000Z</time>
      </trkpt>
      <trkpt lat="43.61311" lon="5.3216">
        <ele>241.60000610352</ele>
        <time>2019-11-30T13:00:32.000Z</time>
      </trkpt>
      <trkpt lat="43.61308" lon="5.32166">
        <ele>241.39999389648</ele>
        <time>2019-11-30T13:00:33.000Z</time>
      </trkpt>
      <trkpt lat="43.61304" lon="5.32172">
        <ele>241.39999389648</ele>
        <time>2019-11-30T13:00:34.000Z</time>
      </trkpt>
      <trkpt lat="43.61301" lon="5.32178">
        <ele>241.39999389648</ele>
        <time>2019-11-30T13:00:35.000Z</time>
      </trkpt>
      <trkpt lat="43.61297" lon="5.32185">
        <ele>241.39999389648</ele>
        <time>2019-11-30T13:00:36.000Z</time>
      </trkpt>
      <trkpt lat="43.61294" lon="5.32191">
        <ele>241.39999389648</ele>
        <time>2019-11-30T13:00:37.000Z</time>
      </trkpt>
      <trkpt lat="43.6129" lon="5.32197">
        <ele>241.19999694824</ele>
        <time>2019-11-30T13:00:38.000Z</time>
      </trkpt>
      <trkpt lat="43.61287" lon="5.32203">
        <ele>241.19999694824</ele>
        <time>2019-11-30T13:00:39.000Z</time>
      </trkpt>
      <trkpt lat="43.61284" lon="5.32208">
        <ele>241.19999694824</ele>
        <time>2019-11-30T13:00:40.000Z</time>
      </trkpt>
      <trkpt lat="43.61275" lon="5.32215">
        <ele>241</ele>
        <time>2019-11-30T13:00:41.000Z</time>
      </trkpt>
      <trkpt lat="43.6127" lon="5.32211">
        <ele>241</ele>
        <time>2019-11-30T13:00:42.000Z</time>
      </trkpt>
      <trkpt lat="43.61266" lon="5.32206">
        <ele>241</ele>
        <time>2019-11-30T13:00:43.000Z</time>
      </trkpt>
      <trkpt lat="43.61261" lon="5.32202">
        <ele>241</ele>
        <time>2019-11-30T13:00:44.000Z</time>
      </trkpt>
      <trkpt lat="43.61256" lon="5.32198">
        <ele>240.80000305176</ele>
        <time>2019-11-30T13:00:45.000Z</time>
      </trkpt>
      <trkpt lat="43.61252" lon="5.32193">
        <ele>240.80000305176</ele>
        <time>2019-11-30T13:00:46.000Z</time>
      </trkpt>
      <trkpt lat="43.61248" lon="5.3219">
        <ele>240.80000305176</ele>
        <time>2019-11-30T13:00:47.000Z</time>
      </trkpt>
      <trkpt lat="43.61242" lon="5.32192">
        <ele>240.60000610352</ele>
        <time>2019-11-30T13:00:48.000Z</time>
      </trkpt>
      <trkpt lat="43.61238" lon="5.32198">
        <ele>240.39999389648</ele>
        <time>2019-11-30T13:00:49.000Z</time>
      </trkpt>
      <trkpt lat="43.61234" lon="5.32204">
        <ele>240.19999694824</ele>
        <time>2019-11-30T13:00:50.000Z</time>
      </trkpt>
      <trkpt lat="43.6123" lon="5.32211">
        <ele>240.19999694824</ele>
        <time>2019-11-30T13:00:51.000Z</time>
      </trkpt>
      <trkpt lat="43.61227" lon="5.32218">
        <ele>240</ele>
        <time>2019-11-30T13:00:52.000Z</time>
      </trkpt>
      <trkpt lat="43.61223" lon="5.32224">
        <ele>239.80000305176</ele>
        <time>2019-11-30T13:00:53.000Z</time>
      </trkpt>
      <trkpt lat="43.61219" lon="5.32231">
        <ele>239.60000610352</ele>
        <time>2019-11-30T13:00:54.000Z</time>
      </trkpt>
      <trkpt lat="43.61215" lon="5.32238">
        <ele>239.39999389648</ele>
        <time>2019-11-30T13:00:55.000Z</time>
      </trkpt>
      <trkpt lat="43.61211" lon="5.32245">
        <ele>239.19999694824</ele>
        <time>2019-11-30T13:00:56.000Z</time>
      </trkpt>
      <trkpt lat="43.61207" lon="5.32252">
        <ele>239</ele>
        <time>2019-11-30T13:00:57.000Z</time>
      </trkpt>
      <trkpt lat="43.61203" lon="5.32258">
        <ele>238.80000305176</ele>
        <time>2019-11-30T13:00:58.000Z</time>
      </trkpt>
      <trkpt lat="43.61199" lon="5.32265">
        <ele>238.80000305176</ele>
        <time>2019-11-30T13:00:59.000Z</time>
      </trkpt>
      <trkpt lat="43.61195" lon="5.32272">
        <ele>238.60000610352</ele>
        <time>2019-11-30T13:01:00.000Z</time>
      </trkpt>
      <trkpt lat="43.61191" lon="5.32278">
        <ele>238.39999389648</ele>
        <time>2019-11-30T13:01:01.000Z</time>
      </trkpt>
      <trkpt lat="43.61188" lon="5.32284">
        <ele>238.19999694824</ele>
        <time>2019-11-30T13:01:02.000Z</time>
      </trkpt>
      <trkpt lat="43.61188" lon="5.32295">
        <ele>238</ele>
        <time>2019-11-30T13:01:03.000Z</time>
      </trkpt>
      <trkpt lat="43.61191" lon="5.32303">
        <ele>238.19999694824</ele>
        <time>2019-11-30T13:01:04.000Z</time>
      </trkpt>
      <trkpt lat="43.61193" lon="5.3231">
        <ele>238.39999389648</ele>
        <time>2019-11-30T13:01:05.000Z</time>
      </trkpt>
      <trkpt lat="43.61195" lon="5.32318">
        <ele>238.39999389648</ele>
        <time>2019-11-30T13:01:06.000Z</time>
      </trkpt>
      <trkpt lat="43.61197" lon="5.32325">
        <ele>238.60000610352</ele>
        <time>2019-11-30T13:01:07.000Z</time>
      </trkpt>
      <trkpt lat="43.61199" lon="5.32332">
        <ele>238.80000305176</ele>
        <time>2019-11-30T13:01:08.000Z</time>
      </trkpt>
      <trkpt lat="43.61201" lon="5.32339">
        <ele>239</ele>
        <time>2019-11-30T13:01:09.000Z</time>
      </trkpt>
      <trkpt lat="43.61203" lon="5.32346">
        <ele>239.19999694824</ele>
        <time>2019-11-30T13:01:10.000Z</time>
      </trkpt>
      <trkpt lat="43.61205" lon="5.32354">
        <ele>239.39999389648</ele>
        <time>2019-11-30T13:01:11.000Z</time>
      </trkpt>
      <trkpt lat="43.61208" lon="5.32361">
        <ele>239.60000610352</ele>
        <time>2019-11-30T13:01:12.000Z</time>
      </trkpt>
      <trkpt lat="43.6121" lon="5.32368">
        <ele>239.60000610352</ele>
        <time>2019-11-30T13:01:13.000Z</time>
      </trkpt>
      <trkpt lat="43.61212" lon="5.32375">
        <ele>239.80000305176</ele>
        <time>2019-11-30T13:01:14.000Z</time>
      </trkpt>
      <trkpt lat="43.61214" lon="5.32383">
        <ele>240</ele>
        <time>2019-11-30T13:01:15.000Z</time>
      </trkpt>
      <trkpt lat="43.61216" lon="5.32391">
        <ele>240.19999694824</ele>
        <time>2019-11-30T13:01:16.000Z</time>
      </trkpt>
      <trkpt lat="43.61219" lon="5.32399">
        <ele>240.19999694824</ele>
        <time>2019-11-30T13:01:17.000Z</time>
      </trkpt>
      <trkpt lat="43.61221" lon="5.32406">
        <ele>240.39999389648</ele>
        <time>2019-11-30T13:01:18.000Z</time>
      </trkpt>
      <trkpt lat="43.61223" lon="5.32414">
        <ele>240.39999389648</ele>
        <time>2019-11-30T13:01:19.000Z</time>
      </trkpt>
      <trkpt lat="43.61224" lon="5.32421">
        <ele>240.39999389648</ele>
        <time>2019-11-30T13:01:20.000Z</time>
      </trkpt>
      <trkpt lat="43.61226" lon="5.32429">
        <ele>240.39999389648</ele>
        <time>2019-11-30T13:01:21.000Z</time>
      </trkpt>
      <trkpt lat="43.61227" lon="5.32436">
        <ele>240.60000610352</ele>
        <time>2019-11-30T13:01:22.000Z</time>
      </trkpt>
      <trkpt lat="43.61227" lon="5.32444">
        <ele>240.60000610352</ele>
        <time>2019-11-30T13:01:23.000Z</time>
      </trkpt>
      <trkpt lat="43.61227" lon="5.32452">
        <ele>240.39999389648</ele>
        <time>2019-11-30T13:01:24.000Z</time>
      </trkpt>
      <trkpt lat="43.6123" lon="5.32457">
        <ele>240.60000610352</ele>
        <time>2019-11-30T13:01:25.000Z</time>
      </trkpt>
      <trkpt lat="43.61235" lon="5.32461">
        <ele>240.60000610352</ele>
        <time>2019-11-30T13:01:26.000Z</time>
      </trkpt>
      <trkpt lat="43.61239" lon="5.32464">
        <ele>240.60000610352</ele>
        <time>2019-11-30T13:01:27.000Z</time>
      </trkpt>
      <trkpt lat="43.61246" lon="5.32463">
        <ele>240.80000305176</ele>
        <time>2019-11-30T13:01:28.000Z</time>
      </trkpt>
      <trkpt lat="43.61252" lon="5.32465">
        <ele>240.80000305176</ele>
        <time>2019-11-30T13:01:29.000Z</time>
      </trkpt>
      <trkpt lat="43.61259" lon="5.32469">
        <ele>240.80000305176</ele>
        <time>2019-11-30T13:01:30.000Z</time>
      </trkpt>
      <trkpt lat="43.61264" lon="5.32475">
        <ele>240.80000305176</ele>
        <time>2019-11-30T13:01:31.000Z</time>
      </trkpt>
      <trkpt lat="43.61269" lon="5.32479">
        <ele>240.80000305176</ele>
        <time>2019-11-30T13:01:32.000Z</time>
      </trkpt>
      <trkpt lat="43.61275" lon="5.32483">
        <ele>240.80000305176</ele>
        <time>2019-11-30T13:01:33.000Z</time>
      </trkpt>
      <trkpt lat="43.61281" lon="5.32487">
        <ele>240.80000305176</ele>
        <time>2019-11-30T13:01:34.000Z</time>
      </trkpt>
      <trkpt lat="43.61286" lon="5.3249">
        <ele>240.60000610352</ele>
        <time>2019-11-30T13:01:35.000Z</time>
      </trkpt>
      <trkpt lat="43.61292" lon="5.32494">
        <ele>240.60000610352</ele>
        <time>2019-11-30T13:01:36.000Z</time>
      </trkpt>
      <trkpt lat="43.61298" lon="5.32498">
        <ele>240.60000610352</ele>
        <time>2019-11-30T13:01:37.000Z</time>
      </trkpt>
      <trkpt lat="43.61303" lon="5.32501">
        <ele>240.60000610352</ele>
        <time>2019-11-30T13:01:38.000Z</time>
      </trkpt>
      <trkpt lat="43.61309" lon="5.32505">
        <ele>240.60000610352</ele>
        <time>2019-11-30T13:01:39.000Z</time>
      </trkpt>
      <trkpt lat="43.61314" lon="5.32508">
        <ele>240.39999389648</ele>
        <time>2019-11-30T13:01:40.000Z</time>
      </trkpt>
      <trkpt lat="43.6132" lon="5.32512">
        <ele>240.39999389648</ele>
        <time>2019-11-30T13:01:41.000Z</time>
      </trkpt>
      <trkpt lat="43.61325" lon="5.32515">
        <ele>240.39999389648</ele>
        <time>2019-11-30T13:01:42.000Z</time>
      </trkpt>
      <trkpt lat="43.61331" lon="5.32519">
        <ele>240.19999694824</ele>
        <time>2019-11-30T13:01:43.000Z</time>
      </trkpt>
      <trkpt lat="43.61336" lon="5.32522">
        <ele>240.19999694824</ele>
        <time>2019-11-30T13:01:44.000Z</time>
      </trkpt>
      <trkpt lat="43.61341" lon="5.32524">
        <ele>240.19999694824</ele>
        <time>2019-11-30T13:01:45.000Z</time>
      </trkpt>
      <trkpt lat="43.61347" lon="5.32524">
        <ele>240</ele>
        <time>2019-11-30T13:01:46.000Z</time>
      </trkpt>
      <trkpt lat="43.61352" lon="5.32524">
        <ele>240</ele>
        <time>2019-11-30T13:01:47.000Z</time>
      </trkpt>
      <trkpt lat="43.61358" lon="5.32525">
        <ele>240</ele>
        <time>2019-11-30T13:01:48.000Z</time>
      </trkpt>
      <trkpt lat="43.61364" lon="5.32525">
        <ele>240.19999694824</ele>
        <time>2019-11-30T13:01:49.000Z</time>
      </trkpt>
      <trkpt lat="43.6137" lon="5.32525">
        <ele>240.19999694824</ele>
        <time>2019-11-30T13:01:50.000Z</time>
      </trkpt>
      <trkpt lat="43.61373" lon="5.32525">
        <ele>240.19999694824</ele>
        <time>2019-11-30T13:01:51.000Z</time>
      </trkpt>
      <trkpt lat="43.61373" lon="5.32525">
        <ele>240.19999694824</ele>
        <time>2019-11-30T13:01:52.000Z</time>
      </trkpt>
      <trkpt lat="43.6138" lon="5.32533">
        <ele>240.39999389648</ele>
        <time>2019-11-30T13:01:53.000Z</time>
      </trkpt>
      <trkpt lat="43.6138" lon="5.32533">
        <ele>240.39999389648</ele>
        <time>2019-11-30T13:01:54.000Z</time>
      </trkpt>
      <trkpt lat="43.61393" lon="5.32495">
        <ele>240.39999389648</ele>
        <time>2019-11-30T13:01:55.000Z</time>
      </trkpt>
      <trkpt lat="43.61395" lon="5.32486">
        <ele>240.19999694824</ele>
        <time>2019-11-30T13:01:56.000Z</time>
      </trkpt>
      <trkpt lat="43.61396" lon="5.32477">
        <ele>240.19999694824</ele>
        <time>2019-11-30T13:01:57.000Z</time>
      </trkpt>
      <trkpt lat="43.61398" lon="5.32469">
        <ele>240</ele>
        <time>2019-11-30T13:01:58.000Z</time>
      </trkpt>
      <trkpt lat="43.614" lon="5.3246">
        <ele>240</ele>
        <time>2019-11-30T13:01:59.000Z</time>
      </trkpt>
      <trkpt lat="43.61402" lon="5.32451">
        <ele>239.80000305176</ele>
        <time>2019-11-30T13:02:00.000Z</time>
      </trkpt>
      <trkpt lat="43.61404" lon="5.32443">
        <ele>239.80000305176</ele>
        <time>2019-11-30T13:02:01.000Z</time>
      </trkpt>
      <trkpt lat="43.61406" lon="5.32435">
        <ele>239.60000610352</ele>
        <time>2019-11-30T13:02:02.000Z</time>
      </trkpt>
      <trkpt lat="43.61408" lon="5.32427">
        <ele>239.80000305176</ele>
        <time>2019-11-30T13:02:03.000Z</time>
      </trkpt>
      <trkpt lat="43.6141" lon="5.32418">
        <ele>240</ele>
        <time>2019-11-30T13:02:04.000Z</time>
      </trkpt>
      <trkpt lat="43.61413" lon="5.3241">
        <ele>240.19999694824</ele>
        <time>2019-11-30T13:02:05.000Z</time>
      </trkpt>
      <trkpt lat="43.61416" lon="5.32402">
        <ele>240.19999694824</ele>
        <time>2019-11-30T13:02:06.000Z</time>
      </trkpt>
      <trkpt lat="43.61418" lon="5.32394">
        <ele>240.39999389648</ele>
        <time>2019-11-30T13:02:07.000Z</time>
      </trkpt>
      <trkpt lat="43.6142" lon="5.32385">
        <ele>240.60000610352</ele>
        <time>2019-11-30T13:02:08.000Z</time>
      </trkpt>
      <trkpt lat="43.61422" lon="5.32378">
        <ele>240.80000305176</ele>
        <time>2019-11-30T13:02:09.000Z</time>
      </trkpt>
      <trkpt lat="43.61425" lon="5.3237">
        <ele>241</ele>
        <time>2019-11-30T13:02:10.000Z</time>
      </trkpt>
      <trkpt lat="43.61427" lon="5.32362">
        <ele>241</ele>
        <time>2019-11-30T13:02:11.000Z</time>
      </trkpt>
      <trkpt lat="43.6143" lon="5.32354">
        <ele>241</ele>
        <time>2019-11-30T13:02:12.000Z</time>
      </trkpt>
      <trkpt lat="43.61432" lon="5.32346">
        <ele>241</ele>
        <time>2019-11-30T13:02:13.000Z</time>
      </trkpt>
      <trkpt lat="43.61434" lon="5.32338">
        <ele>241</ele>
        <time>2019-11-30T13:02:14.000Z</time>
      </trkpt>
      <trkpt lat="43.61436" lon="5.32329">
        <ele>241</ele>
        <time>2019-11-30T13:02:15.000Z</time>
      </trkpt>
      <trkpt lat="43.61438" lon="5.32321">
        <ele>241</ele>
        <time>2019-11-30T13:02:16.000Z</time>
      </trkpt>
      <trkpt lat="43.61441" lon="5.32313">
        <ele>241</ele>
        <time>2019-11-30T13:02:17.000Z</time>
      </trkpt>
      <trkpt lat="43.61442" lon="5.32305">
        <ele>241</ele>
        <time>2019-11-30T13:02:18.000Z</time>
      </trkpt>
      <trkpt lat="43.61444" lon="5.32297">
        <ele>241.19999694824</ele>
        <time>2019-11-30T13:02:19.000Z</time>
      </trkpt>
      <trkpt lat="43.61446" lon="5.32289">
        <ele>241</ele>
        <time>2019-11-30T13:02:20.000Z</time>
      </trkpt>
      <trkpt lat="43.61448" lon="5.32281">
        <ele>241</ele>
        <time>2019-11-30T13:02:21.000Z</time>
      </trkpt>
      <trkpt lat="43.6145" lon="5.32273">
        <ele>240.80000305176</ele>
        <time>2019-11-30T13:02:22.000Z</time>
      </trkpt>
      <trkpt lat="43.61452" lon="5.32265">
        <ele>240.60000610352</ele>
        <time>2019-11-30T13:02:23.000Z</time>
      </trkpt>
      <trkpt lat="43.61453" lon="5.32257">
        <ele>240.39999389648</ele>
        <time>2019-11-30T13:02:24.000Z</time>
      </trkpt>
      <trkpt lat="43.61455" lon="5.32249">
        <ele>240.39999389648</ele>
        <time>2019-11-30T13:02:25.000Z</time>
      </trkpt>
      <trkpt lat="43.61457" lon="5.32241">
        <ele>240.19999694824</ele>
        <time>2019-11-30T13:02:26.000Z</time>
      </trkpt>
      <trkpt lat="43.61458" lon="5.32233">
        <ele>240</ele>
        <time>2019-11-30T13:02:27.000Z</time>
      </trkpt>
      <trkpt lat="43.61459" lon="5.32225">
        <ele>239.80000305176</ele>
        <time>2019-11-30T13:02:28.000Z</time>
      </trkpt>
      <trkpt lat="43.61461" lon="5.32217">
        <ele>239.60000610352</ele>
        <time>2019-11-30T13:02:29.000Z</time>
      </trkpt>
      <trkpt lat="43.61463" lon="5.32209">
        <ele>239.80000305176</ele>
        <time>2019-11-30T13:02:30.000Z</time>
      </trkpt>
      <trkpt lat="43.61465" lon="5.322">
        <ele>239.80000305176</ele>
        <time>2019-11-30T13:02:31.000Z</time>
      </trkpt>
      <trkpt lat="43.61467" lon="5.32193">
        <ele>240</ele>
        <time>2019-11-30T13:02:32.000Z</time>
      </trkpt>
      <trkpt lat="43.6147" lon="5.32186">
        <ele>240.19999694824</ele>
        <time>2019-11-30T13:02:33.000Z</time>
      </trkpt>
      <trkpt lat="43.61473" lon="5.32178">
        <ele>240.39999389648</ele>
        <time>2019-11-30T13:02:34.000Z</time>
      </trkpt>
      <trkpt lat="43.61475" lon="5.32171">
        <ele>240.39999389648</ele>
        <time>2019-11-30T13:02:35.000Z</time>
      </trkpt>
      <trkpt lat="43.61483" lon="5.32168">
        <ele>240.60000610352</ele>
        <time>2019-11-30T13:02:36.000Z</time>
      </trkpt>
      <trkpt lat="43.61482" lon="5.32164">
        <ele>240.60000610352</ele>
        <time>2019-11-30T13:02:37.000Z</time>
      </trkpt>
      <trkpt lat="43.61485" lon="5.32161">
        <ele>240.60000610352</ele>
        <time>2019-11-30T13:02:38.000Z</time>
      </trkpt>
      <trkpt lat="43.61489" lon="5.32161">
        <ele>240.60000610352</ele>
        <time>2019-11-30T13:02:39.000Z</time>
      </trkpt>
      <trkpt lat="43.61482" lon="5.32164">
        <ele>240.60000610352</ele>
        <time>2019-11-30T13:02:40.000Z</time>
      </trkpt>
      <trkpt lat="43.61482" lon="5.32167">
        <ele>240.60000610352</ele>
        <time>2019-11-30T13:02:41.000Z</time>
      </trkpt>
      <trkpt lat="43.61501" lon="5.32167">
        <ele>240.80000305176</ele>
        <time>2019-11-30T13:02:42.000Z</time>
      </trkpt>
      <trkpt lat="43.61506" lon="5.32168">
        <ele>240.80000305176</ele>
        <time>2019-11-30T13:02:43.000Z</time>
      </trkpt>
      <trkpt lat="43.61512" lon="5.32169">
        <ele>241</ele>
        <time>2019-11-30T13:02:44.000Z</time>
      </trkpt>
      <trkpt lat="43.61517" lon="5.3217">
        <ele>241</ele>
        <time>2019-11-30T13:02:45.000Z</time>
      </trkpt>
      <trkpt lat="43.61522" lon="5.32171">
        <ele>241</ele>
        <time>2019-11-30T13:02:46.000Z</time>
      </trkpt>
      <trkpt lat="43.61527" lon="5.32172">
        <ele>241</ele>
        <time>2019-11-30T13:02:47.000Z</time>
      </trkpt>
      <trkpt lat="43.61532" lon="5.32173">
        <ele>241.19999694824</ele>
        <time>2019-11-30T13:02:48.000Z</time>
      </trkpt>
      <trkpt lat="43.61538" lon="5.32174">
        <ele>241.19999694824</ele>
        <time>2019-11-30T13:02:49.000Z</time>
      </trkpt>
      <trkpt lat="43.61543" lon="5.32176">
        <ele>241.19999694824</ele>
        <time>2019-11-30T13:02:50.000Z</time>
      </trkpt>
      <trkpt lat="43.61548" lon="5.32177">
        <ele>241.39999389648</ele>
        <time>2019-11-30T13:02:51.000Z</time>
      </trkpt>
      <trkpt lat="43.61554" lon="5.32178">
        <ele>241.39999389648</ele>
        <time>2019-11-30T13:02:52.000Z</time>
      </trkpt>
      <trkpt lat="43.61559" lon="5.32179">
        <ele>241.39999389648</ele>
        <time>2019-11-30T13:02:53.000Z</time>
      </trkpt>
      <trkpt lat="43.61564" lon="5.3218">
        <ele>241.60000610352</ele>
        <time>2019-11-30T13:02:54.000Z</time>
      </trkpt>
      <trkpt lat="43.6157" lon="5.32181">
        <ele>241.60000610352</ele>
        <time>2019-11-30T13:02:55.000Z</time>
      </trkpt>
      <trkpt lat="43.61576" lon="5.32182">
        <ele>241.60000610352</ele>
        <time>2019-11-30T13:02:56.000Z</time>
      </trkpt>
      <trkpt lat="43.61581" lon="5.32183">
        <ele>241.60000610352</ele>
        <time>2019-11-30T13:02:57.000Z</time>
      </trkpt>
      <trkpt lat="43.61587" lon="5.32185">
        <ele>241.39999389648</ele>
        <time>2019-11-30T13:02:58.000Z</time>
      </trkpt>
      <trkpt lat="43.61592" lon="5.32186">
        <ele>241.39999389648</ele>
        <time>2019-11-30T13:02:59.000Z</time>
      </trkpt>
      <trkpt lat="43.61597" lon="5.32183">
        <ele>241.39999389648</ele>
        <time>2019-11-30T13:03:00.000Z</time>
      </trkpt>
      <trkpt lat="43.61601" lon="5.32177">
        <ele>241.19999694824</ele>
        <time>2019-11-30T13:03:01.000Z</time>
      </trkpt>
      <trkpt lat="43.61602" lon="5.32169">
        <ele>241</ele>
        <time>2019-11-30T13:03:02.000Z</time>
      </trkpt>
      <trkpt lat="43.61602" lon="5.32162">
        <ele>240.80000305176</ele>
        <time>2019-11-30T13:03:03.000Z</time>
      </trkpt>
      <trkpt lat="43.61602" lon="5.32154">
        <ele>240.60000610352</ele>
        <time>2019-11-30T13:03:04.000Z</time>
      </trkpt>
      <trkpt lat="43.61601" lon="5.32146">
        <ele>240.39999389648</ele>
        <time>2019-11-30T13:03:05.000Z</time>
      </trkpt>
      <trkpt lat="43.61602" lon="5.32138">
        <ele>240.19999694824</ele>
        <time>2019-11-30T13:03:06.000Z</time>
      </trkpt>
      <trkpt lat="43.61603" lon="5.32131">
        <ele>240</ele>
        <time>2019-11-30T13:03:07.000Z</time>
      </trkpt>
      <trkpt lat="43.61604" lon="5.32123">
        <ele>240.19999694824</ele>
        <time>2019-11-30T13:03:08.000Z</time>
      </trkpt>
      <trkpt lat="43.61605" lon="5.32115">
        <ele>240.39999389648</ele>
        <time>2019-11-30T13:03:09.000Z</time>
      </trkpt>
      <trkpt lat="43.61606" lon="5.32107">
        <ele>240.60000610352</ele>
        <time>2019-11-30T13:03:10.000Z</time>
      </trkpt>
      <trkpt lat="43.61608" lon="5.32101">
        <ele>240.80000305176</ele>
        <time>2019-11-30T13:03:11.000Z</time>
      </trkpt>
      <trkpt lat="43.61608" lon="5.32093">
        <ele>241</ele>
        <time>2019-11-30T13:03:12.000Z</time>
      </trkpt>
      <trkpt lat="43.61608" lon="5.32085">
        <ele>241.19999694824</ele>
        <time>2019-11-30T13:03:13.000Z</time>
      </trkpt>
      <trkpt lat="43.61608" lon="5.32077">
        <ele>241.39999389648</ele>
        <time>2019-11-30T13:03:14.000Z</time>
      </trkpt>
      <trkpt lat="43.61609" lon="5.32069">
        <ele>241.60000610352</ele>
        <time>2019-11-30T13:03:15.000Z</time>
      </trkpt>
      <trkpt lat="43.61611" lon="5.32062">
        <ele>241.80000305176</ele>
        <time>2019-11-30T13:03:16.000Z</time>
      </trkpt>
      <trkpt lat="43.61612" lon="5.32055">
        <ele>242</ele>
        <time>2019-11-30T13:03:17.000Z</time>
      </trkpt>
      <trkpt lat="43.61614" lon="5.32048">
        <ele>242.19999694824</ele>
        <time>2019-11-30T13:03:18.000Z</time>
      </trkpt>
      <trkpt lat="43.61618" lon="5.32042">
        <ele>242.19999694824</ele>
        <time>2019-11-30T13:03:19.000Z</time>
      </trkpt>
      <trkpt lat="43.61624" lon="5.3204">
        <ele>242.39999389648</ele>
        <time>2019-11-30T13:03:20.000Z</time>
      </trkpt>
      <trkpt lat="43.61629" lon="5.32041">
        <ele>242.39999389648</ele>
        <time>2019-11-30T13:03:21.000Z</time>
      </trkpt>
      <trkpt lat="43.61635" lon="5.32042">
        <ele>242.39999389648</ele>
        <time>2019-11-30T13:03:22.000Z</time>
      </trkpt>
      <trkpt lat="43.61641" lon="5.32045">
        <ele>242.39999389648</ele>
        <time>2019-11-30T13:03:23.000Z</time>
      </trkpt>
      <trkpt lat="43.61647" lon="5.32046">
        <ele>242.60000610352</ele>
        <time>2019-11-30T13:03:24.000Z</time>
      </trkpt>
      <trkpt lat="43.61653" lon="5.32048">
        <ele>242.60000610352</ele>
        <time>2019-11-30T13:03:25.000Z</time>
      </trkpt>
      <trkpt lat="43.61659" lon="5.32049">
        <ele>242.60000610352</ele>
        <time>2019-11-30T13:03:26.000Z</time>
      </trkpt>
      <trkpt lat="43.61664" lon="5.3205">
        <ele>242.60000610352</ele>
        <time>2019-11-30T13:03:27.000Z</time>
      </trkpt>
      <trkpt lat="43.6167" lon="5.32051">
        <ele>242.80000305176</ele>
        <time>2019-11-30T13:03:28.000Z</time>
      </trkpt>
      <trkpt lat="43.61676" lon="5.32052">
        <ele>242.80000305176</ele>
        <time>2019-11-30T13:03:29.000Z</time>
      </trkpt>
      <trkpt lat="43.61682" lon="5.32054">
        <ele>242.80000305176</ele>
        <time>2019-11-30T13:03:30.000Z</time>
      </trkpt>
      <trkpt lat="43.61687" lon="5.32055">
        <ele>242.80000305176</ele>
        <time>2019-11-30T13:03:31.000Z</time>
      </trkpt>
      <trkpt lat="43.61692" lon="5.32056">
        <ele>243</ele>
        <time>2019-11-30T13:03:32.000Z</time>
      </trkpt>
      <trkpt lat="43.61698" lon="5.32055">
        <ele>243.19999694824</ele>
        <time>2019-11-30T13:03:33.000Z</time>
      </trkpt>
      <trkpt lat="43.61703" lon="5.32051">
        <ele>243.39999389648</ele>
        <time>2019-11-30T13:03:34.000Z</time>
      </trkpt>
      <trkpt lat="43.61706" lon="5.32045">
        <ele>243.60000610352</ele>
        <time>2019-11-30T13:03:35.000Z</time>
      </trkpt>
      <trkpt lat="43.61708" lon="5.32038">
        <ele>243.80000305176</ele>
        <time>2019-11-30T13:03:36.000Z</time>
      </trkpt>
      <trkpt lat="43.6171" lon="5.32031">
        <ele>244.19999694824</ele>
        <time>2019-11-30T13:03:37.000Z</time>
      </trkpt>
      <trkpt lat="43.61713" lon="5.32025">
        <ele>244.39999389648</ele>
        <time>2019-11-30T13:03:38.000Z</time>
      </trkpt>
      <trkpt lat="43.61718" lon="5.32022">
        <ele>244.60000610352</ele>
        <time>2019-11-30T13:03:39.000Z</time>
      </trkpt>
      <trkpt lat="43.61723" lon="5.32021">
        <ele>244.80000305176</ele>
        <time>2019-11-30T13:03:40.000Z</time>
      </trkpt>
      <trkpt lat="43.61728" lon="5.32023">
        <ele>245</ele>
        <time>2019-11-30T13:03:41.000Z</time>
      </trkpt>
      <trkpt lat="43.61733" lon="5.32025">
        <ele>245</ele>
        <time>2019-11-30T13:03:42.000Z</time>
      </trkpt>
      <trkpt lat="43.61739" lon="5.32026">
        <ele>245</ele>
        <time>2019-11-30T13:03:43.000Z</time>
      </trkpt>
      <trkpt lat="43.61744" lon="5.32028">
        <ele>245</ele>
        <time>2019-11-30T13:03:44.000Z</time>
      </trkpt>
      <trkpt lat="43.61749" lon="5.32029">
        <ele>245.19999694824</ele>
        <time>2019-11-30T13:03:45.000Z</time>
      </trkpt>
      <trkpt lat="43.61753" lon="5.32007">
        <ele>247.19999694824</ele>
        <time>2019-11-30T13:03:46.000Z</time>
      </trkpt>
      <trkpt lat="43.61758" lon="5.32008">
        <ele>247.39999389648</ele>
        <time>2019-11-30T13:03:47.000Z</time>
      </trkpt>
      <trkpt lat="43.61763" lon="5.3201">
        <ele>247.80000305176</ele>
        <time>2019-11-30T13:03:48.000Z</time>
      </trkpt>
      <trkpt lat="43.61768" lon="5.32011">
        <ele>248</ele>
        <time>2019-11-30T13:03:49.000Z</time>
      </trkpt>
      <trkpt lat="43.61774" lon="5.32013">
        <ele>248.19999694824</ele>
        <time>2019-11-30T13:03:50.000Z</time>
      </trkpt>
      <trkpt lat="43.61784" lon="5.32018">
        <ele>248.60000610352</ele>
        <time>2019-11-30T13:03:51.000Z</time>
      </trkpt>
      <trkpt lat="43.61788" lon="5.32022">
        <ele>248.39999389648</ele>
        <time>2019-11-30T13:03:52.000Z</time>
      </trkpt>
      <trkpt lat="43.61791" lon="5.32026">
        <ele>248.39999389648</ele>
        <time>2019-11-30T13:03:53.000Z</time>
      </trkpt>
      <trkpt lat="43.61795" lon="5.32029">
        <ele>248.39999389648</ele>
        <time>2019-11-30T13:03:54.000Z</time>
      </trkpt>
      <trkpt lat="43.61783" lon="5.32071">
        <ele>245.60000610352</ele>
        <time>2019-11-30T13:03:55.000Z</time>
      </trkpt>
      <trkpt lat="43.61785" lon="5.32079">
        <ele>245.60000610352</ele>
        <time>2019-11-30T13:03:56.000Z</time>
      </trkpt>
      <trkpt lat="43.61786" lon="5.32088">
        <ele>245.39999389648</ele>
        <time>2019-11-30T13:03:57.000Z</time>
      </trkpt>
      <trkpt lat="43.61787" lon="5.32096">
        <ele>245.39999389648</ele>
        <time>2019-11-30T13:03:58.000Z</time>
      </trkpt>
      <trkpt lat="43.61788" lon="5.32103">
        <ele>245.19999694824</ele>
        <time>2019-11-30T13:03:59.000Z</time>
      </trkpt>
      <trkpt lat="43.61791" lon="5.32109">
        <ele>245.39999389648</ele>
        <time>2019-11-30T13:04:00.000Z</time>
      </trkpt>
      <trkpt lat="43.61794" lon="5.32114">
        <ele>245.60000610352</ele>
        <time>2019-11-30T13:04:01.000Z</time>
      </trkpt>
      <trkpt lat="43.61798" lon="5.32116">
        <ele>245.80000305176</ele>
        <time>2019-11-30T13:04:02.000Z</time>
      </trkpt>
      <trkpt lat="43.61803" lon="5.32115">
        <ele>246.19999694824</ele>
        <time>2019-11-30T13:04:03.000Z</time>
      </trkpt>
      <trkpt lat="43.61807" lon="5.32114">
        <ele>246.60000610352</ele>
        <time>2019-11-30T13:04:04.000Z</time>
      </trkpt>
      <trkpt lat="43.6181" lon="5.32111">
        <ele>247</ele>
        <time>2019-11-30T13:04:05.000Z</time>
      </trkpt>
      <trkpt lat="43.61813" lon="5.32108">
        <ele>247.19999694824</ele>
        <time>2019-11-30T13:04:06.000Z</time>
      </trkpt>
      <trkpt lat="43.61816" lon="5.32105">
        <ele>247.60000610352</ele>
        <time>2019-11-30T13:04:07.000Z</time>
      </trkpt>
      <trkpt lat="43.61819" lon="5.32102">
        <ele>248</ele>
        <time>2019-11-30T13:04:08.000Z</time>
      </trkpt>
      <trkpt lat="43.61822" lon="5.321">
        <ele>248.19999694824</ele>
        <time>2019-11-30T13:04:09.000Z</time>
      </trkpt>
      <trkpt lat="43.61826" lon="5.32097">
        <ele>248.60000610352</ele>
        <time>2019-11-30T13:04:10.000Z</time>
      </trkpt>
      <trkpt lat="43.61829" lon="5.32096">
        <ele>248.80000305176</ele>
        <time>2019-11-30T13:04:11.000Z</time>
      </trkpt>
      <trkpt lat="43.61831" lon="5.32094">
        <ele>249</ele>
        <time>2019-11-30T13:04:12.000Z</time>
      </trkpt>
      <trkpt lat="43.61835" lon="5.32092">
        <ele>249.19999694824</ele>
        <time>2019-11-30T13:04:13.000Z</time>
      </trkpt>
      <trkpt lat="43.61838" lon="5.32089">
        <ele>249.39999389648</ele>
        <time>2019-11-30T13:04:14.000Z</time>
      </trkpt>
      <trkpt lat="43.61841" lon="5.32087">
        <ele>249.80000305176</ele>
        <time>2019-11-30T13:04:15.000Z</time>
      </trkpt>
      <trkpt lat="43.61845" lon="5.3208">
        <ele>250.19999694824</ele>
        <time>2019-11-30T13:04:16.000Z</time>
      </trkpt>
      <trkpt lat="43.61847" lon="5.32081">
        <ele>250.19999694824</ele>
        <time>2019-11-30T13:04:17.000Z</time>
      </trkpt>
      <trkpt lat="43.6185" lon="5.32082">
        <ele>250.39999389648</ele>
        <time>2019-11-30T13:04:18.000Z</time>
      </trkpt>
      <trkpt lat="43.61853" lon="5.32081">
        <ele>250.60000610352</ele>
        <time>2019-11-30T13:04:19.000Z</time>
      </trkpt>
      <trkpt lat="43.61857" lon="5.32079">
        <ele>251</ele>
        <time>2019-11-30T13:04:20.000Z</time>
      </trkpt>
      <trkpt lat="43.61861" lon="5.32078">
        <ele>251.19999694824</ele>
        <time>2019-11-30T13:04:21.000Z</time>
      </trkpt>
      <trkpt lat="43.61864" lon="5.32076">
        <ele>251.39999389648</ele>
        <time>2019-11-30T13:04:22.000Z</time>
      </trkpt>
      <trkpt lat="43.61868" lon="5.32075">
        <ele>251.60000610352</ele>
        <time>2019-11-30T13:04:23.000Z</time>
      </trkpt>
      <trkpt lat="43.61871" lon="5.32073">
        <ele>251.80000305176</ele>
        <time>2019-11-30T13:04:24.000Z</time>
      </trkpt>
      <trkpt lat="43.61876" lon="5.32072">
        <ele>252.19999694824</ele>
        <time>2019-11-30T13:04:25.000Z</time>
      </trkpt>
      <trkpt lat="43.61877" lon="5.32076">
        <ele>252.19999694824</ele>
        <time>2019-11-30T13:04:26.000Z</time>
      </trkpt>
      <trkpt lat="43.61879" lon="5.3208">
        <ele>252.19999694824</ele>
        <time>2019-11-30T13:04:27.000Z</time>
      </trkpt>
      <trkpt lat="43.61881" lon="5.32085">
        <ele>252.39999389648</ele>
        <time>2019-11-30T13:04:28.000Z</time>
      </trkpt>
      <trkpt lat="43.61884" lon="5.32089">
        <ele>252.39999389648</ele>
        <time>2019-11-30T13:04:29.000Z</time>
      </trkpt>
      <trkpt lat="43.61886" lon="5.32094">
        <ele>252.39999389648</ele>
        <time>2019-11-30T13:04:30.000Z</time>
      </trkpt>
      <trkpt lat="43.61888" lon="5.32098">
        <ele>252.60000610352</ele>
        <time>2019-11-30T13:04:31.000Z</time>
      </trkpt>
      <trkpt lat="43.6189" lon="5.32104">
        <ele>252.60000610352</ele>
        <time>2019-11-30T13:04:32.000Z</time>
      </trkpt>
      <trkpt lat="43.61892" lon="5.32109">
        <ele>252.60000610352</ele>
        <time>2019-11-30T13:04:33.000Z</time>
      </trkpt>
      <trkpt lat="43.61895" lon="5.32114">
        <ele>252.80000305176</ele>
        <time>2019-11-30T13:04:34.000Z</time>
      </trkpt>
      <trkpt lat="43.61897" lon="5.32119">
        <ele>252.80000305176</ele>
        <time>2019-11-30T13:04:35.000Z</time>
      </trkpt>
      <trkpt lat="43.61899" lon="5.32125">
        <ele>253</ele>
        <time>2019-11-30T13:04:36.000Z</time>
      </trkpt>
      <trkpt lat="43.61902" lon="5.3213">
        <ele>253</ele>
        <time>2019-11-30T13:04:37.000Z</time>
      </trkpt>
      <trkpt lat="43.61904" lon="5.32135">
        <ele>253</ele>
        <time>2019-11-30T13:04:38.000Z</time>
      </trkpt>
      <trkpt lat="43.61906" lon="5.32139">
        <ele>253.19999694824</ele>
        <time>2019-11-30T13:04:39.000Z</time>
      </trkpt>
      <trkpt lat="43.61908" lon="5.32144">
        <ele>253.19999694824</ele>
        <time>2019-11-30T13:04:40.000Z</time>
      </trkpt>
      <trkpt lat="43.6191" lon="5.32149">
        <ele>253.19999694824</ele>
        <time>2019-11-30T13:04:41.000Z</time>
      </trkpt>
      <trkpt lat="43.61913" lon="5.32154">
        <ele>253.39999389648</ele>
        <time>2019-11-30T13:04:42.000Z</time>
      </trkpt>
      <trkpt lat="43.61915" lon="5.32159">
        <ele>253.39999389648</ele>
        <time>2019-11-30T13:04:43.000Z</time>
      </trkpt>
      <trkpt lat="43.61917" lon="5.32164">
        <ele>253.60000610352</ele>
        <time>2019-11-30T13:04:44.000Z</time>
      </trkpt>
      <trkpt lat="43.6192" lon="5.3217">
        <ele>253.60000610352</ele>
        <time>2019-11-30T13:04:45.000Z</time>
      </trkpt>
      <trkpt lat="43.61922" lon="5.32175">
        <ele>253.60000610352</ele>
        <time>2019-11-30T13:04:46.000Z</time>
      </trkpt>
      <trkpt lat="43.61924" lon="5.3218">
        <ele>253.80000305176</ele>
        <time>2019-11-30T13:04:47.000Z</time>
      </trkpt>
      <trkpt lat="43.61927" lon="5.32185">
        <ele>253.80000305176</ele>
        <time>2019-11-30T13:04:48.000Z</time>
      </trkpt>
      <trkpt lat="43.61929" lon="5.32191">
        <ele>254</ele>
        <time>2019-11-30T13:04:49.000Z</time>
      </trkpt>
      <trkpt lat="43.61932" lon="5.32196">
        <ele>254</ele>
        <time>2019-11-30T13:04:50.000Z</time>
      </trkpt>
      <trkpt lat="43.61933" lon="5.322">
        <ele>254</ele>
        <time>2019-11-30T13:04:51.000Z</time>
      </trkpt>
      <trkpt lat="43.61936" lon="5.32205">
        <ele>254.19999694824</ele>
        <time>2019-11-30T13:04:52.000Z</time>
      </trkpt>
      <trkpt lat="43.61938" lon="5.3221">
        <ele>254</ele>
        <time>2019-11-30T13:04:53.000Z</time>
      </trkpt>
      <trkpt lat="43.61941" lon="5.32216">
        <ele>254</ele>
        <time>2019-11-30T13:04:54.000Z</time>
      </trkpt>
      <trkpt lat="43.61943" lon="5.32222">
        <ele>254</ele>
        <time>2019-11-30T13:04:55.000Z</time>
      </trkpt>
      <trkpt lat="43.61946" lon="5.32228">
        <ele>254.19999694824</ele>
        <time>2019-11-30T13:04:56.000Z</time>
      </trkpt>
      <trkpt lat="43.61949" lon="5.32234">
        <ele>254.19999694824</ele>
        <time>2019-11-30T13:04:57.000Z</time>
      </trkpt>
      <trkpt lat="43.61951" lon="5.32241">
        <ele>254.39999389648</ele>
        <time>2019-11-30T13:04:58.000Z</time>
      </trkpt>
      <trkpt lat="43.61953" lon="5.32248">
        <ele>254.39999389648</ele>
        <time>2019-11-30T13:04:59.000Z</time>
      </trkpt>
      <trkpt lat="43.61955" lon="5.32256">
        <ele>254.60000610352</ele>
        <time>2019-11-30T13:05:00.000Z</time>
      </trkpt>
      <trkpt lat="43.61957" lon="5.32263">
        <ele>254.60000610352</ele>
        <time>2019-11-30T13:05:01.000Z</time>
      </trkpt>
      <trkpt lat="43.61959" lon="5.32271">
        <ele>254.60000610352</ele>
        <time>2019-11-30T13:05:02.000Z</time>
      </trkpt>
      <trkpt lat="43.6196" lon="5.32278">
        <ele>254.80000305176</ele>
        <time>2019-11-30T13:05:03.000Z</time>
      </trkpt>
      <trkpt lat="43.61962" lon="5.32285">
        <ele>254.80000305176</ele>
        <time>2019-11-30T13:05:04.000Z</time>
      </trkpt>
      <trkpt lat="43.61964" lon="5.32291">
        <ele>255</ele>
        <time>2019-11-30T13:05:05.000Z</time>
      </trkpt>
      <trkpt lat="43.61965" lon="5.32298">
        <ele>255</ele>
        <time>2019-11-30T13:05:06.000Z</time>
      </trkpt>
      <trkpt lat="43.61967" lon="5.32304">
        <ele>255.19999694824</ele>
        <time>2019-11-30T13:05:07.000Z</time>
      </trkpt>
      <trkpt lat="43.61969" lon="5.32311">
        <ele>255.39999389648</ele>
        <time>2019-11-30T13:05:08.000Z</time>
      </trkpt>
      <trkpt lat="43.61971" lon="5.32317">
        <ele>255.39999389648</ele>
        <time>2019-11-30T13:05:09.000Z</time>
      </trkpt>
      <trkpt lat="43.61974" lon="5.32324">
        <ele>255.60000610352</ele>
        <time>2019-11-30T13:05:10.000Z</time>
      </trkpt>
      <trkpt lat="43.61977" lon="5.3233">
        <ele>255.80000305176</ele>
        <time>2019-11-30T13:05:11.000Z</time>
      </trkpt>
      <trkpt lat="43.6198" lon="5.32336">
        <ele>256</ele>
        <time>2019-11-30T13:05:12.000Z</time>
      </trkpt>
      <trkpt lat="43.61983" lon="5.32342">
        <ele>256</ele>
        <time>2019-11-30T13:05:13.000Z</time>
      </trkpt>
      <trkpt lat="43.61986" lon="5.32348">
        <ele>256.20001220703</ele>
        <time>2019-11-30T13:05:14.000Z</time>
      </trkpt>
      <trkpt lat="43.61989" lon="5.32354">
        <ele>256.39999389648</ele>
        <time>2019-11-30T13:05:15.000Z</time>
      </trkpt>
      <trkpt lat="43.61991" lon="5.3236">
        <ele>256.60000610352</ele>
        <time>2019-11-30T13:05:16.000Z</time>
      </trkpt>
      <trkpt lat="43.61994" lon="5.32366">
        <ele>256.60000610352</ele>
        <time>2019-11-30T13:05:17.000Z</time>
      </trkpt>
      <trkpt lat="43.61997" lon="5.32373">
        <ele>256.79998779297</ele>
        <time>2019-11-30T13:05:18.000Z</time>
      </trkpt>
      <trkpt lat="43.61997" lon="5.3238">
        <ele>257</ele>
        <time>2019-11-30T13:05:19.000Z</time>
      </trkpt>
      <trkpt lat="43.61998" lon="5.32387">
        <ele>257.20001220703</ele>
        <time>2019-11-30T13:05:20.000Z</time>
      </trkpt>
      <trkpt lat="43.61999" lon="5.32394">
        <ele>257.39999389648</ele>
        <time>2019-11-30T13:05:21.000Z</time>
      </trkpt>
      <trkpt lat="43.61999" lon="5.32401">
        <ele>257.39999389648</ele>
        <time>2019-11-30T13:05:22.000Z</time>
      </trkpt>
      <trkpt lat="43.62" lon="5.32407">
        <ele>257.60000610352</ele>
        <time>2019-11-30T13:05:23.000Z</time>
      </trkpt>
      <trkpt lat="43.62001" lon="5.32414">
        <ele>257.79998779297</ele>
        <time>2019-11-30T13:05:24.000Z</time>
      </trkpt>
      <trkpt lat="43.62001" lon="5.32421">
        <ele>258</ele>
        <time>2019-11-30T13:05:25.000Z</time>
      </trkpt>
      <trkpt lat="43.62002" lon="5.32428">
        <ele>258.20001220703</ele>
        <time>2019-11-30T13:05:26.000Z</time>
      </trkpt>
      <trkpt lat="43.62002" lon="5.32435">
        <ele>258.20001220703</ele>
        <time>2019-11-30T13:05:27.000Z</time>
      </trkpt>
      <trkpt lat="43.62003" lon="5.32442">
        <ele>258.39999389648</ele>
        <time>2019-11-30T13:05:28.000Z</time>
      </trkpt>
      <trkpt lat="43.62004" lon="5.32449">
        <ele>258.60000610352</ele>
        <time>2019-11-30T13:05:29.000Z</time>
      </trkpt>
      <trkpt lat="43.62004" lon="5.32455">
        <ele>259</ele>
        <time>2019-11-30T13:05:30.000Z</time>
      </trkpt>
      <trkpt lat="43.62005" lon="5.32462">
        <ele>259.39999389648</ele>
        <time>2019-11-30T13:05:31.000Z</time>
      </trkpt>
      <trkpt lat="43.62006" lon="5.32469">
        <ele>259.60000610352</ele>
        <time>2019-11-30T13:05:32.000Z</time>
      </trkpt>
      <trkpt lat="43.62005" lon="5.32475">
        <ele>259.79998779297</ele>
        <time>2019-11-30T13:05:33.000Z</time>
      </trkpt>
      <trkpt lat="43.62005" lon="5.32481">
        <ele>260</ele>
        <time>2019-11-30T13:05:34.000Z</time>
      </trkpt>
      <trkpt lat="43.62004" lon="5.32488">
        <ele>260.20001220703</ele>
        <time>2019-11-30T13:05:35.000Z</time>
      </trkpt>
      <trkpt lat="43.62004" lon="5.32494">
        <ele>260.20001220703</ele>
        <time>2019-11-30T13:05:36.000Z</time>
      </trkpt>
      <trkpt lat="43.62003" lon="5.32501">
        <ele>260.39999389648</ele>
        <time>2019-11-30T13:05:37.000Z</time>
      </trkpt>
      <trkpt lat="43.62003" lon="5.32507">
        <ele>260.60000610352</ele>
        <time>2019-11-30T13:05:38.000Z</time>
      </trkpt>
      <trkpt lat="43.62002" lon="5.32513">
        <ele>260.79998779297</ele>
        <time>2019-11-30T13:05:39.000Z</time>
      </trkpt>
      <trkpt lat="43.62001" lon="5.3252">
        <ele>261</ele>
        <time>2019-11-30T13:05:40.000Z</time>
      </trkpt>
      <trkpt lat="43.62001" lon="5.32526">
        <ele>261.20001220703</ele>
        <time>2019-11-30T13:05:41.000Z</time>
      </trkpt>
      <trkpt lat="43.62" lon="5.32533">
        <ele>261.20001220703</ele>
        <time>2019-11-30T13:05:42.000Z</time>
      </trkpt>
      <trkpt lat="43.62" lon="5.3254">
        <ele>261.39999389648</ele>
        <time>2019-11-30T13:05:43.000Z</time>
      </trkpt>
      <trkpt lat="43.61999" lon="5.32547">
        <ele>261.39999389648</ele>
        <time>2019-11-30T13:05:44.000Z</time>
      </trkpt>
      <trkpt lat="43.61998" lon="5.32553">
        <ele>261.39999389648</ele>
        <time>2019-11-30T13:05:45.000Z</time>
      </trkpt>
      <trkpt lat="43.61998" lon="5.3256">
        <ele>261.39999389648</ele>
        <time>2019-11-30T13:05:46.000Z</time>
      </trkpt>
      <trkpt lat="43.61997" lon="5.32567">
        <ele>261.20001220703</ele>
        <time>2019-11-30T13:05:47.000Z</time>
      </trkpt>
      <trkpt lat="43.61997" lon="5.32573">
        <ele>261.20001220703</ele>
        <time>2019-11-30T13:05:48.000Z</time>
      </trkpt>
      <trkpt lat="43.61996" lon="5.3258">
        <ele>261.20001220703</ele>
        <time>2019-11-30T13:05:49.000Z</time>
      </trkpt>
      <trkpt lat="43.61995" lon="5.32586">
        <ele>261</ele>
        <time>2019-11-30T13:05:50.000Z</time>
      </trkpt>
      <trkpt lat="43.61995" lon="5.32593">
        <ele>261</ele>
        <time>2019-11-30T13:05:51.000Z</time>
      </trkpt>
      <trkpt lat="43.61994" lon="5.32598">
        <ele>261</ele>
        <time>2019-11-30T13:05:52.000Z</time>
      </trkpt>
      <trkpt lat="43.61994" lon="5.32604">
        <ele>261</ele>
        <time>2019-11-30T13:05:53.000Z</time>
      </trkpt>
      <trkpt lat="43.61993" lon="5.32611">
        <ele>260.79998779297</ele>
        <time>2019-11-30T13:05:54.000Z</time>
      </trkpt>
      <trkpt lat="43.61993" lon="5.32617">
        <ele>260.60000610352</ele>
        <time>2019-11-30T13:05:55.000Z</time>
      </trkpt>
      <trkpt lat="43.61992" lon="5.32622">
        <ele>260.60000610352</ele>
        <time>2019-11-30T13:05:56.000Z</time>
      </trkpt>
      <trkpt lat="43.61992" lon="5.32629">
        <ele>260.39999389648</ele>
        <time>2019-11-30T13:05:57.000Z</time>
      </trkpt>
      <trkpt lat="43.61991" lon="5.32635">
        <ele>260.39999389648</ele>
        <time>2019-11-30T13:05:58.000Z</time>
      </trkpt>
      <trkpt lat="43.61991" lon="5.32641">
        <ele>260.39999389648</ele>
        <time>2019-11-30T13:05:59.000Z</time>
      </trkpt>
      <trkpt lat="43.6199" lon="5.32647">
        <ele>260.39999389648</ele>
        <time>2019-11-30T13:06:00.000Z</time>
      </trkpt>
      <trkpt lat="43.61988" lon="5.32653">
        <ele>260.39999389648</ele>
        <time>2019-11-30T13:06:01.000Z</time>
      </trkpt>
      <trkpt lat="43.61986" lon="5.32658">
        <ele>260.39999389648</ele>
        <time>2019-11-30T13:06:02.000Z</time>
      </trkpt>
      <trkpt lat="43.61985" lon="5.32664">
        <ele>260.39999389648</ele>
        <time>2019-11-30T13:06:03.000Z</time>
      </trkpt>
      <trkpt lat="43.61983" lon="5.32669">
        <ele>260.39999389648</ele>
        <time>2019-11-30T13:06:04.000Z</time>
      </trkpt>
      <trkpt lat="43.61981" lon="5.32675">
        <ele>260.39999389648</ele>
        <time>2019-11-30T13:06:05.000Z</time>
      </trkpt>
      <trkpt lat="43.6198" lon="5.3268">
        <ele>260.39999389648</ele>
        <time>2019-11-30T13:06:06.000Z</time>
      </trkpt>
      <trkpt lat="43.61978" lon="5.32685">
        <ele>260.39999389648</ele>
        <time>2019-11-30T13:06:07.000Z</time>
      </trkpt>
      <trkpt lat="43.61977" lon="5.32691">
        <ele>260.20001220703</ele>
        <time>2019-11-30T13:06:08.000Z</time>
      </trkpt>
      <trkpt lat="43.61975" lon="5.32697">
        <ele>260.20001220703</ele>
        <time>2019-11-30T13:06:09.000Z</time>
      </trkpt>
      <trkpt lat="43.61973" lon="5.32702">
        <ele>260.20001220703</ele>
        <time>2019-11-30T13:06:10.000Z</time>
      </trkpt>
      <trkpt lat="43.61972" lon="5.32707">
        <ele>260</ele>
        <time>2019-11-30T13:06:11.000Z</time>
      </trkpt>
      <trkpt lat="43.6197" lon="5.32712">
        <ele>260</ele>
        <time>2019-11-30T13:06:12.000Z</time>
      </trkpt>
      <trkpt lat="43.61968" lon="5.32718">
        <ele>260</ele>
        <time>2019-11-30T13:06:13.000Z</time>
      </trkpt>
      <trkpt lat="43.61967" lon="5.32724">
        <ele>260.20001220703</ele>
        <time>2019-11-30T13:06:14.000Z</time>
      </trkpt>
      <trkpt lat="43.61965" lon="5.3273">
        <ele>260.39999389648</ele>
        <time>2019-11-30T13:06:15.000Z</time>
      </trkpt>
      <trkpt lat="43.61963" lon="5.32735">
        <ele>260.60000610352</ele>
        <time>2019-11-30T13:06:16.000Z</time>
      </trkpt>
      <trkpt lat="43.61961" lon="5.32741">
        <ele>260.60000610352</ele>
        <time>2019-11-30T13:06:17.000Z</time>
      </trkpt>
      <trkpt lat="43.6196" lon="5.32747">
        <ele>260.60000610352</ele>
        <time>2019-11-30T13:06:18.000Z</time>
      </trkpt>
      <trkpt lat="43.61958" lon="5.32752">
        <ele>260.60000610352</ele>
        <time>2019-11-30T13:06:19.000Z</time>
      </trkpt>
      <trkpt lat="43.61957" lon="5.32757">
        <ele>260.60000610352</ele>
        <time>2019-11-30T13:06:20.000Z</time>
      </trkpt>
      <trkpt lat="43.61955" lon="5.32762">
        <ele>260.39999389648</ele>
        <time>2019-11-30T13:06:21.000Z</time>
      </trkpt>
      <trkpt lat="43.61954" lon="5.32767">
        <ele>260.39999389648</ele>
        <time>2019-11-30T13:06:22.000Z</time>
      </trkpt>
      <trkpt lat="43.61952" lon="5.32772">
        <ele>260.39999389648</ele>
        <time>2019-11-30T13:06:23.000Z</time>
      </trkpt>
      <trkpt lat="43.61951" lon="5.32777">
        <ele>260.39999389648</ele>
        <time>2019-11-30T13:06:24.000Z</time>
      </trkpt>
      <trkpt lat="43.61949" lon="5.32782">
        <ele>260.39999389648</ele>
        <time>2019-11-30T13:06:25.000Z</time>
      </trkpt>
      <trkpt lat="43.61948" lon="5.32787">
        <ele>260.20001220703</ele>
        <time>2019-11-30T13:06:26.000Z</time>
      </trkpt>
      <trkpt lat="43.61946" lon="5.32792">
        <ele>260.20001220703</ele>
        <time>2019-11-30T13:06:27.000Z</time>
      </trkpt>
      <trkpt lat="43.61945" lon="5.32797">
        <ele>260.20001220703</ele>
        <time>2019-11-30T13:06:28.000Z</time>
      </trkpt>
      <trkpt lat="43.61943" lon="5.32802">
        <ele>260.39999389648</ele>
        <time>2019-11-30T13:06:29.000Z</time>
      </trkpt>
      <trkpt lat="43.61942" lon="5.32807">
        <ele>260.39999389648</ele>
        <time>2019-11-30T13:06:30.000Z</time>
      </trkpt>
      <trkpt lat="43.6194" lon="5.32812">
        <ele>260.39999389648</ele>
        <time>2019-11-30T13:06:31.000Z</time>
      </trkpt>
      <trkpt lat="43.61939" lon="5.32819">
        <ele>260.39999389648</ele>
        <time>2019-11-30T13:06:32.000Z</time>
      </trkpt>
      <trkpt lat="43.61938" lon="5.32825">
        <ele>260.39999389648</ele>
        <time>2019-11-30T13:06:33.000Z</time>
      </trkpt>
      <trkpt lat="43.61938" lon="5.3283">
        <ele>260.60000610352</ele>
        <time>2019-11-30T13:06:34.000Z</time>
      </trkpt>
      <trkpt lat="43.61938" lon="5.32836">
        <ele>260.60000610352</ele>
        <time>2019-11-30T13:06:35.000Z</time>
      </trkpt>
      <trkpt lat="43.61938" lon="5.32842">
        <ele>260.60000610352</ele>
        <time>2019-11-30T13:06:36.000Z</time>
      </trkpt>
      <trkpt lat="43.61938" lon="5.32848">
        <ele>260.79998779297</ele>
        <time>2019-11-30T13:06:37.000Z</time>
      </trkpt>
      <trkpt lat="43.61938" lon="5.32854">
        <ele>260.79998779297</ele>
        <time>2019-11-30T13:06:38.000Z</time>
      </trkpt>
      <trkpt lat="43.61938" lon="5.3286">
        <ele>260.79998779297</ele>
        <time>2019-11-30T13:06:39.000Z</time>
      </trkpt>
      <trkpt lat="43.61938" lon="5.32865">
        <ele>261</ele>
        <time>2019-11-30T13:06:40.000Z</time>
      </trkpt>
      <trkpt lat="43.61939" lon="5.32871">
        <ele>261</ele>
        <time>2019-11-30T13:06:41.000Z</time>
      </trkpt>
      <trkpt lat="43.6194" lon="5.32877">
        <ele>261.20001220703</ele>
        <time>2019-11-30T13:06:42.000Z</time>
      </trkpt>
      <trkpt lat="43.6194" lon="5.32882">
        <ele>261.20001220703</ele>
        <time>2019-11-30T13:06:43.000Z</time>
      </trkpt>
      <trkpt lat="43.61941" lon="5.32888">
        <ele>261.20001220703</ele>
        <time>2019-11-30T13:06:44.000Z</time>
      </trkpt>
      <trkpt lat="43.61941" lon="5.32894">
        <ele>261.20001220703</ele>
        <time>2019-11-30T13:06:45.000Z</time>
      </trkpt>
      <trkpt lat="43.61942" lon="5.32899">
        <ele>261.39999389648</ele>
        <time>2019-11-30T13:06:46.000Z</time>
      </trkpt>
      <trkpt lat="43.61942" lon="5.32905">
        <ele>261.39999389648</ele>
        <time>2019-11-30T13:06:47.000Z</time>
      </trkpt>
      <trkpt lat="43.61943" lon="5.3291">
        <ele>261.39999389648</ele>
        <time>2019-11-30T13:06:48.000Z</time>
      </trkpt>
      <trkpt lat="43.61944" lon="5.32915">
        <ele>261.39999389648</ele>
        <time>2019-11-30T13:06:49.000Z</time>
      </trkpt>
      <trkpt lat="43.61944" lon="5.32921">
        <ele>261.39999389648</ele>
        <time>2019-11-30T13:06:50.000Z</time>
      </trkpt>
      <trkpt lat="43.61945" lon="5.32926">
        <ele>261.39999389648</ele>
        <time>2019-11-30T13:06:51.000Z</time>
      </trkpt>
      <trkpt lat="43.61945" lon="5.32931">
        <ele>261.39999389648</ele>
        <time>2019-11-30T13:06:52.000Z</time>
      </trkpt>
      <trkpt lat="43.61946" lon="5.32937">
        <ele>261.39999389648</ele>
        <time>2019-11-30T13:06:53.000Z</time>
      </trkpt>
      <trkpt lat="43.61946" lon="5.32942">
        <ele>261.60000610352</ele>
        <time>2019-11-30T13:06:54.000Z</time>
      </trkpt>
      <trkpt lat="43.61947" lon="5.32948">
        <ele>261.60000610352</ele>
        <time>2019-11-30T13:06:55.000Z</time>
      </trkpt>
      <trkpt lat="43.61948" lon="5.32955">
        <ele>261.60000610352</ele>
        <time>2019-11-30T13:06:56.000Z</time>
      </trkpt>
      <trkpt lat="43.61948" lon="5.32961">
        <ele>261.60000610352</ele>
        <time>2019-11-30T13:06:57.000Z</time>
      </trkpt>
      <trkpt lat="43.61949" lon="5.32967">
        <ele>261.60000610352</ele>
        <time>2019-11-30T13:06:58.000Z</time>
      </trkpt>
      <trkpt lat="43.61949" lon="5.32974">
        <ele>261.60000610352</ele>
        <time>2019-11-30T13:06:59.000Z</time>
      </trkpt>
      <trkpt lat="43.6195" lon="5.32979">
        <ele>261.79998779297</ele>
        <time>2019-11-30T13:07:00.000Z</time>
      </trkpt>
      <trkpt lat="43.61951" lon="5.32985">
        <ele>261.79998779297</ele>
        <time>2019-11-30T13:07:01.000Z</time>
      </trkpt>
      <trkpt lat="43.61951" lon="5.32992">
        <ele>261.79998779297</ele>
        <time>2019-11-30T13:07:02.000Z</time>
      </trkpt>
      <trkpt lat="43.61952" lon="5.32998">
        <ele>261.79998779297</ele>
        <time>2019-11-30T13:07:03.000Z</time>
      </trkpt>
      <trkpt lat="43.61953" lon="5.33005">
        <ele>261.79998779297</ele>
        <time>2019-11-30T13:07:04.000Z</time>
      </trkpt>
      <trkpt lat="43.61953" lon="5.33011">
        <ele>261.79998779297</ele>
        <time>2019-11-30T13:07:05.000Z</time>
      </trkpt>
      <trkpt lat="43.61954" lon="5.33017">
        <ele>262</ele>
        <time>2019-11-30T13:07:06.000Z</time>
      </trkpt>
      <trkpt lat="43.61955" lon="5.33024">
        <ele>262</ele>
        <time>2019-11-30T13:07:07.000Z</time>
      </trkpt>
      <trkpt lat="43.61956" lon="5.3303">
        <ele>262</ele>
        <time>2019-11-30T13:07:08.000Z</time>
      </trkpt>
      <trkpt lat="43.61956" lon="5.33036">
        <ele>262</ele>
        <time>2019-11-30T13:07:09.000Z</time>
      </trkpt>
      <trkpt lat="43.61957" lon="5.33042">
        <ele>262</ele>
        <time>2019-11-30T13:07:10.000Z</time>
      </trkpt>
      <trkpt lat="43.61958" lon="5.33048">
        <ele>262</ele>
        <time>2019-11-30T13:07:11.000Z</time>
      </trkpt>
      <trkpt lat="43.61958" lon="5.33053">
        <ele>262.20001220703</ele>
        <time>2019-11-30T13:07:12.000Z</time>
      </trkpt>
      <trkpt lat="43.61959" lon="5.33059">
        <ele>262.20001220703</ele>
        <time>2019-11-30T13:07:13.000Z</time>
      </trkpt>
      <trkpt lat="43.6196" lon="5.33065">
        <ele>262.20001220703</ele>
        <time>2019-11-30T13:07:14.000Z</time>
      </trkpt>
      <trkpt lat="43.6196" lon="5.33071">
        <ele>262.20001220703</ele>
        <time>2019-11-30T13:07:15.000Z</time>
      </trkpt>
      <trkpt lat="43.61961" lon="5.33076">
        <ele>262.39999389648</ele>
        <time>2019-11-30T13:07:16.000Z</time>
      </trkpt>
      <trkpt lat="43.61962" lon="5.33081">
        <ele>262.39999389648</ele>
        <time>2019-11-30T13:07:17.000Z</time>
      </trkpt>
      <trkpt lat="43.61962" lon="5.33084">
        <ele>262.60000610352</ele>
        <time>2019-11-30T13:07:18.000Z</time>
      </trkpt>
      <trkpt lat="43.61976" lon="5.33085">
        <ele>263</ele>
        <time>2019-11-30T13:07:19.000Z</time>
      </trkpt>
      <trkpt lat="43.61979" lon="5.33085">
        <ele>263.20001220703</ele>
        <time>2019-11-30T13:07:20.000Z</time>
      </trkpt>
      <trkpt lat="43.61983" lon="5.33085">
        <ele>263.39999389648</ele>
        <time>2019-11-30T13:07:21.000Z</time>
      </trkpt>
      <trkpt lat="43.61987" lon="5.33085">
        <ele>263.39999389648</ele>
        <time>2019-11-30T13:07:22.000Z</time>
      </trkpt>
      <trkpt lat="43.61991" lon="5.33085">
        <ele>263.60000610352</ele>
        <time>2019-11-30T13:07:23.000Z</time>
      </trkpt>
      <trkpt lat="43.61994" lon="5.33086">
        <ele>263.79998779297</ele>
        <time>2019-11-30T13:07:24.000Z</time>
      </trkpt>
      <trkpt lat="43.61998" lon="5.33087">
        <ele>264</ele>
        <time>2019-11-30T13:07:25.000Z</time>
      </trkpt>
      <trkpt lat="43.62002" lon="5.33088">
        <ele>264.20001220703</ele>
        <time>2019-11-30T13:07:26.000Z</time>
      </trkpt>
      <trkpt lat="43.62006" lon="5.33088">
        <ele>264.39999389648</ele>
        <time>2019-11-30T13:07:27.000Z</time>
      </trkpt>
      <trkpt lat="43.6201" lon="5.33088">
        <ele>264.60000610352</ele>
        <time>2019-11-30T13:07:28.000Z</time>
      </trkpt>
      <trkpt lat="43.62014" lon="5.33089">
        <ele>264.79998779297</ele>
        <time>2019-11-30T13:07:29.000Z</time>
      </trkpt>
      <trkpt lat="43.62017" lon="5.3309">
        <ele>265</ele>
        <time>2019-11-30T13:07:30.000Z</time>
      </trkpt>
      <trkpt lat="43.62021" lon="5.3309">
        <ele>265</ele>
        <time>2019-11-30T13:07:31.000Z</time>
      </trkpt>
      <trkpt lat="43.62025" lon="5.33091">
        <ele>265</ele>
        <time>2019-11-30T13:07:32.000Z</time>
      </trkpt>
      <trkpt lat="43.62029" lon="5.33092">
        <ele>265.20001220703</ele>
        <time>2019-11-30T13:07:33.000Z</time>
      </trkpt>
      <trkpt lat="43.62032" lon="5.33093">
        <ele>265.20001220703</ele>
        <time>2019-11-30T13:07:34.000Z</time>
      </trkpt>
      <trkpt lat="43.62036" lon="5.33093">
        <ele>265.20001220703</ele>
        <time>2019-11-30T13:07:35.000Z</time>
      </trkpt>
      <trkpt lat="43.62039" lon="5.33094">
        <ele>265.20001220703</ele>
        <time>2019-11-30T13:07:36.000Z</time>
      </trkpt>
      <trkpt lat="43.62043" lon="5.33096">
        <ele>265.20001220703</ele>
        <time>2019-11-30T13:07:37.000Z</time>
      </trkpt>
      <trkpt lat="43.62046" lon="5.33099">
        <ele>265.39999389648</ele>
        <time>2019-11-30T13:07:38.000Z</time>
      </trkpt>
      <trkpt lat="43.62049" lon="5.33102">
        <ele>265.39999389648</ele>
        <time>2019-11-30T13:07:39.000Z</time>
      </trkpt>
      <trkpt lat="43.62053" lon="5.33105">
        <ele>265.39999389648</ele>
        <time>2019-11-30T13:07:40.000Z</time>
      </trkpt>
      <trkpt lat="43.62056" lon="5.33108">
        <ele>265.39999389648</ele>
        <time>2019-11-30T13:07:41.000Z</time>
      </trkpt>
      <trkpt lat="43.62059" lon="5.33111">
        <ele>265.39999389648</ele>
        <time>2019-11-30T13:07:42.000Z</time>
      </trkpt>
      <trkpt lat="43.62063" lon="5.33113">
        <ele>265.60000610352</ele>
        <time>2019-11-30T13:07:43.000Z</time>
      </trkpt>
      <trkpt lat="43.62066" lon="5.33115">
        <ele>265.60000610352</ele>
        <time>2019-11-30T13:07:44.000Z</time>
      </trkpt>
      <trkpt lat="43.6207" lon="5.33116">
        <ele>265.60000610352</ele>
        <time>2019-11-30T13:07:45.000Z</time>
      </trkpt>
      <trkpt lat="43.62074" lon="5.33117">
        <ele>265.60000610352</ele>
        <time>2019-11-30T13:07:46.000Z</time>
      </trkpt>
      <trkpt lat="43.62077" lon="5.33118">
        <ele>265.79998779297</ele>
        <time>2019-11-30T13:07:47.000Z</time>
      </trkpt>
      <trkpt lat="43.62081" lon="5.3312">
        <ele>265.79998779297</ele>
        <time>2019-11-30T13:07:48.000Z</time>
      </trkpt>
      <trkpt lat="43.62084" lon="5.33121">
        <ele>265.79998779297</ele>
        <time>2019-11-30T13:07:49.000Z</time>
      </trkpt>
      <trkpt lat="43.62088" lon="5.33122">
        <ele>265.79998779297</ele>
        <time>2019-11-30T13:07:50.000Z</time>
      </trkpt>
      <trkpt lat="43.62091" lon="5.33123">
        <ele>265.79998779297</ele>
        <time>2019-11-30T13:07:51.000Z</time>
      </trkpt>
      <trkpt lat="43.62095" lon="5.33125">
        <ele>266</ele>
        <time>2019-11-30T13:07:52.000Z</time>
      </trkpt>
      <trkpt lat="43.62098" lon="5.33126">
        <ele>266</ele>
        <time>2019-11-30T13:07:53.000Z</time>
      </trkpt>
      <trkpt lat="43.62101" lon="5.33128">
        <ele>266</ele>
        <time>2019-11-30T13:07:54.000Z</time>
      </trkpt>
      <trkpt lat="43.62104" lon="5.3313">
        <ele>266.20001220703</ele>
        <time>2019-11-30T13:07:55.000Z</time>
      </trkpt>
      <trkpt lat="43.62108" lon="5.33131">
        <ele>266.39999389648</ele>
        <time>2019-11-30T13:07:56.000Z</time>
      </trkpt>
      <trkpt lat="43.62111" lon="5.33133">
        <ele>266.60000610352</ele>
        <time>2019-11-30T13:07:57.000Z</time>
      </trkpt>
      <trkpt lat="43.62114" lon="5.33135">
        <ele>267</ele>
        <time>2019-11-30T13:07:58.000Z</time>
      </trkpt>
      <trkpt lat="43.62118" lon="5.33137">
        <ele>267.20001220703</ele>
        <time>2019-11-30T13:07:59.000Z</time>
      </trkpt>
      <trkpt lat="43.62121" lon="5.33139">
        <ele>267.60000610352</ele>
        <time>2019-11-30T13:08:00.000Z</time>
      </trkpt>
      <trkpt lat="43.62124" lon="5.3314">
        <ele>267.79998779297</ele>
        <time>2019-11-30T13:08:01.000Z</time>
      </trkpt>
      <trkpt lat="43.62127" lon="5.33142">
        <ele>268</ele>
        <time>2019-11-30T13:08:02.000Z</time>
      </trkpt>
      <trkpt lat="43.62131" lon="5.33143">
        <ele>268.39999389648</ele>
        <time>2019-11-30T13:08:03.000Z</time>
      </trkpt>
      <trkpt lat="43.62134" lon="5.33145">
        <ele>268.60000610352</ele>
        <time>2019-11-30T13:08:04.000Z</time>
      </trkpt>
      <trkpt lat="43.62137" lon="5.33146">
        <ele>268.79998779297</ele>
        <time>2019-11-30T13:08:05.000Z</time>
      </trkpt>
      <trkpt lat="43.6214" lon="5.33148">
        <ele>269</ele>
        <time>2019-11-30T13:08:06.000Z</time>
      </trkpt>
      <trkpt lat="43.62143" lon="5.33149">
        <ele>269.39999389648</ele>
        <time>2019-11-30T13:08:07.000Z</time>
      </trkpt>
      <trkpt lat="43.62146" lon="5.3315">
        <ele>269.60000610352</ele>
        <time>2019-11-30T13:08:08.000Z</time>
      </trkpt>
      <trkpt lat="43.62149" lon="5.33152">
        <ele>269.79998779297</ele>
        <time>2019-11-30T13:08:09.000Z</time>
      </trkpt>
      <trkpt lat="43.62152" lon="5.33153">
        <ele>270</ele>
        <time>2019-11-30T13:08:10.000Z</time>
      </trkpt>
      <trkpt lat="43.62155" lon="5.33154">
        <ele>270.39999389648</ele>
        <time>2019-11-30T13:08:11.000Z</time>
      </trkpt>
      <trkpt lat="43.62158" lon="5.33156">
        <ele>270.60000610352</ele>
        <time>2019-11-30T13:08:12.000Z</time>
      </trkpt>
      <trkpt lat="43.62161" lon="5.33157">
        <ele>270.79998779297</ele>
        <time>2019-11-30T13:08:13.000Z</time>
      </trkpt>
      <trkpt lat="43.62164" lon="5.33158">
        <ele>271</ele>
        <time>2019-11-30T13:08:14.000Z</time>
      </trkpt>
      <trkpt lat="43.62167" lon="5.33159">
        <ele>271.20001220703</ele>
        <time>2019-11-30T13:08:15.000Z</time>
      </trkpt>
      <trkpt lat="43.6217" lon="5.3316">
        <ele>271.60000610352</ele>
        <time>2019-11-30T13:08:16.000Z</time>
      </trkpt>
      <trkpt lat="43.62173" lon="5.33162">
        <ele>271.79998779297</ele>
        <time>2019-11-30T13:08:17.000Z</time>
      </trkpt>
      <trkpt lat="43.62176" lon="5.33163">
        <ele>272</ele>
        <time>2019-11-30T13:08:18.000Z</time>
      </trkpt>
      <trkpt lat="43.62179" lon="5.33165">
        <ele>272.20001220703</ele>
        <time>2019-11-30T13:08:19.000Z</time>
      </trkpt>
      <trkpt lat="43.62182" lon="5.33167">
        <ele>272.60000610352</ele>
        <time>2019-11-30T13:08:20.000Z</time>
      </trkpt>
      <trkpt lat="43.62185" lon="5.33168">
        <ele>272.79998779297</ele>
        <time>2019-11-30T13:08:21.000Z</time>
      </trkpt>
      <trkpt lat="43.62188" lon="5.33169">
        <ele>273.20001220703</ele>
        <time>2019-11-30T13:08:22.000Z</time>
      </trkpt>
      <trkpt lat="43.62191" lon="5.33171">
        <ele>273.60000610352</ele>
        <time>2019-11-30T13:08:23.000Z</time>
      </trkpt>
      <trkpt lat="43.62194" lon="5.33173">
        <ele>274</ele>
        <time>2019-11-30T13:08:24.000Z</time>
      </trkpt>
      <trkpt lat="43.62197" lon="5.33173">
        <ele>274.20001220703</ele>
        <time>2019-11-30T13:08:25.000Z</time>
      </trkpt>
      <trkpt lat="43.622" lon="5.33174">
        <ele>274.60000610352</ele>
        <time>2019-11-30T13:08:26.000Z</time>
      </trkpt>
      <trkpt lat="43.62203" lon="5.33175">
        <ele>275</ele>
        <time>2019-11-30T13:08:27.000Z</time>
      </trkpt>
      <trkpt lat="43.62206" lon="5.33176">
        <ele>275.39999389648</ele>
        <time>2019-11-30T13:08:28.000Z</time>
      </trkpt>
      <trkpt lat="43.62209" lon="5.33177">
        <ele>275.79998779297</ele>
        <time>2019-11-30T13:08:29.000Z</time>
      </trkpt>
      <trkpt lat="43.62211" lon="5.33177">
        <ele>276</ele>
        <time>2019-11-30T13:08:30.000Z</time>
      </trkpt>
      <trkpt lat="43.62214" lon="5.33179">
        <ele>276.39999389648</ele>
        <time>2019-11-30T13:08:31.000Z</time>
      </trkpt>
      <trkpt lat="43.62217" lon="5.3318">
        <ele>276.79998779297</ele>
        <time>2019-11-30T13:08:32.000Z</time>
      </trkpt>
      <trkpt lat="43.62219" lon="5.33181">
        <ele>277</ele>
        <time>2019-11-30T13:08:33.000Z</time>
      </trkpt>
      <trkpt lat="43.62223" lon="5.33181">
        <ele>277.39999389648</ele>
        <time>2019-11-30T13:08:34.000Z</time>
      </trkpt>
      <trkpt lat="43.62225" lon="5.33182">
        <ele>277.79998779297</ele>
        <time>2019-11-30T13:08:35.000Z</time>
      </trkpt>
      <trkpt lat="43.62227" lon="5.33182">
        <ele>278</ele>
        <time>2019-11-30T13:08:36.000Z</time>
      </trkpt>
      <trkpt lat="43.6223" lon="5.33184">
        <ele>278.39999389648</ele>
        <time>2019-11-30T13:08:37.000Z</time>
      </trkpt>
      <trkpt lat="43.62233" lon="5.33186">
        <ele>278.79998779297</ele>
        <time>2019-11-30T13:08:38.000Z</time>
      </trkpt>
      <trkpt lat="43.62235" lon="5.33187">
        <ele>279</ele>
        <time>2019-11-30T13:08:39.000Z</time>
      </trkpt>
      <trkpt lat="43.62238" lon="5.33187">
        <ele>279.39999389648</ele>
        <time>2019-11-30T13:08:40.000Z</time>
      </trkpt>
      <trkpt lat="43.62241" lon="5.33188">
        <ele>279.79998779297</ele>
        <time>2019-11-30T13:08:41.000Z</time>
      </trkpt>
      <trkpt lat="43.62245" lon="5.33189">
        <ele>280.20001220703</ele>
        <time>2019-11-30T13:08:42.000Z</time>
      </trkpt>
      <trkpt lat="43.62247" lon="5.33191">
        <ele>280.60000610352</ele>
        <time>2019-11-30T13:08:43.000Z</time>
      </trkpt>
      <trkpt lat="43.6225" lon="5.33191">
        <ele>280.79998779297</ele>
        <time>2019-11-30T13:08:44.000Z</time>
      </trkpt>
      <trkpt lat="43.62253" lon="5.33192">
        <ele>281.20001220703</ele>
        <time>2019-11-30T13:08:45.000Z</time>
      </trkpt>
      <trkpt lat="43.62256" lon="5.33192">
        <ele>281.39999389648</ele>
        <time>2019-11-30T13:08:46.000Z</time>
      </trkpt>
      <trkpt lat="43.62258" lon="5.33192">
        <ele>281.79998779297</ele>
        <time>2019-11-30T13:08:47.000Z</time>
      </trkpt>
      <trkpt lat="43.62261" lon="5.33192">
        <ele>282</ele>
        <time>2019-11-30T13:08:48.000Z</time>
      </trkpt>
      <trkpt lat="43.62264" lon="5.33192">
        <ele>282.20001220703</ele>
        <time>2019-11-30T13:08:49.000Z</time>
      </trkpt>
      <trkpt lat="43.62267" lon="5.33194">
        <ele>282.60000610352</ele>
        <time>2019-11-30T13:08:50.000Z</time>
      </trkpt>
      <trkpt lat="43.62269" lon="5.33195">
        <ele>282.79998779297</ele>
        <time>2019-11-30T13:08:51.000Z</time>
      </trkpt>
      <trkpt lat="43.62271" lon="5.33199">
        <ele>283.20001220703</ele>
        <time>2019-11-30T13:08:52.000Z</time>
      </trkpt>
      <trkpt lat="43.62271" lon="5.33207">
        <ele>283.60000610352</ele>
        <time>2019-11-30T13:08:53.000Z</time>
      </trkpt>
      <trkpt lat="43.62271" lon="5.33212">
        <ele>283.79998779297</ele>
        <time>2019-11-30T13:08:54.000Z</time>
      </trkpt>
      <trkpt lat="43.62278" lon="5.33216">
        <ele>284</ele>
        <time>2019-11-30T13:08:55.000Z</time>
      </trkpt>
      <trkpt lat="43.62276" lon="5.33221">
        <ele>284.20001220703</ele>
        <time>2019-11-30T13:08:56.000Z</time>
      </trkpt>
      <trkpt lat="43.62275" lon="5.33225">
        <ele>284.39999389648</ele>
        <time>2019-11-30T13:08:57.000Z</time>
      </trkpt>
      <trkpt lat="43.62274" lon="5.3323">
        <ele>284.39999389648</ele>
        <time>2019-11-30T13:08:58.000Z</time>
      </trkpt>
      <trkpt lat="43.62273" lon="5.33234">
        <ele>284.60000610352</ele>
        <time>2019-11-30T13:08:59.000Z</time>
      </trkpt>
      <trkpt lat="43.62272" lon="5.33239">
        <ele>284.60000610352</ele>
        <time>2019-11-30T13:09:00.000Z</time>
      </trkpt>
      <trkpt lat="43.62271" lon="5.33243">
        <ele>284.79998779297</ele>
        <time>2019-11-30T13:09:01.000Z</time>
      </trkpt>
      <trkpt lat="43.62269" lon="5.33248">
        <ele>284.79998779297</ele>
        <time>2019-11-30T13:09:02.000Z</time>
      </trkpt>
      <trkpt lat="43.62268" lon="5.33253">
        <ele>284.79998779297</ele>
        <time>2019-11-30T13:09:03.000Z</time>
      </trkpt>
      <trkpt lat="43.62267" lon="5.33257">
        <ele>284.79998779297</ele>
        <time>2019-11-30T13:09:04.000Z</time>
      </trkpt>
      <trkpt lat="43.62266" lon="5.3326">
        <ele>284.79998779297</ele>
        <time>2019-11-30T13:09:05.000Z</time>
      </trkpt>
      <trkpt lat="43.62266" lon="5.33262">
        <ele>284.79998779297</ele>
        <time>2019-11-30T13:09:06.000Z</time>
      </trkpt>
      <trkpt lat="43.62265" lon="5.33264">
        <ele>284.79998779297</ele>
        <time>2019-11-30T13:09:07.000Z</time>
      </trkpt>
      <trkpt lat="43.62264" lon="5.33268">
        <ele>284.79998779297</ele>
        <time>2019-11-30T13:09:08.000Z</time>
      </trkpt>
      <trkpt lat="43.62263" lon="5.33275">
        <ele>284.79998779297</ele>
        <time>2019-11-30T13:09:09.000Z</time>
      </trkpt>
      <trkpt lat="43.62261" lon="5.3328">
        <ele>284.79998779297</ele>
        <time>2019-11-30T13:09:10.000Z</time>
      </trkpt>
      <trkpt lat="43.6226" lon="5.33286">
        <ele>284.79998779297</ele>
        <time>2019-11-30T13:09:11.000Z</time>
      </trkpt>
      <trkpt lat="43.62258" lon="5.33291">
        <ele>284.79998779297</ele>
        <time>2019-11-30T13:09:12.000Z</time>
      </trkpt>
      <trkpt lat="43.62257" lon="5.33296">
        <ele>284.79998779297</ele>
        <time>2019-11-30T13:09:13.000Z</time>
      </trkpt>
      <trkpt lat="43.62256" lon="5.33301">
        <ele>284.79998779297</ele>
        <time>2019-11-30T13:09:14.000Z</time>
      </trkpt>
      <trkpt lat="43.62255" lon="5.33305">
        <ele>284.60000610352</ele>
        <time>2019-11-30T13:09:15.000Z</time>
      </trkpt>
      <trkpt lat="43.62253" lon="5.33311">
        <ele>284.39999389648</ele>
        <time>2019-11-30T13:09:16.000Z</time>
      </trkpt>
      <trkpt lat="43.62252" lon="5.33317">
        <ele>284.20001220703</ele>
        <time>2019-11-30T13:09:17.000Z</time>
      </trkpt>
      <trkpt lat="43.6225" lon="5.33324">
        <ele>283.79998779297</ele>
        <time>2019-11-30T13:09:18.000Z</time>
      </trkpt>
      <trkpt lat="43.62248" lon="5.3333">
        <ele>283.60000610352</ele>
        <time>2019-11-30T13:09:19.000Z</time>
      </trkpt>
      <trkpt lat="43.62247" lon="5.33337">
        <ele>283.39999389648</ele>
        <time>2019-11-30T13:09:20.000Z</time>
      </trkpt>
      <trkpt lat="43.62245" lon="5.33344">
        <ele>283.20001220703</ele>
        <time>2019-11-30T13:09:21.000Z</time>
      </trkpt>
      <trkpt lat="43.62243" lon="5.3335">
        <ele>283</ele>
        <time>2019-11-30T13:09:22.000Z</time>
      </trkpt>
      <trkpt lat="43.62242" lon="5.33357">
        <ele>282.79998779297</ele>
        <time>2019-11-30T13:09:23.000Z</time>
      </trkpt>
      <trkpt lat="43.6224" lon="5.33363">
        <ele>282.79998779297</ele>
        <time>2019-11-30T13:09:24.000Z</time>
      </trkpt>
      <trkpt lat="43.62238" lon="5.3337">
        <ele>283</ele>
        <time>2019-11-30T13:09:25.000Z</time>
      </trkpt>
      <trkpt lat="43.62237" lon="5.33376">
        <ele>283</ele>
        <time>2019-11-30T13:09:26.000Z</time>
      </trkpt>
      <trkpt lat="43.62235" lon="5.33383">
        <ele>283</ele>
        <time>2019-11-30T13:09:27.000Z</time>
      </trkpt>
      <trkpt lat="43.62233" lon="5.3339">
        <ele>282.60000610352</ele>
        <time>2019-11-30T13:09:28.000Z</time>
      </trkpt>
      <trkpt lat="43.62231" lon="5.33397">
        <ele>282.39999389648</ele>
        <time>2019-11-30T13:09:29.000Z</time>
      </trkpt>
      <trkpt lat="43.62229" lon="5.33404">
        <ele>282</ele>
        <time>2019-11-30T13:09:30.000Z</time>
      </trkpt>
      <trkpt lat="43.62228" lon="5.33411">
        <ele>281.79998779297</ele>
        <time>2019-11-30T13:09:31.000Z</time>
      </trkpt>
      <trkpt lat="43.62226" lon="5.33418">
        <ele>281.60000610352</ele>
        <time>2019-11-30T13:09:32.000Z</time>
      </trkpt>
      <trkpt lat="43.62224" lon="5.33425">
        <ele>281.60000610352</ele>
        <time>2019-11-30T13:09:33.000Z</time>
      </trkpt>
      <trkpt lat="43.62222" lon="5.33432">
        <ele>281.79998779297</ele>
        <time>2019-11-30T13:09:34.000Z</time>
      </trkpt>
      <trkpt lat="43.6222" lon="5.3344">
        <ele>282.20001220703</ele>
        <time>2019-11-30T13:09:35.000Z</time>
      </trkpt>
      <trkpt lat="43.62218" lon="5.33448">
        <ele>282.39999389648</ele>
        <time>2019-11-30T13:09:36.000Z</time>
      </trkpt>
      <trkpt lat="43.62216" lon="5.33456">
        <ele>282.60000610352</ele>
        <time>2019-11-30T13:09:37.000Z</time>
      </trkpt>
      <trkpt lat="43.62215" lon="5.33465">
        <ele>283</ele>
        <time>2019-11-30T13:09:38.000Z</time>
      </trkpt>
      <trkpt lat="43.62215" lon="5.33472">
        <ele>283.20001220703</ele>
        <time>2019-11-30T13:09:39.000Z</time>
      </trkpt>
      <trkpt lat="43.62216" lon="5.33481">
        <ele>283.20001220703</ele>
        <time>2019-11-30T13:09:40.000Z</time>
      </trkpt>
      <trkpt lat="43.62217" lon="5.33489">
        <ele>283.20001220703</ele>
        <time>2019-11-30T13:09:41.000Z</time>
      </trkpt>
      <trkpt lat="43.62218" lon="5.33498">
        <ele>283.39999389648</ele>
        <time>2019-11-30T13:09:42.000Z</time>
      </trkpt>
      <trkpt lat="43.62219" lon="5.33506">
        <ele>283.39999389648</ele>
        <time>2019-11-30T13:09:43.000Z</time>
      </trkpt>
      <trkpt lat="43.6222" lon="5.33515">
        <ele>283.39999389648</ele>
        <time>2019-11-30T13:09:44.000Z</time>
      </trkpt>
      <trkpt lat="43.62221" lon="5.33524">
        <ele>283.39999389648</ele>
        <time>2019-11-30T13:09:45.000Z</time>
      </trkpt>
      <trkpt lat="43.62222" lon="5.33532">
        <ele>283.39999389648</ele>
        <time>2019-11-30T13:09:46.000Z</time>
      </trkpt>
      <trkpt lat="43.62222" lon="5.3354">
        <ele>283.39999389648</ele>
        <time>2019-11-30T13:09:47.000Z</time>
      </trkpt>
      <trkpt lat="43.62223" lon="5.33548">
        <ele>283.39999389648</ele>
        <time>2019-11-30T13:09:48.000Z</time>
      </trkpt>
      <trkpt lat="43.62224" lon="5.33557">
        <ele>283.60000610352</ele>
        <time>2019-11-30T13:09:49.000Z</time>
      </trkpt>
      <trkpt lat="43.62225" lon="5.33565">
        <ele>283.79998779297</ele>
        <time>2019-11-30T13:09:50.000Z</time>
      </trkpt>
      <trkpt lat="43.62224" lon="5.33573">
        <ele>284</ele>
        <time>2019-11-30T13:09:51.000Z</time>
      </trkpt>
      <trkpt lat="43.62223" lon="5.33581">
        <ele>284.20001220703</ele>
        <time>2019-11-30T13:09:52.000Z</time>
      </trkpt>
      <trkpt lat="43.62222" lon="5.33589">
        <ele>284.39999389648</ele>
        <time>2019-11-30T13:09:53.000Z</time>
      </trkpt>
      <trkpt lat="43.6222" lon="5.33597">
        <ele>284.39999389648</ele>
        <time>2019-11-30T13:09:54.000Z</time>
      </trkpt>
      <trkpt lat="43.62219" lon="5.33605">
        <ele>284.60000610352</ele>
        <time>2019-11-30T13:09:55.000Z</time>
      </trkpt>
      <trkpt lat="43.62218" lon="5.33613">
        <ele>284.60000610352</ele>
        <time>2019-11-30T13:09:56.000Z</time>
      </trkpt>
      <trkpt lat="43.62217" lon="5.3362">
        <ele>284.60000610352</ele>
        <time>2019-11-30T13:09:57.000Z</time>
      </trkpt>
      <trkpt lat="43.62215" lon="5.33628">
        <ele>284.60000610352</ele>
        <time>2019-11-30T13:09:58.000Z</time>
      </trkpt>
      <trkpt lat="43.62214" lon="5.33636">
        <ele>284.79998779297</ele>
        <time>2019-11-30T13:09:59.000Z</time>
      </trkpt>
      <trkpt lat="43.62213" lon="5.33644">
        <ele>285.20001220703</ele>
        <time>2019-11-30T13:10:00.000Z</time>
      </trkpt>
      <trkpt lat="43.62211" lon="5.33652">
        <ele>285.39999389648</ele>
        <time>2019-11-30T13:10:01.000Z</time>
      </trkpt>
      <trkpt lat="43.6221" lon="5.3366">
        <ele>285.60000610352</ele>
        <time>2019-11-30T13:10:02.000Z</time>
      </trkpt>
      <trkpt lat="43.62209" lon="5.33668">
        <ele>286</ele>
        <time>2019-11-30T13:10:03.000Z</time>
      </trkpt>
      <trkpt lat="43.62208" lon="5.33675">
        <ele>286.20001220703</ele>
        <time>2019-11-30T13:10:04.000Z</time>
      </trkpt>
      <trkpt lat="43.62207" lon="5.33682">
        <ele>286.39999389648</ele>
        <time>2019-11-30T13:10:05.000Z</time>
      </trkpt>
      <trkpt lat="43.62205" lon="5.3369">
        <ele>286.60000610352</ele>
        <time>2019-11-30T13:10:06.000Z</time>
      </trkpt>
      <trkpt lat="43.62204" lon="5.33698">
        <ele>286.79998779297</ele>
        <time>2019-11-30T13:10:07.000Z</time>
      </trkpt>
      <trkpt lat="43.62203" lon="5.33706">
        <ele>287.20001220703</ele>
        <time>2019-11-30T13:10:08.000Z</time>
      </trkpt>
      <trkpt lat="43.62201" lon="5.33714">
        <ele>287.39999389648</ele>
        <time>2019-11-30T13:10:09.000Z</time>
      </trkpt>
      <trkpt lat="43.622" lon="5.33722">
        <ele>287.60000610352</ele>
        <time>2019-11-30T13:10:10.000Z</time>
      </trkpt>
      <trkpt lat="43.622" lon="5.33731">
        <ele>287.79998779297</ele>
        <time>2019-11-30T13:10:11.000Z</time>
      </trkpt>
      <trkpt lat="43.62199" lon="5.3374">
        <ele>288</ele>
        <time>2019-11-30T13:10:12.000Z</time>
      </trkpt>
      <trkpt lat="43.62199" lon="5.33748">
        <ele>288</ele>
        <time>2019-11-30T13:10:13.000Z</time>
      </trkpt>
      <trkpt lat="43.62198" lon="5.33757">
        <ele>288.20001220703</ele>
        <time>2019-11-30T13:10:14.000Z</time>
      </trkpt>
      <trkpt lat="43.62198" lon="5.33765">
        <ele>288.20001220703</ele>
        <time>2019-11-30T13:10:15.000Z</time>
      </trkpt>
      <trkpt lat="43.62199" lon="5.33773">
        <ele>288.39999389648</ele>
        <time>2019-11-30T13:10:16.000Z</time>
      </trkpt>
      <trkpt lat="43.622" lon="5.33781">
        <ele>288.60000610352</ele>
        <time>2019-11-30T13:10:17.000Z</time>
      </trkpt>
      <trkpt lat="43.62201" lon="5.33789">
        <ele>288.60000610352</ele>
        <time>2019-11-30T13:10:18.000Z</time>
      </trkpt>
      <trkpt lat="43.62203" lon="5.33797">
        <ele>288.79998779297</ele>
        <time>2019-11-30T13:10:19.000Z</time>
      </trkpt>
      <trkpt lat="43.62204" lon="5.33805">
        <ele>289.39999389648</ele>
        <time>2019-11-30T13:10:20.000Z</time>
      </trkpt>
      <trkpt lat="43.62205" lon="5.33811">
        <ele>289.79998779297</ele>
        <time>2019-11-30T13:10:21.000Z</time>
      </trkpt>
      <trkpt lat="43.62206" lon="5.33818">
        <ele>290.20001220703</ele>
        <time>2019-11-30T13:10:22.000Z</time>
      </trkpt>
      <trkpt lat="43.62208" lon="5.33826">
        <ele>290.60000610352</ele>
        <time>2019-11-30T13:10:23.000Z</time>
      </trkpt>
      <trkpt lat="43.62209" lon="5.33834">
        <ele>290.79998779297</ele>
        <time>2019-11-30T13:10:24.000Z</time>
      </trkpt>
      <trkpt lat="43.6221" lon="5.33842">
        <ele>291.20001220703</ele>
        <time>2019-11-30T13:10:25.000Z</time>
      </trkpt>
      <trkpt lat="43.62211" lon="5.3385">
        <ele>291.39999389648</ele>
        <time>2019-11-30T13:10:26.000Z</time>
      </trkpt>
      <trkpt lat="43.62211" lon="5.33858">
        <ele>291.60000610352</ele>
        <time>2019-11-30T13:10:27.000Z</time>
      </trkpt>
      <trkpt lat="43.62208" lon="5.33865">
        <ele>291.60000610352</ele>
        <time>2019-11-30T13:10:28.000Z</time>
      </trkpt>
      <trkpt lat="43.62206" lon="5.33871">
        <ele>291.39999389648</ele>
        <time>2019-11-30T13:10:29.000Z</time>
      </trkpt>
      <trkpt lat="43.62203" lon="5.33876">
        <ele>291.39999389648</ele>
        <time>2019-11-30T13:10:30.000Z</time>
      </trkpt>
      <trkpt lat="43.62201" lon="5.33881">
        <ele>291.39999389648</ele>
        <time>2019-11-30T13:10:31.000Z</time>
      </trkpt>
      <trkpt lat="43.62199" lon="5.33887">
        <ele>291.39999389648</ele>
        <time>2019-11-30T13:10:32.000Z</time>
      </trkpt>
      <trkpt lat="43.62196" lon="5.33892">
        <ele>291.39999389648</ele>
        <time>2019-11-30T13:10:33.000Z</time>
      </trkpt>
      <trkpt lat="43.62194" lon="5.33898">
        <ele>291.39999389648</ele>
        <time>2019-11-30T13:10:34.000Z</time>
      </trkpt>
      <trkpt lat="43.62192" lon="5.33902">
        <ele>291.39999389648</ele>
        <time>2019-11-30T13:10:35.000Z</time>
      </trkpt>
      <trkpt lat="43.6219" lon="5.33907">
        <ele>291.39999389648</ele>
        <time>2019-11-30T13:10:36.000Z</time>
      </trkpt>
      <trkpt lat="43.62188" lon="5.33912">
        <ele>291.39999389648</ele>
        <time>2019-11-30T13:10:37.000Z</time>
      </trkpt>
      <trkpt lat="43.62186" lon="5.33917">
        <ele>291.39999389648</ele>
        <time>2019-11-30T13:10:38.000Z</time>
      </trkpt>
      <trkpt lat="43.62184" lon="5.33921">
        <ele>291.39999389648</ele>
        <time>2019-11-30T13:10:39.000Z</time>
      </trkpt>
      <trkpt lat="43.62182" lon="5.33925">
        <ele>291.39999389648</ele>
        <time>2019-11-30T13:10:40.000Z</time>
      </trkpt>
      <trkpt lat="43.6218" lon="5.3393">
        <ele>291.60000610352</ele>
        <time>2019-11-30T13:10:41.000Z</time>
      </trkpt>
      <trkpt lat="43.62178" lon="5.33934">
        <ele>291.60000610352</ele>
        <time>2019-11-30T13:10:42.000Z</time>
      </trkpt>
      <trkpt lat="43.62176" lon="5.33939">
        <ele>291.79998779297</ele>
        <time>2019-11-30T13:10:43.000Z</time>
      </trkpt>
      <trkpt lat="43.62175" lon="5.33942">
        <ele>291.79998779297</ele>
        <time>2019-11-30T13:10:44.000Z</time>
      </trkpt>
      <trkpt lat="43.62173" lon="5.33947">
        <ele>292</ele>
        <time>2019-11-30T13:10:45.000Z</time>
      </trkpt>
      <trkpt lat="43.62171" lon="5.33952">
        <ele>292.20001220703</ele>
        <time>2019-11-30T13:10:46.000Z</time>
      </trkpt>
      <trkpt lat="43.62171" lon="5.33956">
        <ele>292.20001220703</ele>
        <time>2019-11-30T13:10:47.000Z</time>
      </trkpt>
      <trkpt lat="43.6217" lon="5.33962">
        <ele>292.60000610352</ele>
        <time>2019-11-30T13:10:48.000Z</time>
      </trkpt>
      <trkpt lat="43.6217" lon="5.33968">
        <ele>292.79998779297</ele>
        <time>2019-11-30T13:10:49.000Z</time>
      </trkpt>
      <trkpt lat="43.62169" lon="5.33974">
        <ele>293.20001220703</ele>
        <time>2019-11-30T13:10:50.000Z</time>
      </trkpt>
      <trkpt lat="43.62168" lon="5.33981">
        <ele>293.60000610352</ele>
        <time>2019-11-30T13:10:51.000Z</time>
      </trkpt>
      <trkpt lat="43.62168" lon="5.33987">
        <ele>294</ele>
        <time>2019-11-30T13:10:52.000Z</time>
      </trkpt>
      <trkpt lat="43.62167" lon="5.33993">
        <ele>294.20001220703</ele>
        <time>2019-11-30T13:10:53.000Z</time>
      </trkpt>
      <trkpt lat="43.62166" lon="5.34">
        <ele>294.79998779297</ele>
        <time>2019-11-30T13:10:54.000Z</time>
      </trkpt>
      <trkpt lat="43.62165" lon="5.34007">
        <ele>295</ele>
        <time>2019-11-30T13:10:55.000Z</time>
      </trkpt>
      <trkpt lat="43.62161" lon="5.34017">
        <ele>295.60000610352</ele>
        <time>2019-11-30T13:10:56.000Z</time>
      </trkpt>
      <trkpt lat="43.62158" lon="5.34022">
        <ele>295.79998779297</ele>
        <time>2019-11-30T13:10:57.000Z</time>
      </trkpt>
      <trkpt lat="43.62156" lon="5.34026">
        <ele>295.79998779297</ele>
        <time>2019-11-30T13:10:58.000Z</time>
      </trkpt>
      <trkpt lat="43.62154" lon="5.34031">
        <ele>295.79998779297</ele>
        <time>2019-11-30T13:10:59.000Z</time>
      </trkpt>
      <trkpt lat="43.62151" lon="5.34036">
        <ele>296</ele>
        <time>2019-11-30T13:11:00.000Z</time>
      </trkpt>
      <trkpt lat="43.62147" lon="5.34042">
        <ele>296</ele>
        <time>2019-11-30T13:11:01.000Z</time>
      </trkpt>
      <trkpt lat="43.62144" lon="5.34048">
        <ele>296</ele>
        <time>2019-11-30T13:11:02.000Z</time>
      </trkpt>
      <trkpt lat="43.62141" lon="5.34053">
        <ele>296.20001220703</ele>
        <time>2019-11-30T13:11:03.000Z</time>
      </trkpt>
      <trkpt lat="43.62138" lon="5.34059">
        <ele>296.20001220703</ele>
        <time>2019-11-30T13:11:04.000Z</time>
      </trkpt>
      <trkpt lat="43.62135" lon="5.34064">
        <ele>296.39999389648</ele>
        <time>2019-11-30T13:11:05.000Z</time>
      </trkpt>
      <trkpt lat="43.62133" lon="5.3407">
        <ele>296.60000610352</ele>
        <time>2019-11-30T13:11:06.000Z</time>
      </trkpt>
      <trkpt lat="43.62129" lon="5.34076">
        <ele>296.60000610352</ele>
        <time>2019-11-30T13:11:07.000Z</time>
      </trkpt>
      <trkpt lat="43.62126" lon="5.34081">
        <ele>296.79998779297</ele>
        <time>2019-11-30T13:11:08.000Z</time>
      </trkpt>
      <trkpt lat="43.62123" lon="5.34086">
        <ele>296.79998779297</ele>
        <time>2019-11-30T13:11:09.000Z</time>
      </trkpt>
      <trkpt lat="43.62121" lon="5.34092">
        <ele>297</ele>
        <time>2019-11-30T13:11:10.000Z</time>
      </trkpt>
      <trkpt lat="43.62118" lon="5.34097">
        <ele>297.20001220703</ele>
        <time>2019-11-30T13:11:11.000Z</time>
      </trkpt>
      <trkpt lat="43.62115" lon="5.34101">
        <ele>297.20001220703</ele>
        <time>2019-11-30T13:11:12.000Z</time>
      </trkpt>
      <trkpt lat="43.62113" lon="5.34106">
        <ele>297.39999389648</ele>
        <time>2019-11-30T13:11:13.000Z</time>
      </trkpt>
      <trkpt lat="43.6211" lon="5.34111">
        <ele>297.39999389648</ele>
        <time>2019-11-30T13:11:14.000Z</time>
      </trkpt>
      <trkpt lat="43.62107" lon="5.34116">
        <ele>297.60000610352</ele>
        <time>2019-11-30T13:11:15.000Z</time>
      </trkpt>
      <trkpt lat="43.62105" lon="5.34121">
        <ele>297.60000610352</ele>
        <time>2019-11-30T13:11:16.000Z</time>
      </trkpt>
      <trkpt lat="43.62102" lon="5.34126">
        <ele>297.79998779297</ele>
        <time>2019-11-30T13:11:17.000Z</time>
      </trkpt>
      <trkpt lat="43.62099" lon="5.34131">
        <ele>297.79998779297</ele>
        <time>2019-11-30T13:11:18.000Z</time>
      </trkpt>
      <trkpt lat="43.62096" lon="5.34136">
        <ele>297.79998779297</ele>
        <time>2019-11-30T13:11:19.000Z</time>
      </trkpt>
      <trkpt lat="43.62094" lon="5.34141">
        <ele>297.79998779297</ele>
        <time>2019-11-30T13:11:20.000Z</time>
      </trkpt>
      <trkpt lat="43.62091" lon="5.34146">
        <ele>297.79998779297</ele>
        <time>2019-11-30T13:11:21.000Z</time>
      </trkpt>
      <trkpt lat="43.62089" lon="5.3415">
        <ele>297.79998779297</ele>
        <time>2019-11-30T13:11:22.000Z</time>
      </trkpt>
      <trkpt lat="43.62087" lon="5.34153">
        <ele>297.79998779297</ele>
        <time>2019-11-30T13:11:23.000Z</time>
      </trkpt>
      <trkpt lat="43.62085" lon="5.34157">
        <ele>297.79998779297</ele>
        <time>2019-11-30T13:11:24.000Z</time>
      </trkpt>
      <trkpt lat="43.62083" lon="5.3416">
        <ele>297.60000610352</ele>
        <time>2019-11-30T13:11:25.000Z</time>
      </trkpt>
      <trkpt lat="43.62081" lon="5.34168">
        <ele>297.79998779297</ele>
        <time>2019-11-30T13:11:26.000Z</time>
      </trkpt>
      <trkpt lat="43.6208" lon="5.34172">
        <ele>297.79998779297</ele>
        <time>2019-11-30T13:11:27.000Z</time>
      </trkpt>
      <trkpt lat="43.62079" lon="5.34176">
        <ele>298</ele>
        <time>2019-11-30T13:11:28.000Z</time>
      </trkpt>
      <trkpt lat="43.62078" lon="5.34179">
        <ele>298</ele>
        <time>2019-11-30T13:11:29.000Z</time>
      </trkpt>
      <trkpt lat="43.62092" lon="5.34192">
        <ele>299.60000610352</ele>
        <time>2019-11-30T13:11:30.000Z</time>
      </trkpt>
      <trkpt lat="43.62095" lon="5.34196">
        <ele>299.79998779297</ele>
        <time>2019-11-30T13:11:31.000Z</time>
      </trkpt>
      <trkpt lat="43.62097" lon="5.342">
        <ele>300.20001220703</ele>
        <time>2019-11-30T13:11:32.000Z</time>
      </trkpt>
      <trkpt lat="43.62101" lon="5.34203">
        <ele>300.60000610352</ele>
        <time>2019-11-30T13:11:33.000Z</time>
      </trkpt>
      <trkpt lat="43.62103" lon="5.34206">
        <ele>300.79998779297</ele>
        <time>2019-11-30T13:11:34.000Z</time>
      </trkpt>
      <trkpt lat="43.62106" lon="5.34211">
        <ele>301.20001220703</ele>
        <time>2019-11-30T13:11:35.000Z</time>
      </trkpt>
      <trkpt lat="43.62107" lon="5.34213">
        <ele>301.39999389648</ele>
        <time>2019-11-30T13:11:36.000Z</time>
      </trkpt>
      <trkpt lat="43.62106" lon="5.34218">
        <ele>301.79998779297</ele>
        <time>2019-11-30T13:11:37.000Z</time>
      </trkpt>
      <trkpt lat="43.62106" lon="5.34222">
        <ele>302</ele>
        <time>2019-11-30T13:11:38.000Z</time>
      </trkpt>
      <trkpt lat="43.62105" lon="5.34228">
        <ele>302.39999389648</ele>
        <time>2019-11-30T13:11:39.000Z</time>
      </trkpt>
      <trkpt lat="43.62105" lon="5.34234">
        <ele>302.60000610352</ele>
        <time>2019-11-30T13:11:40.000Z</time>
      </trkpt>
      <trkpt lat="43.62104" lon="5.3424">
        <ele>302.79998779297</ele>
        <time>2019-11-30T13:11:41.000Z</time>
      </trkpt>
      <trkpt lat="43.62102" lon="5.34247">
        <ele>303</ele>
        <time>2019-11-30T13:11:42.000Z</time>
      </trkpt>
      <trkpt lat="43.62101" lon="5.34252">
        <ele>303.20001220703</ele>
        <time>2019-11-30T13:11:43.000Z</time>
      </trkpt>
      <trkpt lat="43.62101" lon="5.34255">
        <ele>303.39999389648</ele>
        <time>2019-11-30T13:11:44.000Z</time>
      </trkpt>
      <trkpt lat="43.62098" lon="5.34261">
        <ele>303.60000610352</ele>
        <time>2019-11-30T13:11:45.000Z</time>
      </trkpt>
      <trkpt lat="43.62097" lon="5.34267">
        <ele>303.79998779297</ele>
        <time>2019-11-30T13:11:46.000Z</time>
      </trkpt>
      <trkpt lat="43.62097" lon="5.34271">
        <ele>304</ele>
        <time>2019-11-30T13:11:47.000Z</time>
      </trkpt>
      <trkpt lat="43.62095" lon="5.34276">
        <ele>304.20001220703</ele>
        <time>2019-11-30T13:11:48.000Z</time>
      </trkpt>
      <trkpt lat="43.62093" lon="5.34282">
        <ele>304.39999389648</ele>
        <time>2019-11-30T13:11:49.000Z</time>
      </trkpt>
      <trkpt lat="43.62094" lon="5.34287">
        <ele>304.79998779297</ele>
        <time>2019-11-30T13:11:50.000Z</time>
      </trkpt>
      <trkpt lat="43.62093" lon="5.34291">
        <ele>304.79998779297</ele>
        <time>2019-11-30T13:11:51.000Z</time>
      </trkpt>
      <trkpt lat="43.62093" lon="5.34297">
        <ele>305</ele>
        <time>2019-11-30T13:11:52.000Z</time>
      </trkpt>
      <trkpt lat="43.62094" lon="5.34302">
        <ele>305.20001220703</ele>
        <time>2019-11-30T13:11:53.000Z</time>
      </trkpt>
      <trkpt lat="43.62094" lon="5.34307">
        <ele>305.60000610352</ele>
        <time>2019-11-30T13:11:54.000Z</time>
      </trkpt>
      <trkpt lat="43.62094" lon="5.34313">
        <ele>306</ele>
        <time>2019-11-30T13:11:55.000Z</time>
      </trkpt>
      <trkpt lat="43.62095" lon="5.34318">
        <ele>306.39999389648</ele>
        <time>2019-11-30T13:11:56.000Z</time>
      </trkpt>
      <trkpt lat="43.62095" lon="5.34324">
        <ele>306.79998779297</ele>
        <time>2019-11-30T13:11:57.000Z</time>
      </trkpt>
      <trkpt lat="43.62094" lon="5.3433">
        <ele>307</ele>
        <time>2019-11-30T13:11:58.000Z</time>
      </trkpt>
      <trkpt lat="43.62094" lon="5.34335">
        <ele>307.20001220703</ele>
        <time>2019-11-30T13:11:59.000Z</time>
      </trkpt>
      <trkpt lat="43.62093" lon="5.34341">
        <ele>307.60000610352</ele>
        <time>2019-11-30T13:12:00.000Z</time>
      </trkpt>
      <trkpt lat="43.62092" lon="5.34347">
        <ele>307.79998779297</ele>
        <time>2019-11-30T13:12:01.000Z</time>
      </trkpt>
      <trkpt lat="43.62091" lon="5.34352">
        <ele>308</ele>
        <time>2019-11-30T13:12:02.000Z</time>
      </trkpt>
      <trkpt lat="43.62092" lon="5.34358">
        <ele>308.39999389648</ele>
        <time>2019-11-30T13:12:03.000Z</time>
      </trkpt>
      <trkpt lat="43.62092" lon="5.34363">
        <ele>308.79998779297</ele>
        <time>2019-11-30T13:12:04.000Z</time>
      </trkpt>
      <trkpt lat="43.62092" lon="5.34368">
        <ele>309</ele>
        <time>2019-11-30T13:12:05.000Z</time>
      </trkpt>
      <trkpt lat="43.62091" lon="5.34375">
        <ele>309.20001220703</ele>
        <time>2019-11-30T13:12:06.000Z</time>
      </trkpt>
      <trkpt lat="43.62091" lon="5.3438">
        <ele>309.20001220703</ele>
        <time>2019-11-30T13:12:07.000Z</time>
      </trkpt>
      <trkpt lat="43.62091" lon="5.34386">
        <ele>309.60000610352</ele>
        <time>2019-11-30T13:12:08.000Z</time>
      </trkpt>
      <trkpt lat="43.6209" lon="5.34393">
        <ele>309.60000610352</ele>
        <time>2019-11-30T13:12:09.000Z</time>
      </trkpt>
      <trkpt lat="43.6209" lon="5.34399">
        <ele>310</ele>
        <time>2019-11-30T13:12:10.000Z</time>
      </trkpt>
      <trkpt lat="43.62089" lon="5.34406">
        <ele>310</ele>
        <time>2019-11-30T13:12:11.000Z</time>
      </trkpt>
      <trkpt lat="43.62088" lon="5.34412">
        <ele>310.20001220703</ele>
        <time>2019-11-30T13:12:12.000Z</time>
      </trkpt>
      <trkpt lat="43.62087" lon="5.34418">
        <ele>310.39999389648</ele>
        <time>2019-11-30T13:12:13.000Z</time>
      </trkpt>
      <trkpt lat="43.62085" lon="5.34425">
        <ele>310.39999389648</ele>
        <time>2019-11-30T13:12:14.000Z</time>
      </trkpt>
      <trkpt lat="43.62084" lon="5.3443">
        <ele>310.60000610352</ele>
        <time>2019-11-30T13:12:15.000Z</time>
      </trkpt>
      <trkpt lat="43.62084" lon="5.34435">
        <ele>310.79998779297</ele>
        <time>2019-11-30T13:12:16.000Z</time>
      </trkpt>
      <trkpt lat="43.62083" lon="5.34442">
        <ele>311</ele>
        <time>2019-11-30T13:12:17.000Z</time>
      </trkpt>
      <trkpt lat="43.62081" lon="5.34449">
        <ele>311</ele>
        <time>2019-11-30T13:12:18.000Z</time>
      </trkpt>
      <trkpt lat="43.6208" lon="5.34456">
        <ele>311.20001220703</ele>
        <time>2019-11-30T13:12:19.000Z</time>
      </trkpt>
      <trkpt lat="43.6208" lon="5.34461">
        <ele>311.39999389648</ele>
        <time>2019-11-30T13:12:20.000Z</time>
      </trkpt>
      <trkpt lat="43.62079" lon="5.34467">
        <ele>311.60000610352</ele>
        <time>2019-11-30T13:12:21.000Z</time>
      </trkpt>
      <trkpt lat="43.62079" lon="5.34473">
        <ele>311.60000610352</ele>
        <time>2019-11-30T13:12:22.000Z</time>
      </trkpt>
      <trkpt lat="43.62079" lon="5.34479">
        <ele>311.79998779297</ele>
        <time>2019-11-30T13:12:23.000Z</time>
      </trkpt>
      <trkpt lat="43.62078" lon="5.34485">
        <ele>312</ele>
        <time>2019-11-30T13:12:24.000Z</time>
      </trkpt>
      <trkpt lat="43.62078" lon="5.34491">
        <ele>312.20001220703</ele>
        <time>2019-11-30T13:12:25.000Z</time>
      </trkpt>
      <trkpt lat="43.62077" lon="5.34496">
        <ele>312.39999389648</ele>
        <time>2019-11-30T13:12:26.000Z</time>
      </trkpt>
      <trkpt lat="43.62078" lon="5.34502">
        <ele>312.60000610352</ele>
        <time>2019-11-30T13:12:27.000Z</time>
      </trkpt>
      <trkpt lat="43.62076" lon="5.34509">
        <ele>312.60000610352</ele>
        <time>2019-11-30T13:12:28.000Z</time>
      </trkpt>
      <trkpt lat="43.62074" lon="5.34514">
        <ele>312.39999389648</ele>
        <time>2019-11-30T13:12:29.000Z</time>
      </trkpt>
      <trkpt lat="43.62072" lon="5.34519">
        <ele>312.20001220703</ele>
        <time>2019-11-30T13:12:30.000Z</time>
      </trkpt>
      <trkpt lat="43.62071" lon="5.34524">
        <ele>312.39999389648</ele>
        <time>2019-11-30T13:12:31.000Z</time>
      </trkpt>
      <trkpt lat="43.62069" lon="5.34529">
        <ele>312.39999389648</ele>
        <time>2019-11-30T13:12:32.000Z</time>
      </trkpt>
      <trkpt lat="43.62068" lon="5.34535">
        <ele>312.39999389648</ele>
        <time>2019-11-30T13:12:33.000Z</time>
      </trkpt>
      <trkpt lat="43.62067" lon="5.3454">
        <ele>312.60000610352</ele>
        <time>2019-11-30T13:12:34.000Z</time>
      </trkpt>
      <trkpt lat="43.62067" lon="5.34544">
        <ele>312.79998779297</ele>
        <time>2019-11-30T13:12:35.000Z</time>
      </trkpt>
      <trkpt lat="43.62066" lon="5.34549">
        <ele>312.79998779297</ele>
        <time>2019-11-30T13:12:36.000Z</time>
      </trkpt>
      <trkpt lat="43.62065" lon="5.34554">
        <ele>312.79998779297</ele>
        <time>2019-11-30T13:12:37.000Z</time>
      </trkpt>
      <trkpt lat="43.62066" lon="5.3456">
        <ele>313</ele>
        <time>2019-11-30T13:12:38.000Z</time>
      </trkpt>
      <trkpt lat="43.62065" lon="5.34565">
        <ele>313</ele>
        <time>2019-11-30T13:12:39.000Z</time>
      </trkpt>
      <trkpt lat="43.62064" lon="5.34571">
        <ele>313.20001220703</ele>
        <time>2019-11-30T13:12:40.000Z</time>
      </trkpt>
      <trkpt lat="43.62063" lon="5.34578">
        <ele>313</ele>
        <time>2019-11-30T13:12:41.000Z</time>
      </trkpt>
      <trkpt lat="43.62061" lon="5.34584">
        <ele>313</ele>
        <time>2019-11-30T13:12:42.000Z</time>
      </trkpt>
      <trkpt lat="43.62059" lon="5.34589">
        <ele>312.79998779297</ele>
        <time>2019-11-30T13:12:43.000Z</time>
      </trkpt>
      <trkpt lat="43.62058" lon="5.34594">
        <ele>312.79998779297</ele>
        <time>2019-11-30T13:12:44.000Z</time>
      </trkpt>
      <trkpt lat="43.62056" lon="5.346">
        <ele>312.79998779297</ele>
        <time>2019-11-30T13:12:45.000Z</time>
      </trkpt>
      <trkpt lat="43.62055" lon="5.34606">
        <ele>313</ele>
        <time>2019-11-30T13:12:46.000Z</time>
      </trkpt>
      <trkpt lat="43.62054" lon="5.3461">
        <ele>313</ele>
        <time>2019-11-30T13:12:47.000Z</time>
      </trkpt>
      <trkpt lat="43.62054" lon="5.34615">
        <ele>313</ele>
        <time>2019-11-30T13:12:48.000Z</time>
      </trkpt>
      <trkpt lat="43.62053" lon="5.34619">
        <ele>313</ele>
        <time>2019-11-30T13:12:49.000Z</time>
      </trkpt>
      <trkpt lat="43.62052" lon="5.34623">
        <ele>313.20001220703</ele>
        <time>2019-11-30T13:12:50.000Z</time>
      </trkpt>
      <trkpt lat="43.62051" lon="5.34628">
        <ele>313.20001220703</ele>
        <time>2019-11-30T13:12:51.000Z</time>
      </trkpt>
      <trkpt lat="43.6205" lon="5.34632">
        <ele>313</ele>
        <time>2019-11-30T13:12:52.000Z</time>
      </trkpt>
      <trkpt lat="43.62048" lon="5.34638">
        <ele>312.79998779297</ele>
        <time>2019-11-30T13:12:53.000Z</time>
      </trkpt>
      <trkpt lat="43.62048" lon="5.34642">
        <ele>312.60000610352</ele>
        <time>2019-11-30T13:12:54.000Z</time>
      </trkpt>
      <trkpt lat="43.62047" lon="5.34645">
        <ele>312.39999389648</ele>
        <time>2019-11-30T13:12:55.000Z</time>
      </trkpt>
      <trkpt lat="43.62045" lon="5.34649">
        <ele>312</ele>
        <time>2019-11-30T13:12:56.000Z</time>
      </trkpt>
      <trkpt lat="43.62043" lon="5.34653">
        <ele>311.60000610352</ele>
        <time>2019-11-30T13:12:57.000Z</time>
      </trkpt>
      <trkpt lat="43.62042" lon="5.34657">
        <ele>311.60000610352</ele>
        <time>2019-11-30T13:12:58.000Z</time>
      </trkpt>
      <trkpt lat="43.62042" lon="5.34663">
        <ele>311.79998779297</ele>
        <time>2019-11-30T13:12:59.000Z</time>
      </trkpt>
      <trkpt lat="43.62042" lon="5.3467">
        <ele>312</ele>
        <time>2019-11-30T13:13:00.000Z</time>
      </trkpt>
      <trkpt lat="43.62041" lon="5.34677">
        <ele>312.20001220703</ele>
        <time>2019-11-30T13:13:01.000Z</time>
      </trkpt>
      <trkpt lat="43.62039" lon="5.34683">
        <ele>312.39999389648</ele>
        <time>2019-11-30T13:13:02.000Z</time>
      </trkpt>
      <trkpt lat="43.62037" lon="5.34691">
        <ele>312.39999389648</ele>
        <time>2019-11-30T13:13:03.000Z</time>
      </trkpt>
      <trkpt lat="43.62036" lon="5.34688">
        <ele>312.39999389648</ele>
        <time>2019-11-30T13:13:25.000Z</time>
      </trkpt>
      <trkpt lat="43.6204" lon="5.34687">
        <ele>312.60000610352</ele>
        <time>2019-11-30T13:13:26.000Z</time>
      </trkpt>
      <trkpt lat="43.62041" lon="5.3469">
        <ele>312.79998779297</ele>
        <time>2019-11-30T13:13:27.000Z</time>
      </trkpt>
      <trkpt lat="43.6204" lon="5.34691">
        <ele>312.79998779297</ele>
        <time>2019-11-30T13:13:28.000Z</time>
      </trkpt>
      <trkpt lat="43.62041" lon="5.34695">
        <ele>313</ele>
        <time>2019-11-30T13:13:29.000Z</time>
      </trkpt>
      <trkpt lat="43.62042" lon="5.34698">
        <ele>313.20001220703</ele>
        <time>2019-11-30T13:13:30.000Z</time>
      </trkpt>
      <trkpt lat="43.62044" lon="5.34702">
        <ele>313.39999389648</ele>
        <time>2019-11-30T13:13:31.000Z</time>
      </trkpt>
      <trkpt lat="43.62046" lon="5.34705">
        <ele>313.60000610352</ele>
        <time>2019-11-30T13:13:32.000Z</time>
      </trkpt>
      <trkpt lat="43.62049" lon="5.34707">
        <ele>314</ele>
        <time>2019-11-30T13:13:33.000Z</time>
      </trkpt>
      <trkpt lat="43.62052" lon="5.34706">
        <ele>314.20001220703</ele>
        <time>2019-11-30T13:13:34.000Z</time>
      </trkpt>
      <trkpt lat="43.62055" lon="5.34706">
        <ele>314.20001220703</ele>
        <time>2019-11-30T13:13:35.000Z</time>
      </trkpt>
      <trkpt lat="43.62057" lon="5.34705">
        <ele>314.39999389648</ele>
        <time>2019-11-30T13:13:36.000Z</time>
      </trkpt>
      <trkpt lat="43.6206" lon="5.34705">
        <ele>314.60000610352</ele>
        <time>2019-11-30T13:13:37.000Z</time>
      </trkpt>
      <trkpt lat="43.62064" lon="5.34706">
        <ele>315</ele>
        <time>2019-11-30T13:13:38.000Z</time>
      </trkpt>
      <trkpt lat="43.62068" lon="5.34706">
        <ele>315.20001220703</ele>
        <time>2019-11-30T13:13:39.000Z</time>
      </trkpt>
      <trkpt lat="43.62071" lon="5.34707">
        <ele>315.60000610352</ele>
        <time>2019-11-30T13:13:40.000Z</time>
      </trkpt>
      <trkpt lat="43.62074" lon="5.34709">
        <ele>315.79998779297</ele>
        <time>2019-11-30T13:13:41.000Z</time>
      </trkpt>
      <trkpt lat="43.62077" lon="5.34711">
        <ele>316.20001220703</ele>
        <time>2019-11-30T13:13:42.000Z</time>
      </trkpt>
      <trkpt lat="43.6208" lon="5.34714">
        <ele>316.39999389648</ele>
        <time>2019-11-30T13:13:43.000Z</time>
      </trkpt>
      <trkpt lat="43.62083" lon="5.34715">
        <ele>316.79998779297</ele>
        <time>2019-11-30T13:13:44.000Z</time>
      </trkpt>
      <trkpt lat="43.62087" lon="5.34717">
        <ele>317</ele>
        <time>2019-11-30T13:13:45.000Z</time>
      </trkpt>
      <trkpt lat="43.6209" lon="5.34718">
        <ele>317.20001220703</ele>
        <time>2019-11-30T13:13:46.000Z</time>
      </trkpt>
      <trkpt lat="43.62093" lon="5.34718">
        <ele>317.60000610352</ele>
        <time>2019-11-30T13:13:47.000Z</time>
      </trkpt>
      <trkpt lat="43.62097" lon="5.3472">
        <ele>317.79998779297</ele>
        <time>2019-11-30T13:13:48.000Z</time>
      </trkpt>
      <trkpt lat="43.62101" lon="5.3472">
        <ele>318.20001220703</ele>
        <time>2019-11-30T13:13:49.000Z</time>
      </trkpt>
      <trkpt lat="43.62104" lon="5.3472">
        <ele>318.39999389648</ele>
        <time>2019-11-30T13:13:50.000Z</time>
      </trkpt>
      <trkpt lat="43.62109" lon="5.3472">
        <ele>318.79998779297</ele>
        <time>2019-11-30T13:13:51.000Z</time>
      </trkpt>
      <trkpt lat="43.62112" lon="5.3472">
        <ele>319.20001220703</ele>
        <time>2019-11-30T13:13:52.000Z</time>
      </trkpt>
      <trkpt lat="43.62116" lon="5.3472">
        <ele>319.60000610352</ele>
        <time>2019-11-30T13:13:53.000Z</time>
      </trkpt>
      <trkpt lat="43.6212" lon="5.34719">
        <ele>320</ele>
        <time>2019-11-30T13:13:54.000Z</time>
      </trkpt>
      <trkpt lat="43.62124" lon="5.34718">
        <ele>320.39999389648</ele>
        <time>2019-11-30T13:13:55.000Z</time>
      </trkpt>
      <trkpt lat="43.62127" lon="5.34717">
        <ele>320.79998779297</ele>
        <time>2019-11-30T13:13:56.000Z</time>
      </trkpt>
      <trkpt lat="43.62131" lon="5.34715">
        <ele>321.20001220703</ele>
        <time>2019-11-30T13:13:57.000Z</time>
      </trkpt>
      <trkpt lat="43.62135" lon="5.34714">
        <ele>321.60000610352</ele>
        <time>2019-11-30T13:13:58.000Z</time>
      </trkpt>
      <trkpt lat="43.62137" lon="5.34711">
        <ele>321.79998779297</ele>
        <time>2019-11-30T13:13:59.000Z</time>
      </trkpt>
      <trkpt lat="43.6214" lon="5.34709">
        <ele>322.20001220703</ele>
        <time>2019-11-30T13:14:00.000Z</time>
      </trkpt>
      <trkpt lat="43.62143" lon="5.34707">
        <ele>322.60000610352</ele>
        <time>2019-11-30T13:14:01.000Z</time>
      </trkpt>
      <trkpt lat="43.62146" lon="5.34706">
        <ele>322.79998779297</ele>
        <time>2019-11-30T13:14:02.000Z</time>
      </trkpt>
      <trkpt lat="43.62148" lon="5.34705">
        <ele>323.20001220703</ele>
        <time>2019-11-30T13:14:03.000Z</time>
      </trkpt>
      <trkpt lat="43.62151" lon="5.34702">
        <ele>323.60000610352</ele>
        <time>2019-11-30T13:14:04.000Z</time>
      </trkpt>
      <trkpt lat="43.62154" lon="5.347">
        <ele>324</ele>
        <time>2019-11-30T13:14:05.000Z</time>
      </trkpt>
      <trkpt lat="43.62157" lon="5.34697">
        <ele>324.39999389648</ele>
        <time>2019-11-30T13:14:06.000Z</time>
      </trkpt>
      <trkpt lat="43.62158" lon="5.34693">
        <ele>324.39999389648</ele>
        <time>2019-11-30T13:14:07.000Z</time>
      </trkpt>
      <trkpt lat="43.6216" lon="5.34691">
        <ele>324.79998779297</ele>
        <time>2019-11-30T13:14:08.000Z</time>
      </trkpt>
      <trkpt lat="43.62163" lon="5.34691">
        <ele>325</ele>
        <time>2019-11-30T13:14:09.000Z</time>
      </trkpt>
      <trkpt lat="43.62165" lon="5.34691">
        <ele>325.20001220703</ele>
        <time>2019-11-30T13:14:10.000Z</time>
      </trkpt>
      <trkpt lat="43.62168" lon="5.34691">
        <ele>325.39999389648</ele>
        <time>2019-11-30T13:14:11.000Z</time>
      </trkpt>
      <trkpt lat="43.62172" lon="5.34689">
        <ele>325.79998779297</ele>
        <time>2019-11-30T13:14:12.000Z</time>
      </trkpt>
      <trkpt lat="43.62175" lon="5.34688">
        <ele>326</ele>
        <time>2019-11-30T13:14:13.000Z</time>
      </trkpt>
      <trkpt lat="43.62177" lon="5.34687">
        <ele>326</ele>
        <time>2019-11-30T13:14:14.000Z</time>
      </trkpt>
      <trkpt lat="43.62179" lon="5.34687">
        <ele>326.20001220703</ele>
        <time>2019-11-30T13:14:15.000Z</time>
      </trkpt>
      <trkpt lat="43.62182" lon="5.34686">
        <ele>326.39999389648</ele>
        <time>2019-11-30T13:14:16.000Z</time>
      </trkpt>
      <trkpt lat="43.62185" lon="5.34687">
        <ele>326.60000610352</ele>
        <time>2019-11-30T13:14:17.000Z</time>
      </trkpt>
      <trkpt lat="43.62188" lon="5.34688">
        <ele>326.79998779297</ele>
        <time>2019-11-30T13:14:18.000Z</time>
      </trkpt>
      <trkpt lat="43.62192" lon="5.34688">
        <ele>327</ele>
        <time>2019-11-30T13:14:19.000Z</time>
      </trkpt>
      <trkpt lat="43.62194" lon="5.34687">
        <ele>327</ele>
        <time>2019-11-30T13:14:20.000Z</time>
      </trkpt>
      <trkpt lat="43.62197" lon="5.34687">
        <ele>327</ele>
        <time>2019-11-30T13:14:21.000Z</time>
      </trkpt>
      <trkpt lat="43.62201" lon="5.34688">
        <ele>327.20001220703</ele>
        <time>2019-11-30T13:14:22.000Z</time>
      </trkpt>
      <trkpt lat="43.62205" lon="5.3469">
        <ele>327.39999389648</ele>
        <time>2019-11-30T13:14:23.000Z</time>
      </trkpt>
      <trkpt lat="43.62208" lon="5.34691">
        <ele>327.60000610352</ele>
        <time>2019-11-30T13:14:24.000Z</time>
      </trkpt>
      <trkpt lat="43.62212" lon="5.34691">
        <ele>327.60000610352</ele>
        <time>2019-11-30T13:14:25.000Z</time>
      </trkpt>
      <trkpt lat="43.62216" lon="5.34692">
        <ele>327.79998779297</ele>
        <time>2019-11-30T13:14:26.000Z</time>
      </trkpt>
      <trkpt lat="43.62219" lon="5.34692">
        <ele>328</ele>
        <time>2019-11-30T13:14:27.000Z</time>
      </trkpt>
      <trkpt lat="43.62223" lon="5.34693">
        <ele>328</ele>
        <time>2019-11-30T13:14:28.000Z</time>
      </trkpt>
      <trkpt lat="43.62227" lon="5.34694">
        <ele>328.20001220703</ele>
        <time>2019-11-30T13:14:29.000Z</time>
      </trkpt>
      <trkpt lat="43.6223" lon="5.34695">
        <ele>328.39999389648</ele>
        <time>2019-11-30T13:14:30.000Z</time>
      </trkpt>
      <trkpt lat="43.62234" lon="5.34697">
        <ele>328.60000610352</ele>
        <time>2019-11-30T13:14:31.000Z</time>
      </trkpt>
      <trkpt lat="43.62237" lon="5.34698">
        <ele>328.60000610352</ele>
        <time>2019-11-30T13:14:32.000Z</time>
      </trkpt>
      <trkpt lat="43.62238" lon="5.347">
        <ele>328.79998779297</ele>
        <time>2019-11-30T13:14:33.000Z</time>
      </trkpt>
      <trkpt lat="43.62239" lon="5.34704">
        <ele>328.79998779297</ele>
        <time>2019-11-30T13:14:34.000Z</time>
      </trkpt>
      <trkpt lat="43.62241" lon="5.34712">
        <ele>329</ele>
        <time>2019-11-30T13:14:35.000Z</time>
      </trkpt>
      <trkpt lat="43.6224" lon="5.34719">
        <ele>329.20001220703</ele>
        <time>2019-11-30T13:14:36.000Z</time>
      </trkpt>
      <trkpt lat="43.62237" lon="5.34723">
        <ele>329.39999389648</ele>
        <time>2019-11-30T13:14:37.000Z</time>
      </trkpt>
      <trkpt lat="43.62235" lon="5.34727">
        <ele>329.79998779297</ele>
        <time>2019-11-30T13:14:38.000Z</time>
      </trkpt>
      <trkpt lat="43.62231" lon="5.3473">
        <ele>329.79998779297</ele>
        <time>2019-11-30T13:14:39.000Z</time>
      </trkpt>
      <trkpt lat="43.62228" lon="5.34732">
        <ele>329.79998779297</ele>
        <time>2019-11-30T13:14:40.000Z</time>
      </trkpt>
      <trkpt lat="43.62224" lon="5.34734">
        <ele>329.79998779297</ele>
        <time>2019-11-30T13:14:41.000Z</time>
      </trkpt>
      <trkpt lat="43.62221" lon="5.34737">
        <ele>330</ele>
        <time>2019-11-30T13:14:42.000Z</time>
      </trkpt>
      <trkpt lat="43.62217" lon="5.3474">
        <ele>330</ele>
        <time>2019-11-30T13:14:43.000Z</time>
      </trkpt>
      <trkpt lat="43.62215" lon="5.34743">
        <ele>330.20001220703</ele>
        <time>2019-11-30T13:14:44.000Z</time>
      </trkpt>
      <trkpt lat="43.62211" lon="5.34744">
        <ele>329.79998779297</ele>
        <time>2019-11-30T13:14:45.000Z</time>
      </trkpt>
      <trkpt lat="43.62207" lon="5.34745">
        <ele>329.39999389648</ele>
        <time>2019-11-30T13:14:46.000Z</time>
      </trkpt>
      <trkpt lat="43.62204" lon="5.34749">
        <ele>329.20001220703</ele>
        <time>2019-11-30T13:14:47.000Z</time>
      </trkpt>
      <trkpt lat="43.62201" lon="5.34753">
        <ele>329</ele>
        <time>2019-11-30T13:14:48.000Z</time>
      </trkpt>
      <trkpt lat="43.62197" lon="5.34754">
        <ele>328.60000610352</ele>
        <time>2019-11-30T13:14:49.000Z</time>
      </trkpt>
      <trkpt lat="43.62193" lon="5.34757">
        <ele>328.20001220703</ele>
        <time>2019-11-30T13:14:50.000Z</time>
      </trkpt>
      <trkpt lat="43.62189" lon="5.3476">
        <ele>328</ele>
        <time>2019-11-30T13:14:51.000Z</time>
      </trkpt>
      <trkpt lat="43.62185" lon="5.34762">
        <ele>327.60000610352</ele>
        <time>2019-11-30T13:14:52.000Z</time>
      </trkpt>
      <trkpt lat="43.62182" lon="5.34764">
        <ele>327.20001220703</ele>
        <time>2019-11-30T13:14:53.000Z</time>
      </trkpt>
      <trkpt lat="43.62178" lon="5.34766">
        <ele>326.79998779297</ele>
        <time>2019-11-30T13:14:54.000Z</time>
      </trkpt>
      <trkpt lat="43.62174" lon="5.34769">
        <ele>326.39999389648</ele>
        <time>2019-11-30T13:14:55.000Z</time>
      </trkpt>
      <trkpt lat="43.6217" lon="5.34772">
        <ele>326</ele>
        <time>2019-11-30T13:14:56.000Z</time>
      </trkpt>
      <trkpt lat="43.62166" lon="5.34775">
        <ele>325.60000610352</ele>
        <time>2019-11-30T13:14:57.000Z</time>
      </trkpt>
      <trkpt lat="43.62163" lon="5.34778">
        <ele>325.39999389648</ele>
        <time>2019-11-30T13:14:58.000Z</time>
      </trkpt>
      <trkpt lat="43.6216" lon="5.34782">
        <ele>325.39999389648</ele>
        <time>2019-11-30T13:14:59.000Z</time>
      </trkpt>
      <trkpt lat="43.62156" lon="5.34787">
        <ele>325.39999389648</ele>
        <time>2019-11-30T13:15:00.000Z</time>
      </trkpt>
      <trkpt lat="43.62153" lon="5.34792">
        <ele>325.39999389648</ele>
        <time>2019-11-30T13:15:01.000Z</time>
      </trkpt>
      <trkpt lat="43.62152" lon="5.34798">
        <ele>325.60000610352</ele>
        <time>2019-11-30T13:15:02.000Z</time>
      </trkpt>
      <trkpt lat="43.6215" lon="5.34804">
        <ele>325.60000610352</ele>
        <time>2019-11-30T13:15:03.000Z</time>
      </trkpt>
      <trkpt lat="43.6215" lon="5.34811">
        <ele>325.79998779297</ele>
        <time>2019-11-30T13:15:04.000Z</time>
      </trkpt>
      <trkpt lat="43.62151" lon="5.34817">
        <ele>326</ele>
        <time>2019-11-30T13:15:05.000Z</time>
      </trkpt>
      <trkpt lat="43.62152" lon="5.34823">
        <ele>326.20001220703</ele>
        <time>2019-11-30T13:15:06.000Z</time>
      </trkpt>
      <trkpt lat="43.62154" lon="5.34828">
        <ele>326.39999389648</ele>
        <time>2019-11-30T13:15:07.000Z</time>
      </trkpt>
      <trkpt lat="43.62156" lon="5.34833">
        <ele>326.79998779297</ele>
        <time>2019-11-30T13:15:08.000Z</time>
      </trkpt>
      <trkpt lat="43.62158" lon="5.34839">
        <ele>327</ele>
        <time>2019-11-30T13:15:09.000Z</time>
      </trkpt>
      <trkpt lat="43.6216" lon="5.34845">
        <ele>327.20001220703</ele>
        <time>2019-11-30T13:15:10.000Z</time>
      </trkpt>
      <trkpt lat="43.62161" lon="5.34851">
        <ele>327.60000610352</ele>
        <time>2019-11-30T13:15:11.000Z</time>
      </trkpt>
      <trkpt lat="43.62162" lon="5.34857">
        <ele>327.79998779297</ele>
        <time>2019-11-30T13:15:12.000Z</time>
      </trkpt>
      <trkpt lat="43.62163" lon="5.34864">
        <ele>328.20001220703</ele>
        <time>2019-11-30T13:15:13.000Z</time>
      </trkpt>
      <trkpt lat="43.62162" lon="5.3487">
        <ele>328.60000610352</ele>
        <time>2019-11-30T13:15:14.000Z</time>
      </trkpt>
      <trkpt lat="43.62159" lon="5.34876">
        <ele>328.79998779297</ele>
        <time>2019-11-30T13:15:15.000Z</time>
      </trkpt>
      <trkpt lat="43.62157" lon="5.34881">
        <ele>329</ele>
        <time>2019-11-30T13:15:16.000Z</time>
      </trkpt>
      <trkpt lat="43.62152" lon="5.34884">
        <ele>329</ele>
        <time>2019-11-30T13:15:17.000Z</time>
      </trkpt>
      <trkpt lat="43.62147" lon="5.34883">
        <ele>328.79998779297</ele>
        <time>2019-11-30T13:15:18.000Z</time>
      </trkpt>
      <trkpt lat="43.62143" lon="5.34881">
        <ele>328.60000610352</ele>
        <time>2019-11-30T13:15:19.000Z</time>
      </trkpt>
      <trkpt lat="43.62138" lon="5.3488">
        <ele>328.20001220703</ele>
        <time>2019-11-30T13:15:20.000Z</time>
      </trkpt>
      <trkpt lat="43.62134" lon="5.34878">
        <ele>328</ele>
        <time>2019-11-30T13:15:21.000Z</time>
      </trkpt>
      <trkpt lat="43.6213" lon="5.34876">
        <ele>327.79998779297</ele>
        <time>2019-11-30T13:15:22.000Z</time>
      </trkpt>
      <trkpt lat="43.62126" lon="5.34873">
        <ele>327.39999389648</ele>
        <time>2019-11-30T13:15:23.000Z</time>
      </trkpt>
      <trkpt lat="43.62122" lon="5.34869">
        <ele>327</ele>
        <time>2019-11-30T13:15:24.000Z</time>
      </trkpt>
      <trkpt lat="43.62119" lon="5.34865">
        <ele>326.60000610352</ele>
        <time>2019-11-30T13:15:25.000Z</time>
      </trkpt>
      <trkpt lat="43.62116" lon="5.34862">
        <ele>326.39999389648</ele>
        <time>2019-11-30T13:15:26.000Z</time>
      </trkpt>
      <trkpt lat="43.62112" lon="5.34857">
        <ele>326</ele>
        <time>2019-11-30T13:15:27.000Z</time>
      </trkpt>
      <trkpt lat="43.62109" lon="5.34853">
        <ele>325.60000610352</ele>
        <time>2019-11-30T13:15:28.000Z</time>
      </trkpt>
      <trkpt lat="43.62105" lon="5.34849">
        <ele>325.20001220703</ele>
        <time>2019-11-30T13:15:29.000Z</time>
      </trkpt>
      <trkpt lat="43.62102" lon="5.34845">
        <ele>324.79998779297</ele>
        <time>2019-11-30T13:15:30.000Z</time>
      </trkpt>
      <trkpt lat="43.62098" lon="5.3484">
        <ele>324.39999389648</ele>
        <time>2019-11-30T13:15:31.000Z</time>
      </trkpt>
      <trkpt lat="43.62095" lon="5.34836">
        <ele>324</ele>
        <time>2019-11-30T13:15:32.000Z</time>
      </trkpt>
      <trkpt lat="43.62091" lon="5.34833">
        <ele>323.60000610352</ele>
        <time>2019-11-30T13:15:33.000Z</time>
      </trkpt>
      <trkpt lat="43.62086" lon="5.34832">
        <ele>323.20001220703</ele>
        <time>2019-11-30T13:15:34.000Z</time>
      </trkpt>
      <trkpt lat="43.62082" lon="5.34831">
        <ele>323</ele>
        <time>2019-11-30T13:15:35.000Z</time>
      </trkpt>
      <trkpt lat="43.62077" lon="5.34832">
        <ele>322.79998779297</ele>
        <time>2019-11-30T13:15:36.000Z</time>
      </trkpt>
      <trkpt lat="43.62073" lon="5.34834">
        <ele>322.79998779297</ele>
        <time>2019-11-30T13:15:37.000Z</time>
      </trkpt>
      <trkpt lat="43.6207" lon="5.34836">
        <ele>322.79998779297</ele>
        <time>2019-11-30T13:15:38.000Z</time>
      </trkpt>
      <trkpt lat="43.62065" lon="5.3484">
        <ele>322.79998779297</ele>
        <time>2019-11-30T13:15:39.000Z</time>
      </trkpt>
      <trkpt lat="43.62061" lon="5.34843">
        <ele>322.60000610352</ele>
        <time>2019-11-30T13:15:40.000Z</time>
      </trkpt>
      <trkpt lat="43.62058" lon="5.34846">
        <ele>322.60000610352</ele>
        <time>2019-11-30T13:15:41.000Z</time>
      </trkpt>
      <trkpt lat="43.62055" lon="5.34849">
        <ele>322.20001220703</ele>
        <time>2019-11-30T13:15:42.000Z</time>
      </trkpt>
      <trkpt lat="43.62051" lon="5.34853">
        <ele>322</ele>
        <time>2019-11-30T13:15:43.000Z</time>
      </trkpt>
      <trkpt lat="43.62048" lon="5.34857">
        <ele>321.79998779297</ele>
        <time>2019-11-30T13:15:44.000Z</time>
      </trkpt>
      <trkpt lat="43.62045" lon="5.34862">
        <ele>321.79998779297</ele>
        <time>2019-11-30T13:15:45.000Z</time>
      </trkpt>
      <trkpt lat="43.62042" lon="5.34867">
        <ele>321.60000610352</ele>
        <time>2019-11-30T13:15:46.000Z</time>
      </trkpt>
      <trkpt lat="43.62041" lon="5.34873">
        <ele>321.60000610352</ele>
        <time>2019-11-30T13:15:47.000Z</time>
      </trkpt>
      <trkpt lat="43.6204" lon="5.34879">
        <ele>321.79998779297</ele>
        <time>2019-11-30T13:15:48.000Z</time>
      </trkpt>
      <trkpt lat="43.62039" lon="5.34885">
        <ele>321.79998779297</ele>
        <time>2019-11-30T13:15:49.000Z</time>
      </trkpt>
      <trkpt lat="43.6204" lon="5.34891">
        <ele>322</ele>
        <time>2019-11-30T13:15:50.000Z</time>
      </trkpt>
      <trkpt lat="43.62039" lon="5.34897">
        <ele>322</ele>
        <time>2019-11-30T13:15:51.000Z</time>
      </trkpt>
      <trkpt lat="43.62037" lon="5.34903">
        <ele>322</ele>
        <time>2019-11-30T13:15:52.000Z</time>
      </trkpt>
      <trkpt lat="43.62036" lon="5.3491">
        <ele>321.79998779297</ele>
        <time>2019-11-30T13:15:53.000Z</time>
      </trkpt>
      <trkpt lat="43.62036" lon="5.34916">
        <ele>321.60000610352</ele>
        <time>2019-11-30T13:15:54.000Z</time>
      </trkpt>
      <trkpt lat="43.62036" lon="5.34923">
        <ele>321.60000610352</ele>
        <time>2019-11-30T13:15:55.000Z</time>
      </trkpt>
      <trkpt lat="43.62036" lon="5.34929">
        <ele>321.60000610352</ele>
        <time>2019-11-30T13:15:56.000Z</time>
      </trkpt>
      <trkpt lat="43.62038" lon="5.34935">
        <ele>321.60000610352</ele>
        <time>2019-11-30T13:15:57.000Z</time>
      </trkpt>
      <trkpt lat="43.62039" lon="5.34942">
        <ele>321.79998779297</ele>
        <time>2019-11-30T13:15:58.000Z</time>
      </trkpt>
      <trkpt lat="43.62041" lon="5.34947">
        <ele>322</ele>
        <time>2019-11-30T13:15:59.000Z</time>
      </trkpt>
      <trkpt lat="43.62043" lon="5.34953">
        <ele>322</ele>
        <time>2019-11-30T13:16:00.000Z</time>
      </trkpt>
      <trkpt lat="43.62046" lon="5.34959">
        <ele>322.20001220703</ele>
        <time>2019-11-30T13:16:01.000Z</time>
      </trkpt>
      <trkpt lat="43.62048" lon="5.34965">
        <ele>322.60000610352</ele>
        <time>2019-11-30T13:16:02.000Z</time>
      </trkpt>
      <trkpt lat="43.6205" lon="5.34971">
        <ele>323</ele>
        <time>2019-11-30T13:16:03.000Z</time>
      </trkpt>
      <trkpt lat="43.62053" lon="5.34976">
        <ele>323.60000610352</ele>
        <time>2019-11-30T13:16:04.000Z</time>
      </trkpt>
      <trkpt lat="43.62054" lon="5.34982">
        <ele>324.20001220703</ele>
        <time>2019-11-30T13:16:05.000Z</time>
      </trkpt>
      <trkpt lat="43.62056" lon="5.34989">
        <ele>324.60000610352</ele>
        <time>2019-11-30T13:16:06.000Z</time>
      </trkpt>
      <trkpt lat="43.62058" lon="5.34994">
        <ele>325.20001220703</ele>
        <time>2019-11-30T13:16:07.000Z</time>
      </trkpt>
      <trkpt lat="43.62059" lon="5.34999">
        <ele>325.60000610352</ele>
        <time>2019-11-30T13:16:08.000Z</time>
      </trkpt>
      <trkpt lat="43.62061" lon="5.35005">
        <ele>326</ele>
        <time>2019-11-30T13:16:09.000Z</time>
      </trkpt>
      <trkpt lat="43.62062" lon="5.3501">
        <ele>326.39999389648</ele>
        <time>2019-11-30T13:16:10.000Z</time>
      </trkpt>
      <trkpt lat="43.62063" lon="5.35015">
        <ele>326.60000610352</ele>
        <time>2019-11-30T13:16:11.000Z</time>
      </trkpt>
      <trkpt lat="43.62064" lon="5.35022">
        <ele>327.20001220703</ele>
        <time>2019-11-30T13:16:12.000Z</time>
      </trkpt>
      <trkpt lat="43.62064" lon="5.35029">
        <ele>327.39999389648</ele>
        <time>2019-11-30T13:16:13.000Z</time>
      </trkpt>
      <trkpt lat="43.62064" lon="5.35036">
        <ele>327.79998779297</ele>
        <time>2019-11-30T13:16:14.000Z</time>
      </trkpt>
      <trkpt lat="43.62064" lon="5.35042">
        <ele>328.20001220703</ele>
        <time>2019-11-30T13:16:15.000Z</time>
      </trkpt>
      <trkpt lat="43.62064" lon="5.35049">
        <ele>328.39999389648</ele>
        <time>2019-11-30T13:16:16.000Z</time>
      </trkpt>
      <trkpt lat="43.62063" lon="5.35056">
        <ele>328.20001220703</ele>
        <time>2019-11-30T13:16:17.000Z</time>
      </trkpt>
      <trkpt lat="43.62062" lon="5.35063">
        <ele>328.20001220703</ele>
        <time>2019-11-30T13:16:18.000Z</time>
      </trkpt>
      <trkpt lat="43.62062" lon="5.35069">
        <ele>328.20001220703</ele>
        <time>2019-11-30T13:16:19.000Z</time>
      </trkpt>
      <trkpt lat="43.62061" lon="5.35075">
        <ele>328.20001220703</ele>
        <time>2019-11-30T13:16:20.000Z</time>
      </trkpt>
      <trkpt lat="43.6206" lon="5.35082">
        <ele>328</ele>
        <time>2019-11-30T13:16:21.000Z</time>
      </trkpt>
      <trkpt lat="43.6206" lon="5.35088">
        <ele>327.79998779297</ele>
        <time>2019-11-30T13:16:22.000Z</time>
      </trkpt>
      <trkpt lat="43.6206" lon="5.35093">
        <ele>327.79998779297</ele>
        <time>2019-11-30T13:16:23.000Z</time>
      </trkpt>
      <trkpt lat="43.62058" lon="5.351">
        <ele>327.60000610352</ele>
        <time>2019-11-30T13:16:24.000Z</time>
      </trkpt>
      <trkpt lat="43.62058" lon="5.35106">
        <ele>327.39999389648</ele>
        <time>2019-11-30T13:16:25.000Z</time>
      </trkpt>
      <trkpt lat="43.62057" lon="5.35113">
        <ele>327.20001220703</ele>
        <time>2019-11-30T13:16:26.000Z</time>
      </trkpt>
      <trkpt lat="43.62056" lon="5.35119">
        <ele>327.20001220703</ele>
        <time>2019-11-30T13:16:27.000Z</time>
      </trkpt>
      <trkpt lat="43.62056" lon="5.35125">
        <ele>327</ele>
        <time>2019-11-30T13:16:28.000Z</time>
      </trkpt>
      <trkpt lat="43.62055" lon="5.35131">
        <ele>326.79998779297</ele>
        <time>2019-11-30T13:16:29.000Z</time>
      </trkpt>
      <trkpt lat="43.62055" lon="5.35138">
        <ele>326.39999389648</ele>
        <time>2019-11-30T13:16:30.000Z</time>
      </trkpt>
      <trkpt lat="43.62054" lon="5.35145">
        <ele>325.79998779297</ele>
        <time>2019-11-30T13:16:31.000Z</time>
      </trkpt>
      <trkpt lat="43.62053" lon="5.35151">
        <ele>325.39999389648</ele>
        <time>2019-11-30T13:16:32.000Z</time>
      </trkpt>
      <trkpt lat="43.62053" lon="5.35157">
        <ele>325</ele>
        <time>2019-11-30T13:16:33.000Z</time>
      </trkpt>
      <trkpt lat="43.62051" lon="5.35165">
        <ele>324.39999389648</ele>
        <time>2019-11-30T13:16:34.000Z</time>
      </trkpt>
      <trkpt lat="43.62048" lon="5.35171">
        <ele>324.39999389648</ele>
        <time>2019-11-30T13:16:35.000Z</time>
      </trkpt>
      <trkpt lat="43.62045" lon="5.35176">
        <ele>324.39999389648</ele>
        <time>2019-11-30T13:16:36.000Z</time>
      </trkpt>
      <trkpt lat="43.62042" lon="5.35181">
        <ele>324.39999389648</ele>
        <time>2019-11-30T13:16:37.000Z</time>
      </trkpt>
      <trkpt lat="43.62039" lon="5.35186">
        <ele>324.20001220703</ele>
        <time>2019-11-30T13:16:38.000Z</time>
      </trkpt>
      <trkpt lat="43.62035" lon="5.3519">
        <ele>324.20001220703</ele>
        <time>2019-11-30T13:16:39.000Z</time>
      </trkpt>
      <trkpt lat="43.62032" lon="5.35195">
        <ele>324.20001220703</ele>
        <time>2019-11-30T13:16:40.000Z</time>
      </trkpt>
      <trkpt lat="43.62029" lon="5.352">
        <ele>324.20001220703</ele>
        <time>2019-11-30T13:16:41.000Z</time>
      </trkpt>
      <trkpt lat="43.62027" lon="5.35204">
        <ele>324.20001220703</ele>
        <time>2019-11-30T13:16:42.000Z</time>
      </trkpt>
      <trkpt lat="43.62025" lon="5.3521">
        <ele>324.20001220703</ele>
        <time>2019-11-30T13:16:43.000Z</time>
      </trkpt>
      <trkpt lat="43.62024" lon="5.35215">
        <ele>324.20001220703</ele>
        <time>2019-11-30T13:16:44.000Z</time>
      </trkpt>
      <trkpt lat="43.62023" lon="5.35221">
        <ele>324.20001220703</ele>
        <time>2019-11-30T13:16:45.000Z</time>
      </trkpt>
      <trkpt lat="43.62021" lon="5.35228">
        <ele>324</ele>
        <time>2019-11-30T13:16:46.000Z</time>
      </trkpt>
      <trkpt lat="43.62021" lon="5.35233">
        <ele>324</ele>
        <time>2019-11-30T13:16:47.000Z</time>
      </trkpt>
      <trkpt lat="43.62019" lon="5.35238">
        <ele>324</ele>
        <time>2019-11-30T13:16:48.000Z</time>
      </trkpt>
      <trkpt lat="43.62019" lon="5.35244">
        <ele>324</ele>
        <time>2019-11-30T13:16:49.000Z</time>
      </trkpt>
      <trkpt lat="43.62018" lon="5.3525">
        <ele>324</ele>
        <time>2019-11-30T13:16:50.000Z</time>
      </trkpt>
      <trkpt lat="43.62019" lon="5.35255">
        <ele>324</ele>
        <time>2019-11-30T13:16:51.000Z</time>
      </trkpt>
      <trkpt lat="43.62019" lon="5.35259">
        <ele>324</ele>
        <time>2019-11-30T13:16:52.000Z</time>
      </trkpt>
      <trkpt lat="43.62021" lon="5.35263">
        <ele>324</ele>
        <time>2019-11-30T13:16:53.000Z</time>
      </trkpt>
      <trkpt lat="43.62023" lon="5.35266">
        <ele>324.20001220703</ele>
        <time>2019-11-30T13:16:54.000Z</time>
      </trkpt>
      <trkpt lat="43.62025" lon="5.35269">
        <ele>324.20001220703</ele>
        <time>2019-11-30T13:16:55.000Z</time>
      </trkpt>
      <trkpt lat="43.62028" lon="5.35273">
        <ele>324.20001220703</ele>
        <time>2019-11-30T13:16:56.000Z</time>
      </trkpt>
      <trkpt lat="43.62032" lon="5.35278">
        <ele>324.39999389648</ele>
        <time>2019-11-30T13:16:57.000Z</time>
      </trkpt>
      <trkpt lat="43.62036" lon="5.35282">
        <ele>324.39999389648</ele>
        <time>2019-11-30T13:16:58.000Z</time>
      </trkpt>
      <trkpt lat="43.6204" lon="5.35283">
        <ele>324.60000610352</ele>
        <time>2019-11-30T13:16:59.000Z</time>
      </trkpt>
      <trkpt lat="43.62044" lon="5.35284">
        <ele>324.60000610352</ele>
        <time>2019-11-30T13:17:00.000Z</time>
      </trkpt>
      <trkpt lat="43.62047" lon="5.35286">
        <ele>324.60000610352</ele>
        <time>2019-11-30T13:17:01.000Z</time>
      </trkpt>
      <trkpt lat="43.62051" lon="5.35289">
        <ele>324.79998779297</ele>
        <time>2019-11-30T13:17:02.000Z</time>
      </trkpt>
      <trkpt lat="43.62055" lon="5.3529">
        <ele>324.79998779297</ele>
        <time>2019-11-30T13:17:03.000Z</time>
      </trkpt>
      <trkpt lat="43.62059" lon="5.3529">
        <ele>325</ele>
        <time>2019-11-30T13:17:04.000Z</time>
      </trkpt>
      <trkpt lat="43.62063" lon="5.35291">
        <ele>325</ele>
        <time>2019-11-30T13:17:05.000Z</time>
      </trkpt>
      <trkpt lat="43.62068" lon="5.35291">
        <ele>325.20001220703</ele>
        <time>2019-11-30T13:17:06.000Z</time>
      </trkpt>
      <trkpt lat="43.62072" lon="5.35291">
        <ele>325.20001220703</ele>
        <time>2019-11-30T13:17:07.000Z</time>
      </trkpt>
      <trkpt lat="43.62076" lon="5.35291">
        <ele>325.39999389648</ele>
        <time>2019-11-30T13:17:08.000Z</time>
      </trkpt>
      <trkpt lat="43.6208" lon="5.35291">
        <ele>325.39999389648</ele>
        <time>2019-11-30T13:17:09.000Z</time>
      </trkpt>
      <trkpt lat="43.62084" lon="5.35292">
        <ele>325.60000610352</ele>
        <time>2019-11-30T13:17:10.000Z</time>
      </trkpt>
      <trkpt lat="43.62089" lon="5.35293">
        <ele>325.60000610352</ele>
        <time>2019-11-30T13:17:11.000Z</time>
      </trkpt>
      <trkpt lat="43.62093" lon="5.35293">
        <ele>325.79998779297</ele>
        <time>2019-11-30T13:17:12.000Z</time>
      </trkpt>
      <trkpt lat="43.62097" lon="5.35296">
        <ele>325.79998779297</ele>
        <time>2019-11-30T13:17:13.000Z</time>
      </trkpt>
      <trkpt lat="43.621" lon="5.353">
        <ele>326.20001220703</ele>
        <time>2019-11-30T13:17:14.000Z</time>
      </trkpt>
      <trkpt lat="43.62104" lon="5.35304">
        <ele>326.60000610352</ele>
        <time>2019-11-30T13:17:15.000Z</time>
      </trkpt>
      <trkpt lat="43.62107" lon="5.3531">
        <ele>327.20001220703</ele>
        <time>2019-11-30T13:17:16.000Z</time>
      </trkpt>
      <trkpt lat="43.62109" lon="5.35315">
        <ele>327.79998779297</ele>
        <time>2019-11-30T13:17:17.000Z</time>
      </trkpt>
      <trkpt lat="43.6211" lon="5.3532">
        <ele>328.39999389648</ele>
        <time>2019-11-30T13:17:18.000Z</time>
      </trkpt>
      <trkpt lat="43.6211" lon="5.35326">
        <ele>329</ele>
        <time>2019-11-30T13:17:19.000Z</time>
      </trkpt>
      <trkpt lat="43.6211" lon="5.35332">
        <ele>329.60000610352</ele>
        <time>2019-11-30T13:17:20.000Z</time>
      </trkpt>
      <trkpt lat="43.62111" lon="5.35338">
        <ele>330</ele>
        <time>2019-11-30T13:17:21.000Z</time>
      </trkpt>
      <trkpt lat="43.62111" lon="5.35344">
        <ele>330.60000610352</ele>
        <time>2019-11-30T13:17:22.000Z</time>
      </trkpt>
      <trkpt lat="43.62111" lon="5.35349">
        <ele>331.20001220703</ele>
        <time>2019-11-30T13:17:23.000Z</time>
      </trkpt>
      <trkpt lat="43.62112" lon="5.35354">
        <ele>331.60000610352</ele>
        <time>2019-11-30T13:17:24.000Z</time>
      </trkpt>
      <trkpt lat="43.62114" lon="5.35356">
        <ele>332</ele>
        <time>2019-11-30T13:17:25.000Z</time>
      </trkpt>
      <trkpt lat="43.62118" lon="5.35357">
        <ele>332</ele>
        <time>2019-11-30T13:17:26.000Z</time>
      </trkpt>
      <trkpt lat="43.62121" lon="5.35357">
        <ele>332.20001220703</ele>
        <time>2019-11-30T13:17:27.000Z</time>
      </trkpt>
      <trkpt lat="43.62123" lon="5.35358">
        <ele>332.39999389648</ele>
        <time>2019-11-30T13:17:28.000Z</time>
      </trkpt>
      <trkpt lat="43.62124" lon="5.3536">
        <ele>332.60000610352</ele>
        <time>2019-11-30T13:17:29.000Z</time>
      </trkpt>
      <trkpt lat="43.62126" lon="5.35363">
        <ele>332.79998779297</ele>
        <time>2019-11-30T13:17:30.000Z</time>
      </trkpt>
      <trkpt lat="43.62128" lon="5.35367">
        <ele>333.20001220703</ele>
        <time>2019-11-30T13:17:31.000Z</time>
      </trkpt>
      <trkpt lat="43.62128" lon="5.3537">
        <ele>333.60000610352</ele>
        <time>2019-11-30T13:17:32.000Z</time>
      </trkpt>
      <trkpt lat="43.62127" lon="5.35374">
        <ele>333.79998779297</ele>
        <time>2019-11-30T13:17:33.000Z</time>
      </trkpt>
      <trkpt lat="43.62125" lon="5.35378">
        <ele>334.20001220703</ele>
        <time>2019-11-30T13:17:34.000Z</time>
      </trkpt>
      <trkpt lat="43.62123" lon="5.35381">
        <ele>334.60000610352</ele>
        <time>2019-11-30T13:17:35.000Z</time>
      </trkpt>
      <trkpt lat="43.62121" lon="5.35385">
        <ele>334.60000610352</ele>
        <time>2019-11-30T13:17:36.000Z</time>
      </trkpt>
      <trkpt lat="43.62118" lon="5.35389">
        <ele>334.79998779297</ele>
        <time>2019-11-30T13:17:37.000Z</time>
      </trkpt>
      <trkpt lat="43.62116" lon="5.35393">
        <ele>335</ele>
        <time>2019-11-30T13:17:38.000Z</time>
      </trkpt>
      <trkpt lat="43.62113" lon="5.35398">
        <ele>335.60000610352</ele>
        <time>2019-11-30T13:17:39.000Z</time>
      </trkpt>
      <trkpt lat="43.62112" lon="5.35401">
        <ele>336</ele>
        <time>2019-11-30T13:17:40.000Z</time>
      </trkpt>
      <trkpt lat="43.6211" lon="5.35402">
        <ele>336.20001220703</ele>
        <time>2019-11-30T13:17:41.000Z</time>
      </trkpt>
      <trkpt lat="43.62108" lon="5.35405">
        <ele>336.39999389648</ele>
        <time>2019-11-30T13:17:42.000Z</time>
      </trkpt>
      <trkpt lat="43.62106" lon="5.35407">
        <ele>336.60000610352</ele>
        <time>2019-11-30T13:17:43.000Z</time>
      </trkpt>
      <trkpt lat="43.62104" lon="5.35409">
        <ele>337</ele>
        <time>2019-11-30T13:17:44.000Z</time>
      </trkpt>
      <trkpt lat="43.62103" lon="5.35414">
        <ele>337.60000610352</ele>
        <time>2019-11-30T13:17:45.000Z</time>
      </trkpt>
      <trkpt lat="43.62102" lon="5.35419">
        <ele>338</ele>
        <time>2019-11-30T13:17:46.000Z</time>
      </trkpt>
      <trkpt lat="43.62103" lon="5.35422">
        <ele>338.39999389648</ele>
        <time>2019-11-30T13:17:47.000Z</time>
      </trkpt>
      <trkpt lat="43.62105" lon="5.35427">
        <ele>338.79998779297</ele>
        <time>2019-11-30T13:17:48.000Z</time>
      </trkpt>
      <trkpt lat="43.62107" lon="5.3543">
        <ele>339.20001220703</ele>
        <time>2019-11-30T13:17:49.000Z</time>
      </trkpt>
      <trkpt lat="43.62109" lon="5.35432">
        <ele>339.39999389648</ele>
        <time>2019-11-30T13:17:50.000Z</time>
      </trkpt>
      <trkpt lat="43.6211" lon="5.35435">
        <ele>339.60000610352</ele>
        <time>2019-11-30T13:17:51.000Z</time>
      </trkpt>
      <trkpt lat="43.62112" lon="5.35437">
        <ele>339.79998779297</ele>
        <time>2019-11-30T13:17:52.000Z</time>
      </trkpt>
      <trkpt lat="43.62113" lon="5.35439">
        <ele>340</ele>
        <time>2019-11-30T13:17:53.000Z</time>
      </trkpt>
      <trkpt lat="43.62107" lon="5.35451">
        <ele>341.39999389648</ele>
        <time>2019-11-30T13:17:54.000Z</time>
      </trkpt>
      <trkpt lat="43.62109" lon="5.35453">
        <ele>341.60000610352</ele>
        <time>2019-11-30T13:17:55.000Z</time>
      </trkpt>
      <trkpt lat="43.62111" lon="5.35455">
        <ele>341.79998779297</ele>
        <time>2019-11-30T13:17:56.000Z</time>
      </trkpt>
      <trkpt lat="43.62113" lon="5.35457">
        <ele>342</ele>
        <time>2019-11-30T13:17:57.000Z</time>
      </trkpt>
      <trkpt lat="43.62111" lon="5.35455">
        <ele>341.79998779297</ele>
        <time>2019-11-30T13:20:36.000Z</time>
      </trkpt>
      <trkpt lat="43.62111" lon="5.35455">
        <ele>341.79998779297</ele>
        <time>2019-11-30T13:20:36.000Z</time>
      </trkpt>
      <trkpt lat="43.62108" lon="5.35452">
        <ele>341.60000610352</ele>
        <time>2019-11-30T13:20:37.000Z</time>
      </trkpt>
      <trkpt lat="43.62106" lon="5.3545">
        <ele>341.39999389648</ele>
        <time>2019-11-30T13:20:38.000Z</time>
      </trkpt>
      <trkpt lat="43.62104" lon="5.35448">
        <ele>341.20001220703</ele>
        <time>2019-11-30T13:20:39.000Z</time>
      </trkpt>
      <trkpt lat="43.62101" lon="5.35445">
        <ele>341</ele>
        <time>2019-11-30T13:20:40.000Z</time>
      </trkpt>
      <trkpt lat="43.62099" lon="5.35443">
        <ele>340.60000610352</ele>
        <time>2019-11-30T13:20:41.000Z</time>
      </trkpt>
      <trkpt lat="43.62096" lon="5.3544">
        <ele>340.39999389648</ele>
        <time>2019-11-30T13:20:42.000Z</time>
      </trkpt>
      <trkpt lat="43.62094" lon="5.35438">
        <ele>340</ele>
        <time>2019-11-30T13:20:43.000Z</time>
      </trkpt>
      <trkpt lat="43.62091" lon="5.35435">
        <ele>339.79998779297</ele>
        <time>2019-11-30T13:20:44.000Z</time>
      </trkpt>
      <trkpt lat="43.62089" lon="5.35433">
        <ele>339.39999389648</ele>
        <time>2019-11-30T13:20:45.000Z</time>
      </trkpt>
      <trkpt lat="43.62086" lon="5.3543">
        <ele>339.20001220703</ele>
        <time>2019-11-30T13:20:46.000Z</time>
      </trkpt>
      <trkpt lat="43.62083" lon="5.35427">
        <ele>338.79998779297</ele>
        <time>2019-11-30T13:20:47.000Z</time>
      </trkpt>
      <trkpt lat="43.6208" lon="5.35424">
        <ele>338.39999389648</ele>
        <time>2019-11-30T13:20:48.000Z</time>
      </trkpt>
      <trkpt lat="43.62077" lon="5.35421">
        <ele>338</ele>
        <time>2019-11-30T13:20:49.000Z</time>
      </trkpt>
      <trkpt lat="43.62074" lon="5.35417">
        <ele>337.60000610352</ele>
        <time>2019-11-30T13:20:50.000Z</time>
      </trkpt>
      <trkpt lat="43.6207" lon="5.35414">
        <ele>337.20001220703</ele>
        <time>2019-11-30T13:20:51.000Z</time>
      </trkpt>
      <trkpt lat="43.62066" lon="5.3541">
        <ele>336.79998779297</ele>
        <time>2019-11-30T13:20:52.000Z</time>
      </trkpt>
      <trkpt lat="43.62063" lon="5.35407">
        <ele>336.39999389648</ele>
        <time>2019-11-30T13:20:53.000Z</time>
      </trkpt>
      <trkpt lat="43.62061" lon="5.35404">
        <ele>336</ele>
        <time>2019-11-30T13:20:54.000Z</time>
      </trkpt>
      <trkpt lat="43.62057" lon="5.35403">
        <ele>335.79998779297</ele>
        <time>2019-11-30T13:20:55.000Z</time>
      </trkpt>
      <trkpt lat="43.62054" lon="5.35403">
        <ele>335.79998779297</ele>
        <time>2019-11-30T13:20:56.000Z</time>
      </trkpt>
      <trkpt lat="43.62059" lon="5.35403">
        <ele>335.79998779297</ele>
        <time>2019-11-30T13:20:57.000Z</time>
      </trkpt>
      <trkpt lat="43.62051" lon="5.35403">
        <ele>335.79998779297</ele>
        <time>2019-11-30T13:20:58.000Z</time>
      </trkpt>
      <trkpt lat="43.62049" lon="5.35403">
        <ele>335.79998779297</ele>
        <time>2019-11-30T13:20:59.000Z</time>
      </trkpt>
      <trkpt lat="43.62046" lon="5.35403">
        <ele>335.60000610352</ele>
        <time>2019-11-30T13:21:00.000Z</time>
      </trkpt>
      <trkpt lat="43.62043" lon="5.35403">
        <ele>335.60000610352</ele>
        <time>2019-11-30T13:21:01.000Z</time>
      </trkpt>
      <trkpt lat="43.62039" lon="5.35403">
        <ele>335.60000610352</ele>
        <time>2019-11-30T13:21:02.000Z</time>
      </trkpt>
      <trkpt lat="43.62035" lon="5.35403">
        <ele>335.39999389648</ele>
        <time>2019-11-30T13:21:03.000Z</time>
      </trkpt>
      <trkpt lat="43.62027" lon="5.35402">
        <ele>335.20001220703</ele>
        <time>2019-11-30T13:21:04.000Z</time>
      </trkpt>
      <trkpt lat="43.62021" lon="5.35402">
        <ele>335</ele>
        <time>2019-11-30T13:21:05.000Z</time>
      </trkpt>
      <trkpt lat="43.62016" lon="5.35402">
        <ele>334.79998779297</ele>
        <time>2019-11-30T13:21:06.000Z</time>
      </trkpt>
      <trkpt lat="43.62013" lon="5.35402">
        <ele>334.39999389648</ele>
        <time>2019-11-30T13:21:07.000Z</time>
      </trkpt>
      <trkpt lat="43.6201" lon="5.35402">
        <ele>334</ele>
        <time>2019-11-30T13:21:08.000Z</time>
      </trkpt>
      <trkpt lat="43.62006" lon="5.35403">
        <ele>333.60000610352</ele>
        <time>2019-11-30T13:21:09.000Z</time>
      </trkpt>
      <trkpt lat="43.62002" lon="5.35405">
        <ele>333.39999389648</ele>
        <time>2019-11-30T13:21:10.000Z</time>
      </trkpt>
      <trkpt lat="43.61999" lon="5.35407">
        <ele>333.39999389648</ele>
        <time>2019-11-30T13:21:11.000Z</time>
      </trkpt>
      <trkpt lat="43.61996" lon="5.35408">
        <ele>333.20001220703</ele>
        <time>2019-11-30T13:21:12.000Z</time>
      </trkpt>
      <trkpt lat="43.61993" lon="5.3541">
        <ele>333</ele>
        <time>2019-11-30T13:21:13.000Z</time>
      </trkpt>
      <trkpt lat="43.61991" lon="5.35411">
        <ele>332.79998779297</ele>
        <time>2019-11-30T13:21:14.000Z</time>
      </trkpt>
      <trkpt lat="43.61988" lon="5.35413">
        <ele>332.79998779297</ele>
        <time>2019-11-30T13:21:15.000Z</time>
      </trkpt>
      <trkpt lat="43.61986" lon="5.35414">
        <ele>332.60000610352</ele>
        <time>2019-11-30T13:21:16.000Z</time>
      </trkpt>
      <trkpt lat="43.61983" lon="5.35415">
        <ele>332.39999389648</ele>
        <time>2019-11-30T13:21:17.000Z</time>
      </trkpt>
      <trkpt lat="43.61981" lon="5.35417">
        <ele>332.39999389648</ele>
        <time>2019-11-30T13:21:18.000Z</time>
      </trkpt>
      <trkpt lat="43.61978" lon="5.35418">
        <ele>332.20001220703</ele>
        <time>2019-11-30T13:21:19.000Z</time>
      </trkpt>
      <trkpt lat="43.61976" lon="5.35419">
        <ele>332</ele>
        <time>2019-11-30T13:21:20.000Z</time>
      </trkpt>
      <trkpt lat="43.61974" lon="5.3542">
        <ele>332</ele>
        <time>2019-11-30T13:21:21.000Z</time>
      </trkpt>
      <trkpt lat="43.61971" lon="5.35423">
        <ele>331.79998779297</ele>
        <time>2019-11-30T13:21:22.000Z</time>
      </trkpt>
      <trkpt lat="43.61968" lon="5.35427">
        <ele>331.79998779297</ele>
        <time>2019-11-30T13:21:23.000Z</time>
      </trkpt>
      <trkpt lat="43.61965" lon="5.3543">
        <ele>332</ele>
        <time>2019-11-30T13:21:24.000Z</time>
      </trkpt>
      <trkpt lat="43.61962" lon="5.35434">
        <ele>332</ele>
        <time>2019-11-30T13:21:25.000Z</time>
      </trkpt>
      <trkpt lat="43.61959" lon="5.35438">
        <ele>332</ele>
        <time>2019-11-30T13:21:26.000Z</time>
      </trkpt>
      <trkpt lat="43.61955" lon="5.35442">
        <ele>332</ele>
        <time>2019-11-30T13:21:27.000Z</time>
      </trkpt>
      <trkpt lat="43.61951" lon="5.35448">
        <ele>332.20001220703</ele>
        <time>2019-11-30T13:21:28.000Z</time>
      </trkpt>
      <trkpt lat="43.61947" lon="5.35453">
        <ele>332.20001220703</ele>
        <time>2019-11-30T13:21:29.000Z</time>
      </trkpt>
      <trkpt lat="43.61943" lon="5.35459">
        <ele>332.20001220703</ele>
        <time>2019-11-30T13:21:30.000Z</time>
      </trkpt>
      <trkpt lat="43.61939" lon="5.35463">
        <ele>332.39999389648</ele>
        <time>2019-11-30T13:21:31.000Z</time>
      </trkpt>
      <trkpt lat="43.61936" lon="5.35467">
        <ele>332.20001220703</ele>
        <time>2019-11-30T13:21:32.000Z</time>
      </trkpt>
      <trkpt lat="43.61932" lon="5.35472">
        <ele>331.79998779297</ele>
        <time>2019-11-30T13:21:33.000Z</time>
      </trkpt>
      <trkpt lat="43.61929" lon="5.35476">
        <ele>331.39999389648</ele>
        <time>2019-11-30T13:21:34.000Z</time>
      </trkpt>
      <trkpt lat="43.61926" lon="5.35482">
        <ele>331</ele>
        <time>2019-11-30T13:21:35.000Z</time>
      </trkpt>
      <trkpt lat="43.61924" lon="5.35489">
        <ele>330.79998779297</ele>
        <time>2019-11-30T13:21:36.000Z</time>
      </trkpt>
      <trkpt lat="43.61921" lon="5.35496">
        <ele>330.60000610352</ele>
        <time>2019-11-30T13:21:37.000Z</time>
      </trkpt>
      <trkpt lat="43.61917" lon="5.35503">
        <ele>330.39999389648</ele>
        <time>2019-11-30T13:21:38.000Z</time>
      </trkpt>
      <trkpt lat="43.61914" lon="5.3551">
        <ele>330.20001220703</ele>
        <time>2019-11-30T13:21:39.000Z</time>
      </trkpt>
      <trkpt lat="43.61912" lon="5.35516">
        <ele>330</ele>
        <time>2019-11-30T13:21:40.000Z</time>
      </trkpt>
      <trkpt lat="43.6191" lon="5.35521">
        <ele>329.79998779297</ele>
        <time>2019-11-30T13:21:41.000Z</time>
      </trkpt>
      <trkpt lat="43.61907" lon="5.35527">
        <ele>329.60000610352</ele>
        <time>2019-11-30T13:21:42.000Z</time>
      </trkpt>
      <trkpt lat="43.61905" lon="5.35532">
        <ele>329.60000610352</ele>
        <time>2019-11-30T13:21:43.000Z</time>
      </trkpt>
      <trkpt lat="43.61903" lon="5.35538">
        <ele>329.60000610352</ele>
        <time>2019-11-30T13:21:44.000Z</time>
      </trkpt>
      <trkpt lat="43.619" lon="5.35543">
        <ele>329.39999389648</ele>
        <time>2019-11-30T13:21:45.000Z</time>
      </trkpt>
      <trkpt lat="43.61898" lon="5.35548">
        <ele>329.39999389648</ele>
        <time>2019-11-30T13:21:46.000Z</time>
      </trkpt>
      <trkpt lat="43.61896" lon="5.35553">
        <ele>329.20001220703</ele>
        <time>2019-11-30T13:21:47.000Z</time>
      </trkpt>
      <trkpt lat="43.61894" lon="5.35558">
        <ele>329</ele>
        <time>2019-11-30T13:21:48.000Z</time>
      </trkpt>
      <trkpt lat="43.61892" lon="5.35563">
        <ele>329</ele>
        <time>2019-11-30T13:21:49.000Z</time>
      </trkpt>
      <trkpt lat="43.6189" lon="5.35568">
        <ele>328.79998779297</ele>
        <time>2019-11-30T13:21:50.000Z</time>
      </trkpt>
      <trkpt lat="43.61888" lon="5.35572">
        <ele>328.60000610352</ele>
        <time>2019-11-30T13:21:51.000Z</time>
      </trkpt>
      <trkpt lat="43.61886" lon="5.35577">
        <ele>328.60000610352</ele>
        <time>2019-11-30T13:21:52.000Z</time>
      </trkpt>
      <trkpt lat="43.61884" lon="5.3558">
        <ele>328.39999389648</ele>
        <time>2019-11-30T13:21:53.000Z</time>
      </trkpt>
      <trkpt lat="43.61882" lon="5.35585">
        <ele>328</ele>
        <time>2019-11-30T13:21:54.000Z</time>
      </trkpt>
      <trkpt lat="43.6188" lon="5.35591">
        <ele>327.79998779297</ele>
        <time>2019-11-30T13:21:55.000Z</time>
      </trkpt>
      <trkpt lat="43.61877" lon="5.35597">
        <ele>327.39999389648</ele>
        <time>2019-11-30T13:21:56.000Z</time>
      </trkpt>
      <trkpt lat="43.61875" lon="5.35603">
        <ele>327</ele>
        <time>2019-11-30T13:21:57.000Z</time>
      </trkpt>
      <trkpt lat="43.61873" lon="5.35607">
        <ele>326.79998779297</ele>
        <time>2019-11-30T13:21:58.000Z</time>
      </trkpt>
      <trkpt lat="43.61872" lon="5.3561">
        <ele>326.60000610352</ele>
        <time>2019-11-30T13:21:59.000Z</time>
      </trkpt>
      <trkpt lat="43.6187" lon="5.35614">
        <ele>326.20001220703</ele>
        <time>2019-11-30T13:22:00.000Z</time>
      </trkpt>
      <trkpt lat="43.61868" lon="5.35619">
        <ele>326</ele>
        <time>2019-11-30T13:22:01.000Z</time>
      </trkpt>
      <trkpt lat="43.61866" lon="5.35624">
        <ele>325.60000610352</ele>
        <time>2019-11-30T13:22:02.000Z</time>
      </trkpt>
      <trkpt lat="43.61864" lon="5.35628">
        <ele>325.39999389648</ele>
        <time>2019-11-30T13:22:03.000Z</time>
      </trkpt>
      <trkpt lat="43.61862" lon="5.35633">
        <ele>325.20001220703</ele>
        <time>2019-11-30T13:22:04.000Z</time>
      </trkpt>
      <trkpt lat="43.6186" lon="5.35637">
        <ele>325</ele>
        <time>2019-11-30T13:22:05.000Z</time>
      </trkpt>
      <trkpt lat="43.61858" lon="5.35642">
        <ele>324.79998779297</ele>
        <time>2019-11-30T13:22:06.000Z</time>
      </trkpt>
      <trkpt lat="43.61857" lon="5.35646">
        <ele>324.79998779297</ele>
        <time>2019-11-30T13:22:07.000Z</time>
      </trkpt>
      <trkpt lat="43.61855" lon="5.3565">
        <ele>324.60000610352</ele>
        <time>2019-11-30T13:22:08.000Z</time>
      </trkpt>
      <trkpt lat="43.61853" lon="5.35655">
        <ele>324.60000610352</ele>
        <time>2019-11-30T13:22:09.000Z</time>
      </trkpt>
      <trkpt lat="43.61851" lon="5.3566">
        <ele>324.60000610352</ele>
        <time>2019-11-30T13:22:10.000Z</time>
      </trkpt>
      <trkpt lat="43.61849" lon="5.35665">
        <ele>324.39999389648</ele>
        <time>2019-11-30T13:22:11.000Z</time>
      </trkpt>
      <trkpt lat="43.61847" lon="5.35669">
        <ele>324.39999389648</ele>
        <time>2019-11-30T13:22:12.000Z</time>
      </trkpt>
      <trkpt lat="43.61845" lon="5.35673">
        <ele>324.39999389648</ele>
        <time>2019-11-30T13:22:13.000Z</time>
      </trkpt>
      <trkpt lat="43.61843" lon="5.35677">
        <ele>324.20001220703</ele>
        <time>2019-11-30T13:22:14.000Z</time>
      </trkpt>
      <trkpt lat="43.61842" lon="5.3568">
        <ele>324.20001220703</ele>
        <time>2019-11-30T13:22:15.000Z</time>
      </trkpt>
      <trkpt lat="43.61841" lon="5.35683">
        <ele>324.20001220703</ele>
        <time>2019-11-30T13:22:16.000Z</time>
      </trkpt>
      <trkpt lat="43.61839" lon="5.35687">
        <ele>324.20001220703</ele>
        <time>2019-11-30T13:22:17.000Z</time>
      </trkpt>
      <trkpt lat="43.61837" lon="5.35691">
        <ele>324.20001220703</ele>
        <time>2019-11-30T13:22:18.000Z</time>
      </trkpt>
      <trkpt lat="43.61835" lon="5.35696">
        <ele>324</ele>
        <time>2019-11-30T13:22:19.000Z</time>
      </trkpt>
      <trkpt lat="43.61833" lon="5.357">
        <ele>324</ele>
        <time>2019-11-30T13:22:20.000Z</time>
      </trkpt>
      <trkpt lat="43.61831" lon="5.35705">
        <ele>323.79998779297</ele>
        <time>2019-11-30T13:22:21.000Z</time>
      </trkpt>
      <trkpt lat="43.61829" lon="5.3571">
        <ele>323.60000610352</ele>
        <time>2019-11-30T13:22:22.000Z</time>
      </trkpt>
      <trkpt lat="43.61827" lon="5.35715">
        <ele>323.60000610352</ele>
        <time>2019-11-30T13:22:23.000Z</time>
      </trkpt>
      <trkpt lat="43.61825" lon="5.3572">
        <ele>323.39999389648</ele>
        <time>2019-11-30T13:22:24.000Z</time>
      </trkpt>
      <trkpt lat="43.61857" lon="5.35772">
        <ele>331.39999389648</ele>
        <time>2019-11-30T13:22:25.000Z</time>
      </trkpt>
      <trkpt lat="43.61853" lon="5.35777">
        <ele>331.20001220703</ele>
        <time>2019-11-30T13:22:26.000Z</time>
      </trkpt>
      <trkpt lat="43.61852" lon="5.35783">
        <ele>331.20001220703</ele>
        <time>2019-11-30T13:22:27.000Z</time>
      </trkpt>
      <trkpt lat="43.61851" lon="5.35789">
        <ele>331.39999389648</ele>
        <time>2019-11-30T13:22:28.000Z</time>
      </trkpt>
      <trkpt lat="43.61851" lon="5.35796">
        <ele>331.60000610352</ele>
        <time>2019-11-30T13:22:29.000Z</time>
      </trkpt>
      <trkpt lat="43.6185" lon="5.35802">
        <ele>331.79998779297</ele>
        <time>2019-11-30T13:22:30.000Z</time>
      </trkpt>
      <trkpt lat="43.61848" lon="5.35806">
        <ele>331.60000610352</ele>
        <time>2019-11-30T13:22:31.000Z</time>
      </trkpt>
      <trkpt lat="43.61847" lon="5.35811">
        <ele>331.60000610352</ele>
        <time>2019-11-30T13:22:32.000Z</time>
      </trkpt>
      <trkpt lat="43.61846" lon="5.35813">
        <ele>331.39999389648</ele>
        <time>2019-11-30T13:22:33.000Z</time>
      </trkpt>
      <trkpt lat="43.61844" lon="5.35817">
        <ele>331.20001220703</ele>
        <time>2019-11-30T13:22:34.000Z</time>
      </trkpt>
      <trkpt lat="43.61844" lon="5.35821">
        <ele>331.39999389648</ele>
        <time>2019-11-30T13:22:35.000Z</time>
      </trkpt>
      <trkpt lat="43.61845" lon="5.35823">
        <ele>331.60000610352</ele>
        <time>2019-11-30T13:22:36.000Z</time>
      </trkpt>
      <trkpt lat="43.61845" lon="5.35827">
        <ele>331.79998779297</ele>
        <time>2019-11-30T13:22:37.000Z</time>
      </trkpt>
      <trkpt lat="43.61842" lon="5.3583">
        <ele>331.60000610352</ele>
        <time>2019-11-30T13:22:38.000Z</time>
      </trkpt>
      <trkpt lat="43.61843" lon="5.35831">
        <ele>331.60000610352</ele>
        <time>2019-11-30T13:22:39.000Z</time>
      </trkpt>
      <trkpt lat="43.61842" lon="5.35834">
        <ele>331.60000610352</ele>
        <time>2019-11-30T13:22:40.000Z</time>
      </trkpt>
      <trkpt lat="43.61843" lon="5.35838">
        <ele>331.79998779297</ele>
        <time>2019-11-30T13:22:41.000Z</time>
      </trkpt>
      <trkpt lat="43.61842" lon="5.35842">
        <ele>331.79998779297</ele>
        <time>2019-11-30T13:22:42.000Z</time>
      </trkpt>
      <trkpt lat="43.61841" lon="5.35845">
        <ele>331.79998779297</ele>
        <time>2019-11-30T13:22:43.000Z</time>
      </trkpt>
      <trkpt lat="43.61839" lon="5.35849">
        <ele>331.60000610352</ele>
        <time>2019-11-30T13:22:44.000Z</time>
      </trkpt>
      <trkpt lat="43.61838" lon="5.35852">
        <ele>331.60000610352</ele>
        <time>2019-11-30T13:22:45.000Z</time>
      </trkpt>
      <trkpt lat="43.61838" lon="5.35856">
        <ele>331.79998779297</ele>
        <time>2019-11-30T13:22:46.000Z</time>
      </trkpt>
      <trkpt lat="43.61838" lon="5.35861">
        <ele>332</ele>
        <time>2019-11-30T13:22:47.000Z</time>
      </trkpt>
      <trkpt lat="43.61838" lon="5.35865">
        <ele>332</ele>
        <time>2019-11-30T13:22:48.000Z</time>
      </trkpt>
      <trkpt lat="43.61838" lon="5.35868">
        <ele>332.20001220703</ele>
        <time>2019-11-30T13:22:49.000Z</time>
      </trkpt>
      <trkpt lat="43.61839" lon="5.35872">
        <ele>332.60000610352</ele>
        <time>2019-11-30T13:22:50.000Z</time>
      </trkpt>
      <trkpt lat="43.61839" lon="5.35876">
        <ele>332.79998779297</ele>
        <time>2019-11-30T13:22:51.000Z</time>
      </trkpt>
      <trkpt lat="43.61838" lon="5.35879">
        <ele>332.79998779297</ele>
        <time>2019-11-30T13:22:52.000Z</time>
      </trkpt>
      <trkpt lat="43.61838" lon="5.35883">
        <ele>332.79998779297</ele>
        <time>2019-11-30T13:22:53.000Z</time>
      </trkpt>
      <trkpt lat="43.61837" lon="5.35887">
        <ele>332.60000610352</ele>
        <time>2019-11-30T13:22:54.000Z</time>
      </trkpt>
      <trkpt lat="43.61837" lon="5.35892">
        <ele>332.39999389648</ele>
        <time>2019-11-30T13:22:55.000Z</time>
      </trkpt>
      <trkpt lat="43.61835" lon="5.35897">
        <ele>332.20001220703</ele>
        <time>2019-11-30T13:22:56.000Z</time>
      </trkpt>
      <trkpt lat="43.61836" lon="5.35901">
        <ele>332.20001220703</ele>
        <time>2019-11-30T13:22:57.000Z</time>
      </trkpt>
      <trkpt lat="43.61835" lon="5.35904">
        <ele>332</ele>
        <time>2019-11-30T13:22:58.000Z</time>
      </trkpt>
      <trkpt lat="43.61832" lon="5.35909">
        <ele>331.60000610352</ele>
        <time>2019-11-30T13:22:59.000Z</time>
      </trkpt>
      <trkpt lat="43.6183" lon="5.35914">
        <ele>331.20001220703</ele>
        <time>2019-11-30T13:23:00.000Z</time>
      </trkpt>
      <trkpt lat="43.61828" lon="5.35918">
        <ele>330.79998779297</ele>
        <time>2019-11-30T13:23:01.000Z</time>
      </trkpt>
      <trkpt lat="43.61828" lon="5.35923">
        <ele>330.60000610352</ele>
        <time>2019-11-30T13:23:02.000Z</time>
      </trkpt>
      <trkpt lat="43.61826" lon="5.35929">
        <ele>330.39999389648</ele>
        <time>2019-11-30T13:23:03.000Z</time>
      </trkpt>
      <trkpt lat="43.61827" lon="5.35935">
        <ele>330.39999389648</ele>
        <time>2019-11-30T13:23:04.000Z</time>
      </trkpt>
      <trkpt lat="43.61826" lon="5.3594">
        <ele>330.20001220703</ele>
        <time>2019-11-30T13:23:05.000Z</time>
      </trkpt>
      <trkpt lat="43.61824" lon="5.35943">
        <ele>330.39999389648</ele>
        <time>2019-11-30T13:23:06.000Z</time>
      </trkpt>
      <trkpt lat="43.61822" lon="5.35948">
        <ele>330.39999389648</ele>
        <time>2019-11-30T13:23:07.000Z</time>
      </trkpt>
      <trkpt lat="43.61819" lon="5.35954">
        <ele>330.39999389648</ele>
        <time>2019-11-30T13:23:08.000Z</time>
      </trkpt>
      <trkpt lat="43.61816" lon="5.35959">
        <ele>330.39999389648</ele>
        <time>2019-11-30T13:23:09.000Z</time>
      </trkpt>
      <trkpt lat="43.61814" lon="5.35965">
        <ele>330.39999389648</ele>
        <time>2019-11-30T13:23:10.000Z</time>
      </trkpt>
      <trkpt lat="43.61812" lon="5.35972">
        <ele>329.79998779297</ele>
        <time>2019-11-30T13:23:11.000Z</time>
      </trkpt>
      <trkpt lat="43.6181" lon="5.35979">
        <ele>329.20001220703</ele>
        <time>2019-11-30T13:23:12.000Z</time>
      </trkpt>
      <trkpt lat="43.61809" lon="5.35987">
        <ele>328.79998779297</ele>
        <time>2019-11-30T13:23:13.000Z</time>
      </trkpt>
      <trkpt lat="43.61807" lon="5.35993">
        <ele>328.20001220703</ele>
        <time>2019-11-30T13:23:14.000Z</time>
      </trkpt>
      <trkpt lat="43.61808" lon="5.35998">
        <ele>328.20001220703</ele>
        <time>2019-11-30T13:23:15.000Z</time>
      </trkpt>
      <trkpt lat="43.61809" lon="5.36002">
        <ele>328.20001220703</ele>
        <time>2019-11-30T13:23:16.000Z</time>
      </trkpt>
      <trkpt lat="43.61809" lon="5.36005">
        <ele>328</ele>
        <time>2019-11-30T13:23:17.000Z</time>
      </trkpt>
      <trkpt lat="43.61811" lon="5.36008">
        <ele>328</ele>
        <time>2019-11-30T13:23:18.000Z</time>
      </trkpt>
      <trkpt lat="43.61812" lon="5.36012">
        <ele>328.20001220703</ele>
        <time>2019-11-30T13:23:19.000Z</time>
      </trkpt>
      <trkpt lat="43.61811" lon="5.36016">
        <ele>328.20001220703</ele>
        <time>2019-11-30T13:23:20.000Z</time>
      </trkpt>
      <trkpt lat="43.61812" lon="5.36019">
        <ele>328.20001220703</ele>
        <time>2019-11-30T13:23:21.000Z</time>
      </trkpt>
      <trkpt lat="43.61814" lon="5.36024">
        <ele>328.39999389648</ele>
        <time>2019-11-30T13:23:22.000Z</time>
      </trkpt>
      <trkpt lat="43.61816" lon="5.36027">
        <ele>328.39999389648</ele>
        <time>2019-11-30T13:23:23.000Z</time>
      </trkpt>
      <trkpt lat="43.61817" lon="5.3603">
        <ele>328.60000610352</ele>
        <time>2019-11-30T13:23:24.000Z</time>
      </trkpt>
      <trkpt lat="43.61818" lon="5.36034">
        <ele>328.60000610352</ele>
        <time>2019-11-30T13:23:25.000Z</time>
      </trkpt>
      <trkpt lat="43.61817" lon="5.36037">
        <ele>328.60000610352</ele>
        <time>2019-11-30T13:23:26.000Z</time>
      </trkpt>
      <trkpt lat="43.61816" lon="5.3604">
        <ele>328.60000610352</ele>
        <time>2019-11-30T13:23:27.000Z</time>
      </trkpt>
      <trkpt lat="43.61816" lon="5.36045">
        <ele>328.60000610352</ele>
        <time>2019-11-30T13:23:28.000Z</time>
      </trkpt>
      <trkpt lat="43.61815" lon="5.3605">
        <ele>328.79998779297</ele>
        <time>2019-11-30T13:23:29.000Z</time>
      </trkpt>
      <trkpt lat="43.61813" lon="5.36054">
        <ele>328.79998779297</ele>
        <time>2019-11-30T13:23:30.000Z</time>
      </trkpt>
      <trkpt lat="43.61811" lon="5.36058">
        <ele>329</ele>
        <time>2019-11-30T13:23:31.000Z</time>
      </trkpt>
      <trkpt lat="43.6181" lon="5.36063">
        <ele>329</ele>
        <time>2019-11-30T13:23:32.000Z</time>
      </trkpt>
      <trkpt lat="43.6181" lon="5.36066">
        <ele>329.20001220703</ele>
        <time>2019-11-30T13:23:33.000Z</time>
      </trkpt>
      <trkpt lat="43.61809" lon="5.36069">
        <ele>329.20001220703</ele>
        <time>2019-11-30T13:23:34.000Z</time>
      </trkpt>
      <trkpt lat="43.6181" lon="5.36071">
        <ele>329.39999389648</ele>
        <time>2019-11-30T13:23:35.000Z</time>
      </trkpt>
      <trkpt lat="43.61811" lon="5.36074">
        <ele>329.39999389648</ele>
        <time>2019-11-30T13:23:36.000Z</time>
      </trkpt>
      <trkpt lat="43.61812" lon="5.36075">
        <ele>329.60000610352</ele>
        <time>2019-11-30T13:23:37.000Z</time>
      </trkpt>
      <trkpt lat="43.61812" lon="5.36075">
        <ele>329.60000610352</ele>
        <time>2019-11-30T13:23:38.000Z</time>
      </trkpt>
      <trkpt lat="43.61812" lon="5.36075">
        <ele>329.60000610352</ele>
        <time>2019-11-30T13:23:39.000Z</time>
      </trkpt>
      <trkpt lat="43.61812" lon="5.36075">
        <ele>329.60000610352</ele>
        <time>2019-11-30T13:23:40.000Z</time>
      </trkpt>
      <trkpt lat="43.61812" lon="5.36075">
        <ele>329.60000610352</ele>
        <time>2019-11-30T13:23:41.000Z</time>
      </trkpt>
      <trkpt lat="43.61812" lon="5.36075">
        <ele>329.60000610352</ele>
        <time>2019-11-30T13:23:42.000Z</time>
      </trkpt>
      <trkpt lat="43.61812" lon="5.36077">
        <ele>329.60000610352</ele>
        <time>2019-11-30T13:23:43.000Z</time>
      </trkpt>
      <trkpt lat="43.61814" lon="5.36079">
        <ele>329.79998779297</ele>
        <time>2019-11-30T13:23:44.000Z</time>
      </trkpt>
      <trkpt lat="43.61816" lon="5.36081">
        <ele>330</ele>
        <time>2019-11-30T13:23:45.000Z</time>
      </trkpt>
      <trkpt lat="43.61817" lon="5.36085">
        <ele>330</ele>
        <time>2019-11-30T13:23:46.000Z</time>
      </trkpt>
      <trkpt lat="43.61818" lon="5.36089">
        <ele>330.20001220703</ele>
        <time>2019-11-30T13:23:47.000Z</time>
      </trkpt>
      <trkpt lat="43.61818" lon="5.36093">
        <ele>330.39999389648</ele>
        <time>2019-11-30T13:23:48.000Z</time>
      </trkpt>
      <trkpt lat="43.61817" lon="5.36098">
        <ele>330.39999389648</ele>
        <time>2019-11-30T13:23:49.000Z</time>
      </trkpt>
      <trkpt lat="43.61817" lon="5.36103">
        <ele>330.60000610352</ele>
        <time>2019-11-30T13:23:50.000Z</time>
      </trkpt>
      <trkpt lat="43.61817" lon="5.36107">
        <ele>330.39999389648</ele>
        <time>2019-11-30T13:23:51.000Z</time>
      </trkpt>
      <trkpt lat="43.61819" lon="5.3611">
        <ele>330.60000610352</ele>
        <time>2019-11-30T13:23:52.000Z</time>
      </trkpt>
      <trkpt lat="43.61822" lon="5.36112">
        <ele>330.79998779297</ele>
        <time>2019-11-30T13:23:53.000Z</time>
      </trkpt>
      <trkpt lat="43.61823" lon="5.36115">
        <ele>331</ele>
        <time>2019-11-30T13:23:54.000Z</time>
      </trkpt>
      <trkpt lat="43.61824" lon="5.36118">
        <ele>331</ele>
        <time>2019-11-30T13:23:55.000Z</time>
      </trkpt>
      <trkpt lat="43.61824" lon="5.36121">
        <ele>331</ele>
        <time>2019-11-30T13:23:56.000Z</time>
      </trkpt>
      <trkpt lat="43.61824" lon="5.36125">
        <ele>331</ele>
        <time>2019-11-30T13:23:57.000Z</time>
      </trkpt>
      <trkpt lat="43.61824" lon="5.36128">
        <ele>331</ele>
        <time>2019-11-30T13:23:58.000Z</time>
      </trkpt>
      <trkpt lat="43.61824" lon="5.36131">
        <ele>331</ele>
        <time>2019-11-30T13:23:59.000Z</time>
      </trkpt>
      <trkpt lat="43.61825" lon="5.36133">
        <ele>331</ele>
        <time>2019-11-30T13:24:00.000Z</time>
      </trkpt>
      <trkpt lat="43.61825" lon="5.36135">
        <ele>331.20001220703</ele>
        <time>2019-11-30T13:24:01.000Z</time>
      </trkpt>
      <trkpt lat="43.61827" lon="5.36138">
        <ele>331.20001220703</ele>
        <time>2019-11-30T13:24:02.000Z</time>
      </trkpt>
      <trkpt lat="43.61827" lon="5.36142">
        <ele>331.39999389648</ele>
        <time>2019-11-30T13:24:03.000Z</time>
      </trkpt>
      <trkpt lat="43.61827" lon="5.36146">
        <ele>331.39999389648</ele>
        <time>2019-11-30T13:24:04.000Z</time>
      </trkpt>
      <trkpt lat="43.61828" lon="5.36149">
        <ele>331.60000610352</ele>
        <time>2019-11-30T13:24:05.000Z</time>
      </trkpt>
      <trkpt lat="43.61831" lon="5.36151">
        <ele>331.79998779297</ele>
        <time>2019-11-30T13:24:06.000Z</time>
      </trkpt>
      <trkpt lat="43.61833" lon="5.36153">
        <ele>332</ele>
        <time>2019-11-30T13:24:07.000Z</time>
      </trkpt>
      <trkpt lat="43.61836" lon="5.36155">
        <ele>332.20001220703</ele>
        <time>2019-11-30T13:24:08.000Z</time>
      </trkpt>
      <trkpt lat="43.61839" lon="5.36159">
        <ele>332.39999389648</ele>
        <time>2019-11-30T13:24:09.000Z</time>
      </trkpt>
      <trkpt lat="43.61841" lon="5.36162">
        <ele>332.60000610352</ele>
        <time>2019-11-30T13:24:10.000Z</time>
      </trkpt>
      <trkpt lat="43.61842" lon="5.36166">
        <ele>332.79998779297</ele>
        <time>2019-11-30T13:24:11.000Z</time>
      </trkpt>
      <trkpt lat="43.61843" lon="5.3617">
        <ele>332.79998779297</ele>
        <time>2019-11-30T13:24:12.000Z</time>
      </trkpt>
      <trkpt lat="43.61844" lon="5.36173">
        <ele>332.79998779297</ele>
        <time>2019-11-30T13:24:13.000Z</time>
      </trkpt>
      <trkpt lat="43.61843" lon="5.36176">
        <ele>333</ele>
        <time>2019-11-30T13:24:14.000Z</time>
      </trkpt>
      <trkpt lat="43.61843" lon="5.3618">
        <ele>333</ele>
        <time>2019-11-30T13:24:15.000Z</time>
      </trkpt>
      <trkpt lat="43.61843" lon="5.36182">
        <ele>333</ele>
        <time>2019-11-30T13:24:16.000Z</time>
      </trkpt>
      <trkpt lat="43.61846" lon="5.36184">
        <ele>333.20001220703</ele>
        <time>2019-11-30T13:24:17.000Z</time>
      </trkpt>
      <trkpt lat="43.61847" lon="5.36187">
        <ele>333.20001220703</ele>
        <time>2019-11-30T13:24:18.000Z</time>
      </trkpt>
      <trkpt lat="43.61847" lon="5.36189">
        <ele>333.39999389648</ele>
        <time>2019-11-30T13:24:19.000Z</time>
      </trkpt>
      <trkpt lat="43.61847" lon="5.36191">
        <ele>333.39999389648</ele>
        <time>2019-11-30T13:24:20.000Z</time>
      </trkpt>
      <trkpt lat="43.61849" lon="5.36193">
        <ele>333.39999389648</ele>
        <time>2019-11-30T13:24:21.000Z</time>
      </trkpt>
      <trkpt lat="43.6185" lon="5.36195">
        <ele>333.60000610352</ele>
        <time>2019-11-30T13:24:22.000Z</time>
      </trkpt>
      <trkpt lat="43.61852" lon="5.36198">
        <ele>333.79998779297</ele>
        <time>2019-11-30T13:24:23.000Z</time>
      </trkpt>
      <trkpt lat="43.61854" lon="5.36202">
        <ele>334</ele>
        <time>2019-11-30T13:24:24.000Z</time>
      </trkpt>
      <trkpt lat="43.61856" lon="5.36205">
        <ele>334.20001220703</ele>
        <time>2019-11-30T13:24:25.000Z</time>
      </trkpt>
      <trkpt lat="43.61857" lon="5.36208">
        <ele>334.39999389648</ele>
        <time>2019-11-30T13:24:26.000Z</time>
      </trkpt>
      <trkpt lat="43.61857" lon="5.36211">
        <ele>334.39999389648</ele>
        <time>2019-11-30T13:24:27.000Z</time>
      </trkpt>
      <trkpt lat="43.61859" lon="5.36215">
        <ele>334.60000610352</ele>
        <time>2019-11-30T13:24:28.000Z</time>
      </trkpt>
      <trkpt lat="43.61861" lon="5.36218">
        <ele>334.79998779297</ele>
        <time>2019-11-30T13:24:29.000Z</time>
      </trkpt>
      <trkpt lat="43.61863" lon="5.36218">
        <ele>335</ele>
        <time>2019-11-30T13:24:30.000Z</time>
      </trkpt>
      <trkpt lat="43.61865" lon="5.36218">
        <ele>335.20001220703</ele>
        <time>2019-11-30T13:24:31.000Z</time>
      </trkpt>
      <trkpt lat="43.61866" lon="5.36218">
        <ele>335.39999389648</ele>
        <time>2019-11-30T13:24:32.000Z</time>
      </trkpt>
      <trkpt lat="43.61867" lon="5.36221">
        <ele>335.60000610352</ele>
        <time>2019-11-30T13:24:33.000Z</time>
      </trkpt>
      <trkpt lat="43.6187" lon="5.36224">
        <ele>335.79998779297</ele>
        <time>2019-11-30T13:24:34.000Z</time>
      </trkpt>
      <trkpt lat="43.61872" lon="5.36226">
        <ele>336</ele>
        <time>2019-11-30T13:24:35.000Z</time>
      </trkpt>
      <trkpt lat="43.61874" lon="5.36228">
        <ele>336.20001220703</ele>
        <time>2019-11-30T13:24:36.000Z</time>
      </trkpt>
      <trkpt lat="43.61876" lon="5.36231">
        <ele>336.39999389648</ele>
        <time>2019-11-30T13:24:37.000Z</time>
      </trkpt>
      <trkpt lat="43.61877" lon="5.36232">
        <ele>336.60000610352</ele>
        <time>2019-11-30T13:24:38.000Z</time>
      </trkpt>
      <trkpt lat="43.61879" lon="5.36234">
        <ele>336.79998779297</ele>
        <time>2019-11-30T13:24:39.000Z</time>
      </trkpt>
      <trkpt lat="43.61882" lon="5.36236">
        <ele>337.20001220703</ele>
        <time>2019-11-30T13:24:40.000Z</time>
      </trkpt>
      <trkpt lat="43.61884" lon="5.36238">
        <ele>337.39999389648</ele>
        <time>2019-11-30T13:24:41.000Z</time>
      </trkpt>
      <trkpt lat="43.61887" lon="5.36241">
        <ele>337.60000610352</ele>
        <time>2019-11-30T13:24:42.000Z</time>
      </trkpt>
      <trkpt lat="43.61889" lon="5.36244">
        <ele>338</ele>
        <time>2019-11-30T13:24:43.000Z</time>
      </trkpt>
      <trkpt lat="43.61892" lon="5.36246">
        <ele>338.20001220703</ele>
        <time>2019-11-30T13:24:44.000Z</time>
      </trkpt>
      <trkpt lat="43.61894" lon="5.36251">
        <ele>338.39999389648</ele>
        <time>2019-11-30T13:24:45.000Z</time>
      </trkpt>
      <trkpt lat="43.61896" lon="5.36253">
        <ele>338.79998779297</ele>
        <time>2019-11-30T13:24:46.000Z</time>
      </trkpt>
      <trkpt lat="43.61897" lon="5.36257">
        <ele>338.79998779297</ele>
        <time>2019-11-30T13:24:47.000Z</time>
      </trkpt>
      <trkpt lat="43.61899" lon="5.36265">
        <ele>339</ele>
        <time>2019-11-30T13:24:48.000Z</time>
      </trkpt>
      <trkpt lat="43.619" lon="5.36273">
        <ele>339</ele>
        <time>2019-11-30T13:24:49.000Z</time>
      </trkpt>
      <trkpt lat="43.61901" lon="5.3628">
        <ele>339.20001220703</ele>
        <time>2019-11-30T13:24:50.000Z</time>
      </trkpt>
      <trkpt lat="43.61901" lon="5.36287">
        <ele>339</ele>
        <time>2019-11-30T13:24:51.000Z</time>
      </trkpt>
      <trkpt lat="43.61901" lon="5.36292">
        <ele>339</ele>
        <time>2019-11-30T13:24:52.000Z</time>
      </trkpt>
      <trkpt lat="43.61901" lon="5.36297">
        <ele>339</ele>
        <time>2019-11-30T13:24:53.000Z</time>
      </trkpt>
      <trkpt lat="43.61903" lon="5.36302">
        <ele>338.79998779297</ele>
        <time>2019-11-30T13:24:54.000Z</time>
      </trkpt>
      <trkpt lat="43.61903" lon="5.36306">
        <ele>338.60000610352</ele>
        <time>2019-11-30T13:24:55.000Z</time>
      </trkpt>
      <trkpt lat="43.61904" lon="5.3631">
        <ele>338.39999389648</ele>
        <time>2019-11-30T13:24:56.000Z</time>
      </trkpt>
      <trkpt lat="43.61906" lon="5.36314">
        <ele>338.20001220703</ele>
        <time>2019-11-30T13:24:57.000Z</time>
      </trkpt>
      <trkpt lat="43.61906" lon="5.3632">
        <ele>337.79998779297</ele>
        <time>2019-11-30T13:24:58.000Z</time>
      </trkpt>
      <trkpt lat="43.61908" lon="5.36323">
        <ele>337.79998779297</ele>
        <time>2019-11-30T13:24:59.000Z</time>
      </trkpt>
      <trkpt lat="43.6191" lon="5.36328">
        <ele>337.79998779297</ele>
        <time>2019-11-30T13:25:00.000Z</time>
      </trkpt>
      <trkpt lat="43.61912" lon="5.36332">
        <ele>337.79998779297</ele>
        <time>2019-11-30T13:25:01.000Z</time>
      </trkpt>
      <trkpt lat="43.61914" lon="5.36338">
        <ele>337.60000610352</ele>
        <time>2019-11-30T13:25:02.000Z</time>
      </trkpt>
      <trkpt lat="43.61917" lon="5.36342">
        <ele>337.60000610352</ele>
        <time>2019-11-30T13:25:03.000Z</time>
      </trkpt>
      <trkpt lat="43.61919" lon="5.36348">
        <ele>337.39999389648</ele>
        <time>2019-11-30T13:25:04.000Z</time>
      </trkpt>
      <trkpt lat="43.6192" lon="5.36354">
        <ele>337.20001220703</ele>
        <time>2019-11-30T13:25:05.000Z</time>
      </trkpt>
      <trkpt lat="43.61922" lon="5.36359">
        <ele>337</ele>
        <time>2019-11-30T13:25:06.000Z</time>
      </trkpt>
      <trkpt lat="43.61923" lon="5.36364">
        <ele>336.79998779297</ele>
        <time>2019-11-30T13:25:07.000Z</time>
      </trkpt>
      <trkpt lat="43.61926" lon="5.36368">
        <ele>336.79998779297</ele>
        <time>2019-11-30T13:25:08.000Z</time>
      </trkpt>
      <trkpt lat="43.61929" lon="5.36371">
        <ele>337</ele>
        <time>2019-11-30T13:25:09.000Z</time>
      </trkpt>
      <trkpt lat="43.61931" lon="5.36375">
        <ele>337</ele>
        <time>2019-11-30T13:25:10.000Z</time>
      </trkpt>
      <trkpt lat="43.61934" lon="5.36378">
        <ele>337.20001220703</ele>
        <time>2019-11-30T13:25:11.000Z</time>
      </trkpt>
      <trkpt lat="43.61937" lon="5.36381">
        <ele>337.20001220703</ele>
        <time>2019-11-30T13:25:12.000Z</time>
      </trkpt>
      <trkpt lat="43.61939" lon="5.36385">
        <ele>337.20001220703</ele>
        <time>2019-11-30T13:25:13.000Z</time>
      </trkpt>
      <trkpt lat="43.6194" lon="5.36388">
        <ele>337.39999389648</ele>
        <time>2019-11-30T13:25:14.000Z</time>
      </trkpt>
      <trkpt lat="43.61942" lon="5.36386">
        <ele>337.39999389648</ele>
        <time>2019-11-30T13:25:15.000Z</time>
      </trkpt>
      <trkpt lat="43.61944" lon="5.36383">
        <ele>337.60000610352</ele>
        <time>2019-11-30T13:25:16.000Z</time>
      </trkpt>
      <trkpt lat="43.61946" lon="5.36381">
        <ele>337.60000610352</ele>
        <time>2019-11-30T13:25:17.000Z</time>
      </trkpt>
      <trkpt lat="43.61948" lon="5.36381">
        <ele>337.79998779297</ele>
        <time>2019-11-30T13:25:18.000Z</time>
      </trkpt>
      <trkpt lat="43.61951" lon="5.36382">
        <ele>338</ele>
        <time>2019-11-30T13:25:19.000Z</time>
      </trkpt>
      <trkpt lat="43.61954" lon="5.36383">
        <ele>338.20001220703</ele>
        <time>2019-11-30T13:25:20.000Z</time>
      </trkpt>
      <trkpt lat="43.61957" lon="5.36385">
        <ele>338.39999389648</ele>
        <time>2019-11-30T13:25:21.000Z</time>
      </trkpt>
      <trkpt lat="43.61959" lon="5.36391">
        <ele>338.60000610352</ele>
        <time>2019-11-30T13:25:22.000Z</time>
      </trkpt>
      <trkpt lat="43.6196" lon="5.36397">
        <ele>338.60000610352</ele>
        <time>2019-11-30T13:25:23.000Z</time>
      </trkpt>
      <trkpt lat="43.61961" lon="5.36403">
        <ele>338.79998779297</ele>
        <time>2019-11-30T13:25:24.000Z</time>
      </trkpt>
      <trkpt lat="43.61963" lon="5.3641">
        <ele>339</ele>
        <time>2019-11-30T13:25:25.000Z</time>
      </trkpt>
      <trkpt lat="43.61965" lon="5.36416">
        <ele>339.20001220703</ele>
        <time>2019-11-30T13:25:26.000Z</time>
      </trkpt>
      <trkpt lat="43.61967" lon="5.36422">
        <ele>339.39999389648</ele>
        <time>2019-11-30T13:25:27.000Z</time>
      </trkpt>
      <trkpt lat="43.61969" lon="5.36429">
        <ele>339.60000610352</ele>
        <time>2019-11-30T13:25:28.000Z</time>
      </trkpt>
      <trkpt lat="43.6197" lon="5.36436">
        <ele>339.79998779297</ele>
        <time>2019-11-30T13:25:29.000Z</time>
      </trkpt>
      <trkpt lat="43.61971" lon="5.36445">
        <ele>339.79998779297</ele>
        <time>2019-11-30T13:25:30.000Z</time>
      </trkpt>
      <trkpt lat="43.61971" lon="5.36452">
        <ele>340</ele>
        <time>2019-11-30T13:25:31.000Z</time>
      </trkpt>
      <trkpt lat="43.61971" lon="5.36459">
        <ele>340</ele>
        <time>2019-11-30T13:25:32.000Z</time>
      </trkpt>
      <trkpt lat="43.61971" lon="5.36466">
        <ele>340.20001220703</ele>
        <time>2019-11-30T13:25:33.000Z</time>
      </trkpt>
      <trkpt lat="43.61971" lon="5.36472">
        <ele>340.20001220703</ele>
        <time>2019-11-30T13:25:34.000Z</time>
      </trkpt>
      <trkpt lat="43.61971" lon="5.36478">
        <ele>340.20001220703</ele>
        <time>2019-11-30T13:25:35.000Z</time>
      </trkpt>
      <trkpt lat="43.61972" lon="5.36484">
        <ele>340.20001220703</ele>
        <time>2019-11-30T13:25:36.000Z</time>
      </trkpt>
      <trkpt lat="43.61974" lon="5.36487">
        <ele>340.39999389648</ele>
        <time>2019-11-30T13:25:37.000Z</time>
      </trkpt>
      <trkpt lat="43.61977" lon="5.3649">
        <ele>340.39999389648</ele>
        <time>2019-11-30T13:25:38.000Z</time>
      </trkpt>
      <trkpt lat="43.61978" lon="5.36494">
        <ele>340.60000610352</ele>
        <time>2019-11-30T13:25:39.000Z</time>
      </trkpt>
      <trkpt lat="43.61978" lon="5.36499">
        <ele>340.60000610352</ele>
        <time>2019-11-30T13:25:40.000Z</time>
      </trkpt>
      <trkpt lat="43.61977" lon="5.36503">
        <ele>340.60000610352</ele>
        <time>2019-11-30T13:25:41.000Z</time>
      </trkpt>
      <trkpt lat="43.61976" lon="5.36506">
        <ele>340.39999389648</ele>
        <time>2019-11-30T13:25:42.000Z</time>
      </trkpt>
      <trkpt lat="43.61973" lon="5.3651">
        <ele>340.60000610352</ele>
        <time>2019-11-30T13:25:43.000Z</time>
      </trkpt>
      <trkpt lat="43.61971" lon="5.36514">
        <ele>340.79998779297</ele>
        <time>2019-11-30T13:25:44.000Z</time>
      </trkpt>
      <trkpt lat="43.61969" lon="5.36518">
        <ele>341</ele>
        <time>2019-11-30T13:25:45.000Z</time>
      </trkpt>
      <trkpt lat="43.61968" lon="5.36522">
        <ele>341.20001220703</ele>
        <time>2019-11-30T13:25:46.000Z</time>
      </trkpt>
      <trkpt lat="43.61966" lon="5.36526">
        <ele>341.39999389648</ele>
        <time>2019-11-30T13:25:47.000Z</time>
      </trkpt>
      <trkpt lat="43.61964" lon="5.3653">
        <ele>341.39999389648</ele>
        <time>2019-11-30T13:25:48.000Z</time>
      </trkpt>
      <trkpt lat="43.61962" lon="5.36535">
        <ele>341.79998779297</ele>
        <time>2019-11-30T13:25:49.000Z</time>
      </trkpt>
      <trkpt lat="43.61963" lon="5.3654">
        <ele>342</ele>
        <time>2019-11-30T13:25:50.000Z</time>
      </trkpt>
      <trkpt lat="43.61964" lon="5.36545">
        <ele>342.20001220703</ele>
        <time>2019-11-30T13:25:51.000Z</time>
      </trkpt>
      <trkpt lat="43.61964" lon="5.3655">
        <ele>342.39999389648</ele>
        <time>2019-11-30T13:25:52.000Z</time>
      </trkpt>
      <trkpt lat="43.61964" lon="5.36555">
        <ele>342.39999389648</ele>
        <time>2019-11-30T13:25:53.000Z</time>
      </trkpt>
      <trkpt lat="43.61963" lon="5.3656">
        <ele>342.39999389648</ele>
        <time>2019-11-30T13:25:54.000Z</time>
      </trkpt>
      <trkpt lat="43.61963" lon="5.36566">
        <ele>342.60000610352</ele>
        <time>2019-11-30T13:25:55.000Z</time>
      </trkpt>
      <trkpt lat="43.61965" lon="5.3657">
        <ele>342.60000610352</ele>
        <time>2019-11-30T13:25:56.000Z</time>
      </trkpt>
      <trkpt lat="43.61965" lon="5.36575">
        <ele>342.60000610352</ele>
        <time>2019-11-30T13:25:57.000Z</time>
      </trkpt>
      <trkpt lat="43.61965" lon="5.36579">
        <ele>342.79998779297</ele>
        <time>2019-11-30T13:25:58.000Z</time>
      </trkpt>
      <trkpt lat="43.61965" lon="5.36583">
        <ele>343</ele>
        <time>2019-11-30T13:25:59.000Z</time>
      </trkpt>
      <trkpt lat="43.61964" lon="5.36587">
        <ele>343</ele>
        <time>2019-11-30T13:26:00.000Z</time>
      </trkpt>
      <trkpt lat="43.61962" lon="5.36591">
        <ele>343.20001220703</ele>
        <time>2019-11-30T13:26:01.000Z</time>
      </trkpt>
      <trkpt lat="43.61959" lon="5.36595">
        <ele>343.39999389648</ele>
        <time>2019-11-30T13:26:02.000Z</time>
      </trkpt>
      <trkpt lat="43.61957" lon="5.36598">
        <ele>343.60000610352</ele>
        <time>2019-11-30T13:26:03.000Z</time>
      </trkpt>
      <trkpt lat="43.61957" lon="5.36601">
        <ele>343.60000610352</ele>
        <time>2019-11-30T13:26:04.000Z</time>
      </trkpt>
      <trkpt lat="43.61957" lon="5.36605">
        <ele>343.79998779297</ele>
        <time>2019-11-30T13:26:05.000Z</time>
      </trkpt>
      <trkpt lat="43.61955" lon="5.36611">
        <ele>344</ele>
        <time>2019-11-30T13:26:06.000Z</time>
      </trkpt>
      <trkpt lat="43.61953" lon="5.36615">
        <ele>344.20001220703</ele>
        <time>2019-11-30T13:26:07.000Z</time>
      </trkpt>
      <trkpt lat="43.61951" lon="5.36619">
        <ele>344.39999389648</ele>
        <time>2019-11-30T13:26:08.000Z</time>
      </trkpt>
      <trkpt lat="43.61951" lon="5.36623">
        <ele>344.60000610352</ele>
        <time>2019-11-30T13:26:09.000Z</time>
      </trkpt>
      <trkpt lat="43.61952" lon="5.36626">
        <ele>344.60000610352</ele>
        <time>2019-11-30T13:26:10.000Z</time>
      </trkpt>
      <trkpt lat="43.61954" lon="5.36629">
        <ele>344.60000610352</ele>
        <time>2019-11-30T13:26:11.000Z</time>
      </trkpt>
      <trkpt lat="43.61957" lon="5.36631">
        <ele>344.79998779297</ele>
        <time>2019-11-30T13:26:12.000Z</time>
      </trkpt>
      <trkpt lat="43.61959" lon="5.36635">
        <ele>344.79998779297</ele>
        <time>2019-11-30T13:26:13.000Z</time>
      </trkpt>
      <trkpt lat="43.6196" lon="5.36637">
        <ele>344.79998779297</ele>
        <time>2019-11-30T13:26:14.000Z</time>
      </trkpt>
      <trkpt lat="43.61963" lon="5.3664">
        <ele>344.79998779297</ele>
        <time>2019-11-30T13:26:15.000Z</time>
      </trkpt>
      <trkpt lat="43.61964" lon="5.36643">
        <ele>345</ele>
        <time>2019-11-30T13:26:16.000Z</time>
      </trkpt>
      <trkpt lat="43.61967" lon="5.36647">
        <ele>345</ele>
        <time>2019-11-30T13:26:17.000Z</time>
      </trkpt>
      <trkpt lat="43.61969" lon="5.36651">
        <ele>345</ele>
        <time>2019-11-30T13:26:18.000Z</time>
      </trkpt>
      <trkpt lat="43.61969" lon="5.36656">
        <ele>345.20001220703</ele>
        <time>2019-11-30T13:26:19.000Z</time>
      </trkpt>
      <trkpt lat="43.61971" lon="5.3666">
        <ele>345.20001220703</ele>
        <time>2019-11-30T13:26:20.000Z</time>
      </trkpt>
      <trkpt lat="43.61971" lon="5.36663">
        <ele>345.39999389648</ele>
        <time>2019-11-30T13:26:21.000Z</time>
      </trkpt>
      <trkpt lat="43.61971" lon="5.36667">
        <ele>345.39999389648</ele>
        <time>2019-11-30T13:26:22.000Z</time>
      </trkpt>
      <trkpt lat="43.6197" lon="5.36671">
        <ele>345.39999389648</ele>
        <time>2019-11-30T13:26:23.000Z</time>
      </trkpt>
      <trkpt lat="43.6197" lon="5.36674">
        <ele>345.60000610352</ele>
        <time>2019-11-30T13:26:24.000Z</time>
      </trkpt>
      <trkpt lat="43.61969" lon="5.36677">
        <ele>345.60000610352</ele>
        <time>2019-11-30T13:26:25.000Z</time>
      </trkpt>
      <trkpt lat="43.61967" lon="5.3668">
        <ele>345.60000610352</ele>
        <time>2019-11-30T13:26:26.000Z</time>
      </trkpt>
      <trkpt lat="43.61964" lon="5.36683">
        <ele>345.60000610352</ele>
        <time>2019-11-30T13:26:27.000Z</time>
      </trkpt>
      <trkpt lat="43.6196" lon="5.36684">
        <ele>345.60000610352</ele>
        <time>2019-11-30T13:26:28.000Z</time>
      </trkpt>
      <trkpt lat="43.61958" lon="5.36685">
        <ele>345.60000610352</ele>
        <time>2019-11-30T13:26:29.000Z</time>
      </trkpt>
      <trkpt lat="43.61955" lon="5.36688">
        <ele>345.60000610352</ele>
        <time>2019-11-30T13:26:30.000Z</time>
      </trkpt>
      <trkpt lat="43.61955" lon="5.36691">
        <ele>345.79998779297</ele>
        <time>2019-11-30T13:26:31.000Z</time>
      </trkpt>
      <trkpt lat="43.61956" lon="5.36696">
        <ele>345.79998779297</ele>
        <time>2019-11-30T13:26:32.000Z</time>
      </trkpt>
      <trkpt lat="43.61958" lon="5.36701">
        <ele>345.79998779297</ele>
        <time>2019-11-30T13:26:33.000Z</time>
      </trkpt>
      <trkpt lat="43.61959" lon="5.36705">
        <ele>345.79998779297</ele>
        <time>2019-11-30T13:26:34.000Z</time>
      </trkpt>
      <trkpt lat="43.61959" lon="5.3671">
        <ele>346</ele>
        <time>2019-11-30T13:26:35.000Z</time>
      </trkpt>
      <trkpt lat="43.6196" lon="5.36713">
        <ele>346</ele>
        <time>2019-11-30T13:26:36.000Z</time>
      </trkpt>
      <trkpt lat="43.61962" lon="5.36717">
        <ele>346.20001220703</ele>
        <time>2019-11-30T13:26:37.000Z</time>
      </trkpt>
      <trkpt lat="43.61962" lon="5.36721">
        <ele>346.39999389648</ele>
        <time>2019-11-30T13:26:38.000Z</time>
      </trkpt>
      <trkpt lat="43.61962" lon="5.36725">
        <ele>346.60000610352</ele>
        <time>2019-11-30T13:26:39.000Z</time>
      </trkpt>
      <trkpt lat="43.61962" lon="5.3673">
        <ele>346.79998779297</ele>
        <time>2019-11-30T13:26:40.000Z</time>
      </trkpt>
      <trkpt lat="43.61963" lon="5.36734">
        <ele>347</ele>
        <time>2019-11-30T13:26:41.000Z</time>
      </trkpt>
      <trkpt lat="43.61963" lon="5.36738">
        <ele>347.20001220703</ele>
        <time>2019-11-30T13:26:42.000Z</time>
      </trkpt>
      <trkpt lat="43.61964" lon="5.36742">
        <ele>347.20001220703</ele>
        <time>2019-11-30T13:26:43.000Z</time>
      </trkpt>
      <trkpt lat="43.61965" lon="5.36745">
        <ele>347.39999389648</ele>
        <time>2019-11-30T13:26:44.000Z</time>
      </trkpt>
      <trkpt lat="43.61965" lon="5.3675">
        <ele>347.60000610352</ele>
        <time>2019-11-30T13:26:45.000Z</time>
      </trkpt>
      <trkpt lat="43.61965" lon="5.36754">
        <ele>347.60000610352</ele>
        <time>2019-11-30T13:26:46.000Z</time>
      </trkpt>
      <trkpt lat="43.61965" lon="5.36757">
        <ele>347.79998779297</ele>
        <time>2019-11-30T13:26:47.000Z</time>
      </trkpt>
      <trkpt lat="43.61966" lon="5.36761">
        <ele>347.79998779297</ele>
        <time>2019-11-30T13:26:48.000Z</time>
      </trkpt>
      <trkpt lat="43.61966" lon="5.36764">
        <ele>348</ele>
        <time>2019-11-30T13:26:49.000Z</time>
      </trkpt>
      <trkpt lat="43.61966" lon="5.36768">
        <ele>348</ele>
        <time>2019-11-30T13:26:50.000Z</time>
      </trkpt>
      <trkpt lat="43.61966" lon="5.36772">
        <ele>348.20001220703</ele>
        <time>2019-11-30T13:26:51.000Z</time>
      </trkpt>
      <trkpt lat="43.61967" lon="5.36776">
        <ele>348.20001220703</ele>
        <time>2019-11-30T13:26:52.000Z</time>
      </trkpt>
      <trkpt lat="43.61968" lon="5.3678">
        <ele>348.39999389648</ele>
        <time>2019-11-30T13:26:53.000Z</time>
      </trkpt>
      <trkpt lat="43.61969" lon="5.36783">
        <ele>348.39999389648</ele>
        <time>2019-11-30T13:26:54.000Z</time>
      </trkpt>
      <trkpt lat="43.61969" lon="5.36788">
        <ele>348.60000610352</ele>
        <time>2019-11-30T13:26:55.000Z</time>
      </trkpt>
      <trkpt lat="43.61969" lon="5.36792">
        <ele>348.60000610352</ele>
        <time>2019-11-30T13:26:56.000Z</time>
      </trkpt>
      <trkpt lat="43.61969" lon="5.36796">
        <ele>348.79998779297</ele>
        <time>2019-11-30T13:26:57.000Z</time>
      </trkpt>
      <trkpt lat="43.61969" lon="5.368">
        <ele>348.79998779297</ele>
        <time>2019-11-30T13:26:58.000Z</time>
      </trkpt>
      <trkpt lat="43.6197" lon="5.36803">
        <ele>348.79998779297</ele>
        <time>2019-11-30T13:26:59.000Z</time>
      </trkpt>
      <trkpt lat="43.61971" lon="5.36806">
        <ele>349</ele>
        <time>2019-11-30T13:27:00.000Z</time>
      </trkpt>
      <trkpt lat="43.6197" lon="5.36809">
        <ele>349</ele>
        <time>2019-11-30T13:27:01.000Z</time>
      </trkpt>
      <trkpt lat="43.61969" lon="5.36812">
        <ele>349</ele>
        <time>2019-11-30T13:27:02.000Z</time>
      </trkpt>
      <trkpt lat="43.61967" lon="5.36815">
        <ele>349</ele>
        <time>2019-11-30T13:27:03.000Z</time>
      </trkpt>
      <trkpt lat="43.61964" lon="5.36818">
        <ele>349</ele>
        <time>2019-11-30T13:27:04.000Z</time>
      </trkpt>
      <trkpt lat="43.61962" lon="5.3682">
        <ele>349</ele>
        <time>2019-11-30T13:27:05.000Z</time>
      </trkpt>
      <trkpt lat="43.61958" lon="5.36822">
        <ele>348.79998779297</ele>
        <time>2019-11-30T13:27:06.000Z</time>
      </trkpt>
      <trkpt lat="43.61955" lon="5.36824">
        <ele>348.79998779297</ele>
        <time>2019-11-30T13:27:07.000Z</time>
      </trkpt>
      <trkpt lat="43.61952" lon="5.36827">
        <ele>348.79998779297</ele>
        <time>2019-11-30T13:27:08.000Z</time>
      </trkpt>
      <trkpt lat="43.61949" lon="5.3683">
        <ele>348.79998779297</ele>
        <time>2019-11-30T13:27:09.000Z</time>
      </trkpt>
      <trkpt lat="43.61946" lon="5.36833">
        <ele>348.60000610352</ele>
        <time>2019-11-30T13:27:10.000Z</time>
      </trkpt>
      <trkpt lat="43.61942" lon="5.36836">
        <ele>348.60000610352</ele>
        <time>2019-11-30T13:27:11.000Z</time>
      </trkpt>
      <trkpt lat="43.61938" lon="5.36839">
        <ele>348.60000610352</ele>
        <time>2019-11-30T13:27:12.000Z</time>
      </trkpt>
      <trkpt lat="43.61936" lon="5.36842">
        <ele>348.60000610352</ele>
        <time>2019-11-30T13:27:13.000Z</time>
      </trkpt>
      <trkpt lat="43.61932" lon="5.36845">
        <ele>348.60000610352</ele>
        <time>2019-11-30T13:27:14.000Z</time>
      </trkpt>
      <trkpt lat="43.61929" lon="5.36847">
        <ele>348.79998779297</ele>
        <time>2019-11-30T13:27:15.000Z</time>
      </trkpt>
      <trkpt lat="43.61925" lon="5.3685">
        <ele>348.79998779297</ele>
        <time>2019-11-30T13:27:16.000Z</time>
      </trkpt>
      <trkpt lat="43.61923" lon="5.36852">
        <ele>349</ele>
        <time>2019-11-30T13:27:17.000Z</time>
      </trkpt>
      <trkpt lat="43.61919" lon="5.36855">
        <ele>349</ele>
        <time>2019-11-30T13:27:18.000Z</time>
      </trkpt>
      <trkpt lat="43.61916" lon="5.36859">
        <ele>349.20001220703</ele>
        <time>2019-11-30T13:27:19.000Z</time>
      </trkpt>
      <trkpt lat="43.61913" lon="5.36862">
        <ele>349.20001220703</ele>
        <time>2019-11-30T13:27:20.000Z</time>
      </trkpt>
      <trkpt lat="43.61909" lon="5.36865">
        <ele>349.39999389648</ele>
        <time>2019-11-30T13:27:21.000Z</time>
      </trkpt>
      <trkpt lat="43.61905" lon="5.36868">
        <ele>349.60000610352</ele>
        <time>2019-11-30T13:27:22.000Z</time>
      </trkpt>
      <trkpt lat="43.61902" lon="5.36871">
        <ele>349.60000610352</ele>
        <time>2019-11-30T13:27:23.000Z</time>
      </trkpt>
      <trkpt lat="43.61898" lon="5.36874">
        <ele>349.79998779297</ele>
        <time>2019-11-30T13:27:24.000Z</time>
      </trkpt>
      <trkpt lat="43.61895" lon="5.36878">
        <ele>350</ele>
        <time>2019-11-30T13:27:25.000Z</time>
      </trkpt>
      <trkpt lat="43.61892" lon="5.3688">
        <ele>350</ele>
        <time>2019-11-30T13:27:26.000Z</time>
      </trkpt>
      <trkpt lat="43.61889" lon="5.36882">
        <ele>350</ele>
        <time>2019-11-30T13:27:27.000Z</time>
      </trkpt>
      <trkpt lat="43.61885" lon="5.36884">
        <ele>350.20001220703</ele>
        <time>2019-11-30T13:27:28.000Z</time>
      </trkpt>
      <trkpt lat="43.61881" lon="5.36885">
        <ele>350.20001220703</ele>
        <time>2019-11-30T13:27:29.000Z</time>
      </trkpt>
      <trkpt lat="43.61877" lon="5.36886">
        <ele>350.39999389648</ele>
        <time>2019-11-30T13:27:30.000Z</time>
      </trkpt>
      <trkpt lat="43.61874" lon="5.36887">
        <ele>350.39999389648</ele>
        <time>2019-11-30T13:27:31.000Z</time>
      </trkpt>
      <trkpt lat="43.61871" lon="5.3689">
        <ele>350.39999389648</ele>
        <time>2019-11-30T13:27:32.000Z</time>
      </trkpt>
      <trkpt lat="43.61868" lon="5.36892">
        <ele>350.39999389648</ele>
        <time>2019-11-30T13:27:33.000Z</time>
      </trkpt>
      <trkpt lat="43.61866" lon="5.36894">
        <ele>350.60000610352</ele>
        <time>2019-11-30T13:27:34.000Z</time>
      </trkpt>
      <trkpt lat="43.61863" lon="5.36897">
        <ele>350.20001220703</ele>
        <time>2019-11-30T13:27:35.000Z</time>
      </trkpt>
      <trkpt lat="43.61862" lon="5.36899">
        <ele>350.20001220703</ele>
        <time>2019-11-30T13:27:36.000Z</time>
      </trkpt>
      <trkpt lat="43.61859" lon="5.36902">
        <ele>350</ele>
        <time>2019-11-30T13:27:37.000Z</time>
      </trkpt>
      <trkpt lat="43.61857" lon="5.36904">
        <ele>349.79998779297</ele>
        <time>2019-11-30T13:27:38.000Z</time>
      </trkpt>
      <trkpt lat="43.6186" lon="5.3691">
        <ele>349.39999389648</ele>
        <time>2019-11-30T13:27:39.000Z</time>
      </trkpt>
      <trkpt lat="43.6186" lon="5.36913">
        <ele>349.20001220703</ele>
        <time>2019-11-30T13:27:40.000Z</time>
      </trkpt>
      <trkpt lat="43.61861" lon="5.36916">
        <ele>349.20001220703</ele>
        <time>2019-11-30T13:27:41.000Z</time>
      </trkpt>
      <trkpt lat="43.61859" lon="5.36915">
        <ele>349.20001220703</ele>
        <time>2019-11-30T13:27:42.000Z</time>
      </trkpt>
      <trkpt lat="43.61858" lon="5.36916">
        <ele>349</ele>
        <time>2019-11-30T13:27:43.000Z</time>
      </trkpt>
      <trkpt lat="43.61858" lon="5.36916">
        <ele>349</ele>
        <time>2019-11-30T13:27:44.000Z</time>
      </trkpt>
      <trkpt lat="43.61858" lon="5.36916">
        <ele>349</ele>
        <time>2019-11-30T13:27:45.000Z</time>
      </trkpt>
      <trkpt lat="43.61858" lon="5.36916">
        <ele>349</ele>
        <time>2019-11-30T13:27:46.000Z</time>
      </trkpt>
      <trkpt lat="43.61858" lon="5.36916">
        <ele>349</ele>
        <time>2019-11-30T13:27:47.000Z</time>
      </trkpt>
      <trkpt lat="43.61858" lon="5.36916">
        <ele>349</ele>
        <time>2019-11-30T13:27:48.000Z</time>
      </trkpt>
      <trkpt lat="43.61858" lon="5.36916">
        <ele>349</ele>
        <time>2019-11-30T13:27:49.000Z</time>
      </trkpt>
      <trkpt lat="43.61858" lon="5.36916">
        <ele>349</ele>
        <time>2019-11-30T13:27:50.000Z</time>
      </trkpt>
      <trkpt lat="43.61858" lon="5.36916">
        <ele>349</ele>
        <time>2019-11-30T13:27:51.000Z</time>
      </trkpt>
      <trkpt lat="43.61858" lon="5.36916">
        <ele>349</ele>
        <time>2019-11-30T13:27:52.000Z</time>
      </trkpt>
      <trkpt lat="43.61858" lon="5.36916">
        <ele>349</ele>
        <time>2019-11-30T13:27:53.000Z</time>
      </trkpt>
      <trkpt lat="43.61858" lon="5.36916">
        <ele>349</ele>
        <time>2019-11-30T13:27:54.000Z</time>
      </trkpt>
      <trkpt lat="43.61858" lon="5.36916">
        <ele>349</ele>
        <time>2019-11-30T13:27:55.000Z</time>
      </trkpt>
      <trkpt lat="43.61857" lon="5.36918">
        <ele>349</ele>
        <time>2019-11-30T13:27:56.000Z</time>
      </trkpt>
      <trkpt lat="43.61856" lon="5.36919">
        <ele>348.79998779297</ele>
        <time>2019-11-30T13:27:57.000Z</time>
      </trkpt>
      <trkpt lat="43.61854" lon="5.36921">
        <ele>348.60000610352</ele>
        <time>2019-11-30T13:27:58.000Z</time>
      </trkpt>
      <trkpt lat="43.61851" lon="5.36922">
        <ele>348.60000610352</ele>
        <time>2019-11-30T13:27:59.000Z</time>
      </trkpt>
      <trkpt lat="43.6185" lon="5.36923">
        <ele>348.39999389648</ele>
        <time>2019-11-30T13:28:00.000Z</time>
      </trkpt>
      <trkpt lat="43.61847" lon="5.36925">
        <ele>348.20001220703</ele>
        <time>2019-11-30T13:28:01.000Z</time>
      </trkpt>
      <trkpt lat="43.61844" lon="5.36927">
        <ele>348</ele>
        <time>2019-11-30T13:28:02.000Z</time>
      </trkpt>
      <trkpt lat="43.6184" lon="5.36929">
        <ele>347.79998779297</ele>
        <time>2019-11-30T13:28:03.000Z</time>
      </trkpt>
      <trkpt lat="43.61836" lon="5.36932">
        <ele>347.60000610352</ele>
        <time>2019-11-30T13:28:04.000Z</time>
      </trkpt>
      <trkpt lat="43.61832" lon="5.36934">
        <ele>347.39999389648</ele>
        <time>2019-11-30T13:28:05.000Z</time>
      </trkpt>
      <trkpt lat="43.61828" lon="5.36935">
        <ele>347.20001220703</ele>
        <time>2019-11-30T13:28:06.000Z</time>
      </trkpt>
      <trkpt lat="43.61823" lon="5.36937">
        <ele>347</ele>
        <time>2019-11-30T13:28:07.000Z</time>
      </trkpt>
      <trkpt lat="43.61819" lon="5.36939">
        <ele>347.20001220703</ele>
        <time>2019-11-30T13:28:08.000Z</time>
      </trkpt>
      <trkpt lat="43.61815" lon="5.3694">
        <ele>347.39999389648</ele>
        <time>2019-11-30T13:28:09.000Z</time>
      </trkpt>
      <trkpt lat="43.61811" lon="5.36942">
        <ele>347.60000610352</ele>
        <time>2019-11-30T13:28:10.000Z</time>
      </trkpt>
      <trkpt lat="43.61808" lon="5.36944">
        <ele>347.79998779297</ele>
        <time>2019-11-30T13:28:11.000Z</time>
      </trkpt>
      <trkpt lat="43.61803" lon="5.36945">
        <ele>348.20001220703</ele>
        <time>2019-11-30T13:28:12.000Z</time>
      </trkpt>
      <trkpt lat="43.61799" lon="5.36945">
        <ele>348.39999389648</ele>
        <time>2019-11-30T13:28:13.000Z</time>
      </trkpt>
      <trkpt lat="43.61796" lon="5.36944">
        <ele>348.39999389648</ele>
        <time>2019-11-30T13:28:14.000Z</time>
      </trkpt>
      <trkpt lat="43.61793" lon="5.36942">
        <ele>348.60000610352</ele>
        <time>2019-11-30T13:28:15.000Z</time>
      </trkpt>
      <trkpt lat="43.61791" lon="5.36942">
        <ele>348.60000610352</ele>
        <time>2019-11-30T13:28:16.000Z</time>
      </trkpt>
      <trkpt lat="43.61788" lon="5.36941">
        <ele>348.79998779297</ele>
        <time>2019-11-30T13:28:17.000Z</time>
      </trkpt>
      <trkpt lat="43.61785" lon="5.36941">
        <ele>349</ele>
        <time>2019-11-30T13:28:18.000Z</time>
      </trkpt>
      <trkpt lat="43.61783" lon="5.3694">
        <ele>349</ele>
        <time>2019-11-30T13:28:19.000Z</time>
      </trkpt>
      <trkpt lat="43.6178" lon="5.36938">
        <ele>349.20001220703</ele>
        <time>2019-11-30T13:28:20.000Z</time>
      </trkpt>
      <trkpt lat="43.61779" lon="5.36937">
        <ele>349.20001220703</ele>
        <time>2019-11-30T13:28:21.000Z</time>
      </trkpt>
      <trkpt lat="43.61777" lon="5.36936">
        <ele>349.20001220703</ele>
        <time>2019-11-30T13:28:22.000Z</time>
      </trkpt>
      <trkpt lat="43.61776" lon="5.36937">
        <ele>349.39999389648</ele>
        <time>2019-11-30T13:28:23.000Z</time>
      </trkpt>
      <trkpt lat="43.61773" lon="5.36938">
        <ele>349.39999389648</ele>
        <time>2019-11-30T13:28:24.000Z</time>
      </trkpt>
      <trkpt lat="43.6177" lon="5.36939">
        <ele>349.60000610352</ele>
        <time>2019-11-30T13:28:25.000Z</time>
      </trkpt>
      <trkpt lat="43.61767" lon="5.36941">
        <ele>349.60000610352</ele>
        <time>2019-11-30T13:28:26.000Z</time>
      </trkpt>
      <trkpt lat="43.61764" lon="5.36945">
        <ele>349.39999389648</ele>
        <time>2019-11-30T13:28:27.000Z</time>
      </trkpt>
      <trkpt lat="43.61762" lon="5.36949">
        <ele>349.20001220703</ele>
        <time>2019-11-30T13:28:28.000Z</time>
      </trkpt>
      <trkpt lat="43.61758" lon="5.36953">
        <ele>348.79998779297</ele>
        <time>2019-11-30T13:28:29.000Z</time>
      </trkpt>
      <trkpt lat="43.61755" lon="5.36956">
        <ele>348.79998779297</ele>
        <time>2019-11-30T13:28:30.000Z</time>
      </trkpt>
      <trkpt lat="43.61751" lon="5.3696">
        <ele>348.60000610352</ele>
        <time>2019-11-30T13:28:31.000Z</time>
      </trkpt>
      <trkpt lat="43.61746" lon="5.36963">
        <ele>348.60000610352</ele>
        <time>2019-11-30T13:28:32.000Z</time>
      </trkpt>
      <trkpt lat="43.61743" lon="5.36967">
        <ele>348.39999389648</ele>
        <time>2019-11-30T13:28:33.000Z</time>
      </trkpt>
      <trkpt lat="43.61739" lon="5.36972">
        <ele>348.20001220703</ele>
        <time>2019-11-30T13:28:34.000Z</time>
      </trkpt>
      <trkpt lat="43.61734" lon="5.36977">
        <ele>348</ele>
        <time>2019-11-30T13:28:35.000Z</time>
      </trkpt>
      <trkpt lat="43.61731" lon="5.36981">
        <ele>348</ele>
        <time>2019-11-30T13:28:36.000Z</time>
      </trkpt>
      <trkpt lat="43.61727" lon="5.36985">
        <ele>347.79998779297</ele>
        <time>2019-11-30T13:28:37.000Z</time>
      </trkpt>
      <trkpt lat="43.61723" lon="5.36989">
        <ele>347.60000610352</ele>
        <time>2019-11-30T13:28:38.000Z</time>
      </trkpt>
      <trkpt lat="43.6172" lon="5.36992">
        <ele>347.39999389648</ele>
        <time>2019-11-30T13:28:39.000Z</time>
      </trkpt>
      <trkpt lat="43.61718" lon="5.36992">
        <ele>347.39999389648</ele>
        <time>2019-11-30T13:28:40.000Z</time>
      </trkpt>
      <trkpt lat="43.61716" lon="5.36993">
        <ele>347.20001220703</ele>
        <time>2019-11-30T13:28:41.000Z</time>
      </trkpt>
      <trkpt lat="43.61713" lon="5.36994">
        <ele>347</ele>
        <time>2019-11-30T13:28:42.000Z</time>
      </trkpt>
      <trkpt lat="43.61708" lon="5.36994">
        <ele>346.79998779297</ele>
        <time>2019-11-30T13:28:43.000Z</time>
      </trkpt>
      <trkpt lat="43.61703" lon="5.36993">
        <ele>346.39999389648</ele>
        <time>2019-11-30T13:28:44.000Z</time>
      </trkpt>
      <trkpt lat="43.617" lon="5.3699">
        <ele>346.20001220703</ele>
        <time>2019-11-30T13:28:45.000Z</time>
      </trkpt>
      <trkpt lat="43.61695" lon="5.36987">
        <ele>345.79998779297</ele>
        <time>2019-11-30T13:28:46.000Z</time>
      </trkpt>
      <trkpt lat="43.6169" lon="5.36983">
        <ele>345.39999389648</ele>
        <time>2019-11-30T13:28:47.000Z</time>
      </trkpt>
      <trkpt lat="43.61684" lon="5.36983">
        <ele>345</ele>
        <time>2019-11-30T13:28:48.000Z</time>
      </trkpt>
      <trkpt lat="43.61678" lon="5.36984">
        <ele>344</ele>
        <time>2019-11-30T13:28:49.000Z</time>
      </trkpt>
      <trkpt lat="43.61672" lon="5.36986">
        <ele>343.20001220703</ele>
        <time>2019-11-30T13:28:50.000Z</time>
      </trkpt>
      <trkpt lat="43.61667" lon="5.36991">
        <ele>342.39999389648</ele>
        <time>2019-11-30T13:28:51.000Z</time>
      </trkpt>
      <trkpt lat="43.61662" lon="5.36999">
        <ele>341.79998779297</ele>
        <time>2019-11-30T13:28:52.000Z</time>
      </trkpt>
      <trkpt lat="43.61659" lon="5.37007">
        <ele>341.39999389648</ele>
        <time>2019-11-30T13:28:53.000Z</time>
      </trkpt>
      <trkpt lat="43.61657" lon="5.37016">
        <ele>341.20001220703</ele>
        <time>2019-11-30T13:28:54.000Z</time>
      </trkpt>
      <trkpt lat="43.61655" lon="5.37027">
        <ele>341.39999389648</ele>
        <time>2019-11-30T13:28:55.000Z</time>
      </trkpt>
      <trkpt lat="43.61652" lon="5.37035">
        <ele>341.39999389648</ele>
        <time>2019-11-30T13:28:56.000Z</time>
      </trkpt>
      <trkpt lat="43.61648" lon="5.37042">
        <ele>341.39999389648</ele>
        <time>2019-11-30T13:28:57.000Z</time>
      </trkpt>
      <trkpt lat="43.61645" lon="5.37048">
        <ele>341.20001220703</ele>
        <time>2019-11-30T13:28:58.000Z</time>
      </trkpt>
      <trkpt lat="43.61641" lon="5.37054">
        <ele>340.60000610352</ele>
        <time>2019-11-30T13:28:59.000Z</time>
      </trkpt>
      <trkpt lat="43.61639" lon="5.37059">
        <ele>340.39999389648</ele>
        <time>2019-11-30T13:29:00.000Z</time>
      </trkpt>
      <trkpt lat="43.61636" lon="5.37063">
        <ele>340</ele>
        <time>2019-11-30T13:29:01.000Z</time>
      </trkpt>
      <trkpt lat="43.61635" lon="5.3707">
        <ele>339.79998779297</ele>
        <time>2019-11-30T13:29:02.000Z</time>
      </trkpt>
      <trkpt lat="43.61633" lon="5.37078">
        <ele>339.79998779297</ele>
        <time>2019-11-30T13:29:03.000Z</time>
      </trkpt>
      <trkpt lat="43.61632" lon="5.37084">
        <ele>339.60000610352</ele>
        <time>2019-11-30T13:29:04.000Z</time>
      </trkpt>
      <trkpt lat="43.6163" lon="5.37089">
        <ele>339.60000610352</ele>
        <time>2019-11-30T13:29:05.000Z</time>
      </trkpt>
      <trkpt lat="43.61628" lon="5.37094">
        <ele>339.39999389648</ele>
        <time>2019-11-30T13:29:06.000Z</time>
      </trkpt>
      <trkpt lat="43.61627" lon="5.37098">
        <ele>339.20001220703</ele>
        <time>2019-11-30T13:29:07.000Z</time>
      </trkpt>
      <trkpt lat="43.61626" lon="5.37103">
        <ele>339.20001220703</ele>
        <time>2019-11-30T13:29:08.000Z</time>
      </trkpt>
      <trkpt lat="43.61625" lon="5.3711">
        <ele>339.20001220703</ele>
        <time>2019-11-30T13:29:09.000Z</time>
      </trkpt>
      <trkpt lat="43.61623" lon="5.37115">
        <ele>339</ele>
        <time>2019-11-30T13:29:10.000Z</time>
      </trkpt>
      <trkpt lat="43.6162" lon="5.3712">
        <ele>338.79998779297</ele>
        <time>2019-11-30T13:29:11.000Z</time>
      </trkpt>
      <trkpt lat="43.61615" lon="5.37127">
        <ele>338.39999389648</ele>
        <time>2019-11-30T13:29:12.000Z</time>
      </trkpt>
      <trkpt lat="43.61612" lon="5.37132">
        <ele>338.20001220703</ele>
        <time>2019-11-30T13:29:13.000Z</time>
      </trkpt>
      <trkpt lat="43.61608" lon="5.37137">
        <ele>338</ele>
        <time>2019-11-30T13:29:14.000Z</time>
      </trkpt>
      <trkpt lat="43.61606" lon="5.37137">
        <ele>337.60000610352</ele>
        <time>2019-11-30T13:29:15.000Z</time>
      </trkpt>
      <trkpt lat="43.61601" lon="5.3714">
        <ele>337.20001220703</ele>
        <time>2019-11-30T13:29:16.000Z</time>
      </trkpt>
      <trkpt lat="43.61597" lon="5.37144">
        <ele>337</ele>
        <time>2019-11-30T13:29:17.000Z</time>
      </trkpt>
      <trkpt lat="43.61594" lon="5.37146">
        <ele>336.79998779297</ele>
        <time>2019-11-30T13:29:18.000Z</time>
      </trkpt>
      <trkpt lat="43.6159" lon="5.37148">
        <ele>336.60000610352</ele>
        <time>2019-11-30T13:29:19.000Z</time>
      </trkpt>
      <trkpt lat="43.61587" lon="5.37153">
        <ele>336.39999389648</ele>
        <time>2019-11-30T13:29:20.000Z</time>
      </trkpt>
      <trkpt lat="43.61589" lon="5.37159">
        <ele>336.79998779297</ele>
        <time>2019-11-30T13:29:21.000Z</time>
      </trkpt>
      <trkpt lat="43.6159" lon="5.37165">
        <ele>337</ele>
        <time>2019-11-30T13:29:22.000Z</time>
      </trkpt>
      <trkpt lat="43.6159" lon="5.37171">
        <ele>337.20001220703</ele>
        <time>2019-11-30T13:29:23.000Z</time>
      </trkpt>
      <trkpt lat="43.61591" lon="5.37176">
        <ele>337.60000610352</ele>
        <time>2019-11-30T13:29:24.000Z</time>
      </trkpt>
      <trkpt lat="43.61591" lon="5.37176">
        <ele>337.60000610352</ele>
        <time>2019-11-30T13:29:25.000Z</time>
      </trkpt>
      <trkpt lat="43.61594" lon="5.37183">
        <ele>338</ele>
        <time>2019-11-30T13:29:26.000Z</time>
      </trkpt>
      <trkpt lat="43.61595" lon="5.37188">
        <ele>338.39999389648</ele>
        <time>2019-11-30T13:29:27.000Z</time>
      </trkpt>
      <trkpt lat="43.61597" lon="5.37192">
        <ele>338.79998779297</ele>
        <time>2019-11-30T13:29:28.000Z</time>
      </trkpt>
      <trkpt lat="43.61597" lon="5.37204">
        <ele>339.20001220703</ele>
        <time>2019-11-30T13:29:29.000Z</time>
      </trkpt>
      <trkpt lat="43.61597" lon="5.3721">
        <ele>339.20001220703</ele>
        <time>2019-11-30T13:29:30.000Z</time>
      </trkpt>
      <trkpt lat="43.61596" lon="5.37215">
        <ele>339.39999389648</ele>
        <time>2019-11-30T13:29:31.000Z</time>
      </trkpt>
      <trkpt lat="43.61595" lon="5.3722">
        <ele>339.60000610352</ele>
        <time>2019-11-30T13:29:32.000Z</time>
      </trkpt>
      <trkpt lat="43.61594" lon="5.37225">
        <ele>339.79998779297</ele>
        <time>2019-11-30T13:29:33.000Z</time>
      </trkpt>
      <trkpt lat="43.61594" lon="5.3723">
        <ele>340.20001220703</ele>
        <time>2019-11-30T13:29:34.000Z</time>
      </trkpt>
      <trkpt lat="43.61593" lon="5.37235">
        <ele>340.39999389648</ele>
        <time>2019-11-30T13:29:35.000Z</time>
      </trkpt>
      <trkpt lat="43.61592" lon="5.3724">
        <ele>340.79998779297</ele>
        <time>2019-11-30T13:29:36.000Z</time>
      </trkpt>
      <trkpt lat="43.61591" lon="5.37246">
        <ele>341</ele>
        <time>2019-11-30T13:29:37.000Z</time>
      </trkpt>
      <trkpt lat="43.6159" lon="5.3725">
        <ele>341.39999389648</ele>
        <time>2019-11-30T13:29:38.000Z</time>
      </trkpt>
      <trkpt lat="43.6159" lon="5.37255">
        <ele>341.60000610352</ele>
        <time>2019-11-30T13:29:39.000Z</time>
      </trkpt>
      <trkpt lat="43.61591" lon="5.37261">
        <ele>342.20001220703</ele>
        <time>2019-11-30T13:29:40.000Z</time>
      </trkpt>
      <trkpt lat="43.61592" lon="5.37267">
        <ele>342.79998779297</ele>
        <time>2019-11-30T13:29:41.000Z</time>
      </trkpt>
      <trkpt lat="43.61593" lon="5.37272">
        <ele>343.20001220703</ele>
        <time>2019-11-30T13:29:42.000Z</time>
      </trkpt>
      <trkpt lat="43.61594" lon="5.37277">
        <ele>343.60000610352</ele>
        <time>2019-11-30T13:29:43.000Z</time>
      </trkpt>
      <trkpt lat="43.61594" lon="5.3728">
        <ele>344</ele>
        <time>2019-11-30T13:29:44.000Z</time>
      </trkpt>
      <trkpt lat="43.61595" lon="5.37284">
        <ele>344.20001220703</ele>
        <time>2019-11-30T13:29:45.000Z</time>
      </trkpt>
      <trkpt lat="43.61596" lon="5.37288">
        <ele>344.60000610352</ele>
        <time>2019-11-30T13:29:46.000Z</time>
      </trkpt>
      <trkpt lat="43.61599" lon="5.37294">
        <ele>345.39999389648</ele>
        <time>2019-11-30T13:29:47.000Z</time>
      </trkpt>
      <trkpt lat="43.61602" lon="5.37298">
        <ele>346</ele>
        <time>2019-11-30T13:29:48.000Z</time>
      </trkpt>
      <trkpt lat="43.61604" lon="5.37301">
        <ele>346.20001220703</ele>
        <time>2019-11-30T13:29:49.000Z</time>
      </trkpt>
      <trkpt lat="43.61607" lon="5.37305">
        <ele>346.39999389648</ele>
        <time>2019-11-30T13:29:50.000Z</time>
      </trkpt>
      <trkpt lat="43.6161" lon="5.37309">
        <ele>346.60000610352</ele>
        <time>2019-11-30T13:29:51.000Z</time>
      </trkpt>
      <trkpt lat="43.61613" lon="5.37313">
        <ele>347</ele>
        <time>2019-11-30T13:29:52.000Z</time>
      </trkpt>
      <trkpt lat="43.61615" lon="5.37316">
        <ele>347.20001220703</ele>
        <time>2019-11-30T13:29:53.000Z</time>
      </trkpt>
      <trkpt lat="43.61618" lon="5.37319">
        <ele>347.39999389648</ele>
        <time>2019-11-30T13:29:54.000Z</time>
      </trkpt>
      <trkpt lat="43.6162" lon="5.37322">
        <ele>347.60000610352</ele>
        <time>2019-11-30T13:29:55.000Z</time>
      </trkpt>
      <trkpt lat="43.61623" lon="5.37326">
        <ele>347.79998779297</ele>
        <time>2019-11-30T13:29:56.000Z</time>
      </trkpt>
      <trkpt lat="43.61625" lon="5.37329">
        <ele>348</ele>
        <time>2019-11-30T13:29:57.000Z</time>
      </trkpt>
      <trkpt lat="43.61628" lon="5.37333">
        <ele>348.20001220703</ele>
        <time>2019-11-30T13:29:58.000Z</time>
      </trkpt>
      <trkpt lat="43.61631" lon="5.37337">
        <ele>348.39999389648</ele>
        <time>2019-11-30T13:29:59.000Z</time>
      </trkpt>
      <trkpt lat="43.61634" lon="5.37341">
        <ele>348.60000610352</ele>
        <time>2019-11-30T13:30:00.000Z</time>
      </trkpt>
      <trkpt lat="43.61637" lon="5.37344">
        <ele>349</ele>
        <time>2019-11-30T13:30:01.000Z</time>
      </trkpt>
      <trkpt lat="43.61639" lon="5.37348">
        <ele>349.20001220703</ele>
        <time>2019-11-30T13:30:02.000Z</time>
      </trkpt>
      <trkpt lat="43.61642" lon="5.37351">
        <ele>349.39999389648</ele>
        <time>2019-11-30T13:30:03.000Z</time>
      </trkpt>
      <trkpt lat="43.61644" lon="5.37355">
        <ele>349.60000610352</ele>
        <time>2019-11-30T13:30:04.000Z</time>
      </trkpt>
      <trkpt lat="43.61647" lon="5.37358">
        <ele>349.79998779297</ele>
        <time>2019-11-30T13:30:05.000Z</time>
      </trkpt>
      <trkpt lat="43.61649" lon="5.37362">
        <ele>350</ele>
        <time>2019-11-30T13:30:06.000Z</time>
      </trkpt>
      <trkpt lat="43.61651" lon="5.37366">
        <ele>350.20001220703</ele>
        <time>2019-11-30T13:30:07.000Z</time>
      </trkpt>
      <trkpt lat="43.61653" lon="5.3737">
        <ele>350.39999389648</ele>
        <time>2019-11-30T13:30:08.000Z</time>
      </trkpt>
      <trkpt lat="43.61656" lon="5.37375">
        <ele>350.60000610352</ele>
        <time>2019-11-30T13:30:09.000Z</time>
      </trkpt>
      <trkpt lat="43.61658" lon="5.37379">
        <ele>351</ele>
        <time>2019-11-30T13:30:10.000Z</time>
      </trkpt>
      <trkpt lat="43.6166" lon="5.37383">
        <ele>351</ele>
        <time>2019-11-30T13:30:11.000Z</time>
      </trkpt>
      <trkpt lat="43.61661" lon="5.37387">
        <ele>351</ele>
        <time>2019-11-30T13:30:12.000Z</time>
      </trkpt>
      <trkpt lat="43.61663" lon="5.37391">
        <ele>351</ele>
        <time>2019-11-30T13:30:13.000Z</time>
      </trkpt>
      <trkpt lat="43.61666" lon="5.37397">
        <ele>351.20001220703</ele>
        <time>2019-11-30T13:30:14.000Z</time>
      </trkpt>
      <trkpt lat="43.61668" lon="5.37402">
        <ele>351.20001220703</ele>
        <time>2019-11-30T13:30:15.000Z</time>
      </trkpt>
      <trkpt lat="43.6167" lon="5.37406">
        <ele>351.20001220703</ele>
        <time>2019-11-30T13:30:16.000Z</time>
      </trkpt>
      <trkpt lat="43.61672" lon="5.37411">
        <ele>351.20001220703</ele>
        <time>2019-11-30T13:30:17.000Z</time>
      </trkpt>
      <trkpt lat="43.61674" lon="5.37415">
        <ele>351.20001220703</ele>
        <time>2019-11-30T13:30:18.000Z</time>
      </trkpt>
      <trkpt lat="43.61677" lon="5.3742">
        <ele>351.20001220703</ele>
        <time>2019-11-30T13:30:19.000Z</time>
      </trkpt>
      <trkpt lat="43.61679" lon="5.37425">
        <ele>351.20001220703</ele>
        <time>2019-11-30T13:30:20.000Z</time>
      </trkpt>
      <trkpt lat="43.61682" lon="5.37428">
        <ele>351.39999389648</ele>
        <time>2019-11-30T13:30:21.000Z</time>
      </trkpt>
      <trkpt lat="43.61685" lon="5.37432">
        <ele>351.39999389648</ele>
        <time>2019-11-30T13:30:22.000Z</time>
      </trkpt>
      <trkpt lat="43.61689" lon="5.37436">
        <ele>351.39999389648</ele>
        <time>2019-11-30T13:30:23.000Z</time>
      </trkpt>
      <trkpt lat="43.61691" lon="5.37439">
        <ele>351.60000610352</ele>
        <time>2019-11-30T13:30:24.000Z</time>
      </trkpt>
      <trkpt lat="43.61694" lon="5.37442">
        <ele>351.60000610352</ele>
        <time>2019-11-30T13:30:25.000Z</time>
      </trkpt>
      <trkpt lat="43.61697" lon="5.37445">
        <ele>351.60000610352</ele>
        <time>2019-11-30T13:30:26.000Z</time>
      </trkpt>
      <trkpt lat="43.61699" lon="5.37448">
        <ele>351.60000610352</ele>
        <time>2019-11-30T13:30:27.000Z</time>
      </trkpt>
      <trkpt lat="43.61702" lon="5.37451">
        <ele>351.79998779297</ele>
        <time>2019-11-30T13:30:28.000Z</time>
      </trkpt>
      <trkpt lat="43.61704" lon="5.37454">
        <ele>351.79998779297</ele>
        <time>2019-11-30T13:30:29.000Z</time>
      </trkpt>
      <trkpt lat="43.61707" lon="5.37457">
        <ele>351.79998779297</ele>
        <time>2019-11-30T13:30:30.000Z</time>
      </trkpt>
      <trkpt lat="43.6171" lon="5.3746">
        <ele>352</ele>
        <time>2019-11-30T13:30:31.000Z</time>
      </trkpt>
      <trkpt lat="43.61713" lon="5.37464">
        <ele>352</ele>
        <time>2019-11-30T13:30:32.000Z</time>
      </trkpt>
      <trkpt lat="43.61715" lon="5.37466">
        <ele>352.20001220703</ele>
        <time>2019-11-30T13:30:33.000Z</time>
      </trkpt>
      <trkpt lat="43.61718" lon="5.3747">
        <ele>352.60000610352</ele>
        <time>2019-11-30T13:30:34.000Z</time>
      </trkpt>
      <trkpt lat="43.61721" lon="5.37473">
        <ele>353</ele>
        <time>2019-11-30T13:30:35.000Z</time>
      </trkpt>
      <trkpt lat="43.61724" lon="5.37476">
        <ele>353.39999389648</ele>
        <time>2019-11-30T13:30:36.000Z</time>
      </trkpt>
      <trkpt lat="43.61726" lon="5.37479">
        <ele>353.79998779297</ele>
        <time>2019-11-30T13:30:37.000Z</time>
      </trkpt>
      <trkpt lat="43.61729" lon="5.37483">
        <ele>354.20001220703</ele>
        <time>2019-11-30T13:30:38.000Z</time>
      </trkpt>
      <trkpt lat="43.61732" lon="5.37486">
        <ele>354.79998779297</ele>
        <time>2019-11-30T13:30:39.000Z</time>
      </trkpt>
      <trkpt lat="43.61735" lon="5.37489">
        <ele>355</ele>
        <time>2019-11-30T13:30:40.000Z</time>
      </trkpt>
      <trkpt lat="43.61737" lon="5.37491">
        <ele>355.39999389648</ele>
        <time>2019-11-30T13:30:41.000Z</time>
      </trkpt>
      <trkpt lat="43.61739" lon="5.37494">
        <ele>355.79998779297</ele>
        <time>2019-11-30T13:30:42.000Z</time>
      </trkpt>
      <trkpt lat="43.61741" lon="5.37497">
        <ele>356</ele>
        <time>2019-11-30T13:30:43.000Z</time>
      </trkpt>
      <trkpt lat="43.61744" lon="5.375">
        <ele>356.39999389648</ele>
        <time>2019-11-30T13:30:44.000Z</time>
      </trkpt>
      <trkpt lat="43.61746" lon="5.37502">
        <ele>356.79998779297</ele>
        <time>2019-11-30T13:30:45.000Z</time>
      </trkpt>
      <trkpt lat="43.61748" lon="5.37505">
        <ele>357.20001220703</ele>
        <time>2019-11-30T13:30:46.000Z</time>
      </trkpt>
      <trkpt lat="43.61751" lon="5.37508">
        <ele>357.39999389648</ele>
        <time>2019-11-30T13:30:47.000Z</time>
      </trkpt>
      <trkpt lat="43.61751" lon="5.37508">
        <ele>357.39999389648</ele>
        <time>2019-11-30T13:30:48.000Z</time>
      </trkpt>
      <trkpt lat="43.61751" lon="5.37508">
        <ele>357.39999389648</ele>
        <time>2019-11-30T13:30:49.000Z</time>
      </trkpt>
      <trkpt lat="43.61751" lon="5.37508">
        <ele>357.39999389648</ele>
        <time>2019-11-30T13:30:50.000Z</time>
      </trkpt>
      <trkpt lat="43.61751" lon="5.37508">
        <ele>357.39999389648</ele>
        <time>2019-11-30T13:30:51.000Z</time>
      </trkpt>
      <trkpt lat="43.61751" lon="5.37508">
        <ele>357.39999389648</ele>
        <time>2019-11-30T13:30:52.000Z</time>
      </trkpt>
      <trkpt lat="43.61751" lon="5.37508">
        <ele>357.39999389648</ele>
        <time>2019-11-30T13:30:53.000Z</time>
      </trkpt>
      <trkpt lat="43.61752" lon="5.3752">
        <ele>358.79998779297</ele>
        <time>2019-11-30T13:30:54.000Z</time>
      </trkpt>
      <trkpt lat="43.61767" lon="5.37522">
        <ele>359.39999389648</ele>
        <time>2019-11-30T13:30:55.000Z</time>
      </trkpt>
      <trkpt lat="43.61765" lon="5.37526">
        <ele>359.79998779297</ele>
        <time>2019-11-30T13:30:56.000Z</time>
      </trkpt>
      <trkpt lat="43.61762" lon="5.37528">
        <ele>359.79998779297</ele>
        <time>2019-11-30T13:30:57.000Z</time>
      </trkpt>
      <trkpt lat="43.61758" lon="5.37531">
        <ele>360</ele>
        <time>2019-11-30T13:30:58.000Z</time>
      </trkpt>
      <trkpt lat="43.61755" lon="5.37533">
        <ele>360</ele>
        <time>2019-11-30T13:30:59.000Z</time>
      </trkpt>
      <trkpt lat="43.61753" lon="5.37534">
        <ele>360</ele>
        <time>2019-11-30T13:31:00.000Z</time>
      </trkpt>
      <trkpt lat="43.61751" lon="5.37537">
        <ele>360</ele>
        <time>2019-11-30T13:31:01.000Z</time>
      </trkpt>
      <trkpt lat="43.61749" lon="5.37541">
        <ele>359.79998779297</ele>
        <time>2019-11-30T13:31:02.000Z</time>
      </trkpt>
      <trkpt lat="43.61746" lon="5.37545">
        <ele>359.79998779297</ele>
        <time>2019-11-30T13:31:03.000Z</time>
      </trkpt>
      <trkpt lat="43.61744" lon="5.37549">
        <ele>359.60000610352</ele>
        <time>2019-11-30T13:31:04.000Z</time>
      </trkpt>
      <trkpt lat="43.61741" lon="5.37552">
        <ele>359.39999389648</ele>
        <time>2019-11-30T13:31:05.000Z</time>
      </trkpt>
      <trkpt lat="43.61739" lon="5.37556">
        <ele>359</ele>
        <time>2019-11-30T13:31:06.000Z</time>
      </trkpt>
      <trkpt lat="43.61737" lon="5.37559">
        <ele>358.79998779297</ele>
        <time>2019-11-30T13:31:07.000Z</time>
      </trkpt>
      <trkpt lat="43.61734" lon="5.37564">
        <ele>358.39999389648</ele>
        <time>2019-11-30T13:31:08.000Z</time>
      </trkpt>
      <trkpt lat="43.61731" lon="5.37568">
        <ele>358.20001220703</ele>
        <time>2019-11-30T13:31:09.000Z</time>
      </trkpt>
      <trkpt lat="43.61728" lon="5.37573">
        <ele>357.79998779297</ele>
        <time>2019-11-30T13:31:10.000Z</time>
      </trkpt>
      <trkpt lat="43.61725" lon="5.37577">
        <ele>357.39999389648</ele>
        <time>2019-11-30T13:31:11.000Z</time>
      </trkpt>
      <trkpt lat="43.61722" lon="5.37581">
        <ele>357.20001220703</ele>
        <time>2019-11-30T13:31:12.000Z</time>
      </trkpt>
      <trkpt lat="43.61719" lon="5.37586">
        <ele>357</ele>
        <time>2019-11-30T13:31:13.000Z</time>
      </trkpt>
      <trkpt lat="43.61716" lon="5.3759">
        <ele>357</ele>
        <time>2019-11-30T13:31:14.000Z</time>
      </trkpt>
      <trkpt lat="43.61713" lon="5.37595">
        <ele>357</ele>
        <time>2019-11-30T13:31:15.000Z</time>
      </trkpt>
      <trkpt lat="43.6171" lon="5.37599">
        <ele>357</ele>
        <time>2019-11-30T13:31:16.000Z</time>
      </trkpt>
      <trkpt lat="43.61707" lon="5.37604">
        <ele>357</ele>
        <time>2019-11-30T13:31:17.000Z</time>
      </trkpt>
      <trkpt lat="43.61704" lon="5.37608">
        <ele>357</ele>
        <time>2019-11-30T13:31:18.000Z</time>
      </trkpt>
      <trkpt lat="43.61701" lon="5.37613">
        <ele>357</ele>
        <time>2019-11-30T13:31:19.000Z</time>
      </trkpt>
      <trkpt lat="43.61698" lon="5.37617">
        <ele>357.20001220703</ele>
        <time>2019-11-30T13:31:20.000Z</time>
      </trkpt>
      <trkpt lat="43.61695" lon="5.37622">
        <ele>357.20001220703</ele>
        <time>2019-11-30T13:31:21.000Z</time>
      </trkpt>
      <trkpt lat="43.61692" lon="5.37626">
        <ele>357.20001220703</ele>
        <time>2019-11-30T13:31:22.000Z</time>
      </trkpt>
      <trkpt lat="43.6169" lon="5.3763">
        <ele>357.20001220703</ele>
        <time>2019-11-30T13:31:23.000Z</time>
      </trkpt>
      <trkpt lat="43.61687" lon="5.37634">
        <ele>357.20001220703</ele>
        <time>2019-11-30T13:31:24.000Z</time>
      </trkpt>
      <trkpt lat="43.61685" lon="5.37638">
        <ele>357.39999389648</ele>
        <time>2019-11-30T13:31:25.000Z</time>
      </trkpt>
      <trkpt lat="43.61682" lon="5.37642">
        <ele>357.60000610352</ele>
        <time>2019-11-30T13:31:26.000Z</time>
      </trkpt>
      <trkpt lat="43.61679" lon="5.37647">
        <ele>357.79998779297</ele>
        <time>2019-11-30T13:31:27.000Z</time>
      </trkpt>
      <trkpt lat="43.61676" lon="5.37651">
        <ele>358</ele>
        <time>2019-11-30T13:31:28.000Z</time>
      </trkpt>
      <trkpt lat="43.61673" lon="5.37656">
        <ele>358.20001220703</ele>
        <time>2019-11-30T13:31:29.000Z</time>
      </trkpt>
      <trkpt lat="43.61669" lon="5.37661">
        <ele>358.39999389648</ele>
        <time>2019-11-30T13:31:30.000Z</time>
      </trkpt>
      <trkpt lat="43.61667" lon="5.37665">
        <ele>358.60000610352</ele>
        <time>2019-11-30T13:31:31.000Z</time>
      </trkpt>
      <trkpt lat="43.61664" lon="5.37669">
        <ele>358.79998779297</ele>
        <time>2019-11-30T13:31:32.000Z</time>
      </trkpt>
      <trkpt lat="43.61661" lon="5.37674">
        <ele>359</ele>
        <time>2019-11-30T13:31:33.000Z</time>
      </trkpt>
      <trkpt lat="43.61658" lon="5.37679">
        <ele>359.20001220703</ele>
        <time>2019-11-30T13:31:34.000Z</time>
      </trkpt>
      <trkpt lat="43.61654" lon="5.37683">
        <ele>359.39999389648</ele>
        <time>2019-11-30T13:31:35.000Z</time>
      </trkpt>
      <trkpt lat="43.61651" lon="5.37688">
        <ele>359.20001220703</ele>
        <time>2019-11-30T13:31:36.000Z</time>
      </trkpt>
      <trkpt lat="43.61649" lon="5.37692">
        <ele>359</ele>
        <time>2019-11-30T13:31:37.000Z</time>
      </trkpt>
      <trkpt lat="43.61646" lon="5.37696">
        <ele>359</ele>
        <time>2019-11-30T13:31:38.000Z</time>
      </trkpt>
      <trkpt lat="43.61644" lon="5.37699">
        <ele>358.79998779297</ele>
        <time>2019-11-30T13:31:39.000Z</time>
      </trkpt>
      <trkpt lat="43.61642" lon="5.37703">
        <ele>358.79998779297</ele>
        <time>2019-11-30T13:31:40.000Z</time>
      </trkpt>
      <trkpt lat="43.61639" lon="5.37706">
        <ele>358.60000610352</ele>
        <time>2019-11-30T13:31:41.000Z</time>
      </trkpt>
      <trkpt lat="43.61637" lon="5.37709">
        <ele>358.39999389648</ele>
        <time>2019-11-30T13:31:42.000Z</time>
      </trkpt>
      <trkpt lat="43.61635" lon="5.37713">
        <ele>358.39999389648</ele>
        <time>2019-11-30T13:31:43.000Z</time>
      </trkpt>
      <trkpt lat="43.61633" lon="5.37715">
        <ele>358.20001220703</ele>
        <time>2019-11-30T13:31:44.000Z</time>
      </trkpt>
      <trkpt lat="43.61632" lon="5.37718">
        <ele>358</ele>
        <time>2019-11-30T13:31:45.000Z</time>
      </trkpt>
      <trkpt lat="43.6163" lon="5.37721">
        <ele>357.79998779297</ele>
        <time>2019-11-30T13:31:46.000Z</time>
      </trkpt>
      <trkpt lat="43.61629" lon="5.37722">
        <ele>357.79998779297</ele>
        <time>2019-11-30T13:31:47.000Z</time>
      </trkpt>
      <trkpt lat="43.61627" lon="5.37724">
        <ele>357.60000610352</ele>
        <time>2019-11-30T13:31:48.000Z</time>
      </trkpt>
      <trkpt lat="43.61626" lon="5.37727">
        <ele>357.39999389648</ele>
        <time>2019-11-30T13:31:49.000Z</time>
      </trkpt>
      <trkpt lat="43.61624" lon="5.37729">
        <ele>357.20001220703</ele>
        <time>2019-11-30T13:31:50.000Z</time>
      </trkpt>
      <trkpt lat="43.61622" lon="5.37732">
        <ele>357</ele>
        <time>2019-11-30T13:31:51.000Z</time>
      </trkpt>
      <trkpt lat="43.61614" lon="5.37744">
        <ele>356.39999389648</ele>
        <time>2019-11-30T13:31:52.000Z</time>
      </trkpt>
      <trkpt lat="43.61609" lon="5.37753">
        <ele>356</ele>
        <time>2019-11-30T13:31:53.000Z</time>
      </trkpt>
      <trkpt lat="43.61604" lon="5.37759">
        <ele>355.60000610352</ele>
        <time>2019-11-30T13:31:54.000Z</time>
      </trkpt>
      <trkpt lat="43.61601" lon="5.37764">
        <ele>355.39999389648</ele>
        <time>2019-11-30T13:31:55.000Z</time>
      </trkpt>
      <trkpt lat="43.61598" lon="5.37769">
        <ele>355.20001220703</ele>
        <time>2019-11-30T13:31:56.000Z</time>
      </trkpt>
      <trkpt lat="43.61594" lon="5.37774">
        <ele>355</ele>
        <time>2019-11-30T13:31:57.000Z</time>
      </trkpt>
      <trkpt lat="43.61592" lon="5.37778">
        <ele>354.79998779297</ele>
        <time>2019-11-30T13:31:58.000Z</time>
      </trkpt>
      <trkpt lat="43.61589" lon="5.37782">
        <ele>354.79998779297</ele>
        <time>2019-11-30T13:31:59.000Z</time>
      </trkpt>
      <trkpt lat="43.61587" lon="5.37785">
        <ele>354.60000610352</ele>
        <time>2019-11-30T13:32:00.000Z</time>
      </trkpt>
      <trkpt lat="43.61585" lon="5.37788">
        <ele>354.60000610352</ele>
        <time>2019-11-30T13:32:01.000Z</time>
      </trkpt>
      <trkpt lat="43.61583" lon="5.37791">
        <ele>354.60000610352</ele>
        <time>2019-11-30T13:32:02.000Z</time>
      </trkpt>
      <trkpt lat="43.61582" lon="5.37792">
        <ele>354.60000610352</ele>
        <time>2019-11-30T13:32:03.000Z</time>
      </trkpt>
      <trkpt lat="43.61581" lon="5.37794">
        <ele>354.60000610352</ele>
        <time>2019-11-30T13:32:04.000Z</time>
      </trkpt>
      <trkpt lat="43.6158" lon="5.37795">
        <ele>354.39999389648</ele>
        <time>2019-11-30T13:32:05.000Z</time>
      </trkpt>
      <trkpt lat="43.61579" lon="5.37797">
        <ele>354.39999389648</ele>
        <time>2019-11-30T13:32:06.000Z</time>
      </trkpt>
      <trkpt lat="43.61578" lon="5.37799">
        <ele>354.39999389648</ele>
        <time>2019-11-30T13:32:07.000Z</time>
      </trkpt>
      <trkpt lat="43.61577" lon="5.37801">
        <ele>354.39999389648</ele>
        <time>2019-11-30T13:32:08.000Z</time>
      </trkpt>
      <trkpt lat="43.61575" lon="5.37804">
        <ele>354.20001220703</ele>
        <time>2019-11-30T13:32:09.000Z</time>
      </trkpt>
      <trkpt lat="43.61573" lon="5.37807">
        <ele>354</ele>
        <time>2019-11-30T13:32:10.000Z</time>
      </trkpt>
      <trkpt lat="43.61571" lon="5.3781">
        <ele>354</ele>
        <time>2019-11-30T13:32:11.000Z</time>
      </trkpt>
      <trkpt lat="43.61568" lon="5.37813">
        <ele>353.79998779297</ele>
        <time>2019-11-30T13:32:12.000Z</time>
      </trkpt>
      <trkpt lat="43.61566" lon="5.37817">
        <ele>353.60000610352</ele>
        <time>2019-11-30T13:32:13.000Z</time>
      </trkpt>
      <trkpt lat="43.61564" lon="5.37819">
        <ele>353.60000610352</ele>
        <time>2019-11-30T13:32:14.000Z</time>
      </trkpt>
      <trkpt lat="43.61562" lon="5.37823">
        <ele>353.39999389648</ele>
        <time>2019-11-30T13:32:15.000Z</time>
      </trkpt>
      <trkpt lat="43.61559" lon="5.37827">
        <ele>353.20001220703</ele>
        <time>2019-11-30T13:32:16.000Z</time>
      </trkpt>
      <trkpt lat="43.61557" lon="5.37831">
        <ele>353.20001220703</ele>
        <time>2019-11-30T13:32:17.000Z</time>
      </trkpt>
      <trkpt lat="43.61554" lon="5.37834">
        <ele>353</ele>
        <time>2019-11-30T13:32:18.000Z</time>
      </trkpt>
      <trkpt lat="43.61552" lon="5.37838">
        <ele>353</ele>
        <time>2019-11-30T13:32:19.000Z</time>
      </trkpt>
      <trkpt lat="43.6155" lon="5.37841">
        <ele>352.79998779297</ele>
        <time>2019-11-30T13:32:20.000Z</time>
      </trkpt>
      <trkpt lat="43.61548" lon="5.37843">
        <ele>352.79998779297</ele>
        <time>2019-11-30T13:32:21.000Z</time>
      </trkpt>
      <trkpt lat="43.61547" lon="5.37845">
        <ele>352.79998779297</ele>
        <time>2019-11-30T13:32:22.000Z</time>
      </trkpt>
      <trkpt lat="43.61547" lon="5.37845">
        <ele>352.79998779297</ele>
        <time>2019-11-30T13:32:23.000Z</time>
      </trkpt>
      <trkpt lat="43.61547" lon="5.37845">
        <ele>352.79998779297</ele>
        <time>2019-11-30T13:32:24.000Z</time>
      </trkpt>
      <trkpt lat="43.61547" lon="5.37845">
        <ele>352.79998779297</ele>
        <time>2019-11-30T13:32:25.000Z</time>
      </trkpt>
      <trkpt lat="43.61547" lon="5.37845">
        <ele>352.79998779297</ele>
        <time>2019-11-30T13:32:26.000Z</time>
      </trkpt>
      <trkpt lat="43.61547" lon="5.37845">
        <ele>352.79998779297</ele>
        <time>2019-11-30T13:32:27.000Z</time>
      </trkpt>
      <trkpt lat="43.61547" lon="5.37845">
        <ele>352.79998779297</ele>
        <time>2019-11-30T13:32:28.000Z</time>
      </trkpt>
      <trkpt lat="43.61547" lon="5.37845">
        <ele>352.79998779297</ele>
        <time>2019-11-30T13:32:29.000Z</time>
      </trkpt>
      <trkpt lat="43.61547" lon="5.37845">
        <ele>352.79998779297</ele>
        <time>2019-11-30T13:32:30.000Z</time>
      </trkpt>
      <trkpt lat="43.61547" lon="5.37845">
        <ele>352.79998779297</ele>
        <time>2019-11-30T13:32:31.000Z</time>
      </trkpt>
      <trkpt lat="43.61547" lon="5.37845">
        <ele>352.79998779297</ele>
        <time>2019-11-30T13:32:32.000Z</time>
      </trkpt>
      <trkpt lat="43.61547" lon="5.37845">
        <ele>352.79998779297</ele>
        <time>2019-11-30T13:32:33.000Z</time>
      </trkpt>
      <trkpt lat="43.61547" lon="5.37845">
        <ele>352.79998779297</ele>
        <time>2019-11-30T13:32:34.000Z</time>
      </trkpt>
      <trkpt lat="43.61547" lon="5.37845">
        <ele>352.79998779297</ele>
        <time>2019-11-30T13:32:35.000Z</time>
      </trkpt>
      <trkpt lat="43.61547" lon="5.37845">
        <ele>352.79998779297</ele>
        <time>2019-11-30T13:32:36.000Z</time>
      </trkpt>
      <trkpt lat="43.61547" lon="5.37845">
        <ele>352.79998779297</ele>
        <time>2019-11-30T13:32:37.000Z</time>
      </trkpt>
      <trkpt lat="43.61547" lon="5.37845">
        <ele>352.79998779297</ele>
        <time>2019-11-30T13:32:38.000Z</time>
      </trkpt>
      <trkpt lat="43.61547" lon="5.37845">
        <ele>352.79998779297</ele>
        <time>2019-11-30T13:32:39.000Z</time>
      </trkpt>
      <trkpt lat="43.61547" lon="5.37845">
        <ele>352.79998779297</ele>
        <time>2019-11-30T13:32:40.000Z</time>
      </trkpt>
      <trkpt lat="43.61547" lon="5.37845">
        <ele>352.79998779297</ele>
        <time>2019-11-30T13:32:41.000Z</time>
      </trkpt>
      <trkpt lat="43.61547" lon="5.37845">
        <ele>352.79998779297</ele>
        <time>2019-11-30T13:32:42.000Z</time>
      </trkpt>
      <trkpt lat="43.61547" lon="5.37845">
        <ele>352.79998779297</ele>
        <time>2019-11-30T13:32:43.000Z</time>
      </trkpt>
      <trkpt lat="43.61547" lon="5.37845">
        <ele>352.79998779297</ele>
        <time>2019-11-30T13:32:44.000Z</time>
      </trkpt>
      <trkpt lat="43.61547" lon="5.37845">
        <ele>352.79998779297</ele>
        <time>2019-11-30T13:32:45.000Z</time>
      </trkpt>
      <trkpt lat="43.61547" lon="5.37845">
        <ele>352.79998779297</ele>
        <time>2019-11-30T13:32:46.000Z</time>
      </trkpt>
      <trkpt lat="43.61547" lon="5.37845">
        <ele>352.79998779297</ele>
        <time>2019-11-30T13:32:47.000Z</time>
      </trkpt>
      <trkpt lat="43.61547" lon="5.37845">
        <ele>352.79998779297</ele>
        <time>2019-11-30T13:32:48.000Z</time>
      </trkpt>
      <trkpt lat="43.61547" lon="5.37845">
        <ele>352.79998779297</ele>
        <time>2019-11-30T13:32:49.000Z</time>
      </trkpt>
      <trkpt lat="43.61547" lon="5.37845">
        <ele>352.79998779297</ele>
        <time>2019-11-30T13:32:50.000Z</time>
      </trkpt>
      <trkpt lat="43.61547" lon="5.37845">
        <ele>352.79998779297</ele>
        <time>2019-11-30T13:32:51.000Z</time>
      </trkpt>
      <trkpt lat="43.61547" lon="5.37845">
        <ele>352.79998779297</ele>
        <time>2019-11-30T13:32:52.000Z</time>
      </trkpt>
      <trkpt lat="43.61547" lon="5.37845">
        <ele>352.79998779297</ele>
        <time>2019-11-30T13:32:53.000Z</time>
      </trkpt>
      <trkpt lat="43.61547" lon="5.37845">
        <ele>352.79998779297</ele>
        <time>2019-11-30T13:32:54.000Z</time>
      </trkpt>
      <trkpt lat="43.61547" lon="5.37845">
        <ele>352.79998779297</ele>
        <time>2019-11-30T13:32:55.000Z</time>
      </trkpt>
      <trkpt lat="43.61543" lon="5.37851">
        <ele>352.60000610352</ele>
        <time>2019-11-30T13:32:56.000Z</time>
      </trkpt>
      <trkpt lat="43.61542" lon="5.37854">
        <ele>352.60000610352</ele>
        <time>2019-11-30T13:32:57.000Z</time>
      </trkpt>
      <trkpt lat="43.6154" lon="5.37857">
        <ele>352.60000610352</ele>
        <time>2019-11-30T13:32:58.000Z</time>
      </trkpt>
      <trkpt lat="43.61538" lon="5.37859">
        <ele>352.39999389648</ele>
        <time>2019-11-30T13:32:59.000Z</time>
      </trkpt>
      <trkpt lat="43.61536" lon="5.37863">
        <ele>352.39999389648</ele>
        <time>2019-11-30T13:33:00.000Z</time>
      </trkpt>
      <trkpt lat="43.61533" lon="5.37866">
        <ele>352.39999389648</ele>
        <time>2019-11-30T13:33:01.000Z</time>
      </trkpt>
      <trkpt lat="43.61531" lon="5.37869">
        <ele>352.39999389648</ele>
        <time>2019-11-30T13:33:02.000Z</time>
      </trkpt>
      <trkpt lat="43.61529" lon="5.37872">
        <ele>352.20001220703</ele>
        <time>2019-11-30T13:33:03.000Z</time>
      </trkpt>
      <trkpt lat="43.61527" lon="5.37876">
        <ele>352.20001220703</ele>
        <time>2019-11-30T13:33:04.000Z</time>
      </trkpt>
      <trkpt lat="43.61524" lon="5.3788">
        <ele>352</ele>
        <time>2019-11-30T13:33:05.000Z</time>
      </trkpt>
      <trkpt lat="43.61522" lon="5.37884">
        <ele>352</ele>
        <time>2019-11-30T13:33:06.000Z</time>
      </trkpt>
      <trkpt lat="43.61519" lon="5.37888">
        <ele>351.79998779297</ele>
        <time>2019-11-30T13:33:07.000Z</time>
      </trkpt>
      <trkpt lat="43.61516" lon="5.37892">
        <ele>351.79998779297</ele>
        <time>2019-11-30T13:33:08.000Z</time>
      </trkpt>
      <trkpt lat="43.61514" lon="5.37895">
        <ele>351.60000610352</ele>
        <time>2019-11-30T13:33:09.000Z</time>
      </trkpt>
      <trkpt lat="43.61524" lon="5.37912">
        <ele>351.39999389648</ele>
        <time>2019-11-30T13:33:10.000Z</time>
      </trkpt>
      <trkpt lat="43.61523" lon="5.37912">
        <ele>351.39999389648</ele>
        <time>2019-11-30T13:33:11.000Z</time>
      </trkpt>
      <trkpt lat="43.61524" lon="5.37913">
        <ele>351.39999389648</ele>
        <time>2019-11-30T13:33:12.000Z</time>
      </trkpt>
      <trkpt lat="43.61522" lon="5.37916">
        <ele>351.20001220703</ele>
        <time>2019-11-30T13:33:13.000Z</time>
      </trkpt>
      <trkpt lat="43.61519" lon="5.37919">
        <ele>351.20001220703</ele>
        <time>2019-11-30T13:33:14.000Z</time>
      </trkpt>
      <trkpt lat="43.61516" lon="5.37921">
        <ele>351</ele>
        <time>2019-11-30T13:33:15.000Z</time>
      </trkpt>
      <trkpt lat="43.61512" lon="5.37924">
        <ele>351</ele>
        <time>2019-11-30T13:33:16.000Z</time>
      </trkpt>
      <trkpt lat="43.61509" lon="5.37927">
        <ele>350.79998779297</ele>
        <time>2019-11-30T13:33:17.000Z</time>
      </trkpt>
      <trkpt lat="43.61506" lon="5.3793">
        <ele>350.79998779297</ele>
        <time>2019-11-30T13:33:18.000Z</time>
      </trkpt>
      <trkpt lat="43.61503" lon="5.37934">
        <ele>350.79998779297</ele>
        <time>2019-11-30T13:33:19.000Z</time>
      </trkpt>
      <trkpt lat="43.615" lon="5.37937">
        <ele>350.60000610352</ele>
        <time>2019-11-30T13:33:20.000Z</time>
      </trkpt>
      <trkpt lat="43.61497" lon="5.3794">
        <ele>350.60000610352</ele>
        <time>2019-11-30T13:33:21.000Z</time>
      </trkpt>
      <trkpt lat="43.61495" lon="5.37943">
        <ele>350.60000610352</ele>
        <time>2019-11-30T13:33:22.000Z</time>
      </trkpt>
      <trkpt lat="43.61493" lon="5.37947">
        <ele>350.60000610352</ele>
        <time>2019-11-30T13:33:23.000Z</time>
      </trkpt>
      <trkpt lat="43.6149" lon="5.3795">
        <ele>350.60000610352</ele>
        <time>2019-11-30T13:33:24.000Z</time>
      </trkpt>
      <trkpt lat="43.61483" lon="5.37942">
        <ele>350.79998779297</ele>
        <time>2019-11-30T13:33:25.000Z</time>
      </trkpt>
      <trkpt lat="43.61481" lon="5.37945">
        <ele>350.60000610352</ele>
        <time>2019-11-30T13:33:26.000Z</time>
      </trkpt>
      <trkpt lat="43.61479" lon="5.37949">
        <ele>350.60000610352</ele>
        <time>2019-11-30T13:33:27.000Z</time>
      </trkpt>
      <trkpt lat="43.61476" lon="5.37953">
        <ele>350.60000610352</ele>
        <time>2019-11-30T13:33:28.000Z</time>
      </trkpt>
      <trkpt lat="43.61474" lon="5.37956">
        <ele>350.60000610352</ele>
        <time>2019-11-30T13:33:29.000Z</time>
      </trkpt>
      <trkpt lat="43.61472" lon="5.37959">
        <ele>350.60000610352</ele>
        <time>2019-11-30T13:33:30.000Z</time>
      </trkpt>
      <trkpt lat="43.6147" lon="5.37962">
        <ele>350.60000610352</ele>
        <time>2019-11-30T13:33:31.000Z</time>
      </trkpt>
      <trkpt lat="43.61468" lon="5.37965">
        <ele>350.60000610352</ele>
        <time>2019-11-30T13:33:32.000Z</time>
      </trkpt>
      <trkpt lat="43.61466" lon="5.37968">
        <ele>350.79998779297</ele>
        <time>2019-11-30T13:33:33.000Z</time>
      </trkpt>
      <trkpt lat="43.61464" lon="5.37972">
        <ele>350.79998779297</ele>
        <time>2019-11-30T13:33:34.000Z</time>
      </trkpt>
      <trkpt lat="43.61462" lon="5.37974">
        <ele>351</ele>
        <time>2019-11-30T13:33:35.000Z</time>
      </trkpt>
      <trkpt lat="43.61461" lon="5.37976">
        <ele>351</ele>
        <time>2019-11-30T13:33:36.000Z</time>
      </trkpt>
      <trkpt lat="43.6146" lon="5.37976">
        <ele>351</ele>
        <time>2019-11-30T13:33:37.000Z</time>
      </trkpt>
      <trkpt lat="43.61463" lon="5.37982">
        <ele>351</ele>
        <time>2019-11-30T13:33:38.000Z</time>
      </trkpt>
      <trkpt lat="43.61459" lon="5.37978">
        <ele>351</ele>
        <time>2019-11-30T13:33:39.000Z</time>
      </trkpt>
      <trkpt lat="43.61458" lon="5.3798">
        <ele>351</ele>
        <time>2019-11-30T13:33:40.000Z</time>
      </trkpt>
      <trkpt lat="43.61457" lon="5.37982">
        <ele>351.20001220703</ele>
        <time>2019-11-30T13:33:41.000Z</time>
      </trkpt>
      <trkpt lat="43.61455" lon="5.37984">
        <ele>351.20001220703</ele>
        <time>2019-11-30T13:33:42.000Z</time>
      </trkpt>
      <trkpt lat="43.61453" lon="5.37987">
        <ele>351.20001220703</ele>
        <time>2019-11-30T13:33:43.000Z</time>
      </trkpt>
      <trkpt lat="43.61452" lon="5.3799">
        <ele>351.20001220703</ele>
        <time>2019-11-30T13:33:44.000Z</time>
      </trkpt>
      <trkpt lat="43.6145" lon="5.37992">
        <ele>351.39999389648</ele>
        <time>2019-11-30T13:33:45.000Z</time>
      </trkpt>
      <trkpt lat="43.61448" lon="5.37995">
        <ele>351.39999389648</ele>
        <time>2019-11-30T13:33:46.000Z</time>
      </trkpt>
      <trkpt lat="43.61447" lon="5.37997">
        <ele>351.39999389648</ele>
        <time>2019-11-30T13:33:47.000Z</time>
      </trkpt>
      <trkpt lat="43.61446" lon="5.37999">
        <ele>351.39999389648</ele>
        <time>2019-11-30T13:33:48.000Z</time>
      </trkpt>
      <trkpt lat="43.61444" lon="5.38001">
        <ele>351.39999389648</ele>
        <time>2019-11-30T13:33:49.000Z</time>
      </trkpt>
      <trkpt lat="43.61442" lon="5.38004">
        <ele>351.39999389648</ele>
        <time>2019-11-30T13:33:50.000Z</time>
      </trkpt>
      <trkpt lat="43.6144" lon="5.38007">
        <ele>351.60000610352</ele>
        <time>2019-11-30T13:33:51.000Z</time>
      </trkpt>
      <trkpt lat="43.61439" lon="5.38009">
        <ele>351.60000610352</ele>
        <time>2019-11-30T13:33:52.000Z</time>
      </trkpt>
      <trkpt lat="43.61438" lon="5.38011">
        <ele>351.60000610352</ele>
        <time>2019-11-30T13:33:53.000Z</time>
      </trkpt>
      <trkpt lat="43.61437" lon="5.38012">
        <ele>351.60000610352</ele>
        <time>2019-11-30T13:33:54.000Z</time>
      </trkpt>
      <trkpt lat="43.61435" lon="5.38014">
        <ele>351.60000610352</ele>
        <time>2019-11-30T13:33:55.000Z</time>
      </trkpt>
      <trkpt lat="43.61434" lon="5.38016">
        <ele>351.60000610352</ele>
        <time>2019-11-30T13:33:56.000Z</time>
      </trkpt>
      <trkpt lat="43.61433" lon="5.38018">
        <ele>351.60000610352</ele>
        <time>2019-11-30T13:33:57.000Z</time>
      </trkpt>
      <trkpt lat="43.61431" lon="5.38021">
        <ele>351.60000610352</ele>
        <time>2019-11-30T13:33:58.000Z</time>
      </trkpt>
      <trkpt lat="43.61429" lon="5.38023">
        <ele>351.79998779297</ele>
        <time>2019-11-30T13:33:59.000Z</time>
      </trkpt>
      <trkpt lat="43.61427" lon="5.38026">
        <ele>351.79998779297</ele>
        <time>2019-11-30T13:34:00.000Z</time>
      </trkpt>
      <trkpt lat="43.61425" lon="5.3803">
        <ele>351.79998779297</ele>
        <time>2019-11-30T13:34:01.000Z</time>
      </trkpt>
      <trkpt lat="43.61423" lon="5.38033">
        <ele>351.79998779297</ele>
        <time>2019-11-30T13:34:02.000Z</time>
      </trkpt>
      <trkpt lat="43.6142" lon="5.38037">
        <ele>351.79998779297</ele>
        <time>2019-11-30T13:34:03.000Z</time>
      </trkpt>
      <trkpt lat="43.61419" lon="5.38039">
        <ele>351.79998779297</ele>
        <time>2019-11-30T13:34:04.000Z</time>
      </trkpt>
      <trkpt lat="43.61417" lon="5.38043">
        <ele>352</ele>
        <time>2019-11-30T13:34:05.000Z</time>
      </trkpt>
      <trkpt lat="43.61414" lon="5.38046">
        <ele>352</ele>
        <time>2019-11-30T13:34:06.000Z</time>
      </trkpt>
      <trkpt lat="43.61412" lon="5.38049">
        <ele>352</ele>
        <time>2019-11-30T13:34:07.000Z</time>
      </trkpt>
      <trkpt lat="43.6141" lon="5.38052">
        <ele>352.20001220703</ele>
        <time>2019-11-30T13:34:08.000Z</time>
      </trkpt>
      <trkpt lat="43.61409" lon="5.38054">
        <ele>352.20001220703</ele>
        <time>2019-11-30T13:34:09.000Z</time>
      </trkpt>
      <trkpt lat="43.61406" lon="5.38058">
        <ele>352.39999389648</ele>
        <time>2019-11-30T13:34:10.000Z</time>
      </trkpt>
      <trkpt lat="43.61404" lon="5.38062">
        <ele>352.60000610352</ele>
        <time>2019-11-30T13:34:11.000Z</time>
      </trkpt>
      <trkpt lat="43.61401" lon="5.38066">
        <ele>352.79998779297</ele>
        <time>2019-11-30T13:34:12.000Z</time>
      </trkpt>
      <trkpt lat="43.61399" lon="5.38069">
        <ele>353</ele>
        <time>2019-11-30T13:34:13.000Z</time>
      </trkpt>
      <trkpt lat="43.61397" lon="5.38072">
        <ele>353.20001220703</ele>
        <time>2019-11-30T13:34:14.000Z</time>
      </trkpt>
      <trkpt lat="43.61394" lon="5.38076">
        <ele>353.39999389648</ele>
        <time>2019-11-30T13:34:15.000Z</time>
      </trkpt>
      <trkpt lat="43.61392" lon="5.3808">
        <ele>353.60000610352</ele>
        <time>2019-11-30T13:34:16.000Z</time>
      </trkpt>
      <trkpt lat="43.6139" lon="5.38083">
        <ele>353.60000610352</ele>
        <time>2019-11-30T13:34:17.000Z</time>
      </trkpt>
      <trkpt lat="43.61387" lon="5.38087">
        <ele>353.79998779297</ele>
        <time>2019-11-30T13:34:18.000Z</time>
      </trkpt>
      <trkpt lat="43.61385" lon="5.38091">
        <ele>353.60000610352</ele>
        <time>2019-11-30T13:34:19.000Z</time>
      </trkpt>
      <trkpt lat="43.61382" lon="5.38095">
        <ele>353.60000610352</ele>
        <time>2019-11-30T13:34:20.000Z</time>
      </trkpt>
      <trkpt lat="43.61379" lon="5.38099">
        <ele>353.60000610352</ele>
        <time>2019-11-30T13:34:21.000Z</time>
      </trkpt>
      <trkpt lat="43.61376" lon="5.38103">
        <ele>353.60000610352</ele>
        <time>2019-11-30T13:34:22.000Z</time>
      </trkpt>
      <trkpt lat="43.61373" lon="5.38108">
        <ele>353.39999389648</ele>
        <time>2019-11-30T13:34:23.000Z</time>
      </trkpt>
      <trkpt lat="43.61371" lon="5.38111">
        <ele>353.39999389648</ele>
        <time>2019-11-30T13:34:24.000Z</time>
      </trkpt>
      <trkpt lat="43.61368" lon="5.38115">
        <ele>353.39999389648</ele>
        <time>2019-11-30T13:34:25.000Z</time>
      </trkpt>
      <trkpt lat="43.61366" lon="5.38119">
        <ele>353.39999389648</ele>
        <time>2019-11-30T13:34:26.000Z</time>
      </trkpt>
      <trkpt lat="43.61364" lon="5.38122">
        <ele>353.39999389648</ele>
        <time>2019-11-30T13:34:27.000Z</time>
      </trkpt>
      <trkpt lat="43.61361" lon="5.38126">
        <ele>353.20001220703</ele>
        <time>2019-11-30T13:34:28.000Z</time>
      </trkpt>
      <trkpt lat="43.61359" lon="5.38129">
        <ele>353.20001220703</ele>
        <time>2019-11-30T13:34:29.000Z</time>
      </trkpt>
      <trkpt lat="43.61358" lon="5.38131">
        <ele>353.20001220703</ele>
        <time>2019-11-30T13:34:30.000Z</time>
      </trkpt>
      <trkpt lat="43.61357" lon="5.38133">
        <ele>353.20001220703</ele>
        <time>2019-11-30T13:34:31.000Z</time>
      </trkpt>
      <trkpt lat="43.61356" lon="5.38134">
        <ele>353.20001220703</ele>
        <time>2019-11-30T13:34:32.000Z</time>
      </trkpt>
      <trkpt lat="43.61356" lon="5.38134">
        <ele>353.20001220703</ele>
        <time>2019-11-30T13:34:33.000Z</time>
      </trkpt>
      <trkpt lat="43.61357" lon="5.38132">
        <ele>353.20001220703</ele>
        <time>2019-11-30T13:34:34.000Z</time>
      </trkpt>
      <trkpt lat="43.61358" lon="5.38131">
        <ele>353.20001220703</ele>
        <time>2019-11-30T13:34:35.000Z</time>
      </trkpt>
      <trkpt lat="43.61365" lon="5.38138">
        <ele>353.79998779297</ele>
        <time>2019-11-30T13:34:36.000Z</time>
      </trkpt>
      <trkpt lat="43.61367" lon="5.38141">
        <ele>354</ele>
        <time>2019-11-30T13:34:37.000Z</time>
      </trkpt>
      <trkpt lat="43.6137" lon="5.38144">
        <ele>354.20001220703</ele>
        <time>2019-11-30T13:34:38.000Z</time>
      </trkpt>
      <trkpt lat="43.61373" lon="5.38147">
        <ele>354.60000610352</ele>
        <time>2019-11-30T13:34:39.000Z</time>
      </trkpt>
      <trkpt lat="43.61376" lon="5.38151">
        <ele>354.79998779297</ele>
        <time>2019-11-30T13:34:40.000Z</time>
      </trkpt>
      <trkpt lat="43.61379" lon="5.38154">
        <ele>355</ele>
        <time>2019-11-30T13:34:41.000Z</time>
      </trkpt>
      <trkpt lat="43.61381" lon="5.38156">
        <ele>355.20001220703</ele>
        <time>2019-11-30T13:34:42.000Z</time>
      </trkpt>
      <trkpt lat="43.61383" lon="5.38158">
        <ele>355.39999389648</ele>
        <time>2019-11-30T13:34:43.000Z</time>
      </trkpt>
      <trkpt lat="43.61385" lon="5.3816">
        <ele>355.60000610352</ele>
        <time>2019-11-30T13:34:44.000Z</time>
      </trkpt>
      <trkpt lat="43.61388" lon="5.38161">
        <ele>355.79998779297</ele>
        <time>2019-11-30T13:34:45.000Z</time>
      </trkpt>
      <trkpt lat="43.6139" lon="5.38164">
        <ele>356</ele>
        <time>2019-11-30T13:34:46.000Z</time>
      </trkpt>
      <trkpt lat="43.61393" lon="5.38167">
        <ele>356.20001220703</ele>
        <time>2019-11-30T13:34:47.000Z</time>
      </trkpt>
      <trkpt lat="43.61395" lon="5.3817">
        <ele>356.39999389648</ele>
        <time>2019-11-30T13:34:48.000Z</time>
      </trkpt>
      <trkpt lat="43.61398" lon="5.38172">
        <ele>356.60000610352</ele>
        <time>2019-11-30T13:34:49.000Z</time>
      </trkpt>
      <trkpt lat="43.61401" lon="5.38173">
        <ele>356.79998779297</ele>
        <time>2019-11-30T13:34:50.000Z</time>
      </trkpt>
      <trkpt lat="43.61402" lon="5.38175">
        <ele>357</ele>
        <time>2019-11-30T13:34:51.000Z</time>
      </trkpt>
      <trkpt lat="43.61404" lon="5.38178">
        <ele>357</ele>
        <time>2019-11-30T13:34:52.000Z</time>
      </trkpt>
      <trkpt lat="43.61407" lon="5.3818">
        <ele>357.20001220703</ele>
        <time>2019-11-30T13:34:53.000Z</time>
      </trkpt>
      <trkpt lat="43.61409" lon="5.38183">
        <ele>357.60000610352</ele>
        <time>2019-11-30T13:34:54.000Z</time>
      </trkpt>
      <trkpt lat="43.61411" lon="5.38185">
        <ele>357.79998779297</ele>
        <time>2019-11-30T13:34:55.000Z</time>
      </trkpt>
      <trkpt lat="43.61414" lon="5.38188">
        <ele>358</ele>
        <time>2019-11-30T13:34:56.000Z</time>
      </trkpt>
      <trkpt lat="43.61416" lon="5.3819">
        <ele>358.20001220703</ele>
        <time>2019-11-30T13:34:57.000Z</time>
      </trkpt>
      <trkpt lat="43.61419" lon="5.38192">
        <ele>358.39999389648</ele>
        <time>2019-11-30T13:34:58.000Z</time>
      </trkpt>
      <trkpt lat="43.6142" lon="5.38194">
        <ele>358.39999389648</ele>
        <time>2019-11-30T13:34:59.000Z</time>
      </trkpt>
      <trkpt lat="43.61423" lon="5.38196">
        <ele>358.60000610352</ele>
        <time>2019-11-30T13:35:00.000Z</time>
      </trkpt>
      <trkpt lat="43.61426" lon="5.38198">
        <ele>358.79998779297</ele>
        <time>2019-11-30T13:35:01.000Z</time>
      </trkpt>
      <trkpt lat="43.61429" lon="5.38201">
        <ele>359</ele>
        <time>2019-11-30T13:35:02.000Z</time>
      </trkpt>
      <trkpt lat="43.61431" lon="5.38203">
        <ele>359.20001220703</ele>
        <time>2019-11-30T13:35:03.000Z</time>
      </trkpt>
      <trkpt lat="43.61434" lon="5.38204">
        <ele>359.39999389648</ele>
        <time>2019-11-30T13:35:04.000Z</time>
      </trkpt>
      <trkpt lat="43.61436" lon="5.38206">
        <ele>359.60000610352</ele>
        <time>2019-11-30T13:35:05.000Z</time>
      </trkpt>
      <trkpt lat="43.61439" lon="5.38208">
        <ele>359.79998779297</ele>
        <time>2019-11-30T13:35:06.000Z</time>
      </trkpt>
      <trkpt lat="43.6144" lon="5.38211">
        <ele>360</ele>
        <time>2019-11-30T13:35:07.000Z</time>
      </trkpt>
      <trkpt lat="43.61443" lon="5.38214">
        <ele>360.20001220703</ele>
        <time>2019-11-30T13:35:08.000Z</time>
      </trkpt>
      <trkpt lat="43.61446" lon="5.38216">
        <ele>360.20001220703</ele>
        <time>2019-11-30T13:35:09.000Z</time>
      </trkpt>
      <trkpt lat="43.61447" lon="5.38217">
        <ele>360.39999389648</ele>
        <time>2019-11-30T13:35:10.000Z</time>
      </trkpt>
      <trkpt lat="43.6145" lon="5.38221">
        <ele>360.79998779297</ele>
        <time>2019-11-30T13:35:11.000Z</time>
      </trkpt>
      <trkpt lat="43.6145" lon="5.38223">
        <ele>360.79998779297</ele>
        <time>2019-11-30T13:35:12.000Z</time>
      </trkpt>
      <trkpt lat="43.61452" lon="5.38225">
        <ele>361</ele>
        <time>2019-11-30T13:35:13.000Z</time>
      </trkpt>
      <trkpt lat="43.61454" lon="5.38227">
        <ele>361.20001220703</ele>
        <time>2019-11-30T13:35:14.000Z</time>
      </trkpt>
      <trkpt lat="43.61456" lon="5.38231">
        <ele>361.39999389648</ele>
        <time>2019-11-30T13:35:15.000Z</time>
      </trkpt>
      <trkpt lat="43.61458" lon="5.38235">
        <ele>361.79998779297</ele>
        <time>2019-11-30T13:35:16.000Z</time>
      </trkpt>
      <trkpt lat="43.6146" lon="5.38238">
        <ele>362</ele>
        <time>2019-11-30T13:35:17.000Z</time>
      </trkpt>
      <trkpt lat="43.61461" lon="5.38242">
        <ele>362.20001220703</ele>
        <time>2019-11-30T13:35:18.000Z</time>
      </trkpt>
      <trkpt lat="43.61463" lon="5.38244">
        <ele>362.39999389648</ele>
        <time>2019-11-30T13:35:19.000Z</time>
      </trkpt>
      <trkpt lat="43.61465" lon="5.38248">
        <ele>362.79998779297</ele>
        <time>2019-11-30T13:35:20.000Z</time>
      </trkpt>
      <trkpt lat="43.61467" lon="5.38251">
        <ele>363</ele>
        <time>2019-11-30T13:35:21.000Z</time>
      </trkpt>
      <trkpt lat="43.61469" lon="5.38254">
        <ele>363.20001220703</ele>
        <time>2019-11-30T13:35:22.000Z</time>
      </trkpt>
      <trkpt lat="43.6147" lon="5.38257">
        <ele>363.60000610352</ele>
        <time>2019-11-30T13:35:23.000Z</time>
      </trkpt>
      <trkpt lat="43.61471" lon="5.38261">
        <ele>363.79998779297</ele>
        <time>2019-11-30T13:35:24.000Z</time>
      </trkpt>
      <trkpt lat="43.61473" lon="5.38263">
        <ele>364</ele>
        <time>2019-11-30T13:35:25.000Z</time>
      </trkpt>
      <trkpt lat="43.61474" lon="5.38267">
        <ele>364.39999389648</ele>
        <time>2019-11-30T13:35:26.000Z</time>
      </trkpt>
      <trkpt lat="43.61476" lon="5.3827">
        <ele>364.60000610352</ele>
        <time>2019-11-30T13:35:27.000Z</time>
      </trkpt>
      <trkpt lat="43.61478" lon="5.38272">
        <ele>364.79998779297</ele>
        <time>2019-11-30T13:35:28.000Z</time>
      </trkpt>
      <trkpt lat="43.61478" lon="5.38275">
        <ele>365</ele>
        <time>2019-11-30T13:35:29.000Z</time>
      </trkpt>
      <trkpt lat="43.61478" lon="5.38278">
        <ele>365.20001220703</ele>
        <time>2019-11-30T13:35:30.000Z</time>
      </trkpt>
      <trkpt lat="43.61478" lon="5.38281">
        <ele>365.60000610352</ele>
        <time>2019-11-30T13:35:31.000Z</time>
      </trkpt>
      <trkpt lat="43.61479" lon="5.38284">
        <ele>365.79998779297</ele>
        <time>2019-11-30T13:35:32.000Z</time>
      </trkpt>
      <trkpt lat="43.6148" lon="5.38288">
        <ele>366.20001220703</ele>
        <time>2019-11-30T13:35:33.000Z</time>
      </trkpt>
      <trkpt lat="43.61481" lon="5.38293">
        <ele>366.60000610352</ele>
        <time>2019-11-30T13:35:34.000Z</time>
      </trkpt>
      <trkpt lat="43.61481" lon="5.38296">
        <ele>366.79998779297</ele>
        <time>2019-11-30T13:35:35.000Z</time>
      </trkpt>
      <trkpt lat="43.61483" lon="5.383">
        <ele>367</ele>
        <time>2019-11-30T13:35:36.000Z</time>
      </trkpt>
      <trkpt lat="43.61483" lon="5.38304">
        <ele>367</ele>
        <time>2019-11-30T13:35:37.000Z</time>
      </trkpt>
      <trkpt lat="43.61482" lon="5.38309">
        <ele>367</ele>
        <time>2019-11-30T13:35:38.000Z</time>
      </trkpt>
      <trkpt lat="43.61484" lon="5.38311">
        <ele>367</ele>
        <time>2019-11-30T13:35:39.000Z</time>
      </trkpt>
      <trkpt lat="43.61486" lon="5.38313">
        <ele>367</ele>
        <time>2019-11-30T13:35:40.000Z</time>
      </trkpt>
      <trkpt lat="43.61489" lon="5.38314">
        <ele>367</ele>
        <time>2019-11-30T13:35:41.000Z</time>
      </trkpt>
      <trkpt lat="43.61491" lon="5.38316">
        <ele>367</ele>
        <time>2019-11-30T13:35:42.000Z</time>
      </trkpt>
      <trkpt lat="43.61494" lon="5.38318">
        <ele>367</ele>
        <time>2019-11-30T13:35:43.000Z</time>
      </trkpt>
      <trkpt lat="43.61496" lon="5.3832">
        <ele>367</ele>
        <time>2019-11-30T13:35:44.000Z</time>
      </trkpt>
      <trkpt lat="43.61498" lon="5.38322">
        <ele>367</ele>
        <time>2019-11-30T13:35:45.000Z</time>
      </trkpt>
      <trkpt lat="43.61501" lon="5.38324">
        <ele>367</ele>
        <time>2019-11-30T13:35:46.000Z</time>
      </trkpt>
      <trkpt lat="43.61503" lon="5.38326">
        <ele>367</ele>
        <time>2019-11-30T13:35:47.000Z</time>
      </trkpt>
      <trkpt lat="43.61505" lon="5.38329">
        <ele>367</ele>
        <time>2019-11-30T13:35:48.000Z</time>
      </trkpt>
      <trkpt lat="43.6151" lon="5.38333">
        <ele>367</ele>
        <time>2019-11-30T13:35:49.000Z</time>
      </trkpt>
      <trkpt lat="43.61513" lon="5.38336">
        <ele>367</ele>
        <time>2019-11-30T13:35:50.000Z</time>
      </trkpt>
      <trkpt lat="43.61517" lon="5.38339">
        <ele>367</ele>
        <time>2019-11-30T13:35:51.000Z</time>
      </trkpt>
      <trkpt lat="43.6152" lon="5.38344">
        <ele>367</ele>
        <time>2019-11-30T13:35:52.000Z</time>
      </trkpt>
      <trkpt lat="43.61523" lon="5.38348">
        <ele>367</ele>
        <time>2019-11-30T13:35:53.000Z</time>
      </trkpt>
      <trkpt lat="43.61526" lon="5.38352">
        <ele>367</ele>
        <time>2019-11-30T13:35:54.000Z</time>
      </trkpt>
      <trkpt lat="43.61529" lon="5.38354">
        <ele>367</ele>
        <time>2019-11-30T13:35:55.000Z</time>
      </trkpt>
      <trkpt lat="43.6153" lon="5.38355">
        <ele>367</ele>
        <time>2019-11-30T13:35:56.000Z</time>
      </trkpt>
      <trkpt lat="43.61531" lon="5.38357">
        <ele>367</ele>
        <time>2019-11-30T13:35:57.000Z</time>
      </trkpt>
      <trkpt lat="43.61533" lon="5.38359">
        <ele>367</ele>
        <time>2019-11-30T13:35:58.000Z</time>
      </trkpt>
      <trkpt lat="43.61541" lon="5.3836">
        <ele>367</ele>
        <time>2019-11-30T13:35:59.000Z</time>
      </trkpt>
      <trkpt lat="43.61541" lon="5.38363">
        <ele>367</ele>
        <time>2019-11-30T13:36:00.000Z</time>
      </trkpt>
      <trkpt lat="43.61541" lon="5.38366">
        <ele>367</ele>
        <time>2019-11-30T13:36:01.000Z</time>
      </trkpt>
      <trkpt lat="43.61543" lon="5.38369">
        <ele>367</ele>
        <time>2019-11-30T13:36:02.000Z</time>
      </trkpt>
      <trkpt lat="43.61546" lon="5.38372">
        <ele>367</ele>
        <time>2019-11-30T13:36:03.000Z</time>
      </trkpt>
      <trkpt lat="43.61548" lon="5.38375">
        <ele>367</ele>
        <time>2019-11-30T13:36:04.000Z</time>
      </trkpt>
      <trkpt lat="43.61551" lon="5.38378">
        <ele>367</ele>
        <time>2019-11-30T13:36:05.000Z</time>
      </trkpt>
      <trkpt lat="43.61553" lon="5.3838">
        <ele>367</ele>
        <time>2019-11-30T13:36:06.000Z</time>
      </trkpt>
      <trkpt lat="43.61556" lon="5.38384">
        <ele>367</ele>
        <time>2019-11-30T13:36:07.000Z</time>
      </trkpt>
      <trkpt lat="43.61558" lon="5.38386">
        <ele>367.20001220703</ele>
        <time>2019-11-30T13:36:08.000Z</time>
      </trkpt>
      <trkpt lat="43.6156" lon="5.38389">
        <ele>367.20001220703</ele>
        <time>2019-11-30T13:36:09.000Z</time>
      </trkpt>
      <trkpt lat="43.61562" lon="5.38391">
        <ele>367.20001220703</ele>
        <time>2019-11-30T13:36:10.000Z</time>
      </trkpt>
      <trkpt lat="43.61564" lon="5.38394">
        <ele>367.20001220703</ele>
        <time>2019-11-30T13:36:11.000Z</time>
      </trkpt>
      <trkpt lat="43.61566" lon="5.38396">
        <ele>367.39999389648</ele>
        <time>2019-11-30T13:36:12.000Z</time>
      </trkpt>
      <trkpt lat="43.61568" lon="5.38399">
        <ele>367.39999389648</ele>
        <time>2019-11-30T13:36:13.000Z</time>
      </trkpt>
      <trkpt lat="43.6157" lon="5.38402">
        <ele>367.39999389648</ele>
        <time>2019-11-30T13:36:14.000Z</time>
      </trkpt>
      <trkpt lat="43.61572" lon="5.38404">
        <ele>367.60000610352</ele>
        <time>2019-11-30T13:36:15.000Z</time>
      </trkpt>
      <trkpt lat="43.61574" lon="5.38406">
        <ele>367.60000610352</ele>
        <time>2019-11-30T13:36:16.000Z</time>
      </trkpt>
      <trkpt lat="43.61576" lon="5.38408">
        <ele>367.60000610352</ele>
        <time>2019-11-30T13:36:17.000Z</time>
      </trkpt>
      <trkpt lat="43.61578" lon="5.38411">
        <ele>367.79998779297</ele>
        <time>2019-11-30T13:36:18.000Z</time>
      </trkpt>
      <trkpt lat="43.6158" lon="5.38413">
        <ele>367.79998779297</ele>
        <time>2019-11-30T13:36:19.000Z</time>
      </trkpt>
      <trkpt lat="43.61581" lon="5.38415">
        <ele>367.79998779297</ele>
        <time>2019-11-30T13:36:20.000Z</time>
      </trkpt>
      <trkpt lat="43.61583" lon="5.38418">
        <ele>367.79998779297</ele>
        <time>2019-11-30T13:36:21.000Z</time>
      </trkpt>
      <trkpt lat="43.61585" lon="5.3842">
        <ele>368</ele>
        <time>2019-11-30T13:36:22.000Z</time>
      </trkpt>
      <trkpt lat="43.61588" lon="5.38424">
        <ele>368</ele>
        <time>2019-11-30T13:36:23.000Z</time>
      </trkpt>
      <trkpt lat="43.61589" lon="5.38427">
        <ele>368</ele>
        <time>2019-11-30T13:36:24.000Z</time>
      </trkpt>
      <trkpt lat="43.61591" lon="5.38431">
        <ele>368.20001220703</ele>
        <time>2019-11-30T13:36:25.000Z</time>
      </trkpt>
      <trkpt lat="43.61592" lon="5.38434">
        <ele>368.20001220703</ele>
        <time>2019-11-30T13:36:26.000Z</time>
      </trkpt>
      <trkpt lat="43.61594" lon="5.38438">
        <ele>368.39999389648</ele>
        <time>2019-11-30T13:36:27.000Z</time>
      </trkpt>
      <trkpt lat="43.61595" lon="5.38441">
        <ele>368.39999389648</ele>
        <time>2019-11-30T13:36:28.000Z</time>
      </trkpt>
      <trkpt lat="43.61597" lon="5.38444">
        <ele>368.60000610352</ele>
        <time>2019-11-30T13:36:29.000Z</time>
      </trkpt>
      <trkpt lat="43.61598" lon="5.38448">
        <ele>368.60000610352</ele>
        <time>2019-11-30T13:36:30.000Z</time>
      </trkpt>
      <trkpt lat="43.616" lon="5.38451">
        <ele>368.60000610352</ele>
        <time>2019-11-30T13:36:31.000Z</time>
      </trkpt>
      <trkpt lat="43.61601" lon="5.38455">
        <ele>368.79998779297</ele>
        <time>2019-11-30T13:36:32.000Z</time>
      </trkpt>
      <trkpt lat="43.61603" lon="5.38458">
        <ele>368.79998779297</ele>
        <time>2019-11-30T13:36:33.000Z</time>
      </trkpt>
      <trkpt lat="43.61604" lon="5.38462">
        <ele>369.20001220703</ele>
        <time>2019-11-30T13:36:34.000Z</time>
      </trkpt>
      <trkpt lat="43.61606" lon="5.38465">
        <ele>369.39999389648</ele>
        <time>2019-11-30T13:36:35.000Z</time>
      </trkpt>
      <trkpt lat="43.61607" lon="5.38469">
        <ele>369.60000610352</ele>
        <time>2019-11-30T13:36:36.000Z</time>
      </trkpt>
      <trkpt lat="43.61609" lon="5.38473">
        <ele>370</ele>
        <time>2019-11-30T13:36:37.000Z</time>
      </trkpt>
      <trkpt lat="43.6161" lon="5.38476">
        <ele>370.39999389648</ele>
        <time>2019-11-30T13:36:38.000Z</time>
      </trkpt>
      <trkpt lat="43.61612" lon="5.38479">
        <ele>370.60000610352</ele>
        <time>2019-11-30T13:36:39.000Z</time>
      </trkpt>
      <trkpt lat="43.61613" lon="5.38483">
        <ele>371</ele>
        <time>2019-11-30T13:36:40.000Z</time>
      </trkpt>
      <trkpt lat="43.61615" lon="5.38487">
        <ele>371.39999389648</ele>
        <time>2019-11-30T13:36:41.000Z</time>
      </trkpt>
      <trkpt lat="43.61616" lon="5.3849">
        <ele>371.79998779297</ele>
        <time>2019-11-30T13:36:42.000Z</time>
      </trkpt>
      <trkpt lat="43.61618" lon="5.38494">
        <ele>372</ele>
        <time>2019-11-30T13:36:43.000Z</time>
      </trkpt>
      <trkpt lat="43.61619" lon="5.38497">
        <ele>372.39999389648</ele>
        <time>2019-11-30T13:36:44.000Z</time>
      </trkpt>
      <trkpt lat="43.61621" lon="5.385">
        <ele>372.60000610352</ele>
        <time>2019-11-30T13:36:45.000Z</time>
      </trkpt>
      <trkpt lat="43.61622" lon="5.38503">
        <ele>373</ele>
        <time>2019-11-30T13:36:46.000Z</time>
      </trkpt>
      <trkpt lat="43.61623" lon="5.38507">
        <ele>373.20001220703</ele>
        <time>2019-11-30T13:36:47.000Z</time>
      </trkpt>
      <trkpt lat="43.61625" lon="5.3851">
        <ele>373.60000610352</ele>
        <time>2019-11-30T13:36:48.000Z</time>
      </trkpt>
      <trkpt lat="43.61626" lon="5.38513">
        <ele>374</ele>
        <time>2019-11-30T13:36:49.000Z</time>
      </trkpt>
      <trkpt lat="43.61628" lon="5.38516">
        <ele>374.20001220703</ele>
        <time>2019-11-30T13:36:50.000Z</time>
      </trkpt>
      <trkpt lat="43.61629" lon="5.3852">
        <ele>374.60000610352</ele>
        <time>2019-11-30T13:36:51.000Z</time>
      </trkpt>
      <trkpt lat="43.61631" lon="5.38524">
        <ele>375</ele>
        <time>2019-11-30T13:36:52.000Z</time>
      </trkpt>
      <trkpt lat="43.61632" lon="5.38527">
        <ele>375.20001220703</ele>
        <time>2019-11-30T13:36:53.000Z</time>
      </trkpt>
      <trkpt lat="43.61633" lon="5.3853">
        <ele>375.60000610352</ele>
        <time>2019-11-30T13:36:54.000Z</time>
      </trkpt>
      <trkpt lat="43.61635" lon="5.38533">
        <ele>375.79998779297</ele>
        <time>2019-11-30T13:36:55.000Z</time>
      </trkpt>
      <trkpt lat="43.61636" lon="5.38537">
        <ele>376.20001220703</ele>
        <time>2019-11-30T13:36:56.000Z</time>
      </trkpt>
      <trkpt lat="43.61638" lon="5.3854">
        <ele>376.60000610352</ele>
        <time>2019-11-30T13:36:57.000Z</time>
      </trkpt>
      <trkpt lat="43.61639" lon="5.38544">
        <ele>377</ele>
        <time>2019-11-30T13:36:58.000Z</time>
      </trkpt>
      <trkpt lat="43.61641" lon="5.38547">
        <ele>377.20001220703</ele>
        <time>2019-11-30T13:36:59.000Z</time>
      </trkpt>
      <trkpt lat="43.61642" lon="5.3855">
        <ele>377.39999389648</ele>
        <time>2019-11-30T13:37:00.000Z</time>
      </trkpt>
      <trkpt lat="43.61644" lon="5.38554">
        <ele>377.60000610352</ele>
        <time>2019-11-30T13:37:01.000Z</time>
      </trkpt>
      <trkpt lat="43.61645" lon="5.38557">
        <ele>377.79998779297</ele>
        <time>2019-11-30T13:37:02.000Z</time>
      </trkpt>
      <trkpt lat="43.61647" lon="5.3856">
        <ele>378.20001220703</ele>
        <time>2019-11-30T13:37:03.000Z</time>
      </trkpt>
      <trkpt lat="43.61648" lon="5.38564">
        <ele>378.39999389648</ele>
        <time>2019-11-30T13:37:04.000Z</time>
      </trkpt>
      <trkpt lat="43.6165" lon="5.38568">
        <ele>378.60000610352</ele>
        <time>2019-11-30T13:37:05.000Z</time>
      </trkpt>
      <trkpt lat="43.61651" lon="5.38571">
        <ele>378.79998779297</ele>
        <time>2019-11-30T13:37:06.000Z</time>
      </trkpt>
      <trkpt lat="43.61652" lon="5.38573">
        <ele>379</ele>
        <time>2019-11-30T13:37:07.000Z</time>
      </trkpt>
      <trkpt lat="43.61655" lon="5.38576">
        <ele>379.20001220703</ele>
        <time>2019-11-30T13:37:08.000Z</time>
      </trkpt>
      <trkpt lat="43.61657" lon="5.38579">
        <ele>379.39999389648</ele>
        <time>2019-11-30T13:37:09.000Z</time>
      </trkpt>
      <trkpt lat="43.61659" lon="5.38581">
        <ele>379.60000610352</ele>
        <time>2019-11-30T13:37:10.000Z</time>
      </trkpt>
      <trkpt lat="43.61661" lon="5.38584">
        <ele>379.79998779297</ele>
        <time>2019-11-30T13:37:11.000Z</time>
      </trkpt>
      <trkpt lat="43.61664" lon="5.38586">
        <ele>380</ele>
        <time>2019-11-30T13:37:12.000Z</time>
      </trkpt>
      <trkpt lat="43.61666" lon="5.38589">
        <ele>380.20001220703</ele>
        <time>2019-11-30T13:37:13.000Z</time>
      </trkpt>
      <trkpt lat="43.61667" lon="5.38591">
        <ele>380.39999389648</ele>
        <time>2019-11-30T13:37:14.000Z</time>
      </trkpt>
      <trkpt lat="43.61669" lon="5.38593">
        <ele>380.60000610352</ele>
        <time>2019-11-30T13:37:15.000Z</time>
      </trkpt>
      <trkpt lat="43.61671" lon="5.38595">
        <ele>380.79998779297</ele>
        <time>2019-11-30T13:37:16.000Z</time>
      </trkpt>
      <trkpt lat="43.61673" lon="5.38597">
        <ele>381</ele>
        <time>2019-11-30T13:37:17.000Z</time>
      </trkpt>
      <trkpt lat="43.61674" lon="5.38599">
        <ele>381.20001220703</ele>
        <time>2019-11-30T13:37:18.000Z</time>
      </trkpt>
      <trkpt lat="43.61676" lon="5.38601">
        <ele>381.39999389648</ele>
        <time>2019-11-30T13:37:19.000Z</time>
      </trkpt>
      <trkpt lat="43.61678" lon="5.38603">
        <ele>381.60000610352</ele>
        <time>2019-11-30T13:37:20.000Z</time>
      </trkpt>
      <trkpt lat="43.6168" lon="5.38603">
        <ele>381.60000610352</ele>
        <time>2019-11-30T13:37:21.000Z</time>
      </trkpt>
      <trkpt lat="43.61683" lon="5.38603">
        <ele>381.79998779297</ele>
        <time>2019-11-30T13:37:22.000Z</time>
      </trkpt>
      <trkpt lat="43.61685" lon="5.38603">
        <ele>382</ele>
        <time>2019-11-30T13:37:23.000Z</time>
      </trkpt>
      <trkpt lat="43.61687" lon="5.38603">
        <ele>382</ele>
        <time>2019-11-30T13:37:24.000Z</time>
      </trkpt>
      <trkpt lat="43.61689" lon="5.38603">
        <ele>382.20001220703</ele>
        <time>2019-11-30T13:37:25.000Z</time>
      </trkpt>
      <trkpt lat="43.61691" lon="5.38603">
        <ele>382.39999389648</ele>
        <time>2019-11-30T13:37:26.000Z</time>
      </trkpt>
      <trkpt lat="43.61694" lon="5.38603">
        <ele>382.60000610352</ele>
        <time>2019-11-30T13:37:27.000Z</time>
      </trkpt>
      <trkpt lat="43.61695" lon="5.38603">
        <ele>382.60000610352</ele>
        <time>2019-11-30T13:37:28.000Z</time>
      </trkpt>
      <trkpt lat="43.61695" lon="5.38603">
        <ele>382.60000610352</ele>
        <time>2019-11-30T13:37:29.000Z</time>
      </trkpt>
      <trkpt lat="43.61697" lon="5.38599">
        <ele>382.60000610352</ele>
        <time>2019-11-30T13:37:30.000Z</time>
      </trkpt>
      <trkpt lat="43.61698" lon="5.38598">
        <ele>382.60000610352</ele>
        <time>2019-11-30T13:37:31.000Z</time>
      </trkpt>
      <trkpt lat="43.61698" lon="5.38598">
        <ele>382.60000610352</ele>
        <time>2019-11-30T13:37:32.000Z</time>
      </trkpt>
      <trkpt lat="43.61698" lon="5.38598">
        <ele>382.60000610352</ele>
        <time>2019-11-30T13:37:33.000Z</time>
      </trkpt>
      <trkpt lat="43.61698" lon="5.38598">
        <ele>382.60000610352</ele>
        <time>2019-11-30T13:37:34.000Z</time>
      </trkpt>
      <trkpt lat="43.61698" lon="5.38598">
        <ele>382.60000610352</ele>
        <time>2019-11-30T13:37:35.000Z</time>
      </trkpt>
      <trkpt lat="43.61698" lon="5.38598">
        <ele>382.60000610352</ele>
        <time>2019-11-30T13:37:36.000Z</time>
      </trkpt>
      <trkpt lat="43.61698" lon="5.38598">
        <ele>382.60000610352</ele>
        <time>2019-11-30T13:37:37.000Z</time>
      </trkpt>
      <trkpt lat="43.61698" lon="5.38598">
        <ele>382.60000610352</ele>
        <time>2019-11-30T13:37:38.000Z</time>
      </trkpt>
      <trkpt lat="43.61698" lon="5.38598">
        <ele>382.60000610352</ele>
        <time>2019-11-30T13:37:39.000Z</time>
      </trkpt>
      <trkpt lat="43.61698" lon="5.38599">
        <ele>382.60000610352</ele>
        <time>2019-11-30T13:37:40.000Z</time>
      </trkpt>
      <trkpt lat="43.61695" lon="5.38603">
        <ele>382.60000610352</ele>
        <time>2019-11-30T13:37:41.000Z</time>
      </trkpt>
      <trkpt lat="43.61695" lon="5.38603">
        <ele>382.60000610352</ele>
        <time>2019-11-30T13:37:42.000Z</time>
      </trkpt>
      <trkpt lat="43.61695" lon="5.38603">
        <ele>382.60000610352</ele>
        <time>2019-11-30T13:37:43.000Z</time>
      </trkpt>
      <trkpt lat="43.61695" lon="5.38603">
        <ele>382.60000610352</ele>
        <time>2019-11-30T13:37:44.000Z</time>
      </trkpt>
      <trkpt lat="43.61695" lon="5.38603">
        <ele>382.60000610352</ele>
        <time>2019-11-30T13:37:45.000Z</time>
      </trkpt>
      <trkpt lat="43.61695" lon="5.38603">
        <ele>382.60000610352</ele>
        <time>2019-11-30T13:37:46.000Z</time>
      </trkpt>
      <trkpt lat="43.61695" lon="5.38603">
        <ele>382.60000610352</ele>
        <time>2019-11-30T13:37:47.000Z</time>
      </trkpt>
      <trkpt lat="43.61695" lon="5.38603">
        <ele>382.60000610352</ele>
        <time>2019-11-30T13:37:48.000Z</time>
      </trkpt>
      <trkpt lat="43.61695" lon="5.38603">
        <ele>382.60000610352</ele>
        <time>2019-11-30T13:37:49.000Z</time>
      </trkpt>
      <trkpt lat="43.61727" lon="5.38612">
        <ele>384.79998779297</ele>
        <time>2019-11-30T13:37:50.000Z</time>
      </trkpt>
      <trkpt lat="43.61731" lon="5.38612">
        <ele>385</ele>
        <time>2019-11-30T13:37:51.000Z</time>
      </trkpt>
      <trkpt lat="43.61735" lon="5.38612">
        <ele>385.20001220703</ele>
        <time>2019-11-30T13:37:52.000Z</time>
      </trkpt>
      <trkpt lat="43.6174" lon="5.38612">
        <ele>385.60000610352</ele>
        <time>2019-11-30T13:37:53.000Z</time>
      </trkpt>
      <trkpt lat="43.61743" lon="5.38611">
        <ele>385.79998779297</ele>
        <time>2019-11-30T13:37:54.000Z</time>
      </trkpt>
      <trkpt lat="43.61747" lon="5.38612">
        <ele>386</ele>
        <time>2019-11-30T13:37:55.000Z</time>
      </trkpt>
      <trkpt lat="43.61751" lon="5.38612">
        <ele>386.39999389648</ele>
        <time>2019-11-30T13:37:56.000Z</time>
      </trkpt>
      <trkpt lat="43.61755" lon="5.38611">
        <ele>387</ele>
        <time>2019-11-30T13:37:57.000Z</time>
      </trkpt>
      <trkpt lat="43.61758" lon="5.38611">
        <ele>387.39999389648</ele>
        <time>2019-11-30T13:37:58.000Z</time>
      </trkpt>
      <trkpt lat="43.61761" lon="5.38611">
        <ele>387.79998779297</ele>
        <time>2019-11-30T13:37:59.000Z</time>
      </trkpt>
      <trkpt lat="43.61764" lon="5.3861">
        <ele>388.39999389648</ele>
        <time>2019-11-30T13:38:00.000Z</time>
      </trkpt>
      <trkpt lat="43.61767" lon="5.3861">
        <ele>388.79998779297</ele>
        <time>2019-11-30T13:38:01.000Z</time>
      </trkpt>
      <trkpt lat="43.61769" lon="5.3861">
        <ele>389.20001220703</ele>
        <time>2019-11-30T13:38:02.000Z</time>
      </trkpt>
      <trkpt lat="43.61773" lon="5.38608">
        <ele>389.60000610352</ele>
        <time>2019-11-30T13:38:03.000Z</time>
      </trkpt>
      <trkpt lat="43.61776" lon="5.38607">
        <ele>390</ele>
        <time>2019-11-30T13:38:04.000Z</time>
      </trkpt>
      <trkpt lat="43.6178" lon="5.38605">
        <ele>390.39999389648</ele>
        <time>2019-11-30T13:38:05.000Z</time>
      </trkpt>
      <trkpt lat="43.61782" lon="5.38604">
        <ele>390.79998779297</ele>
        <time>2019-11-30T13:38:06.000Z</time>
      </trkpt>
      <trkpt lat="43.61786" lon="5.38602">
        <ele>391.20001220703</ele>
        <time>2019-11-30T13:38:07.000Z</time>
      </trkpt>
      <trkpt lat="43.6179" lon="5.386">
        <ele>391.79998779297</ele>
        <time>2019-11-30T13:38:08.000Z</time>
      </trkpt>
      <trkpt lat="43.61792" lon="5.38598">
        <ele>392</ele>
        <time>2019-11-30T13:38:09.000Z</time>
      </trkpt>
      <trkpt lat="43.61793" lon="5.38596">
        <ele>392.39999389648</ele>
        <time>2019-11-30T13:38:10.000Z</time>
      </trkpt>
      <trkpt lat="43.61796" lon="5.38594">
        <ele>392.79998779297</ele>
        <time>2019-11-30T13:38:11.000Z</time>
      </trkpt>
      <trkpt lat="43.61798" lon="5.38592">
        <ele>393</ele>
        <time>2019-11-30T13:38:12.000Z</time>
      </trkpt>
      <trkpt lat="43.61804" lon="5.38588">
        <ele>394</ele>
        <time>2019-11-30T13:38:13.000Z</time>
      </trkpt>
      <trkpt lat="43.61807" lon="5.38585">
        <ele>394.20001220703</ele>
        <time>2019-11-30T13:38:14.000Z</time>
      </trkpt>
      <trkpt lat="43.6181" lon="5.38582">
        <ele>394.39999389648</ele>
        <time>2019-11-30T13:38:15.000Z</time>
      </trkpt>
      <trkpt lat="43.61813" lon="5.38579">
        <ele>394.60000610352</ele>
        <time>2019-11-30T13:38:16.000Z</time>
      </trkpt>
      <trkpt lat="43.61818" lon="5.38576">
        <ele>394.79998779297</ele>
        <time>2019-11-30T13:38:17.000Z</time>
      </trkpt>
      <trkpt lat="43.61821" lon="5.38575">
        <ele>394.79998779297</ele>
        <time>2019-11-30T13:38:18.000Z</time>
      </trkpt>
      <trkpt lat="43.61824" lon="5.38573">
        <ele>395</ele>
        <time>2019-11-30T13:38:19.000Z</time>
      </trkpt>
      <trkpt lat="43.61828" lon="5.3857">
        <ele>395</ele>
        <time>2019-11-30T13:38:20.000Z</time>
      </trkpt>
      <trkpt lat="43.61832" lon="5.38567">
        <ele>395.20001220703</ele>
        <time>2019-11-30T13:38:21.000Z</time>
      </trkpt>
      <trkpt lat="43.61834" lon="5.38567">
        <ele>395.39999389648</ele>
        <time>2019-11-30T13:38:22.000Z</time>
      </trkpt>
      <trkpt lat="43.61838" lon="5.38565">
        <ele>395.60000610352</ele>
        <time>2019-11-30T13:38:23.000Z</time>
      </trkpt>
      <trkpt lat="43.61842" lon="5.38563">
        <ele>395.60000610352</ele>
        <time>2019-11-30T13:38:24.000Z</time>
      </trkpt>
      <trkpt lat="43.61845" lon="5.38562">
        <ele>395.79998779297</ele>
        <time>2019-11-30T13:38:25.000Z</time>
      </trkpt>
      <trkpt lat="43.61848" lon="5.3856">
        <ele>396</ele>
        <time>2019-11-30T13:38:26.000Z</time>
      </trkpt>
      <trkpt lat="43.61852" lon="5.38559">
        <ele>396.20001220703</ele>
        <time>2019-11-30T13:38:27.000Z</time>
      </trkpt>
      <trkpt lat="43.61857" lon="5.38558">
        <ele>396.79998779297</ele>
        <time>2019-11-30T13:38:28.000Z</time>
      </trkpt>
      <trkpt lat="43.61861" lon="5.38557">
        <ele>397.20001220703</ele>
        <time>2019-11-30T13:38:29.000Z</time>
      </trkpt>
      <trkpt lat="43.61863" lon="5.38558">
        <ele>397.39999389648</ele>
        <time>2019-11-30T13:38:30.000Z</time>
      </trkpt>
      <trkpt lat="43.61865" lon="5.38556">
        <ele>397.39999389648</ele>
        <time>2019-11-30T13:38:31.000Z</time>
      </trkpt>
      <trkpt lat="43.6187" lon="5.38554">
        <ele>397.60000610352</ele>
        <time>2019-11-30T13:38:32.000Z</time>
      </trkpt>
      <trkpt lat="43.61874" lon="5.38553">
        <ele>397.60000610352</ele>
        <time>2019-11-30T13:38:33.000Z</time>
      </trkpt>
      <trkpt lat="43.61878" lon="5.38552">
        <ele>397.79998779297</ele>
        <time>2019-11-30T13:38:34.000Z</time>
      </trkpt>
      <trkpt lat="43.61881" lon="5.38552">
        <ele>398</ele>
        <time>2019-11-30T13:38:35.000Z</time>
      </trkpt>
      <trkpt lat="43.61886" lon="5.38551">
        <ele>398.20001220703</ele>
        <time>2019-11-30T13:38:36.000Z</time>
      </trkpt>
      <trkpt lat="43.61889" lon="5.38551">
        <ele>398.39999389648</ele>
        <time>2019-11-30T13:38:37.000Z</time>
      </trkpt>
      <trkpt lat="43.61893" lon="5.3855">
        <ele>398.60000610352</ele>
        <time>2019-11-30T13:38:38.000Z</time>
      </trkpt>
      <trkpt lat="43.61894" lon="5.38551">
        <ele>398.60000610352</ele>
        <time>2019-11-30T13:38:39.000Z</time>
      </trkpt>
      <trkpt lat="43.61894" lon="5.38552">
        <ele>398.79998779297</ele>
        <time>2019-11-30T13:38:40.000Z</time>
      </trkpt>
      <trkpt lat="43.61895" lon="5.38552">
        <ele>398.79998779297</ele>
        <time>2019-11-30T13:38:41.000Z</time>
      </trkpt>
      <trkpt lat="43.619" lon="5.38551">
        <ele>399</ele>
        <time>2019-11-30T13:38:42.000Z</time>
      </trkpt>
      <trkpt lat="43.61904" lon="5.38551">
        <ele>399.39999389648</ele>
        <time>2019-11-30T13:38:43.000Z</time>
      </trkpt>
      <trkpt lat="43.61907" lon="5.3855">
        <ele>399.39999389648</ele>
        <time>2019-11-30T13:38:44.000Z</time>
      </trkpt>
      <trkpt lat="43.6191" lon="5.38551">
        <ele>399.60000610352</ele>
        <time>2019-11-30T13:38:45.000Z</time>
      </trkpt>
      <trkpt lat="43.61913" lon="5.38552">
        <ele>400</ele>
        <time>2019-11-30T13:38:46.000Z</time>
      </trkpt>
      <trkpt lat="43.61916" lon="5.38554">
        <ele>400.20001220703</ele>
        <time>2019-11-30T13:38:47.000Z</time>
      </trkpt>
      <trkpt lat="43.6192" lon="5.38554">
        <ele>400.39999389648</ele>
        <time>2019-11-30T13:38:48.000Z</time>
      </trkpt>
      <trkpt lat="43.61922" lon="5.38557">
        <ele>404.7</ele>
        <time>2019-11-30T13:41:31.000Z</time>
      </trkpt>
      <trkpt lat="43.61924" lon="5.38559">
        <ele>401</ele>
        <time>2019-11-30T13:41:32.000Z</time>
      </trkpt>
      <trkpt lat="43.61921" lon="5.38561">
        <ele>401</ele>
        <time>2019-11-30T13:41:33.000Z</time>
      </trkpt>
      <trkpt lat="43.61918" lon="5.38564">
        <ele>401</ele>
        <time>2019-11-30T13:41:34.000Z</time>
      </trkpt>
      <trkpt lat="43.61915" lon="5.38568">
        <ele>401.20001220703</ele>
        <time>2019-11-30T13:41:35.000Z</time>
      </trkpt>
      <trkpt lat="43.61912" lon="5.38571">
        <ele>401.20001220703</ele>
        <time>2019-11-30T13:41:36.000Z</time>
      </trkpt>
      <trkpt lat="43.6191" lon="5.38575">
        <ele>401.39999389648</ele>
        <time>2019-11-30T13:41:37.000Z</time>
      </trkpt>
      <trkpt lat="43.61907" lon="5.38579">
        <ele>401.60000610352</ele>
        <time>2019-11-30T13:41:38.000Z</time>
      </trkpt>
      <trkpt lat="43.61904" lon="5.38583">
        <ele>401.60000610352</ele>
        <time>2019-11-30T13:41:39.000Z</time>
      </trkpt>
      <trkpt lat="43.61901" lon="5.38588">
        <ele>401.79998779297</ele>
        <time>2019-11-30T13:41:40.000Z</time>
      </trkpt>
      <trkpt lat="43.61899" lon="5.38593">
        <ele>402</ele>
        <time>2019-11-30T13:41:41.000Z</time>
      </trkpt>
      <trkpt lat="43.61899" lon="5.38598">
        <ele>402.20001220703</ele>
        <time>2019-11-30T13:41:42.000Z</time>
      </trkpt>
      <trkpt lat="43.61898" lon="5.38603">
        <ele>402.20001220703</ele>
        <time>2019-11-30T13:41:43.000Z</time>
      </trkpt>
      <trkpt lat="43.61897" lon="5.38608">
        <ele>402</ele>
        <time>2019-11-30T13:41:44.000Z</time>
      </trkpt>
      <trkpt lat="43.61896" lon="5.38612">
        <ele>402</ele>
        <time>2019-11-30T13:41:45.000Z</time>
      </trkpt>
      <trkpt lat="43.61896" lon="5.38616">
        <ele>402.20001220703</ele>
        <time>2019-11-30T13:41:46.000Z</time>
      </trkpt>
      <trkpt lat="43.61896" lon="5.38621">
        <ele>402.20001220703</ele>
        <time>2019-11-30T13:41:47.000Z</time>
      </trkpt>
      <trkpt lat="43.61894" lon="5.38626">
        <ele>402</ele>
        <time>2019-11-30T13:41:48.000Z</time>
      </trkpt>
      <trkpt lat="43.61893" lon="5.3863">
        <ele>401.79998779297</ele>
        <time>2019-11-30T13:41:49.000Z</time>
      </trkpt>
      <trkpt lat="43.61892" lon="5.38635">
        <ele>402.20001220703</ele>
        <time>2019-11-30T13:41:50.000Z</time>
      </trkpt>
      <trkpt lat="43.61892" lon="5.38639">
        <ele>403</ele>
        <time>2019-11-30T13:41:51.000Z</time>
      </trkpt>
      <trkpt lat="43.61892" lon="5.38644">
        <ele>403.60000610352</ele>
        <time>2019-11-30T13:54:13.000Z</time>
      </trkpt>
      <trkpt lat="43.61888" lon="5.38654">
        <ele>401.9</ele>
        <time>2019-11-30T13:54:13.000Z</time>
      </trkpt>
      <trkpt lat="43.61889" lon="5.3865">
        <ele>401.8</ele>
        <time>2019-11-30T13:42:15.000Z</time>
      </trkpt>
      <trkpt lat="43.61889" lon="5.3865">
        <ele>401.8</ele>
        <time>2019-11-30T13:42:15.000Z</time>
      </trkpt>
      <trkpt lat="43.61887" lon="5.38659">
        <ele>405.20001220703</ele>
        <time>2019-11-30T13:42:16.000Z</time>
      </trkpt>
      <trkpt lat="43.61884" lon="5.38663">
        <ele>405.39999389648</ele>
        <time>2019-11-30T13:42:17.000Z</time>
      </trkpt>
      <trkpt lat="43.6188" lon="5.38667">
        <ele>405.39999389648</ele>
        <time>2019-11-30T13:42:18.000Z</time>
      </trkpt>
      <trkpt lat="43.61877" lon="5.38671">
        <ele>405.60000610352</ele>
        <time>2019-11-30T13:42:19.000Z</time>
      </trkpt>
      <trkpt lat="43.61873" lon="5.38676">
        <ele>405.60000610352</ele>
        <time>2019-11-30T13:42:20.000Z</time>
      </trkpt>
      <trkpt lat="43.61866" lon="5.38679">
        <ele>405.20001220703</ele>
        <time>2019-11-30T13:42:21.000Z</time>
      </trkpt>
      <trkpt lat="43.61863" lon="5.38684">
        <ele>405.39999389648</ele>
        <time>2019-11-30T13:42:22.000Z</time>
      </trkpt>
      <trkpt lat="43.61859" lon="5.38689">
        <ele>405.60000610352</ele>
        <time>2019-11-30T13:42:23.000Z</time>
      </trkpt>
      <trkpt lat="43.61855" lon="5.38694">
        <ele>405.60000610352</ele>
        <time>2019-11-30T13:42:24.000Z</time>
      </trkpt>
      <trkpt lat="43.61851" lon="5.38698">
        <ele>405.79998779297</ele>
        <time>2019-11-30T13:42:25.000Z</time>
      </trkpt>
      <trkpt lat="43.61847" lon="5.38702">
        <ele>405.79998779297</ele>
        <time>2019-11-30T13:42:26.000Z</time>
      </trkpt>
      <trkpt lat="43.61842" lon="5.38707">
        <ele>406</ele>
        <time>2019-11-30T13:42:27.000Z</time>
      </trkpt>
      <trkpt lat="43.61839" lon="5.38712">
        <ele>406</ele>
        <time>2019-11-30T13:42:28.000Z</time>
      </trkpt>
      <trkpt lat="43.61836" lon="5.38717">
        <ele>406.20001220703</ele>
        <time>2019-11-30T13:42:29.000Z</time>
      </trkpt>
      <trkpt lat="43.61833" lon="5.38721">
        <ele>406.60000610352</ele>
        <time>2019-11-30T13:42:30.000Z</time>
      </trkpt>
      <trkpt lat="43.6183" lon="5.38725">
        <ele>407</ele>
        <time>2019-11-30T13:42:31.000Z</time>
      </trkpt>
      <trkpt lat="43.61826" lon="5.3873">
        <ele>407.20001220703</ele>
        <time>2019-11-30T13:42:32.000Z</time>
      </trkpt>
      <trkpt lat="43.61823" lon="5.38734">
        <ele>407.60000610352</ele>
        <time>2019-11-30T13:42:33.000Z</time>
      </trkpt>
      <trkpt lat="43.6182" lon="5.38739">
        <ele>408.20001220703</ele>
        <time>2019-11-30T13:42:34.000Z</time>
      </trkpt>
      <trkpt lat="43.61819" lon="5.38744">
        <ele>408.79998779297</ele>
        <time>2019-11-30T13:42:35.000Z</time>
      </trkpt>
      <trkpt lat="43.61817" lon="5.38747">
        <ele>409.20001220703</ele>
        <time>2019-11-30T13:42:36.000Z</time>
      </trkpt>
      <trkpt lat="43.61815" lon="5.3875">
        <ele>409.39999389648</ele>
        <time>2019-11-30T13:42:37.000Z</time>
      </trkpt>
      <trkpt lat="43.61813" lon="5.38753">
        <ele>409.60000610352</ele>
        <time>2019-11-30T13:42:38.000Z</time>
      </trkpt>
      <trkpt lat="43.61811" lon="5.38755">
        <ele>409.79998779297</ele>
        <time>2019-11-30T13:42:39.000Z</time>
      </trkpt>
      <trkpt lat="43.61809" lon="5.38757">
        <ele>409.79998779297</ele>
        <time>2019-11-30T13:42:40.000Z</time>
      </trkpt>
      <trkpt lat="43.61806" lon="5.38759">
        <ele>409.79998779297</ele>
        <time>2019-11-30T13:42:41.000Z</time>
      </trkpt>
      <trkpt lat="43.61803" lon="5.38762">
        <ele>409.60000610352</ele>
        <time>2019-11-30T13:42:42.000Z</time>
      </trkpt>
      <trkpt lat="43.61799" lon="5.38764">
        <ele>409.39999389648</ele>
        <time>2019-11-30T13:42:43.000Z</time>
      </trkpt>
      <trkpt lat="43.61796" lon="5.38766">
        <ele>409.39999389648</ele>
        <time>2019-11-30T13:42:44.000Z</time>
      </trkpt>
      <trkpt lat="43.61793" lon="5.38768">
        <ele>409.20001220703</ele>
        <time>2019-11-30T13:42:45.000Z</time>
      </trkpt>
      <trkpt lat="43.6179" lon="5.3877">
        <ele>409</ele>
        <time>2019-11-30T13:42:46.000Z</time>
      </trkpt>
      <trkpt lat="43.61787" lon="5.38772">
        <ele>408.79998779297</ele>
        <time>2019-11-30T13:42:47.000Z</time>
      </trkpt>
      <trkpt lat="43.61783" lon="5.38774">
        <ele>408.39999389648</ele>
        <time>2019-11-30T13:42:48.000Z</time>
      </trkpt>
      <trkpt lat="43.61778" lon="5.38776">
        <ele>408</ele>
        <time>2019-11-30T13:42:49.000Z</time>
      </trkpt>
      <trkpt lat="43.61773" lon="5.38778">
        <ele>407.60000610352</ele>
        <time>2019-11-30T13:42:50.000Z</time>
      </trkpt>
      <trkpt lat="43.61767" lon="5.38781">
        <ele>407.20001220703</ele>
        <time>2019-11-30T13:42:51.000Z</time>
      </trkpt>
      <trkpt lat="43.61762" lon="5.38782">
        <ele>407.39999389648</ele>
        <time>2019-11-30T13:42:52.000Z</time>
      </trkpt>
      <trkpt lat="43.61757" lon="5.38784">
        <ele>407.39999389648</ele>
        <time>2019-11-30T13:42:53.000Z</time>
      </trkpt>
      <trkpt lat="43.61753" lon="5.38787">
        <ele>407.39999389648</ele>
        <time>2019-11-30T13:42:54.000Z</time>
      </trkpt>
      <trkpt lat="43.61748" lon="5.3879">
        <ele>407.39999389648</ele>
        <time>2019-11-30T13:42:55.000Z</time>
      </trkpt>
      <trkpt lat="43.61744" lon="5.38791">
        <ele>407.20001220703</ele>
        <time>2019-11-30T13:42:56.000Z</time>
      </trkpt>
      <trkpt lat="43.6174" lon="5.38795">
        <ele>407.39999389648</ele>
        <time>2019-11-30T13:42:57.000Z</time>
      </trkpt>
      <trkpt lat="43.61737" lon="5.38798">
        <ele>407.39999389648</ele>
        <time>2019-11-30T13:42:58.000Z</time>
      </trkpt>
      <trkpt lat="43.61733" lon="5.38802">
        <ele>407.20001220703</ele>
        <time>2019-11-30T13:42:59.000Z</time>
      </trkpt>
      <trkpt lat="43.61728" lon="5.38805">
        <ele>407</ele>
        <time>2019-11-30T13:43:00.000Z</time>
      </trkpt>
      <trkpt lat="43.61724" lon="5.38809">
        <ele>406.79998779297</ele>
        <time>2019-11-30T13:43:01.000Z</time>
      </trkpt>
      <trkpt lat="43.6172" lon="5.38812">
        <ele>406.60000610352</ele>
        <time>2019-11-30T13:43:02.000Z</time>
      </trkpt>
      <trkpt lat="43.61716" lon="5.38815">
        <ele>406.39999389648</ele>
        <time>2019-11-30T13:43:03.000Z</time>
      </trkpt>
      <trkpt lat="43.61711" lon="5.38818">
        <ele>406.20001220703</ele>
        <time>2019-11-30T13:43:04.000Z</time>
      </trkpt>
      <trkpt lat="43.61707" lon="5.3882">
        <ele>405.79998779297</ele>
        <time>2019-11-30T13:43:05.000Z</time>
      </trkpt>
      <trkpt lat="43.61704" lon="5.38822">
        <ele>405.39999389648</ele>
        <time>2019-11-30T13:43:06.000Z</time>
      </trkpt>
      <trkpt lat="43.61702" lon="5.38826">
        <ele>405.20001220703</ele>
        <time>2019-11-30T13:43:07.000Z</time>
      </trkpt>
      <trkpt lat="43.61702" lon="5.38831">
        <ele>405.20001220703</ele>
        <time>2019-11-30T13:43:08.000Z</time>
      </trkpt>
      <trkpt lat="43.61703" lon="5.38836">
        <ele>405.39999389648</ele>
        <time>2019-11-30T13:43:09.000Z</time>
      </trkpt>
      <trkpt lat="43.61704" lon="5.3884">
        <ele>405.39999389648</ele>
        <time>2019-11-30T13:43:10.000Z</time>
      </trkpt>
      <trkpt lat="43.61704" lon="5.38845">
        <ele>405.39999389648</ele>
        <time>2019-11-30T13:43:11.000Z</time>
      </trkpt>
      <trkpt lat="43.61704" lon="5.3885">
        <ele>405.60000610352</ele>
        <time>2019-11-30T13:43:12.000Z</time>
      </trkpt>
      <trkpt lat="43.61704" lon="5.38854">
        <ele>405.60000610352</ele>
        <time>2019-11-30T13:43:13.000Z</time>
      </trkpt>
      <trkpt lat="43.61703" lon="5.38859">
        <ele>405.39999389648</ele>
        <time>2019-11-30T13:43:14.000Z</time>
      </trkpt>
      <trkpt lat="43.61703" lon="5.38865">
        <ele>405.20001220703</ele>
        <time>2019-11-30T13:43:15.000Z</time>
      </trkpt>
      <trkpt lat="43.61704" lon="5.38869">
        <ele>405.39999389648</ele>
        <time>2019-11-30T13:43:16.000Z</time>
      </trkpt>
      <trkpt lat="43.61705" lon="5.38872">
        <ele>405.60000610352</ele>
        <time>2019-11-30T13:43:17.000Z</time>
      </trkpt>
      <trkpt lat="43.61707" lon="5.38875">
        <ele>406</ele>
        <time>2019-11-30T13:43:18.000Z</time>
      </trkpt>
      <trkpt lat="43.6171" lon="5.38877">
        <ele>406.20001220703</ele>
        <time>2019-11-30T13:43:19.000Z</time>
      </trkpt>
      <trkpt lat="43.61712" lon="5.3888">
        <ele>406.60000610352</ele>
        <time>2019-11-30T13:43:20.000Z</time>
      </trkpt>
      <trkpt lat="43.61715" lon="5.38882">
        <ele>406.79998779297</ele>
        <time>2019-11-30T13:43:21.000Z</time>
      </trkpt>
      <trkpt lat="43.61718" lon="5.38883">
        <ele>407.20001220703</ele>
        <time>2019-11-30T13:43:22.000Z</time>
      </trkpt>
      <trkpt lat="43.6172" lon="5.38885">
        <ele>407.60000610352</ele>
        <time>2019-11-30T13:43:23.000Z</time>
      </trkpt>
      <trkpt lat="43.61723" lon="5.38887">
        <ele>408</ele>
        <time>2019-11-30T13:43:24.000Z</time>
      </trkpt>
      <trkpt lat="43.61725" lon="5.38888">
        <ele>408.39999389648</ele>
        <time>2019-11-30T13:43:25.000Z</time>
      </trkpt>
      <trkpt lat="43.61728" lon="5.3889">
        <ele>408.79998779297</ele>
        <time>2019-11-30T13:43:26.000Z</time>
      </trkpt>
      <trkpt lat="43.6173" lon="5.38891">
        <ele>409</ele>
        <time>2019-11-30T13:43:27.000Z</time>
      </trkpt>
      <trkpt lat="43.61733" lon="5.38891">
        <ele>409.39999389648</ele>
        <time>2019-11-30T13:43:28.000Z</time>
      </trkpt>
      <trkpt lat="43.61735" lon="5.38892">
        <ele>409.79998779297</ele>
        <time>2019-11-30T13:43:29.000Z</time>
      </trkpt>
      <trkpt lat="43.61738" lon="5.38894">
        <ele>410.20001220703</ele>
        <time>2019-11-30T13:43:30.000Z</time>
      </trkpt>
      <trkpt lat="43.61741" lon="5.38895">
        <ele>410.60000610352</ele>
        <time>2019-11-30T13:43:31.000Z</time>
      </trkpt>
      <trkpt lat="43.61744" lon="5.38897">
        <ele>411</ele>
        <time>2019-11-30T13:43:32.000Z</time>
      </trkpt>
      <trkpt lat="43.61748" lon="5.38898">
        <ele>411.39999389648</ele>
        <time>2019-11-30T13:43:33.000Z</time>
      </trkpt>
      <trkpt lat="43.61752" lon="5.38899">
        <ele>412</ele>
        <time>2019-11-30T13:43:34.000Z</time>
      </trkpt>
      <trkpt lat="43.61755" lon="5.38901">
        <ele>412.39999389648</ele>
        <time>2019-11-30T13:43:35.000Z</time>
      </trkpt>
      <trkpt lat="43.61758" lon="5.38902">
        <ele>412.79998779297</ele>
        <time>2019-11-30T13:43:36.000Z</time>
      </trkpt>
      <trkpt lat="43.61762" lon="5.38903">
        <ele>413.39999389648</ele>
        <time>2019-11-30T13:43:37.000Z</time>
      </trkpt>
      <trkpt lat="43.61765" lon="5.38904">
        <ele>413.79998779297</ele>
        <time>2019-11-30T13:43:38.000Z</time>
      </trkpt>
      <trkpt lat="43.61768" lon="5.38905">
        <ele>414.20001220703</ele>
        <time>2019-11-30T13:43:39.000Z</time>
      </trkpt>
      <trkpt lat="43.61772" lon="5.38906">
        <ele>414.79998779297</ele>
        <time>2019-11-30T13:43:40.000Z</time>
      </trkpt>
      <trkpt lat="43.61775" lon="5.38908">
        <ele>415.20001220703</ele>
        <time>2019-11-30T13:43:41.000Z</time>
      </trkpt>
      <trkpt lat="43.61778" lon="5.38909">
        <ele>415.79998779297</ele>
        <time>2019-11-30T13:43:42.000Z</time>
      </trkpt>
      <trkpt lat="43.6178" lon="5.3891">
        <ele>416.20001220703</ele>
        <time>2019-11-30T13:43:43.000Z</time>
      </trkpt>
      <trkpt lat="43.61783" lon="5.38912">
        <ele>416.60000610352</ele>
        <time>2019-11-30T13:43:44.000Z</time>
      </trkpt>
      <trkpt lat="43.61785" lon="5.38913">
        <ele>417</ele>
        <time>2019-11-30T13:43:45.000Z</time>
      </trkpt>
      <trkpt lat="43.61788" lon="5.38915">
        <ele>417.39999389648</ele>
        <time>2019-11-30T13:43:46.000Z</time>
      </trkpt>
      <trkpt lat="43.61789" lon="5.38916">
        <ele>417.60000610352</ele>
        <time>2019-11-30T13:43:47.000Z</time>
      </trkpt>
      <trkpt lat="43.61789" lon="5.38916">
        <ele>417.60000610352</ele>
        <time>2019-11-30T13:43:48.000Z</time>
      </trkpt>
      <trkpt lat="43.61789" lon="5.38916">
        <ele>417.60000610352</ele>
        <time>2019-11-30T13:43:49.000Z</time>
      </trkpt>
      <trkpt lat="43.61789" lon="5.38916">
        <ele>417.60000610352</ele>
        <time>2019-11-30T13:43:50.000Z</time>
      </trkpt>
      <trkpt lat="43.61789" lon="5.38916">
        <ele>417.60000610352</ele>
        <time>2019-11-30T13:43:51.000Z</time>
      </trkpt>
      <trkpt lat="43.61788" lon="5.38916">
        <ele>417.39999389648</ele>
        <time>2019-11-30T13:43:52.000Z</time>
      </trkpt>
      <trkpt lat="43.61788" lon="5.38916">
        <ele>417.39999389648</ele>
        <time>2019-11-30T13:43:53.000Z</time>
      </trkpt>
      <trkpt lat="43.61788" lon="5.38916">
        <ele>417.39999389648</ele>
        <time>2019-11-30T13:43:54.000Z</time>
      </trkpt>
      <trkpt lat="43.61788" lon="5.38916">
        <ele>417.39999389648</ele>
        <time>2019-11-30T13:43:55.000Z</time>
      </trkpt>
      <trkpt lat="43.61788" lon="5.38916">
        <ele>417.39999389648</ele>
        <time>2019-11-30T13:43:56.000Z</time>
      </trkpt>
      <trkpt lat="43.61788" lon="5.38916">
        <ele>417.39999389648</ele>
        <time>2019-11-30T13:43:57.000Z</time>
      </trkpt>
      <trkpt lat="43.61788" lon="5.38916">
        <ele>417.39999389648</ele>
        <time>2019-11-30T13:43:58.000Z</time>
      </trkpt>
      <trkpt lat="43.61788" lon="5.38916">
        <ele>417.39999389648</ele>
        <time>2019-11-30T13:43:59.000Z</time>
      </trkpt>
      <trkpt lat="43.61789" lon="5.38917">
        <ele>417.60000610352</ele>
        <time>2019-11-30T13:44:00.000Z</time>
      </trkpt>
      <trkpt lat="43.6179" lon="5.38918">
        <ele>417.79998779297</ele>
        <time>2019-11-30T13:54:14.000Z</time>
      </trkpt>
      <trkpt lat="43.61786" lon="5.38918">
        <ele>417.20001220703</ele>
        <time>2019-11-30T13:54:15.000Z</time>
      </trkpt>
      <trkpt lat="43.61786" lon="5.38918">
        <ele>417.20001220703</ele>
        <time>2019-11-30T13:54:16.000Z</time>
      </trkpt>
      <trkpt lat="43.61786" lon="5.38919">
        <ele>421</ele>
        <time>2019-11-30T13:54:17.000Z</time>
      </trkpt>
      <trkpt lat="43.61785" lon="5.3892">
        <ele>417</ele>
        <time>2019-11-30T13:54:18.000Z</time>
      </trkpt>
      <trkpt lat="43.61785" lon="5.38922">
        <ele>417</ele>
        <time>2019-11-30T13:54:19.000Z</time>
      </trkpt>
      <trkpt lat="43.61784" lon="5.38924">
        <ele>417</ele>
        <time>2019-11-30T13:54:20.000Z</time>
      </trkpt>
      <trkpt lat="43.61783" lon="5.38927">
        <ele>416.79998779297</ele>
        <time>2019-11-30T13:54:21.000Z</time>
      </trkpt>
      <trkpt lat="43.61782" lon="5.38929">
        <ele>416.60000610352</ele>
        <time>2019-11-30T13:54:22.000Z</time>
      </trkpt>
      <trkpt lat="43.61781" lon="5.38932">
        <ele>416.60000610352</ele>
        <time>2019-11-30T13:54:23.000Z</time>
      </trkpt>
      <trkpt lat="43.61781" lon="5.38936">
        <ele>416.60000610352</ele>
        <time>2019-11-30T13:54:24.000Z</time>
      </trkpt>
      <trkpt lat="43.6178" lon="5.38939">
        <ele>416.60000610352</ele>
        <time>2019-11-30T13:54:25.000Z</time>
      </trkpt>
      <trkpt lat="43.6178" lon="5.38943">
        <ele>416.39999389648</ele>
        <time>2019-11-30T13:54:26.000Z</time>
      </trkpt>
      <trkpt lat="43.61778" lon="5.38946">
        <ele>416.20001220703</ele>
        <time>2019-11-30T13:54:27.000Z</time>
      </trkpt>
      <trkpt lat="43.61777" lon="5.3895">
        <ele>416</ele>
        <time>2019-11-30T13:54:28.000Z</time>
      </trkpt>
      <trkpt lat="43.61775" lon="5.38953">
        <ele>415.79998779297</ele>
        <time>2019-11-30T13:54:29.000Z</time>
      </trkpt>
      <trkpt lat="43.61774" lon="5.38956">
        <ele>415.60000610352</ele>
        <time>2019-11-30T13:54:30.000Z</time>
      </trkpt>
      <trkpt lat="43.61772" lon="5.38959">
        <ele>415.60000610352</ele>
        <time>2019-11-30T13:54:31.000Z</time>
      </trkpt>
      <trkpt lat="43.61771" lon="5.38962">
        <ele>415.39999389648</ele>
        <time>2019-11-30T13:54:32.000Z</time>
      </trkpt>
      <trkpt lat="43.6177" lon="5.38964">
        <ele>415.20001220703</ele>
        <time>2019-11-30T13:54:33.000Z</time>
      </trkpt>
      <trkpt lat="43.61768" lon="5.38967">
        <ele>415</ele>
        <time>2019-11-30T13:54:34.000Z</time>
      </trkpt>
      <trkpt lat="43.61768" lon="5.38971">
        <ele>415.20001220703</ele>
        <time>2019-11-30T13:54:35.000Z</time>
      </trkpt>
      <trkpt lat="43.61768" lon="5.38975">
        <ele>415.60000610352</ele>
        <time>2019-11-30T13:54:36.000Z</time>
      </trkpt>
      <trkpt lat="43.61767" lon="5.38979">
        <ele>415.79998779297</ele>
        <time>2019-11-30T13:54:37.000Z</time>
      </trkpt>
      <trkpt lat="43.61766" lon="5.38983">
        <ele>415.79998779297</ele>
        <time>2019-11-30T13:54:38.000Z</time>
      </trkpt>
      <trkpt lat="43.61765" lon="5.38986">
        <ele>416</ele>
        <time>2019-11-30T13:54:39.000Z</time>
      </trkpt>
      <trkpt lat="43.61764" lon="5.38989">
        <ele>416</ele>
        <time>2019-11-30T13:54:40.000Z</time>
      </trkpt>
      <trkpt lat="43.61763" lon="5.38992">
        <ele>416</ele>
        <time>2019-11-30T13:54:41.000Z</time>
      </trkpt>
      <trkpt lat="43.61762" lon="5.38996">
        <ele>416.20001220703</ele>
        <time>2019-11-30T13:54:42.000Z</time>
      </trkpt>
      <trkpt lat="43.61761" lon="5.38999">
        <ele>416.20001220703</ele>
        <time>2019-11-30T13:54:43.000Z</time>
      </trkpt>
      <trkpt lat="43.6176" lon="5.39003">
        <ele>416.39999389648</ele>
        <time>2019-11-30T13:54:44.000Z</time>
      </trkpt>
      <trkpt lat="43.6176" lon="5.39006">
        <ele>416.60000610352</ele>
        <time>2019-11-30T13:54:45.000Z</time>
      </trkpt>
      <trkpt lat="43.6176" lon="5.39009">
        <ele>416.79998779297</ele>
        <time>2019-11-30T13:54:46.000Z</time>
      </trkpt>
      <trkpt lat="43.61761" lon="5.3901">
        <ele>417.20001220703</ele>
        <time>2019-11-30T13:54:47.000Z</time>
      </trkpt>
      <trkpt lat="43.61763" lon="5.39011">
        <ele>417.39999389648</ele>
        <time>2019-11-30T13:54:48.000Z</time>
      </trkpt>
      <trkpt lat="43.61763" lon="5.39011">
        <ele>417.60000610352</ele>
        <time>2019-11-30T13:54:49.000Z</time>
      </trkpt>
      <trkpt lat="43.61763" lon="5.39011">
        <ele>417.60000610352</ele>
        <time>2019-11-30T13:54:50.000Z</time>
      </trkpt>
      <trkpt lat="43.61763" lon="5.39011">
        <ele>417.60000610352</ele>
        <time>2019-11-30T13:54:51.000Z</time>
      </trkpt>
      <trkpt lat="43.61763" lon="5.39011">
        <ele>417.39999389648</ele>
        <time>2019-11-30T13:54:52.000Z</time>
      </trkpt>
      <trkpt lat="43.61763" lon="5.39011">
        <ele>417.60000610352</ele>
        <time>2019-11-30T13:54:53.000Z</time>
      </trkpt>
      <trkpt lat="43.61763" lon="5.39011">
        <ele>417.60000610352</ele>
        <time>2019-11-30T13:54:54.000Z</time>
      </trkpt>
      <trkpt lat="43.61763" lon="5.39011">
        <ele>417.39999389648</ele>
        <time>2019-11-30T13:54:55.000Z</time>
      </trkpt>
      <trkpt lat="43.61762" lon="5.39012">
        <ele>417.39999389648</ele>
        <time>2019-11-30T13:54:56.000Z</time>
      </trkpt>
      <trkpt lat="43.61761" lon="5.39012">
        <ele>417.20001220703</ele>
        <time>2019-11-30T13:54:57.000Z</time>
      </trkpt>
      <trkpt lat="43.61761" lon="5.39011">
        <ele>417.20001220703</ele>
        <time>2019-11-30T13:54:58.000Z</time>
      </trkpt>
      <trkpt lat="43.61761" lon="5.39011">
        <ele>417</ele>
        <time>2019-11-30T13:54:59.000Z</time>
      </trkpt>
      <trkpt lat="43.61761" lon="5.39011">
        <ele>417.20001220703</ele>
        <time>2019-11-30T13:55:00.000Z</time>
      </trkpt>
      <trkpt lat="43.61761" lon="5.39011">
        <ele>417.20001220703</ele>
        <time>2019-11-30T13:55:01.000Z</time>
      </trkpt>
      <trkpt lat="43.61761" lon="5.39011">
        <ele>417</ele>
        <time>2019-11-30T13:55:02.000Z</time>
      </trkpt>
      <trkpt lat="43.61759" lon="5.39013">
        <ele>416.79998779297</ele>
        <time>2019-11-30T13:55:03.000Z</time>
      </trkpt>
      <trkpt lat="43.61757" lon="5.39015">
        <ele>416.79998779297</ele>
        <time>2019-11-30T13:55:04.000Z</time>
      </trkpt>
      <trkpt lat="43.61756" lon="5.39018">
        <ele>416.79998779297</ele>
        <time>2019-11-30T13:55:05.000Z</time>
      </trkpt>
      <trkpt lat="43.61755" lon="5.39021">
        <ele>416.79998779297</ele>
        <time>2019-11-30T13:55:06.000Z</time>
      </trkpt>
      <trkpt lat="43.61754" lon="5.39023">
        <ele>416.79998779297</ele>
        <time>2019-11-30T13:55:07.000Z</time>
      </trkpt>
      <trkpt lat="43.61753" lon="5.39025">
        <ele>417</ele>
        <time>2019-11-30T13:55:08.000Z</time>
      </trkpt>
      <trkpt lat="43.61753" lon="5.39028">
        <ele>417</ele>
        <time>2019-11-30T13:55:09.000Z</time>
      </trkpt>
      <trkpt lat="43.61753" lon="5.3903">
        <ele>417.20001220703</ele>
        <time>2019-11-30T13:55:10.000Z</time>
      </trkpt>
      <trkpt lat="43.61753" lon="5.39033">
        <ele>417.39999389648</ele>
        <time>2019-11-30T13:55:11.000Z</time>
      </trkpt>
      <trkpt lat="43.61753" lon="5.39036">
        <ele>417.60000610352</ele>
        <time>2019-11-30T13:55:12.000Z</time>
      </trkpt>
      <trkpt lat="43.61753" lon="5.39039">
        <ele>417.60000610352</ele>
        <time>2019-11-30T13:55:13.000Z</time>
      </trkpt>
      <trkpt lat="43.61753" lon="5.39041">
        <ele>417.79998779297</ele>
        <time>2019-11-30T13:55:14.000Z</time>
      </trkpt>
      <trkpt lat="43.61753" lon="5.39043">
        <ele>418</ele>
        <time>2019-11-30T13:55:15.000Z</time>
      </trkpt>
      <trkpt lat="43.61754" lon="5.39043">
        <ele>418</ele>
        <time>2019-11-30T13:55:16.000Z</time>
      </trkpt>
      <trkpt lat="43.61754" lon="5.39044">
        <ele>418.20001220703</ele>
        <time>2019-11-30T13:55:17.000Z</time>
      </trkpt>
      <trkpt lat="43.61754" lon="5.39044">
        <ele>418.20001220703</ele>
        <time>2019-11-30T13:55:18.000Z</time>
      </trkpt>
      <trkpt lat="43.61754" lon="5.39044">
        <ele>418.20001220703</ele>
        <time>2019-11-30T13:55:19.000Z</time>
      </trkpt>
      <trkpt lat="43.61754" lon="5.39044">
        <ele>418.20001220703</ele>
        <time>2019-11-30T13:55:20.000Z</time>
      </trkpt>
      <trkpt lat="43.61754" lon="5.39044">
        <ele>418.20001220703</ele>
        <time>2019-11-30T13:55:21.000Z</time>
      </trkpt>
      <trkpt lat="43.61754" lon="5.39044">
        <ele>418.20001220703</ele>
        <time>2019-11-30T13:55:22.000Z</time>
      </trkpt>
      <trkpt lat="43.61754" lon="5.39044">
        <ele>418.20001220703</ele>
        <time>2019-11-30T13:55:23.000Z</time>
      </trkpt>
      <trkpt lat="43.61754" lon="5.39044">
        <ele>418.20001220703</ele>
        <time>2019-11-30T13:55:24.000Z</time>
      </trkpt>
      <trkpt lat="43.61754" lon="5.39044">
        <ele>418.20001220703</ele>
        <time>2019-11-30T13:55:25.000Z</time>
      </trkpt>
      <trkpt lat="43.61754" lon="5.39044">
        <ele>418.20001220703</ele>
        <time>2019-11-30T13:55:26.000Z</time>
      </trkpt>
      <trkpt lat="43.61754" lon="5.39044">
        <ele>418.20001220703</ele>
        <time>2019-11-30T13:55:27.000Z</time>
      </trkpt>
      <trkpt lat="43.61754" lon="5.39044">
        <ele>418.20001220703</ele>
        <time>2019-11-30T13:55:28.000Z</time>
      </trkpt>
      <trkpt lat="43.61754" lon="5.39044">
        <ele>418.20001220703</ele>
        <time>2019-11-30T13:55:29.000Z</time>
      </trkpt>
      <trkpt lat="43.61754" lon="5.39044">
        <ele>418.20001220703</ele>
        <time>2019-11-30T13:55:30.000Z</time>
      </trkpt>
      <trkpt lat="43.61754" lon="5.39044">
        <ele>418.20001220703</ele>
        <time>2019-11-30T13:55:31.000Z</time>
      </trkpt>
      <trkpt lat="43.61754" lon="5.39044">
        <ele>418.20001220703</ele>
        <time>2019-11-30T13:55:32.000Z</time>
      </trkpt>
      <trkpt lat="43.61754" lon="5.39044">
        <ele>418.20001220703</ele>
        <time>2019-11-30T13:55:33.000Z</time>
      </trkpt>
      <trkpt lat="43.61754" lon="5.39044">
        <ele>418.20001220703</ele>
        <time>2019-11-30T13:55:34.000Z</time>
      </trkpt>
      <trkpt lat="43.61754" lon="5.39044">
        <ele>418.20001220703</ele>
        <time>2019-11-30T13:55:35.000Z</time>
      </trkpt>
      <trkpt lat="43.61754" lon="5.39044">
        <ele>418.20001220703</ele>
        <time>2019-11-30T13:55:36.000Z</time>
      </trkpt>
      <trkpt lat="43.61754" lon="5.39044">
        <ele>418.20001220703</ele>
        <time>2019-11-30T13:55:37.000Z</time>
      </trkpt>
      <trkpt lat="43.61754" lon="5.39044">
        <ele>418.20001220703</ele>
        <time>2019-11-30T13:55:38.000Z</time>
      </trkpt>
      <trkpt lat="43.61754" lon="5.39044">
        <ele>418.20001220703</ele>
        <time>2019-11-30T13:55:39.000Z</time>
      </trkpt>
      <trkpt lat="43.61754" lon="5.39044">
        <ele>418.20001220703</ele>
        <time>2019-11-30T13:55:40.000Z</time>
      </trkpt>
      <trkpt lat="43.61754" lon="5.39044">
        <ele>418.20001220703</ele>
        <time>2019-11-30T13:55:41.000Z</time>
      </trkpt>
      <trkpt lat="43.61754" lon="5.39044">
        <ele>418.20001220703</ele>
        <time>2019-11-30T13:55:42.000Z</time>
      </trkpt>
      <trkpt lat="43.61754" lon="5.39044">
        <ele>418.20001220703</ele>
        <time>2019-11-30T13:55:43.000Z</time>
      </trkpt>
      <trkpt lat="43.61754" lon="5.39044">
        <ele>418.20001220703</ele>
        <time>2019-11-30T13:55:44.000Z</time>
      </trkpt>
      <trkpt lat="43.61754" lon="5.39044">
        <ele>418.20001220703</ele>
        <time>2019-11-30T13:55:45.000Z</time>
      </trkpt>
      <trkpt lat="43.61754" lon="5.39044">
        <ele>418.20001220703</ele>
        <time>2019-11-30T13:55:46.000Z</time>
      </trkpt>
      <trkpt lat="43.61754" lon="5.39044">
        <ele>418.20001220703</ele>
        <time>2019-11-30T13:55:47.000Z</time>
      </trkpt>
      <trkpt lat="43.61754" lon="5.39044">
        <ele>418.20001220703</ele>
        <time>2019-11-30T13:55:48.000Z</time>
      </trkpt>
      <trkpt lat="43.61754" lon="5.39044">
        <ele>418.20001220703</ele>
        <time>2019-11-30T13:55:49.000Z</time>
      </trkpt>
      <trkpt lat="43.61754" lon="5.39044">
        <ele>418.20001220703</ele>
        <time>2019-11-30T13:55:50.000Z</time>
      </trkpt>
      <trkpt lat="43.61754" lon="5.39044">
        <ele>418.20001220703</ele>
        <time>2019-11-30T13:55:51.000Z</time>
      </trkpt>
      <trkpt lat="43.61754" lon="5.39044">
        <ele>418.20001220703</ele>
        <time>2019-11-30T13:55:52.000Z</time>
      </trkpt>
      <trkpt lat="43.61754" lon="5.39044">
        <ele>418.20001220703</ele>
        <time>2019-11-30T13:55:53.000Z</time>
      </trkpt>
      <trkpt lat="43.61754" lon="5.39044">
        <ele>418.20001220703</ele>
        <time>2019-11-30T13:55:54.000Z</time>
      </trkpt>
      <trkpt lat="43.61754" lon="5.39044">
        <ele>418.20001220703</ele>
        <time>2019-11-30T13:55:55.000Z</time>
      </trkpt>
      <trkpt lat="43.61754" lon="5.39044">
        <ele>418.20001220703</ele>
        <time>2019-11-30T13:55:56.000Z</time>
      </trkpt>
      <trkpt lat="43.61754" lon="5.39043">
        <ele>418</ele>
        <time>2019-11-30T13:55:57.000Z</time>
      </trkpt>
      <trkpt lat="43.61754" lon="5.39043">
        <ele>418</ele>
        <time>2019-11-30T13:55:58.000Z</time>
      </trkpt>
      <trkpt lat="43.61754" lon="5.39043">
        <ele>418.20001220703</ele>
        <time>2019-11-30T13:55:59.000Z</time>
      </trkpt>
      <trkpt lat="43.61754" lon="5.39043">
        <ele>418.20001220703</ele>
        <time>2019-11-30T13:56:00.000Z</time>
      </trkpt>
      <trkpt lat="43.61754" lon="5.39043">
        <ele>418.20001220703</ele>
        <time>2019-11-30T13:56:01.000Z</time>
      </trkpt>
      <trkpt lat="43.61754" lon="5.39043">
        <ele>418.20001220703</ele>
        <time>2019-11-30T13:56:02.000Z</time>
      </trkpt>
      <trkpt lat="43.61754" lon="5.39043">
        <ele>418.20001220703</ele>
        <time>2019-11-30T13:56:03.000Z</time>
      </trkpt>
      <trkpt lat="43.61754" lon="5.39043">
        <ele>418.20001220703</ele>
        <time>2019-11-30T13:56:04.000Z</time>
      </trkpt>
      <trkpt lat="43.61754" lon="5.39043">
        <ele>418.20001220703</ele>
        <time>2019-11-30T13:56:05.000Z</time>
      </trkpt>
      <trkpt lat="43.61754" lon="5.39043">
        <ele>418.20001220703</ele>
        <time>2019-11-30T13:56:06.000Z</time>
      </trkpt>
      <trkpt lat="43.61754" lon="5.39043">
        <ele>418.20001220703</ele>
        <time>2019-11-30T13:56:07.000Z</time>
      </trkpt>
      <trkpt lat="43.61754" lon="5.39043">
        <ele>418.20001220703</ele>
        <time>2019-11-30T13:56:08.000Z</time>
      </trkpt>
      <trkpt lat="43.61754" lon="5.39043">
        <ele>418.20001220703</ele>
        <time>2019-11-30T13:56:09.000Z</time>
      </trkpt>
      <trkpt lat="43.61754" lon="5.39043">
        <ele>418.20001220703</ele>
        <time>2019-11-30T13:56:10.000Z</time>
      </trkpt>
      <trkpt lat="43.61756" lon="5.39043">
        <ele>418.39999389648</ele>
        <time>2019-11-30T13:56:11.000Z</time>
      </trkpt>
      <trkpt lat="43.61758" lon="5.39042">
        <ele>418.79998779297</ele>
        <time>2019-11-30T13:56:12.000Z</time>
      </trkpt>
      <trkpt lat="43.6176" lon="5.39042">
        <ele>419</ele>
        <time>2019-11-30T13:56:13.000Z</time>
      </trkpt>
      <trkpt lat="43.61761" lon="5.39041">
        <ele>419.20001220703</ele>
        <time>2019-11-30T13:56:14.000Z</time>
      </trkpt>
      <trkpt lat="43.61762" lon="5.39041">
        <ele>419.39999389648</ele>
        <time>2019-11-30T13:56:15.000Z</time>
      </trkpt>
      <trkpt lat="43.61764" lon="5.39041">
        <ele>419.60000610352</ele>
        <time>2019-11-30T13:56:16.000Z</time>
      </trkpt>
      <trkpt lat="43.61766" lon="5.39041">
        <ele>420</ele>
        <time>2019-11-30T13:56:17.000Z</time>
      </trkpt>
      <trkpt lat="43.61768" lon="5.3904">
        <ele>420.20001220703</ele>
        <time>2019-11-30T13:56:18.000Z</time>
      </trkpt>
      <trkpt lat="43.6177" lon="5.3904">
        <ele>420.60000610352</ele>
        <time>2019-11-30T13:56:19.000Z</time>
      </trkpt>
      <trkpt lat="43.61772" lon="5.39041">
        <ele>420.79998779297</ele>
        <time>2019-11-30T13:56:20.000Z</time>
      </trkpt>
      <trkpt lat="43.61774" lon="5.39041">
        <ele>421</ele>
        <time>2019-11-30T13:56:21.000Z</time>
      </trkpt>
      <trkpt lat="43.61776" lon="5.39042">
        <ele>421.20001220703</ele>
        <time>2019-11-30T13:56:22.000Z</time>
      </trkpt>
      <trkpt lat="43.61778" lon="5.39042">
        <ele>421.39999389648</ele>
        <time>2019-11-30T13:56:23.000Z</time>
      </trkpt>
      <trkpt lat="43.6178" lon="5.39043">
        <ele>421.60000610352</ele>
        <time>2019-11-30T13:56:24.000Z</time>
      </trkpt>
      <trkpt lat="43.61782" lon="5.39043">
        <ele>421.79998779297</ele>
        <time>2019-11-30T13:56:25.000Z</time>
      </trkpt>
      <trkpt lat="43.61783" lon="5.39043">
        <ele>422</ele>
        <time>2019-11-30T13:56:26.000Z</time>
      </trkpt>
      <trkpt lat="43.61783" lon="5.39044">
        <ele>422</ele>
        <time>2019-11-30T13:56:27.000Z</time>
      </trkpt>
      <trkpt lat="43.61783" lon="5.39044">
        <ele>422</ele>
        <time>2019-11-30T13:56:28.000Z</time>
      </trkpt>
      <trkpt lat="43.61783" lon="5.39044">
        <ele>422</ele>
        <time>2019-11-30T13:56:29.000Z</time>
      </trkpt>
      <trkpt lat="43.61783" lon="5.39044">
        <ele>422</ele>
        <time>2019-11-30T13:56:30.000Z</time>
      </trkpt>
      <trkpt lat="43.61783" lon="5.39044">
        <ele>422</ele>
        <time>2019-11-30T13:56:31.000Z</time>
      </trkpt>
      <trkpt lat="43.61784" lon="5.39045">
        <ele>422.20001220703</ele>
        <time>2019-11-30T13:56:32.000Z</time>
      </trkpt>
      <trkpt lat="43.61785" lon="5.39048">
        <ele>422.39999389648</ele>
        <time>2019-11-30T13:56:33.000Z</time>
      </trkpt>
      <trkpt lat="43.61785" lon="5.3905">
        <ele>422.60000610352</ele>
        <time>2019-11-30T13:56:34.000Z</time>
      </trkpt>
      <trkpt lat="43.61785" lon="5.39053">
        <ele>422.60000610352</ele>
        <time>2019-11-30T13:56:35.000Z</time>
      </trkpt>
      <trkpt lat="43.61785" lon="5.39055">
        <ele>422.60000610352</ele>
        <time>2019-11-30T13:56:36.000Z</time>
      </trkpt>
      <trkpt lat="43.61785" lon="5.39058">
        <ele>422.79998779297</ele>
        <time>2019-11-30T13:56:37.000Z</time>
      </trkpt>
      <trkpt lat="43.61785" lon="5.39061">
        <ele>422.79998779297</ele>
        <time>2019-11-30T13:56:38.000Z</time>
      </trkpt>
      <trkpt lat="43.61785" lon="5.39063">
        <ele>422.79998779297</ele>
        <time>2019-11-30T13:56:39.000Z</time>
      </trkpt>
      <trkpt lat="43.61784" lon="5.39065">
        <ele>423</ele>
        <time>2019-11-30T13:56:40.000Z</time>
      </trkpt>
      <trkpt lat="43.61784" lon="5.39068">
        <ele>423.20001220703</ele>
        <time>2019-11-30T13:56:41.000Z</time>
      </trkpt>
      <trkpt lat="43.61783" lon="5.3907">
        <ele>423.20001220703</ele>
        <time>2019-11-30T13:56:42.000Z</time>
      </trkpt>
      <trkpt lat="43.61782" lon="5.39071">
        <ele>423.39999389648</ele>
        <time>2019-11-30T13:56:43.000Z</time>
      </trkpt>
      <trkpt lat="43.61781" lon="5.39073">
        <ele>423.39999389648</ele>
        <time>2019-11-30T13:56:44.000Z</time>
      </trkpt>
      <trkpt lat="43.61781" lon="5.39075">
        <ele>423.60000610352</ele>
        <time>2019-11-30T13:56:45.000Z</time>
      </trkpt>
      <trkpt lat="43.61781" lon="5.39078">
        <ele>423.79998779297</ele>
        <time>2019-11-30T13:56:46.000Z</time>
      </trkpt>
      <trkpt lat="43.61783" lon="5.39079">
        <ele>423.79998779297</ele>
        <time>2019-11-30T13:56:47.000Z</time>
      </trkpt>
      <trkpt lat="43.61783" lon="5.3908">
        <ele>424</ele>
        <time>2019-11-30T13:56:48.000Z</time>
      </trkpt>
      <trkpt lat="43.61783" lon="5.3908">
        <ele>424</ele>
        <time>2019-11-30T13:56:49.000Z</time>
      </trkpt>
      <trkpt lat="43.61783" lon="5.3908">
        <ele>424</ele>
        <time>2019-11-30T13:56:50.000Z</time>
      </trkpt>
      <trkpt lat="43.61783" lon="5.3908">
        <ele>424</ele>
        <time>2019-11-30T13:56:51.000Z</time>
      </trkpt>
      <trkpt lat="43.61783" lon="5.39083">
        <ele>424.20001220703</ele>
        <time>2019-11-30T13:56:52.000Z</time>
      </trkpt>
      <trkpt lat="43.61782" lon="5.39085">
        <ele>424.20001220703</ele>
        <time>2019-11-30T13:56:53.000Z</time>
      </trkpt>
      <trkpt lat="43.61781" lon="5.39087">
        <ele>424.39999389648</ele>
        <time>2019-11-30T13:56:54.000Z</time>
      </trkpt>
      <trkpt lat="43.6178" lon="5.3909">
        <ele>424.60000610352</ele>
        <time>2019-11-30T13:56:55.000Z</time>
      </trkpt>
      <trkpt lat="43.6178" lon="5.39093">
        <ele>424.79998779297</ele>
        <time>2019-11-30T13:56:56.000Z</time>
      </trkpt>
      <trkpt lat="43.61779" lon="5.39096">
        <ele>425</ele>
        <time>2019-11-30T13:56:57.000Z</time>
      </trkpt>
      <trkpt lat="43.61777" lon="5.39099">
        <ele>425</ele>
        <time>2019-11-30T13:56:58.000Z</time>
      </trkpt>
      <trkpt lat="43.61776" lon="5.39103">
        <ele>425.20001220703</ele>
        <time>2019-11-30T13:56:59.000Z</time>
      </trkpt>
      <trkpt lat="43.61775" lon="5.39106">
        <ele>425.39999389648</ele>
        <time>2019-11-30T13:57:00.000Z</time>
      </trkpt>
      <trkpt lat="43.61773" lon="5.39109">
        <ele>425.60000610352</ele>
        <time>2019-11-30T13:57:01.000Z</time>
      </trkpt>
      <trkpt lat="43.61772" lon="5.39113">
        <ele>425.79998779297</ele>
        <time>2019-11-30T13:57:02.000Z</time>
      </trkpt>
      <trkpt lat="43.61772" lon="5.39117">
        <ele>426.20001220703</ele>
        <time>2019-11-30T13:57:03.000Z</time>
      </trkpt>
      <trkpt lat="43.61771" lon="5.39121">
        <ele>426.39999389648</ele>
        <time>2019-11-30T13:57:04.000Z</time>
      </trkpt>
      <trkpt lat="43.6177" lon="5.39125">
        <ele>426.60000610352</ele>
        <time>2019-11-30T13:57:05.000Z</time>
      </trkpt>
      <trkpt lat="43.61769" lon="5.39128">
        <ele>426.79998779297</ele>
        <time>2019-11-30T13:57:06.000Z</time>
      </trkpt>
      <trkpt lat="43.61767" lon="5.3913">
        <ele>426.60000610352</ele>
        <time>2019-11-30T13:57:07.000Z</time>
      </trkpt>
      <trkpt lat="43.61766" lon="5.39133">
        <ele>426.60000610352</ele>
        <time>2019-11-30T13:57:08.000Z</time>
      </trkpt>
      <trkpt lat="43.61765" lon="5.39136">
        <ele>426.60000610352</ele>
        <time>2019-11-30T13:57:09.000Z</time>
      </trkpt>
      <trkpt lat="43.61765" lon="5.39138">
        <ele>426.60000610352</ele>
        <time>2019-11-30T13:57:10.000Z</time>
      </trkpt>
      <trkpt lat="43.61765" lon="5.39142">
        <ele>426.60000610352</ele>
        <time>2019-11-30T13:57:11.000Z</time>
      </trkpt>
      <trkpt lat="43.61765" lon="5.39145">
        <ele>426.79998779297</ele>
        <time>2019-11-30T13:57:12.000Z</time>
      </trkpt>
      <trkpt lat="43.61764" lon="5.39148">
        <ele>426.79998779297</ele>
        <time>2019-11-30T13:57:13.000Z</time>
      </trkpt>
      <trkpt lat="43.61763" lon="5.39151">
        <ele>426.60000610352</ele>
        <time>2019-11-30T13:57:14.000Z</time>
      </trkpt>
      <trkpt lat="43.61762" lon="5.39154">
        <ele>426.60000610352</ele>
        <time>2019-11-30T13:57:15.000Z</time>
      </trkpt>
      <trkpt lat="43.61762" lon="5.39158">
        <ele>426.60000610352</ele>
        <time>2019-11-30T13:57:16.000Z</time>
      </trkpt>
      <trkpt lat="43.61761" lon="5.39162">
        <ele>426.79998779297</ele>
        <time>2019-11-30T13:57:17.000Z</time>
      </trkpt>
      <trkpt lat="43.6176" lon="5.39165">
        <ele>426.60000610352</ele>
        <time>2019-11-30T13:57:18.000Z</time>
      </trkpt>
      <trkpt lat="43.61759" lon="5.39169">
        <ele>426.60000610352</ele>
        <time>2019-11-30T13:57:19.000Z</time>
      </trkpt>
      <trkpt lat="43.61757" lon="5.39172">
        <ele>426.39999389648</ele>
        <time>2019-11-30T13:57:20.000Z</time>
      </trkpt>
      <trkpt lat="43.61755" lon="5.39175">
        <ele>426.20001220703</ele>
        <time>2019-11-30T13:57:21.000Z</time>
      </trkpt>
      <trkpt lat="43.61754" lon="5.39179">
        <ele>426.20001220703</ele>
        <time>2019-11-30T13:57:22.000Z</time>
      </trkpt>
      <trkpt lat="43.61754" lon="5.39182">
        <ele>426.20001220703</ele>
        <time>2019-11-30T13:57:23.000Z</time>
      </trkpt>
      <trkpt lat="43.61753" lon="5.39186">
        <ele>426.20001220703</ele>
        <time>2019-11-30T13:57:24.000Z</time>
      </trkpt>
      <trkpt lat="43.61752" lon="5.39189">
        <ele>426.20001220703</ele>
        <time>2019-11-30T13:57:25.000Z</time>
      </trkpt>
      <trkpt lat="43.61752" lon="5.39192">
        <ele>426.20001220703</ele>
        <time>2019-11-30T13:57:26.000Z</time>
      </trkpt>
      <trkpt lat="43.61751" lon="5.39196">
        <ele>426.20001220703</ele>
        <time>2019-11-30T13:57:27.000Z</time>
      </trkpt>
      <trkpt lat="43.61751" lon="5.39199">
        <ele>426.20001220703</ele>
        <time>2019-11-30T13:57:28.000Z</time>
      </trkpt>
      <trkpt lat="43.61752" lon="5.39202">
        <ele>426.60000610352</ele>
        <time>2019-11-30T13:57:29.000Z</time>
      </trkpt>
      <trkpt lat="43.61752" lon="5.39205">
        <ele>426.79998779297</ele>
        <time>2019-11-30T13:57:30.000Z</time>
      </trkpt>
      <trkpt lat="43.61752" lon="5.39208">
        <ele>426.79998779297</ele>
        <time>2019-11-30T13:57:31.000Z</time>
      </trkpt>
      <trkpt lat="43.61751" lon="5.39211">
        <ele>426.79998779297</ele>
        <time>2019-11-30T13:57:32.000Z</time>
      </trkpt>
      <trkpt lat="43.6175" lon="5.39215">
        <ele>426.79998779297</ele>
        <time>2019-11-30T13:57:33.000Z</time>
      </trkpt>
      <trkpt lat="43.61749" lon="5.39218">
        <ele>426.79998779297</ele>
        <time>2019-11-30T13:57:34.000Z</time>
      </trkpt>
      <trkpt lat="43.61748" lon="5.39222">
        <ele>427</ele>
        <time>2019-11-30T13:57:35.000Z</time>
      </trkpt>
      <trkpt lat="43.61747" lon="5.39226">
        <ele>427</ele>
        <time>2019-11-30T13:57:36.000Z</time>
      </trkpt>
      <trkpt lat="43.61747" lon="5.3923">
        <ele>427.20001220703</ele>
        <time>2019-11-30T13:57:37.000Z</time>
      </trkpt>
      <trkpt lat="43.61746" lon="5.39233">
        <ele>427.20001220703</ele>
        <time>2019-11-30T13:57:38.000Z</time>
      </trkpt>
      <trkpt lat="43.61745" lon="5.39235">
        <ele>427.20001220703</ele>
        <time>2019-11-30T13:57:39.000Z</time>
      </trkpt>
      <trkpt lat="43.61744" lon="5.39237">
        <ele>427.20001220703</ele>
        <time>2019-11-30T13:57:40.000Z</time>
      </trkpt>
      <trkpt lat="43.61744" lon="5.39241">
        <ele>427.39999389648</ele>
        <time>2019-11-30T13:57:41.000Z</time>
      </trkpt>
      <trkpt lat="43.61745" lon="5.39245">
        <ele>427.79998779297</ele>
        <time>2019-11-30T13:57:42.000Z</time>
      </trkpt>
      <trkpt lat="43.61745" lon="5.39249">
        <ele>428</ele>
        <time>2019-11-30T13:57:43.000Z</time>
      </trkpt>
      <trkpt lat="43.61744" lon="5.39253">
        <ele>428</ele>
        <time>2019-11-30T13:57:44.000Z</time>
      </trkpt>
      <trkpt lat="43.61744" lon="5.39256">
        <ele>428.20001220703</ele>
        <time>2019-11-30T13:57:45.000Z</time>
      </trkpt>
      <trkpt lat="43.61743" lon="5.39259">
        <ele>428.39999389648</ele>
        <time>2019-11-30T13:57:46.000Z</time>
      </trkpt>
      <trkpt lat="43.61742" lon="5.39262">
        <ele>428.39999389648</ele>
        <time>2019-11-30T13:57:47.000Z</time>
      </trkpt>
      <trkpt lat="43.61742" lon="5.39266">
        <ele>428.60000610352</ele>
        <time>2019-11-30T13:57:48.000Z</time>
      </trkpt>
      <trkpt lat="43.61743" lon="5.3927">
        <ele>429</ele>
        <time>2019-11-30T13:57:49.000Z</time>
      </trkpt>
      <trkpt lat="43.61744" lon="5.39274">
        <ele>429.39999389648</ele>
        <time>2019-11-30T13:57:50.000Z</time>
      </trkpt>
      <trkpt lat="43.61745" lon="5.39278">
        <ele>429.79998779297</ele>
        <time>2019-11-30T13:57:51.000Z</time>
      </trkpt>
      <trkpt lat="43.61745" lon="5.39281">
        <ele>430</ele>
        <time>2019-11-30T13:57:52.000Z</time>
      </trkpt>
      <trkpt lat="43.61746" lon="5.39284">
        <ele>430.39999389648</ele>
        <time>2019-11-30T13:57:53.000Z</time>
      </trkpt>
      <trkpt lat="43.61745" lon="5.39286">
        <ele>430.60000610352</ele>
        <time>2019-11-30T13:57:54.000Z</time>
      </trkpt>
      <trkpt lat="43.61746" lon="5.39289">
        <ele>430.79998779297</ele>
        <time>2019-11-30T13:57:55.000Z</time>
      </trkpt>
      <trkpt lat="43.61748" lon="5.39291">
        <ele>431.20001220703</ele>
        <time>2019-11-30T13:57:56.000Z</time>
      </trkpt>
      <trkpt lat="43.61749" lon="5.39294">
        <ele>431.60000610352</ele>
        <time>2019-11-30T13:57:57.000Z</time>
      </trkpt>
      <trkpt lat="43.61749" lon="5.39297">
        <ele>431.79998779297</ele>
        <time>2019-11-30T13:57:58.000Z</time>
      </trkpt>
      <trkpt lat="43.61749" lon="5.393">
        <ele>432</ele>
        <time>2019-11-30T13:57:59.000Z</time>
      </trkpt>
      <trkpt lat="43.61748" lon="5.39303">
        <ele>432</ele>
        <time>2019-11-30T13:58:00.000Z</time>
      </trkpt>
      <trkpt lat="43.61747" lon="5.39307">
        <ele>432</ele>
        <time>2019-11-30T13:58:01.000Z</time>
      </trkpt>
      <trkpt lat="43.61746" lon="5.39309">
        <ele>432</ele>
        <time>2019-11-30T13:58:02.000Z</time>
      </trkpt>
      <trkpt lat="43.61745" lon="5.39312">
        <ele>432.20001220703</ele>
        <time>2019-11-30T13:58:03.000Z</time>
      </trkpt>
      <trkpt lat="43.61744" lon="5.39316">
        <ele>432.20001220703</ele>
        <time>2019-11-30T13:58:04.000Z</time>
      </trkpt>
      <trkpt lat="43.61744" lon="5.3932">
        <ele>432.39999389648</ele>
        <time>2019-11-30T13:58:05.000Z</time>
      </trkpt>
      <trkpt lat="43.61743" lon="5.39324">
        <ele>432.39999389648</ele>
        <time>2019-11-30T13:58:06.000Z</time>
      </trkpt>
      <trkpt lat="43.61741" lon="5.39328">
        <ele>432.39999389648</ele>
        <time>2019-11-30T13:58:07.000Z</time>
      </trkpt>
      <trkpt lat="43.61741" lon="5.39332">
        <ele>432.60000610352</ele>
        <time>2019-11-30T13:58:08.000Z</time>
      </trkpt>
      <trkpt lat="43.6174" lon="5.39335">
        <ele>432.79998779297</ele>
        <time>2019-11-30T13:58:09.000Z</time>
      </trkpt>
      <trkpt lat="43.61738" lon="5.39339">
        <ele>432.60000610352</ele>
        <time>2019-11-30T13:58:10.000Z</time>
      </trkpt>
      <trkpt lat="43.61735" lon="5.39342">
        <ele>432.39999389648</ele>
        <time>2019-11-30T13:58:11.000Z</time>
      </trkpt>
      <trkpt lat="43.61733" lon="5.39346">
        <ele>432.20001220703</ele>
        <time>2019-11-30T13:58:12.000Z</time>
      </trkpt>
      <trkpt lat="43.61731" lon="5.3935">
        <ele>432.39999389648</ele>
        <time>2019-11-30T13:58:13.000Z</time>
      </trkpt>
      <trkpt lat="43.61729" lon="5.39354">
        <ele>432.79998779297</ele>
        <time>2019-11-30T13:58:14.000Z</time>
      </trkpt>
      <trkpt lat="43.61727" lon="5.39359">
        <ele>433</ele>
        <time>2019-11-30T13:58:15.000Z</time>
      </trkpt>
      <trkpt lat="43.61726" lon="5.39362">
        <ele>433.20001220703</ele>
        <time>2019-11-30T13:58:16.000Z</time>
      </trkpt>
      <trkpt lat="43.61725" lon="5.39365">
        <ele>433.60000610352</ele>
        <time>2019-11-30T13:58:17.000Z</time>
      </trkpt>
      <trkpt lat="43.61725" lon="5.39369">
        <ele>433.79998779297</ele>
        <time>2019-11-30T13:58:18.000Z</time>
      </trkpt>
      <trkpt lat="43.61723" lon="5.39372">
        <ele>434</ele>
        <time>2019-11-30T13:58:19.000Z</time>
      </trkpt>
      <trkpt lat="43.61722" lon="5.39376">
        <ele>434.39999389648</ele>
        <time>2019-11-30T13:58:20.000Z</time>
      </trkpt>
      <trkpt lat="43.6172" lon="5.3938">
        <ele>434.60000610352</ele>
        <time>2019-11-30T13:58:21.000Z</time>
      </trkpt>
      <trkpt lat="43.61718" lon="5.39384">
        <ele>434.60000610352</ele>
        <time>2019-11-30T13:58:22.000Z</time>
      </trkpt>
      <trkpt lat="43.61716" lon="5.39388">
        <ele>434.60000610352</ele>
        <time>2019-11-30T13:58:23.000Z</time>
      </trkpt>
      <trkpt lat="43.61715" lon="5.39391">
        <ele>434.79998779297</ele>
        <time>2019-11-30T13:58:24.000Z</time>
      </trkpt>
      <trkpt lat="43.61716" lon="5.39393">
        <ele>435</ele>
        <time>2019-11-30T13:58:25.000Z</time>
      </trkpt>
      <trkpt lat="43.61718" lon="5.39393">
        <ele>435.20001220703</ele>
        <time>2019-11-30T13:58:26.000Z</time>
      </trkpt>
      <trkpt lat="43.61721" lon="5.39391">
        <ele>435.39999389648</ele>
        <time>2019-11-30T13:58:27.000Z</time>
      </trkpt>
      <trkpt lat="43.61723" lon="5.3939">
        <ele>435.60000610352</ele>
        <time>2019-11-30T13:58:28.000Z</time>
      </trkpt>
      <trkpt lat="43.61726" lon="5.39388">
        <ele>435.79998779297</ele>
        <time>2019-11-30T13:58:29.000Z</time>
      </trkpt>
      <trkpt lat="43.61729" lon="5.39387">
        <ele>436</ele>
        <time>2019-11-30T13:58:30.000Z</time>
      </trkpt>
      <trkpt lat="43.61733" lon="5.39386">
        <ele>436.39999389648</ele>
        <time>2019-11-30T13:58:31.000Z</time>
      </trkpt>
      <trkpt lat="43.61737" lon="5.39386">
        <ele>436.79998779297</ele>
        <time>2019-11-30T13:58:32.000Z</time>
      </trkpt>
      <trkpt lat="43.6174" lon="5.39386">
        <ele>437.20001220703</ele>
        <time>2019-11-30T13:58:33.000Z</time>
      </trkpt>
      <trkpt lat="43.61743" lon="5.39387">
        <ele>437.60000610352</ele>
        <time>2019-11-30T13:58:34.000Z</time>
      </trkpt>
      <trkpt lat="43.61745" lon="5.39387">
        <ele>437.79998779297</ele>
        <time>2019-11-30T13:58:35.000Z</time>
      </trkpt>
      <trkpt lat="43.61746" lon="5.39387">
        <ele>437.79998779297</ele>
        <time>2019-11-30T13:58:36.000Z</time>
      </trkpt>
      <trkpt lat="43.61746" lon="5.39387">
        <ele>437.79998779297</ele>
        <time>2019-11-30T13:58:37.000Z</time>
      </trkpt>
      <trkpt lat="43.61746" lon="5.39387">
        <ele>438</ele>
        <time>2019-11-30T13:58:38.000Z</time>
      </trkpt>
      <trkpt lat="43.61746" lon="5.39389">
        <ele>438</ele>
        <time>2019-11-30T13:58:39.000Z</time>
      </trkpt>
      <trkpt lat="43.61747" lon="5.39393">
        <ele>438.39999389648</ele>
        <time>2019-11-30T13:58:40.000Z</time>
      </trkpt>
      <trkpt lat="43.61747" lon="5.39397">
        <ele>438.60000610352</ele>
        <time>2019-11-30T13:58:41.000Z</time>
      </trkpt>
      <trkpt lat="43.61748" lon="5.39402">
        <ele>439</ele>
        <time>2019-11-30T13:58:42.000Z</time>
      </trkpt>
      <trkpt lat="43.61749" lon="5.39406">
        <ele>439.39999389648</ele>
        <time>2019-11-30T13:58:43.000Z</time>
      </trkpt>
      <trkpt lat="43.61749" lon="5.39411">
        <ele>439.60000610352</ele>
        <time>2019-11-30T13:58:44.000Z</time>
      </trkpt>
      <trkpt lat="43.61748" lon="5.39416">
        <ele>439.79998779297</ele>
        <time>2019-11-30T13:58:45.000Z</time>
      </trkpt>
      <trkpt lat="43.61747" lon="5.3942">
        <ele>440</ele>
        <time>2019-11-30T13:58:46.000Z</time>
      </trkpt>
      <trkpt lat="43.61745" lon="5.39424">
        <ele>440</ele>
        <time>2019-11-30T13:58:47.000Z</time>
      </trkpt>
      <trkpt lat="43.61744" lon="5.39429">
        <ele>440.20001220703</ele>
        <time>2019-11-30T13:58:48.000Z</time>
      </trkpt>
      <trkpt lat="43.61743" lon="5.39434">
        <ele>440.39999389648</ele>
        <time>2019-11-30T13:58:49.000Z</time>
      </trkpt>
      <trkpt lat="43.61743" lon="5.39439">
        <ele>440.60000610352</ele>
        <time>2019-11-30T13:58:50.000Z</time>
      </trkpt>
      <trkpt lat="43.61741" lon="5.39443">
        <ele>441</ele>
        <time>2019-11-30T13:58:51.000Z</time>
      </trkpt>
      <trkpt lat="43.6174" lon="5.39447">
        <ele>441.20001220703</ele>
        <time>2019-11-30T13:58:52.000Z</time>
      </trkpt>
      <trkpt lat="43.61738" lon="5.39451">
        <ele>441.39999389648</ele>
        <time>2019-11-30T13:58:53.000Z</time>
      </trkpt>
      <trkpt lat="43.61735" lon="5.39455">
        <ele>441.60000610352</ele>
        <time>2019-11-30T13:58:54.000Z</time>
      </trkpt>
      <trkpt lat="43.61734" lon="5.39458">
        <ele>441.79998779297</ele>
        <time>2019-11-30T13:58:55.000Z</time>
      </trkpt>
      <trkpt lat="43.61732" lon="5.39463">
        <ele>442.20001220703</ele>
        <time>2019-11-30T13:58:56.000Z</time>
      </trkpt>
      <trkpt lat="43.6173" lon="5.39468">
        <ele>442.39999389648</ele>
        <time>2019-11-30T13:58:57.000Z</time>
      </trkpt>
      <trkpt lat="43.61729" lon="5.39473">
        <ele>442.39999389648</ele>
        <time>2019-11-30T13:58:58.000Z</time>
      </trkpt>
      <trkpt lat="43.61728" lon="5.39477">
        <ele>442.60000610352</ele>
        <time>2019-11-30T13:58:59.000Z</time>
      </trkpt>
      <trkpt lat="43.61727" lon="5.39482">
        <ele>442.60000610352</ele>
        <time>2019-11-30T13:59:00.000Z</time>
      </trkpt>
      <trkpt lat="43.61726" lon="5.39487">
        <ele>442.60000610352</ele>
        <time>2019-11-30T13:59:01.000Z</time>
      </trkpt>
      <trkpt lat="43.61725" lon="5.39492">
        <ele>442.79998779297</ele>
        <time>2019-11-30T13:59:02.000Z</time>
      </trkpt>
      <trkpt lat="43.61724" lon="5.39496">
        <ele>442.79998779297</ele>
        <time>2019-11-30T13:59:03.000Z</time>
      </trkpt>
      <trkpt lat="43.61722" lon="5.395">
        <ele>443</ele>
        <time>2019-11-30T13:59:04.000Z</time>
      </trkpt>
      <trkpt lat="43.61722" lon="5.39505">
        <ele>443.20001220703</ele>
        <time>2019-11-30T13:59:05.000Z</time>
      </trkpt>
      <trkpt lat="43.61722" lon="5.39509">
        <ele>443.60000610352</ele>
        <time>2019-11-30T13:59:06.000Z</time>
      </trkpt>
      <trkpt lat="43.61722" lon="5.39514">
        <ele>443.79998779297</ele>
        <time>2019-11-30T13:59:07.000Z</time>
      </trkpt>
      <trkpt lat="43.61722" lon="5.39519">
        <ele>444.20001220703</ele>
        <time>2019-11-30T13:59:08.000Z</time>
      </trkpt>
      <trkpt lat="43.61722" lon="5.39524">
        <ele>444.60000610352</ele>
        <time>2019-11-30T13:59:09.000Z</time>
      </trkpt>
      <trkpt lat="43.61721" lon="5.39528">
        <ele>444.79998779297</ele>
        <time>2019-11-30T13:59:10.000Z</time>
      </trkpt>
      <trkpt lat="43.61721" lon="5.39533">
        <ele>445.20001220703</ele>
        <time>2019-11-30T13:59:11.000Z</time>
      </trkpt>
      <trkpt lat="43.6172" lon="5.39538">
        <ele>445.39999389648</ele>
        <time>2019-11-30T13:59:12.000Z</time>
      </trkpt>
      <trkpt lat="43.61719" lon="5.39543">
        <ele>445.79998779297</ele>
        <time>2019-11-30T13:59:13.000Z</time>
      </trkpt>
      <trkpt lat="43.61717" lon="5.39547">
        <ele>446</ele>
        <time>2019-11-30T13:59:14.000Z</time>
      </trkpt>
      <trkpt lat="43.61714" lon="5.39552">
        <ele>446.39999389648</ele>
        <time>2019-11-30T13:59:15.000Z</time>
      </trkpt>
      <trkpt lat="43.61712" lon="5.39556">
        <ele>446.60000610352</ele>
        <time>2019-11-30T13:59:16.000Z</time>
      </trkpt>
      <trkpt lat="43.61711" lon="5.39561">
        <ele>447</ele>
        <time>2019-11-30T13:59:17.000Z</time>
      </trkpt>
      <trkpt lat="43.61709" lon="5.39565">
        <ele>447.20001220703</ele>
        <time>2019-11-30T13:59:18.000Z</time>
      </trkpt>
      <trkpt lat="43.61706" lon="5.3957">
        <ele>447.60000610352</ele>
        <time>2019-11-30T13:59:19.000Z</time>
      </trkpt>
      <trkpt lat="43.61704" lon="5.39573">
        <ele>447.60000610352</ele>
        <time>2019-11-30T13:59:20.000Z</time>
      </trkpt>
      <trkpt lat="43.61701" lon="5.39577">
        <ele>447.79998779297</ele>
        <time>2019-11-30T13:59:21.000Z</time>
      </trkpt>
      <trkpt lat="43.617" lon="5.39581">
        <ele>448</ele>
        <time>2019-11-30T13:59:22.000Z</time>
      </trkpt>
      <trkpt lat="43.61698" lon="5.39585">
        <ele>448.20001220703</ele>
        <time>2019-11-30T13:59:23.000Z</time>
      </trkpt>
      <trkpt lat="43.61696" lon="5.39589">
        <ele>448.39999389648</ele>
        <time>2019-11-30T13:59:24.000Z</time>
      </trkpt>
      <trkpt lat="43.61695" lon="5.39593">
        <ele>448.60000610352</ele>
        <time>2019-11-30T13:59:25.000Z</time>
      </trkpt>
      <trkpt lat="43.61695" lon="5.39597">
        <ele>449</ele>
        <time>2019-11-30T13:59:26.000Z</time>
      </trkpt>
      <trkpt lat="43.61694" lon="5.39602">
        <ele>449.20001220703</ele>
        <time>2019-11-30T13:59:27.000Z</time>
      </trkpt>
      <trkpt lat="43.61694" lon="5.39607">
        <ele>449.60000610352</ele>
        <time>2019-11-30T13:59:28.000Z</time>
      </trkpt>
      <trkpt lat="43.61694" lon="5.39611">
        <ele>450</ele>
        <time>2019-11-30T13:59:29.000Z</time>
      </trkpt>
      <trkpt lat="43.61693" lon="5.39616">
        <ele>450.20001220703</ele>
        <time>2019-11-30T13:59:30.000Z</time>
      </trkpt>
      <trkpt lat="43.61692" lon="5.3962">
        <ele>450.39999389648</ele>
        <time>2019-11-30T13:59:31.000Z</time>
      </trkpt>
      <trkpt lat="43.61691" lon="5.39624">
        <ele>450.79998779297</ele>
        <time>2019-11-30T13:59:32.000Z</time>
      </trkpt>
      <trkpt lat="43.61689" lon="5.39629">
        <ele>451</ele>
        <time>2019-11-30T13:59:33.000Z</time>
      </trkpt>
      <trkpt lat="43.61687" lon="5.39633">
        <ele>451.20001220703</ele>
        <time>2019-11-30T13:59:34.000Z</time>
      </trkpt>
      <trkpt lat="43.61685" lon="5.39636">
        <ele>451.20001220703</ele>
        <time>2019-11-30T13:59:35.000Z</time>
      </trkpt>
      <trkpt lat="43.61683" lon="5.3964">
        <ele>451.20001220703</ele>
        <time>2019-11-30T13:59:36.000Z</time>
      </trkpt>
      <trkpt lat="43.61681" lon="5.39643">
        <ele>451</ele>
        <time>2019-11-30T13:59:37.000Z</time>
      </trkpt>
      <trkpt lat="43.61678" lon="5.39646">
        <ele>450.79998779297</ele>
        <time>2019-11-30T13:59:38.000Z</time>
      </trkpt>
      <trkpt lat="43.61675" lon="5.3965">
        <ele>450.60000610352</ele>
        <time>2019-11-30T13:59:39.000Z</time>
      </trkpt>
      <trkpt lat="43.61673" lon="5.39653">
        <ele>450.39999389648</ele>
        <time>2019-11-30T13:59:40.000Z</time>
      </trkpt>
      <trkpt lat="43.6167" lon="5.39656">
        <ele>450.20001220703</ele>
        <time>2019-11-30T13:59:41.000Z</time>
      </trkpt>
      <trkpt lat="43.61667" lon="5.39659">
        <ele>450</ele>
        <time>2019-11-30T13:59:42.000Z</time>
      </trkpt>
      <trkpt lat="43.61665" lon="5.39662">
        <ele>449.79998779297</ele>
        <time>2019-11-30T13:59:43.000Z</time>
      </trkpt>
      <trkpt lat="43.61663" lon="5.39666">
        <ele>449.79998779297</ele>
        <time>2019-11-30T13:59:44.000Z</time>
      </trkpt>
      <trkpt lat="43.61661" lon="5.3967">
        <ele>449.79998779297</ele>
        <time>2019-11-30T13:59:45.000Z</time>
      </trkpt>
      <trkpt lat="43.61661" lon="5.39675">
        <ele>450</ele>
        <time>2019-11-30T13:59:46.000Z</time>
      </trkpt>
      <trkpt lat="43.6166" lon="5.39679">
        <ele>450.20001220703</ele>
        <time>2019-11-30T13:59:47.000Z</time>
      </trkpt>
      <trkpt lat="43.61659" lon="5.39683">
        <ele>450.39999389648</ele>
        <time>2019-11-30T13:59:48.000Z</time>
      </trkpt>
      <trkpt lat="43.61659" lon="5.39688">
        <ele>450.60000610352</ele>
        <time>2019-11-30T13:59:49.000Z</time>
      </trkpt>
      <trkpt lat="43.61659" lon="5.39693">
        <ele>451</ele>
        <time>2019-11-30T13:59:50.000Z</time>
      </trkpt>
      <trkpt lat="43.61658" lon="5.39697">
        <ele>451.39999389648</ele>
        <time>2019-11-30T13:59:51.000Z</time>
      </trkpt>
      <trkpt lat="43.61658" lon="5.39702">
        <ele>452</ele>
        <time>2019-11-30T13:59:52.000Z</time>
      </trkpt>
      <trkpt lat="43.61658" lon="5.39707">
        <ele>452.39999389648</ele>
        <time>2019-11-30T13:59:53.000Z</time>
      </trkpt>
      <trkpt lat="43.61658" lon="5.39711">
        <ele>453</ele>
        <time>2019-11-30T13:59:54.000Z</time>
      </trkpt>
      <trkpt lat="43.61659" lon="5.39716">
        <ele>453.60000610352</ele>
        <time>2019-11-30T13:59:55.000Z</time>
      </trkpt>
      <trkpt lat="43.6166" lon="5.39721">
        <ele>454</ele>
        <time>2019-11-30T13:59:56.000Z</time>
      </trkpt>
      <trkpt lat="43.6166" lon="5.39726">
        <ele>454.39999389648</ele>
        <time>2019-11-30T13:59:57.000Z</time>
      </trkpt>
      <trkpt lat="43.6166" lon="5.39731">
        <ele>454.60000610352</ele>
        <time>2019-11-30T13:59:58.000Z</time>
      </trkpt>
      <trkpt lat="43.61659" lon="5.39736">
        <ele>455</ele>
        <time>2019-11-30T13:59:59.000Z</time>
      </trkpt>
      <trkpt lat="43.61658" lon="5.39741">
        <ele>455.20001220703</ele>
        <time>2019-11-30T14:00:00.000Z</time>
      </trkpt>
      <trkpt lat="43.61657" lon="5.39745">
        <ele>455.39999389648</ele>
        <time>2019-11-30T14:00:01.000Z</time>
      </trkpt>
      <trkpt lat="43.61655" lon="5.39749">
        <ele>455.60000610352</ele>
        <time>2019-11-30T14:00:02.000Z</time>
      </trkpt>
      <trkpt lat="43.61652" lon="5.39753">
        <ele>455.60000610352</ele>
        <time>2019-11-30T14:00:03.000Z</time>
      </trkpt>
      <trkpt lat="43.61651" lon="5.39756">
        <ele>455.60000610352</ele>
        <time>2019-11-30T14:00:04.000Z</time>
      </trkpt>
      <trkpt lat="43.6165" lon="5.3976">
        <ele>455.79998779297</ele>
        <time>2019-11-30T14:00:05.000Z</time>
      </trkpt>
      <trkpt lat="43.61649" lon="5.39764">
        <ele>456</ele>
        <time>2019-11-30T14:00:06.000Z</time>
      </trkpt>
      <trkpt lat="43.61647" lon="5.39767">
        <ele>456</ele>
        <time>2019-11-30T14:00:07.000Z</time>
      </trkpt>
      <trkpt lat="43.61646" lon="5.3977">
        <ele>456.20001220703</ele>
        <time>2019-11-30T14:00:08.000Z</time>
      </trkpt>
      <trkpt lat="43.61646" lon="5.39774">
        <ele>456.39999389648</ele>
        <time>2019-11-30T14:00:09.000Z</time>
      </trkpt>
      <trkpt lat="43.61646" lon="5.39778">
        <ele>456.79998779297</ele>
        <time>2019-11-30T14:00:10.000Z</time>
      </trkpt>
      <trkpt lat="43.61645" lon="5.39781">
        <ele>456.79998779297</ele>
        <time>2019-11-30T14:00:11.000Z</time>
      </trkpt>
      <trkpt lat="43.61644" lon="5.39785">
        <ele>457</ele>
        <time>2019-11-30T14:00:12.000Z</time>
      </trkpt>
      <trkpt lat="43.61643" lon="5.39789">
        <ele>457.20001220703</ele>
        <time>2019-11-30T14:00:13.000Z</time>
      </trkpt>
      <trkpt lat="43.61642" lon="5.39792">
        <ele>457.39999389648</ele>
        <time>2019-11-30T14:00:14.000Z</time>
      </trkpt>
      <trkpt lat="43.61642" lon="5.39796">
        <ele>457.60000610352</ele>
        <time>2019-11-30T14:00:15.000Z</time>
      </trkpt>
      <trkpt lat="43.61641" lon="5.398">
        <ele>457.79998779297</ele>
        <time>2019-11-30T14:00:16.000Z</time>
      </trkpt>
      <trkpt lat="43.61641" lon="5.39803">
        <ele>458.20001220703</ele>
        <time>2019-11-30T14:00:17.000Z</time>
      </trkpt>
      <trkpt lat="43.61641" lon="5.39807">
        <ele>458.39999389648</ele>
        <time>2019-11-30T14:00:18.000Z</time>
      </trkpt>
      <trkpt lat="43.6164" lon="5.3981">
        <ele>458.60000610352</ele>
        <time>2019-11-30T14:00:19.000Z</time>
      </trkpt>
      <trkpt lat="43.61639" lon="5.39814">
        <ele>458.79998779297</ele>
        <time>2019-11-30T14:00:20.000Z</time>
      </trkpt>
      <trkpt lat="43.61637" lon="5.39817">
        <ele>459</ele>
        <time>2019-11-30T14:00:21.000Z</time>
      </trkpt>
      <trkpt lat="43.61636" lon="5.39821">
        <ele>459.20001220703</ele>
        <time>2019-11-30T14:00:22.000Z</time>
      </trkpt>
      <trkpt lat="43.61636" lon="5.39825">
        <ele>459.39999389648</ele>
        <time>2019-11-30T14:00:23.000Z</time>
      </trkpt>
      <trkpt lat="43.61635" lon="5.39828">
        <ele>459.60000610352</ele>
        <time>2019-11-30T14:00:24.000Z</time>
      </trkpt>
      <trkpt lat="43.61634" lon="5.39832">
        <ele>459.79998779297</ele>
        <time>2019-11-30T14:00:25.000Z</time>
      </trkpt>
      <trkpt lat="43.61633" lon="5.39836">
        <ele>459.79998779297</ele>
        <time>2019-11-30T14:00:26.000Z</time>
      </trkpt>
      <trkpt lat="43.61632" lon="5.3984">
        <ele>459.79998779297</ele>
        <time>2019-11-30T14:00:27.000Z</time>
      </trkpt>
      <trkpt lat="43.61632" lon="5.39844">
        <ele>459.79998779297</ele>
        <time>2019-11-30T14:00:28.000Z</time>
      </trkpt>
      <trkpt lat="43.61631" lon="5.39847">
        <ele>460</ele>
        <time>2019-11-30T14:00:29.000Z</time>
      </trkpt>
      <trkpt lat="43.6163" lon="5.39851">
        <ele>460</ele>
        <time>2019-11-30T14:00:30.000Z</time>
      </trkpt>
      <trkpt lat="43.6163" lon="5.39855">
        <ele>460</ele>
        <time>2019-11-30T14:00:31.000Z</time>
      </trkpt>
      <trkpt lat="43.61629" lon="5.39859">
        <ele>460.20001220703</ele>
        <time>2019-11-30T14:00:32.000Z</time>
      </trkpt>
      <trkpt lat="43.61628" lon="5.39863">
        <ele>460</ele>
        <time>2019-11-30T14:00:33.000Z</time>
      </trkpt>
      <trkpt lat="43.61627" lon="5.39866">
        <ele>460.20001220703</ele>
        <time>2019-11-30T14:00:34.000Z</time>
      </trkpt>
      <trkpt lat="43.61627" lon="5.3987">
        <ele>460.20001220703</ele>
        <time>2019-11-30T14:00:35.000Z</time>
      </trkpt>
      <trkpt lat="43.61627" lon="5.39874">
        <ele>460.20001220703</ele>
        <time>2019-11-30T14:00:36.000Z</time>
      </trkpt>
      <trkpt lat="43.61626" lon="5.39879">
        <ele>460.39999389648</ele>
        <time>2019-11-30T14:00:37.000Z</time>
      </trkpt>
      <trkpt lat="43.61625" lon="5.39883">
        <ele>460.39999389648</ele>
        <time>2019-11-30T14:00:38.000Z</time>
      </trkpt>
      <trkpt lat="43.61624" lon="5.39886">
        <ele>460.60000610352</ele>
        <time>2019-11-30T14:00:39.000Z</time>
      </trkpt>
      <trkpt lat="43.61624" lon="5.3989">
        <ele>460.79998779297</ele>
        <time>2019-11-30T14:00:40.000Z</time>
      </trkpt>
      <trkpt lat="43.61623" lon="5.39894">
        <ele>460.79998779297</ele>
        <time>2019-11-30T14:00:41.000Z</time>
      </trkpt>
      <trkpt lat="43.61622" lon="5.39898">
        <ele>461</ele>
        <time>2019-11-30T14:00:42.000Z</time>
      </trkpt>
      <trkpt lat="43.61621" lon="5.39902">
        <ele>461.20001220703</ele>
        <time>2019-11-30T14:00:43.000Z</time>
      </trkpt>
      <trkpt lat="43.61621" lon="5.39906">
        <ele>461.60000610352</ele>
        <time>2019-11-30T14:00:44.000Z</time>
      </trkpt>
      <trkpt lat="43.6162" lon="5.39911">
        <ele>462</ele>
        <time>2019-11-30T14:00:45.000Z</time>
      </trkpt>
      <trkpt lat="43.6162" lon="5.39915">
        <ele>462.39999389648</ele>
        <time>2019-11-30T14:00:46.000Z</time>
      </trkpt>
      <trkpt lat="43.61619" lon="5.39919">
        <ele>462.60000610352</ele>
        <time>2019-11-30T14:00:47.000Z</time>
      </trkpt>
      <trkpt lat="43.61618" lon="5.39923">
        <ele>462.79998779297</ele>
        <time>2019-11-30T14:00:48.000Z</time>
      </trkpt>
      <trkpt lat="43.61617" lon="5.39927">
        <ele>463</ele>
        <time>2019-11-30T14:00:49.000Z</time>
      </trkpt>
      <trkpt lat="43.61616" lon="5.39931">
        <ele>463.39999389648</ele>
        <time>2019-11-30T14:00:50.000Z</time>
      </trkpt>
      <trkpt lat="43.61615" lon="5.39934">
        <ele>463.60000610352</ele>
        <time>2019-11-30T14:00:51.000Z</time>
      </trkpt>
      <trkpt lat="43.61614" lon="5.39938">
        <ele>464</ele>
        <time>2019-11-30T14:00:52.000Z</time>
      </trkpt>
      <trkpt lat="43.61614" lon="5.39942">
        <ele>464.20001220703</ele>
        <time>2019-11-30T14:00:53.000Z</time>
      </trkpt>
      <trkpt lat="43.61612" lon="5.39946">
        <ele>464.39999389648</ele>
        <time>2019-11-30T14:00:54.000Z</time>
      </trkpt>
      <trkpt lat="43.61612" lon="5.39949">
        <ele>464.60000610352</ele>
        <time>2019-11-30T14:00:55.000Z</time>
      </trkpt>
      <trkpt lat="43.61612" lon="5.39954">
        <ele>465</ele>
        <time>2019-11-30T14:00:56.000Z</time>
      </trkpt>
      <trkpt lat="43.61611" lon="5.39958">
        <ele>465.39999389648</ele>
        <time>2019-11-30T14:00:57.000Z</time>
      </trkpt>
      <trkpt lat="43.61611" lon="5.39962">
        <ele>465.79998779297</ele>
        <time>2019-11-30T14:00:58.000Z</time>
      </trkpt>
      <trkpt lat="43.61611" lon="5.39965">
        <ele>466.20001220703</ele>
        <time>2019-11-30T14:00:59.000Z</time>
      </trkpt>
      <trkpt lat="43.61611" lon="5.39969">
        <ele>466.39999389648</ele>
        <time>2019-11-30T14:01:00.000Z</time>
      </trkpt>
      <trkpt lat="43.6161" lon="5.39973">
        <ele>466.60000610352</ele>
        <time>2019-11-30T14:01:01.000Z</time>
      </trkpt>
      <trkpt lat="43.6161" lon="5.39976">
        <ele>466.60000610352</ele>
        <time>2019-11-30T14:01:02.000Z</time>
      </trkpt>
      <trkpt lat="43.61609" lon="5.3998">
        <ele>466.79998779297</ele>
        <time>2019-11-30T14:01:03.000Z</time>
      </trkpt>
      <trkpt lat="43.61608" lon="5.39983">
        <ele>466.79998779297</ele>
        <time>2019-11-30T14:01:04.000Z</time>
      </trkpt>
      <trkpt lat="43.61607" lon="5.39986">
        <ele>466.79998779297</ele>
        <time>2019-11-30T14:01:05.000Z</time>
      </trkpt>
      <trkpt lat="43.61605" lon="5.3999">
        <ele>466.60000610352</ele>
        <time>2019-11-30T14:01:06.000Z</time>
      </trkpt>
      <trkpt lat="43.61604" lon="5.39993">
        <ele>466.60000610352</ele>
        <time>2019-11-30T14:01:07.000Z</time>
      </trkpt>
      <trkpt lat="43.61603" lon="5.39997">
        <ele>466.60000610352</ele>
        <time>2019-11-30T14:01:08.000Z</time>
      </trkpt>
      <trkpt lat="43.61601" lon="5.40001">
        <ele>466.60000610352</ele>
        <time>2019-11-30T14:01:09.000Z</time>
      </trkpt>
      <trkpt lat="43.61599" lon="5.40005">
        <ele>466.60000610352</ele>
        <time>2019-11-30T14:01:10.000Z</time>
      </trkpt>
      <trkpt lat="43.61597" lon="5.40009">
        <ele>466.39999389648</ele>
        <time>2019-11-30T14:01:11.000Z</time>
      </trkpt>
      <trkpt lat="43.61594" lon="5.40013">
        <ele>466.20001220703</ele>
        <time>2019-11-30T14:01:12.000Z</time>
      </trkpt>
      <trkpt lat="43.61591" lon="5.40017">
        <ele>466</ele>
        <time>2019-11-30T14:01:13.000Z</time>
      </trkpt>
      <trkpt lat="43.61588" lon="5.40022">
        <ele>465.79998779297</ele>
        <time>2019-11-30T14:01:14.000Z</time>
      </trkpt>
      <trkpt lat="43.61587" lon="5.40026">
        <ele>465.79998779297</ele>
        <time>2019-11-30T14:01:15.000Z</time>
      </trkpt>
      <trkpt lat="43.61585" lon="5.4003">
        <ele>465.60000610352</ele>
        <time>2019-11-30T14:01:16.000Z</time>
      </trkpt>
      <trkpt lat="43.61584" lon="5.40033">
        <ele>465.79998779297</ele>
        <time>2019-11-30T14:01:17.000Z</time>
      </trkpt>
      <trkpt lat="43.61582" lon="5.40038">
        <ele>466</ele>
        <time>2019-11-30T14:01:18.000Z</time>
      </trkpt>
      <trkpt lat="43.61581" lon="5.40042">
        <ele>466.20001220703</ele>
        <time>2019-11-30T14:01:19.000Z</time>
      </trkpt>
      <trkpt lat="43.6158" lon="5.40045">
        <ele>466.39999389648</ele>
        <time>2019-11-30T14:01:20.000Z</time>
      </trkpt>
      <trkpt lat="43.61578" lon="5.40049">
        <ele>466.60000610352</ele>
        <time>2019-11-30T14:01:21.000Z</time>
      </trkpt>
      <trkpt lat="43.61577" lon="5.40053">
        <ele>466.60000610352</ele>
        <time>2019-11-30T14:01:22.000Z</time>
      </trkpt>
      <trkpt lat="43.61577" lon="5.40057">
        <ele>466.79998779297</ele>
        <time>2019-11-30T14:01:23.000Z</time>
      </trkpt>
      <trkpt lat="43.61576" lon="5.4006">
        <ele>467</ele>
        <time>2019-11-30T14:01:24.000Z</time>
      </trkpt>
      <trkpt lat="43.61576" lon="5.40064">
        <ele>467.20001220703</ele>
        <time>2019-11-30T14:01:25.000Z</time>
      </trkpt>
      <trkpt lat="43.61575" lon="5.40068">
        <ele>467.60000610352</ele>
        <time>2019-11-30T14:01:26.000Z</time>
      </trkpt>
      <trkpt lat="43.61574" lon="5.40072">
        <ele>467.60000610352</ele>
        <time>2019-11-30T14:01:27.000Z</time>
      </trkpt>
      <trkpt lat="43.61572" lon="5.40076">
        <ele>467.79998779297</ele>
        <time>2019-11-30T14:01:28.000Z</time>
      </trkpt>
      <trkpt lat="43.6157" lon="5.40079">
        <ele>467.79998779297</ele>
        <time>2019-11-30T14:01:29.000Z</time>
      </trkpt>
      <trkpt lat="43.61568" lon="5.40083">
        <ele>467.79998779297</ele>
        <time>2019-11-30T14:01:30.000Z</time>
      </trkpt>
      <trkpt lat="43.61567" lon="5.40087">
        <ele>468</ele>
        <time>2019-11-30T14:01:31.000Z</time>
      </trkpt>
      <trkpt lat="43.61565" lon="5.40091">
        <ele>468</ele>
        <time>2019-11-30T14:01:32.000Z</time>
      </trkpt>
      <trkpt lat="43.61563" lon="5.40095">
        <ele>468</ele>
        <time>2019-11-30T14:01:33.000Z</time>
      </trkpt>
      <trkpt lat="43.61562" lon="5.401">
        <ele>467.79998779297</ele>
        <time>2019-11-30T14:01:34.000Z</time>
      </trkpt>
      <trkpt lat="43.61562" lon="5.40104">
        <ele>467.79998779297</ele>
        <time>2019-11-30T14:01:35.000Z</time>
      </trkpt>
      <trkpt lat="43.61562" lon="5.40108">
        <ele>467.79998779297</ele>
        <time>2019-11-30T14:01:36.000Z</time>
      </trkpt>
      <trkpt lat="43.61561" lon="5.40113">
        <ele>467.60000610352</ele>
        <time>2019-11-30T14:01:37.000Z</time>
      </trkpt>
      <trkpt lat="43.6156" lon="5.40117">
        <ele>467.39999389648</ele>
        <time>2019-11-30T14:01:38.000Z</time>
      </trkpt>
      <trkpt lat="43.6156" lon="5.40121">
        <ele>467.39999389648</ele>
        <time>2019-11-30T14:01:39.000Z</time>
      </trkpt>
      <trkpt lat="43.61559" lon="5.40125">
        <ele>467.39999389648</ele>
        <time>2019-11-30T14:01:40.000Z</time>
      </trkpt>
      <trkpt lat="43.61558" lon="5.4013">
        <ele>467.20001220703</ele>
        <time>2019-11-30T14:01:41.000Z</time>
      </trkpt>
      <trkpt lat="43.61557" lon="5.40134">
        <ele>467</ele>
        <time>2019-11-30T14:01:42.000Z</time>
      </trkpt>
      <trkpt lat="43.61556" lon="5.40138">
        <ele>467</ele>
        <time>2019-11-30T14:01:43.000Z</time>
      </trkpt>
      <trkpt lat="43.61555" lon="5.40143">
        <ele>467.20001220703</ele>
        <time>2019-11-30T14:01:44.000Z</time>
      </trkpt>
      <trkpt lat="43.61555" lon="5.40148">
        <ele>467.39999389648</ele>
        <time>2019-11-30T14:01:45.000Z</time>
      </trkpt>
      <trkpt lat="43.61554" lon="5.40152">
        <ele>467.60000610352</ele>
        <time>2019-11-30T14:01:46.000Z</time>
      </trkpt>
      <trkpt lat="43.61553" lon="5.40156">
        <ele>467.60000610352</ele>
        <time>2019-11-30T14:01:47.000Z</time>
      </trkpt>
      <trkpt lat="43.61553" lon="5.4016">
        <ele>467.79998779297</ele>
        <time>2019-11-30T14:01:48.000Z</time>
      </trkpt>
      <trkpt lat="43.61553" lon="5.40164">
        <ele>468</ele>
        <time>2019-11-30T14:01:49.000Z</time>
      </trkpt>
      <trkpt lat="43.61552" lon="5.40168">
        <ele>468</ele>
        <time>2019-11-30T14:01:50.000Z</time>
      </trkpt>
      <trkpt lat="43.6155" lon="5.40171">
        <ele>467.79998779297</ele>
        <time>2019-11-30T14:01:51.000Z</time>
      </trkpt>
      <trkpt lat="43.6155" lon="5.40175">
        <ele>467.79998779297</ele>
        <time>2019-11-30T14:01:52.000Z</time>
      </trkpt>
      <trkpt lat="43.6155" lon="5.40178">
        <ele>467.79998779297</ele>
        <time>2019-11-30T14:01:53.000Z</time>
      </trkpt>
      <trkpt lat="43.6155" lon="5.40182">
        <ele>467.79998779297</ele>
        <time>2019-11-30T14:01:54.000Z</time>
      </trkpt>
      <trkpt lat="43.61549" lon="5.40186">
        <ele>467.60000610352</ele>
        <time>2019-11-30T14:01:55.000Z</time>
      </trkpt>
      <trkpt lat="43.61549" lon="5.40191">
        <ele>467.60000610352</ele>
        <time>2019-11-30T14:01:56.000Z</time>
      </trkpt>
      <trkpt lat="43.61547" lon="5.40196">
        <ele>467.20001220703</ele>
        <time>2019-11-30T14:01:57.000Z</time>
      </trkpt>
      <trkpt lat="43.61546" lon="5.402">
        <ele>467</ele>
        <time>2019-11-30T14:01:58.000Z</time>
      </trkpt>
      <trkpt lat="43.61544" lon="5.40205">
        <ele>466.60000610352</ele>
        <time>2019-11-30T14:01:59.000Z</time>
      </trkpt>
      <trkpt lat="43.61543" lon="5.4021">
        <ele>466.39999389648</ele>
        <time>2019-11-30T14:02:00.000Z</time>
      </trkpt>
      <trkpt lat="43.61541" lon="5.40214">
        <ele>466.20001220703</ele>
        <time>2019-11-30T14:02:01.000Z</time>
      </trkpt>
      <trkpt lat="43.61541" lon="5.40219">
        <ele>466.20001220703</ele>
        <time>2019-11-30T14:02:02.000Z</time>
      </trkpt>
      <trkpt lat="43.6154" lon="5.40224">
        <ele>466.20001220703</ele>
        <time>2019-11-30T14:02:03.000Z</time>
      </trkpt>
      <trkpt lat="43.61539" lon="5.40229">
        <ele>466.39999389648</ele>
        <time>2019-11-30T14:02:04.000Z</time>
      </trkpt>
      <trkpt lat="43.61538" lon="5.40234">
        <ele>466.39999389648</ele>
        <time>2019-11-30T14:02:05.000Z</time>
      </trkpt>
      <trkpt lat="43.61538" lon="5.4024">
        <ele>466.60000610352</ele>
        <time>2019-11-30T14:02:06.000Z</time>
      </trkpt>
      <trkpt lat="43.61536" lon="5.40245">
        <ele>466.79998779297</ele>
        <time>2019-11-30T14:02:07.000Z</time>
      </trkpt>
      <trkpt lat="43.61535" lon="5.40251">
        <ele>466.79998779297</ele>
        <time>2019-11-30T14:02:08.000Z</time>
      </trkpt>
      <trkpt lat="43.61533" lon="5.40256">
        <ele>467</ele>
        <time>2019-11-30T14:02:09.000Z</time>
      </trkpt>
      <trkpt lat="43.61531" lon="5.40261">
        <ele>466.79998779297</ele>
        <time>2019-11-30T14:02:10.000Z</time>
      </trkpt>
      <trkpt lat="43.61529" lon="5.40266">
        <ele>466.79998779297</ele>
        <time>2019-11-30T14:02:11.000Z</time>
      </trkpt>
      <trkpt lat="43.61526" lon="5.40271">
        <ele>466.60000610352</ele>
        <time>2019-11-30T14:02:12.000Z</time>
      </trkpt>
      <trkpt lat="43.61523" lon="5.40277">
        <ele>466.39999389648</ele>
        <time>2019-11-30T14:02:13.000Z</time>
      </trkpt>
      <trkpt lat="43.6152" lon="5.40283">
        <ele>466.20001220703</ele>
        <time>2019-11-30T14:02:14.000Z</time>
      </trkpt>
      <trkpt lat="43.61518" lon="5.40289">
        <ele>466.20001220703</ele>
        <time>2019-11-30T14:02:15.000Z</time>
      </trkpt>
      <trkpt lat="43.61516" lon="5.40296">
        <ele>466.20001220703</ele>
        <time>2019-11-30T14:02:16.000Z</time>
      </trkpt>
      <trkpt lat="43.61514" lon="5.40302">
        <ele>467</ele>
        <time>2019-11-30T14:02:17.000Z</time>
      </trkpt>
      <trkpt lat="43.61512" lon="5.40308">
        <ele>467.39999389648</ele>
        <time>2019-11-30T14:02:18.000Z</time>
      </trkpt>
      <trkpt lat="43.61509" lon="5.40314">
        <ele>467.79998779297</ele>
        <time>2019-11-30T14:02:19.000Z</time>
      </trkpt>
      <trkpt lat="43.61507" lon="5.4032">
        <ele>468</ele>
        <time>2019-11-30T14:02:20.000Z</time>
      </trkpt>
      <trkpt lat="43.61505" lon="5.40325">
        <ele>468.39999389648</ele>
        <time>2019-11-30T14:02:21.000Z</time>
      </trkpt>
      <trkpt lat="43.61503" lon="5.4033">
        <ele>468.79998779297</ele>
        <time>2019-11-30T14:02:22.000Z</time>
      </trkpt>
      <trkpt lat="43.615" lon="5.40336">
        <ele>469</ele>
        <time>2019-11-30T14:02:23.000Z</time>
      </trkpt>
      <trkpt lat="43.61498" lon="5.40342">
        <ele>469.39999389648</ele>
        <time>2019-11-30T14:02:24.000Z</time>
      </trkpt>
      <trkpt lat="43.61496" lon="5.40348">
        <ele>469.79998779297</ele>
        <time>2019-11-30T14:02:25.000Z</time>
      </trkpt>
      <trkpt lat="43.61494" lon="5.40353">
        <ele>470.20001220703</ele>
        <time>2019-11-30T14:02:26.000Z</time>
      </trkpt>
      <trkpt lat="43.61491" lon="5.4036">
        <ele>470.60000610352</ele>
        <time>2019-11-30T14:02:27.000Z</time>
      </trkpt>
      <trkpt lat="43.61489" lon="5.40366">
        <ele>471</ele>
        <time>2019-11-30T14:02:28.000Z</time>
      </trkpt>
      <trkpt lat="43.61486" lon="5.40372">
        <ele>471.20001220703</ele>
        <time>2019-11-30T14:02:29.000Z</time>
      </trkpt>
      <trkpt lat="43.61484" lon="5.40377">
        <ele>471.60000610352</ele>
        <time>2019-11-30T14:02:30.000Z</time>
      </trkpt>
      <trkpt lat="43.61482" lon="5.40383">
        <ele>472</ele>
        <time>2019-11-30T14:02:31.000Z</time>
      </trkpt>
      <trkpt lat="43.6148" lon="5.40388">
        <ele>472.39999389648</ele>
        <time>2019-11-30T14:02:32.000Z</time>
      </trkpt>
      <trkpt lat="43.61478" lon="5.40393">
        <ele>472.79998779297</ele>
        <time>2019-11-30T14:02:33.000Z</time>
      </trkpt>
      <trkpt lat="43.61477" lon="5.40398">
        <ele>473</ele>
        <time>2019-11-30T14:02:34.000Z</time>
      </trkpt>
      <trkpt lat="43.61474" lon="5.40403">
        <ele>473.20001220703</ele>
        <time>2019-11-30T14:02:35.000Z</time>
      </trkpt>
      <trkpt lat="43.61472" lon="5.40407">
        <ele>473.39999389648</ele>
        <time>2019-11-30T14:02:36.000Z</time>
      </trkpt>
      <trkpt lat="43.6147" lon="5.4041">
        <ele>473.60000610352</ele>
        <time>2019-11-30T14:02:37.000Z</time>
      </trkpt>
      <trkpt lat="43.61469" lon="5.40414">
        <ele>474</ele>
        <time>2019-11-30T14:02:38.000Z</time>
      </trkpt>
      <trkpt lat="43.61467" lon="5.40418">
        <ele>474</ele>
        <time>2019-11-30T14:02:39.000Z</time>
      </trkpt>
      <trkpt lat="43.61465" lon="5.40422">
        <ele>474</ele>
        <time>2019-11-30T14:02:40.000Z</time>
      </trkpt>
      <trkpt lat="43.61464" lon="5.40425">
        <ele>474</ele>
        <time>2019-11-30T14:02:41.000Z</time>
      </trkpt>
      <trkpt lat="43.61462" lon="5.40429">
        <ele>474</ele>
        <time>2019-11-30T14:02:42.000Z</time>
      </trkpt>
      <trkpt lat="43.61461" lon="5.40433">
        <ele>474.20001220703</ele>
        <time>2019-11-30T14:02:43.000Z</time>
      </trkpt>
      <trkpt lat="43.61461" lon="5.40437">
        <ele>474.39999389648</ele>
        <time>2019-11-30T14:02:44.000Z</time>
      </trkpt>
      <trkpt lat="43.6146" lon="5.40441">
        <ele>474.60000610352</ele>
        <time>2019-11-30T14:02:45.000Z</time>
      </trkpt>
      <trkpt lat="43.61459" lon="5.40445">
        <ele>474.60000610352</ele>
        <time>2019-11-30T14:02:46.000Z</time>
      </trkpt>
      <trkpt lat="43.61458" lon="5.40449">
        <ele>474.79998779297</ele>
        <time>2019-11-30T14:02:47.000Z</time>
      </trkpt>
      <trkpt lat="43.61457" lon="5.40453">
        <ele>474.79998779297</ele>
        <time>2019-11-30T14:02:48.000Z</time>
      </trkpt>
      <trkpt lat="43.61456" lon="5.40457">
        <ele>475</ele>
        <time>2019-11-30T14:02:49.000Z</time>
      </trkpt>
      <trkpt lat="43.61454" lon="5.40461">
        <ele>475</ele>
        <time>2019-11-30T14:02:50.000Z</time>
      </trkpt>
      <trkpt lat="43.61452" lon="5.40464">
        <ele>475</ele>
        <time>2019-11-30T14:02:51.000Z</time>
      </trkpt>
      <trkpt lat="43.6145" lon="5.40468">
        <ele>474.79998779297</ele>
        <time>2019-11-30T14:02:52.000Z</time>
      </trkpt>
      <trkpt lat="43.61449" lon="5.40472">
        <ele>474.79998779297</ele>
        <time>2019-11-30T14:02:53.000Z</time>
      </trkpt>
      <trkpt lat="43.61447" lon="5.40476">
        <ele>474.60000610352</ele>
        <time>2019-11-30T14:02:54.000Z</time>
      </trkpt>
      <trkpt lat="43.61446" lon="5.4048">
        <ele>474.39999389648</ele>
        <time>2019-11-30T14:02:55.000Z</time>
      </trkpt>
      <trkpt lat="43.61444" lon="5.40484">
        <ele>474</ele>
        <time>2019-11-30T14:02:56.000Z</time>
      </trkpt>
      <trkpt lat="43.61443" lon="5.40488">
        <ele>473.79998779297</ele>
        <time>2019-11-30T14:02:57.000Z</time>
      </trkpt>
      <trkpt lat="43.61443" lon="5.40493">
        <ele>473.60000610352</ele>
        <time>2019-11-30T14:02:58.000Z</time>
      </trkpt>
      <trkpt lat="43.61442" lon="5.40497">
        <ele>473.39999389648</ele>
        <time>2019-11-30T14:02:59.000Z</time>
      </trkpt>
      <trkpt lat="43.61441" lon="5.40501">
        <ele>473</ele>
        <time>2019-11-30T14:03:00.000Z</time>
      </trkpt>
      <trkpt lat="43.6144" lon="5.40505">
        <ele>472.79998779297</ele>
        <time>2019-11-30T14:03:01.000Z</time>
      </trkpt>
      <trkpt lat="43.6144" lon="5.4051">
        <ele>472.60000610352</ele>
        <time>2019-11-30T14:03:02.000Z</time>
      </trkpt>
      <trkpt lat="43.61439" lon="5.40514">
        <ele>472.60000610352</ele>
        <time>2019-11-30T14:03:03.000Z</time>
      </trkpt>
      <trkpt lat="43.61439" lon="5.40517">
        <ele>472.39999389648</ele>
        <time>2019-11-30T14:03:04.000Z</time>
      </trkpt>
      <trkpt lat="43.61439" lon="5.40522">
        <ele>472.20001220703</ele>
        <time>2019-11-30T14:03:05.000Z</time>
      </trkpt>
      <trkpt lat="43.61439" lon="5.40526">
        <ele>472.20001220703</ele>
        <time>2019-11-30T14:03:06.000Z</time>
      </trkpt>
      <trkpt lat="43.61439" lon="5.4053">
        <ele>472</ele>
        <time>2019-11-30T14:03:07.000Z</time>
      </trkpt>
      <trkpt lat="43.61439" lon="5.40534">
        <ele>472</ele>
        <time>2019-11-30T14:03:08.000Z</time>
      </trkpt>
      <trkpt lat="43.61438" lon="5.40538">
        <ele>471.79998779297</ele>
        <time>2019-11-30T14:03:09.000Z</time>
      </trkpt>
      <trkpt lat="43.61438" lon="5.40543">
        <ele>471.60000610352</ele>
        <time>2019-11-30T14:03:10.000Z</time>
      </trkpt>
      <trkpt lat="43.61438" lon="5.40547">
        <ele>471.60000610352</ele>
        <time>2019-11-30T14:03:11.000Z</time>
      </trkpt>
      <trkpt lat="43.61439" lon="5.40552">
        <ele>471.60000610352</ele>
        <time>2019-11-30T14:03:12.000Z</time>
      </trkpt>
      <trkpt lat="43.6144" lon="5.40556">
        <ele>471.60000610352</ele>
        <time>2019-11-30T14:03:13.000Z</time>
      </trkpt>
      <trkpt lat="43.6144" lon="5.40561">
        <ele>471.60000610352</ele>
        <time>2019-11-30T14:03:14.000Z</time>
      </trkpt>
      <trkpt lat="43.6144" lon="5.40566">
        <ele>471.60000610352</ele>
        <time>2019-11-30T14:03:15.000Z</time>
      </trkpt>
      <trkpt lat="43.6144" lon="5.4057">
        <ele>471.60000610352</ele>
        <time>2019-11-30T14:03:16.000Z</time>
      </trkpt>
      <trkpt lat="43.61441" lon="5.40575">
        <ele>471.60000610352</ele>
        <time>2019-11-30T14:03:17.000Z</time>
      </trkpt>
      <trkpt lat="43.61441" lon="5.4058">
        <ele>471.60000610352</ele>
        <time>2019-11-30T14:03:18.000Z</time>
      </trkpt>
      <trkpt lat="43.61441" lon="5.40585">
        <ele>471.60000610352</ele>
        <time>2019-11-30T14:03:19.000Z</time>
      </trkpt>
      <trkpt lat="43.61442" lon="5.4059">
        <ele>471.60000610352</ele>
        <time>2019-11-30T14:03:20.000Z</time>
      </trkpt>
      <trkpt lat="43.61442" lon="5.40596">
        <ele>471.60000610352</ele>
        <time>2019-11-30T14:03:21.000Z</time>
      </trkpt>
      <trkpt lat="43.61442" lon="5.40601">
        <ele>471.60000610352</ele>
        <time>2019-11-30T14:03:22.000Z</time>
      </trkpt>
      <trkpt lat="43.61443" lon="5.40607">
        <ele>471.79998779297</ele>
        <time>2019-11-30T14:03:23.000Z</time>
      </trkpt>
      <trkpt lat="43.61444" lon="5.40612">
        <ele>471.79998779297</ele>
        <time>2019-11-30T14:03:24.000Z</time>
      </trkpt>
      <trkpt lat="43.61444" lon="5.40617">
        <ele>471.79998779297</ele>
        <time>2019-11-30T14:03:25.000Z</time>
      </trkpt>
      <trkpt lat="43.61444" lon="5.40623">
        <ele>471.60000610352</ele>
        <time>2019-11-30T14:03:26.000Z</time>
      </trkpt>
      <trkpt lat="43.61444" lon="5.40628">
        <ele>471.60000610352</ele>
        <time>2019-11-30T14:03:27.000Z</time>
      </trkpt>
      <trkpt lat="43.61443" lon="5.40633">
        <ele>471.60000610352</ele>
        <time>2019-11-30T14:03:28.000Z</time>
      </trkpt>
      <trkpt lat="43.61444" lon="5.40638">
        <ele>471.79998779297</ele>
        <time>2019-11-30T14:03:29.000Z</time>
      </trkpt>
      <trkpt lat="43.61444" lon="5.40644">
        <ele>472</ele>
        <time>2019-11-30T14:03:30.000Z</time>
      </trkpt>
      <trkpt lat="43.61444" lon="5.40649">
        <ele>472.39999389648</ele>
        <time>2019-11-30T14:03:31.000Z</time>
      </trkpt>
      <trkpt lat="43.61444" lon="5.40654">
        <ele>472.60000610352</ele>
        <time>2019-11-30T14:03:32.000Z</time>
      </trkpt>
      <trkpt lat="43.61443" lon="5.40659">
        <ele>472.79998779297</ele>
        <time>2019-11-30T14:03:33.000Z</time>
      </trkpt>
      <trkpt lat="43.61442" lon="5.40663">
        <ele>473</ele>
        <time>2019-11-30T14:03:34.000Z</time>
      </trkpt>
      <trkpt lat="43.61442" lon="5.40668">
        <ele>473.20001220703</ele>
        <time>2019-11-30T14:03:35.000Z</time>
      </trkpt>
      <trkpt lat="43.61442" lon="5.40672">
        <ele>473.60000610352</ele>
        <time>2019-11-30T14:03:36.000Z</time>
      </trkpt>
      <trkpt lat="43.61442" lon="5.40677">
        <ele>473.79998779297</ele>
        <time>2019-11-30T14:03:37.000Z</time>
      </trkpt>
      <trkpt lat="43.61442" lon="5.40681">
        <ele>474</ele>
        <time>2019-11-30T14:03:38.000Z</time>
      </trkpt>
      <trkpt lat="43.61442" lon="5.40685">
        <ele>474.20001220703</ele>
        <time>2019-11-30T14:03:39.000Z</time>
      </trkpt>
      <trkpt lat="43.61441" lon="5.4069">
        <ele>474.39999389648</ele>
        <time>2019-11-30T14:03:40.000Z</time>
      </trkpt>
      <trkpt lat="43.6144" lon="5.40695">
        <ele>474.60000610352</ele>
        <time>2019-11-30T14:03:41.000Z</time>
      </trkpt>
      <trkpt lat="43.61439" lon="5.407">
        <ele>474.79998779297</ele>
        <time>2019-11-30T14:03:42.000Z</time>
      </trkpt>
      <trkpt lat="43.61438" lon="5.40704">
        <ele>474.79998779297</ele>
        <time>2019-11-30T14:03:43.000Z</time>
      </trkpt>
      <trkpt lat="43.61438" lon="5.40707">
        <ele>475</ele>
        <time>2019-11-30T14:03:44.000Z</time>
      </trkpt>
      <trkpt lat="43.61437" lon="5.4071">
        <ele>475</ele>
        <time>2019-11-30T14:03:45.000Z</time>
      </trkpt>
      <trkpt lat="43.61437" lon="5.40709">
        <ele>475</ele>
        <time>2019-11-30T14:03:46.000Z</time>
      </trkpt>
      <trkpt lat="43.61437" lon="5.40709">
        <ele>475</ele>
        <time>2019-11-30T14:03:47.000Z</time>
      </trkpt>
      <trkpt lat="43.61437" lon="5.40709">
        <ele>474.79998779297</ele>
        <time>2019-11-30T14:03:48.000Z</time>
      </trkpt>
      <trkpt lat="43.61437" lon="5.40709">
        <ele>474.79998779297</ele>
        <time>2019-11-30T14:03:49.000Z</time>
      </trkpt>
      <trkpt lat="43.61437" lon="5.40709">
        <ele>474.79998779297</ele>
        <time>2019-11-30T14:03:50.000Z</time>
      </trkpt>
      <trkpt lat="43.61437" lon="5.40709">
        <ele>474.79998779297</ele>
        <time>2019-11-30T14:03:51.000Z</time>
      </trkpt>
      <trkpt lat="43.61437" lon="5.40709">
        <ele>474.79998779297</ele>
        <time>2019-11-30T14:03:52.000Z</time>
      </trkpt>
      <trkpt lat="43.61437" lon="5.40709">
        <ele>474.79998779297</ele>
        <time>2019-11-30T14:03:53.000Z</time>
      </trkpt>
      <trkpt lat="43.61437" lon="5.40709">
        <ele>474.79998779297</ele>
        <time>2019-11-30T14:03:54.000Z</time>
      </trkpt>
      <trkpt lat="43.61437" lon="5.40709">
        <ele>474.79998779297</ele>
        <time>2019-11-30T14:03:55.000Z</time>
      </trkpt>
      <trkpt lat="43.61437" lon="5.40709">
        <ele>474.79998779297</ele>
        <time>2019-11-30T14:03:56.000Z</time>
      </trkpt>
      <trkpt lat="43.61437" lon="5.40709">
        <ele>474.79998779297</ele>
        <time>2019-11-30T14:03:57.000Z</time>
      </trkpt>
      <trkpt lat="43.61437" lon="5.40709">
        <ele>474.79998779297</ele>
        <time>2019-11-30T14:03:58.000Z</time>
      </trkpt>
      <trkpt lat="43.61437" lon="5.40709">
        <ele>474.79998779297</ele>
        <time>2019-11-30T14:03:59.000Z</time>
      </trkpt>
      <trkpt lat="43.61437" lon="5.40709">
        <ele>474.79998779297</ele>
        <time>2019-11-30T14:04:00.000Z</time>
      </trkpt>
      <trkpt lat="43.61437" lon="5.40709">
        <ele>474.79998779297</ele>
        <time>2019-11-30T14:04:01.000Z</time>
      </trkpt>
      <trkpt lat="43.61437" lon="5.40709">
        <ele>474.79998779297</ele>
        <time>2019-11-30T14:04:02.000Z</time>
      </trkpt>
      <trkpt lat="43.61437" lon="5.40709">
        <ele>474.79998779297</ele>
        <time>2019-11-30T14:04:03.000Z</time>
      </trkpt>
      <trkpt lat="43.61437" lon="5.40709">
        <ele>474.79998779297</ele>
        <time>2019-11-30T14:04:04.000Z</time>
      </trkpt>
      <trkpt lat="43.61437" lon="5.40709">
        <ele>474.79998779297</ele>
        <time>2019-11-30T14:04:05.000Z</time>
      </trkpt>
      <trkpt lat="43.61437" lon="5.40709">
        <ele>474.79998779297</ele>
        <time>2019-11-30T14:04:06.000Z</time>
      </trkpt>
      <trkpt lat="43.61437" lon="5.40709">
        <ele>474.79998779297</ele>
        <time>2019-11-30T14:04:07.000Z</time>
      </trkpt>
      <trkpt lat="43.61437" lon="5.40709">
        <ele>474.79998779297</ele>
        <time>2019-11-30T14:04:08.000Z</time>
      </trkpt>
      <trkpt lat="43.61437" lon="5.40709">
        <ele>474.79998779297</ele>
        <time>2019-11-30T14:04:09.000Z</time>
      </trkpt>
      <trkpt lat="43.61437" lon="5.40709">
        <ele>474.79998779297</ele>
        <time>2019-11-30T14:04:10.000Z</time>
      </trkpt>
      <trkpt lat="43.61437" lon="5.40709">
        <ele>474.79998779297</ele>
        <time>2019-11-30T14:04:11.000Z</time>
      </trkpt>
      <trkpt lat="43.61437" lon="5.40709">
        <ele>474.79998779297</ele>
        <time>2019-11-30T14:04:12.000Z</time>
      </trkpt>
      <trkpt lat="43.61437" lon="5.40709">
        <ele>474.79998779297</ele>
        <time>2019-11-30T14:04:13.000Z</time>
      </trkpt>
      <trkpt lat="43.61437" lon="5.40709">
        <ele>474.79998779297</ele>
        <time>2019-11-30T14:04:14.000Z</time>
      </trkpt>
      <trkpt lat="43.61437" lon="5.40709">
        <ele>474.79998779297</ele>
        <time>2019-11-30T14:04:15.000Z</time>
      </trkpt>
      <trkpt lat="43.61437" lon="5.40709">
        <ele>474.79998779297</ele>
        <time>2019-11-30T14:04:16.000Z</time>
      </trkpt>
      <trkpt lat="43.61437" lon="5.40709">
        <ele>474.79998779297</ele>
        <time>2019-11-30T14:04:17.000Z</time>
      </trkpt>
      <trkpt lat="43.61437" lon="5.40709">
        <ele>474.79998779297</ele>
        <time>2019-11-30T14:04:18.000Z</time>
      </trkpt>
      <trkpt lat="43.61437" lon="5.40709">
        <ele>474.79998779297</ele>
        <time>2019-11-30T14:04:19.000Z</time>
      </trkpt>
      <trkpt lat="43.61437" lon="5.40709">
        <ele>474.79998779297</ele>
        <time>2019-11-30T14:04:20.000Z</time>
      </trkpt>
      <trkpt lat="43.61437" lon="5.40709">
        <ele>474.79998779297</ele>
        <time>2019-11-30T14:04:21.000Z</time>
      </trkpt>
      <trkpt lat="43.61437" lon="5.40709">
        <ele>474.79998779297</ele>
        <time>2019-11-30T14:04:22.000Z</time>
      </trkpt>
      <trkpt lat="43.61437" lon="5.40709">
        <ele>474.79998779297</ele>
        <time>2019-11-30T14:04:23.000Z</time>
      </trkpt>
      <trkpt lat="43.61437" lon="5.40709">
        <ele>474.79998779297</ele>
        <time>2019-11-30T14:04:24.000Z</time>
      </trkpt>
      <trkpt lat="43.61437" lon="5.40709">
        <ele>474.79998779297</ele>
        <time>2019-11-30T14:04:25.000Z</time>
      </trkpt>
      <trkpt lat="43.61437" lon="5.40709">
        <ele>474.79998779297</ele>
        <time>2019-11-30T14:04:26.000Z</time>
      </trkpt>
      <trkpt lat="43.61437" lon="5.40709">
        <ele>474.79998779297</ele>
        <time>2019-11-30T14:04:27.000Z</time>
      </trkpt>
      <trkpt lat="43.61437" lon="5.40709">
        <ele>474.79998779297</ele>
        <time>2019-11-30T14:04:28.000Z</time>
      </trkpt>
      <trkpt lat="43.61437" lon="5.40709">
        <ele>474.79998779297</ele>
        <time>2019-11-30T14:04:29.000Z</time>
      </trkpt>
      <trkpt lat="43.61437" lon="5.40709">
        <ele>474.79998779297</ele>
        <time>2019-11-30T14:04:30.000Z</time>
      </trkpt>
      <trkpt lat="43.61437" lon="5.40709">
        <ele>474.79998779297</ele>
        <time>2019-11-30T14:04:31.000Z</time>
      </trkpt>
      <trkpt lat="43.61437" lon="5.40709">
        <ele>474.79998779297</ele>
        <time>2019-11-30T14:04:32.000Z</time>
      </trkpt>
      <trkpt lat="43.61437" lon="5.40709">
        <ele>474.79998779297</ele>
        <time>2019-11-30T14:04:33.000Z</time>
      </trkpt>
      <trkpt lat="43.61437" lon="5.40709">
        <ele>474.79998779297</ele>
        <time>2019-11-30T14:04:34.000Z</time>
      </trkpt>
      <trkpt lat="43.61437" lon="5.40709">
        <ele>474.79998779297</ele>
        <time>2019-11-30T14:04:35.000Z</time>
      </trkpt>
      <trkpt lat="43.61437" lon="5.40709">
        <ele>474.79998779297</ele>
        <time>2019-11-30T14:04:36.000Z</time>
      </trkpt>
      <trkpt lat="43.61437" lon="5.40709">
        <ele>474.79998779297</ele>
        <time>2019-11-30T14:04:37.000Z</time>
      </trkpt>
      <trkpt lat="43.61437" lon="5.40709">
        <ele>474.79998779297</ele>
        <time>2019-11-30T14:04:38.000Z</time>
      </trkpt>
      <trkpt lat="43.61437" lon="5.40709">
        <ele>474.79998779297</ele>
        <time>2019-11-30T14:04:39.000Z</time>
      </trkpt>
      <trkpt lat="43.61437" lon="5.40709">
        <ele>474.79998779297</ele>
        <time>2019-11-30T14:04:40.000Z</time>
      </trkpt>
      <trkpt lat="43.61437" lon="5.40709">
        <ele>474.79998779297</ele>
        <time>2019-11-30T14:04:41.000Z</time>
      </trkpt>
      <trkpt lat="43.61437" lon="5.40709">
        <ele>474.79998779297</ele>
        <time>2019-11-30T14:04:42.000Z</time>
      </trkpt>
      <trkpt lat="43.61437" lon="5.40709">
        <ele>474.79998779297</ele>
        <time>2019-11-30T14:04:43.000Z</time>
      </trkpt>
      <trkpt lat="43.61437" lon="5.40709">
        <ele>474.79998779297</ele>
        <time>2019-11-30T14:04:44.000Z</time>
      </trkpt>
      <trkpt lat="43.61437" lon="5.40709">
        <ele>474.79998779297</ele>
        <time>2019-11-30T14:04:45.000Z</time>
      </trkpt>
      <trkpt lat="43.61437" lon="5.40709">
        <ele>474.79998779297</ele>
        <time>2019-11-30T14:04:46.000Z</time>
      </trkpt>
      <trkpt lat="43.61437" lon="5.40709">
        <ele>474.79998779297</ele>
        <time>2019-11-30T14:04:47.000Z</time>
      </trkpt>
      <trkpt lat="43.61437" lon="5.40709">
        <ele>474.79998779297</ele>
        <time>2019-11-30T14:04:48.000Z</time>
      </trkpt>
      <trkpt lat="43.61437" lon="5.40709">
        <ele>474.79998779297</ele>
        <time>2019-11-30T14:04:49.000Z</time>
      </trkpt>
      <trkpt lat="43.61437" lon="5.40709">
        <ele>474.79998779297</ele>
        <time>2019-11-30T14:04:50.000Z</time>
      </trkpt>
      <trkpt lat="43.61437" lon="5.40709">
        <ele>474.79998779297</ele>
        <time>2019-11-30T14:04:51.000Z</time>
      </trkpt>
      <trkpt lat="43.61437" lon="5.40709">
        <ele>474.79998779297</ele>
        <time>2019-11-30T14:04:52.000Z</time>
      </trkpt>
      <trkpt lat="43.61437" lon="5.40709">
        <ele>474.79998779297</ele>
        <time>2019-11-30T14:04:53.000Z</time>
      </trkpt>
      <trkpt lat="43.61437" lon="5.40709">
        <ele>474.79998779297</ele>
        <time>2019-11-30T14:04:54.000Z</time>
      </trkpt>
      <trkpt lat="43.61437" lon="5.40709">
        <ele>474.79998779297</ele>
        <time>2019-11-30T14:04:55.000Z</time>
      </trkpt>
      <trkpt lat="43.61437" lon="5.40709">
        <ele>474.79998779297</ele>
        <time>2019-11-30T14:04:56.000Z</time>
      </trkpt>
      <trkpt lat="43.61437" lon="5.40709">
        <ele>474.79998779297</ele>
        <time>2019-11-30T14:04:57.000Z</time>
      </trkpt>
      <trkpt lat="43.61437" lon="5.40709">
        <ele>474.79998779297</ele>
        <time>2019-11-30T14:04:58.000Z</time>
      </trkpt>
      <trkpt lat="43.61437" lon="5.40709">
        <ele>474.79998779297</ele>
        <time>2019-11-30T14:04:59.000Z</time>
      </trkpt>
      <trkpt lat="43.61437" lon="5.40709">
        <ele>474.79998779297</ele>
        <time>2019-11-30T14:05:00.000Z</time>
      </trkpt>
      <trkpt lat="43.61437" lon="5.40709">
        <ele>474.79998779297</ele>
        <time>2019-11-30T14:05:01.000Z</time>
      </trkpt>
      <trkpt lat="43.61437" lon="5.40709">
        <ele>474.79998779297</ele>
        <time>2019-11-30T14:05:02.000Z</time>
      </trkpt>
      <trkpt lat="43.61437" lon="5.40709">
        <ele>474.79998779297</ele>
        <time>2019-11-30T14:05:03.000Z</time>
      </trkpt>
      <trkpt lat="43.61437" lon="5.40709">
        <ele>474.79998779297</ele>
        <time>2019-11-30T14:05:04.000Z</time>
      </trkpt>
      <trkpt lat="43.61437" lon="5.40709">
        <ele>474.79998779297</ele>
        <time>2019-11-30T14:05:05.000Z</time>
      </trkpt>
      <trkpt lat="43.61437" lon="5.40709">
        <ele>474.79998779297</ele>
        <time>2019-11-30T14:05:06.000Z</time>
      </trkpt>
      <trkpt lat="43.61437" lon="5.40709">
        <ele>474.79998779297</ele>
        <time>2019-11-30T14:05:07.000Z</time>
      </trkpt>
      <trkpt lat="43.61436" lon="5.40708">
        <ele>474.60000610352</ele>
        <time>2019-11-30T14:05:08.000Z</time>
      </trkpt>
      <trkpt lat="43.61436" lon="5.40708">
        <ele>474.60000610352</ele>
        <time>2019-11-30T14:05:09.000Z</time>
      </trkpt>
      <trkpt lat="43.61436" lon="5.40708">
        <ele>474.60000610352</ele>
        <time>2019-11-30T14:05:10.000Z</time>
      </trkpt>
      <trkpt lat="43.61436" lon="5.40708">
        <ele>474.60000610352</ele>
        <time>2019-11-30T14:05:11.000Z</time>
      </trkpt>
      <trkpt lat="43.61436" lon="5.40708">
        <ele>474.60000610352</ele>
        <time>2019-11-30T14:05:12.000Z</time>
      </trkpt>
      <trkpt lat="43.61436" lon="5.40708">
        <ele>474.60000610352</ele>
        <time>2019-11-30T14:05:13.000Z</time>
      </trkpt>
      <trkpt lat="43.61436" lon="5.40708">
        <ele>474.60000610352</ele>
        <time>2019-11-30T14:05:14.000Z</time>
      </trkpt>
      <trkpt lat="43.61436" lon="5.40708">
        <ele>474.60000610352</ele>
        <time>2019-11-30T14:05:15.000Z</time>
      </trkpt>
      <trkpt lat="43.61436" lon="5.40708">
        <ele>474.60000610352</ele>
        <time>2019-11-30T14:05:16.000Z</time>
      </trkpt>
      <trkpt lat="43.61436" lon="5.40708">
        <ele>474.60000610352</ele>
        <time>2019-11-30T14:05:17.000Z</time>
      </trkpt>
      <trkpt lat="43.61436" lon="5.40708">
        <ele>474.60000610352</ele>
        <time>2019-11-30T14:05:18.000Z</time>
      </trkpt>
      <trkpt lat="43.61436" lon="5.40708">
        <ele>474.60000610352</ele>
        <time>2019-11-30T14:05:19.000Z</time>
      </trkpt>
      <trkpt lat="43.61436" lon="5.40708">
        <ele>474.60000610352</ele>
        <time>2019-11-30T14:05:20.000Z</time>
      </trkpt>
      <trkpt lat="43.61436" lon="5.40708">
        <ele>474.60000610352</ele>
        <time>2019-11-30T14:05:21.000Z</time>
      </trkpt>
      <trkpt lat="43.61436" lon="5.40708">
        <ele>474.60000610352</ele>
        <time>2019-11-30T14:05:22.000Z</time>
      </trkpt>
      <trkpt lat="43.61436" lon="5.40708">
        <ele>474.60000610352</ele>
        <time>2019-11-30T14:05:23.000Z</time>
      </trkpt>
      <trkpt lat="43.61436" lon="5.40708">
        <ele>474.60000610352</ele>
        <time>2019-11-30T14:05:24.000Z</time>
      </trkpt>
      <trkpt lat="43.61436" lon="5.40708">
        <ele>474.60000610352</ele>
        <time>2019-11-30T14:05:25.000Z</time>
      </trkpt>
      <trkpt lat="43.61436" lon="5.40708">
        <ele>474.60000610352</ele>
        <time>2019-11-30T14:05:26.000Z</time>
      </trkpt>
      <trkpt lat="43.61436" lon="5.40708">
        <ele>474.60000610352</ele>
        <time>2019-11-30T14:05:27.000Z</time>
      </trkpt>
      <trkpt lat="43.61436" lon="5.40708">
        <ele>474.60000610352</ele>
        <time>2019-11-30T14:05:28.000Z</time>
      </trkpt>
      <trkpt lat="43.61436" lon="5.40708">
        <ele>474.60000610352</ele>
        <time>2019-11-30T14:05:29.000Z</time>
      </trkpt>
      <trkpt lat="43.61436" lon="5.40708">
        <ele>474.60000610352</ele>
        <time>2019-11-30T14:05:30.000Z</time>
      </trkpt>
      <trkpt lat="43.61436" lon="5.40708">
        <ele>474.60000610352</ele>
        <time>2019-11-30T14:05:31.000Z</time>
      </trkpt>
      <trkpt lat="43.61436" lon="5.40708">
        <ele>474.60000610352</ele>
        <time>2019-11-30T14:05:32.000Z</time>
      </trkpt>
      <trkpt lat="43.61436" lon="5.40708">
        <ele>474.60000610352</ele>
        <time>2019-11-30T14:05:33.000Z</time>
      </trkpt>
      <trkpt lat="43.61436" lon="5.40708">
        <ele>474.60000610352</ele>
        <time>2019-11-30T14:05:34.000Z</time>
      </trkpt>
      <trkpt lat="43.61436" lon="5.40708">
        <ele>474.60000610352</ele>
        <time>2019-11-30T14:05:35.000Z</time>
      </trkpt>
      <trkpt lat="43.61436" lon="5.40708">
        <ele>474.60000610352</ele>
        <time>2019-11-30T14:05:36.000Z</time>
      </trkpt>
      <trkpt lat="43.61436" lon="5.40708">
        <ele>474.60000610352</ele>
        <time>2019-11-30T14:05:37.000Z</time>
      </trkpt>
      <trkpt lat="43.61436" lon="5.40708">
        <ele>474.60000610352</ele>
        <time>2019-11-30T14:05:38.000Z</time>
      </trkpt>
      <trkpt lat="43.61436" lon="5.40708">
        <ele>474.60000610352</ele>
        <time>2019-11-30T14:05:39.000Z</time>
      </trkpt>
      <trkpt lat="43.61436" lon="5.40708">
        <ele>474.60000610352</ele>
        <time>2019-11-30T14:05:40.000Z</time>
      </trkpt>
      <trkpt lat="43.61436" lon="5.40708">
        <ele>474.60000610352</ele>
        <time>2019-11-30T14:05:41.000Z</time>
      </trkpt>
      <trkpt lat="43.61436" lon="5.40708">
        <ele>474.60000610352</ele>
        <time>2019-11-30T14:05:42.000Z</time>
      </trkpt>
      <trkpt lat="43.61436" lon="5.40708">
        <ele>474.60000610352</ele>
        <time>2019-11-30T14:05:43.000Z</time>
      </trkpt>
      <trkpt lat="43.61436" lon="5.40708">
        <ele>474.60000610352</ele>
        <time>2019-11-30T14:05:44.000Z</time>
      </trkpt>
      <trkpt lat="43.61436" lon="5.40708">
        <ele>474.60000610352</ele>
        <time>2019-11-30T14:05:45.000Z</time>
      </trkpt>
      <trkpt lat="43.61436" lon="5.40708">
        <ele>474.60000610352</ele>
        <time>2019-11-30T14:05:46.000Z</time>
      </trkpt>
      <trkpt lat="43.61436" lon="5.40708">
        <ele>474.60000610352</ele>
        <time>2019-11-30T14:05:47.000Z</time>
      </trkpt>
      <trkpt lat="43.61437" lon="5.40708">
        <ele>475</ele>
        <time>2019-11-30T14:05:48.000Z</time>
      </trkpt>
      <trkpt lat="43.61437" lon="5.40708">
        <ele>475</ele>
        <time>2019-11-30T14:05:49.000Z</time>
      </trkpt>
      <trkpt lat="43.61437" lon="5.40708">
        <ele>475</ele>
        <time>2019-11-30T14:05:50.000Z</time>
      </trkpt>
      <trkpt lat="43.61437" lon="5.40708">
        <ele>475</ele>
        <time>2019-11-30T14:05:51.000Z</time>
      </trkpt>
      <trkpt lat="43.61437" lon="5.40708">
        <ele>475</ele>
        <time>2019-11-30T14:05:52.000Z</time>
      </trkpt>
      <trkpt lat="43.61437" lon="5.40708">
        <ele>475</ele>
        <time>2019-11-30T14:05:53.000Z</time>
      </trkpt>
      <trkpt lat="43.61437" lon="5.40708">
        <ele>475</ele>
        <time>2019-11-30T14:05:54.000Z</time>
      </trkpt>
      <trkpt lat="43.61437" lon="5.40708">
        <ele>475</ele>
        <time>2019-11-30T14:05:55.000Z</time>
      </trkpt>
      <trkpt lat="43.61437" lon="5.40708">
        <ele>475</ele>
        <time>2019-11-30T14:05:56.000Z</time>
      </trkpt>
      <trkpt lat="43.61437" lon="5.40708">
        <ele>475</ele>
        <time>2019-11-30T14:05:57.000Z</time>
      </trkpt>
      <trkpt lat="43.61437" lon="5.40708">
        <ele>475</ele>
        <time>2019-11-30T14:05:58.000Z</time>
      </trkpt>
      <trkpt lat="43.61437" lon="5.40708">
        <ele>475</ele>
        <time>2019-11-30T14:05:59.000Z</time>
      </trkpt>
      <trkpt lat="43.61437" lon="5.40708">
        <ele>475</ele>
        <time>2019-11-30T14:06:00.000Z</time>
      </trkpt>
      <trkpt lat="43.61437" lon="5.40708">
        <ele>475</ele>
        <time>2019-11-30T14:06:01.000Z</time>
      </trkpt>
      <trkpt lat="43.61437" lon="5.40708">
        <ele>475</ele>
        <time>2019-11-30T14:06:02.000Z</time>
      </trkpt>
      <trkpt lat="43.61437" lon="5.40708">
        <ele>475</ele>
        <time>2019-11-30T14:06:03.000Z</time>
      </trkpt>
      <trkpt lat="43.61437" lon="5.40708">
        <ele>475</ele>
        <time>2019-11-30T14:06:04.000Z</time>
      </trkpt>
      <trkpt lat="43.61437" lon="5.40708">
        <ele>475</ele>
        <time>2019-11-30T14:06:05.000Z</time>
      </trkpt>
      <trkpt lat="43.61437" lon="5.40708">
        <ele>475</ele>
        <time>2019-11-30T14:06:06.000Z</time>
      </trkpt>
      <trkpt lat="43.61437" lon="5.40708">
        <ele>475</ele>
        <time>2019-11-30T14:06:07.000Z</time>
      </trkpt>
      <trkpt lat="43.61437" lon="5.40708">
        <ele>475</ele>
        <time>2019-11-30T14:06:08.000Z</time>
      </trkpt>
      <trkpt lat="43.61437" lon="5.40708">
        <ele>475</ele>
        <time>2019-11-30T14:06:09.000Z</time>
      </trkpt>
      <trkpt lat="43.61437" lon="5.40708">
        <ele>475</ele>
        <time>2019-11-30T14:06:10.000Z</time>
      </trkpt>
      <trkpt lat="43.61437" lon="5.40708">
        <ele>475</ele>
        <time>2019-11-30T14:06:11.000Z</time>
      </trkpt>
      <trkpt lat="43.61437" lon="5.40708">
        <ele>475</ele>
        <time>2019-11-30T14:06:12.000Z</time>
      </trkpt>
      <trkpt lat="43.61437" lon="5.40708">
        <ele>475</ele>
        <time>2019-11-30T14:06:13.000Z</time>
      </trkpt>
      <trkpt lat="43.61437" lon="5.40708">
        <ele>475</ele>
        <time>2019-11-30T14:06:14.000Z</time>
      </trkpt>
      <trkpt lat="43.61437" lon="5.4071">
        <ele>475</ele>
        <time>2019-11-30T14:06:15.000Z</time>
      </trkpt>
      <trkpt lat="43.61437" lon="5.4071">
        <ele>475</ele>
        <time>2019-11-30T14:06:16.000Z</time>
      </trkpt>
      <trkpt lat="43.61437" lon="5.4071">
        <ele>475</ele>
        <time>2019-11-30T14:06:17.000Z</time>
      </trkpt>
      <trkpt lat="43.61437" lon="5.4071">
        <ele>475</ele>
        <time>2019-11-30T14:06:18.000Z</time>
      </trkpt>
      <trkpt lat="43.61437" lon="5.4071">
        <ele>475</ele>
        <time>2019-11-30T14:06:19.000Z</time>
      </trkpt>
      <trkpt lat="43.61437" lon="5.4071">
        <ele>475</ele>
        <time>2019-11-30T14:06:20.000Z</time>
      </trkpt>
      <trkpt lat="43.61437" lon="5.4071">
        <ele>475</ele>
        <time>2019-11-30T14:06:21.000Z</time>
      </trkpt>
      <trkpt lat="43.61437" lon="5.4071">
        <ele>475</ele>
        <time>2019-11-30T14:06:22.000Z</time>
      </trkpt>
      <trkpt lat="43.61437" lon="5.4071">
        <ele>475</ele>
        <time>2019-11-30T14:06:23.000Z</time>
      </trkpt>
      <trkpt lat="43.61437" lon="5.4071">
        <ele>475</ele>
        <time>2019-11-30T14:06:24.000Z</time>
      </trkpt>
      <trkpt lat="43.61437" lon="5.4071">
        <ele>475</ele>
        <time>2019-11-30T14:06:25.000Z</time>
      </trkpt>
      <trkpt lat="43.61437" lon="5.4071">
        <ele>475</ele>
        <time>2019-11-30T14:06:26.000Z</time>
      </trkpt>
      <trkpt lat="43.61437" lon="5.4071">
        <ele>475</ele>
        <time>2019-11-30T14:06:27.000Z</time>
      </trkpt>
      <trkpt lat="43.61437" lon="5.4071">
        <ele>475</ele>
        <time>2019-11-30T14:06:28.000Z</time>
      </trkpt>
      <trkpt lat="43.61437" lon="5.4071">
        <ele>475</ele>
        <time>2019-11-30T14:06:29.000Z</time>
      </trkpt>
      <trkpt lat="43.61437" lon="5.4071">
        <ele>475</ele>
        <time>2019-11-30T14:06:30.000Z</time>
      </trkpt>
      <trkpt lat="43.61437" lon="5.4071">
        <ele>475</ele>
        <time>2019-11-30T14:06:31.000Z</time>
      </trkpt>
      <trkpt lat="43.61437" lon="5.4071">
        <ele>475</ele>
        <time>2019-11-30T14:06:32.000Z</time>
      </trkpt>
      <trkpt lat="43.61437" lon="5.4071">
        <ele>475</ele>
        <time>2019-11-30T14:06:33.000Z</time>
      </trkpt>
      <trkpt lat="43.61437" lon="5.4071">
        <ele>475</ele>
        <time>2019-11-30T14:06:34.000Z</time>
      </trkpt>
      <trkpt lat="43.61437" lon="5.4071">
        <ele>475</ele>
        <time>2019-11-30T14:06:35.000Z</time>
      </trkpt>
      <trkpt lat="43.61437" lon="5.4071">
        <ele>475</ele>
        <time>2019-11-30T14:06:36.000Z</time>
      </trkpt>
      <trkpt lat="43.61437" lon="5.4071">
        <ele>475</ele>
        <time>2019-11-30T14:06:37.000Z</time>
      </trkpt>
      <trkpt lat="43.61437" lon="5.4071">
        <ele>475</ele>
        <time>2019-11-30T14:06:38.000Z</time>
      </trkpt>
      <trkpt lat="43.61437" lon="5.4071">
        <ele>475</ele>
        <time>2019-11-30T14:06:39.000Z</time>
      </trkpt>
      <trkpt lat="43.61437" lon="5.4071">
        <ele>475</ele>
        <time>2019-11-30T14:06:40.000Z</time>
      </trkpt>
      <trkpt lat="43.61437" lon="5.4071">
        <ele>475</ele>
        <time>2019-11-30T14:06:41.000Z</time>
      </trkpt>
      <trkpt lat="43.61437" lon="5.4071">
        <ele>475</ele>
        <time>2019-11-30T14:06:42.000Z</time>
      </trkpt>
      <trkpt lat="43.61437" lon="5.4071">
        <ele>475</ele>
        <time>2019-11-30T14:06:43.000Z</time>
      </trkpt>
      <trkpt lat="43.61437" lon="5.4071">
        <ele>475</ele>
        <time>2019-11-30T14:06:44.000Z</time>
      </trkpt>
      <trkpt lat="43.61437" lon="5.4071">
        <ele>475</ele>
        <time>2019-11-30T14:06:45.000Z</time>
      </trkpt>
      <trkpt lat="43.61437" lon="5.4071">
        <ele>475</ele>
        <time>2019-11-30T14:06:46.000Z</time>
      </trkpt>
      <trkpt lat="43.61437" lon="5.4071">
        <ele>475</ele>
        <time>2019-11-30T14:06:47.000Z</time>
      </trkpt>
      <trkpt lat="43.61437" lon="5.4071">
        <ele>475</ele>
        <time>2019-11-30T14:06:48.000Z</time>
      </trkpt>
      <trkpt lat="43.61437" lon="5.4071">
        <ele>475</ele>
        <time>2019-11-30T14:06:49.000Z</time>
      </trkpt>
      <trkpt lat="43.61437" lon="5.40711">
        <ele>475</ele>
        <time>2019-11-30T14:06:50.000Z</time>
      </trkpt>
      <trkpt lat="43.61437" lon="5.40713">
        <ele>475</ele>
        <time>2019-11-30T14:06:51.000Z</time>
      </trkpt>
      <trkpt lat="43.61436" lon="5.40716">
        <ele>475.20001220703</ele>
        <time>2019-11-30T14:06:52.000Z</time>
      </trkpt>
      <trkpt lat="43.61436" lon="5.4072">
        <ele>475.39999389648</ele>
        <time>2019-11-30T14:06:53.000Z</time>
      </trkpt>
      <trkpt lat="43.61435" lon="5.40724">
        <ele>475.39999389648</ele>
        <time>2019-11-30T14:06:54.000Z</time>
      </trkpt>
      <trkpt lat="43.61434" lon="5.40729">
        <ele>475.60000610352</ele>
        <time>2019-11-30T14:06:55.000Z</time>
      </trkpt>
      <trkpt lat="43.61433" lon="5.40734">
        <ele>475.60000610352</ele>
        <time>2019-11-30T14:06:56.000Z</time>
      </trkpt>
      <trkpt lat="43.61432" lon="5.40738">
        <ele>475.79998779297</ele>
        <time>2019-11-30T14:06:57.000Z</time>
      </trkpt>
      <trkpt lat="43.61432" lon="5.40742">
        <ele>476</ele>
        <time>2019-11-30T14:06:58.000Z</time>
      </trkpt>
      <trkpt lat="43.61432" lon="5.40747">
        <ele>476.20001220703</ele>
        <time>2019-11-30T14:06:59.000Z</time>
      </trkpt>
      <trkpt lat="43.61431" lon="5.40752">
        <ele>476.39999389648</ele>
        <time>2019-11-30T14:07:00.000Z</time>
      </trkpt>
      <trkpt lat="43.6143" lon="5.40756">
        <ele>476.39999389648</ele>
        <time>2019-11-30T14:07:01.000Z</time>
      </trkpt>
      <trkpt lat="43.6143" lon="5.40761">
        <ele>476.60000610352</ele>
        <time>2019-11-30T14:07:02.000Z</time>
      </trkpt>
      <trkpt lat="43.61429" lon="5.40766">
        <ele>476.79998779297</ele>
        <time>2019-11-30T14:07:03.000Z</time>
      </trkpt>
      <trkpt lat="43.61429" lon="5.40771">
        <ele>477</ele>
        <time>2019-11-30T14:07:04.000Z</time>
      </trkpt>
      <trkpt lat="43.61428" lon="5.40775">
        <ele>477.20001220703</ele>
        <time>2019-11-30T14:07:05.000Z</time>
      </trkpt>
      <trkpt lat="43.61428" lon="5.4078">
        <ele>477.39999389648</ele>
        <time>2019-11-30T14:07:06.000Z</time>
      </trkpt>
      <trkpt lat="43.61428" lon="5.40785">
        <ele>477.60000610352</ele>
        <time>2019-11-30T14:07:07.000Z</time>
      </trkpt>
      <trkpt lat="43.61427" lon="5.4079">
        <ele>477.79998779297</ele>
        <time>2019-11-30T14:07:08.000Z</time>
      </trkpt>
      <trkpt lat="43.61426" lon="5.40794">
        <ele>478.39999389648</ele>
        <time>2019-11-30T14:07:09.000Z</time>
      </trkpt>
      <trkpt lat="43.61425" lon="5.40799">
        <ele>479</ele>
        <time>2019-11-30T14:07:10.000Z</time>
      </trkpt>
      <trkpt lat="43.61424" lon="5.40804">
        <ele>478.79998779297</ele>
        <time>2019-11-30T14:07:11.000Z</time>
      </trkpt>
      <trkpt lat="43.61423" lon="5.40808">
        <ele>478.60000610352</ele>
        <time>2019-11-30T14:07:12.000Z</time>
      </trkpt>
      <trkpt lat="43.61421" lon="5.40813">
        <ele>478.39999389648</ele>
        <time>2019-11-30T14:07:13.000Z</time>
      </trkpt>
      <trkpt lat="43.6142" lon="5.40818">
        <ele>478.20001220703</ele>
        <time>2019-11-30T14:07:14.000Z</time>
      </trkpt>
      <trkpt lat="43.61418" lon="5.40822">
        <ele>478</ele>
        <time>2019-11-30T14:07:15.000Z</time>
      </trkpt>
      <trkpt lat="43.61417" lon="5.40827">
        <ele>478</ele>
        <time>2019-11-30T14:07:16.000Z</time>
      </trkpt>
      <trkpt lat="43.61416" lon="5.40831">
        <ele>477.79998779297</ele>
        <time>2019-11-30T14:07:17.000Z</time>
      </trkpt>
      <trkpt lat="43.61415" lon="5.40836">
        <ele>477.60000610352</ele>
        <time>2019-11-30T14:07:18.000Z</time>
      </trkpt>
      <trkpt lat="43.61413" lon="5.4084">
        <ele>477.39999389648</ele>
        <time>2019-11-30T14:07:19.000Z</time>
      </trkpt>
      <trkpt lat="43.61412" lon="5.40845">
        <ele>477.20001220703</ele>
        <time>2019-11-30T14:07:20.000Z</time>
      </trkpt>
      <trkpt lat="43.61413" lon="5.40849">
        <ele>477.20001220703</ele>
        <time>2019-11-30T14:07:21.000Z</time>
      </trkpt>
      <trkpt lat="43.61413" lon="5.40852">
        <ele>477.20001220703</ele>
        <time>2019-11-30T14:07:22.000Z</time>
      </trkpt>
      <trkpt lat="43.61415" lon="5.40856">
        <ele>477.39999389648</ele>
        <time>2019-11-30T14:07:23.000Z</time>
      </trkpt>
      <trkpt lat="43.61418" lon="5.40859">
        <ele>477.60000610352</ele>
        <time>2019-11-30T14:07:24.000Z</time>
      </trkpt>
      <trkpt lat="43.6142" lon="5.40861">
        <ele>477.79998779297</ele>
        <time>2019-11-30T14:07:25.000Z</time>
      </trkpt>
      <trkpt lat="43.61422" lon="5.40864">
        <ele>478</ele>
        <time>2019-11-30T14:07:26.000Z</time>
      </trkpt>
      <trkpt lat="43.61423" lon="5.40867">
        <ele>478</ele>
        <time>2019-11-30T14:07:27.000Z</time>
      </trkpt>
      <trkpt lat="43.61424" lon="5.40871">
        <ele>478</ele>
        <time>2019-11-30T14:07:28.000Z</time>
      </trkpt>
      <trkpt lat="43.61426" lon="5.40874">
        <ele>478.20001220703</ele>
        <time>2019-11-30T14:07:29.000Z</time>
      </trkpt>
      <trkpt lat="43.61428" lon="5.40877">
        <ele>478.60000610352</ele>
        <time>2019-11-30T14:07:30.000Z</time>
      </trkpt>
      <trkpt lat="43.61429" lon="5.40881">
        <ele>478.79998779297</ele>
        <time>2019-11-30T14:07:31.000Z</time>
      </trkpt>
      <trkpt lat="43.6143" lon="5.40884">
        <ele>478.79998779297</ele>
        <time>2019-11-30T14:07:32.000Z</time>
      </trkpt>
      <trkpt lat="43.61431" lon="5.40888">
        <ele>478.79998779297</ele>
        <time>2019-11-30T14:07:33.000Z</time>
      </trkpt>
      <trkpt lat="43.61432" lon="5.40891">
        <ele>478.79998779297</ele>
        <time>2019-11-30T14:07:34.000Z</time>
      </trkpt>
      <trkpt lat="43.61433" lon="5.40893">
        <ele>478.79998779297</ele>
        <time>2019-11-30T14:07:35.000Z</time>
      </trkpt>
      <trkpt lat="43.61434" lon="5.40895">
        <ele>478.79998779297</ele>
        <time>2019-11-30T14:07:36.000Z</time>
      </trkpt>
      <trkpt lat="43.61435" lon="5.40896">
        <ele>478.79998779297</ele>
        <time>2019-11-30T14:07:37.000Z</time>
      </trkpt>
      <trkpt lat="43.61435" lon="5.40898">
        <ele>478.79998779297</ele>
        <time>2019-11-30T14:07:38.000Z</time>
      </trkpt>
      <trkpt lat="43.61435" lon="5.40899">
        <ele>478.79998779297</ele>
        <time>2019-11-30T14:07:39.000Z</time>
      </trkpt>
      <trkpt lat="43.61434" lon="5.409">
        <ele>478.79998779297</ele>
        <time>2019-11-30T14:07:40.000Z</time>
      </trkpt>
      <trkpt lat="43.61433" lon="5.40902">
        <ele>478.79998779297</ele>
        <time>2019-11-30T14:07:41.000Z</time>
      </trkpt>
      <trkpt lat="43.61433" lon="5.40903">
        <ele>478.60000610352</ele>
        <time>2019-11-30T14:07:42.000Z</time>
      </trkpt>
      <trkpt lat="43.61433" lon="5.40905">
        <ele>478.60000610352</ele>
        <time>2019-11-30T14:07:43.000Z</time>
      </trkpt>
      <trkpt lat="43.61434" lon="5.40907">
        <ele>478.60000610352</ele>
        <time>2019-11-30T14:07:44.000Z</time>
      </trkpt>
      <trkpt lat="43.61435" lon="5.40908">
        <ele>478.60000610352</ele>
        <time>2019-11-30T14:07:45.000Z</time>
      </trkpt>
      <trkpt lat="43.61436" lon="5.40909">
        <ele>478.60000610352</ele>
        <time>2019-11-30T14:07:46.000Z</time>
      </trkpt>
      <trkpt lat="43.61437" lon="5.40911">
        <ele>478.79998779297</ele>
        <time>2019-11-30T14:07:47.000Z</time>
      </trkpt>
      <trkpt lat="43.61438" lon="5.40912">
        <ele>478.79998779297</ele>
        <time>2019-11-30T14:07:48.000Z</time>
      </trkpt>
      <trkpt lat="43.61439" lon="5.40914">
        <ele>478.79998779297</ele>
        <time>2019-11-30T14:07:49.000Z</time>
      </trkpt>
      <trkpt lat="43.6144" lon="5.40916">
        <ele>478.79998779297</ele>
        <time>2019-11-30T14:07:50.000Z</time>
      </trkpt>
      <trkpt lat="43.6144" lon="5.40918">
        <ele>478.79998779297</ele>
        <time>2019-11-30T14:07:51.000Z</time>
      </trkpt>
      <trkpt lat="43.61441" lon="5.40921">
        <ele>478.79998779297</ele>
        <time>2019-11-30T14:07:52.000Z</time>
      </trkpt>
      <trkpt lat="43.61441" lon="5.40924">
        <ele>478.60000610352</ele>
        <time>2019-11-30T14:07:53.000Z</time>
      </trkpt>
      <trkpt lat="43.61442" lon="5.40927">
        <ele>478.79998779297</ele>
        <time>2019-11-30T14:07:54.000Z</time>
      </trkpt>
      <trkpt lat="43.61444" lon="5.40931">
        <ele>478.79998779297</ele>
        <time>2019-11-30T14:07:55.000Z</time>
      </trkpt>
      <trkpt lat="43.61445" lon="5.40935">
        <ele>478.79998779297</ele>
        <time>2019-11-30T14:07:56.000Z</time>
      </trkpt>
      <trkpt lat="43.61447" lon="5.40939">
        <ele>478.79998779297</ele>
        <time>2019-11-30T14:07:57.000Z</time>
      </trkpt>
      <trkpt lat="43.61448" lon="5.40944">
        <ele>478.79998779297</ele>
        <time>2019-11-30T14:07:58.000Z</time>
      </trkpt>
      <trkpt lat="43.6145" lon="5.40949">
        <ele>478.79998779297</ele>
        <time>2019-11-30T14:07:59.000Z</time>
      </trkpt>
      <trkpt lat="43.61452" lon="5.40954">
        <ele>478.79998779297</ele>
        <time>2019-11-30T14:08:00.000Z</time>
      </trkpt>
      <trkpt lat="43.61454" lon="5.40959">
        <ele>478.79998779297</ele>
        <time>2019-11-30T14:08:01.000Z</time>
      </trkpt>
      <trkpt lat="43.61457" lon="5.40964">
        <ele>478.79998779297</ele>
        <time>2019-11-30T14:08:02.000Z</time>
      </trkpt>
      <trkpt lat="43.6146" lon="5.40968">
        <ele>478.79998779297</ele>
        <time>2019-11-30T14:08:03.000Z</time>
      </trkpt>
      <trkpt lat="43.61463" lon="5.4097">
        <ele>478.60000610352</ele>
        <time>2019-11-30T14:08:04.000Z</time>
      </trkpt>
      <trkpt lat="43.61466" lon="5.40971">
        <ele>478.79998779297</ele>
        <time>2019-11-30T14:08:05.000Z</time>
      </trkpt>
      <trkpt lat="43.61468" lon="5.4097">
        <ele>479</ele>
        <time>2019-11-30T14:08:06.000Z</time>
      </trkpt>
      <trkpt lat="43.61471" lon="5.40968">
        <ele>479</ele>
        <time>2019-11-30T14:08:07.000Z</time>
      </trkpt>
      <trkpt lat="43.61473" lon="5.40966">
        <ele>479.20001220703</ele>
        <time>2019-11-30T14:08:08.000Z</time>
      </trkpt>
      <trkpt lat="43.61475" lon="5.40964">
        <ele>479.39999389648</ele>
        <time>2019-11-30T14:08:09.000Z</time>
      </trkpt>
      <trkpt lat="43.61478" lon="5.40962">
        <ele>479.60000610352</ele>
        <time>2019-11-30T14:08:10.000Z</time>
      </trkpt>
      <trkpt lat="43.6148" lon="5.40959">
        <ele>479.60000610352</ele>
        <time>2019-11-30T14:08:11.000Z</time>
      </trkpt>
      <trkpt lat="43.61483" lon="5.40957">
        <ele>479.79998779297</ele>
        <time>2019-11-30T14:08:12.000Z</time>
      </trkpt>
      <trkpt lat="43.61485" lon="5.40955">
        <ele>479.79998779297</ele>
        <time>2019-11-30T14:08:13.000Z</time>
      </trkpt>
      <trkpt lat="43.61487" lon="5.40953">
        <ele>480</ele>
        <time>2019-11-30T14:08:14.000Z</time>
      </trkpt>
      <trkpt lat="43.61489" lon="5.40951">
        <ele>480.20001220703</ele>
        <time>2019-11-30T14:08:15.000Z</time>
      </trkpt>
      <trkpt lat="43.61491" lon="5.40947">
        <ele>480.20001220703</ele>
        <time>2019-11-30T14:08:16.000Z</time>
      </trkpt>
      <trkpt lat="43.61492" lon="5.40944">
        <ele>480.39999389648</ele>
        <time>2019-11-30T14:08:17.000Z</time>
      </trkpt>
      <trkpt lat="43.61493" lon="5.4094">
        <ele>480.39999389648</ele>
        <time>2019-11-30T14:08:18.000Z</time>
      </trkpt>
      <trkpt lat="43.61494" lon="5.40936">
        <ele>480.60000610352</ele>
        <time>2019-11-30T14:08:19.000Z</time>
      </trkpt>
      <trkpt lat="43.61495" lon="5.40934">
        <ele>481</ele>
        <time>2019-11-30T14:08:20.000Z</time>
      </trkpt>
      <trkpt lat="43.61496" lon="5.40932">
        <ele>481.20001220703</ele>
        <time>2019-11-30T14:08:21.000Z</time>
      </trkpt>
      <trkpt lat="43.61497" lon="5.4093">
        <ele>481.60000610352</ele>
        <time>2019-11-30T14:08:22.000Z</time>
      </trkpt>
      <trkpt lat="43.61499" lon="5.40928">
        <ele>481.79998779297</ele>
        <time>2019-11-30T14:08:23.000Z</time>
      </trkpt>
      <trkpt lat="43.61501" lon="5.40926">
        <ele>482.20001220703</ele>
        <time>2019-11-30T14:08:24.000Z</time>
      </trkpt>
      <trkpt lat="43.61503" lon="5.40924">
        <ele>482.39999389648</ele>
        <time>2019-11-30T14:08:25.000Z</time>
      </trkpt>
      <trkpt lat="43.61506" lon="5.40922">
        <ele>482.79998779297</ele>
        <time>2019-11-30T14:08:26.000Z</time>
      </trkpt>
      <trkpt lat="43.61508" lon="5.40921">
        <ele>483.20001220703</ele>
        <time>2019-11-30T14:08:27.000Z</time>
      </trkpt>
      <trkpt lat="43.6151" lon="5.4092">
        <ele>483.39999389648</ele>
        <time>2019-11-30T14:08:28.000Z</time>
      </trkpt>
      <trkpt lat="43.61513" lon="5.4092">
        <ele>483.60000610352</ele>
        <time>2019-11-30T14:08:29.000Z</time>
      </trkpt>
      <trkpt lat="43.61515" lon="5.4092">
        <ele>483.79998779297</ele>
        <time>2019-11-30T14:08:30.000Z</time>
      </trkpt>
      <trkpt lat="43.61518" lon="5.40918">
        <ele>484.39999389648</ele>
        <time>2019-11-30T14:08:31.000Z</time>
      </trkpt>
      <trkpt lat="43.61521" lon="5.40917">
        <ele>484.39999389648</ele>
        <time>2019-11-30T14:08:32.000Z</time>
      </trkpt>
      <trkpt lat="43.61523" lon="5.40915">
        <ele>484.60000610352</ele>
        <time>2019-11-30T14:08:33.000Z</time>
      </trkpt>
      <trkpt lat="43.61524" lon="5.40913">
        <ele>484.79998779297</ele>
        <time>2019-11-30T14:08:34.000Z</time>
      </trkpt>
      <trkpt lat="43.61526" lon="5.40911">
        <ele>484.79998779297</ele>
        <time>2019-11-30T14:08:35.000Z</time>
      </trkpt>
      <trkpt lat="43.61528" lon="5.40908">
        <ele>485</ele>
        <time>2019-11-30T14:08:36.000Z</time>
      </trkpt>
      <trkpt lat="43.61529" lon="5.40907">
        <ele>485</ele>
        <time>2019-11-30T14:08:37.000Z</time>
      </trkpt>
      <trkpt lat="43.61531" lon="5.40905">
        <ele>485.20001220703</ele>
        <time>2019-11-30T14:08:38.000Z</time>
      </trkpt>
      <trkpt lat="43.61533" lon="5.40903">
        <ele>485.39999389648</ele>
        <time>2019-11-30T14:08:39.000Z</time>
      </trkpt>
      <trkpt lat="43.61535" lon="5.40901">
        <ele>485.39999389648</ele>
        <time>2019-11-30T14:08:40.000Z</time>
      </trkpt>
      <trkpt lat="43.61537" lon="5.40899">
        <ele>485.60000610352</ele>
        <time>2019-11-30T14:08:41.000Z</time>
      </trkpt>
      <trkpt lat="43.61538" lon="5.40898">
        <ele>485.79998779297</ele>
        <time>2019-11-30T14:08:42.000Z</time>
      </trkpt>
      <trkpt lat="43.6154" lon="5.40897">
        <ele>486</ele>
        <time>2019-11-30T14:08:43.000Z</time>
      </trkpt>
      <trkpt lat="43.61542" lon="5.40895">
        <ele>486.20001220703</ele>
        <time>2019-11-30T14:08:44.000Z</time>
      </trkpt>
      <trkpt lat="43.61544" lon="5.40893">
        <ele>486.60000610352</ele>
        <time>2019-11-30T14:08:45.000Z</time>
      </trkpt>
      <trkpt lat="43.61547" lon="5.40892">
        <ele>486.79998779297</ele>
        <time>2019-11-30T14:08:46.000Z</time>
      </trkpt>
      <trkpt lat="43.61549" lon="5.40892">
        <ele>487</ele>
        <time>2019-11-30T14:08:47.000Z</time>
      </trkpt>
      <trkpt lat="43.61552" lon="5.40892">
        <ele>487</ele>
        <time>2019-11-30T14:08:48.000Z</time>
      </trkpt>
      <trkpt lat="43.61554" lon="5.40892">
        <ele>487</ele>
        <time>2019-11-30T14:08:49.000Z</time>
      </trkpt>
      <trkpt lat="43.61556" lon="5.40893">
        <ele>487</ele>
        <time>2019-11-30T14:08:50.000Z</time>
      </trkpt>
      <trkpt lat="43.61558" lon="5.40893">
        <ele>487</ele>
        <time>2019-11-30T14:08:51.000Z</time>
      </trkpt>
      <trkpt lat="43.61561" lon="5.40893">
        <ele>487.20001220703</ele>
        <time>2019-11-30T14:08:52.000Z</time>
      </trkpt>
      <trkpt lat="43.61565" lon="5.40893">
        <ele>487.39999389648</ele>
        <time>2019-11-30T14:08:53.000Z</time>
      </trkpt>
      <trkpt lat="43.61567" lon="5.40892">
        <ele>487.60000610352</ele>
        <time>2019-11-30T14:08:54.000Z</time>
      </trkpt>
      <trkpt lat="43.6157" lon="5.40892">
        <ele>487.60000610352</ele>
        <time>2019-11-30T14:08:55.000Z</time>
      </trkpt>
      <trkpt lat="43.61572" lon="5.40891">
        <ele>487.79998779297</ele>
        <time>2019-11-30T14:08:56.000Z</time>
      </trkpt>
      <trkpt lat="43.61574" lon="5.40891">
        <ele>487.79998779297</ele>
        <time>2019-11-30T14:08:57.000Z</time>
      </trkpt>
      <trkpt lat="43.61576" lon="5.40891">
        <ele>488</ele>
        <time>2019-11-30T14:08:58.000Z</time>
      </trkpt>
      <trkpt lat="43.61579" lon="5.40891">
        <ele>488.20001220703</ele>
        <time>2019-11-30T14:08:59.000Z</time>
      </trkpt>
      <trkpt lat="43.61582" lon="5.4089">
        <ele>488.20001220703</ele>
        <time>2019-11-30T14:09:00.000Z</time>
      </trkpt>
      <trkpt lat="43.61584" lon="5.4089">
        <ele>488.39999389648</ele>
        <time>2019-11-30T14:09:01.000Z</time>
      </trkpt>
      <trkpt lat="43.61587" lon="5.4089">
        <ele>488.39999389648</ele>
        <time>2019-11-30T14:09:02.000Z</time>
      </trkpt>
      <trkpt lat="43.61589" lon="5.40889">
        <ele>488.60000610352</ele>
        <time>2019-11-30T14:09:03.000Z</time>
      </trkpt>
      <trkpt lat="43.61592" lon="5.40889">
        <ele>488.79998779297</ele>
        <time>2019-11-30T14:09:04.000Z</time>
      </trkpt>
      <trkpt lat="43.61594" lon="5.40888">
        <ele>489</ele>
        <time>2019-11-30T14:09:05.000Z</time>
      </trkpt>
      <trkpt lat="43.61597" lon="5.40888">
        <ele>489.20001220703</ele>
        <time>2019-11-30T14:09:06.000Z</time>
      </trkpt>
      <trkpt lat="43.61601" lon="5.40887">
        <ele>489.39999389648</ele>
        <time>2019-11-30T14:09:07.000Z</time>
      </trkpt>
      <trkpt lat="43.61604" lon="5.40886">
        <ele>489.60000610352</ele>
        <time>2019-11-30T14:09:08.000Z</time>
      </trkpt>
      <trkpt lat="43.61607" lon="5.40885">
        <ele>489.79998779297</ele>
        <time>2019-11-30T14:09:09.000Z</time>
      </trkpt>
      <trkpt lat="43.61608" lon="5.40884">
        <ele>489.79998779297</ele>
        <time>2019-11-30T14:09:10.000Z</time>
      </trkpt>
      <trkpt lat="43.6161" lon="5.40883">
        <ele>489.79998779297</ele>
        <time>2019-11-30T14:09:11.000Z</time>
      </trkpt>
      <trkpt lat="43.61612" lon="5.40882">
        <ele>489.79998779297</ele>
        <time>2019-11-30T14:09:12.000Z</time>
      </trkpt>
      <trkpt lat="43.61613" lon="5.4088">
        <ele>490</ele>
        <time>2019-11-30T14:09:13.000Z</time>
      </trkpt>
      <trkpt lat="43.61615" lon="5.40878">
        <ele>490</ele>
        <time>2019-11-30T14:09:14.000Z</time>
      </trkpt>
      <trkpt lat="43.61618" lon="5.40877">
        <ele>490</ele>
        <time>2019-11-30T14:09:15.000Z</time>
      </trkpt>
      <trkpt lat="43.6162" lon="5.40876">
        <ele>490</ele>
        <time>2019-11-30T14:09:16.000Z</time>
      </trkpt>
      <trkpt lat="43.61623" lon="5.40874">
        <ele>490</ele>
        <time>2019-11-30T14:09:17.000Z</time>
      </trkpt>
      <trkpt lat="43.61626" lon="5.40872">
        <ele>490</ele>
        <time>2019-11-30T14:09:18.000Z</time>
      </trkpt>
      <trkpt lat="43.61629" lon="5.4087">
        <ele>490.20001220703</ele>
        <time>2019-11-30T14:09:19.000Z</time>
      </trkpt>
      <trkpt lat="43.61632" lon="5.40867">
        <ele>490.20001220703</ele>
        <time>2019-11-30T14:09:20.000Z</time>
      </trkpt>
      <trkpt lat="43.61633" lon="5.40864">
        <ele>490.20001220703</ele>
        <time>2019-11-30T14:09:21.000Z</time>
      </trkpt>
      <trkpt lat="43.61635" lon="5.4086">
        <ele>490.39999389648</ele>
        <time>2019-11-30T14:09:22.000Z</time>
      </trkpt>
      <trkpt lat="43.61637" lon="5.40857">
        <ele>490.39999389648</ele>
        <time>2019-11-30T14:09:23.000Z</time>
      </trkpt>
      <trkpt lat="43.61639" lon="5.40855">
        <ele>490.60000610352</ele>
        <time>2019-11-30T14:09:24.000Z</time>
      </trkpt>
      <trkpt lat="43.61642" lon="5.40852">
        <ele>490.60000610352</ele>
        <time>2019-11-30T14:09:25.000Z</time>
      </trkpt>
      <trkpt lat="43.61644" lon="5.4085">
        <ele>490.60000610352</ele>
        <time>2019-11-30T14:09:26.000Z</time>
      </trkpt>
      <trkpt lat="43.61646" lon="5.40848">
        <ele>490.79998779297</ele>
        <time>2019-11-30T14:09:27.000Z</time>
      </trkpt>
      <trkpt lat="43.61648" lon="5.40845">
        <ele>490.79998779297</ele>
        <time>2019-11-30T14:09:28.000Z</time>
      </trkpt>
      <trkpt lat="43.61651" lon="5.40842">
        <ele>491.20001220703</ele>
        <time>2019-11-30T14:09:29.000Z</time>
      </trkpt>
      <trkpt lat="43.61653" lon="5.4084">
        <ele>491.39999389648</ele>
        <time>2019-11-30T14:09:30.000Z</time>
      </trkpt>
      <trkpt lat="43.61655" lon="5.40838">
        <ele>491.79998779297</ele>
        <time>2019-11-30T14:09:31.000Z</time>
      </trkpt>
      <trkpt lat="43.61656" lon="5.40837">
        <ele>492</ele>
        <time>2019-11-30T14:09:32.000Z</time>
      </trkpt>
      <trkpt lat="43.61656" lon="5.40835">
        <ele>492</ele>
        <time>2019-11-30T14:09:33.000Z</time>
      </trkpt>
      <trkpt lat="43.61657" lon="5.40832">
        <ele>492.39999389648</ele>
        <time>2019-11-30T14:09:34.000Z</time>
      </trkpt>
      <trkpt lat="43.6166" lon="5.40829">
        <ele>492.79998779297</ele>
        <time>2019-11-30T14:09:35.000Z</time>
      </trkpt>
      <trkpt lat="43.61661" lon="5.40826">
        <ele>493.20001220703</ele>
        <time>2019-11-30T14:09:36.000Z</time>
      </trkpt>
      <trkpt lat="43.61663" lon="5.40823">
        <ele>493.60000610352</ele>
        <time>2019-11-30T14:09:37.000Z</time>
      </trkpt>
      <trkpt lat="43.61665" lon="5.40819">
        <ele>494</ele>
        <time>2019-11-30T14:09:38.000Z</time>
      </trkpt>
      <trkpt lat="43.61665" lon="5.40816">
        <ele>494.39999389648</ele>
        <time>2019-11-30T14:09:39.000Z</time>
      </trkpt>
      <trkpt lat="43.61664" lon="5.40813">
        <ele>494.60000610352</ele>
        <time>2019-11-30T14:09:40.000Z</time>
      </trkpt>
      <trkpt lat="43.61665" lon="5.40809">
        <ele>495</ele>
        <time>2019-11-30T14:09:41.000Z</time>
      </trkpt>
      <trkpt lat="43.61667" lon="5.40805">
        <ele>495.39999389648</ele>
        <time>2019-11-30T14:09:42.000Z</time>
      </trkpt>
      <trkpt lat="43.61669" lon="5.40801">
        <ele>496</ele>
        <time>2019-11-30T14:09:43.000Z</time>
      </trkpt>
      <trkpt lat="43.6167" lon="5.40798">
        <ele>496.20001220703</ele>
        <time>2019-11-30T14:09:44.000Z</time>
      </trkpt>
      <trkpt lat="43.61672" lon="5.40795">
        <ele>496.39999389648</ele>
        <time>2019-11-30T14:09:45.000Z</time>
      </trkpt>
      <trkpt lat="43.61674" lon="5.40792">
        <ele>496.39999389648</ele>
        <time>2019-11-30T14:09:46.000Z</time>
      </trkpt>
      <trkpt lat="43.61677" lon="5.40791">
        <ele>496.60000610352</ele>
        <time>2019-11-30T14:09:47.000Z</time>
      </trkpt>
      <trkpt lat="43.6168" lon="5.40789">
        <ele>496.79998779297</ele>
        <time>2019-11-30T14:09:48.000Z</time>
      </trkpt>
      <trkpt lat="43.61682" lon="5.40788">
        <ele>496.79998779297</ele>
        <time>2019-11-30T14:09:49.000Z</time>
      </trkpt>
      <trkpt lat="43.61686" lon="5.40784">
        <ele>497</ele>
        <time>2019-11-30T14:09:50.000Z</time>
      </trkpt>
      <trkpt lat="43.61689" lon="5.40782">
        <ele>497</ele>
        <time>2019-11-30T14:09:51.000Z</time>
      </trkpt>
      <trkpt lat="43.61691" lon="5.40779">
        <ele>496.79998779297</ele>
        <time>2019-11-30T14:09:52.000Z</time>
      </trkpt>
      <trkpt lat="43.61693" lon="5.40778">
        <ele>496.79998779297</ele>
        <time>2019-11-30T14:09:53.000Z</time>
      </trkpt>
      <trkpt lat="43.61695" lon="5.40778">
        <ele>496.79998779297</ele>
        <time>2019-11-30T14:09:54.000Z</time>
      </trkpt>
      <trkpt lat="43.61698" lon="5.40778">
        <ele>496.60000610352</ele>
        <time>2019-11-30T14:09:55.000Z</time>
      </trkpt>
      <trkpt lat="43.61701" lon="5.40779">
        <ele>496.60000610352</ele>
        <time>2019-11-30T14:09:56.000Z</time>
      </trkpt>
      <trkpt lat="43.61704" lon="5.4078">
        <ele>496.60000610352</ele>
        <time>2019-11-30T14:09:57.000Z</time>
      </trkpt>
      <trkpt lat="43.61706" lon="5.40782">
        <ele>496.60000610352</ele>
        <time>2019-11-30T14:09:58.000Z</time>
      </trkpt>
      <trkpt lat="43.61709" lon="5.40784">
        <ele>496.39999389648</ele>
        <time>2019-11-30T14:09:59.000Z</time>
      </trkpt>
      <trkpt lat="43.61712" lon="5.40786">
        <ele>496.39999389648</ele>
        <time>2019-11-30T14:10:00.000Z</time>
      </trkpt>
      <trkpt lat="43.61715" lon="5.40788">
        <ele>496.20001220703</ele>
        <time>2019-11-30T14:10:01.000Z</time>
      </trkpt>
      <trkpt lat="43.61718" lon="5.40789">
        <ele>496.20001220703</ele>
        <time>2019-11-30T14:10:02.000Z</time>
      </trkpt>
      <trkpt lat="43.61721" lon="5.40791">
        <ele>496.20001220703</ele>
        <time>2019-11-30T14:10:03.000Z</time>
      </trkpt>
      <trkpt lat="43.61724" lon="5.40793">
        <ele>496</ele>
        <time>2019-11-30T14:10:04.000Z</time>
      </trkpt>
      <trkpt lat="43.61727" lon="5.40795">
        <ele>496</ele>
        <time>2019-11-30T14:10:05.000Z</time>
      </trkpt>
      <trkpt lat="43.61731" lon="5.40797">
        <ele>496</ele>
        <time>2019-11-30T14:10:06.000Z</time>
      </trkpt>
      <trkpt lat="43.61734" lon="5.40797">
        <ele>495.79998779297</ele>
        <time>2019-11-30T14:10:07.000Z</time>
      </trkpt>
      <trkpt lat="43.61737" lon="5.40796">
        <ele>495.79998779297</ele>
        <time>2019-11-30T14:10:08.000Z</time>
      </trkpt>
      <trkpt lat="43.6174" lon="5.40796">
        <ele>495.60000610352</ele>
        <time>2019-11-30T14:10:09.000Z</time>
      </trkpt>
      <trkpt lat="43.61743" lon="5.40796">
        <ele>495.60000610352</ele>
        <time>2019-11-30T14:10:10.000Z</time>
      </trkpt>
      <trkpt lat="43.61746" lon="5.40796">
        <ele>495.60000610352</ele>
        <time>2019-11-30T14:10:11.000Z</time>
      </trkpt>
      <trkpt lat="43.61755" lon="5.40797">
        <ele>495.39999389648</ele>
        <time>2019-11-30T14:10:12.000Z</time>
      </trkpt>
      <trkpt lat="43.61755" lon="5.40798">
        <ele>495.39999389648</ele>
        <time>2019-11-30T14:10:13.000Z</time>
      </trkpt>
      <trkpt lat="43.61755" lon="5.40799">
        <ele>495.39999389648</ele>
        <time>2019-11-30T14:10:14.000Z</time>
      </trkpt>
      <trkpt lat="43.61755" lon="5.40801">
        <ele>495.39999389648</ele>
        <time>2019-11-30T14:10:15.000Z</time>
      </trkpt>
      <trkpt lat="43.61755" lon="5.40801">
        <ele>495.39999389648</ele>
        <time>2019-11-30T14:10:16.000Z</time>
      </trkpt>
      <trkpt lat="43.61755" lon="5.40801">
        <ele>495.39999389648</ele>
        <time>2019-11-30T14:10:17.000Z</time>
      </trkpt>
      <trkpt lat="43.61755" lon="5.40801">
        <ele>495.39999389648</ele>
        <time>2019-11-30T14:10:18.000Z</time>
      </trkpt>
      <trkpt lat="43.61755" lon="5.40801">
        <ele>495.39999389648</ele>
        <time>2019-11-30T14:10:19.000Z</time>
      </trkpt>
      <trkpt lat="43.61755" lon="5.40801">
        <ele>495.39999389648</ele>
        <time>2019-11-30T14:10:20.000Z</time>
      </trkpt>
      <trkpt lat="43.61755" lon="5.40801">
        <ele>495.39999389648</ele>
        <time>2019-11-30T14:10:21.000Z</time>
      </trkpt>
      <trkpt lat="43.61755" lon="5.40801">
        <ele>495.39999389648</ele>
        <time>2019-11-30T14:10:22.000Z</time>
      </trkpt>
      <trkpt lat="43.61755" lon="5.40801">
        <ele>495.39999389648</ele>
        <time>2019-11-30T14:10:23.000Z</time>
      </trkpt>
      <trkpt lat="43.61755" lon="5.40801">
        <ele>495.39999389648</ele>
        <time>2019-11-30T14:10:24.000Z</time>
      </trkpt>
      <trkpt lat="43.61755" lon="5.40801">
        <ele>495.39999389648</ele>
        <time>2019-11-30T14:10:25.000Z</time>
      </trkpt>
      <trkpt lat="43.61755" lon="5.40801">
        <ele>495.39999389648</ele>
        <time>2019-11-30T14:10:26.000Z</time>
      </trkpt>
      <trkpt lat="43.61755" lon="5.40801">
        <ele>495.39999389648</ele>
        <time>2019-11-30T14:10:27.000Z</time>
      </trkpt>
      <trkpt lat="43.61755" lon="5.40801">
        <ele>495.39999389648</ele>
        <time>2019-11-30T14:10:28.000Z</time>
      </trkpt>
      <trkpt lat="43.61755" lon="5.40801">
        <ele>495.39999389648</ele>
        <time>2019-11-30T14:10:29.000Z</time>
      </trkpt>
      <trkpt lat="43.61755" lon="5.40801">
        <ele>495.39999389648</ele>
        <time>2019-11-30T14:10:30.000Z</time>
      </trkpt>
      <trkpt lat="43.61755" lon="5.40801">
        <ele>495.39999389648</ele>
        <time>2019-11-30T14:10:31.000Z</time>
      </trkpt>
      <trkpt lat="43.61755" lon="5.40801">
        <ele>495.39999389648</ele>
        <time>2019-11-30T14:10:32.000Z</time>
      </trkpt>
      <trkpt lat="43.61755" lon="5.40801">
        <ele>495.39999389648</ele>
        <time>2019-11-30T14:10:33.000Z</time>
      </trkpt>
      <trkpt lat="43.61755" lon="5.40801">
        <ele>495.39999389648</ele>
        <time>2019-11-30T14:10:34.000Z</time>
      </trkpt>
      <trkpt lat="43.61755" lon="5.40801">
        <ele>495.39999389648</ele>
        <time>2019-11-30T14:10:35.000Z</time>
      </trkpt>
      <trkpt lat="43.61755" lon="5.40801">
        <ele>495.39999389648</ele>
        <time>2019-11-30T14:10:36.000Z</time>
      </trkpt>
      <trkpt lat="43.61755" lon="5.40801">
        <ele>495.39999389648</ele>
        <time>2019-11-30T14:10:37.000Z</time>
      </trkpt>
      <trkpt lat="43.61755" lon="5.40801">
        <ele>495.39999389648</ele>
        <time>2019-11-30T14:10:38.000Z</time>
      </trkpt>
      <trkpt lat="43.61755" lon="5.40801">
        <ele>495.39999389648</ele>
        <time>2019-11-30T14:10:39.000Z</time>
      </trkpt>
      <trkpt lat="43.61755" lon="5.40801">
        <ele>495.39999389648</ele>
        <time>2019-11-30T14:10:40.000Z</time>
      </trkpt>
      <trkpt lat="43.61755" lon="5.40801">
        <ele>495.39999389648</ele>
        <time>2019-11-30T14:10:41.000Z</time>
      </trkpt>
      <trkpt lat="43.61755" lon="5.40801">
        <ele>495.39999389648</ele>
        <time>2019-11-30T14:10:42.000Z</time>
      </trkpt>
      <trkpt lat="43.61755" lon="5.40801">
        <ele>495.39999389648</ele>
        <time>2019-11-30T14:10:43.000Z</time>
      </trkpt>
      <trkpt lat="43.61755" lon="5.40801">
        <ele>495.39999389648</ele>
        <time>2019-11-30T14:10:44.000Z</time>
      </trkpt>
      <trkpt lat="43.61755" lon="5.40801">
        <ele>495.39999389648</ele>
        <time>2019-11-30T14:10:45.000Z</time>
      </trkpt>
      <trkpt lat="43.61755" lon="5.40801">
        <ele>495.39999389648</ele>
        <time>2019-11-30T14:10:46.000Z</time>
      </trkpt>
      <trkpt lat="43.61755" lon="5.40801">
        <ele>495.39999389648</ele>
        <time>2019-11-30T14:10:47.000Z</time>
      </trkpt>
      <trkpt lat="43.61755" lon="5.40801">
        <ele>495.39999389648</ele>
        <time>2019-11-30T14:10:48.000Z</time>
      </trkpt>
      <trkpt lat="43.61755" lon="5.40801">
        <ele>495.39999389648</ele>
        <time>2019-11-30T14:10:49.000Z</time>
      </trkpt>
      <trkpt lat="43.61755" lon="5.40801">
        <ele>495.39999389648</ele>
        <time>2019-11-30T14:10:50.000Z</time>
      </trkpt>
      <trkpt lat="43.61755" lon="5.40801">
        <ele>495.39999389648</ele>
        <time>2019-11-30T14:10:51.000Z</time>
      </trkpt>
      <trkpt lat="43.61755" lon="5.40801">
        <ele>495.39999389648</ele>
        <time>2019-11-30T14:10:52.000Z</time>
      </trkpt>
      <trkpt lat="43.61755" lon="5.40801">
        <ele>495.39999389648</ele>
        <time>2019-11-30T14:10:53.000Z</time>
      </trkpt>
      <trkpt lat="43.61755" lon="5.40801">
        <ele>495.39999389648</ele>
        <time>2019-11-30T14:10:54.000Z</time>
      </trkpt>
      <trkpt lat="43.61755" lon="5.40801">
        <ele>495.39999389648</ele>
        <time>2019-11-30T14:10:55.000Z</time>
      </trkpt>
      <trkpt lat="43.61755" lon="5.40801">
        <ele>495.39999389648</ele>
        <time>2019-11-30T14:10:56.000Z</time>
      </trkpt>
      <trkpt lat="43.61755" lon="5.40801">
        <ele>495.39999389648</ele>
        <time>2019-11-30T14:10:57.000Z</time>
      </trkpt>
      <trkpt lat="43.61755" lon="5.40801">
        <ele>495.39999389648</ele>
        <time>2019-11-30T14:10:58.000Z</time>
      </trkpt>
      <trkpt lat="43.61755" lon="5.40801">
        <ele>495.39999389648</ele>
        <time>2019-11-30T14:10:59.000Z</time>
      </trkpt>
      <trkpt lat="43.61755" lon="5.40801">
        <ele>495.39999389648</ele>
        <time>2019-11-30T14:11:00.000Z</time>
      </trkpt>
      <trkpt lat="43.61755" lon="5.40801">
        <ele>495.39999389648</ele>
        <time>2019-11-30T14:11:01.000Z</time>
      </trkpt>
      <trkpt lat="43.61755" lon="5.40801">
        <ele>495.39999389648</ele>
        <time>2019-11-30T14:11:02.000Z</time>
      </trkpt>
      <trkpt lat="43.61755" lon="5.40801">
        <ele>495.39999389648</ele>
        <time>2019-11-30T14:11:03.000Z</time>
      </trkpt>
      <trkpt lat="43.61755" lon="5.40801">
        <ele>495.39999389648</ele>
        <time>2019-11-30T14:11:04.000Z</time>
      </trkpt>
      <trkpt lat="43.61755" lon="5.40801">
        <ele>495.39999389648</ele>
        <time>2019-11-30T14:11:05.000Z</time>
      </trkpt>
      <trkpt lat="43.61755" lon="5.40801">
        <ele>495.39999389648</ele>
        <time>2019-11-30T14:11:06.000Z</time>
      </trkpt>
      <trkpt lat="43.61755" lon="5.40801">
        <ele>495.39999389648</ele>
        <time>2019-11-30T14:11:07.000Z</time>
      </trkpt>
      <trkpt lat="43.61755" lon="5.40801">
        <ele>495.39999389648</ele>
        <time>2019-11-30T14:11:08.000Z</time>
      </trkpt>
      <trkpt lat="43.61755" lon="5.40801">
        <ele>495.39999389648</ele>
        <time>2019-11-30T14:11:09.000Z</time>
      </trkpt>
      <trkpt lat="43.61755" lon="5.40801">
        <ele>495.39999389648</ele>
        <time>2019-11-30T14:11:10.000Z</time>
      </trkpt>
      <trkpt lat="43.61755" lon="5.40801">
        <ele>495.39999389648</ele>
        <time>2019-11-30T14:11:11.000Z</time>
      </trkpt>
      <trkpt lat="43.61755" lon="5.40801">
        <ele>495.39999389648</ele>
        <time>2019-11-30T14:11:12.000Z</time>
      </trkpt>
      <trkpt lat="43.61755" lon="5.40801">
        <ele>495.39999389648</ele>
        <time>2019-11-30T14:11:13.000Z</time>
      </trkpt>
      <trkpt lat="43.61755" lon="5.40801">
        <ele>495.39999389648</ele>
        <time>2019-11-30T14:11:14.000Z</time>
      </trkpt>
      <trkpt lat="43.61755" lon="5.40801">
        <ele>495.39999389648</ele>
        <time>2019-11-30T14:11:15.000Z</time>
      </trkpt>
      <trkpt lat="43.61755" lon="5.40801">
        <ele>495.39999389648</ele>
        <time>2019-11-30T14:11:16.000Z</time>
      </trkpt>
      <trkpt lat="43.61755" lon="5.40801">
        <ele>495.39999389648</ele>
        <time>2019-11-30T14:11:17.000Z</time>
      </trkpt>
      <trkpt lat="43.61755" lon="5.40801">
        <ele>495.39999389648</ele>
        <time>2019-11-30T14:11:18.000Z</time>
      </trkpt>
      <trkpt lat="43.61755" lon="5.40801">
        <ele>495.39999389648</ele>
        <time>2019-11-30T14:11:19.000Z</time>
      </trkpt>
      <trkpt lat="43.61755" lon="5.40801">
        <ele>495.39999389648</ele>
        <time>2019-11-30T14:11:20.000Z</time>
      </trkpt>
      <trkpt lat="43.61755" lon="5.40801">
        <ele>495.39999389648</ele>
        <time>2019-11-30T14:11:21.000Z</time>
      </trkpt>
      <trkpt lat="43.61755" lon="5.40801">
        <ele>495.39999389648</ele>
        <time>2019-11-30T14:11:22.000Z</time>
      </trkpt>
      <trkpt lat="43.61755" lon="5.40801">
        <ele>495.39999389648</ele>
        <time>2019-11-30T14:11:23.000Z</time>
      </trkpt>
      <trkpt lat="43.61755" lon="5.40801">
        <ele>495.39999389648</ele>
        <time>2019-11-30T14:11:24.000Z</time>
      </trkpt>
      <trkpt lat="43.61755" lon="5.40801">
        <ele>495.39999389648</ele>
        <time>2019-11-30T14:11:25.000Z</time>
      </trkpt>
      <trkpt lat="43.61755" lon="5.40801">
        <ele>495.39999389648</ele>
        <time>2019-11-30T14:11:26.000Z</time>
      </trkpt>
      <trkpt lat="43.61755" lon="5.40801">
        <ele>495.39999389648</ele>
        <time>2019-11-30T14:11:27.000Z</time>
      </trkpt>
      <trkpt lat="43.61755" lon="5.40801">
        <ele>495.39999389648</ele>
        <time>2019-11-30T14:11:28.000Z</time>
      </trkpt>
      <trkpt lat="43.61755" lon="5.40801">
        <ele>495.39999389648</ele>
        <time>2019-11-30T14:11:29.000Z</time>
      </trkpt>
      <trkpt lat="43.61755" lon="5.40801">
        <ele>495.39999389648</ele>
        <time>2019-11-30T14:11:30.000Z</time>
      </trkpt>
      <trkpt lat="43.61755" lon="5.40801">
        <ele>495.39999389648</ele>
        <time>2019-11-30T14:11:31.000Z</time>
      </trkpt>
      <trkpt lat="43.61755" lon="5.40801">
        <ele>495.39999389648</ele>
        <time>2019-11-30T14:11:32.000Z</time>
      </trkpt>
      <trkpt lat="43.61755" lon="5.40801">
        <ele>495.39999389648</ele>
        <time>2019-11-30T14:11:33.000Z</time>
      </trkpt>
      <trkpt lat="43.61755" lon="5.40801">
        <ele>495.39999389648</ele>
        <time>2019-11-30T14:11:34.000Z</time>
      </trkpt>
      <trkpt lat="43.61755" lon="5.40801">
        <ele>495.39999389648</ele>
        <time>2019-11-30T14:11:35.000Z</time>
      </trkpt>
      <trkpt lat="43.61755" lon="5.40801">
        <ele>495.39999389648</ele>
        <time>2019-11-30T14:11:36.000Z</time>
      </trkpt>
      <trkpt lat="43.61755" lon="5.40801">
        <ele>495.39999389648</ele>
        <time>2019-11-30T14:11:37.000Z</time>
      </trkpt>
      <trkpt lat="43.61755" lon="5.40801">
        <ele>495.39999389648</ele>
        <time>2019-11-30T14:11:38.000Z</time>
      </trkpt>
      <trkpt lat="43.61755" lon="5.40801">
        <ele>495.39999389648</ele>
        <time>2019-11-30T14:11:39.000Z</time>
      </trkpt>
      <trkpt lat="43.61755" lon="5.40801">
        <ele>495.39999389648</ele>
        <time>2019-11-30T14:11:40.000Z</time>
      </trkpt>
      <trkpt lat="43.61755" lon="5.40801">
        <ele>495.39999389648</ele>
        <time>2019-11-30T14:11:41.000Z</time>
      </trkpt>
      <trkpt lat="43.61755" lon="5.40801">
        <ele>495.39999389648</ele>
        <time>2019-11-30T14:11:42.000Z</time>
      </trkpt>
      <trkpt lat="43.61755" lon="5.40801">
        <ele>495.39999389648</ele>
        <time>2019-11-30T14:11:43.000Z</time>
      </trkpt>
      <trkpt lat="43.61755" lon="5.40801">
        <ele>495.39999389648</ele>
        <time>2019-11-30T14:11:44.000Z</time>
      </trkpt>
      <trkpt lat="43.61755" lon="5.40801">
        <ele>495.39999389648</ele>
        <time>2019-11-30T14:11:45.000Z</time>
      </trkpt>
      <trkpt lat="43.61755" lon="5.40801">
        <ele>495.39999389648</ele>
        <time>2019-11-30T14:11:46.000Z</time>
      </trkpt>
      <trkpt lat="43.61755" lon="5.40801">
        <ele>495.39999389648</ele>
        <time>2019-11-30T14:11:47.000Z</time>
      </trkpt>
      <trkpt lat="43.61755" lon="5.40801">
        <ele>495.39999389648</ele>
        <time>2019-11-30T14:11:48.000Z</time>
      </trkpt>
      <trkpt lat="43.61755" lon="5.40801">
        <ele>495.39999389648</ele>
        <time>2019-11-30T14:11:49.000Z</time>
      </trkpt>
      <trkpt lat="43.61755" lon="5.40801">
        <ele>495.39999389648</ele>
        <time>2019-11-30T14:11:50.000Z</time>
      </trkpt>
      <trkpt lat="43.61755" lon="5.40801">
        <ele>495.39999389648</ele>
        <time>2019-11-30T14:11:51.000Z</time>
      </trkpt>
      <trkpt lat="43.61755" lon="5.40801">
        <ele>495.39999389648</ele>
        <time>2019-11-30T14:11:52.000Z</time>
      </trkpt>
      <trkpt lat="43.61755" lon="5.40801">
        <ele>495.39999389648</ele>
        <time>2019-11-30T14:11:53.000Z</time>
      </trkpt>
      <trkpt lat="43.61755" lon="5.40801">
        <ele>495.39999389648</ele>
        <time>2019-11-30T14:11:54.000Z</time>
      </trkpt>
      <trkpt lat="43.61755" lon="5.40801">
        <ele>495.39999389648</ele>
        <time>2019-11-30T14:11:55.000Z</time>
      </trkpt>
      <trkpt lat="43.61755" lon="5.40801">
        <ele>495.39999389648</ele>
        <time>2019-11-30T14:11:56.000Z</time>
      </trkpt>
      <trkpt lat="43.61755" lon="5.40801">
        <ele>495.39999389648</ele>
        <time>2019-11-30T14:11:57.000Z</time>
      </trkpt>
      <trkpt lat="43.61755" lon="5.40801">
        <ele>495.39999389648</ele>
        <time>2019-11-30T14:11:58.000Z</time>
      </trkpt>
      <trkpt lat="43.61755" lon="5.40801">
        <ele>495.39999389648</ele>
        <time>2019-11-30T14:11:59.000Z</time>
      </trkpt>
      <trkpt lat="43.61755" lon="5.40801">
        <ele>495.39999389648</ele>
        <time>2019-11-30T14:12:00.000Z</time>
      </trkpt>
      <trkpt lat="43.61755" lon="5.40801">
        <ele>495.39999389648</ele>
        <time>2019-11-30T14:12:01.000Z</time>
      </trkpt>
      <trkpt lat="43.61755" lon="5.40801">
        <ele>495.39999389648</ele>
        <time>2019-11-30T14:12:02.000Z</time>
      </trkpt>
      <trkpt lat="43.61755" lon="5.40801">
        <ele>495.39999389648</ele>
        <time>2019-11-30T14:12:03.000Z</time>
      </trkpt>
      <trkpt lat="43.61755" lon="5.40801">
        <ele>495.39999389648</ele>
        <time>2019-11-30T14:12:04.000Z</time>
      </trkpt>
      <trkpt lat="43.61755" lon="5.40801">
        <ele>495.39999389648</ele>
        <time>2019-11-30T14:12:05.000Z</time>
      </trkpt>
      <trkpt lat="43.61755" lon="5.40801">
        <ele>495.39999389648</ele>
        <time>2019-11-30T14:12:06.000Z</time>
      </trkpt>
      <trkpt lat="43.61755" lon="5.40801">
        <ele>495.39999389648</ele>
        <time>2019-11-30T14:12:07.000Z</time>
      </trkpt>
      <trkpt lat="43.61755" lon="5.40801">
        <ele>495.39999389648</ele>
        <time>2019-11-30T14:12:08.000Z</time>
      </trkpt>
      <trkpt lat="43.61755" lon="5.40801">
        <ele>495.39999389648</ele>
        <time>2019-11-30T14:12:09.000Z</time>
      </trkpt>
      <trkpt lat="43.61755" lon="5.40801">
        <ele>495.39999389648</ele>
        <time>2019-11-30T14:12:10.000Z</time>
      </trkpt>
      <trkpt lat="43.61755" lon="5.40801">
        <ele>495.39999389648</ele>
        <time>2019-11-30T14:12:11.000Z</time>
      </trkpt>
      <trkpt lat="43.61755" lon="5.40801">
        <ele>495.39999389648</ele>
        <time>2019-11-30T14:12:12.000Z</time>
      </trkpt>
      <trkpt lat="43.61755" lon="5.40801">
        <ele>495.39999389648</ele>
        <time>2019-11-30T14:12:13.000Z</time>
      </trkpt>
      <trkpt lat="43.61755" lon="5.40801">
        <ele>495.39999389648</ele>
        <time>2019-11-30T14:12:14.000Z</time>
      </trkpt>
      <trkpt lat="43.61755" lon="5.40801">
        <ele>495.39999389648</ele>
        <time>2019-11-30T14:12:15.000Z</time>
      </trkpt>
      <trkpt lat="43.61755" lon="5.40801">
        <ele>495.39999389648</ele>
        <time>2019-11-30T14:12:16.000Z</time>
      </trkpt>
      <trkpt lat="43.61755" lon="5.40801">
        <ele>495.39999389648</ele>
        <time>2019-11-30T14:12:17.000Z</time>
      </trkpt>
      <trkpt lat="43.61755" lon="5.40801">
        <ele>495.39999389648</ele>
        <time>2019-11-30T14:12:18.000Z</time>
      </trkpt>
      <trkpt lat="43.61755" lon="5.40801">
        <ele>495.39999389648</ele>
        <time>2019-11-30T14:12:19.000Z</time>
      </trkpt>
      <trkpt lat="43.61755" lon="5.40801">
        <ele>495.39999389648</ele>
        <time>2019-11-30T14:12:20.000Z</time>
      </trkpt>
      <trkpt lat="43.61755" lon="5.40801">
        <ele>495.39999389648</ele>
        <time>2019-11-30T14:12:21.000Z</time>
      </trkpt>
      <trkpt lat="43.61755" lon="5.40801">
        <ele>495.39999389648</ele>
        <time>2019-11-30T14:12:22.000Z</time>
      </trkpt>
      <trkpt lat="43.61755" lon="5.40801">
        <ele>495.39999389648</ele>
        <time>2019-11-30T14:12:23.000Z</time>
      </trkpt>
      <trkpt lat="43.61755" lon="5.40801">
        <ele>495.39999389648</ele>
        <time>2019-11-30T14:12:24.000Z</time>
      </trkpt>
      <trkpt lat="43.61755" lon="5.40801">
        <ele>495.39999389648</ele>
        <time>2019-11-30T14:12:25.000Z</time>
      </trkpt>
      <trkpt lat="43.61755" lon="5.40801">
        <ele>495.39999389648</ele>
        <time>2019-11-30T14:12:26.000Z</time>
      </trkpt>
      <trkpt lat="43.61755" lon="5.40801">
        <ele>495.39999389648</ele>
        <time>2019-11-30T14:12:27.000Z</time>
      </trkpt>
      <trkpt lat="43.61755" lon="5.40801">
        <ele>495.39999389648</ele>
        <time>2019-11-30T14:12:28.000Z</time>
      </trkpt>
      <trkpt lat="43.61755" lon="5.40801">
        <ele>495.39999389648</ele>
        <time>2019-11-30T14:12:29.000Z</time>
      </trkpt>
      <trkpt lat="43.61755" lon="5.40801">
        <ele>495.39999389648</ele>
        <time>2019-11-30T14:12:30.000Z</time>
      </trkpt>
      <trkpt lat="43.61755" lon="5.40801">
        <ele>495.39999389648</ele>
        <time>2019-11-30T14:12:31.000Z</time>
      </trkpt>
      <trkpt lat="43.61755" lon="5.40801">
        <ele>495.39999389648</ele>
        <time>2019-11-30T14:12:32.000Z</time>
      </trkpt>
      <trkpt lat="43.61755" lon="5.40801">
        <ele>495.39999389648</ele>
        <time>2019-11-30T14:12:33.000Z</time>
      </trkpt>
      <trkpt lat="43.61755" lon="5.40801">
        <ele>495.39999389648</ele>
        <time>2019-11-30T14:12:34.000Z</time>
      </trkpt>
      <trkpt lat="43.61755" lon="5.40801">
        <ele>495.39999389648</ele>
        <time>2019-11-30T14:12:35.000Z</time>
      </trkpt>
      <trkpt lat="43.61755" lon="5.40801">
        <ele>495.39999389648</ele>
        <time>2019-11-30T14:12:36.000Z</time>
      </trkpt>
      <trkpt lat="43.61755" lon="5.40801">
        <ele>495.39999389648</ele>
        <time>2019-11-30T14:12:37.000Z</time>
      </trkpt>
      <trkpt lat="43.61755" lon="5.40801">
        <ele>495.39999389648</ele>
        <time>2019-11-30T14:12:38.000Z</time>
      </trkpt>
      <trkpt lat="43.61755" lon="5.40801">
        <ele>495.39999389648</ele>
        <time>2019-11-30T14:12:39.000Z</time>
      </trkpt>
      <trkpt lat="43.61755" lon="5.40801">
        <ele>495.39999389648</ele>
        <time>2019-11-30T14:12:40.000Z</time>
      </trkpt>
      <trkpt lat="43.61755" lon="5.40801">
        <ele>495.39999389648</ele>
        <time>2019-11-30T14:12:41.000Z</time>
      </trkpt>
      <trkpt lat="43.61755" lon="5.40801">
        <ele>495.39999389648</ele>
        <time>2019-11-30T14:12:42.000Z</time>
      </trkpt>
      <trkpt lat="43.61755" lon="5.40801">
        <ele>495.39999389648</ele>
        <time>2019-11-30T14:12:43.000Z</time>
      </trkpt>
      <trkpt lat="43.61755" lon="5.40801">
        <ele>495.39999389648</ele>
        <time>2019-11-30T14:12:44.000Z</time>
      </trkpt>
      <trkpt lat="43.61755" lon="5.40801">
        <ele>495.39999389648</ele>
        <time>2019-11-30T14:12:45.000Z</time>
      </trkpt>
      <trkpt lat="43.61755" lon="5.40801">
        <ele>495.39999389648</ele>
        <time>2019-11-30T14:12:46.000Z</time>
      </trkpt>
      <trkpt lat="43.61755" lon="5.40801">
        <ele>495.39999389648</ele>
        <time>2019-11-30T14:12:47.000Z</time>
      </trkpt>
      <trkpt lat="43.61755" lon="5.40801">
        <ele>495.39999389648</ele>
        <time>2019-11-30T14:12:48.000Z</time>
      </trkpt>
      <trkpt lat="43.61755" lon="5.40801">
        <ele>495.39999389648</ele>
        <time>2019-11-30T14:12:49.000Z</time>
      </trkpt>
      <trkpt lat="43.61755" lon="5.40801">
        <ele>495.39999389648</ele>
        <time>2019-11-30T14:12:50.000Z</time>
      </trkpt>
      <trkpt lat="43.61755" lon="5.40801">
        <ele>495.39999389648</ele>
        <time>2019-11-30T14:12:51.000Z</time>
      </trkpt>
      <trkpt lat="43.61755" lon="5.40801">
        <ele>495.39999389648</ele>
        <time>2019-11-30T14:12:52.000Z</time>
      </trkpt>
      <trkpt lat="43.61755" lon="5.40801">
        <ele>495.39999389648</ele>
        <time>2019-11-30T14:12:53.000Z</time>
      </trkpt>
      <trkpt lat="43.61755" lon="5.40801">
        <ele>495.39999389648</ele>
        <time>2019-11-30T14:12:54.000Z</time>
      </trkpt>
      <trkpt lat="43.61755" lon="5.40801">
        <ele>495.39999389648</ele>
        <time>2019-11-30T14:12:55.000Z</time>
      </trkpt>
      <trkpt lat="43.61755" lon="5.40801">
        <ele>495.39999389648</ele>
        <time>2019-11-30T14:12:56.000Z</time>
      </trkpt>
      <trkpt lat="43.61755" lon="5.40801">
        <ele>495.39999389648</ele>
        <time>2019-11-30T14:12:57.000Z</time>
      </trkpt>
      <trkpt lat="43.61755" lon="5.40801">
        <ele>495.39999389648</ele>
        <time>2019-11-30T14:12:58.000Z</time>
      </trkpt>
      <trkpt lat="43.61755" lon="5.40801">
        <ele>495.39999389648</ele>
        <time>2019-11-30T14:12:59.000Z</time>
      </trkpt>
      <trkpt lat="43.61755" lon="5.40801">
        <ele>495.39999389648</ele>
        <time>2019-11-30T14:13:00.000Z</time>
      </trkpt>
      <trkpt lat="43.61755" lon="5.40801">
        <ele>495.39999389648</ele>
        <time>2019-11-30T14:13:01.000Z</time>
      </trkpt>
      <trkpt lat="43.61755" lon="5.40801">
        <ele>495.39999389648</ele>
        <time>2019-11-30T14:13:02.000Z</time>
      </trkpt>
      <trkpt lat="43.61755" lon="5.40801">
        <ele>495.39999389648</ele>
        <time>2019-11-30T14:13:03.000Z</time>
      </trkpt>
      <trkpt lat="43.61755" lon="5.40801">
        <ele>495.39999389648</ele>
        <time>2019-11-30T14:13:04.000Z</time>
      </trkpt>
      <trkpt lat="43.61755" lon="5.40801">
        <ele>495.39999389648</ele>
        <time>2019-11-30T14:13:05.000Z</time>
      </trkpt>
      <trkpt lat="43.61755" lon="5.40801">
        <ele>495.39999389648</ele>
        <time>2019-11-30T14:13:06.000Z</time>
      </trkpt>
      <trkpt lat="43.61755" lon="5.40801">
        <ele>495.39999389648</ele>
        <time>2019-11-30T14:13:07.000Z</time>
      </trkpt>
      <trkpt lat="43.61755" lon="5.40801">
        <ele>495.39999389648</ele>
        <time>2019-11-30T14:13:08.000Z</time>
      </trkpt>
      <trkpt lat="43.61755" lon="5.40801">
        <ele>495.39999389648</ele>
        <time>2019-11-30T14:13:09.000Z</time>
      </trkpt>
      <trkpt lat="43.61755" lon="5.40801">
        <ele>495.39999389648</ele>
        <time>2019-11-30T14:13:10.000Z</time>
      </trkpt>
      <trkpt lat="43.61755" lon="5.40801">
        <ele>495.39999389648</ele>
        <time>2019-11-30T14:13:11.000Z</time>
      </trkpt>
      <trkpt lat="43.61755" lon="5.40801">
        <ele>495.39999389648</ele>
        <time>2019-11-30T14:13:12.000Z</time>
      </trkpt>
      <trkpt lat="43.61755" lon="5.40801">
        <ele>495.39999389648</ele>
        <time>2019-11-30T14:13:13.000Z</time>
      </trkpt>
      <trkpt lat="43.61755" lon="5.40801">
        <ele>495.39999389648</ele>
        <time>2019-11-30T14:13:14.000Z</time>
      </trkpt>
      <trkpt lat="43.61755" lon="5.40801">
        <ele>495.39999389648</ele>
        <time>2019-11-30T14:13:15.000Z</time>
      </trkpt>
      <trkpt lat="43.61755" lon="5.40801">
        <ele>495.39999389648</ele>
        <time>2019-11-30T14:13:16.000Z</time>
      </trkpt>
      <trkpt lat="43.61755" lon="5.40801">
        <ele>495.39999389648</ele>
        <time>2019-11-30T14:13:17.000Z</time>
      </trkpt>
      <trkpt lat="43.61755" lon="5.40801">
        <ele>495.39999389648</ele>
        <time>2019-11-30T14:13:18.000Z</time>
      </trkpt>
      <trkpt lat="43.61755" lon="5.40801">
        <ele>495.39999389648</ele>
        <time>2019-11-30T14:13:19.000Z</time>
      </trkpt>
      <trkpt lat="43.61755" lon="5.40801">
        <ele>495.39999389648</ele>
        <time>2019-11-30T14:13:20.000Z</time>
      </trkpt>
      <trkpt lat="43.61755" lon="5.40801">
        <ele>495.39999389648</ele>
        <time>2019-11-30T14:13:21.000Z</time>
      </trkpt>
      <trkpt lat="43.61755" lon="5.40801">
        <ele>495.39999389648</ele>
        <time>2019-11-30T14:13:22.000Z</time>
      </trkpt>
      <trkpt lat="43.61755" lon="5.40801">
        <ele>495.39999389648</ele>
        <time>2019-11-30T14:13:23.000Z</time>
      </trkpt>
      <trkpt lat="43.61755" lon="5.40801">
        <ele>495.39999389648</ele>
        <time>2019-11-30T14:13:24.000Z</time>
      </trkpt>
      <trkpt lat="43.61755" lon="5.40801">
        <ele>495.39999389648</ele>
        <time>2019-11-30T14:13:25.000Z</time>
      </trkpt>
      <trkpt lat="43.61755" lon="5.40801">
        <ele>495.39999389648</ele>
        <time>2019-11-30T14:13:26.000Z</time>
      </trkpt>
      <trkpt lat="43.61755" lon="5.40801">
        <ele>495.39999389648</ele>
        <time>2019-11-30T14:13:27.000Z</time>
      </trkpt>
      <trkpt lat="43.61755" lon="5.40801">
        <ele>495.39999389648</ele>
        <time>2019-11-30T14:13:28.000Z</time>
      </trkpt>
      <trkpt lat="43.61755" lon="5.40801">
        <ele>495.39999389648</ele>
        <time>2019-11-30T14:13:29.000Z</time>
      </trkpt>
      <trkpt lat="43.61755" lon="5.40801">
        <ele>495.39999389648</ele>
        <time>2019-11-30T14:13:30.000Z</time>
      </trkpt>
      <trkpt lat="43.61755" lon="5.40801">
        <ele>495.39999389648</ele>
        <time>2019-11-30T14:13:31.000Z</time>
      </trkpt>
      <trkpt lat="43.61755" lon="5.40801">
        <ele>495.39999389648</ele>
        <time>2019-11-30T14:13:32.000Z</time>
      </trkpt>
      <trkpt lat="43.61755" lon="5.40801">
        <ele>495.39999389648</ele>
        <time>2019-11-30T14:13:33.000Z</time>
      </trkpt>
      <trkpt lat="43.61755" lon="5.40801">
        <ele>495.39999389648</ele>
        <time>2019-11-30T14:13:34.000Z</time>
      </trkpt>
      <trkpt lat="43.61755" lon="5.40801">
        <ele>495.39999389648</ele>
        <time>2019-11-30T14:13:35.000Z</time>
      </trkpt>
      <trkpt lat="43.61755" lon="5.40801">
        <ele>495.39999389648</ele>
        <time>2019-11-30T14:13:36.000Z</time>
      </trkpt>
      <trkpt lat="43.61755" lon="5.40801">
        <ele>495.39999389648</ele>
        <time>2019-11-30T14:13:37.000Z</time>
      </trkpt>
      <trkpt lat="43.61755" lon="5.40801">
        <ele>495.39999389648</ele>
        <time>2019-11-30T14:13:38.000Z</time>
      </trkpt>
      <trkpt lat="43.61755" lon="5.40801">
        <ele>495.39999389648</ele>
        <time>2019-11-30T14:13:39.000Z</time>
      </trkpt>
      <trkpt lat="43.61755" lon="5.40801">
        <ele>495.39999389648</ele>
        <time>2019-11-30T14:13:40.000Z</time>
      </trkpt>
      <trkpt lat="43.61755" lon="5.40801">
        <ele>495.39999389648</ele>
        <time>2019-11-30T14:13:41.000Z</time>
      </trkpt>
      <trkpt lat="43.61755" lon="5.40801">
        <ele>495.39999389648</ele>
        <time>2019-11-30T14:13:42.000Z</time>
      </trkpt>
      <trkpt lat="43.61755" lon="5.40801">
        <ele>495.39999389648</ele>
        <time>2019-11-30T14:13:43.000Z</time>
      </trkpt>
      <trkpt lat="43.61755" lon="5.40799">
        <ele>495.39999389648</ele>
        <time>2019-11-30T14:13:44.000Z</time>
      </trkpt>
      <trkpt lat="43.61755" lon="5.40799">
        <ele>495.39999389648</ele>
        <time>2019-11-30T14:13:45.000Z</time>
      </trkpt>
      <trkpt lat="43.61755" lon="5.40799">
        <ele>495.39999389648</ele>
        <time>2019-11-30T14:13:46.000Z</time>
      </trkpt>
      <trkpt lat="43.61755" lon="5.40799">
        <ele>495.39999389648</ele>
        <time>2019-11-30T14:13:47.000Z</time>
      </trkpt>
      <trkpt lat="43.61755" lon="5.40799">
        <ele>495.39999389648</ele>
        <time>2019-11-30T14:13:48.000Z</time>
      </trkpt>
      <trkpt lat="43.61755" lon="5.40799">
        <ele>495.39999389648</ele>
        <time>2019-11-30T14:13:49.000Z</time>
      </trkpt>
      <trkpt lat="43.61755" lon="5.40799">
        <ele>495.39999389648</ele>
        <time>2019-11-30T14:13:50.000Z</time>
      </trkpt>
      <trkpt lat="43.61755" lon="5.40799">
        <ele>495.39999389648</ele>
        <time>2019-11-30T14:13:51.000Z</time>
      </trkpt>
      <trkpt lat="43.61755" lon="5.40799">
        <ele>495.39999389648</ele>
        <time>2019-11-30T14:13:52.000Z</time>
      </trkpt>
      <trkpt lat="43.61755" lon="5.40799">
        <ele>495.39999389648</ele>
        <time>2019-11-30T14:13:53.000Z</time>
      </trkpt>
      <trkpt lat="43.61755" lon="5.40799">
        <ele>495.39999389648</ele>
        <time>2019-11-30T14:13:54.000Z</time>
      </trkpt>
      <trkpt lat="43.61755" lon="5.40799">
        <ele>495.39999389648</ele>
        <time>2019-11-30T14:13:55.000Z</time>
      </trkpt>
      <trkpt lat="43.61755" lon="5.40799">
        <ele>495.39999389648</ele>
        <time>2019-11-30T14:13:56.000Z</time>
      </trkpt>
      <trkpt lat="43.61755" lon="5.40799">
        <ele>495.39999389648</ele>
        <time>2019-11-30T14:13:57.000Z</time>
      </trkpt>
      <trkpt lat="43.61755" lon="5.40799">
        <ele>495.39999389648</ele>
        <time>2019-11-30T14:13:58.000Z</time>
      </trkpt>
      <trkpt lat="43.61755" lon="5.40799">
        <ele>495.39999389648</ele>
        <time>2019-11-30T14:13:59.000Z</time>
      </trkpt>
      <trkpt lat="43.61755" lon="5.40799">
        <ele>495.39999389648</ele>
        <time>2019-11-30T14:14:00.000Z</time>
      </trkpt>
      <trkpt lat="43.61755" lon="5.40799">
        <ele>495.39999389648</ele>
        <time>2019-11-30T14:14:01.000Z</time>
      </trkpt>
      <trkpt lat="43.61755" lon="5.40799">
        <ele>495.39999389648</ele>
        <time>2019-11-30T14:14:02.000Z</time>
      </trkpt>
      <trkpt lat="43.61755" lon="5.40799">
        <ele>495.39999389648</ele>
        <time>2019-11-30T14:14:03.000Z</time>
      </trkpt>
      <trkpt lat="43.61755" lon="5.40799">
        <ele>495.39999389648</ele>
        <time>2019-11-30T14:14:04.000Z</time>
      </trkpt>
      <trkpt lat="43.61755" lon="5.40799">
        <ele>495.39999389648</ele>
        <time>2019-11-30T14:14:05.000Z</time>
      </trkpt>
      <trkpt lat="43.61755" lon="5.40799">
        <ele>495.39999389648</ele>
        <time>2019-11-30T14:14:06.000Z</time>
      </trkpt>
      <trkpt lat="43.61755" lon="5.40799">
        <ele>495.39999389648</ele>
        <time>2019-11-30T14:14:07.000Z</time>
      </trkpt>
      <trkpt lat="43.61755" lon="5.40799">
        <ele>495.39999389648</ele>
        <time>2019-11-30T14:14:08.000Z</time>
      </trkpt>
      <trkpt lat="43.61755" lon="5.40799">
        <ele>495.39999389648</ele>
        <time>2019-11-30T14:14:09.000Z</time>
      </trkpt>
      <trkpt lat="43.61755" lon="5.40799">
        <ele>495.39999389648</ele>
        <time>2019-11-30T14:14:10.000Z</time>
      </trkpt>
      <trkpt lat="43.61755" lon="5.40799">
        <ele>495.39999389648</ele>
        <time>2019-11-30T14:14:11.000Z</time>
      </trkpt>
      <trkpt lat="43.61755" lon="5.40799">
        <ele>495.39999389648</ele>
        <time>2019-11-30T14:14:12.000Z</time>
      </trkpt>
      <trkpt lat="43.61757" lon="5.40798">
        <ele>495.20001220703</ele>
        <time>2019-11-30T14:14:13.000Z</time>
      </trkpt>
      <trkpt lat="43.61755" lon="5.40798">
        <ele>495.39999389648</ele>
        <time>2019-11-30T14:14:14.000Z</time>
      </trkpt>
      <trkpt lat="43.61755" lon="5.40798">
        <ele>495.39999389648</ele>
        <time>2019-11-30T14:14:15.000Z</time>
      </trkpt>
      <trkpt lat="43.61755" lon="5.40796">
        <ele>495.39999389648</ele>
        <time>2019-11-30T14:14:16.000Z</time>
      </trkpt>
      <trkpt lat="43.61755" lon="5.40794">
        <ele>495.39999389648</ele>
        <time>2019-11-30T14:14:17.000Z</time>
      </trkpt>
      <trkpt lat="43.61756" lon="5.40792">
        <ele>495.39999389648</ele>
        <time>2019-11-30T14:14:18.000Z</time>
      </trkpt>
      <trkpt lat="43.61756" lon="5.40789">
        <ele>495.39999389648</ele>
        <time>2019-11-30T14:14:19.000Z</time>
      </trkpt>
      <trkpt lat="43.61756" lon="5.40787">
        <ele>495.39999389648</ele>
        <time>2019-11-30T14:14:20.000Z</time>
      </trkpt>
      <trkpt lat="43.61756" lon="5.40784">
        <ele>495.39999389648</ele>
        <time>2019-11-30T14:14:21.000Z</time>
      </trkpt>
      <trkpt lat="43.61756" lon="5.4078">
        <ele>495.39999389648</ele>
        <time>2019-11-30T14:14:22.000Z</time>
      </trkpt>
      <trkpt lat="43.61756" lon="5.40777">
        <ele>495.39999389648</ele>
        <time>2019-11-30T14:14:23.000Z</time>
      </trkpt>
      <trkpt lat="43.61756" lon="5.40774">
        <ele>495.39999389648</ele>
        <time>2019-11-30T14:14:24.000Z</time>
      </trkpt>
      <trkpt lat="43.61756" lon="5.40771">
        <ele>495.39999389648</ele>
        <time>2019-11-30T14:14:25.000Z</time>
      </trkpt>
      <trkpt lat="43.61756" lon="5.40768">
        <ele>495.60000610352</ele>
        <time>2019-11-30T14:14:26.000Z</time>
      </trkpt>
      <trkpt lat="43.61756" lon="5.40764">
        <ele>495.60000610352</ele>
        <time>2019-11-30T14:14:27.000Z</time>
      </trkpt>
      <trkpt lat="43.61756" lon="5.4076">
        <ele>495.60000610352</ele>
        <time>2019-11-30T14:14:28.000Z</time>
      </trkpt>
      <trkpt lat="43.61756" lon="5.40756">
        <ele>495.60000610352</ele>
        <time>2019-11-30T14:14:29.000Z</time>
      </trkpt>
      <trkpt lat="43.61756" lon="5.40753">
        <ele>495.79998779297</ele>
        <time>2019-11-30T14:14:30.000Z</time>
      </trkpt>
      <trkpt lat="43.61756" lon="5.40749">
        <ele>495.79998779297</ele>
        <time>2019-11-30T14:14:31.000Z</time>
      </trkpt>
      <trkpt lat="43.61756" lon="5.40745">
        <ele>495.79998779297</ele>
        <time>2019-11-30T14:14:32.000Z</time>
      </trkpt>
      <trkpt lat="43.61756" lon="5.40741">
        <ele>495.79998779297</ele>
        <time>2019-11-30T14:14:33.000Z</time>
      </trkpt>
      <trkpt lat="43.61756" lon="5.40738">
        <ele>495.79998779297</ele>
        <time>2019-11-30T14:14:34.000Z</time>
      </trkpt>
      <trkpt lat="43.61756" lon="5.40734">
        <ele>496</ele>
        <time>2019-11-30T14:14:35.000Z</time>
      </trkpt>
      <trkpt lat="43.61756" lon="5.4073">
        <ele>496</ele>
        <time>2019-11-30T14:14:36.000Z</time>
      </trkpt>
      <trkpt lat="43.61756" lon="5.4073">
        <ele>496</ele>
        <time>2019-11-30T14:14:37.000Z</time>
      </trkpt>
      <trkpt lat="43.61756" lon="5.40723">
        <ele>496</ele>
        <time>2019-11-30T14:14:38.000Z</time>
      </trkpt>
      <trkpt lat="43.61756" lon="5.4072">
        <ele>496</ele>
        <time>2019-11-30T14:14:39.000Z</time>
      </trkpt>
      <trkpt lat="43.61757" lon="5.40716">
        <ele>496.20001220703</ele>
        <time>2019-11-30T14:14:40.000Z</time>
      </trkpt>
      <trkpt lat="43.61757" lon="5.40713">
        <ele>496</ele>
        <time>2019-11-30T14:14:41.000Z</time>
      </trkpt>
      <trkpt lat="43.61757" lon="5.40709">
        <ele>495.79998779297</ele>
        <time>2019-11-30T14:14:42.000Z</time>
      </trkpt>
      <trkpt lat="43.61757" lon="5.40706">
        <ele>495.60000610352</ele>
        <time>2019-11-30T14:14:43.000Z</time>
      </trkpt>
      <trkpt lat="43.61757" lon="5.40702">
        <ele>495.60000610352</ele>
        <time>2019-11-30T14:14:44.000Z</time>
      </trkpt>
      <trkpt lat="43.61757" lon="5.40697">
        <ele>495.60000610352</ele>
        <time>2019-11-30T14:14:45.000Z</time>
      </trkpt>
      <trkpt lat="43.61757" lon="5.40693">
        <ele>495.39999389648</ele>
        <time>2019-11-30T14:14:46.000Z</time>
      </trkpt>
      <trkpt lat="43.61756" lon="5.40688">
        <ele>495.39999389648</ele>
        <time>2019-11-30T14:14:47.000Z</time>
      </trkpt>
      <trkpt lat="43.61756" lon="5.40683">
        <ele>495.39999389648</ele>
        <time>2019-11-30T14:14:48.000Z</time>
      </trkpt>
      <trkpt lat="43.61755" lon="5.40678">
        <ele>495.20001220703</ele>
        <time>2019-11-30T14:14:49.000Z</time>
      </trkpt>
      <trkpt lat="43.61755" lon="5.40673">
        <ele>495.20001220703</ele>
        <time>2019-11-30T14:14:50.000Z</time>
      </trkpt>
      <trkpt lat="43.61754" lon="5.40668">
        <ele>495</ele>
        <time>2019-11-30T14:14:51.000Z</time>
      </trkpt>
      <trkpt lat="43.61754" lon="5.40662">
        <ele>495</ele>
        <time>2019-11-30T14:14:52.000Z</time>
      </trkpt>
      <trkpt lat="43.61753" lon="5.40657">
        <ele>495</ele>
        <time>2019-11-30T14:14:53.000Z</time>
      </trkpt>
      <trkpt lat="43.61752" lon="5.40652">
        <ele>494.79998779297</ele>
        <time>2019-11-30T14:14:54.000Z</time>
      </trkpt>
      <trkpt lat="43.61752" lon="5.40647">
        <ele>494.79998779297</ele>
        <time>2019-11-30T14:14:55.000Z</time>
      </trkpt>
      <trkpt lat="43.61751" lon="5.40642">
        <ele>494.79998779297</ele>
        <time>2019-11-30T14:14:56.000Z</time>
      </trkpt>
      <trkpt lat="43.61751" lon="5.40637">
        <ele>494.60000610352</ele>
        <time>2019-11-30T14:14:57.000Z</time>
      </trkpt>
      <trkpt lat="43.6175" lon="5.40632">
        <ele>494.60000610352</ele>
        <time>2019-11-30T14:14:58.000Z</time>
      </trkpt>
      <trkpt lat="43.6175" lon="5.40628">
        <ele>494.39999389648</ele>
        <time>2019-11-30T14:14:59.000Z</time>
      </trkpt>
      <trkpt lat="43.61749" lon="5.40623">
        <ele>494.20001220703</ele>
        <time>2019-11-30T14:15:00.000Z</time>
      </trkpt>
      <trkpt lat="43.61749" lon="5.40618">
        <ele>494</ele>
        <time>2019-11-30T14:15:01.000Z</time>
      </trkpt>
      <trkpt lat="43.61748" lon="5.40614">
        <ele>493.79998779297</ele>
        <time>2019-11-30T14:15:02.000Z</time>
      </trkpt>
      <trkpt lat="43.61748" lon="5.40609">
        <ele>493.79998779297</ele>
        <time>2019-11-30T14:15:03.000Z</time>
      </trkpt>
      <trkpt lat="43.61747" lon="5.40604">
        <ele>493.60000610352</ele>
        <time>2019-11-30T14:15:04.000Z</time>
      </trkpt>
      <trkpt lat="43.61747" lon="5.406">
        <ele>493.60000610352</ele>
        <time>2019-11-30T14:15:05.000Z</time>
      </trkpt>
      <trkpt lat="43.61746" lon="5.40596">
        <ele>493.39999389648</ele>
        <time>2019-11-30T14:15:06.000Z</time>
      </trkpt>
      <trkpt lat="43.61746" lon="5.40592">
        <ele>493.39999389648</ele>
        <time>2019-11-30T14:15:07.000Z</time>
      </trkpt>
      <trkpt lat="43.61745" lon="5.40587">
        <ele>493.39999389648</ele>
        <time>2019-11-30T14:15:08.000Z</time>
      </trkpt>
      <trkpt lat="43.61745" lon="5.40582">
        <ele>493.20001220703</ele>
        <time>2019-11-30T14:15:09.000Z</time>
      </trkpt>
      <trkpt lat="43.61745" lon="5.40573">
        <ele>493.20001220703</ele>
        <time>2019-11-30T14:15:10.000Z</time>
      </trkpt>
      <trkpt lat="43.61746" lon="5.40568">
        <ele>493.20001220703</ele>
        <time>2019-11-30T14:15:11.000Z</time>
      </trkpt>
      <trkpt lat="43.61747" lon="5.40563">
        <ele>493.20001220703</ele>
        <time>2019-11-30T14:15:12.000Z</time>
      </trkpt>
      <trkpt lat="43.61749" lon="5.40558">
        <ele>493.20001220703</ele>
        <time>2019-11-30T14:15:13.000Z</time>
      </trkpt>
      <trkpt lat="43.6175" lon="5.40553">
        <ele>493.20001220703</ele>
        <time>2019-11-30T14:15:14.000Z</time>
      </trkpt>
      <trkpt lat="43.61751" lon="5.40549">
        <ele>493.20001220703</ele>
        <time>2019-11-30T14:15:15.000Z</time>
      </trkpt>
      <trkpt lat="43.61752" lon="5.40544">
        <ele>493.20001220703</ele>
        <time>2019-11-30T14:15:16.000Z</time>
      </trkpt>
      <trkpt lat="43.61753" lon="5.4054">
        <ele>493.20001220703</ele>
        <time>2019-11-30T14:15:17.000Z</time>
      </trkpt>
      <trkpt lat="43.61754" lon="5.40536">
        <ele>493.39999389648</ele>
        <time>2019-11-30T14:15:18.000Z</time>
      </trkpt>
      <trkpt lat="43.61755" lon="5.40532">
        <ele>493.39999389648</ele>
        <time>2019-11-30T14:15:19.000Z</time>
      </trkpt>
      <trkpt lat="43.61756" lon="5.40528">
        <ele>493.39999389648</ele>
        <time>2019-11-30T14:15:20.000Z</time>
      </trkpt>
      <trkpt lat="43.61757" lon="5.40524">
        <ele>493.20001220703</ele>
        <time>2019-11-30T14:15:21.000Z</time>
      </trkpt>
      <trkpt lat="43.61758" lon="5.4052">
        <ele>493.20001220703</ele>
        <time>2019-11-30T14:15:22.000Z</time>
      </trkpt>
      <trkpt lat="43.61759" lon="5.40516">
        <ele>493.20001220703</ele>
        <time>2019-11-30T14:15:23.000Z</time>
      </trkpt>
      <trkpt lat="43.6176" lon="5.40512">
        <ele>493.20001220703</ele>
        <time>2019-11-30T14:15:24.000Z</time>
      </trkpt>
      <trkpt lat="43.61763" lon="5.40505">
        <ele>493.20001220703</ele>
        <time>2019-11-30T14:15:25.000Z</time>
      </trkpt>
      <trkpt lat="43.61765" lon="5.40502">
        <ele>493.39999389648</ele>
        <time>2019-11-30T14:15:26.000Z</time>
      </trkpt>
      <trkpt lat="43.61767" lon="5.40499">
        <ele>493.39999389648</ele>
        <time>2019-11-30T14:15:27.000Z</time>
      </trkpt>
      <trkpt lat="43.61768" lon="5.40496">
        <ele>493.39999389648</ele>
        <time>2019-11-30T14:15:28.000Z</time>
      </trkpt>
      <trkpt lat="43.6177" lon="5.40493">
        <ele>493.39999389648</ele>
        <time>2019-11-30T14:15:29.000Z</time>
      </trkpt>
      <trkpt lat="43.61772" lon="5.4049">
        <ele>493.20001220703</ele>
        <time>2019-11-30T14:15:30.000Z</time>
      </trkpt>
      <trkpt lat="43.61773" lon="5.40487">
        <ele>493.20001220703</ele>
        <time>2019-11-30T14:15:31.000Z</time>
      </trkpt>
      <trkpt lat="43.61775" lon="5.40483">
        <ele>493.20001220703</ele>
        <time>2019-11-30T14:15:32.000Z</time>
      </trkpt>
      <trkpt lat="43.61777" lon="5.4048">
        <ele>493</ele>
        <time>2019-11-30T14:15:33.000Z</time>
      </trkpt>
      <trkpt lat="43.61779" lon="5.40477">
        <ele>493</ele>
        <time>2019-11-30T14:15:34.000Z</time>
      </trkpt>
      <trkpt lat="43.6178" lon="5.40474">
        <ele>493</ele>
        <time>2019-11-30T14:15:35.000Z</time>
      </trkpt>
      <trkpt lat="43.61782" lon="5.40471">
        <ele>493</ele>
        <time>2019-11-30T14:15:36.000Z</time>
      </trkpt>
      <trkpt lat="43.61784" lon="5.40468">
        <ele>493.20001220703</ele>
        <time>2019-11-30T14:15:37.000Z</time>
      </trkpt>
      <trkpt lat="43.61785" lon="5.40465">
        <ele>493.20001220703</ele>
        <time>2019-11-30T14:15:38.000Z</time>
      </trkpt>
      <trkpt lat="43.61787" lon="5.40462">
        <ele>493.39999389648</ele>
        <time>2019-11-30T14:15:39.000Z</time>
      </trkpt>
      <trkpt lat="43.61789" lon="5.40459">
        <ele>493.60000610352</ele>
        <time>2019-11-30T14:15:40.000Z</time>
      </trkpt>
      <trkpt lat="43.61791" lon="5.40456">
        <ele>493.79998779297</ele>
        <time>2019-11-30T14:15:41.000Z</time>
      </trkpt>
      <trkpt lat="43.61792" lon="5.40453">
        <ele>494</ele>
        <time>2019-11-30T14:15:42.000Z</time>
      </trkpt>
      <trkpt lat="43.61794" lon="5.4045">
        <ele>494.20001220703</ele>
        <time>2019-11-30T14:15:43.000Z</time>
      </trkpt>
      <trkpt lat="43.61795" lon="5.40448">
        <ele>494.39999389648</ele>
        <time>2019-11-30T14:15:44.000Z</time>
      </trkpt>
      <trkpt lat="43.61796" lon="5.40446">
        <ele>494.39999389648</ele>
        <time>2019-11-30T14:15:45.000Z</time>
      </trkpt>
      <trkpt lat="43.61797" lon="5.40443">
        <ele>494.60000610352</ele>
        <time>2019-11-30T14:15:46.000Z</time>
      </trkpt>
      <trkpt lat="43.61799" lon="5.40441">
        <ele>494.79998779297</ele>
        <time>2019-11-30T14:15:47.000Z</time>
      </trkpt>
      <trkpt lat="43.618" lon="5.40439">
        <ele>495</ele>
        <time>2019-11-30T14:15:48.000Z</time>
      </trkpt>
      <trkpt lat="43.61802" lon="5.40436">
        <ele>495.20001220703</ele>
        <time>2019-11-30T14:15:49.000Z</time>
      </trkpt>
      <trkpt lat="43.61803" lon="5.40433">
        <ele>495.39999389648</ele>
        <time>2019-11-30T14:15:50.000Z</time>
      </trkpt>
      <trkpt lat="43.61804" lon="5.40431">
        <ele>495.39999389648</ele>
        <time>2019-11-30T14:15:51.000Z</time>
      </trkpt>
      <trkpt lat="43.61806" lon="5.40428">
        <ele>495.60000610352</ele>
        <time>2019-11-30T14:15:52.000Z</time>
      </trkpt>
      <trkpt lat="43.61807" lon="5.40426">
        <ele>495.79998779297</ele>
        <time>2019-11-30T14:15:53.000Z</time>
      </trkpt>
      <trkpt lat="43.61809" lon="5.40423">
        <ele>496</ele>
        <time>2019-11-30T14:15:54.000Z</time>
      </trkpt>
      <trkpt lat="43.6181" lon="5.40421">
        <ele>496.20001220703</ele>
        <time>2019-11-30T14:15:55.000Z</time>
      </trkpt>
      <trkpt lat="43.61811" lon="5.40419">
        <ele>496.20001220703</ele>
        <time>2019-11-30T14:15:56.000Z</time>
      </trkpt>
      <trkpt lat="43.61812" lon="5.40417">
        <ele>496.39999389648</ele>
        <time>2019-11-30T14:15:57.000Z</time>
      </trkpt>
      <trkpt lat="43.61813" lon="5.40416">
        <ele>496.39999389648</ele>
        <time>2019-11-30T14:15:58.000Z</time>
      </trkpt>
      <trkpt lat="43.61814" lon="5.40413">
        <ele>496.39999389648</ele>
        <time>2019-11-30T14:15:59.000Z</time>
      </trkpt>
      <trkpt lat="43.61816" lon="5.40411">
        <ele>496.60000610352</ele>
        <time>2019-11-30T14:16:00.000Z</time>
      </trkpt>
      <trkpt lat="43.61817" lon="5.40408">
        <ele>496.79998779297</ele>
        <time>2019-11-30T14:16:01.000Z</time>
      </trkpt>
      <trkpt lat="43.61818" lon="5.40406">
        <ele>496.79998779297</ele>
        <time>2019-11-30T14:16:02.000Z</time>
      </trkpt>
      <trkpt lat="43.61819" lon="5.40404">
        <ele>497</ele>
        <time>2019-11-30T14:16:03.000Z</time>
      </trkpt>
      <trkpt lat="43.61821" lon="5.40401">
        <ele>497</ele>
        <time>2019-11-30T14:16:04.000Z</time>
      </trkpt>
      <trkpt lat="43.61823" lon="5.40398">
        <ele>497.20001220703</ele>
        <time>2019-11-30T14:16:05.000Z</time>
      </trkpt>
      <trkpt lat="43.61825" lon="5.40394">
        <ele>497.39999389648</ele>
        <time>2019-11-30T14:16:06.000Z</time>
      </trkpt>
      <trkpt lat="43.61862" lon="5.40424">
        <ele>495.79998779297</ele>
        <time>2019-11-30T14:16:07.000Z</time>
      </trkpt>
      <trkpt lat="43.61865" lon="5.40422">
        <ele>496</ele>
        <time>2019-11-30T14:16:08.000Z</time>
      </trkpt>
      <trkpt lat="43.61869" lon="5.4042">
        <ele>496</ele>
        <time>2019-11-30T14:16:09.000Z</time>
      </trkpt>
      <trkpt lat="43.61872" lon="5.40418">
        <ele>496</ele>
        <time>2019-11-30T14:16:10.000Z</time>
      </trkpt>
      <trkpt lat="43.61875" lon="5.40417">
        <ele>496</ele>
        <time>2019-11-30T14:16:11.000Z</time>
      </trkpt>
      <trkpt lat="43.61878" lon="5.40415">
        <ele>496</ele>
        <time>2019-11-30T14:16:12.000Z</time>
      </trkpt>
      <trkpt lat="43.61881" lon="5.40413">
        <ele>496.20001220703</ele>
        <time>2019-11-30T14:16:13.000Z</time>
      </trkpt>
      <trkpt lat="43.61883" lon="5.40412">
        <ele>496.20001220703</ele>
        <time>2019-11-30T14:16:14.000Z</time>
      </trkpt>
      <trkpt lat="43.61886" lon="5.40411">
        <ele>496.20001220703</ele>
        <time>2019-11-30T14:16:15.000Z</time>
      </trkpt>
      <trkpt lat="43.61888" lon="5.4041">
        <ele>496.20001220703</ele>
        <time>2019-11-30T14:16:16.000Z</time>
      </trkpt>
      <trkpt lat="43.61891" lon="5.40408">
        <ele>496.20001220703</ele>
        <time>2019-11-30T14:16:17.000Z</time>
      </trkpt>
      <trkpt lat="43.61893" lon="5.40407">
        <ele>496</ele>
        <time>2019-11-30T14:16:18.000Z</time>
      </trkpt>
      <trkpt lat="43.61896" lon="5.40406">
        <ele>496</ele>
        <time>2019-11-30T14:16:19.000Z</time>
      </trkpt>
      <trkpt lat="43.61898" lon="5.40405">
        <ele>496</ele>
        <time>2019-11-30T14:16:20.000Z</time>
      </trkpt>
      <trkpt lat="43.619" lon="5.40403">
        <ele>496</ele>
        <time>2019-11-30T14:16:21.000Z</time>
      </trkpt>
      <trkpt lat="43.61903" lon="5.40402">
        <ele>496</ele>
        <time>2019-11-30T14:16:22.000Z</time>
      </trkpt>
      <trkpt lat="43.61906" lon="5.404">
        <ele>496</ele>
        <time>2019-11-30T14:16:23.000Z</time>
      </trkpt>
      <trkpt lat="43.61909" lon="5.40398">
        <ele>496</ele>
        <time>2019-11-30T14:16:24.000Z</time>
      </trkpt>
      <trkpt lat="43.61912" lon="5.40396">
        <ele>496</ele>
        <time>2019-11-30T14:16:25.000Z</time>
      </trkpt>
      <trkpt lat="43.61914" lon="5.40394">
        <ele>496</ele>
        <time>2019-11-30T14:16:26.000Z</time>
      </trkpt>
      <trkpt lat="43.61917" lon="5.40393">
        <ele>496</ele>
        <time>2019-11-30T14:16:27.000Z</time>
      </trkpt>
      <trkpt lat="43.6192" lon="5.40392">
        <ele>496</ele>
        <time>2019-11-30T14:16:28.000Z</time>
      </trkpt>
      <trkpt lat="43.61923" lon="5.40392">
        <ele>496</ele>
        <time>2019-11-30T14:16:29.000Z</time>
      </trkpt>
      <trkpt lat="43.61925" lon="5.40392">
        <ele>495.79998779297</ele>
        <time>2019-11-30T14:16:30.000Z</time>
      </trkpt>
      <trkpt lat="43.61928" lon="5.40392">
        <ele>495.79998779297</ele>
        <time>2019-11-30T14:16:31.000Z</time>
      </trkpt>
      <trkpt lat="43.61932" lon="5.40392">
        <ele>495.79998779297</ele>
        <time>2019-11-30T14:16:32.000Z</time>
      </trkpt>
      <trkpt lat="43.61936" lon="5.40393">
        <ele>495.60000610352</ele>
        <time>2019-11-30T14:16:33.000Z</time>
      </trkpt>
      <trkpt lat="43.6194" lon="5.40393">
        <ele>495.60000610352</ele>
        <time>2019-11-30T14:16:34.000Z</time>
      </trkpt>
      <trkpt lat="43.61944" lon="5.40395">
        <ele>495.60000610352</ele>
        <time>2019-11-30T14:16:35.000Z</time>
      </trkpt>
      <trkpt lat="43.61948" lon="5.40397">
        <ele>495.60000610352</ele>
        <time>2019-11-30T14:16:36.000Z</time>
      </trkpt>
      <trkpt lat="43.61952" lon="5.40398">
        <ele>495.60000610352</ele>
        <time>2019-11-30T14:16:37.000Z</time>
      </trkpt>
      <trkpt lat="43.61956" lon="5.40401">
        <ele>495.60000610352</ele>
        <time>2019-11-30T14:16:38.000Z</time>
      </trkpt>
      <trkpt lat="43.6196" lon="5.40403">
        <ele>495.39999389648</ele>
        <time>2019-11-30T14:16:39.000Z</time>
      </trkpt>
      <trkpt lat="43.61963" lon="5.40405">
        <ele>495.39999389648</ele>
        <time>2019-11-30T14:16:40.000Z</time>
      </trkpt>
      <trkpt lat="43.61967" lon="5.40408">
        <ele>495.39999389648</ele>
        <time>2019-11-30T14:16:41.000Z</time>
      </trkpt>
      <trkpt lat="43.61969" lon="5.40411">
        <ele>495.20001220703</ele>
        <time>2019-11-30T14:16:42.000Z</time>
      </trkpt>
      <trkpt lat="43.61973" lon="5.40414">
        <ele>495.20001220703</ele>
        <time>2019-11-30T14:16:43.000Z</time>
      </trkpt>
      <trkpt lat="43.61977" lon="5.40417">
        <ele>495</ele>
        <time>2019-11-30T14:16:44.000Z</time>
      </trkpt>
      <trkpt lat="43.6198" lon="5.4042">
        <ele>495</ele>
        <time>2019-11-30T14:16:45.000Z</time>
      </trkpt>
      <trkpt lat="43.61984" lon="5.40421">
        <ele>495</ele>
        <time>2019-11-30T14:16:46.000Z</time>
      </trkpt>
      <trkpt lat="43.61987" lon="5.40424">
        <ele>494.79998779297</ele>
        <time>2019-11-30T14:16:47.000Z</time>
      </trkpt>
      <trkpt lat="43.6199" lon="5.40426">
        <ele>494.79998779297</ele>
        <time>2019-11-30T14:16:48.000Z</time>
      </trkpt>
      <trkpt lat="43.61994" lon="5.40428">
        <ele>494.79998779297</ele>
        <time>2019-11-30T14:16:49.000Z</time>
      </trkpt>
      <trkpt lat="43.61997" lon="5.4043">
        <ele>494.60000610352</ele>
        <time>2019-11-30T14:16:50.000Z</time>
      </trkpt>
      <trkpt lat="43.61999" lon="5.40431">
        <ele>494.60000610352</ele>
        <time>2019-11-30T14:16:51.000Z</time>
      </trkpt>
      <trkpt lat="43.62002" lon="5.40433">
        <ele>494.60000610352</ele>
        <time>2019-11-30T14:16:52.000Z</time>
      </trkpt>
      <trkpt lat="43.62005" lon="5.40433">
        <ele>494.60000610352</ele>
        <time>2019-11-30T14:16:53.000Z</time>
      </trkpt>
      <trkpt lat="43.62007" lon="5.40432">
        <ele>494.60000610352</ele>
        <time>2019-11-30T14:16:54.000Z</time>
      </trkpt>
      <trkpt lat="43.6201" lon="5.40431">
        <ele>494.60000610352</ele>
        <time>2019-11-30T14:16:55.000Z</time>
      </trkpt>
      <trkpt lat="43.62013" lon="5.40431">
        <ele>494.39999389648</ele>
        <time>2019-11-30T14:16:56.000Z</time>
      </trkpt>
      <trkpt lat="43.62016" lon="5.40429">
        <ele>494.39999389648</ele>
        <time>2019-11-30T14:16:57.000Z</time>
      </trkpt>
      <trkpt lat="43.62019" lon="5.40429">
        <ele>494.39999389648</ele>
        <time>2019-11-30T14:16:58.000Z</time>
      </trkpt>
      <trkpt lat="43.62022" lon="5.40428">
        <ele>494.39999389648</ele>
        <time>2019-11-30T14:16:59.000Z</time>
      </trkpt>
      <trkpt lat="43.62025" lon="5.40429">
        <ele>494.60000610352</ele>
        <time>2019-11-30T14:17:00.000Z</time>
      </trkpt>
      <trkpt lat="43.62029" lon="5.40429">
        <ele>494.60000610352</ele>
        <time>2019-11-30T14:17:01.000Z</time>
      </trkpt>
      <trkpt lat="43.62032" lon="5.40429">
        <ele>494.60000610352</ele>
        <time>2019-11-30T14:17:02.000Z</time>
      </trkpt>
      <trkpt lat="43.62035" lon="5.40429">
        <ele>494.60000610352</ele>
        <time>2019-11-30T14:17:03.000Z</time>
      </trkpt>
      <trkpt lat="43.62038" lon="5.40428">
        <ele>494.60000610352</ele>
        <time>2019-11-30T14:17:04.000Z</time>
      </trkpt>
      <trkpt lat="43.62041" lon="5.40428">
        <ele>494.79998779297</ele>
        <time>2019-11-30T14:17:05.000Z</time>
      </trkpt>
      <trkpt lat="43.62044" lon="5.40427">
        <ele>494.79998779297</ele>
        <time>2019-11-30T14:17:06.000Z</time>
      </trkpt>
      <trkpt lat="43.62047" lon="5.40427">
        <ele>494.79998779297</ele>
        <time>2019-11-30T14:17:07.000Z</time>
      </trkpt>
      <trkpt lat="43.6205" lon="5.40426">
        <ele>494.79998779297</ele>
        <time>2019-11-30T14:17:08.000Z</time>
      </trkpt>
      <trkpt lat="43.62053" lon="5.40425">
        <ele>494.79998779297</ele>
        <time>2019-11-30T14:17:09.000Z</time>
      </trkpt>
      <trkpt lat="43.62056" lon="5.40424">
        <ele>495</ele>
        <time>2019-11-30T14:17:10.000Z</time>
      </trkpt>
      <trkpt lat="43.62059" lon="5.40423">
        <ele>495</ele>
        <time>2019-11-30T14:17:11.000Z</time>
      </trkpt>
      <trkpt lat="43.62062" lon="5.40422">
        <ele>495</ele>
        <time>2019-11-30T14:17:12.000Z</time>
      </trkpt>
      <trkpt lat="43.62065" lon="5.4042">
        <ele>495</ele>
        <time>2019-11-30T14:17:13.000Z</time>
      </trkpt>
      <trkpt lat="43.62067" lon="5.40418">
        <ele>495.20001220703</ele>
        <time>2019-11-30T14:17:14.000Z</time>
      </trkpt>
      <trkpt lat="43.6207" lon="5.40416">
        <ele>495.20001220703</ele>
        <time>2019-11-30T14:17:15.000Z</time>
      </trkpt>
      <trkpt lat="43.62072" lon="5.40414">
        <ele>495.20001220703</ele>
        <time>2019-11-30T14:17:16.000Z</time>
      </trkpt>
      <trkpt lat="43.62073" lon="5.40411">
        <ele>495.39999389648</ele>
        <time>2019-11-30T14:17:17.000Z</time>
      </trkpt>
      <trkpt lat="43.62076" lon="5.40409">
        <ele>495.39999389648</ele>
        <time>2019-11-30T14:17:18.000Z</time>
      </trkpt>
      <trkpt lat="43.62078" lon="5.40409">
        <ele>495.39999389648</ele>
        <time>2019-11-30T14:17:19.000Z</time>
      </trkpt>
      <trkpt lat="43.6208" lon="5.40409">
        <ele>495.39999389648</ele>
        <time>2019-11-30T14:17:20.000Z</time>
      </trkpt>
      <trkpt lat="43.62081" lon="5.40409">
        <ele>495.39999389648</ele>
        <time>2019-11-30T14:17:21.000Z</time>
      </trkpt>
      <trkpt lat="43.62081" lon="5.40409">
        <ele>495.39999389648</ele>
        <time>2019-11-30T14:17:22.000Z</time>
      </trkpt>
      <trkpt lat="43.62081" lon="5.40409">
        <ele>495.39999389648</ele>
        <time>2019-11-30T14:17:23.000Z</time>
      </trkpt>
      <trkpt lat="43.62081" lon="5.40409">
        <ele>495.39999389648</ele>
        <time>2019-11-30T14:17:24.000Z</time>
      </trkpt>
      <trkpt lat="43.62081" lon="5.40409">
        <ele>495.39999389648</ele>
        <time>2019-11-30T14:17:25.000Z</time>
      </trkpt>
      <trkpt lat="43.62081" lon="5.40409">
        <ele>495.39999389648</ele>
        <time>2019-11-30T14:17:26.000Z</time>
      </trkpt>
      <trkpt lat="43.62082" lon="5.40407">
        <ele>495.39999389648</ele>
        <time>2019-11-30T14:17:27.000Z</time>
      </trkpt>
      <trkpt lat="43.62084" lon="5.40406">
        <ele>495.39999389648</ele>
        <time>2019-11-30T14:17:28.000Z</time>
      </trkpt>
      <trkpt lat="43.62086" lon="5.40405">
        <ele>495.60000610352</ele>
        <time>2019-11-30T14:17:29.000Z</time>
      </trkpt>
      <trkpt lat="43.62088" lon="5.40404">
        <ele>495.60000610352</ele>
        <time>2019-11-30T14:17:30.000Z</time>
      </trkpt>
      <trkpt lat="43.6209" lon="5.40403">
        <ele>495.60000610352</ele>
        <time>2019-11-30T14:17:31.000Z</time>
      </trkpt>
      <trkpt lat="43.62091" lon="5.40401">
        <ele>495.60000610352</ele>
        <time>2019-11-30T14:17:32.000Z</time>
      </trkpt>
      <trkpt lat="43.62094" lon="5.40399">
        <ele>495.60000610352</ele>
        <time>2019-11-30T14:17:33.000Z</time>
      </trkpt>
      <trkpt lat="43.62098" lon="5.40396">
        <ele>495.79998779297</ele>
        <time>2019-11-30T14:17:34.000Z</time>
      </trkpt>
      <trkpt lat="43.62102" lon="5.40393">
        <ele>495.79998779297</ele>
        <time>2019-11-30T14:17:35.000Z</time>
      </trkpt>
      <trkpt lat="43.62105" lon="5.4039">
        <ele>495.79998779297</ele>
        <time>2019-11-30T14:17:36.000Z</time>
      </trkpt>
      <trkpt lat="43.62109" lon="5.40386">
        <ele>495.60000610352</ele>
        <time>2019-11-30T14:17:37.000Z</time>
      </trkpt>
      <trkpt lat="43.62113" lon="5.40382">
        <ele>495.20001220703</ele>
        <time>2019-11-30T14:17:38.000Z</time>
      </trkpt>
      <trkpt lat="43.62116" lon="5.40377">
        <ele>495</ele>
        <time>2019-11-30T14:17:39.000Z</time>
      </trkpt>
      <trkpt lat="43.6212" lon="5.40373">
        <ele>494.79998779297</ele>
        <time>2019-11-30T14:17:40.000Z</time>
      </trkpt>
      <trkpt lat="43.62123" lon="5.40369">
        <ele>494.39999389648</ele>
        <time>2019-11-30T14:17:41.000Z</time>
      </trkpt>
      <trkpt lat="43.62127" lon="5.40365">
        <ele>494.20001220703</ele>
        <time>2019-11-30T14:17:42.000Z</time>
      </trkpt>
      <trkpt lat="43.62131" lon="5.40362">
        <ele>494</ele>
        <time>2019-11-30T14:17:43.000Z</time>
      </trkpt>
      <trkpt lat="43.62134" lon="5.40358">
        <ele>493.60000610352</ele>
        <time>2019-11-30T14:17:44.000Z</time>
      </trkpt>
      <trkpt lat="43.62138" lon="5.40354">
        <ele>493.39999389648</ele>
        <time>2019-11-30T14:17:45.000Z</time>
      </trkpt>
      <trkpt lat="43.62142" lon="5.4035">
        <ele>493.20001220703</ele>
        <time>2019-11-30T14:17:46.000Z</time>
      </trkpt>
      <trkpt lat="43.62146" lon="5.40347">
        <ele>492.79998779297</ele>
        <time>2019-11-30T14:17:47.000Z</time>
      </trkpt>
      <trkpt lat="43.62149" lon="5.40343">
        <ele>492.79998779297</ele>
        <time>2019-11-30T14:17:48.000Z</time>
      </trkpt>
      <trkpt lat="43.62152" lon="5.40339">
        <ele>492.79998779297</ele>
        <time>2019-11-30T14:17:49.000Z</time>
      </trkpt>
      <trkpt lat="43.62155" lon="5.40336">
        <ele>492.79998779297</ele>
        <time>2019-11-30T14:17:50.000Z</time>
      </trkpt>
      <trkpt lat="43.62158" lon="5.40333">
        <ele>492.79998779297</ele>
        <time>2019-11-30T14:17:51.000Z</time>
      </trkpt>
      <trkpt lat="43.62161" lon="5.4033">
        <ele>492.79998779297</ele>
        <time>2019-11-30T14:17:52.000Z</time>
      </trkpt>
      <trkpt lat="43.62165" lon="5.40328">
        <ele>492.60000610352</ele>
        <time>2019-11-30T14:17:53.000Z</time>
      </trkpt>
      <trkpt lat="43.62169" lon="5.40326">
        <ele>492.60000610352</ele>
        <time>2019-11-30T14:17:54.000Z</time>
      </trkpt>
      <trkpt lat="43.62173" lon="5.40325">
        <ele>492.39999389648</ele>
        <time>2019-11-30T14:17:55.000Z</time>
      </trkpt>
      <trkpt lat="43.62177" lon="5.40326">
        <ele>492.39999389648</ele>
        <time>2019-11-30T14:17:56.000Z</time>
      </trkpt>
      <trkpt lat="43.62181" lon="5.40327">
        <ele>492.20001220703</ele>
        <time>2019-11-30T14:17:57.000Z</time>
      </trkpt>
      <trkpt lat="43.62185" lon="5.40329">
        <ele>492</ele>
        <time>2019-11-30T14:17:58.000Z</time>
      </trkpt>
      <trkpt lat="43.62188" lon="5.40331">
        <ele>491.60000610352</ele>
        <time>2019-11-30T14:17:59.000Z</time>
      </trkpt>
      <trkpt lat="43.62192" lon="5.40332">
        <ele>491</ele>
        <time>2019-11-30T14:18:00.000Z</time>
      </trkpt>
      <trkpt lat="43.62196" lon="5.40333">
        <ele>490.60000610352</ele>
        <time>2019-11-30T14:18:01.000Z</time>
      </trkpt>
      <trkpt lat="43.622" lon="5.40333">
        <ele>490.20001220703</ele>
        <time>2019-11-30T14:18:02.000Z</time>
      </trkpt>
      <trkpt lat="43.62204" lon="5.40331">
        <ele>489.79998779297</ele>
        <time>2019-11-30T14:18:03.000Z</time>
      </trkpt>
      <trkpt lat="43.62208" lon="5.40329">
        <ele>489.39999389648</ele>
        <time>2019-11-30T14:18:04.000Z</time>
      </trkpt>
      <trkpt lat="43.62212" lon="5.40328">
        <ele>489</ele>
        <time>2019-11-30T14:18:05.000Z</time>
      </trkpt>
      <trkpt lat="43.62216" lon="5.40327">
        <ele>488.79998779297</ele>
        <time>2019-11-30T14:18:06.000Z</time>
      </trkpt>
      <trkpt lat="43.6222" lon="5.40325">
        <ele>488.79998779297</ele>
        <time>2019-11-30T14:18:07.000Z</time>
      </trkpt>
      <trkpt lat="43.62224" lon="5.40322">
        <ele>488.60000610352</ele>
        <time>2019-11-30T14:18:08.000Z</time>
      </trkpt>
      <trkpt lat="43.62228" lon="5.40319">
        <ele>488.79998779297</ele>
        <time>2019-11-30T14:18:09.000Z</time>
      </trkpt>
      <trkpt lat="43.62232" lon="5.40316">
        <ele>488.79998779297</ele>
        <time>2019-11-30T14:18:10.000Z</time>
      </trkpt>
      <trkpt lat="43.62235" lon="5.40313">
        <ele>488.79998779297</ele>
        <time>2019-11-30T14:18:11.000Z</time>
      </trkpt>
      <trkpt lat="43.62239" lon="5.4031">
        <ele>488.79998779297</ele>
        <time>2019-11-30T14:18:12.000Z</time>
      </trkpt>
      <trkpt lat="43.62243" lon="5.40307">
        <ele>488.79998779297</ele>
        <time>2019-11-30T14:18:13.000Z</time>
      </trkpt>
      <trkpt lat="43.62247" lon="5.40304">
        <ele>488.79998779297</ele>
        <time>2019-11-30T14:18:14.000Z</time>
      </trkpt>
      <trkpt lat="43.62252" lon="5.40301">
        <ele>488.79998779297</ele>
        <time>2019-11-30T14:18:15.000Z</time>
      </trkpt>
      <trkpt lat="43.62255" lon="5.40299">
        <ele>488.79998779297</ele>
        <time>2019-11-30T14:18:16.000Z</time>
      </trkpt>
      <trkpt lat="43.6226" lon="5.40297">
        <ele>488.60000610352</ele>
        <time>2019-11-30T14:18:17.000Z</time>
      </trkpt>
      <trkpt lat="43.62264" lon="5.40295">
        <ele>488.60000610352</ele>
        <time>2019-11-30T14:18:18.000Z</time>
      </trkpt>
      <trkpt lat="43.62269" lon="5.40292">
        <ele>488.39999389648</ele>
        <time>2019-11-30T14:18:19.000Z</time>
      </trkpt>
      <trkpt lat="43.62274" lon="5.40289">
        <ele>487.60000610352</ele>
        <time>2019-11-30T14:18:20.000Z</time>
      </trkpt>
      <trkpt lat="43.62278" lon="5.40286">
        <ele>487</ele>
        <time>2019-11-30T14:18:21.000Z</time>
      </trkpt>
      <trkpt lat="43.62282" lon="5.40283">
        <ele>486.39999389648</ele>
        <time>2019-11-30T14:18:22.000Z</time>
      </trkpt>
      <trkpt lat="43.62287" lon="5.40279">
        <ele>485.79998779297</ele>
        <time>2019-11-30T14:18:23.000Z</time>
      </trkpt>
      <trkpt lat="43.62292" lon="5.40275">
        <ele>485</ele>
        <time>2019-11-30T14:18:24.000Z</time>
      </trkpt>
      <trkpt lat="43.62297" lon="5.40272">
        <ele>484.20001220703</ele>
        <time>2019-11-30T14:18:25.000Z</time>
      </trkpt>
      <trkpt lat="43.62303" lon="5.40269">
        <ele>483.39999389648</ele>
        <time>2019-11-30T14:18:26.000Z</time>
      </trkpt>
      <trkpt lat="43.62308" lon="5.40265">
        <ele>482.39999389648</ele>
        <time>2019-11-30T14:18:27.000Z</time>
      </trkpt>
      <trkpt lat="43.62313" lon="5.40261">
        <ele>481.79998779297</ele>
        <time>2019-11-30T14:18:28.000Z</time>
      </trkpt>
      <trkpt lat="43.62318" lon="5.40257">
        <ele>481.20001220703</ele>
        <time>2019-11-30T14:18:29.000Z</time>
      </trkpt>
      <trkpt lat="43.62323" lon="5.40253">
        <ele>480.79998779297</ele>
        <time>2019-11-30T14:18:30.000Z</time>
      </trkpt>
      <trkpt lat="43.62328" lon="5.40248">
        <ele>480.60000610352</ele>
        <time>2019-11-30T14:18:31.000Z</time>
      </trkpt>
      <trkpt lat="43.62333" lon="5.40244">
        <ele>480.20001220703</ele>
        <time>2019-11-30T14:18:32.000Z</time>
      </trkpt>
      <trkpt lat="43.62339" lon="5.4024">
        <ele>479.60000610352</ele>
        <time>2019-11-30T14:18:33.000Z</time>
      </trkpt>
      <trkpt lat="43.62344" lon="5.40236">
        <ele>479.20001220703</ele>
        <time>2019-11-30T14:18:34.000Z</time>
      </trkpt>
      <trkpt lat="43.62349" lon="5.40231">
        <ele>479</ele>
        <time>2019-11-30T14:18:35.000Z</time>
      </trkpt>
      <trkpt lat="43.62354" lon="5.40225">
        <ele>478.79998779297</ele>
        <time>2019-11-30T14:18:36.000Z</time>
      </trkpt>
      <trkpt lat="43.62358" lon="5.40219">
        <ele>478.39999389648</ele>
        <time>2019-11-30T14:18:37.000Z</time>
      </trkpt>
      <trkpt lat="43.62364" lon="5.40214">
        <ele>477.60000610352</ele>
        <time>2019-11-30T14:18:38.000Z</time>
      </trkpt>
      <trkpt lat="43.62369" lon="5.40209">
        <ele>477</ele>
        <time>2019-11-30T14:18:39.000Z</time>
      </trkpt>
      <trkpt lat="43.62375" lon="5.40204">
        <ele>476</ele>
        <time>2019-11-30T14:18:40.000Z</time>
      </trkpt>
      <trkpt lat="43.62381" lon="5.402">
        <ele>475</ele>
        <time>2019-11-30T14:18:41.000Z</time>
      </trkpt>
      <trkpt lat="43.62387" lon="5.40195">
        <ele>474.20001220703</ele>
        <time>2019-11-30T14:18:42.000Z</time>
      </trkpt>
      <trkpt lat="43.62393" lon="5.40189">
        <ele>473.20001220703</ele>
        <time>2019-11-30T14:18:43.000Z</time>
      </trkpt>
      <trkpt lat="43.62399" lon="5.40183">
        <ele>472.39999389648</ele>
        <time>2019-11-30T14:18:44.000Z</time>
      </trkpt>
      <trkpt lat="43.62406" lon="5.40178">
        <ele>471.60000610352</ele>
        <time>2019-11-30T14:18:45.000Z</time>
      </trkpt>
      <trkpt lat="43.62413" lon="5.40172">
        <ele>471</ele>
        <time>2019-11-30T14:18:46.000Z</time>
      </trkpt>
      <trkpt lat="43.62418" lon="5.40168">
        <ele>470.39999389648</ele>
        <time>2019-11-30T14:18:47.000Z</time>
      </trkpt>
      <trkpt lat="43.62424" lon="5.40164">
        <ele>469.79998779297</ele>
        <time>2019-11-30T14:18:48.000Z</time>
      </trkpt>
      <trkpt lat="43.62428" lon="5.4016">
        <ele>469.20001220703</ele>
        <time>2019-11-30T14:18:49.000Z</time>
      </trkpt>
      <trkpt lat="43.62433" lon="5.40156">
        <ele>468.79998779297</ele>
        <time>2019-11-30T14:18:50.000Z</time>
      </trkpt>
      <trkpt lat="43.62438" lon="5.40154">
        <ele>468.20001220703</ele>
        <time>2019-11-30T14:18:51.000Z</time>
      </trkpt>
      <trkpt lat="43.62445" lon="5.40152">
        <ele>467.60000610352</ele>
        <time>2019-11-30T14:18:52.000Z</time>
      </trkpt>
      <trkpt lat="43.62452" lon="5.40151">
        <ele>466.60000610352</ele>
        <time>2019-11-30T14:18:53.000Z</time>
      </trkpt>
      <trkpt lat="43.62459" lon="5.40149">
        <ele>465.60000610352</ele>
        <time>2019-11-30T14:18:54.000Z</time>
      </trkpt>
      <trkpt lat="43.62466" lon="5.40145">
        <ele>464.39999389648</ele>
        <time>2019-11-30T14:18:55.000Z</time>
      </trkpt>
      <trkpt lat="43.62473" lon="5.40141">
        <ele>463.60000610352</ele>
        <time>2019-11-30T14:18:56.000Z</time>
      </trkpt>
      <trkpt lat="43.6248" lon="5.40135">
        <ele>462.79998779297</ele>
        <time>2019-11-30T14:18:57.000Z</time>
      </trkpt>
      <trkpt lat="43.62487" lon="5.4013">
        <ele>462</ele>
        <time>2019-11-30T14:18:58.000Z</time>
      </trkpt>
      <trkpt lat="43.62493" lon="5.40124">
        <ele>461.39999389648</ele>
        <time>2019-11-30T14:18:59.000Z</time>
      </trkpt>
      <trkpt lat="43.62499" lon="5.40118">
        <ele>461</ele>
        <time>2019-11-30T14:19:00.000Z</time>
      </trkpt>
      <trkpt lat="43.62506" lon="5.40112">
        <ele>460.39999389648</ele>
        <time>2019-11-30T14:19:01.000Z</time>
      </trkpt>
      <trkpt lat="43.62512" lon="5.40106">
        <ele>459.79998779297</ele>
        <time>2019-11-30T14:19:02.000Z</time>
      </trkpt>
      <trkpt lat="43.62517" lon="5.40098">
        <ele>459.60000610352</ele>
        <time>2019-11-30T14:19:03.000Z</time>
      </trkpt>
      <trkpt lat="43.62521" lon="5.4009">
        <ele>459.60000610352</ele>
        <time>2019-11-30T14:19:04.000Z</time>
      </trkpt>
      <trkpt lat="43.62524" lon="5.40083">
        <ele>459.60000610352</ele>
        <time>2019-11-30T14:19:05.000Z</time>
      </trkpt>
      <trkpt lat="43.62529" lon="5.40078">
        <ele>459</ele>
        <time>2019-11-30T14:19:06.000Z</time>
      </trkpt>
      <trkpt lat="43.62534" lon="5.40075">
        <ele>458.20001220703</ele>
        <time>2019-11-30T14:19:07.000Z</time>
      </trkpt>
      <trkpt lat="43.62539" lon="5.40075">
        <ele>457.20001220703</ele>
        <time>2019-11-30T14:19:08.000Z</time>
      </trkpt>
      <trkpt lat="43.62542" lon="5.40077">
        <ele>456.39999389648</ele>
        <time>2019-11-30T14:19:09.000Z</time>
      </trkpt>
      <trkpt lat="43.62543" lon="5.40078">
        <ele>455.79998779297</ele>
        <time>2019-11-30T14:19:10.000Z</time>
      </trkpt>
      <trkpt lat="43.62545" lon="5.40078">
        <ele>455.39999389648</ele>
        <time>2019-11-30T14:19:11.000Z</time>
      </trkpt>
      <trkpt lat="43.62547" lon="5.40076">
        <ele>455.20001220703</ele>
        <time>2019-11-30T14:19:12.000Z</time>
      </trkpt>
      <trkpt lat="43.62547" lon="5.40074">
        <ele>455.20001220703</ele>
        <time>2019-11-30T14:19:13.000Z</time>
      </trkpt>
      <trkpt lat="43.62547" lon="5.40074">
        <ele>455.39999389648</ele>
        <time>2019-11-30T14:19:14.000Z</time>
      </trkpt>
      <trkpt lat="43.62547" lon="5.40075">
        <ele>455.39999389648</ele>
        <time>2019-11-30T14:19:15.000Z</time>
      </trkpt>
      <trkpt lat="43.62547" lon="5.40076">
        <ele>455.39999389648</ele>
        <time>2019-11-30T14:19:16.000Z</time>
      </trkpt>
      <trkpt lat="43.62546" lon="5.40076">
        <ele>455.39999389648</ele>
        <time>2019-11-30T14:19:17.000Z</time>
      </trkpt>
      <trkpt lat="43.62546" lon="5.40076">
        <ele>455.39999389648</ele>
        <time>2019-11-30T14:19:18.000Z</time>
      </trkpt>
      <trkpt lat="43.62546" lon="5.40076">
        <ele>455.39999389648</ele>
        <time>2019-11-30T14:19:19.000Z</time>
      </trkpt>
      <trkpt lat="43.62546" lon="5.40076">
        <ele>455.39999389648</ele>
        <time>2019-11-30T14:19:20.000Z</time>
      </trkpt>
      <trkpt lat="43.62546" lon="5.40076">
        <ele>455.39999389648</ele>
        <time>2019-11-30T14:19:21.000Z</time>
      </trkpt>
      <trkpt lat="43.62546" lon="5.40076">
        <ele>455.39999389648</ele>
        <time>2019-11-30T14:19:22.000Z</time>
      </trkpt>
      <trkpt lat="43.62546" lon="5.40076">
        <ele>455.39999389648</ele>
        <time>2019-11-30T14:19:23.000Z</time>
      </trkpt>
      <trkpt lat="43.62546" lon="5.40076">
        <ele>455.39999389648</ele>
        <time>2019-11-30T14:19:24.000Z</time>
      </trkpt>
      <trkpt lat="43.62546" lon="5.40076">
        <ele>455.39999389648</ele>
        <time>2019-11-30T14:19:25.000Z</time>
      </trkpt>
      <trkpt lat="43.62546" lon="5.40076">
        <ele>455.39999389648</ele>
        <time>2019-11-30T14:19:26.000Z</time>
      </trkpt>
      <trkpt lat="43.62546" lon="5.40076">
        <ele>455.39999389648</ele>
        <time>2019-11-30T14:19:27.000Z</time>
      </trkpt>
      <trkpt lat="43.62546" lon="5.40076">
        <ele>455.39999389648</ele>
        <time>2019-11-30T14:19:28.000Z</time>
      </trkpt>
      <trkpt lat="43.62546" lon="5.40076">
        <ele>455.39999389648</ele>
        <time>2019-11-30T14:19:29.000Z</time>
      </trkpt>
      <trkpt lat="43.62546" lon="5.40076">
        <ele>455.39999389648</ele>
        <time>2019-11-30T14:19:30.000Z</time>
      </trkpt>
      <trkpt lat="43.62546" lon="5.40076">
        <ele>455.39999389648</ele>
        <time>2019-11-30T14:19:31.000Z</time>
      </trkpt>
      <trkpt lat="43.62546" lon="5.40076">
        <ele>455.39999389648</ele>
        <time>2019-11-30T14:19:32.000Z</time>
      </trkpt>
      <trkpt lat="43.62546" lon="5.40076">
        <ele>455.39999389648</ele>
        <time>2019-11-30T14:19:33.000Z</time>
      </trkpt>
      <trkpt lat="43.62546" lon="5.40076">
        <ele>455.39999389648</ele>
        <time>2019-11-30T14:19:34.000Z</time>
      </trkpt>
      <trkpt lat="43.62546" lon="5.40076">
        <ele>455.39999389648</ele>
        <time>2019-11-30T14:19:35.000Z</time>
      </trkpt>
      <trkpt lat="43.62546" lon="5.40076">
        <ele>455.39999389648</ele>
        <time>2019-11-30T14:19:36.000Z</time>
      </trkpt>
      <trkpt lat="43.62546" lon="5.40076">
        <ele>455.39999389648</ele>
        <time>2019-11-30T14:19:37.000Z</time>
      </trkpt>
      <trkpt lat="43.62546" lon="5.40076">
        <ele>455.39999389648</ele>
        <time>2019-11-30T14:19:38.000Z</time>
      </trkpt>
      <trkpt lat="43.62546" lon="5.40076">
        <ele>455.39999389648</ele>
        <time>2019-11-30T14:19:39.000Z</time>
      </trkpt>
      <trkpt lat="43.62546" lon="5.40076">
        <ele>455.39999389648</ele>
        <time>2019-11-30T14:19:40.000Z</time>
      </trkpt>
      <trkpt lat="43.62546" lon="5.40076">
        <ele>455.39999389648</ele>
        <time>2019-11-30T14:19:41.000Z</time>
      </trkpt>
      <trkpt lat="43.62546" lon="5.40076">
        <ele>455.39999389648</ele>
        <time>2019-11-30T14:19:42.000Z</time>
      </trkpt>
      <trkpt lat="43.62546" lon="5.40076">
        <ele>455.39999389648</ele>
        <time>2019-11-30T14:19:43.000Z</time>
      </trkpt>
      <trkpt lat="43.62546" lon="5.40076">
        <ele>455.39999389648</ele>
        <time>2019-11-30T14:19:44.000Z</time>
      </trkpt>
      <trkpt lat="43.62546" lon="5.40076">
        <ele>455.39999389648</ele>
        <time>2019-11-30T14:19:45.000Z</time>
      </trkpt>
      <trkpt lat="43.62546" lon="5.40076">
        <ele>455.39999389648</ele>
        <time>2019-11-30T14:19:46.000Z</time>
      </trkpt>
      <trkpt lat="43.62546" lon="5.40076">
        <ele>455.39999389648</ele>
        <time>2019-11-30T14:19:47.000Z</time>
      </trkpt>
      <trkpt lat="43.62546" lon="5.40076">
        <ele>455.39999389648</ele>
        <time>2019-11-30T14:19:48.000Z</time>
      </trkpt>
      <trkpt lat="43.62546" lon="5.40076">
        <ele>455.39999389648</ele>
        <time>2019-11-30T14:19:49.000Z</time>
      </trkpt>
      <trkpt lat="43.62546" lon="5.40076">
        <ele>455.39999389648</ele>
        <time>2019-11-30T14:19:50.000Z</time>
      </trkpt>
      <trkpt lat="43.62546" lon="5.40076">
        <ele>455.39999389648</ele>
        <time>2019-11-30T14:19:51.000Z</time>
      </trkpt>
      <trkpt lat="43.62546" lon="5.40076">
        <ele>455.39999389648</ele>
        <time>2019-11-30T14:19:52.000Z</time>
      </trkpt>
      <trkpt lat="43.62546" lon="5.40076">
        <ele>455.39999389648</ele>
        <time>2019-11-30T14:19:53.000Z</time>
      </trkpt>
      <trkpt lat="43.62546" lon="5.40076">
        <ele>455.39999389648</ele>
        <time>2019-11-30T14:19:54.000Z</time>
      </trkpt>
      <trkpt lat="43.62546" lon="5.40076">
        <ele>455.39999389648</ele>
        <time>2019-11-30T14:19:55.000Z</time>
      </trkpt>
      <trkpt lat="43.62546" lon="5.40076">
        <ele>455.39999389648</ele>
        <time>2019-11-30T14:19:56.000Z</time>
      </trkpt>
      <trkpt lat="43.62546" lon="5.40076">
        <ele>455.39999389648</ele>
        <time>2019-11-30T14:19:57.000Z</time>
      </trkpt>
      <trkpt lat="43.62546" lon="5.40076">
        <ele>455.39999389648</ele>
        <time>2019-11-30T14:19:58.000Z</time>
      </trkpt>
      <trkpt lat="43.62546" lon="5.40076">
        <ele>455.39999389648</ele>
        <time>2019-11-30T14:19:59.000Z</time>
      </trkpt>
      <trkpt lat="43.62546" lon="5.40076">
        <ele>455.39999389648</ele>
        <time>2019-11-30T14:20:00.000Z</time>
      </trkpt>
      <trkpt lat="43.62546" lon="5.40076">
        <ele>455.39999389648</ele>
        <time>2019-11-30T14:20:01.000Z</time>
      </trkpt>
      <trkpt lat="43.62546" lon="5.40076">
        <ele>455.39999389648</ele>
        <time>2019-11-30T14:20:02.000Z</time>
      </trkpt>
      <trkpt lat="43.62546" lon="5.40076">
        <ele>455.39999389648</ele>
        <time>2019-11-30T14:20:03.000Z</time>
      </trkpt>
      <trkpt lat="43.62546" lon="5.40076">
        <ele>455.39999389648</ele>
        <time>2019-11-30T14:20:04.000Z</time>
      </trkpt>
      <trkpt lat="43.62546" lon="5.40076">
        <ele>455.39999389648</ele>
        <time>2019-11-30T14:20:05.000Z</time>
      </trkpt>
      <trkpt lat="43.62546" lon="5.40076">
        <ele>455.39999389648</ele>
        <time>2019-11-30T14:20:06.000Z</time>
      </trkpt>
      <trkpt lat="43.62545" lon="5.40077">
        <ele>455.60000610352</ele>
        <time>2019-11-30T14:20:07.000Z</time>
      </trkpt>
      <trkpt lat="43.62545" lon="5.40078">
        <ele>455.39999389648</ele>
        <time>2019-11-30T14:20:08.000Z</time>
      </trkpt>
      <trkpt lat="43.62545" lon="5.40078">
        <ele>455.39999389648</ele>
        <time>2019-11-30T14:20:09.000Z</time>
      </trkpt>
      <trkpt lat="43.62545" lon="5.40079">
        <ele>455.39999389648</ele>
        <time>2019-11-30T14:20:10.000Z</time>
      </trkpt>
      <trkpt lat="43.62545" lon="5.40079">
        <ele>455.39999389648</ele>
        <time>2019-11-30T14:20:11.000Z</time>
      </trkpt>
      <trkpt lat="43.62544" lon="5.40082">
        <ele>455.39999389648</ele>
        <time>2019-11-30T14:20:12.000Z</time>
      </trkpt>
      <trkpt lat="43.62543" lon="5.40086">
        <ele>455</ele>
        <time>2019-11-30T14:20:13.000Z</time>
      </trkpt>
      <trkpt lat="43.62543" lon="5.40091">
        <ele>454.79998779297</ele>
        <time>2019-11-30T14:20:14.000Z</time>
      </trkpt>
      <trkpt lat="43.62542" lon="5.40097">
        <ele>454.39999389648</ele>
        <time>2019-11-30T14:20:15.000Z</time>
      </trkpt>
      <trkpt lat="43.62541" lon="5.40104">
        <ele>453.79998779297</ele>
        <time>2019-11-30T14:20:16.000Z</time>
      </trkpt>
      <trkpt lat="43.62541" lon="5.40112">
        <ele>453.20001220703</ele>
        <time>2019-11-30T14:20:17.000Z</time>
      </trkpt>
      <trkpt lat="43.6254" lon="5.40121">
        <ele>452.39999389648</ele>
        <time>2019-11-30T14:20:18.000Z</time>
      </trkpt>
      <trkpt lat="43.62539" lon="5.40129">
        <ele>451.79998779297</ele>
        <time>2019-11-30T14:21:22.000Z</time>
      </trkpt>
      <trkpt lat="43.62539" lon="5.40135">
        <ele>449.8</ele>
        <time>2019-11-30T14:21:23.000Z</time>
      </trkpt>
      <trkpt lat="43.6254" lon="5.40135">
        <ele>451.20001220703</ele>
        <time>2019-11-30T14:21:24.000Z</time>
      </trkpt>
      <trkpt lat="43.62539" lon="5.4014">
        <ele>451.60000610352</ele>
        <time>2019-11-30T14:21:25.000Z</time>
      </trkpt>
      <trkpt lat="43.62538" lon="5.40145">
        <ele>451.60000610352</ele>
        <time>2019-11-30T14:21:26.000Z</time>
      </trkpt>
      <trkpt lat="43.62537" lon="5.4015">
        <ele>451.60000610352</ele>
        <time>2019-11-30T14:21:27.000Z</time>
      </trkpt>
      <trkpt lat="43.62537" lon="5.40155">
        <ele>451.20001220703</ele>
        <time>2019-11-30T14:21:28.000Z</time>
      </trkpt>
      <trkpt lat="43.62537" lon="5.4016">
        <ele>450.79998779297</ele>
        <time>2019-11-30T14:21:29.000Z</time>
      </trkpt>
      <trkpt lat="43.62537" lon="5.40165">
        <ele>450.60000610352</ele>
        <time>2019-11-30T14:21:30.000Z</time>
      </trkpt>
      <trkpt lat="43.62537" lon="5.4017">
        <ele>450.20001220703</ele>
        <time>2019-11-30T14:21:31.000Z</time>
      </trkpt>
      <trkpt lat="43.62537" lon="5.40175">
        <ele>449.79998779297</ele>
        <time>2019-11-30T14:21:32.000Z</time>
      </trkpt>
      <trkpt lat="43.62537" lon="5.4018">
        <ele>449.39999389648</ele>
        <time>2019-11-30T14:21:33.000Z</time>
      </trkpt>
      <trkpt lat="43.62537" lon="5.40185">
        <ele>449</ele>
        <time>2019-11-30T14:21:34.000Z</time>
      </trkpt>
      <trkpt lat="43.62538" lon="5.40191">
        <ele>448.60000610352</ele>
        <time>2019-11-30T14:21:35.000Z</time>
      </trkpt>
      <trkpt lat="43.62538" lon="5.40198">
        <ele>448</ele>
        <time>2019-11-30T14:21:36.000Z</time>
      </trkpt>
      <trkpt lat="43.62539" lon="5.40206">
        <ele>447.39999389648</ele>
        <time>2019-11-30T14:21:37.000Z</time>
      </trkpt>
      <trkpt lat="43.6254" lon="5.40212">
        <ele>446.60000610352</ele>
        <time>2019-11-30T14:21:38.000Z</time>
      </trkpt>
      <trkpt lat="43.62542" lon="5.40218">
        <ele>446</ele>
        <time>2019-11-30T14:21:39.000Z</time>
      </trkpt>
      <trkpt lat="43.62546" lon="5.40224">
        <ele>445.20001220703</ele>
        <time>2019-11-30T14:21:40.000Z</time>
      </trkpt>
      <trkpt lat="43.62548" lon="5.4023">
        <ele>444.60000610352</ele>
        <time>2019-11-30T14:21:41.000Z</time>
      </trkpt>
      <trkpt lat="43.62551" lon="5.40237">
        <ele>443.79998779297</ele>
        <time>2019-11-30T14:21:42.000Z</time>
      </trkpt>
      <trkpt lat="43.62554" lon="5.40243">
        <ele>443.20001220703</ele>
        <time>2019-11-30T14:21:43.000Z</time>
      </trkpt>
      <trkpt lat="43.62558" lon="5.4025">
        <ele>442.20001220703</ele>
        <time>2019-11-30T14:21:44.000Z</time>
      </trkpt>
      <trkpt lat="43.62562" lon="5.40257">
        <ele>441.20001220703</ele>
        <time>2019-11-30T14:21:45.000Z</time>
      </trkpt>
      <trkpt lat="43.62565" lon="5.40267">
        <ele>440.20001220703</ele>
        <time>2019-11-30T14:21:46.000Z</time>
      </trkpt>
      <trkpt lat="43.62568" lon="5.40276">
        <ele>439.20001220703</ele>
        <time>2019-11-30T14:21:47.000Z</time>
      </trkpt>
      <trkpt lat="43.62572" lon="5.40285">
        <ele>438</ele>
        <time>2019-11-30T14:21:48.000Z</time>
      </trkpt>
      <trkpt lat="43.62578" lon="5.40292">
        <ele>436.60000610352</ele>
        <time>2019-11-30T14:21:49.000Z</time>
      </trkpt>
      <trkpt lat="43.62585" lon="5.40299">
        <ele>435.39999389648</ele>
        <time>2019-11-30T14:21:50.000Z</time>
      </trkpt>
      <trkpt lat="43.62591" lon="5.40306">
        <ele>434.79998779297</ele>
        <time>2019-11-30T14:21:51.000Z</time>
      </trkpt>
      <trkpt lat="43.62596" lon="5.40314">
        <ele>434.39999389648</ele>
        <time>2019-11-30T14:21:52.000Z</time>
      </trkpt>
      <trkpt lat="43.62602" lon="5.40321">
        <ele>433.79998779297</ele>
        <time>2019-11-30T14:21:53.000Z</time>
      </trkpt>
      <trkpt lat="43.62608" lon="5.40327">
        <ele>434</ele>
        <time>2019-11-30T14:21:54.000Z</time>
      </trkpt>
      <trkpt lat="43.62613" lon="5.40333">
        <ele>434.20001220703</ele>
        <time>2019-11-30T14:21:55.000Z</time>
      </trkpt>
      <trkpt lat="43.62618" lon="5.4034">
        <ele>434.20001220703</ele>
        <time>2019-11-30T14:21:56.000Z</time>
      </trkpt>
      <trkpt lat="43.62623" lon="5.40345">
        <ele>434.39999389648</ele>
        <time>2019-11-30T14:21:57.000Z</time>
      </trkpt>
      <trkpt lat="43.62628" lon="5.40351">
        <ele>434.60000610352</ele>
        <time>2019-11-30T14:21:58.000Z</time>
      </trkpt>
      <trkpt lat="43.62632" lon="5.40355">
        <ele>434.60000610352</ele>
        <time>2019-11-30T14:21:59.000Z</time>
      </trkpt>
      <trkpt lat="43.62636" lon="5.4036">
        <ele>434.79998779297</ele>
        <time>2019-11-30T14:22:00.000Z</time>
      </trkpt>
      <trkpt lat="43.62639" lon="5.40364">
        <ele>435</ele>
        <time>2019-11-30T14:22:01.000Z</time>
      </trkpt>
      <trkpt lat="43.62643" lon="5.40368">
        <ele>435</ele>
        <time>2019-11-30T14:22:02.000Z</time>
      </trkpt>
      <trkpt lat="43.62646" lon="5.40372">
        <ele>435.20001220703</ele>
        <time>2019-11-30T14:22:03.000Z</time>
      </trkpt>
      <trkpt lat="43.62649" lon="5.40376">
        <ele>435.20001220703</ele>
        <time>2019-11-30T14:22:04.000Z</time>
      </trkpt>
      <trkpt lat="43.62653" lon="5.4038">
        <ele>435.39999389648</ele>
        <time>2019-11-30T14:22:05.000Z</time>
      </trkpt>
      <trkpt lat="43.62656" lon="5.40384">
        <ele>435.39999389648</ele>
        <time>2019-11-30T14:22:06.000Z</time>
      </trkpt>
      <trkpt lat="43.6266" lon="5.40388">
        <ele>435.60000610352</ele>
        <time>2019-11-30T14:22:07.000Z</time>
      </trkpt>
      <trkpt lat="43.62663" lon="5.40392">
        <ele>435.60000610352</ele>
        <time>2019-11-30T14:22:08.000Z</time>
      </trkpt>
      <trkpt lat="43.62667" lon="5.40395">
        <ele>435.79998779297</ele>
        <time>2019-11-30T14:22:09.000Z</time>
      </trkpt>
      <trkpt lat="43.62671" lon="5.40398">
        <ele>435.79998779297</ele>
        <time>2019-11-30T14:22:10.000Z</time>
      </trkpt>
      <trkpt lat="43.62675" lon="5.40401">
        <ele>435.79998779297</ele>
        <time>2019-11-30T14:22:11.000Z</time>
      </trkpt>
      <trkpt lat="43.62678" lon="5.40405">
        <ele>436</ele>
        <time>2019-11-30T14:22:12.000Z</time>
      </trkpt>
      <trkpt lat="43.62682" lon="5.40409">
        <ele>436</ele>
        <time>2019-11-30T14:22:13.000Z</time>
      </trkpt>
      <trkpt lat="43.62685" lon="5.40414">
        <ele>436.20001220703</ele>
        <time>2019-11-30T14:22:14.000Z</time>
      </trkpt>
      <trkpt lat="43.62688" lon="5.40418">
        <ele>436.39999389648</ele>
        <time>2019-11-30T14:22:15.000Z</time>
      </trkpt>
      <trkpt lat="43.62691" lon="5.40422">
        <ele>436.39999389648</ele>
        <time>2019-11-30T14:22:16.000Z</time>
      </trkpt>
      <trkpt lat="43.62694" lon="5.40426">
        <ele>436.60000610352</ele>
        <time>2019-11-30T14:22:17.000Z</time>
      </trkpt>
      <trkpt lat="43.62697" lon="5.40429">
        <ele>436.60000610352</ele>
        <time>2019-11-30T14:22:18.000Z</time>
      </trkpt>
      <trkpt lat="43.62701" lon="5.40433">
        <ele>436.79998779297</ele>
        <time>2019-11-30T14:22:19.000Z</time>
      </trkpt>
      <trkpt lat="43.62704" lon="5.40437">
        <ele>437</ele>
        <time>2019-11-30T14:22:20.000Z</time>
      </trkpt>
      <trkpt lat="43.62707" lon="5.40442">
        <ele>437.20001220703</ele>
        <time>2019-11-30T14:22:21.000Z</time>
      </trkpt>
      <trkpt lat="43.62711" lon="5.40445">
        <ele>437.20001220703</ele>
        <time>2019-11-30T14:22:22.000Z</time>
      </trkpt>
      <trkpt lat="43.62715" lon="5.40449">
        <ele>437.39999389648</ele>
        <time>2019-11-30T14:22:23.000Z</time>
      </trkpt>
      <trkpt lat="43.62718" lon="5.40452">
        <ele>437.60000610352</ele>
        <time>2019-11-30T14:22:24.000Z</time>
      </trkpt>
      <trkpt lat="43.62722" lon="5.40455">
        <ele>437.60000610352</ele>
        <time>2019-11-30T14:22:25.000Z</time>
      </trkpt>
      <trkpt lat="43.62726" lon="5.40457">
        <ele>437.79998779297</ele>
        <time>2019-11-30T14:22:26.000Z</time>
      </trkpt>
      <trkpt lat="43.62729" lon="5.40461">
        <ele>437.79998779297</ele>
        <time>2019-11-30T14:22:27.000Z</time>
      </trkpt>
      <trkpt lat="43.62733" lon="5.40464">
        <ele>438</ele>
        <time>2019-11-30T14:22:28.000Z</time>
      </trkpt>
      <trkpt lat="43.62736" lon="5.40468">
        <ele>438.20001220703</ele>
        <time>2019-11-30T14:22:29.000Z</time>
      </trkpt>
      <trkpt lat="43.62739" lon="5.40472">
        <ele>438.60000610352</ele>
        <time>2019-11-30T14:22:30.000Z</time>
      </trkpt>
      <trkpt lat="43.62742" lon="5.40474">
        <ele>438.79998779297</ele>
        <time>2019-11-30T14:22:31.000Z</time>
      </trkpt>
      <trkpt lat="43.62746" lon="5.40477">
        <ele>439</ele>
        <time>2019-11-30T14:22:32.000Z</time>
      </trkpt>
      <trkpt lat="43.62749" lon="5.40481">
        <ele>439.20001220703</ele>
        <time>2019-11-30T14:22:33.000Z</time>
      </trkpt>
      <trkpt lat="43.62752" lon="5.40484">
        <ele>439.60000610352</ele>
        <time>2019-11-30T14:22:34.000Z</time>
      </trkpt>
      <trkpt lat="43.62754" lon="5.40488">
        <ele>440</ele>
        <time>2019-11-30T14:22:35.000Z</time>
      </trkpt>
      <trkpt lat="43.62757" lon="5.40492">
        <ele>440.20001220703</ele>
        <time>2019-11-30T14:22:36.000Z</time>
      </trkpt>
      <trkpt lat="43.6276" lon="5.40496">
        <ele>440.60000610352</ele>
        <time>2019-11-30T14:22:37.000Z</time>
      </trkpt>
      <trkpt lat="43.62762" lon="5.405">
        <ele>441</ele>
        <time>2019-11-30T14:22:38.000Z</time>
      </trkpt>
      <trkpt lat="43.62765" lon="5.40503">
        <ele>441.20001220703</ele>
        <time>2019-11-30T14:22:39.000Z</time>
      </trkpt>
      <trkpt lat="43.62767" lon="5.40507">
        <ele>441.39999389648</ele>
        <time>2019-11-30T14:22:40.000Z</time>
      </trkpt>
      <trkpt lat="43.62768" lon="5.40511">
        <ele>441.79998779297</ele>
        <time>2019-11-30T14:22:41.000Z</time>
      </trkpt>
      <trkpt lat="43.6277" lon="5.40514">
        <ele>442</ele>
        <time>2019-11-30T14:22:42.000Z</time>
      </trkpt>
      <trkpt lat="43.62772" lon="5.40517">
        <ele>442.20001220703</ele>
        <time>2019-11-30T14:22:43.000Z</time>
      </trkpt>
      <trkpt lat="43.62773" lon="5.4052">
        <ele>442.20001220703</ele>
        <time>2019-11-30T14:22:44.000Z</time>
      </trkpt>
      <trkpt lat="43.62776" lon="5.40522">
        <ele>442.20001220703</ele>
        <time>2019-11-30T14:22:45.000Z</time>
      </trkpt>
      <trkpt lat="43.62779" lon="5.40525">
        <ele>442.39999389648</ele>
        <time>2019-11-30T14:22:46.000Z</time>
      </trkpt>
      <trkpt lat="43.62781" lon="5.40527">
        <ele>442.20001220703</ele>
        <time>2019-11-30T14:22:47.000Z</time>
      </trkpt>
      <trkpt lat="43.62784" lon="5.40529">
        <ele>442.20001220703</ele>
        <time>2019-11-30T14:22:48.000Z</time>
      </trkpt>
      <trkpt lat="43.62787" lon="5.4053">
        <ele>442.20001220703</ele>
        <time>2019-11-30T14:22:49.000Z</time>
      </trkpt>
      <trkpt lat="43.62789" lon="5.40532">
        <ele>442.20001220703</ele>
        <time>2019-11-30T14:22:50.000Z</time>
      </trkpt>
      <trkpt lat="43.62792" lon="5.40534">
        <ele>442</ele>
        <time>2019-11-30T14:22:51.000Z</time>
      </trkpt>
      <trkpt lat="43.62794" lon="5.40535">
        <ele>442</ele>
        <time>2019-11-30T14:22:52.000Z</time>
      </trkpt>
      <trkpt lat="43.62797" lon="5.40537">
        <ele>442</ele>
        <time>2019-11-30T14:22:53.000Z</time>
      </trkpt>
      <trkpt lat="43.62799" lon="5.40539">
        <ele>442</ele>
        <time>2019-11-30T14:22:54.000Z</time>
      </trkpt>
      <trkpt lat="43.62801" lon="5.40542">
        <ele>442</ele>
        <time>2019-11-30T14:22:55.000Z</time>
      </trkpt>
      <trkpt lat="43.62804" lon="5.40545">
        <ele>442.20001220703</ele>
        <time>2019-11-30T14:22:56.000Z</time>
      </trkpt>
      <trkpt lat="43.62806" lon="5.40547">
        <ele>442.20001220703</ele>
        <time>2019-11-30T14:22:57.000Z</time>
      </trkpt>
      <trkpt lat="43.62807" lon="5.40548">
        <ele>442.20001220703</ele>
        <time>2019-11-30T14:22:58.000Z</time>
      </trkpt>
      <trkpt lat="43.62808" lon="5.40549">
        <ele>442.20001220703</ele>
        <time>2019-11-30T14:22:59.000Z</time>
      </trkpt>
      <trkpt lat="43.62809" lon="5.40549">
        <ele>442.20001220703</ele>
        <time>2019-11-30T14:23:00.000Z</time>
      </trkpt>
      <trkpt lat="43.62809" lon="5.40549">
        <ele>442.20001220703</ele>
        <time>2019-11-30T14:23:01.000Z</time>
      </trkpt>
      <trkpt lat="43.62809" lon="5.40549">
        <ele>442.20001220703</ele>
        <time>2019-11-30T14:23:02.000Z</time>
      </trkpt>
      <trkpt lat="43.62809" lon="5.40549">
        <ele>442.20001220703</ele>
        <time>2019-11-30T14:23:03.000Z</time>
      </trkpt>
      <trkpt lat="43.62809" lon="5.40549">
        <ele>442.20001220703</ele>
        <time>2019-11-30T14:23:04.000Z</time>
      </trkpt>
      <trkpt lat="43.62809" lon="5.40549">
        <ele>442.20001220703</ele>
        <time>2019-11-30T14:23:05.000Z</time>
      </trkpt>
      <trkpt lat="43.62809" lon="5.40549">
        <ele>442.20001220703</ele>
        <time>2019-11-30T14:23:06.000Z</time>
      </trkpt>
      <trkpt lat="43.62809" lon="5.40549">
        <ele>442.20001220703</ele>
        <time>2019-11-30T14:23:07.000Z</time>
      </trkpt>
      <trkpt lat="43.62809" lon="5.40549">
        <ele>442.20001220703</ele>
        <time>2019-11-30T14:23:08.000Z</time>
      </trkpt>
      <trkpt lat="43.62809" lon="5.40549">
        <ele>442.20001220703</ele>
        <time>2019-11-30T14:23:09.000Z</time>
      </trkpt>
      <trkpt lat="43.62809" lon="5.40549">
        <ele>442.20001220703</ele>
        <time>2019-11-30T14:23:10.000Z</time>
      </trkpt>
      <trkpt lat="43.62809" lon="5.40549">
        <ele>442.20001220703</ele>
        <time>2019-11-30T14:23:11.000Z</time>
      </trkpt>
      <trkpt lat="43.62809" lon="5.40549">
        <ele>442.20001220703</ele>
        <time>2019-11-30T14:23:12.000Z</time>
      </trkpt>
      <trkpt lat="43.62809" lon="5.40549">
        <ele>442.20001220703</ele>
        <time>2019-11-30T14:23:13.000Z</time>
      </trkpt>
      <trkpt lat="43.62809" lon="5.40549">
        <ele>442.20001220703</ele>
        <time>2019-11-30T14:23:14.000Z</time>
      </trkpt>
      <trkpt lat="43.62809" lon="5.40549">
        <ele>442.20001220703</ele>
        <time>2019-11-30T14:23:15.000Z</time>
      </trkpt>
      <trkpt lat="43.62809" lon="5.40549">
        <ele>442.20001220703</ele>
        <time>2019-11-30T14:23:16.000Z</time>
      </trkpt>
      <trkpt lat="43.62809" lon="5.40549">
        <ele>442.20001220703</ele>
        <time>2019-11-30T14:23:17.000Z</time>
      </trkpt>
      <trkpt lat="43.62809" lon="5.40549">
        <ele>442.20001220703</ele>
        <time>2019-11-30T14:23:18.000Z</time>
      </trkpt>
      <trkpt lat="43.62809" lon="5.40549">
        <ele>442.20001220703</ele>
        <time>2019-11-30T14:23:19.000Z</time>
      </trkpt>
      <trkpt lat="43.62809" lon="5.40549">
        <ele>442.20001220703</ele>
        <time>2019-11-30T14:23:20.000Z</time>
      </trkpt>
      <trkpt lat="43.62809" lon="5.40549">
        <ele>442.20001220703</ele>
        <time>2019-11-30T14:23:21.000Z</time>
      </trkpt>
      <trkpt lat="43.62809" lon="5.40549">
        <ele>442.20001220703</ele>
        <time>2019-11-30T14:23:22.000Z</time>
      </trkpt>
      <trkpt lat="43.62809" lon="5.40549">
        <ele>442.20001220703</ele>
        <time>2019-11-30T14:23:23.000Z</time>
      </trkpt>
      <trkpt lat="43.62809" lon="5.40549">
        <ele>442.20001220703</ele>
        <time>2019-11-30T14:23:24.000Z</time>
      </trkpt>
      <trkpt lat="43.62809" lon="5.40549">
        <ele>442.20001220703</ele>
        <time>2019-11-30T14:23:25.000Z</time>
      </trkpt>
      <trkpt lat="43.62809" lon="5.40549">
        <ele>442.20001220703</ele>
        <time>2019-11-30T14:23:26.000Z</time>
      </trkpt>
      <trkpt lat="43.62809" lon="5.40549">
        <ele>442.20001220703</ele>
        <time>2019-11-30T14:23:27.000Z</time>
      </trkpt>
      <trkpt lat="43.62809" lon="5.40549">
        <ele>442.20001220703</ele>
        <time>2019-11-30T14:23:28.000Z</time>
      </trkpt>
      <trkpt lat="43.62809" lon="5.40549">
        <ele>442.20001220703</ele>
        <time>2019-11-30T14:23:29.000Z</time>
      </trkpt>
      <trkpt lat="43.62809" lon="5.40549">
        <ele>442.20001220703</ele>
        <time>2019-11-30T14:23:30.000Z</time>
      </trkpt>
      <trkpt lat="43.62809" lon="5.40549">
        <ele>442.20001220703</ele>
        <time>2019-11-30T14:23:31.000Z</time>
      </trkpt>
      <trkpt lat="43.62809" lon="5.40549">
        <ele>442.20001220703</ele>
        <time>2019-11-30T14:23:32.000Z</time>
      </trkpt>
      <trkpt lat="43.62809" lon="5.40549">
        <ele>442.20001220703</ele>
        <time>2019-11-30T14:23:33.000Z</time>
      </trkpt>
      <trkpt lat="43.62809" lon="5.40549">
        <ele>442.20001220703</ele>
        <time>2019-11-30T14:23:34.000Z</time>
      </trkpt>
      <trkpt lat="43.62809" lon="5.40549">
        <ele>442.20001220703</ele>
        <time>2019-11-30T14:23:35.000Z</time>
      </trkpt>
      <trkpt lat="43.62809" lon="5.40549">
        <ele>442.20001220703</ele>
        <time>2019-11-30T14:23:36.000Z</time>
      </trkpt>
      <trkpt lat="43.62809" lon="5.40549">
        <ele>442.20001220703</ele>
        <time>2019-11-30T14:23:37.000Z</time>
      </trkpt>
      <trkpt lat="43.62809" lon="5.40549">
        <ele>442.20001220703</ele>
        <time>2019-11-30T14:23:38.000Z</time>
      </trkpt>
      <trkpt lat="43.62809" lon="5.40549">
        <ele>442.20001220703</ele>
        <time>2019-11-30T14:23:39.000Z</time>
      </trkpt>
      <trkpt lat="43.62809" lon="5.40549">
        <ele>442</ele>
        <time>2019-11-30T14:23:40.000Z</time>
      </trkpt>
      <trkpt lat="43.6281" lon="5.4055">
        <ele>442</ele>
        <time>2019-11-30T14:23:41.000Z</time>
      </trkpt>
      <trkpt lat="43.62812" lon="5.40552">
        <ele>441.79998779297</ele>
        <time>2019-11-30T14:23:42.000Z</time>
      </trkpt>
      <trkpt lat="43.62814" lon="5.40554">
        <ele>441.60000610352</ele>
        <time>2019-11-30T14:23:43.000Z</time>
      </trkpt>
      <trkpt lat="43.62817" lon="5.40558">
        <ele>441.39999389648</ele>
        <time>2019-11-30T14:23:44.000Z</time>
      </trkpt>
      <trkpt lat="43.62822" lon="5.40561">
        <ele>441</ele>
        <time>2019-11-30T14:23:45.000Z</time>
      </trkpt>
      <trkpt lat="43.62826" lon="5.40565">
        <ele>440.60000610352</ele>
        <time>2019-11-30T14:23:46.000Z</time>
      </trkpt>
      <trkpt lat="43.6283" lon="5.40568">
        <ele>440.39999389648</ele>
        <time>2019-11-30T14:23:47.000Z</time>
      </trkpt>
      <trkpt lat="43.62835" lon="5.40571">
        <ele>440</ele>
        <time>2019-11-30T14:23:48.000Z</time>
      </trkpt>
      <trkpt lat="43.62839" lon="5.40575">
        <ele>439.60000610352</ele>
        <time>2019-11-30T14:23:49.000Z</time>
      </trkpt>
      <trkpt lat="43.62843" lon="5.40578">
        <ele>439.39999389648</ele>
        <time>2019-11-30T14:23:50.000Z</time>
      </trkpt>
      <trkpt lat="43.62847" lon="5.40582">
        <ele>439</ele>
        <time>2019-11-30T14:23:51.000Z</time>
      </trkpt>
      <trkpt lat="43.62852" lon="5.40586">
        <ele>438.60000610352</ele>
        <time>2019-11-30T14:23:52.000Z</time>
      </trkpt>
      <trkpt lat="43.62855" lon="5.4059">
        <ele>437.79998779297</ele>
        <time>2019-11-30T14:23:53.000Z</time>
      </trkpt>
      <trkpt lat="43.62857" lon="5.40595">
        <ele>437.39999389648</ele>
        <time>2019-11-30T14:23:54.000Z</time>
      </trkpt>
      <trkpt lat="43.62859" lon="5.406">
        <ele>436.79998779297</ele>
        <time>2019-11-30T14:23:55.000Z</time>
      </trkpt>
      <trkpt lat="43.62862" lon="5.40604">
        <ele>436.39999389648</ele>
        <time>2019-11-30T14:23:56.000Z</time>
      </trkpt>
      <trkpt lat="43.62863" lon="5.40615">
        <ele>436</ele>
        <time>2019-11-30T14:23:57.000Z</time>
      </trkpt>
      <trkpt lat="43.62866" lon="5.40616">
        <ele>435.39999389648</ele>
        <time>2019-11-30T14:23:58.000Z</time>
      </trkpt>
      <trkpt lat="43.6287" lon="5.40616">
        <ele>434.60000610352</ele>
        <time>2019-11-30T14:23:59.000Z</time>
      </trkpt>
      <trkpt lat="43.62875" lon="5.40616">
        <ele>433.60000610352</ele>
        <time>2019-11-30T14:24:00.000Z</time>
      </trkpt>
      <trkpt lat="43.62881" lon="5.40616">
        <ele>432.20001220703</ele>
        <time>2019-11-30T14:24:01.000Z</time>
      </trkpt>
      <trkpt lat="43.62888" lon="5.40616">
        <ele>430.79998779297</ele>
        <time>2019-11-30T14:24:02.000Z</time>
      </trkpt>
      <trkpt lat="43.62895" lon="5.40617">
        <ele>429.39999389648</ele>
        <time>2019-11-30T14:24:03.000Z</time>
      </trkpt>
      <trkpt lat="43.62902" lon="5.40617">
        <ele>428.20001220703</ele>
        <time>2019-11-30T14:24:04.000Z</time>
      </trkpt>
      <trkpt lat="43.62908" lon="5.40617">
        <ele>426.79998779297</ele>
        <time>2019-11-30T14:24:05.000Z</time>
      </trkpt>
      <trkpt lat="43.62915" lon="5.40617">
        <ele>425.39999389648</ele>
        <time>2019-11-30T14:24:06.000Z</time>
      </trkpt>
      <trkpt lat="43.62921" lon="5.40618">
        <ele>424.20001220703</ele>
        <time>2019-11-30T14:24:07.000Z</time>
      </trkpt>
      <trkpt lat="43.62927" lon="5.40618">
        <ele>423.60000610352</ele>
        <time>2019-11-30T14:24:08.000Z</time>
      </trkpt>
      <trkpt lat="43.62933" lon="5.40618">
        <ele>423.20001220703</ele>
        <time>2019-11-30T14:24:09.000Z</time>
      </trkpt>
      <trkpt lat="43.62939" lon="5.40618">
        <ele>423.20001220703</ele>
        <time>2019-11-30T14:24:10.000Z</time>
      </trkpt>
      <trkpt lat="43.62943" lon="5.40619">
        <ele>423.20001220703</ele>
        <time>2019-11-30T14:24:11.000Z</time>
      </trkpt>
      <trkpt lat="43.62948" lon="5.40623">
        <ele>422.60000610352</ele>
        <time>2019-11-30T14:24:12.000Z</time>
      </trkpt>
      <trkpt lat="43.62953" lon="5.40627">
        <ele>422.20001220703</ele>
        <time>2019-11-30T14:24:13.000Z</time>
      </trkpt>
      <trkpt lat="43.62958" lon="5.40631">
        <ele>421.60000610352</ele>
        <time>2019-11-30T14:24:14.000Z</time>
      </trkpt>
      <trkpt lat="43.62961" lon="5.40636">
        <ele>420.79998779297</ele>
        <time>2019-11-30T14:24:15.000Z</time>
      </trkpt>
      <trkpt lat="43.62964" lon="5.40643">
        <ele>419.39999389648</ele>
        <time>2019-11-30T14:24:16.000Z</time>
      </trkpt>
      <trkpt lat="43.62967" lon="5.4065">
        <ele>418.20001220703</ele>
        <time>2019-11-30T14:24:17.000Z</time>
      </trkpt>
      <trkpt lat="43.6297" lon="5.40655">
        <ele>417</ele>
        <time>2019-11-30T14:24:18.000Z</time>
      </trkpt>
      <trkpt lat="43.62972" lon="5.4066">
        <ele>416.20001220703</ele>
        <time>2019-11-30T14:24:19.000Z</time>
      </trkpt>
      <trkpt lat="43.62974" lon="5.40665">
        <ele>415.20001220703</ele>
        <time>2019-11-30T14:24:20.000Z</time>
      </trkpt>
      <trkpt lat="43.62976" lon="5.4067">
        <ele>414.20001220703</ele>
        <time>2019-11-30T14:24:21.000Z</time>
      </trkpt>
      <trkpt lat="43.62978" lon="5.40674">
        <ele>413.39999389648</ele>
        <time>2019-11-30T14:24:22.000Z</time>
      </trkpt>
      <trkpt lat="43.6298" lon="5.40679">
        <ele>412.60000610352</ele>
        <time>2019-11-30T14:24:23.000Z</time>
      </trkpt>
      <trkpt lat="43.62983" lon="5.40683">
        <ele>411.39999389648</ele>
        <time>2019-11-30T14:24:24.000Z</time>
      </trkpt>
      <trkpt lat="43.62985" lon="5.40689">
        <ele>410.39999389648</ele>
        <time>2019-11-30T14:24:25.000Z</time>
      </trkpt>
      <trkpt lat="43.62987" lon="5.40694">
        <ele>409.39999389648</ele>
        <time>2019-11-30T14:24:26.000Z</time>
      </trkpt>
      <trkpt lat="43.6299" lon="5.40698">
        <ele>408.39999389648</ele>
        <time>2019-11-30T14:24:27.000Z</time>
      </trkpt>
      <trkpt lat="43.62992" lon="5.40702">
        <ele>407.79998779297</ele>
        <time>2019-11-30T14:24:28.000Z</time>
      </trkpt>
      <trkpt lat="43.62994" lon="5.40705">
        <ele>407.20001220703</ele>
        <time>2019-11-30T14:24:29.000Z</time>
      </trkpt>
      <trkpt lat="43.62996" lon="5.40708">
        <ele>406.60000610352</ele>
        <time>2019-11-30T14:24:30.000Z</time>
      </trkpt>
      <trkpt lat="43.62999" lon="5.40712">
        <ele>405.79998779297</ele>
        <time>2019-11-30T14:24:31.000Z</time>
      </trkpt>
      <trkpt lat="43.63002" lon="5.40716">
        <ele>405</ele>
        <time>2019-11-30T14:24:32.000Z</time>
      </trkpt>
      <trkpt lat="43.63004" lon="5.4072">
        <ele>404.20001220703</ele>
        <time>2019-11-30T14:24:33.000Z</time>
      </trkpt>
      <trkpt lat="43.63007" lon="5.40724">
        <ele>403.39999389648</ele>
        <time>2019-11-30T14:24:34.000Z</time>
      </trkpt>
      <trkpt lat="43.63011" lon="5.40729">
        <ele>402.39999389648</ele>
        <time>2019-11-30T14:24:35.000Z</time>
      </trkpt>
      <trkpt lat="43.63014" lon="5.40735">
        <ele>401.39999389648</ele>
        <time>2019-11-30T14:24:36.000Z</time>
      </trkpt>
      <trkpt lat="43.63018" lon="5.4074">
        <ele>400.39999389648</ele>
        <time>2019-11-30T14:24:37.000Z</time>
      </trkpt>
      <trkpt lat="43.63021" lon="5.40745">
        <ele>399.20001220703</ele>
        <time>2019-11-30T14:24:38.000Z</time>
      </trkpt>
      <trkpt lat="43.63024" lon="5.40749">
        <ele>398.20001220703</ele>
        <time>2019-11-30T14:24:39.000Z</time>
      </trkpt>
      <trkpt lat="43.63026" lon="5.40751">
        <ele>397.79998779297</ele>
        <time>2019-11-30T14:24:40.000Z</time>
      </trkpt>
      <trkpt lat="43.63026" lon="5.40751">
        <ele>397.79998779297</ele>
        <time>2019-11-30T14:24:41.000Z</time>
      </trkpt>
      <trkpt lat="43.63032" lon="5.40752">
        <ele>397.60000610352</ele>
        <time>2019-11-30T14:24:42.000Z</time>
      </trkpt>
      <trkpt lat="43.63037" lon="5.40753">
        <ele>397.39999389648</ele>
        <time>2019-11-30T14:24:43.000Z</time>
      </trkpt>
      <trkpt lat="43.63042" lon="5.40753">
        <ele>397.39999389648</ele>
        <time>2019-11-30T14:24:44.000Z</time>
      </trkpt>
      <trkpt lat="43.63047" lon="5.40754">
        <ele>397.20001220703</ele>
        <time>2019-11-30T14:24:45.000Z</time>
      </trkpt>
      <trkpt lat="43.63051" lon="5.40755">
        <ele>397</ele>
        <time>2019-11-30T14:24:46.000Z</time>
      </trkpt>
      <trkpt lat="43.63056" lon="5.40755">
        <ele>396.79998779297</ele>
        <time>2019-11-30T14:24:47.000Z</time>
      </trkpt>
      <trkpt lat="43.63061" lon="5.40756">
        <ele>396.79998779297</ele>
        <time>2019-11-30T14:24:48.000Z</time>
      </trkpt>
      <trkpt lat="43.63067" lon="5.40757">
        <ele>396.79998779297</ele>
        <time>2019-11-30T14:24:49.000Z</time>
      </trkpt>
      <trkpt lat="43.63072" lon="5.40758">
        <ele>396.79998779297</ele>
        <time>2019-11-30T14:24:50.000Z</time>
      </trkpt>
      <trkpt lat="43.63078" lon="5.40758">
        <ele>397</ele>
        <time>2019-11-30T14:24:51.000Z</time>
      </trkpt>
      <trkpt lat="43.63084" lon="5.40759">
        <ele>397</ele>
        <time>2019-11-30T14:24:52.000Z</time>
      </trkpt>
      <trkpt lat="43.63089" lon="5.4076">
        <ele>397</ele>
        <time>2019-11-30T14:24:53.000Z</time>
      </trkpt>
      <trkpt lat="43.63095" lon="5.40761">
        <ele>397.20001220703</ele>
        <time>2019-11-30T14:24:54.000Z</time>
      </trkpt>
      <trkpt lat="43.631" lon="5.40761">
        <ele>397.20001220703</ele>
        <time>2019-11-30T14:24:55.000Z</time>
      </trkpt>
      <trkpt lat="43.63104" lon="5.40763">
        <ele>397</ele>
        <time>2019-11-30T14:24:56.000Z</time>
      </trkpt>
      <trkpt lat="43.63108" lon="5.40764">
        <ele>396.79998779297</ele>
        <time>2019-11-30T14:24:57.000Z</time>
      </trkpt>
      <trkpt lat="43.63112" lon="5.40765">
        <ele>396.79998779297</ele>
        <time>2019-11-30T14:24:58.000Z</time>
      </trkpt>
      <trkpt lat="43.63115" lon="5.40767">
        <ele>396.60000610352</ele>
        <time>2019-11-30T14:24:59.000Z</time>
      </trkpt>
      <trkpt lat="43.63119" lon="5.40768">
        <ele>396.39999389648</ele>
        <time>2019-11-30T14:25:00.000Z</time>
      </trkpt>
      <trkpt lat="43.63123" lon="5.40769">
        <ele>396.20001220703</ele>
        <time>2019-11-30T14:25:01.000Z</time>
      </trkpt>
      <trkpt lat="43.63127" lon="5.40771">
        <ele>396.20001220703</ele>
        <time>2019-11-30T14:25:02.000Z</time>
      </trkpt>
      <trkpt lat="43.6313" lon="5.40772">
        <ele>396</ele>
        <time>2019-11-30T14:25:03.000Z</time>
      </trkpt>
      <trkpt lat="43.63134" lon="5.40773">
        <ele>395.79998779297</ele>
        <time>2019-11-30T14:25:04.000Z</time>
      </trkpt>
      <trkpt lat="43.63138" lon="5.40775">
        <ele>395.79998779297</ele>
        <time>2019-11-30T14:25:05.000Z</time>
      </trkpt>
      <trkpt lat="43.63142" lon="5.40777">
        <ele>395.39999389648</ele>
        <time>2019-11-30T14:25:06.000Z</time>
      </trkpt>
      <trkpt lat="43.63146" lon="5.4078">
        <ele>394.79998779297</ele>
        <time>2019-11-30T14:25:07.000Z</time>
      </trkpt>
      <trkpt lat="43.6315" lon="5.40783">
        <ele>394.20001220703</ele>
        <time>2019-11-30T14:25:08.000Z</time>
      </trkpt>
      <trkpt lat="43.63155" lon="5.40787">
        <ele>393.39999389648</ele>
        <time>2019-11-30T14:25:09.000Z</time>
      </trkpt>
      <trkpt lat="43.63161" lon="5.40791">
        <ele>392.39999389648</ele>
        <time>2019-11-30T14:25:10.000Z</time>
      </trkpt>
      <trkpt lat="43.63167" lon="5.40796">
        <ele>391.39999389648</ele>
        <time>2019-11-30T14:25:11.000Z</time>
      </trkpt>
      <trkpt lat="43.63173" lon="5.40801">
        <ele>390.60000610352</ele>
        <time>2019-11-30T14:25:12.000Z</time>
      </trkpt>
      <trkpt lat="43.6318" lon="5.40807">
        <ele>389.79998779297</ele>
        <time>2019-11-30T14:25:13.000Z</time>
      </trkpt>
      <trkpt lat="43.63187" lon="5.40812">
        <ele>389</ele>
        <time>2019-11-30T14:25:14.000Z</time>
      </trkpt>
      <trkpt lat="43.63193" lon="5.40817">
        <ele>388.20001220703</ele>
        <time>2019-11-30T14:25:15.000Z</time>
      </trkpt>
      <trkpt lat="43.63199" lon="5.40822">
        <ele>387.39999389648</ele>
        <time>2019-11-30T14:25:16.000Z</time>
      </trkpt>
      <trkpt lat="43.63204" lon="5.40826">
        <ele>386.79998779297</ele>
        <time>2019-11-30T14:25:17.000Z</time>
      </trkpt>
      <trkpt lat="43.63209" lon="5.4083">
        <ele>386</ele>
        <time>2019-11-30T14:25:18.000Z</time>
      </trkpt>
      <trkpt lat="43.63215" lon="5.40833">
        <ele>385.60000610352</ele>
        <time>2019-11-30T14:25:19.000Z</time>
      </trkpt>
      <trkpt lat="43.63221" lon="5.40832">
        <ele>385.79998779297</ele>
        <time>2019-11-30T14:25:20.000Z</time>
      </trkpt>
      <trkpt lat="43.63227" lon="5.40832">
        <ele>386</ele>
        <time>2019-11-30T14:25:21.000Z</time>
      </trkpt>
      <trkpt lat="43.63233" lon="5.40831">
        <ele>386</ele>
        <time>2019-11-30T14:25:22.000Z</time>
      </trkpt>
      <trkpt lat="43.63239" lon="5.40831">
        <ele>386</ele>
        <time>2019-11-30T14:25:23.000Z</time>
      </trkpt>
      <trkpt lat="43.63247" lon="5.4083">
        <ele>386</ele>
        <time>2019-11-30T14:25:24.000Z</time>
      </trkpt>
      <trkpt lat="43.63254" lon="5.40829">
        <ele>386</ele>
        <time>2019-11-30T14:25:25.000Z</time>
      </trkpt>
      <trkpt lat="43.63259" lon="5.40829">
        <ele>386</ele>
        <time>2019-11-30T14:25:26.000Z</time>
      </trkpt>
      <trkpt lat="43.63264" lon="5.40828">
        <ele>386.20001220703</ele>
        <time>2019-11-30T14:25:27.000Z</time>
      </trkpt>
      <trkpt lat="43.63269" lon="5.40828">
        <ele>386.20001220703</ele>
        <time>2019-11-30T14:25:28.000Z</time>
      </trkpt>
      <trkpt lat="43.63274" lon="5.40827">
        <ele>385.79998779297</ele>
        <time>2019-11-30T14:25:29.000Z</time>
      </trkpt>
      <trkpt lat="43.6328" lon="5.40826">
        <ele>385.60000610352</ele>
        <time>2019-11-30T14:25:30.000Z</time>
      </trkpt>
      <trkpt lat="43.63286" lon="5.40826">
        <ele>385.20001220703</ele>
        <time>2019-11-30T14:25:31.000Z</time>
      </trkpt>
      <trkpt lat="43.63288" lon="5.40826">
        <ele>385</ele>
        <time>2019-11-30T14:25:32.000Z</time>
      </trkpt>
      <trkpt lat="43.63288" lon="5.40826">
        <ele>385</ele>
        <time>2019-11-30T14:25:33.000Z</time>
      </trkpt>
      <trkpt lat="43.63288" lon="5.40826">
        <ele>385</ele>
        <time>2019-11-30T14:25:34.000Z</time>
      </trkpt>
      <trkpt lat="43.63288" lon="5.40826">
        <ele>385</ele>
        <time>2019-11-30T14:25:35.000Z</time>
      </trkpt>
      <trkpt lat="43.63309" lon="5.40827">
        <ele>383.79998779297</ele>
        <time>2019-11-30T14:25:36.000Z</time>
      </trkpt>
      <trkpt lat="43.63313" lon="5.4083">
        <ele>383.20001220703</ele>
        <time>2019-11-30T14:25:37.000Z</time>
      </trkpt>
      <trkpt lat="43.63315" lon="5.40833">
        <ele>382.39999389648</ele>
        <time>2019-11-30T14:25:38.000Z</time>
      </trkpt>
      <trkpt lat="43.63318" lon="5.40837">
        <ele>381.60000610352</ele>
        <time>2019-11-30T14:25:39.000Z</time>
      </trkpt>
      <trkpt lat="43.6332" lon="5.40841">
        <ele>380.60000610352</ele>
        <time>2019-11-30T14:25:40.000Z</time>
      </trkpt>
      <trkpt lat="43.63322" lon="5.40844">
        <ele>380</ele>
        <time>2019-11-30T14:25:41.000Z</time>
      </trkpt>
      <trkpt lat="43.63323" lon="5.40845">
        <ele>379.60000610352</ele>
        <time>2019-11-30T14:25:42.000Z</time>
      </trkpt>
      <trkpt lat="43.63323" lon="5.40846">
        <ele>379.39999389648</ele>
        <time>2019-11-30T14:25:43.000Z</time>
      </trkpt>
      <trkpt lat="43.63323" lon="5.40846">
        <ele>379.39999389648</ele>
        <time>2019-11-30T14:25:44.000Z</time>
      </trkpt>
      <trkpt lat="43.63323" lon="5.40846">
        <ele>379.39999389648</ele>
        <time>2019-11-30T14:25:45.000Z</time>
      </trkpt>
      <trkpt lat="43.63323" lon="5.40846">
        <ele>379.39999389648</ele>
        <time>2019-11-30T14:25:46.000Z</time>
      </trkpt>
      <trkpt lat="43.63324" lon="5.40848">
        <ele>379</ele>
        <time>2019-11-30T14:25:47.000Z</time>
      </trkpt>
      <trkpt lat="43.63324" lon="5.40851">
        <ele>378.39999389648</ele>
        <time>2019-11-30T14:25:48.000Z</time>
      </trkpt>
      <trkpt lat="43.63325" lon="5.40854">
        <ele>377.60000610352</ele>
        <time>2019-11-30T14:25:49.000Z</time>
      </trkpt>
      <trkpt lat="43.63327" lon="5.40857">
        <ele>377</ele>
        <time>2019-11-30T14:25:50.000Z</time>
      </trkpt>
      <trkpt lat="43.63329" lon="5.4086">
        <ele>376.39999389648</ele>
        <time>2019-11-30T14:25:51.000Z</time>
      </trkpt>
      <trkpt lat="43.63331" lon="5.40863">
        <ele>375.60000610352</ele>
        <time>2019-11-30T14:25:52.000Z</time>
      </trkpt>
      <trkpt lat="43.63334" lon="5.40867">
        <ele>374.79998779297</ele>
        <time>2019-11-30T14:25:53.000Z</time>
      </trkpt>
      <trkpt lat="43.63336" lon="5.40869">
        <ele>374.20001220703</ele>
        <time>2019-11-30T14:25:54.000Z</time>
      </trkpt>
      <trkpt lat="43.63339" lon="5.40871">
        <ele>373.79998779297</ele>
        <time>2019-11-30T14:25:55.000Z</time>
      </trkpt>
      <trkpt lat="43.63342" lon="5.40873">
        <ele>373.20001220703</ele>
        <time>2019-11-30T14:25:56.000Z</time>
      </trkpt>
      <trkpt lat="43.63345" lon="5.40875">
        <ele>372.79998779297</ele>
        <time>2019-11-30T14:25:57.000Z</time>
      </trkpt>
      <trkpt lat="43.63348" lon="5.40876">
        <ele>372.39999389648</ele>
        <time>2019-11-30T14:25:58.000Z</time>
      </trkpt>
      <trkpt lat="43.6335" lon="5.40878">
        <ele>372</ele>
        <time>2019-11-30T14:25:59.000Z</time>
      </trkpt>
      <trkpt lat="43.63353" lon="5.4088">
        <ele>371.39999389648</ele>
        <time>2019-11-30T14:26:00.000Z</time>
      </trkpt>
      <trkpt lat="43.63355" lon="5.40882">
        <ele>371.20001220703</ele>
        <time>2019-11-30T14:26:01.000Z</time>
      </trkpt>
      <trkpt lat="43.63357" lon="5.40883">
        <ele>370.79998779297</ele>
        <time>2019-11-30T14:26:02.000Z</time>
      </trkpt>
      <trkpt lat="43.63359" lon="5.40885">
        <ele>370.60000610352</ele>
        <time>2019-11-30T14:26:03.000Z</time>
      </trkpt>
      <trkpt lat="43.63362" lon="5.40887">
        <ele>370.20001220703</ele>
        <time>2019-11-30T14:26:04.000Z</time>
      </trkpt>
      <trkpt lat="43.63365" lon="5.40889">
        <ele>370</ele>
        <time>2019-11-30T14:26:05.000Z</time>
      </trkpt>
      <trkpt lat="43.63367" lon="5.40891">
        <ele>369.60000610352</ele>
        <time>2019-11-30T14:26:06.000Z</time>
      </trkpt>
      <trkpt lat="43.6337" lon="5.40893">
        <ele>369.39999389648</ele>
        <time>2019-11-30T14:26:07.000Z</time>
      </trkpt>
      <trkpt lat="43.63373" lon="5.40895">
        <ele>369.20001220703</ele>
        <time>2019-11-30T14:26:08.000Z</time>
      </trkpt>
      <trkpt lat="43.63376" lon="5.40897">
        <ele>368.79998779297</ele>
        <time>2019-11-30T14:26:09.000Z</time>
      </trkpt>
      <trkpt lat="43.63379" lon="5.40898">
        <ele>368.60000610352</ele>
        <time>2019-11-30T14:26:10.000Z</time>
      </trkpt>
      <trkpt lat="43.63381" lon="5.409">
        <ele>368.60000610352</ele>
        <time>2019-11-30T14:26:11.000Z</time>
      </trkpt>
      <trkpt lat="43.63384" lon="5.40901">
        <ele>368.39999389648</ele>
        <time>2019-11-30T14:26:12.000Z</time>
      </trkpt>
      <trkpt lat="43.63386" lon="5.40902">
        <ele>368.20001220703</ele>
        <time>2019-11-30T14:26:13.000Z</time>
      </trkpt>
      <trkpt lat="43.63388" lon="5.40905">
        <ele>367.79998779297</ele>
        <time>2019-11-30T14:26:14.000Z</time>
      </trkpt>
      <trkpt lat="43.63392" lon="5.40908">
        <ele>367.39999389648</ele>
        <time>2019-11-30T14:26:15.000Z</time>
      </trkpt>
      <trkpt lat="43.63396" lon="5.4091">
        <ele>367</ele>
        <time>2019-11-30T14:26:16.000Z</time>
      </trkpt>
      <trkpt lat="43.63399" lon="5.40913">
        <ele>366.60000610352</ele>
        <time>2019-11-30T14:26:17.000Z</time>
      </trkpt>
      <trkpt lat="43.63403" lon="5.40916">
        <ele>366</ele>
        <time>2019-11-30T14:26:18.000Z</time>
      </trkpt>
      <trkpt lat="43.63406" lon="5.40919">
        <ele>365.60000610352</ele>
        <time>2019-11-30T14:26:19.000Z</time>
      </trkpt>
      <trkpt lat="43.6341" lon="5.40921">
        <ele>365.39999389648</ele>
        <time>2019-11-30T14:26:20.000Z</time>
      </trkpt>
      <trkpt lat="43.63412" lon="5.40923">
        <ele>365</ele>
        <time>2019-11-30T14:26:21.000Z</time>
      </trkpt>
      <trkpt lat="43.63415" lon="5.40925">
        <ele>364.60000610352</ele>
        <time>2019-11-30T14:26:22.000Z</time>
      </trkpt>
      <trkpt lat="43.63418" lon="5.40929">
        <ele>364.20001220703</ele>
        <time>2019-11-30T14:26:23.000Z</time>
      </trkpt>
      <trkpt lat="43.63419" lon="5.40933">
        <ele>363.39999389648</ele>
        <time>2019-11-30T14:26:24.000Z</time>
      </trkpt>
      <trkpt lat="43.63421" lon="5.40937">
        <ele>362.79998779297</ele>
        <time>2019-11-30T14:26:25.000Z</time>
      </trkpt>
      <trkpt lat="43.63423" lon="5.40941">
        <ele>362.20001220703</ele>
        <time>2019-11-30T14:26:26.000Z</time>
      </trkpt>
      <trkpt lat="43.63425" lon="5.40943">
        <ele>361.60000610352</ele>
        <time>2019-11-30T14:26:27.000Z</time>
      </trkpt>
      <trkpt lat="43.63427" lon="5.40946">
        <ele>361.20001220703</ele>
        <time>2019-11-30T14:26:28.000Z</time>
      </trkpt>
      <trkpt lat="43.63429" lon="5.40949">
        <ele>360.79998779297</ele>
        <time>2019-11-30T14:26:29.000Z</time>
      </trkpt>
      <trkpt lat="43.63431" lon="5.40952">
        <ele>360.20001220703</ele>
        <time>2019-11-30T14:26:30.000Z</time>
      </trkpt>
      <trkpt lat="43.63433" lon="5.40955">
        <ele>359.79998779297</ele>
        <time>2019-11-30T14:26:31.000Z</time>
      </trkpt>
      <trkpt lat="43.63435" lon="5.40957">
        <ele>359.39999389648</ele>
        <time>2019-11-30T14:26:32.000Z</time>
      </trkpt>
      <trkpt lat="43.63438" lon="5.4096">
        <ele>358.60000610352</ele>
        <time>2019-11-30T14:26:33.000Z</time>
      </trkpt>
      <trkpt lat="43.63439" lon="5.40962">
        <ele>358.20001220703</ele>
        <time>2019-11-30T14:26:34.000Z</time>
      </trkpt>
      <trkpt lat="43.63439" lon="5.40963">
        <ele>357.79998779297</ele>
        <time>2019-11-30T14:26:35.000Z</time>
      </trkpt>
      <trkpt lat="43.63439" lon="5.40963">
        <ele>357.79998779297</ele>
        <time>2019-11-30T14:26:36.000Z</time>
      </trkpt>
      <trkpt lat="43.63439" lon="5.40964">
        <ele>357.79998779297</ele>
        <time>2019-11-30T14:26:37.000Z</time>
      </trkpt>
      <trkpt lat="43.63439" lon="5.40964">
        <ele>357.79998779297</ele>
        <time>2019-11-30T14:26:38.000Z</time>
      </trkpt>
      <trkpt lat="43.63439" lon="5.40964">
        <ele>357.79998779297</ele>
        <time>2019-11-30T14:26:39.000Z</time>
      </trkpt>
      <trkpt lat="43.63439" lon="5.40964">
        <ele>357.60000610352</ele>
        <time>2019-11-30T14:26:40.000Z</time>
      </trkpt>
      <trkpt lat="43.63441" lon="5.40967">
        <ele>357.20001220703</ele>
        <time>2019-11-30T14:26:41.000Z</time>
      </trkpt>
      <trkpt lat="43.63444" lon="5.40972">
        <ele>356.20001220703</ele>
        <time>2019-11-30T14:26:42.000Z</time>
      </trkpt>
      <trkpt lat="43.63446" lon="5.40976">
        <ele>355.60000610352</ele>
        <time>2019-11-30T14:26:43.000Z</time>
      </trkpt>
      <trkpt lat="43.63449" lon="5.4098">
        <ele>354.79998779297</ele>
        <time>2019-11-30T14:26:44.000Z</time>
      </trkpt>
      <trkpt lat="43.63451" lon="5.40982">
        <ele>354.20001220703</ele>
        <time>2019-11-30T14:26:45.000Z</time>
      </trkpt>
      <trkpt lat="43.63452" lon="5.40983">
        <ele>354</ele>
        <time>2019-11-30T14:26:46.000Z</time>
      </trkpt>
      <trkpt lat="43.63452" lon="5.40983">
        <ele>354</ele>
        <time>2019-11-30T14:26:47.000Z</time>
      </trkpt>
      <trkpt lat="43.63452" lon="5.40983">
        <ele>354</ele>
        <time>2019-11-30T14:26:48.000Z</time>
      </trkpt>
      <trkpt lat="43.63452" lon="5.40983">
        <ele>354</ele>
        <time>2019-11-30T14:26:49.000Z</time>
      </trkpt>
      <trkpt lat="43.63452" lon="5.40983">
        <ele>354</ele>
        <time>2019-11-30T14:26:50.000Z</time>
      </trkpt>
      <trkpt lat="43.63452" lon="5.40983">
        <ele>354</ele>
        <time>2019-11-30T14:26:51.000Z</time>
      </trkpt>
      <trkpt lat="43.63452" lon="5.40983">
        <ele>354</ele>
        <time>2019-11-30T14:26:52.000Z</time>
      </trkpt>
      <trkpt lat="43.63452" lon="5.40983">
        <ele>354</ele>
        <time>2019-11-30T14:26:53.000Z</time>
      </trkpt>
      <trkpt lat="43.63453" lon="5.40981">
        <ele>354.20001220703</ele>
        <time>2019-11-30T14:26:54.000Z</time>
      </trkpt>
      <trkpt lat="43.63453" lon="5.4098">
        <ele>354.39999389648</ele>
        <time>2019-11-30T14:26:55.000Z</time>
      </trkpt>
      <trkpt lat="43.63453" lon="5.40978">
        <ele>354.39999389648</ele>
        <time>2019-11-30T14:26:56.000Z</time>
      </trkpt>
      <trkpt lat="43.63454" lon="5.40977">
        <ele>354.39999389648</ele>
        <time>2019-11-30T14:26:57.000Z</time>
      </trkpt>
      <trkpt lat="43.63456" lon="5.40975">
        <ele>354.39999389648</ele>
        <time>2019-11-30T14:26:58.000Z</time>
      </trkpt>
      <trkpt lat="43.63458" lon="5.40972">
        <ele>354.39999389648</ele>
        <time>2019-11-30T14:26:59.000Z</time>
      </trkpt>
      <trkpt lat="43.6346" lon="5.40968">
        <ele>354.60000610352</ele>
        <time>2019-11-30T14:27:00.000Z</time>
      </trkpt>
      <trkpt lat="43.63461" lon="5.40965">
        <ele>354.60000610352</ele>
        <time>2019-11-30T14:27:01.000Z</time>
      </trkpt>
      <trkpt lat="43.63464" lon="5.40962">
        <ele>355</ele>
        <time>2019-11-30T14:27:02.000Z</time>
      </trkpt>
      <trkpt lat="43.63466" lon="5.40959">
        <ele>355.20001220703</ele>
        <time>2019-11-30T14:27:03.000Z</time>
      </trkpt>
      <trkpt lat="43.63468" lon="5.40955">
        <ele>355.60000610352</ele>
        <time>2019-11-30T14:27:04.000Z</time>
      </trkpt>
      <trkpt lat="43.6347" lon="5.40953">
        <ele>355.79998779297</ele>
        <time>2019-11-30T14:27:05.000Z</time>
      </trkpt>
      <trkpt lat="43.63471" lon="5.40951">
        <ele>356</ele>
        <time>2019-11-30T14:27:06.000Z</time>
      </trkpt>
      <trkpt lat="43.63473" lon="5.40949">
        <ele>356</ele>
        <time>2019-11-30T14:27:07.000Z</time>
      </trkpt>
      <trkpt lat="43.63475" lon="5.40948">
        <ele>356</ele>
        <time>2019-11-30T14:27:08.000Z</time>
      </trkpt>
      <trkpt lat="43.63477" lon="5.40946">
        <ele>356</ele>
        <time>2019-11-30T14:27:09.000Z</time>
      </trkpt>
      <trkpt lat="43.63479" lon="5.40945">
        <ele>356</ele>
        <time>2019-11-30T14:27:10.000Z</time>
      </trkpt>
      <trkpt lat="43.63481" lon="5.40945">
        <ele>355.79998779297</ele>
        <time>2019-11-30T14:27:11.000Z</time>
      </trkpt>
      <trkpt lat="43.63482" lon="5.40946">
        <ele>355.39999389648</ele>
        <time>2019-11-30T14:27:12.000Z</time>
      </trkpt>
      <trkpt lat="43.63482" lon="5.40946">
        <ele>355.20001220703</ele>
        <time>2019-11-30T14:27:13.000Z</time>
      </trkpt>
      <trkpt lat="43.63482" lon="5.40946">
        <ele>355.20001220703</ele>
        <time>2019-11-30T14:27:14.000Z</time>
      </trkpt>
      <trkpt lat="43.63482" lon="5.40946">
        <ele>355.20001220703</ele>
        <time>2019-11-30T14:27:15.000Z</time>
      </trkpt>
      <trkpt lat="43.63482" lon="5.40946">
        <ele>355.20001220703</ele>
        <time>2019-11-30T14:27:16.000Z</time>
      </trkpt>
      <trkpt lat="43.63482" lon="5.40946">
        <ele>355.20001220703</ele>
        <time>2019-11-30T14:27:17.000Z</time>
      </trkpt>
      <trkpt lat="43.63482" lon="5.40946">
        <ele>355.20001220703</ele>
        <time>2019-11-30T14:27:18.000Z</time>
      </trkpt>
      <trkpt lat="43.63482" lon="5.40946">
        <ele>355.20001220703</ele>
        <time>2019-11-30T14:27:19.000Z</time>
      </trkpt>
      <trkpt lat="43.63482" lon="5.40946">
        <ele>355.20001220703</ele>
        <time>2019-11-30T14:27:20.000Z</time>
      </trkpt>
      <trkpt lat="43.63482" lon="5.40946">
        <ele>355.20001220703</ele>
        <time>2019-11-30T14:27:21.000Z</time>
      </trkpt>
      <trkpt lat="43.63482" lon="5.40946">
        <ele>355.20001220703</ele>
        <time>2019-11-30T14:27:22.000Z</time>
      </trkpt>
      <trkpt lat="43.63482" lon="5.40946">
        <ele>355.20001220703</ele>
        <time>2019-11-30T14:27:23.000Z</time>
      </trkpt>
      <trkpt lat="43.63482" lon="5.40946">
        <ele>355.20001220703</ele>
        <time>2019-11-30T14:27:24.000Z</time>
      </trkpt>
      <trkpt lat="43.63482" lon="5.40946">
        <ele>355.20001220703</ele>
        <time>2019-11-30T14:27:25.000Z</time>
      </trkpt>
      <trkpt lat="43.63482" lon="5.40946">
        <ele>355.20001220703</ele>
        <time>2019-11-30T14:27:26.000Z</time>
      </trkpt>
      <trkpt lat="43.63482" lon="5.40946">
        <ele>355.20001220703</ele>
        <time>2019-11-30T14:27:27.000Z</time>
      </trkpt>
      <trkpt lat="43.63482" lon="5.40946">
        <ele>355.20001220703</ele>
        <time>2019-11-30T14:27:28.000Z</time>
      </trkpt>
      <trkpt lat="43.63482" lon="5.40946">
        <ele>355.20001220703</ele>
        <time>2019-11-30T14:27:29.000Z</time>
      </trkpt>
      <trkpt lat="43.63482" lon="5.40946">
        <ele>355.20001220703</ele>
        <time>2019-11-30T14:27:30.000Z</time>
      </trkpt>
      <trkpt lat="43.63482" lon="5.40946">
        <ele>355.20001220703</ele>
        <time>2019-11-30T14:27:31.000Z</time>
      </trkpt>
      <trkpt lat="43.63482" lon="5.40946">
        <ele>355.20001220703</ele>
        <time>2019-11-30T14:27:32.000Z</time>
      </trkpt>
      <trkpt lat="43.63482" lon="5.40946">
        <ele>355.20001220703</ele>
        <time>2019-11-30T14:27:33.000Z</time>
      </trkpt>
      <trkpt lat="43.63482" lon="5.40946">
        <ele>355.20001220703</ele>
        <time>2019-11-30T14:27:34.000Z</time>
      </trkpt>
      <trkpt lat="43.63482" lon="5.40946">
        <ele>355.20001220703</ele>
        <time>2019-11-30T14:27:35.000Z</time>
      </trkpt>
      <trkpt lat="43.63482" lon="5.40946">
        <ele>355.20001220703</ele>
        <time>2019-11-30T14:27:36.000Z</time>
      </trkpt>
      <trkpt lat="43.63482" lon="5.40946">
        <ele>355.20001220703</ele>
        <time>2019-11-30T14:27:37.000Z</time>
      </trkpt>
      <trkpt lat="43.63482" lon="5.40946">
        <ele>355.20001220703</ele>
        <time>2019-11-30T14:27:38.000Z</time>
      </trkpt>
      <trkpt lat="43.63482" lon="5.40946">
        <ele>355.20001220703</ele>
        <time>2019-11-30T14:27:39.000Z</time>
      </trkpt>
      <trkpt lat="43.63482" lon="5.40946">
        <ele>355.20001220703</ele>
        <time>2019-11-30T14:27:40.000Z</time>
      </trkpt>
      <trkpt lat="43.63482" lon="5.40946">
        <ele>355.20001220703</ele>
        <time>2019-11-30T14:27:41.000Z</time>
      </trkpt>
      <trkpt lat="43.63482" lon="5.40946">
        <ele>355.20001220703</ele>
        <time>2019-11-30T14:27:42.000Z</time>
      </trkpt>
      <trkpt lat="43.63482" lon="5.40946">
        <ele>355.20001220703</ele>
        <time>2019-11-30T14:27:43.000Z</time>
      </trkpt>
      <trkpt lat="43.63482" lon="5.40946">
        <ele>355.20001220703</ele>
        <time>2019-11-30T14:27:44.000Z</time>
      </trkpt>
      <trkpt lat="43.63482" lon="5.40946">
        <ele>355.20001220703</ele>
        <time>2019-11-30T14:27:45.000Z</time>
      </trkpt>
      <trkpt lat="43.63482" lon="5.40946">
        <ele>355.20001220703</ele>
        <time>2019-11-30T14:27:46.000Z</time>
      </trkpt>
      <trkpt lat="43.63482" lon="5.40946">
        <ele>355.20001220703</ele>
        <time>2019-11-30T14:27:47.000Z</time>
      </trkpt>
      <trkpt lat="43.63482" lon="5.40946">
        <ele>355.20001220703</ele>
        <time>2019-11-30T14:27:48.000Z</time>
      </trkpt>
      <trkpt lat="43.63482" lon="5.40946">
        <ele>355.20001220703</ele>
        <time>2019-11-30T14:27:49.000Z</time>
      </trkpt>
      <trkpt lat="43.63482" lon="5.40946">
        <ele>355.20001220703</ele>
        <time>2019-11-30T14:27:50.000Z</time>
      </trkpt>
      <trkpt lat="43.63483" lon="5.40946">
        <ele>355.20001220703</ele>
        <time>2019-11-30T14:27:51.000Z</time>
      </trkpt>
      <trkpt lat="43.63483" lon="5.40948">
        <ele>354.79998779297</ele>
        <time>2019-11-30T14:27:52.000Z</time>
      </trkpt>
      <trkpt lat="43.63485" lon="5.40951">
        <ele>354</ele>
        <time>2019-11-30T14:27:53.000Z</time>
      </trkpt>
      <trkpt lat="43.63487" lon="5.40955">
        <ele>353</ele>
        <time>2019-11-30T14:27:54.000Z</time>
      </trkpt>
      <trkpt lat="43.63489" lon="5.40956">
        <ele>352.60000610352</ele>
        <time>2019-11-30T14:27:55.000Z</time>
      </trkpt>
      <trkpt lat="43.63491" lon="5.40958">
        <ele>352</ele>
        <time>2019-11-30T14:27:56.000Z</time>
      </trkpt>
      <trkpt lat="43.63492" lon="5.40958">
        <ele>351.79998779297</ele>
        <time>2019-11-30T14:27:57.000Z</time>
      </trkpt>
      <trkpt lat="43.63495" lon="5.40958">
        <ele>351.39999389648</ele>
        <time>2019-11-30T14:27:58.000Z</time>
      </trkpt>
      <trkpt lat="43.63496" lon="5.40959">
        <ele>351</ele>
        <time>2019-11-30T14:27:59.000Z</time>
      </trkpt>
      <trkpt lat="43.63497" lon="5.40961">
        <ele>350.79998779297</ele>
        <time>2019-11-30T14:28:00.000Z</time>
      </trkpt>
      <trkpt lat="43.63498" lon="5.40962">
        <ele>350.39999389648</ele>
        <time>2019-11-30T14:28:01.000Z</time>
      </trkpt>
      <trkpt lat="43.63497" lon="5.40963">
        <ele>350.20001220703</ele>
        <time>2019-11-30T14:28:02.000Z</time>
      </trkpt>
      <trkpt lat="43.63497" lon="5.40964">
        <ele>350</ele>
        <time>2019-11-30T14:28:03.000Z</time>
      </trkpt>
      <trkpt lat="43.63497" lon="5.40964">
        <ele>350</ele>
        <time>2019-11-30T14:28:04.000Z</time>
      </trkpt>
      <trkpt lat="43.63497" lon="5.40964">
        <ele>350</ele>
        <time>2019-11-30T14:28:05.000Z</time>
      </trkpt>
      <trkpt lat="43.63497" lon="5.40964">
        <ele>350</ele>
        <time>2019-11-30T14:28:06.000Z</time>
      </trkpt>
      <trkpt lat="43.63497" lon="5.40964">
        <ele>350</ele>
        <time>2019-11-30T14:28:07.000Z</time>
      </trkpt>
      <trkpt lat="43.63497" lon="5.40964">
        <ele>350</ele>
        <time>2019-11-30T14:28:08.000Z</time>
      </trkpt>
      <trkpt lat="43.63497" lon="5.40964">
        <ele>350</ele>
        <time>2019-11-30T14:28:09.000Z</time>
      </trkpt>
      <trkpt lat="43.63497" lon="5.40964">
        <ele>350</ele>
        <time>2019-11-30T14:28:10.000Z</time>
      </trkpt>
      <trkpt lat="43.63497" lon="5.40964">
        <ele>350</ele>
        <time>2019-11-30T14:28:11.000Z</time>
      </trkpt>
      <trkpt lat="43.63497" lon="5.40964">
        <ele>350</ele>
        <time>2019-11-30T14:28:12.000Z</time>
      </trkpt>
      <trkpt lat="43.63497" lon="5.40964">
        <ele>350</ele>
        <time>2019-11-30T14:28:13.000Z</time>
      </trkpt>
      <trkpt lat="43.63497" lon="5.40964">
        <ele>350</ele>
        <time>2019-11-30T14:28:14.000Z</time>
      </trkpt>
      <trkpt lat="43.63497" lon="5.40964">
        <ele>350</ele>
        <time>2019-11-30T14:28:15.000Z</time>
      </trkpt>
      <trkpt lat="43.63497" lon="5.40964">
        <ele>350</ele>
        <time>2019-11-30T14:28:16.000Z</time>
      </trkpt>
      <trkpt lat="43.63497" lon="5.40964">
        <ele>350</ele>
        <time>2019-11-30T14:28:17.000Z</time>
      </trkpt>
      <trkpt lat="43.63497" lon="5.40964">
        <ele>350</ele>
        <time>2019-11-30T14:28:18.000Z</time>
      </trkpt>
      <trkpt lat="43.63497" lon="5.40964">
        <ele>350</ele>
        <time>2019-11-30T14:28:19.000Z</time>
      </trkpt>
      <trkpt lat="43.63497" lon="5.40964">
        <ele>350</ele>
        <time>2019-11-30T14:28:20.000Z</time>
      </trkpt>
      <trkpt lat="43.63497" lon="5.40964">
        <ele>350</ele>
        <time>2019-11-30T14:28:21.000Z</time>
      </trkpt>
      <trkpt lat="43.63497" lon="5.40964">
        <ele>350</ele>
        <time>2019-11-30T14:28:22.000Z</time>
      </trkpt>
      <trkpt lat="43.63497" lon="5.40964">
        <ele>350</ele>
        <time>2019-11-30T14:28:23.000Z</time>
      </trkpt>
      <trkpt lat="43.63497" lon="5.40964">
        <ele>350.20001220703</ele>
        <time>2019-11-30T14:28:24.000Z</time>
      </trkpt>
      <trkpt lat="43.63497" lon="5.40964">
        <ele>350.20001220703</ele>
        <time>2019-11-30T14:28:25.000Z</time>
      </trkpt>
      <trkpt lat="43.63497" lon="5.40964">
        <ele>350.20001220703</ele>
        <time>2019-11-30T14:28:26.000Z</time>
      </trkpt>
      <trkpt lat="43.63496" lon="5.40963">
        <ele>350.39999389648</ele>
        <time>2019-11-30T14:28:27.000Z</time>
      </trkpt>
      <trkpt lat="43.63496" lon="5.40963">
        <ele>350.39999389648</ele>
        <time>2019-11-30T14:28:28.000Z</time>
      </trkpt>
      <trkpt lat="43.63495" lon="5.40962">
        <ele>350.79998779297</ele>
        <time>2019-11-30T14:28:29.000Z</time>
      </trkpt>
      <trkpt lat="43.63493" lon="5.40961">
        <ele>351.20001220703</ele>
        <time>2019-11-30T14:28:30.000Z</time>
      </trkpt>
      <trkpt lat="43.63492" lon="5.40958">
        <ele>351.79998779297</ele>
        <time>2019-11-30T14:28:31.000Z</time>
      </trkpt>
      <trkpt lat="43.63491" lon="5.40956">
        <ele>352.39999389648</ele>
        <time>2019-11-30T14:28:32.000Z</time>
      </trkpt>
      <trkpt lat="43.63489" lon="5.40954">
        <ele>353</ele>
        <time>2019-11-30T14:28:33.000Z</time>
      </trkpt>
      <trkpt lat="43.63488" lon="5.40952">
        <ele>353.39999389648</ele>
        <time>2019-11-30T14:28:34.000Z</time>
      </trkpt>
      <trkpt lat="43.63487" lon="5.40949">
        <ele>354</ele>
        <time>2019-11-30T14:28:35.000Z</time>
      </trkpt>
      <trkpt lat="43.63487" lon="5.40946">
        <ele>354.60000610352</ele>
        <time>2019-11-30T14:28:36.000Z</time>
      </trkpt>
      <trkpt lat="43.63487" lon="5.40943">
        <ele>355.20001220703</ele>
        <time>2019-11-30T14:28:37.000Z</time>
      </trkpt>
      <trkpt lat="43.63487" lon="5.40941">
        <ele>355.60000610352</ele>
        <time>2019-11-30T14:28:38.000Z</time>
      </trkpt>
      <trkpt lat="43.63488" lon="5.40939">
        <ele>356</ele>
        <time>2019-11-30T14:28:39.000Z</time>
      </trkpt>
      <trkpt lat="43.63489" lon="5.40937">
        <ele>356</ele>
        <time>2019-11-30T14:28:40.000Z</time>
      </trkpt>
      <trkpt lat="43.6349" lon="5.40934">
        <ele>356.20001220703</ele>
        <time>2019-11-30T14:28:41.000Z</time>
      </trkpt>
      <trkpt lat="43.63491" lon="5.40932">
        <ele>356.39999389648</ele>
        <time>2019-11-30T14:28:42.000Z</time>
      </trkpt>
      <trkpt lat="43.63491" lon="5.40929">
        <ele>356.79998779297</ele>
        <time>2019-11-30T14:28:43.000Z</time>
      </trkpt>
      <trkpt lat="43.63491" lon="5.40926">
        <ele>357.39999389648</ele>
        <time>2019-11-30T14:28:44.000Z</time>
      </trkpt>
      <trkpt lat="43.63491" lon="5.40923">
        <ele>357.79998779297</ele>
        <time>2019-11-30T14:28:45.000Z</time>
      </trkpt>
      <trkpt lat="43.63491" lon="5.4092">
        <ele>358.20001220703</ele>
        <time>2019-11-30T14:28:46.000Z</time>
      </trkpt>
      <trkpt lat="43.63491" lon="5.40918">
        <ele>358.39999389648</ele>
        <time>2019-11-30T14:28:47.000Z</time>
      </trkpt>
      <trkpt lat="43.63492" lon="5.40915">
        <ele>358.79998779297</ele>
        <time>2019-11-30T14:28:48.000Z</time>
      </trkpt>
      <trkpt lat="43.63493" lon="5.40912">
        <ele>359</ele>
        <time>2019-11-30T14:28:49.000Z</time>
      </trkpt>
      <trkpt lat="43.63493" lon="5.40908">
        <ele>359.60000610352</ele>
        <time>2019-11-30T14:28:50.000Z</time>
      </trkpt>
      <trkpt lat="43.63493" lon="5.40906">
        <ele>359.79998779297</ele>
        <time>2019-11-30T14:28:51.000Z</time>
      </trkpt>
      <trkpt lat="43.63495" lon="5.40904">
        <ele>360</ele>
        <time>2019-11-30T14:28:52.000Z</time>
      </trkpt>
      <trkpt lat="43.63496" lon="5.40903">
        <ele>359.79998779297</ele>
        <time>2019-11-30T14:28:53.000Z</time>
      </trkpt>
      <trkpt lat="43.63497" lon="5.40904">
        <ele>359.60000610352</ele>
        <time>2019-11-30T14:28:54.000Z</time>
      </trkpt>
      <trkpt lat="43.63499" lon="5.40903">
        <ele>359.20001220703</ele>
        <time>2019-11-30T14:28:55.000Z</time>
      </trkpt>
      <trkpt lat="43.635" lon="5.40902">
        <ele>359.20001220703</ele>
        <time>2019-11-30T14:28:56.000Z</time>
      </trkpt>
      <trkpt lat="43.63502" lon="5.40902">
        <ele>359</ele>
        <time>2019-11-30T14:28:57.000Z</time>
      </trkpt>
      <trkpt lat="43.63503" lon="5.40902">
        <ele>358.79998779297</ele>
        <time>2019-11-30T14:28:58.000Z</time>
      </trkpt>
      <trkpt lat="43.63503" lon="5.40902">
        <ele>358.79998779297</ele>
        <time>2019-11-30T14:28:59.000Z</time>
      </trkpt>
      <trkpt lat="43.63503" lon="5.40902">
        <ele>358.79998779297</ele>
        <time>2019-11-30T14:29:00.000Z</time>
      </trkpt>
      <trkpt lat="43.63504" lon="5.409">
        <ele>358.79998779297</ele>
        <time>2019-11-30T14:29:01.000Z</time>
      </trkpt>
      <trkpt lat="43.63506" lon="5.40898">
        <ele>358.79998779297</ele>
        <time>2019-11-30T14:29:02.000Z</time>
      </trkpt>
      <trkpt lat="43.63509" lon="5.40895">
        <ele>358.79998779297</ele>
        <time>2019-11-30T14:29:03.000Z</time>
      </trkpt>
      <trkpt lat="43.6351" lon="5.40892">
        <ele>359</ele>
        <time>2019-11-30T14:29:04.000Z</time>
      </trkpt>
      <trkpt lat="43.6351" lon="5.40887">
        <ele>359.60000610352</ele>
        <time>2019-11-30T14:29:05.000Z</time>
      </trkpt>
      <trkpt lat="43.6351" lon="5.40884">
        <ele>360.20001220703</ele>
        <time>2019-11-30T14:29:06.000Z</time>
      </trkpt>
      <trkpt lat="43.63511" lon="5.40881">
        <ele>360.39999389648</ele>
        <time>2019-11-30T14:29:07.000Z</time>
      </trkpt>
      <trkpt lat="43.63513" lon="5.40879">
        <ele>360.60000610352</ele>
        <time>2019-11-30T14:29:08.000Z</time>
      </trkpt>
      <trkpt lat="43.63513" lon="5.40876">
        <ele>361</ele>
        <time>2019-11-30T14:29:09.000Z</time>
      </trkpt>
      <trkpt lat="43.63513" lon="5.40874">
        <ele>361.39999389648</ele>
        <time>2019-11-30T14:29:10.000Z</time>
      </trkpt>
      <trkpt lat="43.63514" lon="5.40875">
        <ele>361</ele>
        <time>2019-11-30T14:29:11.000Z</time>
      </trkpt>
      <trkpt lat="43.63514" lon="5.40875">
        <ele>361</ele>
        <time>2019-11-30T14:29:12.000Z</time>
      </trkpt>
      <trkpt lat="43.63514" lon="5.40875">
        <ele>361</ele>
        <time>2019-11-30T14:29:13.000Z</time>
      </trkpt>
      <trkpt lat="43.63515" lon="5.40875">
        <ele>361</ele>
        <time>2019-11-30T14:29:14.000Z</time>
      </trkpt>
      <trkpt lat="43.63515" lon="5.40875">
        <ele>361</ele>
        <time>2019-11-30T14:29:15.000Z</time>
      </trkpt>
      <trkpt lat="43.63515" lon="5.40875">
        <ele>361</ele>
        <time>2019-11-30T14:29:16.000Z</time>
      </trkpt>
      <trkpt lat="43.63515" lon="5.40875">
        <ele>361</ele>
        <time>2019-11-30T14:29:17.000Z</time>
      </trkpt>
      <trkpt lat="43.63516" lon="5.40875">
        <ele>360.79998779297</ele>
        <time>2019-11-30T14:29:18.000Z</time>
      </trkpt>
      <trkpt lat="43.63516" lon="5.40875">
        <ele>360.79998779297</ele>
        <time>2019-11-30T14:29:19.000Z</time>
      </trkpt>
      <trkpt lat="43.63516" lon="5.40874">
        <ele>361</ele>
        <time>2019-11-30T14:29:20.000Z</time>
      </trkpt>
      <trkpt lat="43.63516" lon="5.40874">
        <ele>361</ele>
        <time>2019-11-30T14:29:21.000Z</time>
      </trkpt>
      <trkpt lat="43.63516" lon="5.40874">
        <ele>361</ele>
        <time>2019-11-30T14:29:22.000Z</time>
      </trkpt>
      <trkpt lat="43.63516" lon="5.40874">
        <ele>361</ele>
        <time>2019-11-30T14:29:23.000Z</time>
      </trkpt>
      <trkpt lat="43.63516" lon="5.40874">
        <ele>361</ele>
        <time>2019-11-30T14:29:24.000Z</time>
      </trkpt>
      <trkpt lat="43.63516" lon="5.40874">
        <ele>361</ele>
        <time>2019-11-30T14:29:25.000Z</time>
      </trkpt>
      <trkpt lat="43.63516" lon="5.40874">
        <ele>361</ele>
        <time>2019-11-30T14:29:26.000Z</time>
      </trkpt>
      <trkpt lat="43.63517" lon="5.40873">
        <ele>361</ele>
        <time>2019-11-30T14:29:27.000Z</time>
      </trkpt>
      <trkpt lat="43.63518" lon="5.40872">
        <ele>361</ele>
        <time>2019-11-30T14:29:28.000Z</time>
      </trkpt>
      <trkpt lat="43.63519" lon="5.40871">
        <ele>361</ele>
        <time>2019-11-30T14:29:29.000Z</time>
      </trkpt>
      <trkpt lat="43.63521" lon="5.40869">
        <ele>361.20001220703</ele>
        <time>2019-11-30T14:29:30.000Z</time>
      </trkpt>
      <trkpt lat="43.63523" lon="5.40868">
        <ele>361</ele>
        <time>2019-11-30T14:29:31.000Z</time>
      </trkpt>
      <trkpt lat="43.63525" lon="5.40868">
        <ele>360.79998779297</ele>
        <time>2019-11-30T14:29:32.000Z</time>
      </trkpt>
      <trkpt lat="43.63527" lon="5.40868">
        <ele>360.39999389648</ele>
        <time>2019-11-30T14:29:33.000Z</time>
      </trkpt>
      <trkpt lat="43.63528" lon="5.40867">
        <ele>360.39999389648</ele>
        <time>2019-11-30T14:29:34.000Z</time>
      </trkpt>
      <trkpt lat="43.6353" lon="5.40866">
        <ele>360.39999389648</ele>
        <time>2019-11-30T14:29:35.000Z</time>
      </trkpt>
      <trkpt lat="43.63531" lon="5.40864">
        <ele>360.60000610352</ele>
        <time>2019-11-30T14:29:36.000Z</time>
      </trkpt>
      <trkpt lat="43.63533" lon="5.40861">
        <ele>360.79998779297</ele>
        <time>2019-11-30T14:29:37.000Z</time>
      </trkpt>
      <trkpt lat="43.63534" lon="5.40859">
        <ele>361.20001220703</ele>
        <time>2019-11-30T14:29:38.000Z</time>
      </trkpt>
      <trkpt lat="43.63534" lon="5.40857">
        <ele>361.60000610352</ele>
        <time>2019-11-30T14:29:39.000Z</time>
      </trkpt>
      <trkpt lat="43.63534" lon="5.40854">
        <ele>362</ele>
        <time>2019-11-30T14:29:40.000Z</time>
      </trkpt>
      <trkpt lat="43.63534" lon="5.40851">
        <ele>362.60000610352</ele>
        <time>2019-11-30T14:29:41.000Z</time>
      </trkpt>
      <trkpt lat="43.63535" lon="5.40849">
        <ele>363</ele>
        <time>2019-11-30T14:29:42.000Z</time>
      </trkpt>
      <trkpt lat="43.63535" lon="5.40846">
        <ele>363.20001220703</ele>
        <time>2019-11-30T14:29:43.000Z</time>
      </trkpt>
      <trkpt lat="43.63536" lon="5.40844">
        <ele>363.60000610352</ele>
        <time>2019-11-30T14:29:44.000Z</time>
      </trkpt>
      <trkpt lat="43.63536" lon="5.40842">
        <ele>364</ele>
        <time>2019-11-30T14:29:45.000Z</time>
      </trkpt>
      <trkpt lat="43.63536" lon="5.4084">
        <ele>364.20001220703</ele>
        <time>2019-11-30T14:29:46.000Z</time>
      </trkpt>
      <trkpt lat="43.63537" lon="5.40838">
        <ele>364.60000610352</ele>
        <time>2019-11-30T14:29:47.000Z</time>
      </trkpt>
      <trkpt lat="43.63538" lon="5.40835">
        <ele>365</ele>
        <time>2019-11-30T14:29:48.000Z</time>
      </trkpt>
      <trkpt lat="43.63539" lon="5.40833">
        <ele>365.39999389648</ele>
        <time>2019-11-30T14:29:49.000Z</time>
      </trkpt>
      <trkpt lat="43.6354" lon="5.4083">
        <ele>365.60000610352</ele>
        <time>2019-11-30T14:29:50.000Z</time>
      </trkpt>
      <trkpt lat="43.63541" lon="5.40827">
        <ele>366.20001220703</ele>
        <time>2019-11-30T14:29:51.000Z</time>
      </trkpt>
      <trkpt lat="43.63541" lon="5.40824">
        <ele>366.60000610352</ele>
        <time>2019-11-30T14:29:52.000Z</time>
      </trkpt>
      <trkpt lat="43.63543" lon="5.40821">
        <ele>367</ele>
        <time>2019-11-30T14:29:53.000Z</time>
      </trkpt>
      <trkpt lat="43.63544" lon="5.4082">
        <ele>367.20001220703</ele>
        <time>2019-11-30T14:29:54.000Z</time>
      </trkpt>
      <trkpt lat="43.63546" lon="5.40818">
        <ele>367.39999389648</ele>
        <time>2019-11-30T14:29:55.000Z</time>
      </trkpt>
      <trkpt lat="43.63547" lon="5.40815">
        <ele>367.79998779297</ele>
        <time>2019-11-30T14:29:56.000Z</time>
      </trkpt>
      <trkpt lat="43.63548" lon="5.40813">
        <ele>368.20001220703</ele>
        <time>2019-11-30T14:29:57.000Z</time>
      </trkpt>
      <trkpt lat="43.63549" lon="5.4081">
        <ele>368.60000610352</ele>
        <time>2019-11-30T14:29:58.000Z</time>
      </trkpt>
      <trkpt lat="43.6355" lon="5.40808">
        <ele>369</ele>
        <time>2019-11-30T14:29:59.000Z</time>
      </trkpt>
      <trkpt lat="43.6355" lon="5.40805">
        <ele>369.39999389648</ele>
        <time>2019-11-30T14:30:00.000Z</time>
      </trkpt>
      <trkpt lat="43.63551" lon="5.40802">
        <ele>370</ele>
        <time>2019-11-30T14:30:01.000Z</time>
      </trkpt>
      <trkpt lat="43.63552" lon="5.408">
        <ele>370.39999389648</ele>
        <time>2019-11-30T14:30:02.000Z</time>
      </trkpt>
      <trkpt lat="43.63553" lon="5.40798">
        <ele>370.79998779297</ele>
        <time>2019-11-30T14:30:03.000Z</time>
      </trkpt>
      <trkpt lat="43.63554" lon="5.40795">
        <ele>371</ele>
        <time>2019-11-30T14:30:04.000Z</time>
      </trkpt>
      <trkpt lat="43.63554" lon="5.40792">
        <ele>371.60000610352</ele>
        <time>2019-11-30T14:30:05.000Z</time>
      </trkpt>
      <trkpt lat="43.63555" lon="5.40789">
        <ele>372</ele>
        <time>2019-11-30T14:30:06.000Z</time>
      </trkpt>
      <trkpt lat="43.63556" lon="5.40787">
        <ele>372.39999389648</ele>
        <time>2019-11-30T14:30:07.000Z</time>
      </trkpt>
      <trkpt lat="43.63557" lon="5.40784">
        <ele>372.79998779297</ele>
        <time>2019-11-30T14:30:08.000Z</time>
      </trkpt>
      <trkpt lat="43.63558" lon="5.40782">
        <ele>373</ele>
        <time>2019-11-30T14:30:09.000Z</time>
      </trkpt>
      <trkpt lat="43.63559" lon="5.40779">
        <ele>373.39999389648</ele>
        <time>2019-11-30T14:30:10.000Z</time>
      </trkpt>
      <trkpt lat="43.6356" lon="5.40776">
        <ele>374</ele>
        <time>2019-11-30T14:30:11.000Z</time>
      </trkpt>
      <trkpt lat="43.6356" lon="5.40773">
        <ele>374.39999389648</ele>
        <time>2019-11-30T14:30:12.000Z</time>
      </trkpt>
      <trkpt lat="43.63561" lon="5.4077">
        <ele>374.79998779297</ele>
        <time>2019-11-30T14:30:13.000Z</time>
      </trkpt>
      <trkpt lat="43.63562" lon="5.40767">
        <ele>375.39999389648</ele>
        <time>2019-11-30T14:30:14.000Z</time>
      </trkpt>
      <trkpt lat="43.63562" lon="5.40764">
        <ele>375.79998779297</ele>
        <time>2019-11-30T14:30:15.000Z</time>
      </trkpt>
      <trkpt lat="43.63563" lon="5.4076">
        <ele>376.60000610352</ele>
        <time>2019-11-30T14:30:16.000Z</time>
      </trkpt>
      <trkpt lat="43.63563" lon="5.40757">
        <ele>377.20001220703</ele>
        <time>2019-11-30T14:30:17.000Z</time>
      </trkpt>
      <trkpt lat="43.63563" lon="5.40755">
        <ele>377.60000610352</ele>
        <time>2019-11-30T14:30:18.000Z</time>
      </trkpt>
      <trkpt lat="43.63563" lon="5.40753">
        <ele>378</ele>
        <time>2019-11-30T14:30:19.000Z</time>
      </trkpt>
      <trkpt lat="43.63563" lon="5.40751">
        <ele>378.60000610352</ele>
        <time>2019-11-30T14:30:20.000Z</time>
      </trkpt>
      <trkpt lat="43.63562" lon="5.40748">
        <ele>379.39999389648</ele>
        <time>2019-11-30T14:30:21.000Z</time>
      </trkpt>
      <trkpt lat="43.63562" lon="5.40745">
        <ele>380.20001220703</ele>
        <time>2019-11-30T14:30:22.000Z</time>
      </trkpt>
      <trkpt lat="43.63562" lon="5.40742">
        <ele>380.79998779297</ele>
        <time>2019-11-30T14:30:23.000Z</time>
      </trkpt>
      <trkpt lat="43.63561" lon="5.40738">
        <ele>381.79998779297</ele>
        <time>2019-11-30T14:30:24.000Z</time>
      </trkpt>
      <trkpt lat="43.63561" lon="5.40735">
        <ele>382.39999389648</ele>
        <time>2019-11-30T14:30:25.000Z</time>
      </trkpt>
      <trkpt lat="43.6356" lon="5.40733">
        <ele>383</ele>
        <time>2019-11-30T14:30:26.000Z</time>
      </trkpt>
      <trkpt lat="43.6356" lon="5.4073">
        <ele>383.60000610352</ele>
        <time>2019-11-30T14:30:27.000Z</time>
      </trkpt>
      <trkpt lat="43.63561" lon="5.40728">
        <ele>384</ele>
        <time>2019-11-30T14:30:28.000Z</time>
      </trkpt>
      <trkpt lat="43.63561" lon="5.40727">
        <ele>384.39999389648</ele>
        <time>2019-11-30T14:30:29.000Z</time>
      </trkpt>
      <trkpt lat="43.63561" lon="5.40727">
        <ele>384.39999389648</ele>
        <time>2019-11-30T14:30:30.000Z</time>
      </trkpt>
      <trkpt lat="43.63561" lon="5.40727">
        <ele>384.39999389648</ele>
        <time>2019-11-30T14:30:31.000Z</time>
      </trkpt>
      <trkpt lat="43.63561" lon="5.40727">
        <ele>384.39999389648</ele>
        <time>2019-11-30T14:30:32.000Z</time>
      </trkpt>
      <trkpt lat="43.63561" lon="5.40727">
        <ele>384.39999389648</ele>
        <time>2019-11-30T14:30:33.000Z</time>
      </trkpt>
      <trkpt lat="43.63561" lon="5.40727">
        <ele>384.39999389648</ele>
        <time>2019-11-30T14:30:34.000Z</time>
      </trkpt>
      <trkpt lat="43.63561" lon="5.40727">
        <ele>384.39999389648</ele>
        <time>2019-11-30T14:30:35.000Z</time>
      </trkpt>
      <trkpt lat="43.63561" lon="5.40727">
        <ele>384.39999389648</ele>
        <time>2019-11-30T14:30:36.000Z</time>
      </trkpt>
      <trkpt lat="43.63561" lon="5.40727">
        <ele>384.39999389648</ele>
        <time>2019-11-30T14:30:37.000Z</time>
      </trkpt>
      <trkpt lat="43.63561" lon="5.40727">
        <ele>384.39999389648</ele>
        <time>2019-11-30T14:30:38.000Z</time>
      </trkpt>
      <trkpt lat="43.63561" lon="5.40727">
        <ele>384.39999389648</ele>
        <time>2019-11-30T14:30:39.000Z</time>
      </trkpt>
      <trkpt lat="43.63561" lon="5.40727">
        <ele>384.39999389648</ele>
        <time>2019-11-30T14:30:40.000Z</time>
      </trkpt>
      <trkpt lat="43.63561" lon="5.40727">
        <ele>384.39999389648</ele>
        <time>2019-11-30T14:30:41.000Z</time>
      </trkpt>
      <trkpt lat="43.63561" lon="5.40727">
        <ele>384.39999389648</ele>
        <time>2019-11-30T14:30:42.000Z</time>
      </trkpt>
      <trkpt lat="43.63561" lon="5.40727">
        <ele>384.39999389648</ele>
        <time>2019-11-30T14:30:43.000Z</time>
      </trkpt>
      <trkpt lat="43.63561" lon="5.40727">
        <ele>384.39999389648</ele>
        <time>2019-11-30T14:30:44.000Z</time>
      </trkpt>
      <trkpt lat="43.63561" lon="5.40727">
        <ele>384.39999389648</ele>
        <time>2019-11-30T14:30:45.000Z</time>
      </trkpt>
      <trkpt lat="43.63561" lon="5.40727">
        <ele>384.39999389648</ele>
        <time>2019-11-30T14:30:46.000Z</time>
      </trkpt>
      <trkpt lat="43.63561" lon="5.40727">
        <ele>384.39999389648</ele>
        <time>2019-11-30T14:30:47.000Z</time>
      </trkpt>
      <trkpt lat="43.63561" lon="5.40727">
        <ele>384.39999389648</ele>
        <time>2019-11-30T14:30:48.000Z</time>
      </trkpt>
      <trkpt lat="43.63561" lon="5.40727">
        <ele>384.39999389648</ele>
        <time>2019-11-30T14:30:49.000Z</time>
      </trkpt>
      <trkpt lat="43.63561" lon="5.40727">
        <ele>384.39999389648</ele>
        <time>2019-11-30T14:30:50.000Z</time>
      </trkpt>
      <trkpt lat="43.63561" lon="5.40727">
        <ele>384.39999389648</ele>
        <time>2019-11-30T14:30:51.000Z</time>
      </trkpt>
      <trkpt lat="43.63561" lon="5.40727">
        <ele>384.39999389648</ele>
        <time>2019-11-30T14:30:52.000Z</time>
      </trkpt>
      <trkpt lat="43.63561" lon="5.40727">
        <ele>384.39999389648</ele>
        <time>2019-11-30T14:30:53.000Z</time>
      </trkpt>
      <trkpt lat="43.63561" lon="5.40727">
        <ele>384.39999389648</ele>
        <time>2019-11-30T14:30:54.000Z</time>
      </trkpt>
      <trkpt lat="43.63561" lon="5.40727">
        <ele>384.39999389648</ele>
        <time>2019-11-30T14:30:55.000Z</time>
      </trkpt>
      <trkpt lat="43.63561" lon="5.40727">
        <ele>384.39999389648</ele>
        <time>2019-11-30T14:30:56.000Z</time>
      </trkpt>
      <trkpt lat="43.63561" lon="5.40727">
        <ele>384.39999389648</ele>
        <time>2019-11-30T14:30:57.000Z</time>
      </trkpt>
      <trkpt lat="43.63561" lon="5.40727">
        <ele>384.39999389648</ele>
        <time>2019-11-30T14:30:58.000Z</time>
      </trkpt>
      <trkpt lat="43.63561" lon="5.40727">
        <ele>384.39999389648</ele>
        <time>2019-11-30T14:30:59.000Z</time>
      </trkpt>
      <trkpt lat="43.6356" lon="5.40727">
        <ele>384.39999389648</ele>
        <time>2019-11-30T14:31:00.000Z</time>
      </trkpt>
      <trkpt lat="43.6356" lon="5.40728">
        <ele>384.20001220703</ele>
        <time>2019-11-30T14:31:01.000Z</time>
      </trkpt>
      <trkpt lat="43.6356" lon="5.40729">
        <ele>383.79998779297</ele>
        <time>2019-11-30T14:31:02.000Z</time>
      </trkpt>
      <trkpt lat="43.6356" lon="5.40729">
        <ele>383.79998779297</ele>
        <time>2019-11-30T14:31:03.000Z</time>
      </trkpt>
      <trkpt lat="43.6356" lon="5.40729">
        <ele>383.79998779297</ele>
        <time>2019-11-30T14:31:04.000Z</time>
      </trkpt>
      <trkpt lat="43.6356" lon="5.40729">
        <ele>383.79998779297</ele>
        <time>2019-11-30T14:31:05.000Z</time>
      </trkpt>
      <trkpt lat="43.6356" lon="5.40729">
        <ele>383.79998779297</ele>
        <time>2019-11-30T14:31:06.000Z</time>
      </trkpt>
      <trkpt lat="43.6356" lon="5.40729">
        <ele>383.79998779297</ele>
        <time>2019-11-30T14:31:07.000Z</time>
      </trkpt>
      <trkpt lat="43.6356" lon="5.40729">
        <ele>383.79998779297</ele>
        <time>2019-11-30T14:31:08.000Z</time>
      </trkpt>
      <trkpt lat="43.6356" lon="5.40729">
        <ele>383.79998779297</ele>
        <time>2019-11-30T14:31:09.000Z</time>
      </trkpt>
      <trkpt lat="43.6356" lon="5.40729">
        <ele>383.79998779297</ele>
        <time>2019-11-30T14:31:10.000Z</time>
      </trkpt>
      <trkpt lat="43.6356" lon="5.40729">
        <ele>383.79998779297</ele>
        <time>2019-11-30T14:31:11.000Z</time>
      </trkpt>
      <trkpt lat="43.6356" lon="5.40729">
        <ele>383.79998779297</ele>
        <time>2019-11-30T14:31:12.000Z</time>
      </trkpt>
      <trkpt lat="43.6356" lon="5.40729">
        <ele>383.79998779297</ele>
        <time>2019-11-30T14:31:13.000Z</time>
      </trkpt>
      <trkpt lat="43.6356" lon="5.40729">
        <ele>383.79998779297</ele>
        <time>2019-11-30T14:31:14.000Z</time>
      </trkpt>
      <trkpt lat="43.6356" lon="5.40729">
        <ele>383.79998779297</ele>
        <time>2019-11-30T14:31:15.000Z</time>
      </trkpt>
      <trkpt lat="43.6356" lon="5.40729">
        <ele>383.79998779297</ele>
        <time>2019-11-30T14:31:16.000Z</time>
      </trkpt>
      <trkpt lat="43.6356" lon="5.40729">
        <ele>383.79998779297</ele>
        <time>2019-11-30T14:31:17.000Z</time>
      </trkpt>
      <trkpt lat="43.6356" lon="5.40729">
        <ele>383.79998779297</ele>
        <time>2019-11-30T14:31:18.000Z</time>
      </trkpt>
      <trkpt lat="43.6356" lon="5.40729">
        <ele>383.79998779297</ele>
        <time>2019-11-30T14:31:19.000Z</time>
      </trkpt>
      <trkpt lat="43.6356" lon="5.40729">
        <ele>383.79998779297</ele>
        <time>2019-11-30T14:31:20.000Z</time>
      </trkpt>
      <trkpt lat="43.6356" lon="5.40729">
        <ele>383.79998779297</ele>
        <time>2019-11-30T14:31:21.000Z</time>
      </trkpt>
      <trkpt lat="43.6356" lon="5.40729">
        <ele>383.79998779297</ele>
        <time>2019-11-30T14:31:22.000Z</time>
      </trkpt>
      <trkpt lat="43.6356" lon="5.40729">
        <ele>383.79998779297</ele>
        <time>2019-11-30T14:31:23.000Z</time>
      </trkpt>
      <trkpt lat="43.6356" lon="5.40729">
        <ele>383.79998779297</ele>
        <time>2019-11-30T14:31:24.000Z</time>
      </trkpt>
      <trkpt lat="43.6356" lon="5.40729">
        <ele>383.79998779297</ele>
        <time>2019-11-30T14:31:25.000Z</time>
      </trkpt>
      <trkpt lat="43.6356" lon="5.40729">
        <ele>383.79998779297</ele>
        <time>2019-11-30T14:31:26.000Z</time>
      </trkpt>
      <trkpt lat="43.6356" lon="5.40729">
        <ele>383.79998779297</ele>
        <time>2019-11-30T14:31:27.000Z</time>
      </trkpt>
      <trkpt lat="43.6356" lon="5.40729">
        <ele>383.79998779297</ele>
        <time>2019-11-30T14:31:28.000Z</time>
      </trkpt>
      <trkpt lat="43.6356" lon="5.40729">
        <ele>383.79998779297</ele>
        <time>2019-11-30T14:31:29.000Z</time>
      </trkpt>
      <trkpt lat="43.6356" lon="5.40729">
        <ele>383.79998779297</ele>
        <time>2019-11-30T14:31:30.000Z</time>
      </trkpt>
      <trkpt lat="43.6356" lon="5.40729">
        <ele>383.79998779297</ele>
        <time>2019-11-30T14:31:31.000Z</time>
      </trkpt>
      <trkpt lat="43.6356" lon="5.40729">
        <ele>383.79998779297</ele>
        <time>2019-11-30T14:31:32.000Z</time>
      </trkpt>
      <trkpt lat="43.6356" lon="5.40729">
        <ele>383.79998779297</ele>
        <time>2019-11-30T14:31:33.000Z</time>
      </trkpt>
      <trkpt lat="43.6356" lon="5.40729">
        <ele>383.79998779297</ele>
        <time>2019-11-30T14:31:34.000Z</time>
      </trkpt>
      <trkpt lat="43.6356" lon="5.40729">
        <ele>383.79998779297</ele>
        <time>2019-11-30T14:31:35.000Z</time>
      </trkpt>
      <trkpt lat="43.6356" lon="5.40729">
        <ele>383.79998779297</ele>
        <time>2019-11-30T14:31:36.000Z</time>
      </trkpt>
      <trkpt lat="43.6356" lon="5.40729">
        <ele>383.79998779297</ele>
        <time>2019-11-30T14:31:37.000Z</time>
      </trkpt>
      <trkpt lat="43.6356" lon="5.40729">
        <ele>383.79998779297</ele>
        <time>2019-11-30T14:31:38.000Z</time>
      </trkpt>
      <trkpt lat="43.6356" lon="5.40729">
        <ele>383.79998779297</ele>
        <time>2019-11-30T14:31:39.000Z</time>
      </trkpt>
      <trkpt lat="43.6356" lon="5.40729">
        <ele>383.79998779297</ele>
        <time>2019-11-30T14:31:40.000Z</time>
      </trkpt>
      <trkpt lat="43.6356" lon="5.40729">
        <ele>383.79998779297</ele>
        <time>2019-11-30T14:31:41.000Z</time>
      </trkpt>
      <trkpt lat="43.6356" lon="5.40729">
        <ele>383.79998779297</ele>
        <time>2019-11-30T14:31:42.000Z</time>
      </trkpt>
      <trkpt lat="43.6356" lon="5.40729">
        <ele>383.79998779297</ele>
        <time>2019-11-30T14:31:43.000Z</time>
      </trkpt>
      <trkpt lat="43.6356" lon="5.40729">
        <ele>383.79998779297</ele>
        <time>2019-11-30T14:31:44.000Z</time>
      </trkpt>
      <trkpt lat="43.6356" lon="5.40729">
        <ele>383.79998779297</ele>
        <time>2019-11-30T14:31:45.000Z</time>
      </trkpt>
      <trkpt lat="43.6356" lon="5.40729">
        <ele>383.79998779297</ele>
        <time>2019-11-30T14:31:46.000Z</time>
      </trkpt>
      <trkpt lat="43.6356" lon="5.40729">
        <ele>383.79998779297</ele>
        <time>2019-11-30T14:31:47.000Z</time>
      </trkpt>
      <trkpt lat="43.6356" lon="5.40729">
        <ele>383.79998779297</ele>
        <time>2019-11-30T14:31:48.000Z</time>
      </trkpt>
      <trkpt lat="43.6356" lon="5.40729">
        <ele>383.79998779297</ele>
        <time>2019-11-30T14:31:49.000Z</time>
      </trkpt>
      <trkpt lat="43.6356" lon="5.40729">
        <ele>383.79998779297</ele>
        <time>2019-11-30T14:31:50.000Z</time>
      </trkpt>
      <trkpt lat="43.6356" lon="5.40729">
        <ele>383.79998779297</ele>
        <time>2019-11-30T14:31:51.000Z</time>
      </trkpt>
      <trkpt lat="43.6356" lon="5.40729">
        <ele>383.79998779297</ele>
        <time>2019-11-30T14:31:52.000Z</time>
      </trkpt>
      <trkpt lat="43.6356" lon="5.40729">
        <ele>383.79998779297</ele>
        <time>2019-11-30T14:31:53.000Z</time>
      </trkpt>
      <trkpt lat="43.6356" lon="5.40729">
        <ele>383.79998779297</ele>
        <time>2019-11-30T14:31:54.000Z</time>
      </trkpt>
      <trkpt lat="43.6356" lon="5.40729">
        <ele>383.79998779297</ele>
        <time>2019-11-30T14:31:55.000Z</time>
      </trkpt>
      <trkpt lat="43.6356" lon="5.40729">
        <ele>383.79998779297</ele>
        <time>2019-11-30T14:31:56.000Z</time>
      </trkpt>
      <trkpt lat="43.6356" lon="5.40729">
        <ele>383.79998779297</ele>
        <time>2019-11-30T14:31:57.000Z</time>
      </trkpt>
      <trkpt lat="43.6356" lon="5.40729">
        <ele>383.79998779297</ele>
        <time>2019-11-30T14:31:58.000Z</time>
      </trkpt>
      <trkpt lat="43.6356" lon="5.40729">
        <ele>383.79998779297</ele>
        <time>2019-11-30T14:31:59.000Z</time>
      </trkpt>
      <trkpt lat="43.6356" lon="5.40729">
        <ele>383.79998779297</ele>
        <time>2019-11-30T14:32:00.000Z</time>
      </trkpt>
      <trkpt lat="43.6356" lon="5.40729">
        <ele>383.79998779297</ele>
        <time>2019-11-30T14:32:01.000Z</time>
      </trkpt>
      <trkpt lat="43.6356" lon="5.40729">
        <ele>383.79998779297</ele>
        <time>2019-11-30T14:32:02.000Z</time>
      </trkpt>
      <trkpt lat="43.6356" lon="5.40729">
        <ele>383.79998779297</ele>
        <time>2019-11-30T14:32:03.000Z</time>
      </trkpt>
      <trkpt lat="43.6356" lon="5.40729">
        <ele>383.79998779297</ele>
        <time>2019-11-30T14:32:04.000Z</time>
      </trkpt>
      <trkpt lat="43.6356" lon="5.40729">
        <ele>383.79998779297</ele>
        <time>2019-11-30T14:32:05.000Z</time>
      </trkpt>
      <trkpt lat="43.6356" lon="5.40729">
        <ele>383.79998779297</ele>
        <time>2019-11-30T14:32:06.000Z</time>
      </trkpt>
      <trkpt lat="43.6356" lon="5.40729">
        <ele>383.79998779297</ele>
        <time>2019-11-30T14:32:07.000Z</time>
      </trkpt>
      <trkpt lat="43.6356" lon="5.40729">
        <ele>383.79998779297</ele>
        <time>2019-11-30T14:32:08.000Z</time>
      </trkpt>
      <trkpt lat="43.6356" lon="5.40729">
        <ele>383.79998779297</ele>
        <time>2019-11-30T14:32:09.000Z</time>
      </trkpt>
      <trkpt lat="43.6356" lon="5.40729">
        <ele>383.79998779297</ele>
        <time>2019-11-30T14:32:10.000Z</time>
      </trkpt>
      <trkpt lat="43.6356" lon="5.40729">
        <ele>383.79998779297</ele>
        <time>2019-11-30T14:32:11.000Z</time>
      </trkpt>
      <trkpt lat="43.6356" lon="5.40729">
        <ele>383.79998779297</ele>
        <time>2019-11-30T14:32:12.000Z</time>
      </trkpt>
      <trkpt lat="43.6356" lon="5.40729">
        <ele>383.79998779297</ele>
        <time>2019-11-30T14:32:13.000Z</time>
      </trkpt>
      <trkpt lat="43.6356" lon="5.40729">
        <ele>383.79998779297</ele>
        <time>2019-11-30T14:32:14.000Z</time>
      </trkpt>
      <trkpt lat="43.6356" lon="5.40729">
        <ele>383.79998779297</ele>
        <time>2019-11-30T14:32:15.000Z</time>
      </trkpt>
      <trkpt lat="43.6356" lon="5.40729">
        <ele>383.79998779297</ele>
        <time>2019-11-30T14:32:16.000Z</time>
      </trkpt>
      <trkpt lat="43.6356" lon="5.40729">
        <ele>383.79998779297</ele>
        <time>2019-11-30T14:32:17.000Z</time>
      </trkpt>
      <trkpt lat="43.6356" lon="5.40729">
        <ele>383.79998779297</ele>
        <time>2019-11-30T14:32:18.000Z</time>
      </trkpt>
      <trkpt lat="43.6356" lon="5.40729">
        <ele>383.79998779297</ele>
        <time>2019-11-30T14:32:19.000Z</time>
      </trkpt>
      <trkpt lat="43.6356" lon="5.40729">
        <ele>383.79998779297</ele>
        <time>2019-11-30T14:32:20.000Z</time>
      </trkpt>
      <trkpt lat="43.6356" lon="5.40729">
        <ele>383.79998779297</ele>
        <time>2019-11-30T14:32:21.000Z</time>
      </trkpt>
      <trkpt lat="43.6356" lon="5.40729">
        <ele>383.79998779297</ele>
        <time>2019-11-30T14:32:22.000Z</time>
      </trkpt>
      <trkpt lat="43.6356" lon="5.40729">
        <ele>383.79998779297</ele>
        <time>2019-11-30T14:32:23.000Z</time>
      </trkpt>
      <trkpt lat="43.6356" lon="5.40729">
        <ele>383.79998779297</ele>
        <time>2019-11-30T14:32:24.000Z</time>
      </trkpt>
      <trkpt lat="43.6356" lon="5.40729">
        <ele>383.79998779297</ele>
        <time>2019-11-30T14:32:25.000Z</time>
      </trkpt>
      <trkpt lat="43.6356" lon="5.40729">
        <ele>383.79998779297</ele>
        <time>2019-11-30T14:32:26.000Z</time>
      </trkpt>
      <trkpt lat="43.6356" lon="5.40729">
        <ele>383.79998779297</ele>
        <time>2019-11-30T14:32:27.000Z</time>
      </trkpt>
      <trkpt lat="43.6356" lon="5.40729">
        <ele>383.79998779297</ele>
        <time>2019-11-30T14:32:28.000Z</time>
      </trkpt>
      <trkpt lat="43.6356" lon="5.40729">
        <ele>383.79998779297</ele>
        <time>2019-11-30T14:32:29.000Z</time>
      </trkpt>
      <trkpt lat="43.6356" lon="5.40729">
        <ele>383.79998779297</ele>
        <time>2019-11-30T14:32:30.000Z</time>
      </trkpt>
      <trkpt lat="43.6356" lon="5.40729">
        <ele>383.79998779297</ele>
        <time>2019-11-30T14:32:31.000Z</time>
      </trkpt>
      <trkpt lat="43.6356" lon="5.40729">
        <ele>383.79998779297</ele>
        <time>2019-11-30T14:32:32.000Z</time>
      </trkpt>
      <trkpt lat="43.6356" lon="5.40729">
        <ele>383.79998779297</ele>
        <time>2019-11-30T14:32:33.000Z</time>
      </trkpt>
      <trkpt lat="43.6356" lon="5.40729">
        <ele>383.79998779297</ele>
        <time>2019-11-30T14:32:34.000Z</time>
      </trkpt>
      <trkpt lat="43.6356" lon="5.40729">
        <ele>383.79998779297</ele>
        <time>2019-11-30T14:32:35.000Z</time>
      </trkpt>
      <trkpt lat="43.6356" lon="5.40729">
        <ele>383.79998779297</ele>
        <time>2019-11-30T14:32:36.000Z</time>
      </trkpt>
      <trkpt lat="43.6356" lon="5.40729">
        <ele>383.79998779297</ele>
        <time>2019-11-30T14:32:37.000Z</time>
      </trkpt>
      <trkpt lat="43.6356" lon="5.40729">
        <ele>383.79998779297</ele>
        <time>2019-11-30T14:32:38.000Z</time>
      </trkpt>
      <trkpt lat="43.6356" lon="5.40729">
        <ele>383.79998779297</ele>
        <time>2019-11-30T14:32:39.000Z</time>
      </trkpt>
      <trkpt lat="43.6356" lon="5.40729">
        <ele>383.79998779297</ele>
        <time>2019-11-30T14:32:40.000Z</time>
      </trkpt>
      <trkpt lat="43.6356" lon="5.40729">
        <ele>383.79998779297</ele>
        <time>2019-11-30T14:32:41.000Z</time>
      </trkpt>
      <trkpt lat="43.6356" lon="5.40729">
        <ele>383.79998779297</ele>
        <time>2019-11-30T14:32:42.000Z</time>
      </trkpt>
      <trkpt lat="43.6356" lon="5.40729">
        <ele>383.79998779297</ele>
        <time>2019-11-30T14:32:43.000Z</time>
      </trkpt>
      <trkpt lat="43.6356" lon="5.40729">
        <ele>383.79998779297</ele>
        <time>2019-11-30T14:32:44.000Z</time>
      </trkpt>
      <trkpt lat="43.6356" lon="5.40729">
        <ele>383.79998779297</ele>
        <time>2019-11-30T14:32:45.000Z</time>
      </trkpt>
      <trkpt lat="43.6356" lon="5.40729">
        <ele>383.79998779297</ele>
        <time>2019-11-30T14:32:46.000Z</time>
      </trkpt>
      <trkpt lat="43.6356" lon="5.40729">
        <ele>383.79998779297</ele>
        <time>2019-11-30T14:32:47.000Z</time>
      </trkpt>
      <trkpt lat="43.6356" lon="5.40729">
        <ele>383.79998779297</ele>
        <time>2019-11-30T14:32:48.000Z</time>
      </trkpt>
      <trkpt lat="43.6356" lon="5.40729">
        <ele>383.79998779297</ele>
        <time>2019-11-30T14:32:49.000Z</time>
      </trkpt>
      <trkpt lat="43.6356" lon="5.40729">
        <ele>383.79998779297</ele>
        <time>2019-11-30T14:32:50.000Z</time>
      </trkpt>
      <trkpt lat="43.6356" lon="5.40729">
        <ele>383.79998779297</ele>
        <time>2019-11-30T14:32:51.000Z</time>
      </trkpt>
      <trkpt lat="43.6356" lon="5.40729">
        <ele>383.79998779297</ele>
        <time>2019-11-30T14:32:52.000Z</time>
      </trkpt>
      <trkpt lat="43.6356" lon="5.40729">
        <ele>383.79998779297</ele>
        <time>2019-11-30T14:32:53.000Z</time>
      </trkpt>
      <trkpt lat="43.6356" lon="5.40729">
        <ele>383.79998779297</ele>
        <time>2019-11-30T14:32:54.000Z</time>
      </trkpt>
      <trkpt lat="43.6356" lon="5.40729">
        <ele>383.79998779297</ele>
        <time>2019-11-30T14:32:55.000Z</time>
      </trkpt>
      <trkpt lat="43.6356" lon="5.40729">
        <ele>383.79998779297</ele>
        <time>2019-11-30T14:32:56.000Z</time>
      </trkpt>
      <trkpt lat="43.6356" lon="5.40729">
        <ele>383.79998779297</ele>
        <time>2019-11-30T14:32:57.000Z</time>
      </trkpt>
      <trkpt lat="43.6356" lon="5.40729">
        <ele>383.79998779297</ele>
        <time>2019-11-30T14:32:58.000Z</time>
      </trkpt>
      <trkpt lat="43.6356" lon="5.40729">
        <ele>383.79998779297</ele>
        <time>2019-11-30T14:32:59.000Z</time>
      </trkpt>
      <trkpt lat="43.6356" lon="5.40729">
        <ele>383.79998779297</ele>
        <time>2019-11-30T14:33:00.000Z</time>
      </trkpt>
      <trkpt lat="43.6356" lon="5.40729">
        <ele>383.79998779297</ele>
        <time>2019-11-30T14:33:01.000Z</time>
      </trkpt>
      <trkpt lat="43.63561" lon="5.40729">
        <ele>383.79998779297</ele>
        <time>2019-11-30T14:33:02.000Z</time>
      </trkpt>
      <trkpt lat="43.63561" lon="5.40729">
        <ele>383.79998779297</ele>
        <time>2019-11-30T14:33:03.000Z</time>
      </trkpt>
      <trkpt lat="43.63561" lon="5.40729">
        <ele>383.79998779297</ele>
        <time>2019-11-30T14:33:04.000Z</time>
      </trkpt>
      <trkpt lat="43.63561" lon="5.40729">
        <ele>383.79998779297</ele>
        <time>2019-11-30T14:33:05.000Z</time>
      </trkpt>
      <trkpt lat="43.63561" lon="5.40729">
        <ele>383.79998779297</ele>
        <time>2019-11-30T14:33:06.000Z</time>
      </trkpt>
      <trkpt lat="43.63561" lon="5.40729">
        <ele>383.79998779297</ele>
        <time>2019-11-30T14:33:07.000Z</time>
      </trkpt>
      <trkpt lat="43.63561" lon="5.40729">
        <ele>383.79998779297</ele>
        <time>2019-11-30T14:33:08.000Z</time>
      </trkpt>
      <trkpt lat="43.63561" lon="5.40729">
        <ele>383.79998779297</ele>
        <time>2019-11-30T14:33:09.000Z</time>
      </trkpt>
      <trkpt lat="43.63561" lon="5.40729">
        <ele>383.79998779297</ele>
        <time>2019-11-30T14:33:10.000Z</time>
      </trkpt>
      <trkpt lat="43.63561" lon="5.40729">
        <ele>383.79998779297</ele>
        <time>2019-11-30T14:33:11.000Z</time>
      </trkpt>
      <trkpt lat="43.63561" lon="5.40729">
        <ele>383.79998779297</ele>
        <time>2019-11-30T14:33:12.000Z</time>
      </trkpt>
      <trkpt lat="43.63561" lon="5.40729">
        <ele>383.79998779297</ele>
        <time>2019-11-30T14:33:13.000Z</time>
      </trkpt>
      <trkpt lat="43.63561" lon="5.40729">
        <ele>383.79998779297</ele>
        <time>2019-11-30T14:33:14.000Z</time>
      </trkpt>
      <trkpt lat="43.63561" lon="5.40729">
        <ele>383.79998779297</ele>
        <time>2019-11-30T14:33:15.000Z</time>
      </trkpt>
      <trkpt lat="43.63561" lon="5.40729">
        <ele>383.79998779297</ele>
        <time>2019-11-30T14:33:16.000Z</time>
      </trkpt>
      <trkpt lat="43.63561" lon="5.40729">
        <ele>383.79998779297</ele>
        <time>2019-11-30T14:33:17.000Z</time>
      </trkpt>
      <trkpt lat="43.63561" lon="5.40729">
        <ele>383.79998779297</ele>
        <time>2019-11-30T14:33:18.000Z</time>
      </trkpt>
      <trkpt lat="43.63561" lon="5.40729">
        <ele>383.79998779297</ele>
        <time>2019-11-30T14:33:19.000Z</time>
      </trkpt>
      <trkpt lat="43.63561" lon="5.40729">
        <ele>383.79998779297</ele>
        <time>2019-11-30T14:33:20.000Z</time>
      </trkpt>
      <trkpt lat="43.63561" lon="5.40729">
        <ele>383.79998779297</ele>
        <time>2019-11-30T14:33:21.000Z</time>
      </trkpt>
      <trkpt lat="43.63561" lon="5.40729">
        <ele>383.79998779297</ele>
        <time>2019-11-30T14:33:22.000Z</time>
      </trkpt>
      <trkpt lat="43.63561" lon="5.40729">
        <ele>383.79998779297</ele>
        <time>2019-11-30T14:33:23.000Z</time>
      </trkpt>
      <trkpt lat="43.63561" lon="5.40729">
        <ele>383.79998779297</ele>
        <time>2019-11-30T14:33:24.000Z</time>
      </trkpt>
      <trkpt lat="43.63561" lon="5.40729">
        <ele>383.79998779297</ele>
        <time>2019-11-30T14:33:25.000Z</time>
      </trkpt>
      <trkpt lat="43.63561" lon="5.40729">
        <ele>383.79998779297</ele>
        <time>2019-11-30T14:33:26.000Z</time>
      </trkpt>
      <trkpt lat="43.63561" lon="5.40729">
        <ele>383.79998779297</ele>
        <time>2019-11-30T14:33:27.000Z</time>
      </trkpt>
      <trkpt lat="43.63561" lon="5.40729">
        <ele>383.79998779297</ele>
        <time>2019-11-30T14:33:28.000Z</time>
      </trkpt>
      <trkpt lat="43.63561" lon="5.40729">
        <ele>383.79998779297</ele>
        <time>2019-11-30T14:33:29.000Z</time>
      </trkpt>
      <trkpt lat="43.63561" lon="5.40729">
        <ele>383.79998779297</ele>
        <time>2019-11-30T14:33:30.000Z</time>
      </trkpt>
      <trkpt lat="43.63561" lon="5.40729">
        <ele>383.79998779297</ele>
        <time>2019-11-30T14:33:31.000Z</time>
      </trkpt>
      <trkpt lat="43.63561" lon="5.40729">
        <ele>383.79998779297</ele>
        <time>2019-11-30T14:33:32.000Z</time>
      </trkpt>
      <trkpt lat="43.63561" lon="5.40729">
        <ele>383.79998779297</ele>
        <time>2019-11-30T14:33:33.000Z</time>
      </trkpt>
      <trkpt lat="43.63561" lon="5.40729">
        <ele>383.79998779297</ele>
        <time>2019-11-30T14:33:34.000Z</time>
      </trkpt>
      <trkpt lat="43.63561" lon="5.40729">
        <ele>383.79998779297</ele>
        <time>2019-11-30T14:33:35.000Z</time>
      </trkpt>
      <trkpt lat="43.63561" lon="5.40729">
        <ele>383.79998779297</ele>
        <time>2019-11-30T14:33:36.000Z</time>
      </trkpt>
      <trkpt lat="43.63561" lon="5.40729">
        <ele>383.79998779297</ele>
        <time>2019-11-30T14:33:37.000Z</time>
      </trkpt>
      <trkpt lat="43.63561" lon="5.40729">
        <ele>383.79998779297</ele>
        <time>2019-11-30T14:33:38.000Z</time>
      </trkpt>
      <trkpt lat="43.63561" lon="5.40729">
        <ele>383.79998779297</ele>
        <time>2019-11-30T14:33:39.000Z</time>
      </trkpt>
      <trkpt lat="43.63561" lon="5.40729">
        <ele>383.79998779297</ele>
        <time>2019-11-30T14:33:40.000Z</time>
      </trkpt>
      <trkpt lat="43.63561" lon="5.40729">
        <ele>383.79998779297</ele>
        <time>2019-11-30T14:33:41.000Z</time>
      </trkpt>
      <trkpt lat="43.6356" lon="5.40729">
        <ele>383.79998779297</ele>
        <time>2019-11-30T14:33:42.000Z</time>
      </trkpt>
      <trkpt lat="43.6356" lon="5.40729">
        <ele>383.79998779297</ele>
        <time>2019-11-30T14:33:43.000Z</time>
      </trkpt>
      <trkpt lat="43.6356" lon="5.40729">
        <ele>383.79998779297</ele>
        <time>2019-11-30T14:33:44.000Z</time>
      </trkpt>
      <trkpt lat="43.6356" lon="5.40729">
        <ele>383.79998779297</ele>
        <time>2019-11-30T14:33:45.000Z</time>
      </trkpt>
      <trkpt lat="43.6356" lon="5.40729">
        <ele>383.79998779297</ele>
        <time>2019-11-30T14:33:46.000Z</time>
      </trkpt>
      <trkpt lat="43.6356" lon="5.40729">
        <ele>383.79998779297</ele>
        <time>2019-11-30T14:33:47.000Z</time>
      </trkpt>
      <trkpt lat="43.6356" lon="5.40729">
        <ele>383.79998779297</ele>
        <time>2019-11-30T14:33:48.000Z</time>
      </trkpt>
      <trkpt lat="43.6356" lon="5.40729">
        <ele>383.79998779297</ele>
        <time>2019-11-30T14:33:49.000Z</time>
      </trkpt>
      <trkpt lat="43.6356" lon="5.40729">
        <ele>383.79998779297</ele>
        <time>2019-11-30T14:33:50.000Z</time>
      </trkpt>
      <trkpt lat="43.6356" lon="5.40729">
        <ele>383.79998779297</ele>
        <time>2019-11-30T14:33:51.000Z</time>
      </trkpt>
      <trkpt lat="43.6356" lon="5.40729">
        <ele>383.79998779297</ele>
        <time>2019-11-30T14:33:52.000Z</time>
      </trkpt>
      <trkpt lat="43.6356" lon="5.40729">
        <ele>383.79998779297</ele>
        <time>2019-11-30T14:33:53.000Z</time>
      </trkpt>
      <trkpt lat="43.6356" lon="5.40729">
        <ele>383.79998779297</ele>
        <time>2019-11-30T14:33:54.000Z</time>
      </trkpt>
      <trkpt lat="43.6356" lon="5.40729">
        <ele>383.79998779297</ele>
        <time>2019-11-30T14:33:55.000Z</time>
      </trkpt>
      <trkpt lat="43.6356" lon="5.40729">
        <ele>383.79998779297</ele>
        <time>2019-11-30T14:33:56.000Z</time>
      </trkpt>
      <trkpt lat="43.6356" lon="5.40729">
        <ele>383.79998779297</ele>
        <time>2019-11-30T14:33:57.000Z</time>
      </trkpt>
      <trkpt lat="43.6356" lon="5.40729">
        <ele>383.79998779297</ele>
        <time>2019-11-30T14:33:58.000Z</time>
      </trkpt>
      <trkpt lat="43.6356" lon="5.40729">
        <ele>383.79998779297</ele>
        <time>2019-11-30T14:33:59.000Z</time>
      </trkpt>
      <trkpt lat="43.6356" lon="5.40729">
        <ele>383.79998779297</ele>
        <time>2019-11-30T14:34:00.000Z</time>
      </trkpt>
      <trkpt lat="43.6356" lon="5.40729">
        <ele>383.79998779297</ele>
        <time>2019-11-30T14:34:01.000Z</time>
      </trkpt>
      <trkpt lat="43.6356" lon="5.40729">
        <ele>383.79998779297</ele>
        <time>2019-11-30T14:34:02.000Z</time>
      </trkpt>
      <trkpt lat="43.6356" lon="5.40729">
        <ele>383.79998779297</ele>
        <time>2019-11-30T14:34:03.000Z</time>
      </trkpt>
      <trkpt lat="43.6356" lon="5.40729">
        <ele>383.79998779297</ele>
        <time>2019-11-30T14:34:04.000Z</time>
      </trkpt>
      <trkpt lat="43.6356" lon="5.40729">
        <ele>383.79998779297</ele>
        <time>2019-11-30T14:34:05.000Z</time>
      </trkpt>
      <trkpt lat="43.6356" lon="5.40729">
        <ele>383.79998779297</ele>
        <time>2019-11-30T14:34:06.000Z</time>
      </trkpt>
      <trkpt lat="43.6356" lon="5.40729">
        <ele>383.79998779297</ele>
        <time>2019-11-30T14:34:07.000Z</time>
      </trkpt>
      <trkpt lat="43.6356" lon="5.40729">
        <ele>383.79998779297</ele>
        <time>2019-11-30T14:34:08.000Z</time>
      </trkpt>
      <trkpt lat="43.6356" lon="5.40729">
        <ele>383.79998779297</ele>
        <time>2019-11-30T14:34:09.000Z</time>
      </trkpt>
      <trkpt lat="43.6356" lon="5.40729">
        <ele>383.79998779297</ele>
        <time>2019-11-30T14:34:10.000Z</time>
      </trkpt>
      <trkpt lat="43.6356" lon="5.40729">
        <ele>383.79998779297</ele>
        <time>2019-11-30T14:34:11.000Z</time>
      </trkpt>
      <trkpt lat="43.6356" lon="5.40729">
        <ele>383.79998779297</ele>
        <time>2019-11-30T14:34:12.000Z</time>
      </trkpt>
      <trkpt lat="43.6356" lon="5.40729">
        <ele>383.79998779297</ele>
        <time>2019-11-30T14:34:13.000Z</time>
      </trkpt>
      <trkpt lat="43.6356" lon="5.40729">
        <ele>383.79998779297</ele>
        <time>2019-11-30T14:34:14.000Z</time>
      </trkpt>
      <trkpt lat="43.6356" lon="5.40729">
        <ele>383.79998779297</ele>
        <time>2019-11-30T14:34:15.000Z</time>
      </trkpt>
      <trkpt lat="43.6356" lon="5.40729">
        <ele>383.79998779297</ele>
        <time>2019-11-30T14:34:16.000Z</time>
      </trkpt>
      <trkpt lat="43.6356" lon="5.40729">
        <ele>383.79998779297</ele>
        <time>2019-11-30T14:34:17.000Z</time>
      </trkpt>
      <trkpt lat="43.6356" lon="5.40729">
        <ele>383.79998779297</ele>
        <time>2019-11-30T14:34:18.000Z</time>
      </trkpt>
      <trkpt lat="43.6356" lon="5.40729">
        <ele>383.79998779297</ele>
        <time>2019-11-30T14:34:19.000Z</time>
      </trkpt>
      <trkpt lat="43.6356" lon="5.40729">
        <ele>383.79998779297</ele>
        <time>2019-11-30T14:34:20.000Z</time>
      </trkpt>
      <trkpt lat="43.6356" lon="5.40729">
        <ele>383.79998779297</ele>
        <time>2019-11-30T14:34:21.000Z</time>
      </trkpt>
      <trkpt lat="43.63561" lon="5.40729">
        <ele>384</ele>
        <time>2019-11-30T14:34:22.000Z</time>
      </trkpt>
      <trkpt lat="43.63561" lon="5.40729">
        <ele>384</ele>
        <time>2019-11-30T14:34:23.000Z</time>
      </trkpt>
      <trkpt lat="43.63561" lon="5.40729">
        <ele>384</ele>
        <time>2019-11-30T14:34:24.000Z</time>
      </trkpt>
      <trkpt lat="43.63561" lon="5.40729">
        <ele>384</ele>
        <time>2019-11-30T14:34:25.000Z</time>
      </trkpt>
      <trkpt lat="43.63561" lon="5.40729">
        <ele>384</ele>
        <time>2019-11-30T14:34:26.000Z</time>
      </trkpt>
      <trkpt lat="43.63561" lon="5.40729">
        <ele>384</ele>
        <time>2019-11-30T14:34:27.000Z</time>
      </trkpt>
      <trkpt lat="43.63561" lon="5.40729">
        <ele>384</ele>
        <time>2019-11-30T14:34:28.000Z</time>
      </trkpt>
      <trkpt lat="43.63561" lon="5.40729">
        <ele>384</ele>
        <time>2019-11-30T14:34:29.000Z</time>
      </trkpt>
      <trkpt lat="43.63561" lon="5.40729">
        <ele>384</ele>
        <time>2019-11-30T14:34:30.000Z</time>
      </trkpt>
      <trkpt lat="43.63561" lon="5.40729">
        <ele>384</ele>
        <time>2019-11-30T14:34:31.000Z</time>
      </trkpt>
      <trkpt lat="43.63561" lon="5.40729">
        <ele>384</ele>
        <time>2019-11-30T14:34:32.000Z</time>
      </trkpt>
      <trkpt lat="43.63561" lon="5.40729">
        <ele>384</ele>
        <time>2019-11-30T14:34:33.000Z</time>
      </trkpt>
      <trkpt lat="43.63561" lon="5.40729">
        <ele>384</ele>
        <time>2019-11-30T14:34:34.000Z</time>
      </trkpt>
      <trkpt lat="43.63561" lon="5.40729">
        <ele>384</ele>
        <time>2019-11-30T14:34:35.000Z</time>
      </trkpt>
      <trkpt lat="43.63561" lon="5.40729">
        <ele>384</ele>
        <time>2019-11-30T14:34:36.000Z</time>
      </trkpt>
      <trkpt lat="43.63561" lon="5.40729">
        <ele>384</ele>
        <time>2019-11-30T14:34:37.000Z</time>
      </trkpt>
      <trkpt lat="43.63561" lon="5.40729">
        <ele>384</ele>
        <time>2019-11-30T14:34:38.000Z</time>
      </trkpt>
      <trkpt lat="43.63561" lon="5.40729">
        <ele>384</ele>
        <time>2019-11-30T14:34:39.000Z</time>
      </trkpt>
      <trkpt lat="43.63561" lon="5.40729">
        <ele>384</ele>
        <time>2019-11-30T14:34:40.000Z</time>
      </trkpt>
      <trkpt lat="43.63561" lon="5.40729">
        <ele>384</ele>
        <time>2019-11-30T14:34:41.000Z</time>
      </trkpt>
      <trkpt lat="43.63561" lon="5.40729">
        <ele>384</ele>
        <time>2019-11-30T14:34:42.000Z</time>
      </trkpt>
      <trkpt lat="43.63561" lon="5.40729">
        <ele>384</ele>
        <time>2019-11-30T14:34:43.000Z</time>
      </trkpt>
      <trkpt lat="43.63561" lon="5.40729">
        <ele>384</ele>
        <time>2019-11-30T14:34:44.000Z</time>
      </trkpt>
      <trkpt lat="43.63561" lon="5.40729">
        <ele>384</ele>
        <time>2019-11-30T14:34:45.000Z</time>
      </trkpt>
      <trkpt lat="43.63561" lon="5.40729">
        <ele>384</ele>
        <time>2019-11-30T14:34:46.000Z</time>
      </trkpt>
      <trkpt lat="43.63561" lon="5.40729">
        <ele>384</ele>
        <time>2019-11-30T14:34:47.000Z</time>
      </trkpt>
      <trkpt lat="43.63561" lon="5.40729">
        <ele>384</ele>
        <time>2019-11-30T14:34:48.000Z</time>
      </trkpt>
      <trkpt lat="43.63561" lon="5.40729">
        <ele>384</ele>
        <time>2019-11-30T14:34:49.000Z</time>
      </trkpt>
      <trkpt lat="43.63561" lon="5.40729">
        <ele>384</ele>
        <time>2019-11-30T14:34:50.000Z</time>
      </trkpt>
      <trkpt lat="43.63561" lon="5.40729">
        <ele>384</ele>
        <time>2019-11-30T14:34:51.000Z</time>
      </trkpt>
      <trkpt lat="43.63561" lon="5.40729">
        <ele>384</ele>
        <time>2019-11-30T14:34:52.000Z</time>
      </trkpt>
      <trkpt lat="43.63561" lon="5.40729">
        <ele>384</ele>
        <time>2019-11-30T14:34:53.000Z</time>
      </trkpt>
      <trkpt lat="43.63561" lon="5.40729">
        <ele>384</ele>
        <time>2019-11-30T14:34:54.000Z</time>
      </trkpt>
      <trkpt lat="43.63561" lon="5.40729">
        <ele>384</ele>
        <time>2019-11-30T14:34:55.000Z</time>
      </trkpt>
      <trkpt lat="43.63561" lon="5.40729">
        <ele>384</ele>
        <time>2019-11-30T14:34:56.000Z</time>
      </trkpt>
      <trkpt lat="43.63561" lon="5.40729">
        <ele>384</ele>
        <time>2019-11-30T14:34:57.000Z</time>
      </trkpt>
      <trkpt lat="43.63561" lon="5.40729">
        <ele>384</ele>
        <time>2019-11-30T14:34:58.000Z</time>
      </trkpt>
      <trkpt lat="43.63561" lon="5.40729">
        <ele>384</ele>
        <time>2019-11-30T14:34:59.000Z</time>
      </trkpt>
      <trkpt lat="43.63561" lon="5.40729">
        <ele>384</ele>
        <time>2019-11-30T14:35:00.000Z</time>
      </trkpt>
      <trkpt lat="43.63561" lon="5.40729">
        <ele>384</ele>
        <time>2019-11-30T14:35:01.000Z</time>
      </trkpt>
      <trkpt lat="43.6356" lon="5.40728">
        <ele>384</ele>
        <time>2019-11-30T14:35:02.000Z</time>
      </trkpt>
      <trkpt lat="43.6356" lon="5.40728">
        <ele>384</ele>
        <time>2019-11-30T14:35:03.000Z</time>
      </trkpt>
      <trkpt lat="43.6356" lon="5.40728">
        <ele>384</ele>
        <time>2019-11-30T14:35:04.000Z</time>
      </trkpt>
      <trkpt lat="43.6356" lon="5.40728">
        <ele>384</ele>
        <time>2019-11-30T14:35:05.000Z</time>
      </trkpt>
      <trkpt lat="43.6356" lon="5.40728">
        <ele>384</ele>
        <time>2019-11-30T14:35:06.000Z</time>
      </trkpt>
      <trkpt lat="43.6356" lon="5.40728">
        <ele>384</ele>
        <time>2019-11-30T14:35:07.000Z</time>
      </trkpt>
      <trkpt lat="43.6356" lon="5.40728">
        <ele>384</ele>
        <time>2019-11-30T14:35:08.000Z</time>
      </trkpt>
      <trkpt lat="43.6356" lon="5.40728">
        <ele>384</ele>
        <time>2019-11-30T14:35:09.000Z</time>
      </trkpt>
      <trkpt lat="43.6356" lon="5.40728">
        <ele>384</ele>
        <time>2019-11-30T14:35:10.000Z</time>
      </trkpt>
      <trkpt lat="43.6356" lon="5.40728">
        <ele>384</ele>
        <time>2019-11-30T14:35:11.000Z</time>
      </trkpt>
      <trkpt lat="43.6356" lon="5.40728">
        <ele>384</ele>
        <time>2019-11-30T14:35:12.000Z</time>
      </trkpt>
      <trkpt lat="43.6356" lon="5.40728">
        <ele>384</ele>
        <time>2019-11-30T14:35:13.000Z</time>
      </trkpt>
      <trkpt lat="43.6356" lon="5.40728">
        <ele>384</ele>
        <time>2019-11-30T14:35:14.000Z</time>
      </trkpt>
      <trkpt lat="43.6356" lon="5.40728">
        <ele>384</ele>
        <time>2019-11-30T14:35:15.000Z</time>
      </trkpt>
      <trkpt lat="43.6356" lon="5.40728">
        <ele>384</ele>
        <time>2019-11-30T14:35:16.000Z</time>
      </trkpt>
      <trkpt lat="43.6356" lon="5.40728">
        <ele>384</ele>
        <time>2019-11-30T14:35:17.000Z</time>
      </trkpt>
      <trkpt lat="43.6356" lon="5.40728">
        <ele>384</ele>
        <time>2019-11-30T14:35:18.000Z</time>
      </trkpt>
      <trkpt lat="43.6356" lon="5.40728">
        <ele>384</ele>
        <time>2019-11-30T14:35:19.000Z</time>
      </trkpt>
      <trkpt lat="43.6356" lon="5.40728">
        <ele>384</ele>
        <time>2019-11-30T14:35:20.000Z</time>
      </trkpt>
      <trkpt lat="43.6356" lon="5.40728">
        <ele>384</ele>
        <time>2019-11-30T14:35:21.000Z</time>
      </trkpt>
      <trkpt lat="43.6356" lon="5.40728">
        <ele>384</ele>
        <time>2019-11-30T14:35:22.000Z</time>
      </trkpt>
      <trkpt lat="43.6356" lon="5.40728">
        <ele>384</ele>
        <time>2019-11-30T14:35:23.000Z</time>
      </trkpt>
      <trkpt lat="43.6356" lon="5.40728">
        <ele>384</ele>
        <time>2019-11-30T14:35:24.000Z</time>
      </trkpt>
      <trkpt lat="43.6356" lon="5.40728">
        <ele>384</ele>
        <time>2019-11-30T14:35:25.000Z</time>
      </trkpt>
      <trkpt lat="43.6356" lon="5.40728">
        <ele>384</ele>
        <time>2019-11-30T14:35:26.000Z</time>
      </trkpt>
      <trkpt lat="43.6356" lon="5.40728">
        <ele>384</ele>
        <time>2019-11-30T14:35:27.000Z</time>
      </trkpt>
      <trkpt lat="43.6356" lon="5.40728">
        <ele>384</ele>
        <time>2019-11-30T14:35:28.000Z</time>
      </trkpt>
      <trkpt lat="43.6356" lon="5.40728">
        <ele>384</ele>
        <time>2019-11-30T14:35:29.000Z</time>
      </trkpt>
      <trkpt lat="43.6356" lon="5.40728">
        <ele>384</ele>
        <time>2019-11-30T14:35:30.000Z</time>
      </trkpt>
      <trkpt lat="43.6356" lon="5.40728">
        <ele>384</ele>
        <time>2019-11-30T14:35:31.000Z</time>
      </trkpt>
      <trkpt lat="43.6356" lon="5.40728">
        <ele>384</ele>
        <time>2019-11-30T14:35:32.000Z</time>
      </trkpt>
      <trkpt lat="43.6356" lon="5.40728">
        <ele>384</ele>
        <time>2019-11-30T14:35:33.000Z</time>
      </trkpt>
      <trkpt lat="43.6356" lon="5.40728">
        <ele>384</ele>
        <time>2019-11-30T14:35:34.000Z</time>
      </trkpt>
      <trkpt lat="43.6356" lon="5.40728">
        <ele>384</ele>
        <time>2019-11-30T14:35:35.000Z</time>
      </trkpt>
      <trkpt lat="43.6356" lon="5.40728">
        <ele>384</ele>
        <time>2019-11-30T14:35:36.000Z</time>
      </trkpt>
      <trkpt lat="43.6356" lon="5.40728">
        <ele>384</ele>
        <time>2019-11-30T14:35:37.000Z</time>
      </trkpt>
      <trkpt lat="43.6356" lon="5.40728">
        <ele>384</ele>
        <time>2019-11-30T14:35:38.000Z</time>
      </trkpt>
      <trkpt lat="43.6356" lon="5.40728">
        <ele>384</ele>
        <time>2019-11-30T14:35:39.000Z</time>
      </trkpt>
      <trkpt lat="43.6356" lon="5.40728">
        <ele>384</ele>
        <time>2019-11-30T14:35:40.000Z</time>
      </trkpt>
      <trkpt lat="43.6356" lon="5.40728">
        <ele>384</ele>
        <time>2019-11-30T14:35:41.000Z</time>
      </trkpt>
      <trkpt lat="43.6356" lon="5.40729">
        <ele>384</ele>
        <time>2019-11-30T14:35:42.000Z</time>
      </trkpt>
      <trkpt lat="43.6356" lon="5.40729">
        <ele>384</ele>
        <time>2019-11-30T14:35:43.000Z</time>
      </trkpt>
      <trkpt lat="43.6356" lon="5.40729">
        <ele>384</ele>
        <time>2019-11-30T14:35:44.000Z</time>
      </trkpt>
      <trkpt lat="43.6356" lon="5.40729">
        <ele>384</ele>
        <time>2019-11-30T14:35:45.000Z</time>
      </trkpt>
      <trkpt lat="43.6356" lon="5.40729">
        <ele>384</ele>
        <time>2019-11-30T14:35:46.000Z</time>
      </trkpt>
      <trkpt lat="43.6356" lon="5.40729">
        <ele>384</ele>
        <time>2019-11-30T14:35:47.000Z</time>
      </trkpt>
      <trkpt lat="43.6356" lon="5.40729">
        <ele>384</ele>
        <time>2019-11-30T14:35:48.000Z</time>
      </trkpt>
      <trkpt lat="43.6356" lon="5.40729">
        <ele>384</ele>
        <time>2019-11-30T14:35:49.000Z</time>
      </trkpt>
      <trkpt lat="43.6356" lon="5.40729">
        <ele>384</ele>
        <time>2019-11-30T14:35:50.000Z</time>
      </trkpt>
      <trkpt lat="43.6356" lon="5.40729">
        <ele>384</ele>
        <time>2019-11-30T14:35:51.000Z</time>
      </trkpt>
      <trkpt lat="43.6356" lon="5.40729">
        <ele>384</ele>
        <time>2019-11-30T14:35:52.000Z</time>
      </trkpt>
      <trkpt lat="43.6356" lon="5.40729">
        <ele>384</ele>
        <time>2019-11-30T14:35:53.000Z</time>
      </trkpt>
      <trkpt lat="43.6356" lon="5.40729">
        <ele>384</ele>
        <time>2019-11-30T14:35:54.000Z</time>
      </trkpt>
      <trkpt lat="43.6356" lon="5.40729">
        <ele>384</ele>
        <time>2019-11-30T14:35:55.000Z</time>
      </trkpt>
      <trkpt lat="43.6356" lon="5.40729">
        <ele>384</ele>
        <time>2019-11-30T14:35:56.000Z</time>
      </trkpt>
      <trkpt lat="43.6356" lon="5.40729">
        <ele>384</ele>
        <time>2019-11-30T14:35:57.000Z</time>
      </trkpt>
      <trkpt lat="43.6356" lon="5.40729">
        <ele>384</ele>
        <time>2019-11-30T14:35:58.000Z</time>
      </trkpt>
      <trkpt lat="43.6356" lon="5.40729">
        <ele>384</ele>
        <time>2019-11-30T14:35:59.000Z</time>
      </trkpt>
      <trkpt lat="43.6356" lon="5.40729">
        <ele>384</ele>
        <time>2019-11-30T14:36:00.000Z</time>
      </trkpt>
      <trkpt lat="43.6356" lon="5.40729">
        <ele>384</ele>
        <time>2019-11-30T14:36:01.000Z</time>
      </trkpt>
      <trkpt lat="43.6356" lon="5.40729">
        <ele>384</ele>
        <time>2019-11-30T14:36:02.000Z</time>
      </trkpt>
      <trkpt lat="43.6356" lon="5.40729">
        <ele>384</ele>
        <time>2019-11-30T14:36:03.000Z</time>
      </trkpt>
      <trkpt lat="43.6356" lon="5.40729">
        <ele>384</ele>
        <time>2019-11-30T14:36:04.000Z</time>
      </trkpt>
      <trkpt lat="43.6356" lon="5.40729">
        <ele>384</ele>
        <time>2019-11-30T14:36:05.000Z</time>
      </trkpt>
      <trkpt lat="43.6356" lon="5.40729">
        <ele>384</ele>
        <time>2019-11-30T14:36:06.000Z</time>
      </trkpt>
      <trkpt lat="43.6356" lon="5.40729">
        <ele>384</ele>
        <time>2019-11-30T14:36:07.000Z</time>
      </trkpt>
      <trkpt lat="43.6356" lon="5.40729">
        <ele>384</ele>
        <time>2019-11-30T14:36:08.000Z</time>
      </trkpt>
      <trkpt lat="43.6356" lon="5.40729">
        <ele>384</ele>
        <time>2019-11-30T14:36:09.000Z</time>
      </trkpt>
      <trkpt lat="43.6356" lon="5.40729">
        <ele>384</ele>
        <time>2019-11-30T14:36:10.000Z</time>
      </trkpt>
      <trkpt lat="43.6356" lon="5.40729">
        <ele>384</ele>
        <time>2019-11-30T14:36:11.000Z</time>
      </trkpt>
      <trkpt lat="43.6356" lon="5.40729">
        <ele>384</ele>
        <time>2019-11-30T14:36:12.000Z</time>
      </trkpt>
      <trkpt lat="43.6356" lon="5.40729">
        <ele>384</ele>
        <time>2019-11-30T14:36:13.000Z</time>
      </trkpt>
      <trkpt lat="43.6356" lon="5.40729">
        <ele>384</ele>
        <time>2019-11-30T14:36:14.000Z</time>
      </trkpt>
      <trkpt lat="43.6356" lon="5.40729">
        <ele>384</ele>
        <time>2019-11-30T14:36:15.000Z</time>
      </trkpt>
      <trkpt lat="43.6356" lon="5.40729">
        <ele>384</ele>
        <time>2019-11-30T14:36:16.000Z</time>
      </trkpt>
      <trkpt lat="43.6356" lon="5.40729">
        <ele>384</ele>
        <time>2019-11-30T14:36:17.000Z</time>
      </trkpt>
      <trkpt lat="43.6356" lon="5.40729">
        <ele>384</ele>
        <time>2019-11-30T14:36:18.000Z</time>
      </trkpt>
      <trkpt lat="43.6356" lon="5.40729">
        <ele>384</ele>
        <time>2019-11-30T14:36:19.000Z</time>
      </trkpt>
      <trkpt lat="43.6356" lon="5.40729">
        <ele>384</ele>
        <time>2019-11-30T14:36:20.000Z</time>
      </trkpt>
      <trkpt lat="43.6356" lon="5.40729">
        <ele>384</ele>
        <time>2019-11-30T14:36:21.000Z</time>
      </trkpt>
      <trkpt lat="43.6356" lon="5.40728">
        <ele>384.20001220703</ele>
        <time>2019-11-30T14:36:22.000Z</time>
      </trkpt>
      <trkpt lat="43.6356" lon="5.40728">
        <ele>384.20001220703</ele>
        <time>2019-11-30T14:36:23.000Z</time>
      </trkpt>
      <trkpt lat="43.6356" lon="5.40728">
        <ele>384.20001220703</ele>
        <time>2019-11-30T14:36:24.000Z</time>
      </trkpt>
      <trkpt lat="43.6356" lon="5.40728">
        <ele>384.20001220703</ele>
        <time>2019-11-30T14:36:25.000Z</time>
      </trkpt>
      <trkpt lat="43.6356" lon="5.40728">
        <ele>384.20001220703</ele>
        <time>2019-11-30T14:36:26.000Z</time>
      </trkpt>
      <trkpt lat="43.6356" lon="5.40728">
        <ele>384.20001220703</ele>
        <time>2019-11-30T14:36:27.000Z</time>
      </trkpt>
      <trkpt lat="43.6356" lon="5.40728">
        <ele>384.20001220703</ele>
        <time>2019-11-30T14:36:28.000Z</time>
      </trkpt>
      <trkpt lat="43.6356" lon="5.40728">
        <ele>384.20001220703</ele>
        <time>2019-11-30T14:36:29.000Z</time>
      </trkpt>
      <trkpt lat="43.6356" lon="5.40728">
        <ele>384.20001220703</ele>
        <time>2019-11-30T14:36:30.000Z</time>
      </trkpt>
      <trkpt lat="43.6356" lon="5.40728">
        <ele>384.20001220703</ele>
        <time>2019-11-30T14:36:31.000Z</time>
      </trkpt>
      <trkpt lat="43.6356" lon="5.40728">
        <ele>384.20001220703</ele>
        <time>2019-11-30T14:36:32.000Z</time>
      </trkpt>
      <trkpt lat="43.6356" lon="5.40728">
        <ele>384.20001220703</ele>
        <time>2019-11-30T14:36:33.000Z</time>
      </trkpt>
      <trkpt lat="43.6356" lon="5.40728">
        <ele>384.20001220703</ele>
        <time>2019-11-30T14:36:34.000Z</time>
      </trkpt>
      <trkpt lat="43.6356" lon="5.40728">
        <ele>384.20001220703</ele>
        <time>2019-11-30T14:36:35.000Z</time>
      </trkpt>
      <trkpt lat="43.6356" lon="5.40728">
        <ele>384.20001220703</ele>
        <time>2019-11-30T14:36:36.000Z</time>
      </trkpt>
      <trkpt lat="43.6356" lon="5.40728">
        <ele>384.20001220703</ele>
        <time>2019-11-30T14:36:37.000Z</time>
      </trkpt>
      <trkpt lat="43.6356" lon="5.40728">
        <ele>384.20001220703</ele>
        <time>2019-11-30T14:36:38.000Z</time>
      </trkpt>
      <trkpt lat="43.6356" lon="5.40728">
        <ele>384.20001220703</ele>
        <time>2019-11-30T14:36:39.000Z</time>
      </trkpt>
      <trkpt lat="43.6356" lon="5.40728">
        <ele>384.20001220703</ele>
        <time>2019-11-30T14:36:40.000Z</time>
      </trkpt>
      <trkpt lat="43.6356" lon="5.40728">
        <ele>384.20001220703</ele>
        <time>2019-11-30T14:36:41.000Z</time>
      </trkpt>
      <trkpt lat="43.6356" lon="5.40728">
        <ele>384.20001220703</ele>
        <time>2019-11-30T14:36:42.000Z</time>
      </trkpt>
      <trkpt lat="43.6356" lon="5.40728">
        <ele>384.20001220703</ele>
        <time>2019-11-30T14:36:43.000Z</time>
      </trkpt>
      <trkpt lat="43.6356" lon="5.40728">
        <ele>384.20001220703</ele>
        <time>2019-11-30T14:36:44.000Z</time>
      </trkpt>
      <trkpt lat="43.6356" lon="5.40728">
        <ele>384.20001220703</ele>
        <time>2019-11-30T14:36:45.000Z</time>
      </trkpt>
      <trkpt lat="43.6356" lon="5.40728">
        <ele>384.20001220703</ele>
        <time>2019-11-30T14:36:46.000Z</time>
      </trkpt>
      <trkpt lat="43.6356" lon="5.40728">
        <ele>384.20001220703</ele>
        <time>2019-11-30T14:36:47.000Z</time>
      </trkpt>
      <trkpt lat="43.6356" lon="5.40728">
        <ele>384.20001220703</ele>
        <time>2019-11-30T14:36:48.000Z</time>
      </trkpt>
      <trkpt lat="43.6356" lon="5.40728">
        <ele>384.20001220703</ele>
        <time>2019-11-30T14:36:49.000Z</time>
      </trkpt>
      <trkpt lat="43.6356" lon="5.40728">
        <ele>384.20001220703</ele>
        <time>2019-11-30T14:36:50.000Z</time>
      </trkpt>
      <trkpt lat="43.6356" lon="5.40728">
        <ele>384.20001220703</ele>
        <time>2019-11-30T14:36:51.000Z</time>
      </trkpt>
      <trkpt lat="43.6356" lon="5.40728">
        <ele>384.20001220703</ele>
        <time>2019-11-30T14:36:52.000Z</time>
      </trkpt>
      <trkpt lat="43.6356" lon="5.40728">
        <ele>384.20001220703</ele>
        <time>2019-11-30T14:36:53.000Z</time>
      </trkpt>
      <trkpt lat="43.6356" lon="5.40728">
        <ele>384.20001220703</ele>
        <time>2019-11-30T14:36:54.000Z</time>
      </trkpt>
      <trkpt lat="43.6356" lon="5.40728">
        <ele>384.20001220703</ele>
        <time>2019-11-30T14:36:55.000Z</time>
      </trkpt>
      <trkpt lat="43.6356" lon="5.40728">
        <ele>384.20001220703</ele>
        <time>2019-11-30T14:36:56.000Z</time>
      </trkpt>
      <trkpt lat="43.6356" lon="5.40728">
        <ele>384.20001220703</ele>
        <time>2019-11-30T14:36:57.000Z</time>
      </trkpt>
      <trkpt lat="43.6356" lon="5.40728">
        <ele>384.20001220703</ele>
        <time>2019-11-30T14:36:58.000Z</time>
      </trkpt>
      <trkpt lat="43.6356" lon="5.40728">
        <ele>384.20001220703</ele>
        <time>2019-11-30T14:36:59.000Z</time>
      </trkpt>
      <trkpt lat="43.6356" lon="5.40728">
        <ele>384.20001220703</ele>
        <time>2019-11-30T14:37:00.000Z</time>
      </trkpt>
      <trkpt lat="43.6356" lon="5.40728">
        <ele>384.20001220703</ele>
        <time>2019-11-30T14:37:01.000Z</time>
      </trkpt>
      <trkpt lat="43.63561" lon="5.40728">
        <ele>384</ele>
        <time>2019-11-30T14:37:02.000Z</time>
      </trkpt>
      <trkpt lat="43.63561" lon="5.40728">
        <ele>384</ele>
        <time>2019-11-30T14:37:03.000Z</time>
      </trkpt>
      <trkpt lat="43.63561" lon="5.40728">
        <ele>384</ele>
        <time>2019-11-30T14:37:04.000Z</time>
      </trkpt>
      <trkpt lat="43.63561" lon="5.40728">
        <ele>384</ele>
        <time>2019-11-30T14:37:05.000Z</time>
      </trkpt>
      <trkpt lat="43.63561" lon="5.40728">
        <ele>384</ele>
        <time>2019-11-30T14:37:06.000Z</time>
      </trkpt>
      <trkpt lat="43.63561" lon="5.40728">
        <ele>384</ele>
        <time>2019-11-30T14:37:07.000Z</time>
      </trkpt>
      <trkpt lat="43.63561" lon="5.40728">
        <ele>384</ele>
        <time>2019-11-30T14:37:08.000Z</time>
      </trkpt>
      <trkpt lat="43.63561" lon="5.40728">
        <ele>384</ele>
        <time>2019-11-30T14:37:09.000Z</time>
      </trkpt>
      <trkpt lat="43.63561" lon="5.40728">
        <ele>384</ele>
        <time>2019-11-30T14:37:10.000Z</time>
      </trkpt>
      <trkpt lat="43.63561" lon="5.40728">
        <ele>384</ele>
        <time>2019-11-30T14:37:11.000Z</time>
      </trkpt>
      <trkpt lat="43.63561" lon="5.40728">
        <ele>384</ele>
        <time>2019-11-30T14:37:12.000Z</time>
      </trkpt>
      <trkpt lat="43.63561" lon="5.40728">
        <ele>384</ele>
        <time>2019-11-30T14:37:13.000Z</time>
      </trkpt>
      <trkpt lat="43.63561" lon="5.40728">
        <ele>384</ele>
        <time>2019-11-30T14:37:14.000Z</time>
      </trkpt>
      <trkpt lat="43.63561" lon="5.40728">
        <ele>384</ele>
        <time>2019-11-30T14:37:15.000Z</time>
      </trkpt>
      <trkpt lat="43.63561" lon="5.40728">
        <ele>384</ele>
        <time>2019-11-30T14:37:16.000Z</time>
      </trkpt>
      <trkpt lat="43.63561" lon="5.40728">
        <ele>384</ele>
        <time>2019-11-30T14:37:17.000Z</time>
      </trkpt>
      <trkpt lat="43.63561" lon="5.40728">
        <ele>384</ele>
        <time>2019-11-30T14:37:18.000Z</time>
      </trkpt>
      <trkpt lat="43.63561" lon="5.40728">
        <ele>384</ele>
        <time>2019-11-30T14:37:19.000Z</time>
      </trkpt>
      <trkpt lat="43.63561" lon="5.40728">
        <ele>384</ele>
        <time>2019-11-30T14:37:20.000Z</time>
      </trkpt>
      <trkpt lat="43.63561" lon="5.40728">
        <ele>384</ele>
        <time>2019-11-30T14:37:21.000Z</time>
      </trkpt>
      <trkpt lat="43.63561" lon="5.40728">
        <ele>384</ele>
        <time>2019-11-30T14:37:22.000Z</time>
      </trkpt>
      <trkpt lat="43.63561" lon="5.40728">
        <ele>384</ele>
        <time>2019-11-30T14:37:23.000Z</time>
      </trkpt>
      <trkpt lat="43.63561" lon="5.40728">
        <ele>384</ele>
        <time>2019-11-30T14:37:24.000Z</time>
      </trkpt>
      <trkpt lat="43.63561" lon="5.40728">
        <ele>384</ele>
        <time>2019-11-30T14:37:25.000Z</time>
      </trkpt>
      <trkpt lat="43.63561" lon="5.40728">
        <ele>384</ele>
        <time>2019-11-30T14:37:26.000Z</time>
      </trkpt>
      <trkpt lat="43.63561" lon="5.40728">
        <ele>384</ele>
        <time>2019-11-30T14:37:27.000Z</time>
      </trkpt>
      <trkpt lat="43.63561" lon="5.40728">
        <ele>384</ele>
        <time>2019-11-30T14:37:28.000Z</time>
      </trkpt>
      <trkpt lat="43.63561" lon="5.40728">
        <ele>384</ele>
        <time>2019-11-30T14:37:29.000Z</time>
      </trkpt>
      <trkpt lat="43.63561" lon="5.40728">
        <ele>384</ele>
        <time>2019-11-30T14:37:30.000Z</time>
      </trkpt>
      <trkpt lat="43.63561" lon="5.40728">
        <ele>384</ele>
        <time>2019-11-30T14:37:31.000Z</time>
      </trkpt>
      <trkpt lat="43.63561" lon="5.40728">
        <ele>384</ele>
        <time>2019-11-30T14:37:32.000Z</time>
      </trkpt>
      <trkpt lat="43.63561" lon="5.40728">
        <ele>384</ele>
        <time>2019-11-30T14:37:33.000Z</time>
      </trkpt>
      <trkpt lat="43.63561" lon="5.40728">
        <ele>384</ele>
        <time>2019-11-30T14:37:34.000Z</time>
      </trkpt>
      <trkpt lat="43.63561" lon="5.40728">
        <ele>384</ele>
        <time>2019-11-30T14:37:35.000Z</time>
      </trkpt>
      <trkpt lat="43.63561" lon="5.40728">
        <ele>384</ele>
        <time>2019-11-30T14:37:36.000Z</time>
      </trkpt>
      <trkpt lat="43.63561" lon="5.40728">
        <ele>384</ele>
        <time>2019-11-30T14:37:37.000Z</time>
      </trkpt>
      <trkpt lat="43.63561" lon="5.40728">
        <ele>384</ele>
        <time>2019-11-30T14:37:38.000Z</time>
      </trkpt>
      <trkpt lat="43.63561" lon="5.40728">
        <ele>384</ele>
        <time>2019-11-30T14:37:39.000Z</time>
      </trkpt>
      <trkpt lat="43.63561" lon="5.40728">
        <ele>384</ele>
        <time>2019-11-30T14:37:40.000Z</time>
      </trkpt>
      <trkpt lat="43.63561" lon="5.40728">
        <ele>384</ele>
        <time>2019-11-30T14:37:41.000Z</time>
      </trkpt>
      <trkpt lat="43.6356" lon="5.40728">
        <ele>384</ele>
        <time>2019-11-30T14:37:42.000Z</time>
      </trkpt>
      <trkpt lat="43.6356" lon="5.40728">
        <ele>384</ele>
        <time>2019-11-30T14:37:43.000Z</time>
      </trkpt>
      <trkpt lat="43.6356" lon="5.40728">
        <ele>384</ele>
        <time>2019-11-30T14:37:44.000Z</time>
      </trkpt>
      <trkpt lat="43.6356" lon="5.40728">
        <ele>384</ele>
        <time>2019-11-30T14:37:45.000Z</time>
      </trkpt>
      <trkpt lat="43.6356" lon="5.40728">
        <ele>384</ele>
        <time>2019-11-30T14:37:46.000Z</time>
      </trkpt>
      <trkpt lat="43.6356" lon="5.40728">
        <ele>384</ele>
        <time>2019-11-30T14:37:47.000Z</time>
      </trkpt>
      <trkpt lat="43.6356" lon="5.40728">
        <ele>384</ele>
        <time>2019-11-30T14:37:48.000Z</time>
      </trkpt>
      <trkpt lat="43.6356" lon="5.40728">
        <ele>384</ele>
        <time>2019-11-30T14:37:49.000Z</time>
      </trkpt>
      <trkpt lat="43.6356" lon="5.40728">
        <ele>384</ele>
        <time>2019-11-30T14:37:50.000Z</time>
      </trkpt>
      <trkpt lat="43.6356" lon="5.40728">
        <ele>384</ele>
        <time>2019-11-30T14:37:51.000Z</time>
      </trkpt>
      <trkpt lat="43.6356" lon="5.40728">
        <ele>384</ele>
        <time>2019-11-30T14:37:52.000Z</time>
      </trkpt>
      <trkpt lat="43.6356" lon="5.40728">
        <ele>384</ele>
        <time>2019-11-30T14:37:53.000Z</time>
      </trkpt>
      <trkpt lat="43.6356" lon="5.40728">
        <ele>384</ele>
        <time>2019-11-30T14:37:54.000Z</time>
      </trkpt>
      <trkpt lat="43.6356" lon="5.40728">
        <ele>384</ele>
        <time>2019-11-30T14:37:55.000Z</time>
      </trkpt>
      <trkpt lat="43.6356" lon="5.40728">
        <ele>384</ele>
        <time>2019-11-30T14:37:56.000Z</time>
      </trkpt>
      <trkpt lat="43.6356" lon="5.40728">
        <ele>384</ele>
        <time>2019-11-30T14:37:57.000Z</time>
      </trkpt>
      <trkpt lat="43.6356" lon="5.40728">
        <ele>384</ele>
        <time>2019-11-30T14:37:58.000Z</time>
      </trkpt>
      <trkpt lat="43.6356" lon="5.40728">
        <ele>384</ele>
        <time>2019-11-30T14:37:59.000Z</time>
      </trkpt>
      <trkpt lat="43.6356" lon="5.40728">
        <ele>384</ele>
        <time>2019-11-30T14:38:00.000Z</time>
      </trkpt>
      <trkpt lat="43.6356" lon="5.40728">
        <ele>384</ele>
        <time>2019-11-30T14:38:01.000Z</time>
      </trkpt>
      <trkpt lat="43.6356" lon="5.40728">
        <ele>384</ele>
        <time>2019-11-30T14:38:02.000Z</time>
      </trkpt>
      <trkpt lat="43.6356" lon="5.40728">
        <ele>384</ele>
        <time>2019-11-30T14:38:03.000Z</time>
      </trkpt>
      <trkpt lat="43.6356" lon="5.40728">
        <ele>384</ele>
        <time>2019-11-30T14:38:04.000Z</time>
      </trkpt>
      <trkpt lat="43.6356" lon="5.40728">
        <ele>384</ele>
        <time>2019-11-30T14:38:05.000Z</time>
      </trkpt>
      <trkpt lat="43.6356" lon="5.40728">
        <ele>384</ele>
        <time>2019-11-30T14:38:06.000Z</time>
      </trkpt>
      <trkpt lat="43.6356" lon="5.40728">
        <ele>384</ele>
        <time>2019-11-30T14:38:07.000Z</time>
      </trkpt>
      <trkpt lat="43.6356" lon="5.40728">
        <ele>384</ele>
        <time>2019-11-30T14:38:08.000Z</time>
      </trkpt>
      <trkpt lat="43.6356" lon="5.40728">
        <ele>384</ele>
        <time>2019-11-30T14:38:09.000Z</time>
      </trkpt>
      <trkpt lat="43.6356" lon="5.40728">
        <ele>384</ele>
        <time>2019-11-30T14:38:10.000Z</time>
      </trkpt>
      <trkpt lat="43.6356" lon="5.40728">
        <ele>384</ele>
        <time>2019-11-30T14:38:11.000Z</time>
      </trkpt>
      <trkpt lat="43.6356" lon="5.40728">
        <ele>384</ele>
        <time>2019-11-30T14:38:12.000Z</time>
      </trkpt>
      <trkpt lat="43.6356" lon="5.40728">
        <ele>384</ele>
        <time>2019-11-30T14:38:13.000Z</time>
      </trkpt>
      <trkpt lat="43.6356" lon="5.40728">
        <ele>384</ele>
        <time>2019-11-30T14:38:14.000Z</time>
      </trkpt>
      <trkpt lat="43.6356" lon="5.40728">
        <ele>384</ele>
        <time>2019-11-30T14:38:15.000Z</time>
      </trkpt>
      <trkpt lat="43.6356" lon="5.40728">
        <ele>384</ele>
        <time>2019-11-30T14:38:16.000Z</time>
      </trkpt>
      <trkpt lat="43.6356" lon="5.40728">
        <ele>384</ele>
        <time>2019-11-30T14:38:17.000Z</time>
      </trkpt>
      <trkpt lat="43.6356" lon="5.40728">
        <ele>384</ele>
        <time>2019-11-30T14:38:18.000Z</time>
      </trkpt>
      <trkpt lat="43.6356" lon="5.40728">
        <ele>384</ele>
        <time>2019-11-30T14:38:19.000Z</time>
      </trkpt>
      <trkpt lat="43.6356" lon="5.40728">
        <ele>384</ele>
        <time>2019-11-30T14:38:20.000Z</time>
      </trkpt>
      <trkpt lat="43.6356" lon="5.40728">
        <ele>384</ele>
        <time>2019-11-30T14:38:21.000Z</time>
      </trkpt>
      <trkpt lat="43.6356" lon="5.40729">
        <ele>384</ele>
        <time>2019-11-30T14:38:22.000Z</time>
      </trkpt>
      <trkpt lat="43.6356" lon="5.40729">
        <ele>384</ele>
        <time>2019-11-30T14:38:23.000Z</time>
      </trkpt>
      <trkpt lat="43.6356" lon="5.40729">
        <ele>384</ele>
        <time>2019-11-30T14:38:24.000Z</time>
      </trkpt>
      <trkpt lat="43.6356" lon="5.40729">
        <ele>384</ele>
        <time>2019-11-30T14:38:25.000Z</time>
      </trkpt>
      <trkpt lat="43.6356" lon="5.40728">
        <ele>384</ele>
        <time>2019-11-30T14:38:26.000Z</time>
      </trkpt>
      <trkpt lat="43.6356" lon="5.40727">
        <ele>384.39999389648</ele>
        <time>2019-11-30T14:38:27.000Z</time>
      </trkpt>
      <trkpt lat="43.63561" lon="5.40725">
        <ele>384.79998779297</ele>
        <time>2019-11-30T14:38:28.000Z</time>
      </trkpt>
      <trkpt lat="43.63561" lon="5.40723">
        <ele>385.20001220703</ele>
        <time>2019-11-30T14:38:29.000Z</time>
      </trkpt>
      <trkpt lat="43.63561" lon="5.40722">
        <ele>385.39999389648</ele>
        <time>2019-11-30T14:38:30.000Z</time>
      </trkpt>
      <trkpt lat="43.63561" lon="5.40722">
        <ele>385.60000610352</ele>
        <time>2019-11-30T14:38:31.000Z</time>
      </trkpt>
      <trkpt lat="43.63561" lon="5.4072">
        <ele>385.79998779297</ele>
        <time>2019-11-30T14:38:32.000Z</time>
      </trkpt>
      <trkpt lat="43.63561" lon="5.40719">
        <ele>386</ele>
        <time>2019-11-30T14:38:33.000Z</time>
      </trkpt>
      <trkpt lat="43.6356" lon="5.40718">
        <ele>386.39999389648</ele>
        <time>2019-11-30T14:38:34.000Z</time>
      </trkpt>
      <trkpt lat="43.6356" lon="5.40717">
        <ele>386.60000610352</ele>
        <time>2019-11-30T14:38:35.000Z</time>
      </trkpt>
      <trkpt lat="43.6356" lon="5.40716">
        <ele>387</ele>
        <time>2019-11-30T14:38:36.000Z</time>
      </trkpt>
      <trkpt lat="43.6356" lon="5.40715">
        <ele>387.20001220703</ele>
        <time>2019-11-30T14:38:37.000Z</time>
      </trkpt>
      <trkpt lat="43.6356" lon="5.40713">
        <ele>387.39999389648</ele>
        <time>2019-11-30T14:38:38.000Z</time>
      </trkpt>
      <trkpt lat="43.6356" lon="5.40712">
        <ele>387.79998779297</ele>
        <time>2019-11-30T14:38:39.000Z</time>
      </trkpt>
      <trkpt lat="43.6356" lon="5.40711">
        <ele>388</ele>
        <time>2019-11-30T14:38:40.000Z</time>
      </trkpt>
      <trkpt lat="43.6356" lon="5.4071">
        <ele>388.20001220703</ele>
        <time>2019-11-30T14:38:41.000Z</time>
      </trkpt>
      <trkpt lat="43.6356" lon="5.40709">
        <ele>388.20001220703</ele>
        <time>2019-11-30T14:38:42.000Z</time>
      </trkpt>
      <trkpt lat="43.6356" lon="5.40709">
        <ele>388.20001220703</ele>
        <time>2019-11-30T14:38:43.000Z</time>
      </trkpt>
      <trkpt lat="43.6356" lon="5.40709">
        <ele>388.20001220703</ele>
        <time>2019-11-30T14:38:44.000Z</time>
      </trkpt>
      <trkpt lat="43.6356" lon="5.40709">
        <ele>388.20001220703</ele>
        <time>2019-11-30T14:38:45.000Z</time>
      </trkpt>
      <trkpt lat="43.6356" lon="5.40709">
        <ele>388.20001220703</ele>
        <time>2019-11-30T14:38:46.000Z</time>
      </trkpt>
      <trkpt lat="43.6356" lon="5.40709">
        <ele>388.20001220703</ele>
        <time>2019-11-30T14:38:47.000Z</time>
      </trkpt>
      <trkpt lat="43.6356" lon="5.40709">
        <ele>388.20001220703</ele>
        <time>2019-11-30T14:38:48.000Z</time>
      </trkpt>
      <trkpt lat="43.6356" lon="5.40709">
        <ele>388.20001220703</ele>
        <time>2019-11-30T14:38:49.000Z</time>
      </trkpt>
      <trkpt lat="43.6356" lon="5.40709">
        <ele>388.20001220703</ele>
        <time>2019-11-30T14:38:50.000Z</time>
      </trkpt>
      <trkpt lat="43.6356" lon="5.40709">
        <ele>388.39999389648</ele>
        <time>2019-11-30T14:38:51.000Z</time>
      </trkpt>
      <trkpt lat="43.6356" lon="5.40709">
        <ele>388.20001220703</ele>
        <time>2019-11-30T14:38:52.000Z</time>
      </trkpt>
      <trkpt lat="43.6356" lon="5.40709">
        <ele>388.20001220703</ele>
        <time>2019-11-30T14:38:53.000Z</time>
      </trkpt>
      <trkpt lat="43.6356" lon="5.40709">
        <ele>388.20001220703</ele>
        <time>2019-11-30T14:38:54.000Z</time>
      </trkpt>
      <trkpt lat="43.6356" lon="5.40709">
        <ele>388.20001220703</ele>
        <time>2019-11-30T14:38:55.000Z</time>
      </trkpt>
      <trkpt lat="43.6356" lon="5.40709">
        <ele>388.20001220703</ele>
        <time>2019-11-30T14:38:56.000Z</time>
      </trkpt>
      <trkpt lat="43.63561" lon="5.40709">
        <ele>388.20001220703</ele>
        <time>2019-11-30T14:38:57.000Z</time>
      </trkpt>
      <trkpt lat="43.63561" lon="5.40709">
        <ele>388.39999389648</ele>
        <time>2019-11-30T14:38:58.000Z</time>
      </trkpt>
      <trkpt lat="43.63562" lon="5.40709">
        <ele>388.20001220703</ele>
        <time>2019-11-30T14:38:59.000Z</time>
      </trkpt>
      <trkpt lat="43.63562" lon="5.40709">
        <ele>388.20001220703</ele>
        <time>2019-11-30T14:39:00.000Z</time>
      </trkpt>
      <trkpt lat="43.63562" lon="5.40709">
        <ele>388.20001220703</ele>
        <time>2019-11-30T14:39:01.000Z</time>
      </trkpt>
      <trkpt lat="43.63562" lon="5.40709">
        <ele>388.20001220703</ele>
        <time>2019-11-30T14:39:02.000Z</time>
      </trkpt>
      <trkpt lat="43.63562" lon="5.40709">
        <ele>388.20001220703</ele>
        <time>2019-11-30T14:39:03.000Z</time>
      </trkpt>
      <trkpt lat="43.63562" lon="5.40709">
        <ele>388.20001220703</ele>
        <time>2019-11-30T14:39:04.000Z</time>
      </trkpt>
      <trkpt lat="43.63562" lon="5.40709">
        <ele>388.20001220703</ele>
        <time>2019-11-30T14:39:05.000Z</time>
      </trkpt>
      <trkpt lat="43.63562" lon="5.40709">
        <ele>388.20001220703</ele>
        <time>2019-11-30T14:39:06.000Z</time>
      </trkpt>
      <trkpt lat="43.63562" lon="5.40709">
        <ele>388.20001220703</ele>
        <time>2019-11-30T14:39:07.000Z</time>
      </trkpt>
      <trkpt lat="43.63564" lon="5.4071">
        <ele>387.79998779297</ele>
        <time>2019-11-30T14:39:08.000Z</time>
      </trkpt>
      <trkpt lat="43.63566" lon="5.40712">
        <ele>387.20001220703</ele>
        <time>2019-11-30T14:39:09.000Z</time>
      </trkpt>
      <trkpt lat="43.63568" lon="5.40713">
        <ele>386.79998779297</ele>
        <time>2019-11-30T14:39:10.000Z</time>
      </trkpt>
      <trkpt lat="43.63571" lon="5.40715">
        <ele>386</ele>
        <time>2019-11-30T14:39:11.000Z</time>
      </trkpt>
      <trkpt lat="43.63574" lon="5.40716">
        <ele>385.60000610352</ele>
        <time>2019-11-30T14:39:12.000Z</time>
      </trkpt>
      <trkpt lat="43.63576" lon="5.40715">
        <ele>385.60000610352</ele>
        <time>2019-11-30T14:39:13.000Z</time>
      </trkpt>
      <trkpt lat="43.63577" lon="5.40714">
        <ele>385.60000610352</ele>
        <time>2019-11-30T14:39:14.000Z</time>
      </trkpt>
      <trkpt lat="43.63579" lon="5.40714">
        <ele>385.60000610352</ele>
        <time>2019-11-30T14:39:15.000Z</time>
      </trkpt>
      <trkpt lat="43.63581" lon="5.40714">
        <ele>385.39999389648</ele>
        <time>2019-11-30T14:39:16.000Z</time>
      </trkpt>
      <trkpt lat="43.63583" lon="5.40714">
        <ele>385</ele>
        <time>2019-11-30T14:39:17.000Z</time>
      </trkpt>
      <trkpt lat="43.63586" lon="5.40714">
        <ele>384.79998779297</ele>
        <time>2019-11-30T14:39:18.000Z</time>
      </trkpt>
      <trkpt lat="43.63589" lon="5.40716">
        <ele>384.20001220703</ele>
        <time>2019-11-30T14:39:19.000Z</time>
      </trkpt>
      <trkpt lat="43.63591" lon="5.40716">
        <ele>383.79998779297</ele>
        <time>2019-11-30T14:39:20.000Z</time>
      </trkpt>
      <trkpt lat="43.63593" lon="5.40716">
        <ele>383.60000610352</ele>
        <time>2019-11-30T14:39:21.000Z</time>
      </trkpt>
      <trkpt lat="43.63595" lon="5.40717">
        <ele>383.20001220703</ele>
        <time>2019-11-30T14:39:22.000Z</time>
      </trkpt>
      <trkpt lat="43.63597" lon="5.40717">
        <ele>383</ele>
        <time>2019-11-30T14:39:23.000Z</time>
      </trkpt>
      <trkpt lat="43.63599" lon="5.40717">
        <ele>383</ele>
        <time>2019-11-30T14:39:24.000Z</time>
      </trkpt>
      <trkpt lat="43.63601" lon="5.40717">
        <ele>382.79998779297</ele>
        <time>2019-11-30T14:39:25.000Z</time>
      </trkpt>
      <trkpt lat="43.63602" lon="5.40716">
        <ele>382.79998779297</ele>
        <time>2019-11-30T14:39:26.000Z</time>
      </trkpt>
      <trkpt lat="43.63604" lon="5.40716">
        <ele>382.79998779297</ele>
        <time>2019-11-30T14:39:27.000Z</time>
      </trkpt>
      <trkpt lat="43.63606" lon="5.40717">
        <ele>382.60000610352</ele>
        <time>2019-11-30T14:39:28.000Z</time>
      </trkpt>
      <trkpt lat="43.63607" lon="5.40719">
        <ele>382.39999389648</ele>
        <time>2019-11-30T14:39:29.000Z</time>
      </trkpt>
      <trkpt lat="43.63609" lon="5.40721">
        <ele>382</ele>
        <time>2019-11-30T14:39:30.000Z</time>
      </trkpt>
      <trkpt lat="43.63612" lon="5.40723">
        <ele>381.60000610352</ele>
        <time>2019-11-30T14:39:31.000Z</time>
      </trkpt>
      <trkpt lat="43.63615" lon="5.40725">
        <ele>381.39999389648</ele>
        <time>2019-11-30T14:39:32.000Z</time>
      </trkpt>
      <trkpt lat="43.63618" lon="5.40726">
        <ele>381.20001220703</ele>
        <time>2019-11-30T14:39:33.000Z</time>
      </trkpt>
      <trkpt lat="43.6362" lon="5.40726">
        <ele>381.20001220703</ele>
        <time>2019-11-30T14:39:34.000Z</time>
      </trkpt>
      <trkpt lat="43.63623" lon="5.40726">
        <ele>381.39999389648</ele>
        <time>2019-11-30T14:39:35.000Z</time>
      </trkpt>
      <trkpt lat="43.63627" lon="5.40726">
        <ele>381.60000610352</ele>
        <time>2019-11-30T14:39:36.000Z</time>
      </trkpt>
      <trkpt lat="43.6363" lon="5.40727">
        <ele>381.60000610352</ele>
        <time>2019-11-30T14:39:37.000Z</time>
      </trkpt>
      <trkpt lat="43.63633" lon="5.40726">
        <ele>381.79998779297</ele>
        <time>2019-11-30T14:39:38.000Z</time>
      </trkpt>
      <trkpt lat="43.63637" lon="5.40725">
        <ele>382.20001220703</ele>
        <time>2019-11-30T14:39:39.000Z</time>
      </trkpt>
      <trkpt lat="43.63641" lon="5.40725">
        <ele>382.60000610352</ele>
        <time>2019-11-30T14:39:40.000Z</time>
      </trkpt>
      <trkpt lat="43.63644" lon="5.40724">
        <ele>383</ele>
        <time>2019-11-30T14:39:41.000Z</time>
      </trkpt>
      <trkpt lat="43.63648" lon="5.40724">
        <ele>383.20001220703</ele>
        <time>2019-11-30T14:39:42.000Z</time>
      </trkpt>
      <trkpt lat="43.63651" lon="5.40724">
        <ele>383.20001220703</ele>
        <time>2019-11-30T14:39:43.000Z</time>
      </trkpt>
      <trkpt lat="43.63654" lon="5.40725">
        <ele>383</ele>
        <time>2019-11-30T14:39:44.000Z</time>
      </trkpt>
      <trkpt lat="43.63657" lon="5.40727">
        <ele>382.79998779297</ele>
        <time>2019-11-30T14:39:45.000Z</time>
      </trkpt>
      <trkpt lat="43.6366" lon="5.40728">
        <ele>382.60000610352</ele>
        <time>2019-11-30T14:39:46.000Z</time>
      </trkpt>
      <trkpt lat="43.63663" lon="5.40729">
        <ele>382.60000610352</ele>
        <time>2019-11-30T14:39:47.000Z</time>
      </trkpt>
      <trkpt lat="43.63666" lon="5.40729">
        <ele>382.79998779297</ele>
        <time>2019-11-30T14:39:48.000Z</time>
      </trkpt>
      <trkpt lat="43.63669" lon="5.40728">
        <ele>383</ele>
        <time>2019-11-30T14:39:49.000Z</time>
      </trkpt>
      <trkpt lat="43.6367" lon="5.40728">
        <ele>383.20001220703</ele>
        <time>2019-11-30T14:39:50.000Z</time>
      </trkpt>
      <trkpt lat="43.63672" lon="5.40729">
        <ele>383</ele>
        <time>2019-11-30T14:39:51.000Z</time>
      </trkpt>
      <trkpt lat="43.63676" lon="5.40731">
        <ele>382.79998779297</ele>
        <time>2019-11-30T14:39:52.000Z</time>
      </trkpt>
      <trkpt lat="43.63679" lon="5.40733">
        <ele>382.39999389648</ele>
        <time>2019-11-30T14:39:53.000Z</time>
      </trkpt>
      <trkpt lat="43.63682" lon="5.40735">
        <ele>382.20001220703</ele>
        <time>2019-11-30T14:39:54.000Z</time>
      </trkpt>
      <trkpt lat="43.63685" lon="5.40734">
        <ele>382.39999389648</ele>
        <time>2019-11-30T14:39:55.000Z</time>
      </trkpt>
      <trkpt lat="43.63687" lon="5.40734">
        <ele>382.60000610352</ele>
        <time>2019-11-30T14:39:56.000Z</time>
      </trkpt>
      <trkpt lat="43.63689" lon="5.40733">
        <ele>382.79998779297</ele>
        <time>2019-11-30T14:39:57.000Z</time>
      </trkpt>
      <trkpt lat="43.63691" lon="5.40733">
        <ele>383</ele>
        <time>2019-11-30T14:39:58.000Z</time>
      </trkpt>
      <trkpt lat="43.63692" lon="5.40732">
        <ele>383.20001220703</ele>
        <time>2019-11-30T14:39:59.000Z</time>
      </trkpt>
      <trkpt lat="43.63693" lon="5.40731">
        <ele>383.60000610352</ele>
        <time>2019-11-30T14:40:00.000Z</time>
      </trkpt>
      <trkpt lat="43.63695" lon="5.40731">
        <ele>383.79998779297</ele>
        <time>2019-11-30T14:40:01.000Z</time>
      </trkpt>
      <trkpt lat="43.63697" lon="5.40731">
        <ele>383.79998779297</ele>
        <time>2019-11-30T14:40:02.000Z</time>
      </trkpt>
      <trkpt lat="43.63699" lon="5.40731">
        <ele>383.79998779297</ele>
        <time>2019-11-30T14:40:03.000Z</time>
      </trkpt>
      <trkpt lat="43.63702" lon="5.40732">
        <ele>383.79998779297</ele>
        <time>2019-11-30T14:40:04.000Z</time>
      </trkpt>
      <trkpt lat="43.63705" lon="5.40732">
        <ele>383.60000610352</ele>
        <time>2019-11-30T14:40:05.000Z</time>
      </trkpt>
      <trkpt lat="43.63707" lon="5.40732">
        <ele>383.20001220703</ele>
        <time>2019-11-30T14:40:06.000Z</time>
      </trkpt>
      <trkpt lat="43.6371" lon="5.40732">
        <ele>383</ele>
        <time>2019-11-30T14:40:07.000Z</time>
      </trkpt>
      <trkpt lat="43.63712" lon="5.4073">
        <ele>383</ele>
        <time>2019-11-30T14:40:08.000Z</time>
      </trkpt>
      <trkpt lat="43.63713" lon="5.40729">
        <ele>383</ele>
        <time>2019-11-30T14:40:09.000Z</time>
      </trkpt>
      <trkpt lat="43.63714" lon="5.40727">
        <ele>383.20001220703</ele>
        <time>2019-11-30T14:40:10.000Z</time>
      </trkpt>
      <trkpt lat="43.63715" lon="5.40724">
        <ele>383.39999389648</ele>
        <time>2019-11-30T14:40:11.000Z</time>
      </trkpt>
      <trkpt lat="43.63715" lon="5.40722">
        <ele>383.60000610352</ele>
        <time>2019-11-30T14:40:12.000Z</time>
      </trkpt>
      <trkpt lat="43.63716" lon="5.40719">
        <ele>383.60000610352</ele>
        <time>2019-11-30T14:40:13.000Z</time>
      </trkpt>
      <trkpt lat="43.63717" lon="5.40717">
        <ele>383.79998779297</ele>
        <time>2019-11-30T14:40:14.000Z</time>
      </trkpt>
      <trkpt lat="43.63719" lon="5.40716">
        <ele>383.79998779297</ele>
        <time>2019-11-30T14:40:15.000Z</time>
      </trkpt>
      <trkpt lat="43.6372" lon="5.40714">
        <ele>384</ele>
        <time>2019-11-30T14:40:16.000Z</time>
      </trkpt>
      <trkpt lat="43.63721" lon="5.40711">
        <ele>384.39999389648</ele>
        <time>2019-11-30T14:40:17.000Z</time>
      </trkpt>
      <trkpt lat="43.63722" lon="5.40709">
        <ele>384.79998779297</ele>
        <time>2019-11-30T14:40:18.000Z</time>
      </trkpt>
      <trkpt lat="43.63723" lon="5.40706">
        <ele>385.20001220703</ele>
        <time>2019-11-30T14:40:19.000Z</time>
      </trkpt>
      <trkpt lat="43.63723" lon="5.40704">
        <ele>385.60000610352</ele>
        <time>2019-11-30T14:40:20.000Z</time>
      </trkpt>
      <trkpt lat="43.63724" lon="5.40702">
        <ele>386</ele>
        <time>2019-11-30T14:40:21.000Z</time>
      </trkpt>
      <trkpt lat="43.63725" lon="5.407">
        <ele>386.20001220703</ele>
        <time>2019-11-30T14:40:22.000Z</time>
      </trkpt>
      <trkpt lat="43.63727" lon="5.40698">
        <ele>386.20001220703</ele>
        <time>2019-11-30T14:40:23.000Z</time>
      </trkpt>
      <trkpt lat="43.63728" lon="5.40697">
        <ele>386.39999389648</ele>
        <time>2019-11-30T14:40:24.000Z</time>
      </trkpt>
      <trkpt lat="43.6373" lon="5.40695">
        <ele>386.60000610352</ele>
        <time>2019-11-30T14:40:25.000Z</time>
      </trkpt>
      <trkpt lat="43.63732" lon="5.40694">
        <ele>386.60000610352</ele>
        <time>2019-11-30T14:40:26.000Z</time>
      </trkpt>
      <trkpt lat="43.63736" lon="5.40691">
        <ele>386.79998779297</ele>
        <time>2019-11-30T14:40:27.000Z</time>
      </trkpt>
      <trkpt lat="43.63738" lon="5.40688">
        <ele>387.20001220703</ele>
        <time>2019-11-30T14:40:28.000Z</time>
      </trkpt>
      <trkpt lat="43.63741" lon="5.40687">
        <ele>387.20001220703</ele>
        <time>2019-11-30T14:40:29.000Z</time>
      </trkpt>
      <trkpt lat="43.63743" lon="5.40687">
        <ele>386.79998779297</ele>
        <time>2019-11-30T14:40:30.000Z</time>
      </trkpt>
      <trkpt lat="43.63745" lon="5.40686">
        <ele>386.60000610352</ele>
        <time>2019-11-30T14:40:31.000Z</time>
      </trkpt>
      <trkpt lat="43.63746" lon="5.40684">
        <ele>386.60000610352</ele>
        <time>2019-11-30T14:40:32.000Z</time>
      </trkpt>
      <trkpt lat="43.63747" lon="5.40683">
        <ele>386.60000610352</ele>
        <time>2019-11-30T14:40:33.000Z</time>
      </trkpt>
      <trkpt lat="43.63749" lon="5.40682">
        <ele>386.39999389648</ele>
        <time>2019-11-30T14:40:34.000Z</time>
      </trkpt>
      <trkpt lat="43.6375" lon="5.40681">
        <ele>386.20001220703</ele>
        <time>2019-11-30T14:40:35.000Z</time>
      </trkpt>
      <trkpt lat="43.63752" lon="5.4068">
        <ele>386</ele>
        <time>2019-11-30T14:40:36.000Z</time>
      </trkpt>
      <trkpt lat="43.63753" lon="5.4068">
        <ele>386</ele>
        <time>2019-11-30T14:40:37.000Z</time>
      </trkpt>
      <trkpt lat="43.63754" lon="5.40678">
        <ele>386</ele>
        <time>2019-11-30T14:40:38.000Z</time>
      </trkpt>
      <trkpt lat="43.63758" lon="5.40673">
        <ele>385.79998779297</ele>
        <time>2019-11-30T14:40:39.000Z</time>
      </trkpt>
      <trkpt lat="43.6376" lon="5.40672">
        <ele>385.79998779297</ele>
        <time>2019-11-30T14:40:40.000Z</time>
      </trkpt>
      <trkpt lat="43.63761" lon="5.40671">
        <ele>385.60000610352</ele>
        <time>2019-11-30T14:40:41.000Z</time>
      </trkpt>
      <trkpt lat="43.63762" lon="5.4067">
        <ele>385.60000610352</ele>
        <time>2019-11-30T14:40:42.000Z</time>
      </trkpt>
      <trkpt lat="43.63762" lon="5.4067">
        <ele>385.60000610352</ele>
        <time>2019-11-30T14:40:43.000Z</time>
      </trkpt>
      <trkpt lat="43.63763" lon="5.4067">
        <ele>385.39999389648</ele>
        <time>2019-11-30T14:40:44.000Z</time>
      </trkpt>
      <trkpt lat="43.63765" lon="5.40673">
        <ele>384.79998779297</ele>
        <time>2019-11-30T14:40:45.000Z</time>
      </trkpt>
      <trkpt lat="43.63767" lon="5.40676">
        <ele>384</ele>
        <time>2019-11-30T14:40:46.000Z</time>
      </trkpt>
      <trkpt lat="43.6377" lon="5.40678">
        <ele>383.20001220703</ele>
        <time>2019-11-30T14:40:47.000Z</time>
      </trkpt>
      <trkpt lat="43.63772" lon="5.40681">
        <ele>382.20001220703</ele>
        <time>2019-11-30T14:40:48.000Z</time>
      </trkpt>
      <trkpt lat="43.63774" lon="5.40683">
        <ele>381.39999389648</ele>
        <time>2019-11-30T14:40:49.000Z</time>
      </trkpt>
      <trkpt lat="43.63776" lon="5.40685">
        <ele>380.60000610352</ele>
        <time>2019-11-30T14:40:50.000Z</time>
      </trkpt>
      <trkpt lat="43.63779" lon="5.40686">
        <ele>379.60000610352</ele>
        <time>2019-11-30T14:40:51.000Z</time>
      </trkpt>
      <trkpt lat="43.63781" lon="5.40686">
        <ele>378.79998779297</ele>
        <time>2019-11-30T14:40:52.000Z</time>
      </trkpt>
      <trkpt lat="43.63785" lon="5.40684">
        <ele>378</ele>
        <time>2019-11-30T14:40:53.000Z</time>
      </trkpt>
      <trkpt lat="43.63788" lon="5.40683">
        <ele>377.39999389648</ele>
        <time>2019-11-30T14:40:54.000Z</time>
      </trkpt>
      <trkpt lat="43.6379" lon="5.40681">
        <ele>376.60000610352</ele>
        <time>2019-11-30T14:40:55.000Z</time>
      </trkpt>
      <trkpt lat="43.63792" lon="5.4068">
        <ele>376.20001220703</ele>
        <time>2019-11-30T14:40:56.000Z</time>
      </trkpt>
      <trkpt lat="43.63794" lon="5.40677">
        <ele>376</ele>
        <time>2019-11-30T14:40:57.000Z</time>
      </trkpt>
      <trkpt lat="43.63797" lon="5.40674">
        <ele>375.60000610352</ele>
        <time>2019-11-30T14:40:58.000Z</time>
      </trkpt>
      <trkpt lat="43.63798" lon="5.40671">
        <ele>375.39999389648</ele>
        <time>2019-11-30T14:40:59.000Z</time>
      </trkpt>
      <trkpt lat="43.638" lon="5.40668">
        <ele>375.39999389648</ele>
        <time>2019-11-30T14:41:00.000Z</time>
      </trkpt>
      <trkpt lat="43.63802" lon="5.40665">
        <ele>375</ele>
        <time>2019-11-30T14:41:01.000Z</time>
      </trkpt>
      <trkpt lat="43.63804" lon="5.40662">
        <ele>374.79998779297</ele>
        <time>2019-11-30T14:41:02.000Z</time>
      </trkpt>
      <trkpt lat="43.63806" lon="5.40661">
        <ele>374.60000610352</ele>
        <time>2019-11-30T14:41:03.000Z</time>
      </trkpt>
      <trkpt lat="43.63807" lon="5.40661">
        <ele>374.39999389648</ele>
        <time>2019-11-30T14:41:04.000Z</time>
      </trkpt>
      <trkpt lat="43.63807" lon="5.40661">
        <ele>374.39999389648</ele>
        <time>2019-11-30T14:41:05.000Z</time>
      </trkpt>
      <trkpt lat="43.63807" lon="5.40661">
        <ele>374.39999389648</ele>
        <time>2019-11-30T14:41:06.000Z</time>
      </trkpt>
      <trkpt lat="43.63807" lon="5.40661">
        <ele>374.39999389648</ele>
        <time>2019-11-30T14:41:07.000Z</time>
      </trkpt>
      <trkpt lat="43.63807" lon="5.4066">
        <ele>374.39999389648</ele>
        <time>2019-11-30T14:41:08.000Z</time>
      </trkpt>
      <trkpt lat="43.63807" lon="5.4066">
        <ele>374.39999389648</ele>
        <time>2019-11-30T14:41:09.000Z</time>
      </trkpt>
      <trkpt lat="43.63808" lon="5.40659">
        <ele>374.39999389648</ele>
        <time>2019-11-30T14:41:10.000Z</time>
      </trkpt>
      <trkpt lat="43.63809" lon="5.40658">
        <ele>374.20001220703</ele>
        <time>2019-11-30T14:41:11.000Z</time>
      </trkpt>
      <trkpt lat="43.6381" lon="5.40656">
        <ele>374.20001220703</ele>
        <time>2019-11-30T14:41:12.000Z</time>
      </trkpt>
      <trkpt lat="43.63811" lon="5.40654">
        <ele>374.39999389648</ele>
        <time>2019-11-30T14:41:13.000Z</time>
      </trkpt>
      <trkpt lat="43.63812" lon="5.40651">
        <ele>374.39999389648</ele>
        <time>2019-11-30T14:41:14.000Z</time>
      </trkpt>
      <trkpt lat="43.63813" lon="5.40648">
        <ele>374.60000610352</ele>
        <time>2019-11-30T14:41:15.000Z</time>
      </trkpt>
      <trkpt lat="43.63815" lon="5.40645">
        <ele>374.39999389648</ele>
        <time>2019-11-30T14:41:16.000Z</time>
      </trkpt>
      <trkpt lat="43.63816" lon="5.40643">
        <ele>374.39999389648</ele>
        <time>2019-11-30T14:41:17.000Z</time>
      </trkpt>
      <trkpt lat="43.63817" lon="5.40641">
        <ele>374.39999389648</ele>
        <time>2019-11-30T14:41:18.000Z</time>
      </trkpt>
      <trkpt lat="43.63818" lon="5.40639">
        <ele>374.39999389648</ele>
        <time>2019-11-30T14:41:19.000Z</time>
      </trkpt>
      <trkpt lat="43.63819" lon="5.40637">
        <ele>374.39999389648</ele>
        <time>2019-11-30T14:41:20.000Z</time>
      </trkpt>
      <trkpt lat="43.6382" lon="5.40636">
        <ele>374.39999389648</ele>
        <time>2019-11-30T14:41:21.000Z</time>
      </trkpt>
      <trkpt lat="43.63821" lon="5.40634">
        <ele>374.39999389648</ele>
        <time>2019-11-30T14:41:22.000Z</time>
      </trkpt>
      <trkpt lat="43.63821" lon="5.40633">
        <ele>374.60000610352</ele>
        <time>2019-11-30T14:41:23.000Z</time>
      </trkpt>
      <trkpt lat="43.63821" lon="5.40632">
        <ele>374.60000610352</ele>
        <time>2019-11-30T14:41:24.000Z</time>
      </trkpt>
      <trkpt lat="43.63821" lon="5.40631">
        <ele>374.79998779297</ele>
        <time>2019-11-30T14:41:25.000Z</time>
      </trkpt>
      <trkpt lat="43.63822" lon="5.40629">
        <ele>374.79998779297</ele>
        <time>2019-11-30T14:41:26.000Z</time>
      </trkpt>
      <trkpt lat="43.63824" lon="5.40628">
        <ele>374.60000610352</ele>
        <time>2019-11-30T14:41:27.000Z</time>
      </trkpt>
      <trkpt lat="43.63825" lon="5.40625">
        <ele>374.79998779297</ele>
        <time>2019-11-30T14:41:28.000Z</time>
      </trkpt>
      <trkpt lat="43.63827" lon="5.40622">
        <ele>374.79998779297</ele>
        <time>2019-11-30T14:41:29.000Z</time>
      </trkpt>
      <trkpt lat="43.63828" lon="5.4062">
        <ele>374.79998779297</ele>
        <time>2019-11-30T14:41:30.000Z</time>
      </trkpt>
      <trkpt lat="43.63829" lon="5.40617">
        <ele>375.20001220703</ele>
        <time>2019-11-30T14:41:31.000Z</time>
      </trkpt>
      <trkpt lat="43.63831" lon="5.40614">
        <ele>375.39999389648</ele>
        <time>2019-11-30T14:41:32.000Z</time>
      </trkpt>
      <trkpt lat="43.63835" lon="5.40611">
        <ele>374.79998779297</ele>
        <time>2019-11-30T14:41:33.000Z</time>
      </trkpt>
      <trkpt lat="43.63838" lon="5.40609">
        <ele>373.79998779297</ele>
        <time>2019-11-30T14:41:34.000Z</time>
      </trkpt>
      <trkpt lat="43.63841" lon="5.40607">
        <ele>373.39999389648</ele>
        <time>2019-11-30T14:41:35.000Z</time>
      </trkpt>
      <trkpt lat="43.63843" lon="5.40605">
        <ele>373</ele>
        <time>2019-11-30T14:41:36.000Z</time>
      </trkpt>
      <trkpt lat="43.63846" lon="5.40602">
        <ele>372.60000610352</ele>
        <time>2019-11-30T14:41:37.000Z</time>
      </trkpt>
      <trkpt lat="43.63849" lon="5.406">
        <ele>372.20001220703</ele>
        <time>2019-11-30T14:41:38.000Z</time>
      </trkpt>
      <trkpt lat="43.6385" lon="5.40599">
        <ele>372</ele>
        <time>2019-11-30T14:41:39.000Z</time>
      </trkpt>
      <trkpt lat="43.63851" lon="5.40598">
        <ele>371.79998779297</ele>
        <time>2019-11-30T14:41:40.000Z</time>
      </trkpt>
      <trkpt lat="43.63852" lon="5.40595">
        <ele>371.79998779297</ele>
        <time>2019-11-30T14:41:41.000Z</time>
      </trkpt>
      <trkpt lat="43.63854" lon="5.40592">
        <ele>371.60000610352</ele>
        <time>2019-11-30T14:41:42.000Z</time>
      </trkpt>
      <trkpt lat="43.63857" lon="5.40588">
        <ele>371.79998779297</ele>
        <time>2019-11-30T14:41:43.000Z</time>
      </trkpt>
      <trkpt lat="43.63858" lon="5.40584">
        <ele>372</ele>
        <time>2019-11-30T14:41:44.000Z</time>
      </trkpt>
      <trkpt lat="43.63859" lon="5.40581">
        <ele>372</ele>
        <time>2019-11-30T14:41:45.000Z</time>
      </trkpt>
      <trkpt lat="43.63861" lon="5.40578">
        <ele>372</ele>
        <time>2019-11-30T14:41:46.000Z</time>
      </trkpt>
      <trkpt lat="43.63863" lon="5.40575">
        <ele>372</ele>
        <time>2019-11-30T14:41:47.000Z</time>
      </trkpt>
      <trkpt lat="43.63864" lon="5.40572">
        <ele>372.20001220703</ele>
        <time>2019-11-30T14:41:48.000Z</time>
      </trkpt>
      <trkpt lat="43.63866" lon="5.4057">
        <ele>372</ele>
        <time>2019-11-30T14:41:49.000Z</time>
      </trkpt>
      <trkpt lat="43.63866" lon="5.40569">
        <ele>372</ele>
        <time>2019-11-30T14:41:50.000Z</time>
      </trkpt>
      <trkpt lat="43.63867" lon="5.40568">
        <ele>372</ele>
        <time>2019-11-30T14:41:51.000Z</time>
      </trkpt>
      <trkpt lat="43.63868" lon="5.40565">
        <ele>372.20001220703</ele>
        <time>2019-11-30T14:41:52.000Z</time>
      </trkpt>
      <trkpt lat="43.63868" lon="5.40562">
        <ele>372.39999389648</ele>
        <time>2019-11-30T14:41:53.000Z</time>
      </trkpt>
      <trkpt lat="43.63869" lon="5.40559">
        <ele>372.39999389648</ele>
        <time>2019-11-30T14:41:54.000Z</time>
      </trkpt>
      <trkpt lat="43.63869" lon="5.40556">
        <ele>372.39999389648</ele>
        <time>2019-11-30T14:41:55.000Z</time>
      </trkpt>
      <trkpt lat="43.6387" lon="5.40553">
        <ele>372.39999389648</ele>
        <time>2019-11-30T14:41:56.000Z</time>
      </trkpt>
      <trkpt lat="43.6387" lon="5.40549">
        <ele>372.60000610352</ele>
        <time>2019-11-30T14:41:57.000Z</time>
      </trkpt>
      <trkpt lat="43.63871" lon="5.40546">
        <ele>372.79998779297</ele>
        <time>2019-11-30T14:41:58.000Z</time>
      </trkpt>
      <trkpt lat="43.63872" lon="5.40543">
        <ele>372.79998779297</ele>
        <time>2019-11-30T14:41:59.000Z</time>
      </trkpt>
      <trkpt lat="43.63873" lon="5.4054">
        <ele>372.60000610352</ele>
        <time>2019-11-30T14:42:00.000Z</time>
      </trkpt>
      <trkpt lat="43.63877" lon="5.40537">
        <ele>371.79998779297</ele>
        <time>2019-11-30T14:42:01.000Z</time>
      </trkpt>
      <trkpt lat="43.63879" lon="5.40535">
        <ele>371</ele>
        <time>2019-11-30T14:42:02.000Z</time>
      </trkpt>
      <trkpt lat="43.6388" lon="5.40531">
        <ele>371.20001220703</ele>
        <time>2019-11-30T14:42:03.000Z</time>
      </trkpt>
      <trkpt lat="43.63881" lon="5.40527">
        <ele>371.39999389648</ele>
        <time>2019-11-30T14:42:04.000Z</time>
      </trkpt>
      <trkpt lat="43.63881" lon="5.40523">
        <ele>371.60000610352</ele>
        <time>2019-11-30T14:42:05.000Z</time>
      </trkpt>
      <trkpt lat="43.63882" lon="5.4052">
        <ele>371.60000610352</ele>
        <time>2019-11-30T14:42:06.000Z</time>
      </trkpt>
      <trkpt lat="43.63884" lon="5.40516">
        <ele>371.39999389648</ele>
        <time>2019-11-30T14:42:07.000Z</time>
      </trkpt>
      <trkpt lat="43.63885" lon="5.40511">
        <ele>371.60000610352</ele>
        <time>2019-11-30T14:42:08.000Z</time>
      </trkpt>
      <trkpt lat="43.63887" lon="5.40507">
        <ele>371.60000610352</ele>
        <time>2019-11-30T14:42:09.000Z</time>
      </trkpt>
      <trkpt lat="43.63887" lon="5.40503">
        <ele>371.60000610352</ele>
        <time>2019-11-30T14:42:10.000Z</time>
      </trkpt>
      <trkpt lat="43.63888" lon="5.405">
        <ele>371.79998779297</ele>
        <time>2019-11-30T14:42:11.000Z</time>
      </trkpt>
      <trkpt lat="43.63889" lon="5.40496">
        <ele>371.60000610352</ele>
        <time>2019-11-30T14:42:12.000Z</time>
      </trkpt>
      <trkpt lat="43.6389" lon="5.40493">
        <ele>371.79998779297</ele>
        <time>2019-11-30T14:42:13.000Z</time>
      </trkpt>
      <trkpt lat="43.6389" lon="5.40493">
        <ele>371.60000610352</ele>
        <time>2019-11-30T14:42:14.000Z</time>
      </trkpt>
      <trkpt lat="43.6389" lon="5.40493">
        <ele>371.60000610352</ele>
        <time>2019-11-30T14:42:15.000Z</time>
      </trkpt>
      <trkpt lat="43.63891" lon="5.40492">
        <ele>371.60000610352</ele>
        <time>2019-11-30T14:42:16.000Z</time>
      </trkpt>
      <trkpt lat="43.63891" lon="5.40491">
        <ele>371.20001220703</ele>
        <time>2019-11-30T14:42:17.000Z</time>
      </trkpt>
      <trkpt lat="43.63892" lon="5.4049">
        <ele>371.20001220703</ele>
        <time>2019-11-30T14:42:18.000Z</time>
      </trkpt>
      <trkpt lat="43.63892" lon="5.40489">
        <ele>371.39999389648</ele>
        <time>2019-11-30T14:42:19.000Z</time>
      </trkpt>
      <trkpt lat="43.63891" lon="5.40487">
        <ele>371.79998779297</ele>
        <time>2019-11-30T14:42:20.000Z</time>
      </trkpt>
      <trkpt lat="43.63891" lon="5.40486">
        <ele>371.79998779297</ele>
        <time>2019-11-30T14:42:21.000Z</time>
      </trkpt>
      <trkpt lat="43.63891" lon="5.40485">
        <ele>371.79998779297</ele>
        <time>2019-11-30T14:42:22.000Z</time>
      </trkpt>
      <trkpt lat="43.63892" lon="5.40483">
        <ele>371.60000610352</ele>
        <time>2019-11-30T14:42:23.000Z</time>
      </trkpt>
      <trkpt lat="43.63892" lon="5.4048">
        <ele>372</ele>
        <time>2019-11-30T14:42:24.000Z</time>
      </trkpt>
      <trkpt lat="43.63891" lon="5.40478">
        <ele>372.39999389648</ele>
        <time>2019-11-30T14:42:25.000Z</time>
      </trkpt>
      <trkpt lat="43.63891" lon="5.40476">
        <ele>372.79998779297</ele>
        <time>2019-11-30T14:42:26.000Z</time>
      </trkpt>
      <trkpt lat="43.63891" lon="5.40475">
        <ele>373</ele>
        <time>2019-11-30T14:42:27.000Z</time>
      </trkpt>
      <trkpt lat="43.63891" lon="5.40475">
        <ele>373</ele>
        <time>2019-11-30T14:42:28.000Z</time>
      </trkpt>
      <trkpt lat="43.63891" lon="5.40475">
        <ele>373</ele>
        <time>2019-11-30T14:42:29.000Z</time>
      </trkpt>
      <trkpt lat="43.63891" lon="5.40475">
        <ele>373</ele>
        <time>2019-11-30T14:42:30.000Z</time>
      </trkpt>
      <trkpt lat="43.6389" lon="5.40474">
        <ele>373</ele>
        <time>2019-11-30T14:42:31.000Z</time>
      </trkpt>
      <trkpt lat="43.6389" lon="5.40474">
        <ele>373</ele>
        <time>2019-11-30T14:42:32.000Z</time>
      </trkpt>
      <trkpt lat="43.6389" lon="5.40474">
        <ele>373</ele>
        <time>2019-11-30T14:42:33.000Z</time>
      </trkpt>
      <trkpt lat="43.6389" lon="5.40474">
        <ele>373</ele>
        <time>2019-11-30T14:42:34.000Z</time>
      </trkpt>
      <trkpt lat="43.6389" lon="5.40474">
        <ele>373</ele>
        <time>2019-11-30T14:42:35.000Z</time>
      </trkpt>
      <trkpt lat="43.6389" lon="5.40474">
        <ele>373</ele>
        <time>2019-11-30T14:42:36.000Z</time>
      </trkpt>
      <trkpt lat="43.6389" lon="5.40474">
        <ele>373</ele>
        <time>2019-11-30T14:42:37.000Z</time>
      </trkpt>
      <trkpt lat="43.6389" lon="5.40474">
        <ele>373</ele>
        <time>2019-11-30T14:42:38.000Z</time>
      </trkpt>
      <trkpt lat="43.6389" lon="5.40474">
        <ele>373</ele>
        <time>2019-11-30T14:42:39.000Z</time>
      </trkpt>
      <trkpt lat="43.6389" lon="5.40474">
        <ele>373</ele>
        <time>2019-11-30T14:42:40.000Z</time>
      </trkpt>
      <trkpt lat="43.6389" lon="5.40474">
        <ele>373.20001220703</ele>
        <time>2019-11-30T14:42:41.000Z</time>
      </trkpt>
      <trkpt lat="43.6389" lon="5.40473">
        <ele>373.39999389648</ele>
        <time>2019-11-30T14:42:42.000Z</time>
      </trkpt>
      <trkpt lat="43.6389" lon="5.40472">
        <ele>373.39999389648</ele>
        <time>2019-11-30T14:42:43.000Z</time>
      </trkpt>
      <trkpt lat="43.6389" lon="5.40472">
        <ele>373.39999389648</ele>
        <time>2019-11-30T14:42:44.000Z</time>
      </trkpt>
      <trkpt lat="43.6389" lon="5.40472">
        <ele>373.39999389648</ele>
        <time>2019-11-30T14:42:45.000Z</time>
      </trkpt>
      <trkpt lat="43.6389" lon="5.40472">
        <ele>373.39999389648</ele>
        <time>2019-11-30T14:42:46.000Z</time>
      </trkpt>
      <trkpt lat="43.6389" lon="5.40472">
        <ele>373.39999389648</ele>
        <time>2019-11-30T14:42:47.000Z</time>
      </trkpt>
      <trkpt lat="43.6389" lon="5.40472">
        <ele>373.39999389648</ele>
        <time>2019-11-30T14:42:48.000Z</time>
      </trkpt>
      <trkpt lat="43.6389" lon="5.40472">
        <ele>373.39999389648</ele>
        <time>2019-11-30T14:42:49.000Z</time>
      </trkpt>
      <trkpt lat="43.6389" lon="5.40472">
        <ele>373.39999389648</ele>
        <time>2019-11-30T14:42:50.000Z</time>
      </trkpt>
      <trkpt lat="43.6389" lon="5.40472">
        <ele>373.39999389648</ele>
        <time>2019-11-30T14:42:51.000Z</time>
      </trkpt>
      <trkpt lat="43.6389" lon="5.40472">
        <ele>373.39999389648</ele>
        <time>2019-11-30T14:42:52.000Z</time>
      </trkpt>
      <trkpt lat="43.6389" lon="5.40472">
        <ele>373.39999389648</ele>
        <time>2019-11-30T14:42:53.000Z</time>
      </trkpt>
      <trkpt lat="43.6389" lon="5.40472">
        <ele>373.39999389648</ele>
        <time>2019-11-30T14:42:54.000Z</time>
      </trkpt>
      <trkpt lat="43.6389" lon="5.40472">
        <ele>373.39999389648</ele>
        <time>2019-11-30T14:42:55.000Z</time>
      </trkpt>
      <trkpt lat="43.6389" lon="5.40472">
        <ele>373.39999389648</ele>
        <time>2019-11-30T14:42:56.000Z</time>
      </trkpt>
      <trkpt lat="43.6389" lon="5.40472">
        <ele>373.39999389648</ele>
        <time>2019-11-30T14:42:57.000Z</time>
      </trkpt>
      <trkpt lat="43.6389" lon="5.40472">
        <ele>373.39999389648</ele>
        <time>2019-11-30T14:42:58.000Z</time>
      </trkpt>
      <trkpt lat="43.6389" lon="5.40472">
        <ele>373.39999389648</ele>
        <time>2019-11-30T14:42:59.000Z</time>
      </trkpt>
      <trkpt lat="43.6389" lon="5.40472">
        <ele>373.39999389648</ele>
        <time>2019-11-30T14:43:00.000Z</time>
      </trkpt>
      <trkpt lat="43.6389" lon="5.40472">
        <ele>373.39999389648</ele>
        <time>2019-11-30T14:43:01.000Z</time>
      </trkpt>
      <trkpt lat="43.6389" lon="5.40472">
        <ele>373.39999389648</ele>
        <time>2019-11-30T14:43:02.000Z</time>
      </trkpt>
      <trkpt lat="43.6389" lon="5.40472">
        <ele>373.39999389648</ele>
        <time>2019-11-30T14:43:03.000Z</time>
      </trkpt>
      <trkpt lat="43.6389" lon="5.40472">
        <ele>373.39999389648</ele>
        <time>2019-11-30T14:43:04.000Z</time>
      </trkpt>
      <trkpt lat="43.6389" lon="5.40471">
        <ele>373.79998779297</ele>
        <time>2019-11-30T14:43:05.000Z</time>
      </trkpt>
      <trkpt lat="43.63889" lon="5.40469">
        <ele>374</ele>
        <time>2019-11-30T14:43:06.000Z</time>
      </trkpt>
      <trkpt lat="43.63889" lon="5.40466">
        <ele>374.39999389648</ele>
        <time>2019-11-30T14:43:07.000Z</time>
      </trkpt>
      <trkpt lat="43.63889" lon="5.40464">
        <ele>374.39999389648</ele>
        <time>2019-11-30T14:43:08.000Z</time>
      </trkpt>
      <trkpt lat="43.6389" lon="5.40462">
        <ele>374.20001220703</ele>
        <time>2019-11-30T14:43:09.000Z</time>
      </trkpt>
      <trkpt lat="43.63892" lon="5.4046">
        <ele>373.79998779297</ele>
        <time>2019-11-30T14:43:10.000Z</time>
      </trkpt>
      <trkpt lat="43.63892" lon="5.40459">
        <ele>373.79998779297</ele>
        <time>2019-11-30T14:43:11.000Z</time>
      </trkpt>
      <trkpt lat="43.63893" lon="5.40457">
        <ele>373.60000610352</ele>
        <time>2019-11-30T14:43:12.000Z</time>
      </trkpt>
      <trkpt lat="43.63893" lon="5.40457">
        <ele>373.60000610352</ele>
        <time>2019-11-30T14:43:13.000Z</time>
      </trkpt>
      <trkpt lat="43.63893" lon="5.40457">
        <ele>373.60000610352</ele>
        <time>2019-11-30T14:43:14.000Z</time>
      </trkpt>
      <trkpt lat="43.63893" lon="5.40457">
        <ele>373.60000610352</ele>
        <time>2019-11-30T14:43:15.000Z</time>
      </trkpt>
      <trkpt lat="43.63893" lon="5.40457">
        <ele>373.60000610352</ele>
        <time>2019-11-30T14:43:16.000Z</time>
      </trkpt>
      <trkpt lat="43.63894" lon="5.40456">
        <ele>373.20001220703</ele>
        <time>2019-11-30T14:43:17.000Z</time>
      </trkpt>
      <trkpt lat="43.63896" lon="5.40455">
        <ele>372.79998779297</ele>
        <time>2019-11-30T14:43:18.000Z</time>
      </trkpt>
      <trkpt lat="43.63897" lon="5.40454">
        <ele>372.20001220703</ele>
        <time>2019-11-30T14:43:19.000Z</time>
      </trkpt>
      <trkpt lat="43.63899" lon="5.4045">
        <ele>372</ele>
        <time>2019-11-30T14:43:20.000Z</time>
      </trkpt>
      <trkpt lat="43.63901" lon="5.40444">
        <ele>371.79998779297</ele>
        <time>2019-11-30T14:43:21.000Z</time>
      </trkpt>
      <trkpt lat="43.63903" lon="5.40441">
        <ele>371</ele>
        <time>2019-11-30T14:43:22.000Z</time>
      </trkpt>
      <trkpt lat="43.63905" lon="5.40439">
        <ele>370.60000610352</ele>
        <time>2019-11-30T14:43:23.000Z</time>
      </trkpt>
      <trkpt lat="43.63906" lon="5.40438">
        <ele>370.39999389648</ele>
        <time>2019-11-30T14:43:24.000Z</time>
      </trkpt>
      <trkpt lat="43.63906" lon="5.40437">
        <ele>370.20001220703</ele>
        <time>2019-11-30T14:43:25.000Z</time>
      </trkpt>
      <trkpt lat="43.63907" lon="5.40437">
        <ele>370.20001220703</ele>
        <time>2019-11-30T14:43:26.000Z</time>
      </trkpt>
      <trkpt lat="43.63907" lon="5.40435">
        <ele>370</ele>
        <time>2019-11-30T14:43:27.000Z</time>
      </trkpt>
      <trkpt lat="43.63908" lon="5.40434">
        <ele>370.20001220703</ele>
        <time>2019-11-30T14:43:28.000Z</time>
      </trkpt>
      <trkpt lat="43.63908" lon="5.40432">
        <ele>370.20001220703</ele>
        <time>2019-11-30T14:43:29.000Z</time>
      </trkpt>
      <trkpt lat="43.63908" lon="5.4043">
        <ele>370.39999389648</ele>
        <time>2019-11-30T14:43:30.000Z</time>
      </trkpt>
      <trkpt lat="43.63908" lon="5.40428">
        <ele>370.60000610352</ele>
        <time>2019-11-30T14:43:31.000Z</time>
      </trkpt>
      <trkpt lat="43.63908" lon="5.40427">
        <ele>370.60000610352</ele>
        <time>2019-11-30T14:43:32.000Z</time>
      </trkpt>
      <trkpt lat="43.63908" lon="5.40427">
        <ele>370.60000610352</ele>
        <time>2019-11-30T14:43:33.000Z</time>
      </trkpt>
      <trkpt lat="43.63908" lon="5.40427">
        <ele>370.60000610352</ele>
        <time>2019-11-30T14:43:34.000Z</time>
      </trkpt>
      <trkpt lat="43.63908" lon="5.40427">
        <ele>370.60000610352</ele>
        <time>2019-11-30T14:43:35.000Z</time>
      </trkpt>
      <trkpt lat="43.63908" lon="5.40427">
        <ele>370.60000610352</ele>
        <time>2019-11-30T14:43:36.000Z</time>
      </trkpt>
      <trkpt lat="43.6391" lon="5.40426">
        <ele>370</ele>
        <time>2019-11-30T14:43:37.000Z</time>
      </trkpt>
      <trkpt lat="43.6391" lon="5.40424">
        <ele>370</ele>
        <time>2019-11-30T14:43:38.000Z</time>
      </trkpt>
      <trkpt lat="43.63908" lon="5.4042">
        <ele>371</ele>
        <time>2019-11-30T14:43:39.000Z</time>
      </trkpt>
      <trkpt lat="43.63908" lon="5.40418">
        <ele>371.39999389648</ele>
        <time>2019-11-30T14:43:40.000Z</time>
      </trkpt>
      <trkpt lat="43.63907" lon="5.40417">
        <ele>371.60000610352</ele>
        <time>2019-11-30T14:43:41.000Z</time>
      </trkpt>
      <trkpt lat="43.63907" lon="5.40417">
        <ele>371.60000610352</ele>
        <time>2019-11-30T14:43:42.000Z</time>
      </trkpt>
      <trkpt lat="43.63907" lon="5.40417">
        <ele>371.60000610352</ele>
        <time>2019-11-30T14:43:43.000Z</time>
      </trkpt>
      <trkpt lat="43.63907" lon="5.40417">
        <ele>371.60000610352</ele>
        <time>2019-11-30T14:43:44.000Z</time>
      </trkpt>
      <trkpt lat="43.63907" lon="5.40417">
        <ele>371.60000610352</ele>
        <time>2019-11-30T14:43:45.000Z</time>
      </trkpt>
      <trkpt lat="43.63907" lon="5.40417">
        <ele>371.60000610352</ele>
        <time>2019-11-30T14:43:46.000Z</time>
      </trkpt>
      <trkpt lat="43.63907" lon="5.40417">
        <ele>371.60000610352</ele>
        <time>2019-11-30T14:43:47.000Z</time>
      </trkpt>
      <trkpt lat="43.63907" lon="5.40417">
        <ele>371.60000610352</ele>
        <time>2019-11-30T14:43:48.000Z</time>
      </trkpt>
      <trkpt lat="43.63907" lon="5.40416">
        <ele>372</ele>
        <time>2019-11-30T14:43:49.000Z</time>
      </trkpt>
      <trkpt lat="43.63906" lon="5.40415">
        <ele>372.20001220703</ele>
        <time>2019-11-30T14:43:50.000Z</time>
      </trkpt>
      <trkpt lat="43.63906" lon="5.40413">
        <ele>372.39999389648</ele>
        <time>2019-11-30T14:43:51.000Z</time>
      </trkpt>
      <trkpt lat="43.63906" lon="5.40413">
        <ele>372.39999389648</ele>
        <time>2019-11-30T14:43:52.000Z</time>
      </trkpt>
      <trkpt lat="43.63906" lon="5.40413">
        <ele>372.39999389648</ele>
        <time>2019-11-30T14:43:53.000Z</time>
      </trkpt>
      <trkpt lat="43.63906" lon="5.40412">
        <ele>372.39999389648</ele>
        <time>2019-11-30T14:43:54.000Z</time>
      </trkpt>
      <trkpt lat="43.63906" lon="5.40412">
        <ele>372.39999389648</ele>
        <time>2019-11-30T14:43:55.000Z</time>
      </trkpt>
      <trkpt lat="43.63906" lon="5.40412">
        <ele>372.39999389648</ele>
        <time>2019-11-30T14:43:56.000Z</time>
      </trkpt>
      <trkpt lat="43.63906" lon="5.40412">
        <ele>372.39999389648</ele>
        <time>2019-11-30T14:43:57.000Z</time>
      </trkpt>
      <trkpt lat="43.63906" lon="5.40412">
        <ele>372.39999389648</ele>
        <time>2019-11-30T14:43:58.000Z</time>
      </trkpt>
      <trkpt lat="43.63906" lon="5.40412">
        <ele>372.39999389648</ele>
        <time>2019-11-30T14:43:59.000Z</time>
      </trkpt>
      <trkpt lat="43.63906" lon="5.40412">
        <ele>372.39999389648</ele>
        <time>2019-11-30T14:44:00.000Z</time>
      </trkpt>
      <trkpt lat="43.63906" lon="5.40412">
        <ele>372.39999389648</ele>
        <time>2019-11-30T14:44:01.000Z</time>
      </trkpt>
      <trkpt lat="43.63906" lon="5.40412">
        <ele>372.39999389648</ele>
        <time>2019-11-30T14:44:02.000Z</time>
      </trkpt>
      <trkpt lat="43.63906" lon="5.40412">
        <ele>372.39999389648</ele>
        <time>2019-11-30T14:44:03.000Z</time>
      </trkpt>
      <trkpt lat="43.63905" lon="5.40409">
        <ele>373</ele>
        <time>2019-11-30T14:44:04.000Z</time>
      </trkpt>
      <trkpt lat="43.63904" lon="5.40408">
        <ele>373.39999389648</ele>
        <time>2019-11-30T14:44:05.000Z</time>
      </trkpt>
      <trkpt lat="43.63904" lon="5.40406">
        <ele>373.79998779297</ele>
        <time>2019-11-30T14:44:06.000Z</time>
      </trkpt>
      <trkpt lat="43.63904" lon="5.40404">
        <ele>373.79998779297</ele>
        <time>2019-11-30T14:44:07.000Z</time>
      </trkpt>
      <trkpt lat="43.63905" lon="5.40401">
        <ele>373.79998779297</ele>
        <time>2019-11-30T14:44:08.000Z</time>
      </trkpt>
      <trkpt lat="43.63906" lon="5.40399">
        <ele>373.79998779297</ele>
        <time>2019-11-30T14:44:09.000Z</time>
      </trkpt>
      <trkpt lat="43.63906" lon="5.40399">
        <ele>373.79998779297</ele>
        <time>2019-11-30T14:44:10.000Z</time>
      </trkpt>
      <trkpt lat="43.63906" lon="5.40399">
        <ele>373.79998779297</ele>
        <time>2019-11-30T14:44:11.000Z</time>
      </trkpt>
      <trkpt lat="43.63906" lon="5.40399">
        <ele>373.79998779297</ele>
        <time>2019-11-30T14:44:12.000Z</time>
      </trkpt>
      <trkpt lat="43.63906" lon="5.40399">
        <ele>373.79998779297</ele>
        <time>2019-11-30T14:44:13.000Z</time>
      </trkpt>
      <trkpt lat="43.63906" lon="5.40399">
        <ele>373.79998779297</ele>
        <time>2019-11-30T14:44:14.000Z</time>
      </trkpt>
      <trkpt lat="43.63906" lon="5.40399">
        <ele>373.79998779297</ele>
        <time>2019-11-30T14:44:15.000Z</time>
      </trkpt>
      <trkpt lat="43.63906" lon="5.40399">
        <ele>373.79998779297</ele>
        <time>2019-11-30T14:44:16.000Z</time>
      </trkpt>
      <trkpt lat="43.63905" lon="5.40398">
        <ele>374</ele>
        <time>2019-11-30T14:44:17.000Z</time>
      </trkpt>
      <trkpt lat="43.63905" lon="5.40398">
        <ele>374</ele>
        <time>2019-11-30T14:44:18.000Z</time>
      </trkpt>
      <trkpt lat="43.63906" lon="5.40397">
        <ele>374</ele>
        <time>2019-11-30T14:44:19.000Z</time>
      </trkpt>
      <trkpt lat="43.63907" lon="5.40397">
        <ele>373.39999389648</ele>
        <time>2019-11-30T14:44:20.000Z</time>
      </trkpt>
      <trkpt lat="43.63907" lon="5.40397">
        <ele>373.39999389648</ele>
        <time>2019-11-30T14:44:21.000Z</time>
      </trkpt>
      <trkpt lat="43.63908" lon="5.40396">
        <ele>373.20001220703</ele>
        <time>2019-11-30T14:44:22.000Z</time>
      </trkpt>
      <trkpt lat="43.63908" lon="5.40395">
        <ele>373</ele>
        <time>2019-11-30T14:44:23.000Z</time>
      </trkpt>
      <trkpt lat="43.63909" lon="5.40395">
        <ele>373</ele>
        <time>2019-11-30T14:44:24.000Z</time>
      </trkpt>
      <trkpt lat="43.63909" lon="5.40396">
        <ele>372.79998779297</ele>
        <time>2019-11-30T14:44:25.000Z</time>
      </trkpt>
      <trkpt lat="43.63909" lon="5.40396">
        <ele>372.79998779297</ele>
        <time>2019-11-30T14:44:26.000Z</time>
      </trkpt>
      <trkpt lat="43.63909" lon="5.40396">
        <ele>372.79998779297</ele>
        <time>2019-11-30T14:44:27.000Z</time>
      </trkpt>
      <trkpt lat="43.63909" lon="5.40396">
        <ele>372.79998779297</ele>
        <time>2019-11-30T14:44:28.000Z</time>
      </trkpt>
      <trkpt lat="43.63909" lon="5.40395">
        <ele>373</ele>
        <time>2019-11-30T14:44:29.000Z</time>
      </trkpt>
      <trkpt lat="43.63909" lon="5.40393">
        <ele>373</ele>
        <time>2019-11-30T14:44:30.000Z</time>
      </trkpt>
      <trkpt lat="43.63909" lon="5.40391">
        <ele>373</ele>
        <time>2019-11-30T14:44:31.000Z</time>
      </trkpt>
      <trkpt lat="43.63911" lon="5.40389">
        <ele>372.79998779297</ele>
        <time>2019-11-30T14:44:32.000Z</time>
      </trkpt>
      <trkpt lat="43.63911" lon="5.40388">
        <ele>372.60000610352</ele>
        <time>2019-11-30T14:44:33.000Z</time>
      </trkpt>
      <trkpt lat="43.63911" lon="5.40387">
        <ele>372.60000610352</ele>
        <time>2019-11-30T14:44:34.000Z</time>
      </trkpt>
      <trkpt lat="43.63911" lon="5.40386">
        <ele>372.60000610352</ele>
        <time>2019-11-30T14:44:35.000Z</time>
      </trkpt>
      <trkpt lat="43.63912" lon="5.40386">
        <ele>372.60000610352</ele>
        <time>2019-11-30T14:44:36.000Z</time>
      </trkpt>
      <trkpt lat="43.63912" lon="5.40386">
        <ele>372.39999389648</ele>
        <time>2019-11-30T14:44:37.000Z</time>
      </trkpt>
      <trkpt lat="43.63912" lon="5.40386">
        <ele>372.39999389648</ele>
        <time>2019-11-30T14:44:38.000Z</time>
      </trkpt>
      <trkpt lat="43.63912" lon="5.40386">
        <ele>372.39999389648</ele>
        <time>2019-11-30T14:44:39.000Z</time>
      </trkpt>
      <trkpt lat="43.63912" lon="5.40386">
        <ele>372.39999389648</ele>
        <time>2019-11-30T14:44:40.000Z</time>
      </trkpt>
      <trkpt lat="43.63914" lon="5.40385">
        <ele>371.79998779297</ele>
        <time>2019-11-30T14:44:41.000Z</time>
      </trkpt>
      <trkpt lat="43.63915" lon="5.40384">
        <ele>371.60000610352</ele>
        <time>2019-11-30T14:44:42.000Z</time>
      </trkpt>
      <trkpt lat="43.63915" lon="5.40382">
        <ele>371.60000610352</ele>
        <time>2019-11-30T14:44:43.000Z</time>
      </trkpt>
      <trkpt lat="43.63916" lon="5.4038">
        <ele>371.60000610352</ele>
        <time>2019-11-30T14:44:44.000Z</time>
      </trkpt>
      <trkpt lat="43.63917" lon="5.40379">
        <ele>371.20001220703</ele>
        <time>2019-11-30T14:44:45.000Z</time>
      </trkpt>
      <trkpt lat="43.63918" lon="5.40378">
        <ele>371.20001220703</ele>
        <time>2019-11-30T14:44:46.000Z</time>
      </trkpt>
      <trkpt lat="43.63919" lon="5.40377">
        <ele>371</ele>
        <time>2019-11-30T14:44:47.000Z</time>
      </trkpt>
      <trkpt lat="43.6392" lon="5.40375">
        <ele>370.79998779297</ele>
        <time>2019-11-30T14:44:48.000Z</time>
      </trkpt>
      <trkpt lat="43.63921" lon="5.40373">
        <ele>370.79998779297</ele>
        <time>2019-11-30T14:44:49.000Z</time>
      </trkpt>
      <trkpt lat="43.63923" lon="5.40371">
        <ele>370.39999389648</ele>
        <time>2019-11-30T14:44:50.000Z</time>
      </trkpt>
      <trkpt lat="43.63924" lon="5.40368">
        <ele>370.39999389648</ele>
        <time>2019-11-30T14:44:51.000Z</time>
      </trkpt>
      <trkpt lat="43.63924" lon="5.40367">
        <ele>370.60000610352</ele>
        <time>2019-11-30T14:44:52.000Z</time>
      </trkpt>
      <trkpt lat="43.63925" lon="5.40365">
        <ele>370.60000610352</ele>
        <time>2019-11-30T14:44:53.000Z</time>
      </trkpt>
      <trkpt lat="43.63927" lon="5.40363">
        <ele>370.39999389648</ele>
        <time>2019-11-30T14:44:54.000Z</time>
      </trkpt>
      <trkpt lat="43.63929" lon="5.40361">
        <ele>370.20001220703</ele>
        <time>2019-11-30T14:44:55.000Z</time>
      </trkpt>
      <trkpt lat="43.6393" lon="5.40358">
        <ele>370</ele>
        <time>2019-11-30T14:44:56.000Z</time>
      </trkpt>
      <trkpt lat="43.63931" lon="5.40356">
        <ele>370.20001220703</ele>
        <time>2019-11-30T14:44:57.000Z</time>
      </trkpt>
      <trkpt lat="43.63932" lon="5.40353">
        <ele>370.20001220703</ele>
        <time>2019-11-30T14:44:58.000Z</time>
      </trkpt>
      <trkpt lat="43.63933" lon="5.40351">
        <ele>370.39999389648</ele>
        <time>2019-11-30T14:44:59.000Z</time>
      </trkpt>
      <trkpt lat="43.63935" lon="5.40348">
        <ele>370.39999389648</ele>
        <time>2019-11-30T14:45:00.000Z</time>
      </trkpt>
      <trkpt lat="43.63935" lon="5.40347">
        <ele>370.39999389648</ele>
        <time>2019-11-30T14:45:01.000Z</time>
      </trkpt>
      <trkpt lat="43.63935" lon="5.40346">
        <ele>370.60000610352</ele>
        <time>2019-11-30T14:45:02.000Z</time>
      </trkpt>
      <trkpt lat="43.63936" lon="5.40345">
        <ele>370.60000610352</ele>
        <time>2019-11-30T14:45:03.000Z</time>
      </trkpt>
      <trkpt lat="43.63936" lon="5.40343">
        <ele>370.79998779297</ele>
        <time>2019-11-30T14:45:04.000Z</time>
      </trkpt>
      <trkpt lat="43.63936" lon="5.40341">
        <ele>371.20001220703</ele>
        <time>2019-11-30T14:45:05.000Z</time>
      </trkpt>
      <trkpt lat="43.63936" lon="5.40341">
        <ele>371.39999389648</ele>
        <time>2019-11-30T14:45:06.000Z</time>
      </trkpt>
      <trkpt lat="43.63936" lon="5.40341">
        <ele>371.39999389648</ele>
        <time>2019-11-30T14:45:07.000Z</time>
      </trkpt>
      <trkpt lat="43.63936" lon="5.40341">
        <ele>371.39999389648</ele>
        <time>2019-11-30T14:45:08.000Z</time>
      </trkpt>
      <trkpt lat="43.63936" lon="5.40341">
        <ele>371.39999389648</ele>
        <time>2019-11-30T14:45:09.000Z</time>
      </trkpt>
      <trkpt lat="43.63936" lon="5.40341">
        <ele>371.20001220703</ele>
        <time>2019-11-30T14:45:10.000Z</time>
      </trkpt>
      <trkpt lat="43.63936" lon="5.40341">
        <ele>371.20001220703</ele>
        <time>2019-11-30T14:45:11.000Z</time>
      </trkpt>
      <trkpt lat="43.63936" lon="5.40341">
        <ele>371.20001220703</ele>
        <time>2019-11-30T14:45:12.000Z</time>
      </trkpt>
      <trkpt lat="43.63936" lon="5.40341">
        <ele>371.20001220703</ele>
        <time>2019-11-30T14:45:13.000Z</time>
      </trkpt>
      <trkpt lat="43.63936" lon="5.40341">
        <ele>371.20001220703</ele>
        <time>2019-11-30T14:45:14.000Z</time>
      </trkpt>
      <trkpt lat="43.63937" lon="5.40339">
        <ele>371.20001220703</ele>
        <time>2019-11-30T14:45:15.000Z</time>
      </trkpt>
      <trkpt lat="43.63939" lon="5.40337">
        <ele>371.20001220703</ele>
        <time>2019-11-30T14:45:16.000Z</time>
      </trkpt>
      <trkpt lat="43.6394" lon="5.40336">
        <ele>371.20001220703</ele>
        <time>2019-11-30T14:45:17.000Z</time>
      </trkpt>
      <trkpt lat="43.63941" lon="5.40334">
        <ele>371.20001220703</ele>
        <time>2019-11-30T14:45:18.000Z</time>
      </trkpt>
      <trkpt lat="43.63943" lon="5.40331">
        <ele>371.20001220703</ele>
        <time>2019-11-30T14:45:19.000Z</time>
      </trkpt>
      <trkpt lat="43.63944" lon="5.4033">
        <ele>371.20001220703</ele>
        <time>2019-11-30T14:45:20.000Z</time>
      </trkpt>
      <trkpt lat="43.63945" lon="5.40328">
        <ele>371.20001220703</ele>
        <time>2019-11-30T14:45:21.000Z</time>
      </trkpt>
      <trkpt lat="43.63946" lon="5.40326">
        <ele>371.20001220703</ele>
        <time>2019-11-30T14:45:22.000Z</time>
      </trkpt>
      <trkpt lat="43.63947" lon="5.40324">
        <ele>371.39999389648</ele>
        <time>2019-11-30T14:45:23.000Z</time>
      </trkpt>
      <trkpt lat="43.63949" lon="5.40321">
        <ele>371.39999389648</ele>
        <time>2019-11-30T14:45:24.000Z</time>
      </trkpt>
      <trkpt lat="43.6395" lon="5.40319">
        <ele>371.60000610352</ele>
        <time>2019-11-30T14:45:25.000Z</time>
      </trkpt>
      <trkpt lat="43.63951" lon="5.40317">
        <ele>371.60000610352</ele>
        <time>2019-11-30T14:45:26.000Z</time>
      </trkpt>
      <trkpt lat="43.63952" lon="5.40315">
        <ele>371.79998779297</ele>
        <time>2019-11-30T14:45:27.000Z</time>
      </trkpt>
      <trkpt lat="43.63953" lon="5.40312">
        <ele>372</ele>
        <time>2019-11-30T14:45:28.000Z</time>
      </trkpt>
      <trkpt lat="43.63953" lon="5.4031">
        <ele>372.20001220703</ele>
        <time>2019-11-30T14:45:29.000Z</time>
      </trkpt>
      <trkpt lat="43.63954" lon="5.40307">
        <ele>372.39999389648</ele>
        <time>2019-11-30T14:45:30.000Z</time>
      </trkpt>
      <trkpt lat="43.63954" lon="5.40304">
        <ele>372.79998779297</ele>
        <time>2019-11-30T14:45:31.000Z</time>
      </trkpt>
      <trkpt lat="43.63955" lon="5.40301">
        <ele>373</ele>
        <time>2019-11-30T14:45:32.000Z</time>
      </trkpt>
      <trkpt lat="43.63955" lon="5.40299">
        <ele>373.39999389648</ele>
        <time>2019-11-30T14:45:33.000Z</time>
      </trkpt>
      <trkpt lat="43.63954" lon="5.40297">
        <ele>374</ele>
        <time>2019-11-30T14:45:34.000Z</time>
      </trkpt>
      <trkpt lat="43.63954" lon="5.40294">
        <ele>374.60000610352</ele>
        <time>2019-11-30T14:45:35.000Z</time>
      </trkpt>
      <trkpt lat="43.63954" lon="5.40292">
        <ele>375</ele>
        <time>2019-11-30T14:45:36.000Z</time>
      </trkpt>
      <trkpt lat="43.63955" lon="5.40289">
        <ele>375.39999389648</ele>
        <time>2019-11-30T14:45:37.000Z</time>
      </trkpt>
      <trkpt lat="43.63956" lon="5.40287">
        <ele>375.60000610352</ele>
        <time>2019-11-30T14:45:38.000Z</time>
      </trkpt>
      <trkpt lat="43.63957" lon="5.40286">
        <ele>375.39999389648</ele>
        <time>2019-11-30T14:45:39.000Z</time>
      </trkpt>
      <trkpt lat="43.63958" lon="5.40284">
        <ele>375.39999389648</ele>
        <time>2019-11-30T14:45:40.000Z</time>
      </trkpt>
      <trkpt lat="43.63959" lon="5.40282">
        <ele>375.39999389648</ele>
        <time>2019-11-30T14:45:41.000Z</time>
      </trkpt>
      <trkpt lat="43.6396" lon="5.4028">
        <ele>375.60000610352</ele>
        <time>2019-11-30T14:45:42.000Z</time>
      </trkpt>
      <trkpt lat="43.63962" lon="5.40278">
        <ele>375.60000610352</ele>
        <time>2019-11-30T14:45:43.000Z</time>
      </trkpt>
      <trkpt lat="43.63963" lon="5.40277">
        <ele>375.60000610352</ele>
        <time>2019-11-30T14:45:44.000Z</time>
      </trkpt>
      <trkpt lat="43.63963" lon="5.40277">
        <ele>375.60000610352</ele>
        <time>2019-11-30T14:45:45.000Z</time>
      </trkpt>
      <trkpt lat="43.63963" lon="5.40277">
        <ele>375.60000610352</ele>
        <time>2019-11-30T14:45:46.000Z</time>
      </trkpt>
      <trkpt lat="43.63963" lon="5.40277">
        <ele>375.60000610352</ele>
        <time>2019-11-30T14:45:47.000Z</time>
      </trkpt>
      <trkpt lat="43.63963" lon="5.40277">
        <ele>375.60000610352</ele>
        <time>2019-11-30T14:45:48.000Z</time>
      </trkpt>
      <trkpt lat="43.63963" lon="5.40277">
        <ele>375.60000610352</ele>
        <time>2019-11-30T14:45:49.000Z</time>
      </trkpt>
      <trkpt lat="43.63963" lon="5.40276">
        <ele>375.79998779297</ele>
        <time>2019-11-30T14:45:50.000Z</time>
      </trkpt>
      <trkpt lat="43.63964" lon="5.40274">
        <ele>375.79998779297</ele>
        <time>2019-11-30T14:45:51.000Z</time>
      </trkpt>
      <trkpt lat="43.63965" lon="5.40273">
        <ele>375.79998779297</ele>
        <time>2019-11-30T14:45:52.000Z</time>
      </trkpt>
      <trkpt lat="43.63966" lon="5.40272">
        <ele>375.39999389648</ele>
        <time>2019-11-30T14:45:53.000Z</time>
      </trkpt>
      <trkpt lat="43.63968" lon="5.40272">
        <ele>375</ele>
        <time>2019-11-30T14:45:54.000Z</time>
      </trkpt>
      <trkpt lat="43.6397" lon="5.40272">
        <ele>374.39999389648</ele>
        <time>2019-11-30T14:45:55.000Z</time>
      </trkpt>
      <trkpt lat="43.63972" lon="5.40272">
        <ele>374</ele>
        <time>2019-11-30T14:45:56.000Z</time>
      </trkpt>
      <trkpt lat="43.63974" lon="5.40271">
        <ele>373.39999389648</ele>
        <time>2019-11-30T14:45:57.000Z</time>
      </trkpt>
      <trkpt lat="43.63976" lon="5.40269">
        <ele>373.39999389648</ele>
        <time>2019-11-30T14:45:58.000Z</time>
      </trkpt>
      <trkpt lat="43.63977" lon="5.40267">
        <ele>373.39999389648</ele>
        <time>2019-11-30T14:45:59.000Z</time>
      </trkpt>
      <trkpt lat="43.63979" lon="5.40265">
        <ele>373.39999389648</ele>
        <time>2019-11-30T14:46:00.000Z</time>
      </trkpt>
      <trkpt lat="43.63979" lon="5.40263">
        <ele>373.60000610352</ele>
        <time>2019-11-30T14:46:01.000Z</time>
      </trkpt>
      <trkpt lat="43.6398" lon="5.40261">
        <ele>373.79998779297</ele>
        <time>2019-11-30T14:46:02.000Z</time>
      </trkpt>
      <trkpt lat="43.63981" lon="5.40259">
        <ele>374</ele>
        <time>2019-11-30T14:46:03.000Z</time>
      </trkpt>
      <trkpt lat="43.63982" lon="5.40257">
        <ele>374</ele>
        <time>2019-11-30T14:46:04.000Z</time>
      </trkpt>
      <trkpt lat="43.63984" lon="5.40256">
        <ele>374</ele>
        <time>2019-11-30T14:46:05.000Z</time>
      </trkpt>
      <trkpt lat="43.63984" lon="5.40255">
        <ele>374</ele>
        <time>2019-11-30T14:46:06.000Z</time>
      </trkpt>
      <trkpt lat="43.63984" lon="5.40255">
        <ele>374</ele>
        <time>2019-11-30T14:46:07.000Z</time>
      </trkpt>
      <trkpt lat="43.63984" lon="5.40255">
        <ele>374</ele>
        <time>2019-11-30T14:46:08.000Z</time>
      </trkpt>
      <trkpt lat="43.63984" lon="5.40255">
        <ele>374</ele>
        <time>2019-11-30T14:46:09.000Z</time>
      </trkpt>
      <trkpt lat="43.63984" lon="5.40255">
        <ele>374.20001220703</ele>
        <time>2019-11-30T14:46:10.000Z</time>
      </trkpt>
      <trkpt lat="43.63984" lon="5.40254">
        <ele>374.20001220703</ele>
        <time>2019-11-30T14:46:11.000Z</time>
      </trkpt>
      <trkpt lat="43.63984" lon="5.40254">
        <ele>374.20001220703</ele>
        <time>2019-11-30T14:46:12.000Z</time>
      </trkpt>
      <trkpt lat="43.63984" lon="5.40254">
        <ele>374.20001220703</ele>
        <time>2019-11-30T14:46:13.000Z</time>
      </trkpt>
      <trkpt lat="43.63984" lon="5.40254">
        <ele>374.20001220703</ele>
        <time>2019-11-30T14:46:14.000Z</time>
      </trkpt>
      <trkpt lat="43.63984" lon="5.40253">
        <ele>374.39999389648</ele>
        <time>2019-11-30T14:46:15.000Z</time>
      </trkpt>
      <trkpt lat="43.63984" lon="5.40253">
        <ele>374.39999389648</ele>
        <time>2019-11-30T14:46:16.000Z</time>
      </trkpt>
      <trkpt lat="43.63985" lon="5.4025">
        <ele>374.60000610352</ele>
        <time>2019-11-30T14:46:17.000Z</time>
      </trkpt>
      <trkpt lat="43.63986" lon="5.40248">
        <ele>375</ele>
        <time>2019-11-30T14:46:18.000Z</time>
      </trkpt>
      <trkpt lat="43.63987" lon="5.40246">
        <ele>375.20001220703</ele>
        <time>2019-11-30T14:46:19.000Z</time>
      </trkpt>
      <trkpt lat="43.63988" lon="5.40242">
        <ele>375.60000610352</ele>
        <time>2019-11-30T14:46:20.000Z</time>
      </trkpt>
      <trkpt lat="43.63989" lon="5.40239">
        <ele>376</ele>
        <time>2019-11-30T14:46:21.000Z</time>
      </trkpt>
      <trkpt lat="43.63991" lon="5.40237">
        <ele>376.20001220703</ele>
        <time>2019-11-30T14:46:22.000Z</time>
      </trkpt>
      <trkpt lat="43.63992" lon="5.40235">
        <ele>376.20001220703</ele>
        <time>2019-11-30T14:46:23.000Z</time>
      </trkpt>
      <trkpt lat="43.63994" lon="5.40233">
        <ele>376.20001220703</ele>
        <time>2019-11-30T14:46:24.000Z</time>
      </trkpt>
      <trkpt lat="43.63995" lon="5.4023">
        <ele>376.20001220703</ele>
        <time>2019-11-30T14:46:25.000Z</time>
      </trkpt>
      <trkpt lat="43.63997" lon="5.40228">
        <ele>376.20001220703</ele>
        <time>2019-11-30T14:46:26.000Z</time>
      </trkpt>
      <trkpt lat="43.63999" lon="5.40224">
        <ele>376.60000610352</ele>
        <time>2019-11-30T14:46:27.000Z</time>
      </trkpt>
      <trkpt lat="43.64" lon="5.40221">
        <ele>377</ele>
        <time>2019-11-30T14:46:28.000Z</time>
      </trkpt>
      <trkpt lat="43.64" lon="5.40218">
        <ele>377.60000610352</ele>
        <time>2019-11-30T14:46:29.000Z</time>
      </trkpt>
      <trkpt lat="43.64001" lon="5.40215">
        <ele>378</ele>
        <time>2019-11-30T14:46:30.000Z</time>
      </trkpt>
      <trkpt lat="43.64003" lon="5.40212">
        <ele>378</ele>
        <time>2019-11-30T14:46:31.000Z</time>
      </trkpt>
      <trkpt lat="43.64004" lon="5.40209">
        <ele>378.20001220703</ele>
        <time>2019-11-30T14:46:32.000Z</time>
      </trkpt>
      <trkpt lat="43.64004" lon="5.40207">
        <ele>378.39999389648</ele>
        <time>2019-11-30T14:46:33.000Z</time>
      </trkpt>
      <trkpt lat="43.64005" lon="5.40204">
        <ele>378.39999389648</ele>
        <time>2019-11-30T14:46:34.000Z</time>
      </trkpt>
      <trkpt lat="43.64007" lon="5.40201">
        <ele>378.20001220703</ele>
        <time>2019-11-30T14:46:35.000Z</time>
      </trkpt>
      <trkpt lat="43.6401" lon="5.40197">
        <ele>377.79998779297</ele>
        <time>2019-11-30T14:46:36.000Z</time>
      </trkpt>
      <trkpt lat="43.64009" lon="5.40193">
        <ele>378.39999389648</ele>
        <time>2019-11-30T14:46:37.000Z</time>
      </trkpt>
      <trkpt lat="43.64008" lon="5.4019">
        <ele>379</ele>
        <time>2019-11-30T14:46:38.000Z</time>
      </trkpt>
      <trkpt lat="43.64006" lon="5.40186">
        <ele>380.20001220703</ele>
        <time>2019-11-30T14:46:39.000Z</time>
      </trkpt>
      <trkpt lat="43.64003" lon="5.40182">
        <ele>381.60000610352</ele>
        <time>2019-11-30T14:46:40.000Z</time>
      </trkpt>
      <trkpt lat="43.64001" lon="5.40179">
        <ele>382.60000610352</ele>
        <time>2019-11-30T14:46:41.000Z</time>
      </trkpt>
      <trkpt lat="43.64" lon="5.40177">
        <ele>383</ele>
        <time>2019-11-30T14:46:42.000Z</time>
      </trkpt>
      <trkpt lat="43.64" lon="5.40175">
        <ele>383.39999389648</ele>
        <time>2019-11-30T14:46:43.000Z</time>
      </trkpt>
      <trkpt lat="43.63998" lon="5.40174">
        <ele>384</ele>
        <time>2019-11-30T14:46:44.000Z</time>
      </trkpt>
      <trkpt lat="43.63996" lon="5.40172">
        <ele>384.79998779297</ele>
        <time>2019-11-30T14:46:45.000Z</time>
      </trkpt>
      <trkpt lat="43.63994" lon="5.40171">
        <ele>385.39999389648</ele>
        <time>2019-11-30T14:46:46.000Z</time>
      </trkpt>
      <trkpt lat="43.63992" lon="5.40171">
        <ele>386.20001220703</ele>
        <time>2019-11-30T14:46:47.000Z</time>
      </trkpt>
      <trkpt lat="43.63992" lon="5.40171">
        <ele>386.39999389648</ele>
        <time>2019-11-30T14:46:48.000Z</time>
      </trkpt>
      <trkpt lat="43.63992" lon="5.40171">
        <ele>386.39999389648</ele>
        <time>2019-11-30T14:46:49.000Z</time>
      </trkpt>
      <trkpt lat="43.63992" lon="5.40171">
        <ele>386.39999389648</ele>
        <time>2019-11-30T14:46:50.000Z</time>
      </trkpt>
      <trkpt lat="43.63992" lon="5.40171">
        <ele>386.39999389648</ele>
        <time>2019-11-30T14:46:51.000Z</time>
      </trkpt>
      <trkpt lat="43.63992" lon="5.40171">
        <ele>386.39999389648</ele>
        <time>2019-11-30T14:46:52.000Z</time>
      </trkpt>
      <trkpt lat="43.63992" lon="5.40171">
        <ele>386.39999389648</ele>
        <time>2019-11-30T14:46:53.000Z</time>
      </trkpt>
      <trkpt lat="43.63992" lon="5.40171">
        <ele>386.39999389648</ele>
        <time>2019-11-30T14:46:54.000Z</time>
      </trkpt>
      <trkpt lat="43.63992" lon="5.40171">
        <ele>386.39999389648</ele>
        <time>2019-11-30T14:46:55.000Z</time>
      </trkpt>
      <trkpt lat="43.63992" lon="5.40171">
        <ele>386.39999389648</ele>
        <time>2019-11-30T14:46:56.000Z</time>
      </trkpt>
      <trkpt lat="43.63991" lon="5.40171">
        <ele>386.39999389648</ele>
        <time>2019-11-30T14:46:57.000Z</time>
      </trkpt>
      <trkpt lat="43.63991" lon="5.40171">
        <ele>386.39999389648</ele>
        <time>2019-11-30T14:46:58.000Z</time>
      </trkpt>
      <trkpt lat="43.63991" lon="5.40171">
        <ele>386.39999389648</ele>
        <time>2019-11-30T14:46:59.000Z</time>
      </trkpt>
      <trkpt lat="43.63991" lon="5.40171">
        <ele>386.39999389648</ele>
        <time>2019-11-30T14:47:00.000Z</time>
      </trkpt>
      <trkpt lat="43.63991" lon="5.40171">
        <ele>386.39999389648</ele>
        <time>2019-11-30T14:47:01.000Z</time>
      </trkpt>
      <trkpt lat="43.63991" lon="5.40171">
        <ele>386.39999389648</ele>
        <time>2019-11-30T14:47:02.000Z</time>
      </trkpt>
      <trkpt lat="43.63991" lon="5.40171">
        <ele>386.39999389648</ele>
        <time>2019-11-30T14:47:03.000Z</time>
      </trkpt>
      <trkpt lat="43.63991" lon="5.40171">
        <ele>386.39999389648</ele>
        <time>2019-11-30T14:47:04.000Z</time>
      </trkpt>
      <trkpt lat="43.63991" lon="5.40171">
        <ele>386.39999389648</ele>
        <time>2019-11-30T14:47:05.000Z</time>
      </trkpt>
      <trkpt lat="43.63991" lon="5.40171">
        <ele>386.39999389648</ele>
        <time>2019-11-30T14:47:06.000Z</time>
      </trkpt>
      <trkpt lat="43.63991" lon="5.40171">
        <ele>386.39999389648</ele>
        <time>2019-11-30T14:47:07.000Z</time>
      </trkpt>
      <trkpt lat="43.63991" lon="5.40171">
        <ele>386.39999389648</ele>
        <time>2019-11-30T14:47:08.000Z</time>
      </trkpt>
      <trkpt lat="43.63991" lon="5.40171">
        <ele>386.39999389648</ele>
        <time>2019-11-30T14:47:09.000Z</time>
      </trkpt>
      <trkpt lat="43.63991" lon="5.40171">
        <ele>386.39999389648</ele>
        <time>2019-11-30T14:47:10.000Z</time>
      </trkpt>
      <trkpt lat="43.63991" lon="5.40171">
        <ele>386.39999389648</ele>
        <time>2019-11-30T14:47:11.000Z</time>
      </trkpt>
      <trkpt lat="43.63991" lon="5.40171">
        <ele>386.39999389648</ele>
        <time>2019-11-30T14:47:12.000Z</time>
      </trkpt>
      <trkpt lat="43.63991" lon="5.40171">
        <ele>386.39999389648</ele>
        <time>2019-11-30T14:47:13.000Z</time>
      </trkpt>
      <trkpt lat="43.63991" lon="5.40171">
        <ele>386.39999389648</ele>
        <time>2019-11-30T14:47:14.000Z</time>
      </trkpt>
      <trkpt lat="43.63991" lon="5.40171">
        <ele>386.39999389648</ele>
        <time>2019-11-30T14:47:15.000Z</time>
      </trkpt>
      <trkpt lat="43.63991" lon="5.40171">
        <ele>386.39999389648</ele>
        <time>2019-11-30T14:47:16.000Z</time>
      </trkpt>
      <trkpt lat="43.63991" lon="5.40171">
        <ele>386.39999389648</ele>
        <time>2019-11-30T14:47:17.000Z</time>
      </trkpt>
      <trkpt lat="43.63991" lon="5.40171">
        <ele>386.39999389648</ele>
        <time>2019-11-30T14:47:18.000Z</time>
      </trkpt>
      <trkpt lat="43.63991" lon="5.40171">
        <ele>386.39999389648</ele>
        <time>2019-11-30T14:47:19.000Z</time>
      </trkpt>
      <trkpt lat="43.63992" lon="5.40171">
        <ele>386.39999389648</ele>
        <time>2019-11-30T14:47:20.000Z</time>
      </trkpt>
      <trkpt lat="43.63991" lon="5.40171">
        <ele>386.39999389648</ele>
        <time>2019-11-30T14:47:21.000Z</time>
      </trkpt>
      <trkpt lat="43.63992" lon="5.40171">
        <ele>386.39999389648</ele>
        <time>2019-11-30T14:47:22.000Z</time>
      </trkpt>
      <trkpt lat="43.63994" lon="5.40171">
        <ele>385.60000610352</ele>
        <time>2019-11-30T14:47:23.000Z</time>
      </trkpt>
      <trkpt lat="43.63997" lon="5.40171">
        <ele>384.60000610352</ele>
        <time>2019-11-30T14:47:24.000Z</time>
      </trkpt>
      <trkpt lat="43.63999" lon="5.40171">
        <ele>384</ele>
        <time>2019-11-30T14:47:25.000Z</time>
      </trkpt>
      <trkpt lat="43.63999" lon="5.4017">
        <ele>384</ele>
        <time>2019-11-30T14:47:26.000Z</time>
      </trkpt>
      <trkpt lat="43.64" lon="5.40169">
        <ele>384</ele>
        <time>2019-11-30T14:47:27.000Z</time>
      </trkpt>
      <trkpt lat="43.64001" lon="5.40166">
        <ele>384</ele>
        <time>2019-11-30T14:47:28.000Z</time>
      </trkpt>
      <trkpt lat="43.64001" lon="5.40164">
        <ele>384</ele>
        <time>2019-11-30T14:47:29.000Z</time>
      </trkpt>
      <trkpt lat="43.64001" lon="5.40161">
        <ele>384.60000610352</ele>
        <time>2019-11-30T14:47:30.000Z</time>
      </trkpt>
      <trkpt lat="43.64" lon="5.40158">
        <ele>385.20001220703</ele>
        <time>2019-11-30T14:47:31.000Z</time>
      </trkpt>
      <trkpt lat="43.63998" lon="5.40156">
        <ele>386</ele>
        <time>2019-11-30T14:47:32.000Z</time>
      </trkpt>
      <trkpt lat="43.63997" lon="5.40153">
        <ele>386.60000610352</ele>
        <time>2019-11-30T14:47:33.000Z</time>
      </trkpt>
      <trkpt lat="43.63997" lon="5.40151">
        <ele>387</ele>
        <time>2019-11-30T14:47:34.000Z</time>
      </trkpt>
      <trkpt lat="43.63997" lon="5.40151">
        <ele>387</ele>
        <time>2019-11-30T14:47:35.000Z</time>
      </trkpt>
      <trkpt lat="43.63997" lon="5.40151">
        <ele>387</ele>
        <time>2019-11-30T14:47:36.000Z</time>
      </trkpt>
      <trkpt lat="43.63997" lon="5.40151">
        <ele>387</ele>
        <time>2019-11-30T14:47:37.000Z</time>
      </trkpt>
      <trkpt lat="43.63997" lon="5.40151">
        <ele>387</ele>
        <time>2019-11-30T14:47:38.000Z</time>
      </trkpt>
      <trkpt lat="43.63997" lon="5.4015">
        <ele>386.79998779297</ele>
        <time>2019-11-30T14:47:39.000Z</time>
      </trkpt>
      <trkpt lat="43.63997" lon="5.4015">
        <ele>386.79998779297</ele>
        <time>2019-11-30T14:47:40.000Z</time>
      </trkpt>
      <trkpt lat="43.63998" lon="5.40148">
        <ele>387</ele>
        <time>2019-11-30T14:47:41.000Z</time>
      </trkpt>
      <trkpt lat="43.63998" lon="5.40147">
        <ele>386.79998779297</ele>
        <time>2019-11-30T14:47:42.000Z</time>
      </trkpt>
      <trkpt lat="43.63998" lon="5.40146">
        <ele>386.79998779297</ele>
        <time>2019-11-30T14:47:43.000Z</time>
      </trkpt>
      <trkpt lat="43.63999" lon="5.40145">
        <ele>387</ele>
        <time>2019-11-30T14:47:44.000Z</time>
      </trkpt>
      <trkpt lat="43.63999" lon="5.40143">
        <ele>387</ele>
        <time>2019-11-30T14:47:45.000Z</time>
      </trkpt>
      <trkpt lat="43.64" lon="5.40142">
        <ele>387</ele>
        <time>2019-11-30T14:47:46.000Z</time>
      </trkpt>
      <trkpt lat="43.64" lon="5.40141">
        <ele>387</ele>
        <time>2019-11-30T14:47:47.000Z</time>
      </trkpt>
      <trkpt lat="43.64" lon="5.40139">
        <ele>387</ele>
        <time>2019-11-30T14:47:48.000Z</time>
      </trkpt>
      <trkpt lat="43.64001" lon="5.40135">
        <ele>387.20001220703</ele>
        <time>2019-11-30T14:47:49.000Z</time>
      </trkpt>
      <trkpt lat="43.64002" lon="5.4013">
        <ele>387.39999389648</ele>
        <time>2019-11-30T14:47:50.000Z</time>
      </trkpt>
      <trkpt lat="43.64003" lon="5.40127">
        <ele>387.20001220703</ele>
        <time>2019-11-30T14:47:51.000Z</time>
      </trkpt>
      <trkpt lat="43.64002" lon="5.40123">
        <ele>387.39999389648</ele>
        <time>2019-11-30T14:47:52.000Z</time>
      </trkpt>
      <trkpt lat="43.64002" lon="5.4012">
        <ele>387.60000610352</ele>
        <time>2019-11-30T14:47:53.000Z</time>
      </trkpt>
      <trkpt lat="43.64002" lon="5.40117">
        <ele>387.60000610352</ele>
        <time>2019-11-30T14:47:54.000Z</time>
      </trkpt>
      <trkpt lat="43.64004" lon="5.40115">
        <ele>387.20001220703</ele>
        <time>2019-11-30T14:47:55.000Z</time>
      </trkpt>
      <trkpt lat="43.64005" lon="5.40111">
        <ele>387</ele>
        <time>2019-11-30T14:47:56.000Z</time>
      </trkpt>
      <trkpt lat="43.64007" lon="5.40107">
        <ele>387</ele>
        <time>2019-11-30T14:47:57.000Z</time>
      </trkpt>
      <trkpt lat="43.64007" lon="5.40104">
        <ele>387</ele>
        <time>2019-11-30T14:47:58.000Z</time>
      </trkpt>
      <trkpt lat="43.64006" lon="5.40103">
        <ele>387.20001220703</ele>
        <time>2019-11-30T14:47:59.000Z</time>
      </trkpt>
      <trkpt lat="43.64006" lon="5.40103">
        <ele>387.20001220703</ele>
        <time>2019-11-30T14:48:00.000Z</time>
      </trkpt>
      <trkpt lat="43.64006" lon="5.40103">
        <ele>387.20001220703</ele>
        <time>2019-11-30T14:48:01.000Z</time>
      </trkpt>
      <trkpt lat="43.64006" lon="5.40103">
        <ele>387.20001220703</ele>
        <time>2019-11-30T14:48:02.000Z</time>
      </trkpt>
      <trkpt lat="43.64006" lon="5.40103">
        <ele>387.20001220703</ele>
        <time>2019-11-30T14:48:03.000Z</time>
      </trkpt>
      <trkpt lat="43.64007" lon="5.40103">
        <ele>387.20001220703</ele>
        <time>2019-11-30T14:48:04.000Z</time>
      </trkpt>
      <trkpt lat="43.64007" lon="5.40101">
        <ele>387.20001220703</ele>
        <time>2019-11-30T14:48:05.000Z</time>
      </trkpt>
      <trkpt lat="43.64007" lon="5.40097">
        <ele>387.39999389648</ele>
        <time>2019-11-30T14:48:06.000Z</time>
      </trkpt>
      <trkpt lat="43.64008" lon="5.40094">
        <ele>387.20001220703</ele>
        <time>2019-11-30T14:48:07.000Z</time>
      </trkpt>
      <trkpt lat="43.6401" lon="5.40092">
        <ele>387</ele>
        <time>2019-11-30T14:48:08.000Z</time>
      </trkpt>
      <trkpt lat="43.64011" lon="5.4009">
        <ele>386.79998779297</ele>
        <time>2019-11-30T14:48:09.000Z</time>
      </trkpt>
      <trkpt lat="43.64012" lon="5.40089">
        <ele>386.60000610352</ele>
        <time>2019-11-30T14:48:10.000Z</time>
      </trkpt>
      <trkpt lat="43.64013" lon="5.40088">
        <ele>386.39999389648</ele>
        <time>2019-11-30T14:48:11.000Z</time>
      </trkpt>
      <trkpt lat="43.64014" lon="5.40087">
        <ele>386</ele>
        <time>2019-11-30T14:48:12.000Z</time>
      </trkpt>
      <trkpt lat="43.64015" lon="5.40085">
        <ele>385.79998779297</ele>
        <time>2019-11-30T14:48:13.000Z</time>
      </trkpt>
      <trkpt lat="43.64016" lon="5.40084">
        <ele>385.60000610352</ele>
        <time>2019-11-30T14:48:14.000Z</time>
      </trkpt>
      <trkpt lat="43.64017" lon="5.40082">
        <ele>385.60000610352</ele>
        <time>2019-11-30T14:48:15.000Z</time>
      </trkpt>
      <trkpt lat="43.64017" lon="5.40079">
        <ele>385.60000610352</ele>
        <time>2019-11-30T14:48:16.000Z</time>
      </trkpt>
      <trkpt lat="43.64018" lon="5.40076">
        <ele>385.60000610352</ele>
        <time>2019-11-30T14:48:17.000Z</time>
      </trkpt>
      <trkpt lat="43.64019" lon="5.40073">
        <ele>385.39999389648</ele>
        <time>2019-11-30T14:48:18.000Z</time>
      </trkpt>
      <trkpt lat="43.6402" lon="5.40071">
        <ele>385.39999389648</ele>
        <time>2019-11-30T14:48:19.000Z</time>
      </trkpt>
      <trkpt lat="43.6402" lon="5.4007">
        <ele>385.39999389648</ele>
        <time>2019-11-30T14:48:20.000Z</time>
      </trkpt>
      <trkpt lat="43.6402" lon="5.40067">
        <ele>385.39999389648</ele>
        <time>2019-11-30T14:48:21.000Z</time>
      </trkpt>
      <trkpt lat="43.64021" lon="5.40064">
        <ele>385.39999389648</ele>
        <time>2019-11-30T14:48:22.000Z</time>
      </trkpt>
      <trkpt lat="43.64022" lon="5.4006">
        <ele>385.20001220703</ele>
        <time>2019-11-30T14:48:23.000Z</time>
      </trkpt>
      <trkpt lat="43.64025" lon="5.40057">
        <ele>384.60000610352</ele>
        <time>2019-11-30T14:48:24.000Z</time>
      </trkpt>
      <trkpt lat="43.64027" lon="5.40054">
        <ele>384.20001220703</ele>
        <time>2019-11-30T14:48:25.000Z</time>
      </trkpt>
      <trkpt lat="43.64029" lon="5.40052">
        <ele>383.79998779297</ele>
        <time>2019-11-30T14:48:26.000Z</time>
      </trkpt>
      <trkpt lat="43.64032" lon="5.40049">
        <ele>383.39999389648</ele>
        <time>2019-11-30T14:48:27.000Z</time>
      </trkpt>
      <trkpt lat="43.64034" lon="5.40047">
        <ele>383</ele>
        <time>2019-11-30T14:48:28.000Z</time>
      </trkpt>
      <trkpt lat="43.64035" lon="5.40046">
        <ele>382.79998779297</ele>
        <time>2019-11-30T14:48:29.000Z</time>
      </trkpt>
      <trkpt lat="43.64035" lon="5.40045">
        <ele>382.79998779297</ele>
        <time>2019-11-30T14:48:30.000Z</time>
      </trkpt>
      <trkpt lat="43.64036" lon="5.40045">
        <ele>382.79998779297</ele>
        <time>2019-11-30T14:48:31.000Z</time>
      </trkpt>
      <trkpt lat="43.64036" lon="5.40045">
        <ele>382.79998779297</ele>
        <time>2019-11-30T14:48:32.000Z</time>
      </trkpt>
      <trkpt lat="43.64036" lon="5.40046">
        <ele>382.79998779297</ele>
        <time>2019-11-30T14:48:33.000Z</time>
      </trkpt>
      <trkpt lat="43.64036" lon="5.40046">
        <ele>382.79998779297</ele>
        <time>2019-11-30T14:48:34.000Z</time>
      </trkpt>
      <trkpt lat="43.64036" lon="5.40046">
        <ele>382.79998779297</ele>
        <time>2019-11-30T14:48:35.000Z</time>
      </trkpt>
      <trkpt lat="43.64036" lon="5.40046">
        <ele>382.79998779297</ele>
        <time>2019-11-30T14:48:36.000Z</time>
      </trkpt>
      <trkpt lat="43.64036" lon="5.40046">
        <ele>382.79998779297</ele>
        <time>2019-11-30T14:48:37.000Z</time>
      </trkpt>
      <trkpt lat="43.64036" lon="5.40046">
        <ele>382.79998779297</ele>
        <time>2019-11-30T14:48:38.000Z</time>
      </trkpt>
      <trkpt lat="43.64036" lon="5.40046">
        <ele>382.79998779297</ele>
        <time>2019-11-30T14:48:39.000Z</time>
      </trkpt>
      <trkpt lat="43.64036" lon="5.40046">
        <ele>382.79998779297</ele>
        <time>2019-11-30T14:48:40.000Z</time>
      </trkpt>
      <trkpt lat="43.64036" lon="5.40046">
        <ele>382.79998779297</ele>
        <time>2019-11-30T14:48:41.000Z</time>
      </trkpt>
      <trkpt lat="43.64036" lon="5.40045">
        <ele>382.79998779297</ele>
        <time>2019-11-30T14:48:42.000Z</time>
      </trkpt>
      <trkpt lat="43.64036" lon="5.40044">
        <ele>382.79998779297</ele>
        <time>2019-11-30T14:48:43.000Z</time>
      </trkpt>
      <trkpt lat="43.64037" lon="5.40044">
        <ele>382.79998779297</ele>
        <time>2019-11-30T14:48:44.000Z</time>
      </trkpt>
      <trkpt lat="43.64037" lon="5.40044">
        <ele>382.79998779297</ele>
        <time>2019-11-30T14:48:45.000Z</time>
      </trkpt>
      <trkpt lat="43.64037" lon="5.40044">
        <ele>382.79998779297</ele>
        <time>2019-11-30T14:48:46.000Z</time>
      </trkpt>
      <trkpt lat="43.64037" lon="5.40044">
        <ele>382.79998779297</ele>
        <time>2019-11-30T14:48:47.000Z</time>
      </trkpt>
      <trkpt lat="43.64037" lon="5.40044">
        <ele>382.79998779297</ele>
        <time>2019-11-30T14:48:48.000Z</time>
      </trkpt>
      <trkpt lat="43.64037" lon="5.40044">
        <ele>382.79998779297</ele>
        <time>2019-11-30T14:48:49.000Z</time>
      </trkpt>
      <trkpt lat="43.64038" lon="5.40043">
        <ele>382.60000610352</ele>
        <time>2019-11-30T14:48:50.000Z</time>
      </trkpt>
      <trkpt lat="43.64039" lon="5.40041">
        <ele>382.60000610352</ele>
        <time>2019-11-30T14:48:51.000Z</time>
      </trkpt>
      <trkpt lat="43.6404" lon="5.40039">
        <ele>382.39999389648</ele>
        <time>2019-11-30T14:48:52.000Z</time>
      </trkpt>
      <trkpt lat="43.6404" lon="5.40038">
        <ele>382.60000610352</ele>
        <time>2019-11-30T14:48:53.000Z</time>
      </trkpt>
      <trkpt lat="43.64042" lon="5.40036">
        <ele>382.39999389648</ele>
        <time>2019-11-30T14:48:54.000Z</time>
      </trkpt>
      <trkpt lat="43.64043" lon="5.40034">
        <ele>382.20001220703</ele>
        <time>2019-11-30T14:48:55.000Z</time>
      </trkpt>
      <trkpt lat="43.64044" lon="5.40034">
        <ele>382</ele>
        <time>2019-11-30T14:48:56.000Z</time>
      </trkpt>
      <trkpt lat="43.64046" lon="5.40033">
        <ele>381.79998779297</ele>
        <time>2019-11-30T14:48:57.000Z</time>
      </trkpt>
      <trkpt lat="43.64047" lon="5.40031">
        <ele>381.60000610352</ele>
        <time>2019-11-30T14:48:58.000Z</time>
      </trkpt>
      <trkpt lat="43.64048" lon="5.4003">
        <ele>381.39999389648</ele>
        <time>2019-11-30T14:48:59.000Z</time>
      </trkpt>
      <trkpt lat="43.64049" lon="5.4003">
        <ele>381.20001220703</ele>
        <time>2019-11-30T14:49:00.000Z</time>
      </trkpt>
      <trkpt lat="43.64049" lon="5.40029">
        <ele>381.20001220703</ele>
        <time>2019-11-30T14:49:01.000Z</time>
      </trkpt>
      <trkpt lat="43.64049" lon="5.40029">
        <ele>381.20001220703</ele>
        <time>2019-11-30T14:49:02.000Z</time>
      </trkpt>
      <trkpt lat="43.64049" lon="5.40028">
        <ele>381.20001220703</ele>
        <time>2019-11-30T14:49:03.000Z</time>
      </trkpt>
      <trkpt lat="43.6405" lon="5.40026">
        <ele>381.39999389648</ele>
        <time>2019-11-30T14:49:04.000Z</time>
      </trkpt>
      <trkpt lat="43.6405" lon="5.40024">
        <ele>381.60000610352</ele>
        <time>2019-11-30T14:49:05.000Z</time>
      </trkpt>
      <trkpt lat="43.6405" lon="5.40024">
        <ele>381.79998779297</ele>
        <time>2019-11-30T14:49:06.000Z</time>
      </trkpt>
      <trkpt lat="43.6405" lon="5.40024">
        <ele>381.79998779297</ele>
        <time>2019-11-30T14:49:07.000Z</time>
      </trkpt>
      <trkpt lat="43.6405" lon="5.40024">
        <ele>381.79998779297</ele>
        <time>2019-11-30T14:49:08.000Z</time>
      </trkpt>
      <trkpt lat="43.6405" lon="5.40023">
        <ele>381.79998779297</ele>
        <time>2019-11-30T14:49:09.000Z</time>
      </trkpt>
      <trkpt lat="43.6405" lon="5.40021">
        <ele>382</ele>
        <time>2019-11-30T14:49:10.000Z</time>
      </trkpt>
      <trkpt lat="43.6405" lon="5.40019">
        <ele>382.20001220703</ele>
        <time>2019-11-30T14:49:11.000Z</time>
      </trkpt>
      <trkpt lat="43.64051" lon="5.40018">
        <ele>382.39999389648</ele>
        <time>2019-11-30T14:49:12.000Z</time>
      </trkpt>
      <trkpt lat="43.6405" lon="5.40016">
        <ele>382.60000610352</ele>
        <time>2019-11-30T14:49:13.000Z</time>
      </trkpt>
      <trkpt lat="43.6405" lon="5.40012">
        <ele>383.20001220703</ele>
        <time>2019-11-30T14:49:14.000Z</time>
      </trkpt>
      <trkpt lat="43.64049" lon="5.40007">
        <ele>384.20001220703</ele>
        <time>2019-11-30T14:49:15.000Z</time>
      </trkpt>
      <trkpt lat="43.64049" lon="5.40004">
        <ele>384.79998779297</ele>
        <time>2019-11-30T14:49:16.000Z</time>
      </trkpt>
      <trkpt lat="43.64049" lon="5.40001">
        <ele>385</ele>
        <time>2019-11-30T14:49:17.000Z</time>
      </trkpt>
      <trkpt lat="43.64049" lon="5.39999">
        <ele>385.39999389648</ele>
        <time>2019-11-30T14:49:18.000Z</time>
      </trkpt>
      <trkpt lat="43.64048" lon="5.39997">
        <ele>385.79998779297</ele>
        <time>2019-11-30T14:49:19.000Z</time>
      </trkpt>
      <trkpt lat="43.64048" lon="5.39995">
        <ele>386.20001220703</ele>
        <time>2019-11-30T14:49:20.000Z</time>
      </trkpt>
      <trkpt lat="43.64048" lon="5.39993">
        <ele>386.39999389648</ele>
        <time>2019-11-30T14:49:21.000Z</time>
      </trkpt>
      <trkpt lat="43.64048" lon="5.39991">
        <ele>386.60000610352</ele>
        <time>2019-11-30T14:49:22.000Z</time>
      </trkpt>
      <trkpt lat="43.64048" lon="5.3999">
        <ele>386.79998779297</ele>
        <time>2019-11-30T14:49:23.000Z</time>
      </trkpt>
      <trkpt lat="43.64048" lon="5.39988">
        <ele>387.20001220703</ele>
        <time>2019-11-30T14:49:24.000Z</time>
      </trkpt>
      <trkpt lat="43.64048" lon="5.39986">
        <ele>387.39999389648</ele>
        <time>2019-11-30T14:49:25.000Z</time>
      </trkpt>
      <trkpt lat="43.64049" lon="5.39984">
        <ele>387.39999389648</ele>
        <time>2019-11-30T14:49:26.000Z</time>
      </trkpt>
      <trkpt lat="43.6405" lon="5.39982">
        <ele>387.39999389648</ele>
        <time>2019-11-30T14:49:27.000Z</time>
      </trkpt>
      <trkpt lat="43.6405" lon="5.39981">
        <ele>387.60000610352</ele>
        <time>2019-11-30T14:49:28.000Z</time>
      </trkpt>
      <trkpt lat="43.64051" lon="5.39979">
        <ele>387.60000610352</ele>
        <time>2019-11-30T14:49:29.000Z</time>
      </trkpt>
      <trkpt lat="43.64052" lon="5.39978">
        <ele>387.60000610352</ele>
        <time>2019-11-30T14:49:30.000Z</time>
      </trkpt>
      <trkpt lat="43.64051" lon="5.39976">
        <ele>387.79998779297</ele>
        <time>2019-11-30T14:49:31.000Z</time>
      </trkpt>
      <trkpt lat="43.64051" lon="5.39975">
        <ele>388.20001220703</ele>
        <time>2019-11-30T14:49:32.000Z</time>
      </trkpt>
      <trkpt lat="43.64051" lon="5.39974">
        <ele>388.39999389648</ele>
        <time>2019-11-30T14:49:33.000Z</time>
      </trkpt>
      <trkpt lat="43.64051" lon="5.39974">
        <ele>388.39999389648</ele>
        <time>2019-11-30T14:49:34.000Z</time>
      </trkpt>
      <trkpt lat="43.64051" lon="5.39973">
        <ele>388.60000610352</ele>
        <time>2019-11-30T14:49:35.000Z</time>
      </trkpt>
      <trkpt lat="43.64051" lon="5.39973">
        <ele>388.39999389648</ele>
        <time>2019-11-30T14:49:36.000Z</time>
      </trkpt>
      <trkpt lat="43.64051" lon="5.39973">
        <ele>388.39999389648</ele>
        <time>2019-11-30T14:49:37.000Z</time>
      </trkpt>
      <trkpt lat="43.64051" lon="5.39973">
        <ele>388.39999389648</ele>
        <time>2019-11-30T14:49:38.000Z</time>
      </trkpt>
      <trkpt lat="43.64051" lon="5.39973">
        <ele>388.39999389648</ele>
        <time>2019-11-30T14:49:39.000Z</time>
      </trkpt>
      <trkpt lat="43.64051" lon="5.39973">
        <ele>388.39999389648</ele>
        <time>2019-11-30T14:49:40.000Z</time>
      </trkpt>
      <trkpt lat="43.64051" lon="5.39971">
        <ele>388.79998779297</ele>
        <time>2019-11-30T14:49:41.000Z</time>
      </trkpt>
      <trkpt lat="43.6405" lon="5.39969">
        <ele>389.39999389648</ele>
        <time>2019-11-30T14:49:42.000Z</time>
      </trkpt>
      <trkpt lat="43.64049" lon="5.39967">
        <ele>389.79998779297</ele>
        <time>2019-11-30T14:49:43.000Z</time>
      </trkpt>
      <trkpt lat="43.64049" lon="5.39964">
        <ele>390.20001220703</ele>
        <time>2019-11-30T14:49:44.000Z</time>
      </trkpt>
      <trkpt lat="43.64049" lon="5.39961">
        <ele>390.20001220703</ele>
        <time>2019-11-30T14:49:45.000Z</time>
      </trkpt>
      <trkpt lat="43.64048" lon="5.39958">
        <ele>390.39999389648</ele>
        <time>2019-11-30T14:49:46.000Z</time>
      </trkpt>
      <trkpt lat="43.64049" lon="5.39956">
        <ele>390.39999389648</ele>
        <time>2019-11-30T14:49:47.000Z</time>
      </trkpt>
      <trkpt lat="43.6405" lon="5.39954">
        <ele>390</ele>
        <time>2019-11-30T14:49:48.000Z</time>
      </trkpt>
      <trkpt lat="43.64052" lon="5.39952">
        <ele>389.39999389648</ele>
        <time>2019-11-30T14:49:49.000Z</time>
      </trkpt>
      <trkpt lat="43.64054" lon="5.39948">
        <ele>389</ele>
        <time>2019-11-30T14:49:50.000Z</time>
      </trkpt>
      <trkpt lat="43.64055" lon="5.39946">
        <ele>388.79998779297</ele>
        <time>2019-11-30T14:49:51.000Z</time>
      </trkpt>
      <trkpt lat="43.64055" lon="5.39944">
        <ele>388.79998779297</ele>
        <time>2019-11-30T14:49:52.000Z</time>
      </trkpt>
      <trkpt lat="43.64054" lon="5.39945">
        <ele>389</ele>
        <time>2019-11-30T14:49:53.000Z</time>
      </trkpt>
      <trkpt lat="43.64054" lon="5.39945">
        <ele>389</ele>
        <time>2019-11-30T14:49:54.000Z</time>
      </trkpt>
      <trkpt lat="43.64054" lon="5.39945">
        <ele>389</ele>
        <time>2019-11-30T14:49:55.000Z</time>
      </trkpt>
      <trkpt lat="43.64054" lon="5.39945">
        <ele>389</ele>
        <time>2019-11-30T14:49:56.000Z</time>
      </trkpt>
      <trkpt lat="43.64054" lon="5.39944">
        <ele>389</ele>
        <time>2019-11-30T14:49:57.000Z</time>
      </trkpt>
      <trkpt lat="43.64054" lon="5.39944">
        <ele>389</ele>
        <time>2019-11-30T14:49:58.000Z</time>
      </trkpt>
      <trkpt lat="43.64054" lon="5.39944">
        <ele>389</ele>
        <time>2019-11-30T14:49:59.000Z</time>
      </trkpt>
      <trkpt lat="43.64054" lon="5.39944">
        <ele>389</ele>
        <time>2019-11-30T14:50:00.000Z</time>
      </trkpt>
      <trkpt lat="43.64054" lon="5.39944">
        <ele>389</ele>
        <time>2019-11-30T14:50:01.000Z</time>
      </trkpt>
      <trkpt lat="43.64055" lon="5.39942">
        <ele>389</ele>
        <time>2019-11-30T14:50:02.000Z</time>
      </trkpt>
      <trkpt lat="43.64055" lon="5.39941">
        <ele>388.79998779297</ele>
        <time>2019-11-30T14:50:03.000Z</time>
      </trkpt>
      <trkpt lat="43.64055" lon="5.3994">
        <ele>388.79998779297</ele>
        <time>2019-11-30T14:50:04.000Z</time>
      </trkpt>
      <trkpt lat="43.64055" lon="5.39939">
        <ele>388.79998779297</ele>
        <time>2019-11-30T14:50:05.000Z</time>
      </trkpt>
      <trkpt lat="43.64056" lon="5.39938">
        <ele>388.60000610352</ele>
        <time>2019-11-30T14:50:06.000Z</time>
      </trkpt>
      <trkpt lat="43.64056" lon="5.39937">
        <ele>388.60000610352</ele>
        <time>2019-11-30T14:50:07.000Z</time>
      </trkpt>
      <trkpt lat="43.64056" lon="5.39936">
        <ele>388.60000610352</ele>
        <time>2019-11-30T14:50:08.000Z</time>
      </trkpt>
      <trkpt lat="43.64056" lon="5.39934">
        <ele>388.60000610352</ele>
        <time>2019-11-30T14:50:09.000Z</time>
      </trkpt>
      <trkpt lat="43.64056" lon="5.39934">
        <ele>388.60000610352</ele>
        <time>2019-11-30T14:50:10.000Z</time>
      </trkpt>
      <trkpt lat="43.64056" lon="5.39934">
        <ele>388.60000610352</ele>
        <time>2019-11-30T14:50:11.000Z</time>
      </trkpt>
      <trkpt lat="43.64056" lon="5.39934">
        <ele>388.60000610352</ele>
        <time>2019-11-30T14:50:12.000Z</time>
      </trkpt>
      <trkpt lat="43.64056" lon="5.39934">
        <ele>388.60000610352</ele>
        <time>2019-11-30T14:50:13.000Z</time>
      </trkpt>
      <trkpt lat="43.64056" lon="5.39934">
        <ele>388.60000610352</ele>
        <time>2019-11-30T14:50:14.000Z</time>
      </trkpt>
      <trkpt lat="43.64056" lon="5.39934">
        <ele>388.60000610352</ele>
        <time>2019-11-30T14:50:15.000Z</time>
      </trkpt>
      <trkpt lat="43.64056" lon="5.39934">
        <ele>388.60000610352</ele>
        <time>2019-11-30T14:50:16.000Z</time>
      </trkpt>
      <trkpt lat="43.64056" lon="5.39933">
        <ele>388.60000610352</ele>
        <time>2019-11-30T14:50:17.000Z</time>
      </trkpt>
      <trkpt lat="43.64056" lon="5.39932">
        <ele>388.79998779297</ele>
        <time>2019-11-30T14:50:18.000Z</time>
      </trkpt>
      <trkpt lat="43.64055" lon="5.39931">
        <ele>388.79998779297</ele>
        <time>2019-11-30T14:50:19.000Z</time>
      </trkpt>
      <trkpt lat="43.64055" lon="5.3993">
        <ele>389</ele>
        <time>2019-11-30T14:50:20.000Z</time>
      </trkpt>
      <trkpt lat="43.64054" lon="5.39929">
        <ele>389.20001220703</ele>
        <time>2019-11-30T14:50:21.000Z</time>
      </trkpt>
      <trkpt lat="43.64054" lon="5.39928">
        <ele>389.20001220703</ele>
        <time>2019-11-30T14:50:22.000Z</time>
      </trkpt>
      <trkpt lat="43.64054" lon="5.39928">
        <ele>389.20001220703</ele>
        <time>2019-11-30T14:50:23.000Z</time>
      </trkpt>
      <trkpt lat="43.64054" lon="5.39928">
        <ele>389.20001220703</ele>
        <time>2019-11-30T14:50:24.000Z</time>
      </trkpt>
      <trkpt lat="43.64054" lon="5.39928">
        <ele>389.20001220703</ele>
        <time>2019-11-30T14:50:25.000Z</time>
      </trkpt>
      <trkpt lat="43.64054" lon="5.39928">
        <ele>389.20001220703</ele>
        <time>2019-11-30T14:50:26.000Z</time>
      </trkpt>
      <trkpt lat="43.64054" lon="5.39928">
        <ele>389.20001220703</ele>
        <time>2019-11-30T14:50:27.000Z</time>
      </trkpt>
      <trkpt lat="43.64054" lon="5.39928">
        <ele>389.20001220703</ele>
        <time>2019-11-30T14:50:28.000Z</time>
      </trkpt>
      <trkpt lat="43.64054" lon="5.39926">
        <ele>389.20001220703</ele>
        <time>2019-11-30T14:50:29.000Z</time>
      </trkpt>
      <trkpt lat="43.64054" lon="5.39924">
        <ele>389.20001220703</ele>
        <time>2019-11-30T14:50:30.000Z</time>
      </trkpt>
      <trkpt lat="43.64055" lon="5.39922">
        <ele>389</ele>
        <time>2019-11-30T14:50:31.000Z</time>
      </trkpt>
      <trkpt lat="43.64055" lon="5.3992">
        <ele>389</ele>
        <time>2019-11-30T14:50:32.000Z</time>
      </trkpt>
      <trkpt lat="43.64056" lon="5.39918">
        <ele>389</ele>
        <time>2019-11-30T14:50:33.000Z</time>
      </trkpt>
      <trkpt lat="43.64056" lon="5.39917">
        <ele>389</ele>
        <time>2019-11-30T14:50:34.000Z</time>
      </trkpt>
      <trkpt lat="43.64057" lon="5.39916">
        <ele>388.79998779297</ele>
        <time>2019-11-30T14:50:35.000Z</time>
      </trkpt>
      <trkpt lat="43.6406" lon="5.39914">
        <ele>388.60000610352</ele>
        <time>2019-11-30T14:50:36.000Z</time>
      </trkpt>
      <trkpt lat="43.64062" lon="5.39912">
        <ele>388.39999389648</ele>
        <time>2019-11-30T14:50:37.000Z</time>
      </trkpt>
      <trkpt lat="43.64064" lon="5.39909">
        <ele>388.20001220703</ele>
        <time>2019-11-30T14:50:38.000Z</time>
      </trkpt>
      <trkpt lat="43.64065" lon="5.39907">
        <ele>388.20001220703</ele>
        <time>2019-11-30T14:50:39.000Z</time>
      </trkpt>
      <trkpt lat="43.64067" lon="5.39905">
        <ele>388.20001220703</ele>
        <time>2019-11-30T14:50:40.000Z</time>
      </trkpt>
      <trkpt lat="43.6407" lon="5.39904">
        <ele>387.79998779297</ele>
        <time>2019-11-30T14:50:41.000Z</time>
      </trkpt>
      <trkpt lat="43.64072" lon="5.39903">
        <ele>387.39999389648</ele>
        <time>2019-11-30T14:50:42.000Z</time>
      </trkpt>
      <trkpt lat="43.64075" lon="5.399">
        <ele>387.20001220703</ele>
        <time>2019-11-30T14:50:43.000Z</time>
      </trkpt>
      <trkpt lat="43.64078" lon="5.39896">
        <ele>387</ele>
        <time>2019-11-30T14:50:44.000Z</time>
      </trkpt>
      <trkpt lat="43.64082" lon="5.39894">
        <ele>386.60000610352</ele>
        <time>2019-11-30T14:50:45.000Z</time>
      </trkpt>
      <trkpt lat="43.64084" lon="5.39891">
        <ele>386.39999389648</ele>
        <time>2019-11-30T14:50:46.000Z</time>
      </trkpt>
      <trkpt lat="43.64086" lon="5.39889">
        <ele>386.20001220703</ele>
        <time>2019-11-30T14:50:47.000Z</time>
      </trkpt>
      <trkpt lat="43.64089" lon="5.39885">
        <ele>386</ele>
        <time>2019-11-30T14:50:48.000Z</time>
      </trkpt>
      <trkpt lat="43.64092" lon="5.3988">
        <ele>385.79998779297</ele>
        <time>2019-11-30T14:50:49.000Z</time>
      </trkpt>
      <trkpt lat="43.64096" lon="5.39877">
        <ele>385.20001220703</ele>
        <time>2019-11-30T14:50:50.000Z</time>
      </trkpt>
      <trkpt lat="43.64099" lon="5.39874">
        <ele>385</ele>
        <time>2019-11-30T14:50:51.000Z</time>
      </trkpt>
      <trkpt lat="43.641" lon="5.39873">
        <ele>385</ele>
        <time>2019-11-30T14:50:52.000Z</time>
      </trkpt>
      <trkpt lat="43.641" lon="5.39872">
        <ele>385.20001220703</ele>
        <time>2019-11-30T14:50:53.000Z</time>
      </trkpt>
      <trkpt lat="43.641" lon="5.39872">
        <ele>385.20001220703</ele>
        <time>2019-11-30T14:50:54.000Z</time>
      </trkpt>
      <trkpt lat="43.641" lon="5.3987">
        <ele>385.39999389648</ele>
        <time>2019-11-30T14:50:55.000Z</time>
      </trkpt>
      <trkpt lat="43.641" lon="5.39866">
        <ele>385.79998779297</ele>
        <time>2019-11-30T14:50:56.000Z</time>
      </trkpt>
      <trkpt lat="43.641" lon="5.39862">
        <ele>386.20001220703</ele>
        <time>2019-11-30T14:50:57.000Z</time>
      </trkpt>
      <trkpt lat="43.641" lon="5.3986">
        <ele>386.60000610352</ele>
        <time>2019-11-30T14:50:58.000Z</time>
      </trkpt>
      <trkpt lat="43.641" lon="5.39857">
        <ele>386.79998779297</ele>
        <time>2019-11-30T14:50:59.000Z</time>
      </trkpt>
      <trkpt lat="43.641" lon="5.39854">
        <ele>387.20001220703</ele>
        <time>2019-11-30T14:51:00.000Z</time>
      </trkpt>
      <trkpt lat="43.64102" lon="5.3985">
        <ele>387.39999389648</ele>
        <time>2019-11-30T14:51:01.000Z</time>
      </trkpt>
      <trkpt lat="43.64103" lon="5.39846">
        <ele>387.79998779297</ele>
        <time>2019-11-30T14:51:02.000Z</time>
      </trkpt>
      <trkpt lat="43.64105" lon="5.39844">
        <ele>387.79998779297</ele>
        <time>2019-11-30T14:51:03.000Z</time>
      </trkpt>
      <trkpt lat="43.64106" lon="5.39843">
        <ele>387.79998779297</ele>
        <time>2019-11-30T14:51:04.000Z</time>
      </trkpt>
      <trkpt lat="43.64105" lon="5.39841">
        <ele>388</ele>
        <time>2019-11-30T14:51:05.000Z</time>
      </trkpt>
      <trkpt lat="43.64105" lon="5.39841">
        <ele>388</ele>
        <time>2019-11-30T14:51:06.000Z</time>
      </trkpt>
      <trkpt lat="43.64105" lon="5.39841">
        <ele>388</ele>
        <time>2019-11-30T14:51:07.000Z</time>
      </trkpt>
      <trkpt lat="43.64105" lon="5.39841">
        <ele>388</ele>
        <time>2019-11-30T14:51:08.000Z</time>
      </trkpt>
      <trkpt lat="43.64105" lon="5.39841">
        <ele>388</ele>
        <time>2019-11-30T14:51:09.000Z</time>
      </trkpt>
      <trkpt lat="43.64106" lon="5.39839">
        <ele>388.20001220703</ele>
        <time>2019-11-30T14:51:10.000Z</time>
      </trkpt>
      <trkpt lat="43.64107" lon="5.39838">
        <ele>388.20001220703</ele>
        <time>2019-11-30T14:51:11.000Z</time>
      </trkpt>
      <trkpt lat="43.64108" lon="5.39837">
        <ele>388.20001220703</ele>
        <time>2019-11-30T14:51:12.000Z</time>
      </trkpt>
      <trkpt lat="43.6411" lon="5.39836">
        <ele>388</ele>
        <time>2019-11-30T14:51:13.000Z</time>
      </trkpt>
      <trkpt lat="43.64111" lon="5.39834">
        <ele>388</ele>
        <time>2019-11-30T14:51:14.000Z</time>
      </trkpt>
      <trkpt lat="43.64112" lon="5.39832">
        <ele>388.20001220703</ele>
        <time>2019-11-30T14:51:15.000Z</time>
      </trkpt>
      <trkpt lat="43.64113" lon="5.39831">
        <ele>388.20001220703</ele>
        <time>2019-11-30T14:51:16.000Z</time>
      </trkpt>
      <trkpt lat="43.64115" lon="5.3983">
        <ele>388</ele>
        <time>2019-11-30T14:51:17.000Z</time>
      </trkpt>
      <trkpt lat="43.64116" lon="5.39828">
        <ele>388.20001220703</ele>
        <time>2019-11-30T14:51:18.000Z</time>
      </trkpt>
      <trkpt lat="43.64118" lon="5.39826">
        <ele>388</ele>
        <time>2019-11-30T14:51:19.000Z</time>
      </trkpt>
      <trkpt lat="43.6412" lon="5.39825">
        <ele>388</ele>
        <time>2019-11-30T14:51:20.000Z</time>
      </trkpt>
      <trkpt lat="43.64121" lon="5.39825">
        <ele>388</ele>
        <time>2019-11-30T14:51:21.000Z</time>
      </trkpt>
      <trkpt lat="43.64122" lon="5.39824">
        <ele>387.79998779297</ele>
        <time>2019-11-30T14:51:22.000Z</time>
      </trkpt>
      <trkpt lat="43.64123" lon="5.39824">
        <ele>387.79998779297</ele>
        <time>2019-11-30T14:51:23.000Z</time>
      </trkpt>
      <trkpt lat="43.64123" lon="5.39823">
        <ele>387.79998779297</ele>
        <time>2019-11-30T14:51:24.000Z</time>
      </trkpt>
      <trkpt lat="43.64123" lon="5.39823">
        <ele>387.79998779297</ele>
        <time>2019-11-30T14:51:25.000Z</time>
      </trkpt>
      <trkpt lat="43.64123" lon="5.39822">
        <ele>388</ele>
        <time>2019-11-30T14:51:26.000Z</time>
      </trkpt>
      <trkpt lat="43.64123" lon="5.39822">
        <ele>388</ele>
        <time>2019-11-30T14:51:27.000Z</time>
      </trkpt>
      <trkpt lat="43.64123" lon="5.39822">
        <ele>388</ele>
        <time>2019-11-30T14:51:28.000Z</time>
      </trkpt>
      <trkpt lat="43.64123" lon="5.39822">
        <ele>388</ele>
        <time>2019-11-30T14:51:29.000Z</time>
      </trkpt>
      <trkpt lat="43.64123" lon="5.39822">
        <ele>388</ele>
        <time>2019-11-30T14:51:30.000Z</time>
      </trkpt>
      <trkpt lat="43.64123" lon="5.39822">
        <ele>388</ele>
        <time>2019-11-30T14:51:31.000Z</time>
      </trkpt>
      <trkpt lat="43.64123" lon="5.39822">
        <ele>388</ele>
        <time>2019-11-30T14:51:32.000Z</time>
      </trkpt>
      <trkpt lat="43.64123" lon="5.39822">
        <ele>388</ele>
        <time>2019-11-30T14:51:33.000Z</time>
      </trkpt>
      <trkpt lat="43.64123" lon="5.39822">
        <ele>388</ele>
        <time>2019-11-30T14:51:34.000Z</time>
      </trkpt>
      <trkpt lat="43.64123" lon="5.39822">
        <ele>388</ele>
        <time>2019-11-30T14:51:35.000Z</time>
      </trkpt>
      <trkpt lat="43.64123" lon="5.39822">
        <ele>388</ele>
        <time>2019-11-30T14:51:36.000Z</time>
      </trkpt>
      <trkpt lat="43.64123" lon="5.39822">
        <ele>388</ele>
        <time>2019-11-30T14:51:37.000Z</time>
      </trkpt>
      <trkpt lat="43.64123" lon="5.39822">
        <ele>388</ele>
        <time>2019-11-30T14:51:38.000Z</time>
      </trkpt>
      <trkpt lat="43.64123" lon="5.39822">
        <ele>388</ele>
        <time>2019-11-30T14:51:39.000Z</time>
      </trkpt>
      <trkpt lat="43.64123" lon="5.39822">
        <ele>388</ele>
        <time>2019-11-30T14:51:40.000Z</time>
      </trkpt>
      <trkpt lat="43.64123" lon="5.39822">
        <ele>388</ele>
        <time>2019-11-30T14:51:41.000Z</time>
      </trkpt>
      <trkpt lat="43.64123" lon="5.39822">
        <ele>388</ele>
        <time>2019-11-30T14:51:42.000Z</time>
      </trkpt>
      <trkpt lat="43.64123" lon="5.39822">
        <ele>388</ele>
        <time>2019-11-30T14:51:43.000Z</time>
      </trkpt>
      <trkpt lat="43.64122" lon="5.39821">
        <ele>388.20001220703</ele>
        <time>2019-11-30T14:51:44.000Z</time>
      </trkpt>
      <trkpt lat="43.64122" lon="5.39819">
        <ele>388.39999389648</ele>
        <time>2019-11-30T14:51:45.000Z</time>
      </trkpt>
      <trkpt lat="43.64121" lon="5.39818">
        <ele>388.79998779297</ele>
        <time>2019-11-30T14:51:46.000Z</time>
      </trkpt>
      <trkpt lat="43.6412" lon="5.39817">
        <ele>388.79998779297</ele>
        <time>2019-11-30T14:51:47.000Z</time>
      </trkpt>
      <trkpt lat="43.64121" lon="5.39817">
        <ele>388.79998779297</ele>
        <time>2019-11-30T14:51:48.000Z</time>
      </trkpt>
      <trkpt lat="43.6412" lon="5.39818">
        <ele>388.79998779297</ele>
        <time>2019-11-30T14:51:49.000Z</time>
      </trkpt>
      <trkpt lat="43.6412" lon="5.39818">
        <ele>388.79998779297</ele>
        <time>2019-11-30T14:51:50.000Z</time>
      </trkpt>
      <trkpt lat="43.64121" lon="5.39816">
        <ele>388.79998779297</ele>
        <time>2019-11-30T14:51:51.000Z</time>
      </trkpt>
      <trkpt lat="43.64121" lon="5.39816">
        <ele>388.79998779297</ele>
        <time>2019-11-30T14:51:52.000Z</time>
      </trkpt>
      <trkpt lat="43.64121" lon="5.39816">
        <ele>388.79998779297</ele>
        <time>2019-11-30T14:51:53.000Z</time>
      </trkpt>
      <trkpt lat="43.64121" lon="5.39816">
        <ele>388.79998779297</ele>
        <time>2019-11-30T14:51:54.000Z</time>
      </trkpt>
      <trkpt lat="43.64122" lon="5.39815">
        <ele>388.79998779297</ele>
        <time>2019-11-30T14:51:55.000Z</time>
      </trkpt>
      <trkpt lat="43.64123" lon="5.39814">
        <ele>388.79998779297</ele>
        <time>2019-11-30T14:51:56.000Z</time>
      </trkpt>
      <trkpt lat="43.64124" lon="5.39813">
        <ele>389</ele>
        <time>2019-11-30T14:51:57.000Z</time>
      </trkpt>
      <trkpt lat="43.64124" lon="5.39811">
        <ele>389</ele>
        <time>2019-11-30T14:51:58.000Z</time>
      </trkpt>
      <trkpt lat="43.64125" lon="5.39809">
        <ele>389.20001220703</ele>
        <time>2019-11-30T14:51:59.000Z</time>
      </trkpt>
      <trkpt lat="43.64126" lon="5.39808">
        <ele>389.20001220703</ele>
        <time>2019-11-30T14:52:00.000Z</time>
      </trkpt>
      <trkpt lat="43.64128" lon="5.39806">
        <ele>389.20001220703</ele>
        <time>2019-11-30T14:52:01.000Z</time>
      </trkpt>
      <trkpt lat="43.64129" lon="5.39805">
        <ele>389</ele>
        <time>2019-11-30T14:52:02.000Z</time>
      </trkpt>
      <trkpt lat="43.64131" lon="5.39804">
        <ele>389</ele>
        <time>2019-11-30T14:52:03.000Z</time>
      </trkpt>
      <trkpt lat="43.64132" lon="5.39802">
        <ele>389</ele>
        <time>2019-11-30T14:52:04.000Z</time>
      </trkpt>
      <trkpt lat="43.64134" lon="5.39799">
        <ele>389</ele>
        <time>2019-11-30T14:52:05.000Z</time>
      </trkpt>
      <trkpt lat="43.64135" lon="5.39797">
        <ele>389</ele>
        <time>2019-11-30T14:52:06.000Z</time>
      </trkpt>
      <trkpt lat="43.64137" lon="5.39796">
        <ele>389</ele>
        <time>2019-11-30T14:52:07.000Z</time>
      </trkpt>
      <trkpt lat="43.64139" lon="5.39794">
        <ele>388.79998779297</ele>
        <time>2019-11-30T14:52:08.000Z</time>
      </trkpt>
      <trkpt lat="43.6414" lon="5.39792">
        <ele>388.60000610352</ele>
        <time>2019-11-30T14:52:09.000Z</time>
      </trkpt>
      <trkpt lat="43.64141" lon="5.39791">
        <ele>388.60000610352</ele>
        <time>2019-11-30T14:52:10.000Z</time>
      </trkpt>
      <trkpt lat="43.64143" lon="5.39789">
        <ele>388.39999389648</ele>
        <time>2019-11-30T14:52:11.000Z</time>
      </trkpt>
      <trkpt lat="43.64145" lon="5.39788">
        <ele>388.20001220703</ele>
        <time>2019-11-30T14:52:12.000Z</time>
      </trkpt>
      <trkpt lat="43.64147" lon="5.39787">
        <ele>387.79998779297</ele>
        <time>2019-11-30T14:52:13.000Z</time>
      </trkpt>
      <trkpt lat="43.64149" lon="5.39786">
        <ele>387.60000610352</ele>
        <time>2019-11-30T14:52:14.000Z</time>
      </trkpt>
      <trkpt lat="43.64152" lon="5.39786">
        <ele>387.39999389648</ele>
        <time>2019-11-30T14:52:15.000Z</time>
      </trkpt>
      <trkpt lat="43.64154" lon="5.39787">
        <ele>387</ele>
        <time>2019-11-30T14:52:16.000Z</time>
      </trkpt>
      <trkpt lat="43.64157" lon="5.39788">
        <ele>386.79998779297</ele>
        <time>2019-11-30T14:52:17.000Z</time>
      </trkpt>
      <trkpt lat="43.64159" lon="5.3979">
        <ele>386.39999389648</ele>
        <time>2019-11-30T14:52:18.000Z</time>
      </trkpt>
      <trkpt lat="43.6416" lon="5.3979">
        <ele>386.39999389648</ele>
        <time>2019-11-30T14:52:19.000Z</time>
      </trkpt>
      <trkpt lat="43.6416" lon="5.3979">
        <ele>386.20001220703</ele>
        <time>2019-11-30T14:52:20.000Z</time>
      </trkpt>
      <trkpt lat="43.64161" lon="5.39787">
        <ele>386.20001220703</ele>
        <time>2019-11-30T14:52:21.000Z</time>
      </trkpt>
      <trkpt lat="43.64162" lon="5.39785">
        <ele>386.20001220703</ele>
        <time>2019-11-30T14:52:22.000Z</time>
      </trkpt>
      <trkpt lat="43.64164" lon="5.39782">
        <ele>386</ele>
        <time>2019-11-30T14:52:23.000Z</time>
      </trkpt>
      <trkpt lat="43.64165" lon="5.39781">
        <ele>386</ele>
        <time>2019-11-30T14:52:24.000Z</time>
      </trkpt>
      <trkpt lat="43.64166" lon="5.39779">
        <ele>385.79998779297</ele>
        <time>2019-11-30T14:52:25.000Z</time>
      </trkpt>
      <trkpt lat="43.64167" lon="5.39778">
        <ele>386</ele>
        <time>2019-11-30T14:52:26.000Z</time>
      </trkpt>
      <trkpt lat="43.64167" lon="5.39778">
        <ele>386</ele>
        <time>2019-11-30T14:52:27.000Z</time>
      </trkpt>
      <trkpt lat="43.64167" lon="5.39778">
        <ele>386</ele>
        <time>2019-11-30T14:52:28.000Z</time>
      </trkpt>
      <trkpt lat="43.64167" lon="5.39778">
        <ele>386</ele>
        <time>2019-11-30T14:52:29.000Z</time>
      </trkpt>
      <trkpt lat="43.64167" lon="5.39778">
        <ele>386</ele>
        <time>2019-11-30T14:52:30.000Z</time>
      </trkpt>
      <trkpt lat="43.64167" lon="5.39778">
        <ele>386</ele>
        <time>2019-11-30T14:52:31.000Z</time>
      </trkpt>
      <trkpt lat="43.64167" lon="5.39778">
        <ele>386</ele>
        <time>2019-11-30T14:52:32.000Z</time>
      </trkpt>
      <trkpt lat="43.64167" lon="5.39778">
        <ele>386</ele>
        <time>2019-11-30T14:52:33.000Z</time>
      </trkpt>
      <trkpt lat="43.64167" lon="5.39776">
        <ele>386</ele>
        <time>2019-11-30T14:52:34.000Z</time>
      </trkpt>
      <trkpt lat="43.64167" lon="5.39776">
        <ele>386</ele>
        <time>2019-11-30T14:52:35.000Z</time>
      </trkpt>
      <trkpt lat="43.64167" lon="5.39774">
        <ele>386.39999389648</ele>
        <time>2019-11-30T14:52:36.000Z</time>
      </trkpt>
      <trkpt lat="43.64169" lon="5.39772">
        <ele>386.60000610352</ele>
        <time>2019-11-30T14:52:37.000Z</time>
      </trkpt>
      <trkpt lat="43.64169" lon="5.39772">
        <ele>386.60000610352</ele>
        <time>2019-11-30T14:52:38.000Z</time>
      </trkpt>
      <trkpt lat="43.64169" lon="5.39772">
        <ele>386.60000610352</ele>
        <time>2019-11-30T14:52:39.000Z</time>
      </trkpt>
      <trkpt lat="43.6417" lon="5.39771">
        <ele>386.60000610352</ele>
        <time>2019-11-30T14:52:40.000Z</time>
      </trkpt>
      <trkpt lat="43.6417" lon="5.39769">
        <ele>386.79998779297</ele>
        <time>2019-11-30T14:52:41.000Z</time>
      </trkpt>
      <trkpt lat="43.6417" lon="5.39768">
        <ele>387</ele>
        <time>2019-11-30T14:52:42.000Z</time>
      </trkpt>
      <trkpt lat="43.6417" lon="5.39768">
        <ele>387</ele>
        <time>2019-11-30T14:52:43.000Z</time>
      </trkpt>
      <trkpt lat="43.6417" lon="5.39766">
        <ele>387.20001220703</ele>
        <time>2019-11-30T14:52:44.000Z</time>
      </trkpt>
      <trkpt lat="43.6417" lon="5.39766">
        <ele>387.20001220703</ele>
        <time>2019-11-30T14:52:45.000Z</time>
      </trkpt>
      <trkpt lat="43.64171" lon="5.39767">
        <ele>387.20001220703</ele>
        <time>2019-11-30T14:52:46.000Z</time>
      </trkpt>
      <trkpt lat="43.6417" lon="5.39768">
        <ele>387</ele>
        <time>2019-11-30T14:52:47.000Z</time>
      </trkpt>
      <trkpt lat="43.64171" lon="5.39768">
        <ele>387</ele>
        <time>2019-11-30T14:52:48.000Z</time>
      </trkpt>
      <trkpt lat="43.64172" lon="5.39768">
        <ele>387</ele>
        <time>2019-11-30T14:52:49.000Z</time>
      </trkpt>
      <trkpt lat="43.64174" lon="5.39768">
        <ele>386.79998779297</ele>
        <time>2019-11-30T14:52:50.000Z</time>
      </trkpt>
      <trkpt lat="43.64176" lon="5.3977">
        <ele>386.60000610352</ele>
        <time>2019-11-30T14:52:51.000Z</time>
      </trkpt>
      <trkpt lat="43.64178" lon="5.3977">
        <ele>386.60000610352</ele>
        <time>2019-11-30T14:52:52.000Z</time>
      </trkpt>
      <trkpt lat="43.6418" lon="5.39771">
        <ele>386.39999389648</ele>
        <time>2019-11-30T14:52:53.000Z</time>
      </trkpt>
      <trkpt lat="43.64181" lon="5.39771">
        <ele>386.39999389648</ele>
        <time>2019-11-30T14:52:54.000Z</time>
      </trkpt>
      <trkpt lat="43.64183" lon="5.39772">
        <ele>386.20001220703</ele>
        <time>2019-11-30T14:52:55.000Z</time>
      </trkpt>
      <trkpt lat="43.64185" lon="5.39773">
        <ele>386</ele>
        <time>2019-11-30T14:52:56.000Z</time>
      </trkpt>
      <trkpt lat="43.64187" lon="5.39774">
        <ele>386</ele>
        <time>2019-11-30T14:52:57.000Z</time>
      </trkpt>
      <trkpt lat="43.6419" lon="5.39775">
        <ele>386.20001220703</ele>
        <time>2019-11-30T14:52:58.000Z</time>
      </trkpt>
      <trkpt lat="43.64193" lon="5.39775">
        <ele>386.39999389648</ele>
        <time>2019-11-30T14:52:59.000Z</time>
      </trkpt>
      <trkpt lat="43.64196" lon="5.39775">
        <ele>386.60000610352</ele>
        <time>2019-11-30T14:53:00.000Z</time>
      </trkpt>
      <trkpt lat="43.64197" lon="5.39775">
        <ele>386.60000610352</ele>
        <time>2019-11-30T14:53:01.000Z</time>
      </trkpt>
      <trkpt lat="43.64197" lon="5.39775">
        <ele>386.60000610352</ele>
        <time>2019-11-30T14:53:02.000Z</time>
      </trkpt>
      <trkpt lat="43.64197" lon="5.39775">
        <ele>386.60000610352</ele>
        <time>2019-11-30T14:53:03.000Z</time>
      </trkpt>
      <trkpt lat="43.64198" lon="5.39775">
        <ele>386.79998779297</ele>
        <time>2019-11-30T14:53:04.000Z</time>
      </trkpt>
      <trkpt lat="43.64199" lon="5.39774">
        <ele>386.79998779297</ele>
        <time>2019-11-30T14:53:05.000Z</time>
      </trkpt>
      <trkpt lat="43.64201" lon="5.39775">
        <ele>386.79998779297</ele>
        <time>2019-11-30T14:53:06.000Z</time>
      </trkpt>
      <trkpt lat="43.64202" lon="5.39776">
        <ele>386.79998779297</ele>
        <time>2019-11-30T14:53:07.000Z</time>
      </trkpt>
      <trkpt lat="43.64203" lon="5.39776">
        <ele>386.79998779297</ele>
        <time>2019-11-30T14:53:08.000Z</time>
      </trkpt>
      <trkpt lat="43.64203" lon="5.39776">
        <ele>386.79998779297</ele>
        <time>2019-11-30T14:53:09.000Z</time>
      </trkpt>
      <trkpt lat="43.64203" lon="5.39776">
        <ele>386.79998779297</ele>
        <time>2019-11-30T14:53:10.000Z</time>
      </trkpt>
      <trkpt lat="43.64203" lon="5.39776">
        <ele>386.79998779297</ele>
        <time>2019-11-30T14:53:11.000Z</time>
      </trkpt>
      <trkpt lat="43.64203" lon="5.39776">
        <ele>386.79998779297</ele>
        <time>2019-11-30T14:53:12.000Z</time>
      </trkpt>
      <trkpt lat="43.64204" lon="5.39777">
        <ele>387</ele>
        <time>2019-11-30T14:53:13.000Z</time>
      </trkpt>
      <trkpt lat="43.64206" lon="5.39777">
        <ele>387</ele>
        <time>2019-11-30T14:53:14.000Z</time>
      </trkpt>
      <trkpt lat="43.64208" lon="5.39778">
        <ele>387</ele>
        <time>2019-11-30T14:53:15.000Z</time>
      </trkpt>
      <trkpt lat="43.64209" lon="5.39778">
        <ele>387.20001220703</ele>
        <time>2019-11-30T14:53:16.000Z</time>
      </trkpt>
      <trkpt lat="43.6421" lon="5.39778">
        <ele>387.20001220703</ele>
        <time>2019-11-30T14:53:17.000Z</time>
      </trkpt>
      <trkpt lat="43.6421" lon="5.39778">
        <ele>387.20001220703</ele>
        <time>2019-11-30T14:53:18.000Z</time>
      </trkpt>
      <trkpt lat="43.6421" lon="5.39778">
        <ele>387.20001220703</ele>
        <time>2019-11-30T14:53:19.000Z</time>
      </trkpt>
      <trkpt lat="43.64211" lon="5.39778">
        <ele>387.20001220703</ele>
        <time>2019-11-30T14:53:20.000Z</time>
      </trkpt>
      <trkpt lat="43.64212" lon="5.39779">
        <ele>387.20001220703</ele>
        <time>2019-11-30T14:53:21.000Z</time>
      </trkpt>
      <trkpt lat="43.64213" lon="5.39781">
        <ele>387</ele>
        <time>2019-11-30T14:53:22.000Z</time>
      </trkpt>
      <trkpt lat="43.64215" lon="5.39782">
        <ele>387</ele>
        <time>2019-11-30T14:53:23.000Z</time>
      </trkpt>
      <trkpt lat="43.64217" lon="5.39783">
        <ele>387</ele>
        <time>2019-11-30T14:53:24.000Z</time>
      </trkpt>
      <trkpt lat="43.64217" lon="5.39783">
        <ele>387.20001220703</ele>
        <time>2019-11-30T14:53:25.000Z</time>
      </trkpt>
      <trkpt lat="43.64217" lon="5.39783">
        <ele>387.20001220703</ele>
        <time>2019-11-30T14:53:26.000Z</time>
      </trkpt>
      <trkpt lat="43.64217" lon="5.39783">
        <ele>387.20001220703</ele>
        <time>2019-11-30T14:53:27.000Z</time>
      </trkpt>
      <trkpt lat="43.64218" lon="5.39782">
        <ele>387.39999389648</ele>
        <time>2019-11-30T14:53:28.000Z</time>
      </trkpt>
      <trkpt lat="43.64219" lon="5.3978">
        <ele>387.60000610352</ele>
        <time>2019-11-30T14:53:29.000Z</time>
      </trkpt>
      <trkpt lat="43.6422" lon="5.39779">
        <ele>387.79998779297</ele>
        <time>2019-11-30T14:53:30.000Z</time>
      </trkpt>
      <trkpt lat="43.64222" lon="5.39779">
        <ele>388</ele>
        <time>2019-11-30T14:53:31.000Z</time>
      </trkpt>
      <trkpt lat="43.64223" lon="5.39778">
        <ele>388</ele>
        <time>2019-11-30T14:53:32.000Z</time>
      </trkpt>
      <trkpt lat="43.64224" lon="5.39778">
        <ele>388.20001220703</ele>
        <time>2019-11-30T14:53:33.000Z</time>
      </trkpt>
      <trkpt lat="43.64225" lon="5.39778">
        <ele>388.20001220703</ele>
        <time>2019-11-30T14:53:34.000Z</time>
      </trkpt>
      <trkpt lat="43.64227" lon="5.39778">
        <ele>388.39999389648</ele>
        <time>2019-11-30T14:53:35.000Z</time>
      </trkpt>
      <trkpt lat="43.64227" lon="5.39776">
        <ele>388.60000610352</ele>
        <time>2019-11-30T14:53:36.000Z</time>
      </trkpt>
      <trkpt lat="43.64228" lon="5.39774">
        <ele>389</ele>
        <time>2019-11-30T14:53:37.000Z</time>
      </trkpt>
      <trkpt lat="43.6423" lon="5.39771">
        <ele>389.39999389648</ele>
        <time>2019-11-30T14:54:28.000Z</time>
      </trkpt>
      <trkpt lat="43.64231" lon="5.39769">
        <ele>389.79998779297</ele>
        <time>2019-11-30T14:54:28.000Z</time>
      </trkpt>
      <trkpt lat="43.64232" lon="5.39768">
        <ele>390</ele>
        <time>2019-11-30T14:54:29.000Z</time>
      </trkpt>
      <trkpt lat="43.64234" lon="5.39766">
        <ele>390.39999389648</ele>
        <time>2019-11-30T14:54:30.000Z</time>
      </trkpt>
      <trkpt lat="43.64235" lon="5.39764">
        <ele>390.60000610352</ele>
        <time>2019-11-30T14:54:31.000Z</time>
      </trkpt>
      <trkpt lat="43.64236" lon="5.39762">
        <ele>390.79998779297</ele>
        <time>2019-11-30T14:54:32.000Z</time>
      </trkpt>
      <trkpt lat="43.64236" lon="5.39762">
        <ele>390.79998779297</ele>
        <time>2019-11-30T14:54:33.000Z</time>
      </trkpt>
      <trkpt lat="43.64233" lon="5.39769">
        <ele>390</ele>
        <time>2019-11-30T14:54:34.000Z</time>
      </trkpt>
      <trkpt lat="43.64232" lon="5.39774">
        <ele>389.20001220703</ele>
        <time>2019-11-30T14:54:35.000Z</time>
      </trkpt>
      <trkpt lat="43.64232" lon="5.39778">
        <ele>388.79998779297</ele>
        <time>2019-11-30T14:54:36.000Z</time>
      </trkpt>
      <trkpt lat="43.64232" lon="5.39781">
        <ele>388.39999389648</ele>
        <time>2019-11-30T14:54:37.000Z</time>
      </trkpt>
      <trkpt lat="43.64232" lon="5.39784">
        <ele>388</ele>
        <time>2019-11-30T14:54:38.000Z</time>
      </trkpt>
      <trkpt lat="43.64233" lon="5.39787">
        <ele>387.79998779297</ele>
        <time>2019-11-30T14:54:39.000Z</time>
      </trkpt>
      <trkpt lat="43.64234" lon="5.3979">
        <ele>387.39999389648</ele>
        <time>2019-11-30T14:54:40.000Z</time>
      </trkpt>
      <trkpt lat="43.64235" lon="5.39794">
        <ele>387.20001220703</ele>
        <time>2019-11-30T14:54:41.000Z</time>
      </trkpt>
      <trkpt lat="43.64235" lon="5.39796">
        <ele>386.79998779297</ele>
        <time>2019-11-30T14:54:42.000Z</time>
      </trkpt>
      <trkpt lat="43.64236" lon="5.39798">
        <ele>386.60000610352</ele>
        <time>2019-11-30T14:54:43.000Z</time>
      </trkpt>
      <trkpt lat="43.64237" lon="5.398">
        <ele>386.60000610352</ele>
        <time>2019-11-30T14:54:44.000Z</time>
      </trkpt>
      <trkpt lat="43.64238" lon="5.39802">
        <ele>386.39999389648</ele>
        <time>2019-11-30T14:54:45.000Z</time>
      </trkpt>
      <trkpt lat="43.64238" lon="5.39804">
        <ele>386.20001220703</ele>
        <time>2019-11-30T14:54:46.000Z</time>
      </trkpt>
      <trkpt lat="43.64239" lon="5.39805">
        <ele>386.20001220703</ele>
        <time>2019-11-30T14:54:47.000Z</time>
      </trkpt>
      <trkpt lat="43.6424" lon="5.39807">
        <ele>386.20001220703</ele>
        <time>2019-11-30T14:54:48.000Z</time>
      </trkpt>
      <trkpt lat="43.64241" lon="5.39809">
        <ele>386</ele>
        <time>2019-11-30T14:54:49.000Z</time>
      </trkpt>
      <trkpt lat="43.64242" lon="5.39809">
        <ele>386</ele>
        <time>2019-11-30T14:54:50.000Z</time>
      </trkpt>
      <trkpt lat="43.64242" lon="5.39809">
        <ele>386</ele>
        <time>2019-11-30T14:54:51.000Z</time>
      </trkpt>
      <trkpt lat="43.64241" lon="5.3981">
        <ele>386</ele>
        <time>2019-11-30T14:54:52.000Z</time>
      </trkpt>
      <trkpt lat="43.64241" lon="5.3981">
        <ele>386</ele>
        <time>2019-11-30T14:54:53.000Z</time>
      </trkpt>
      <trkpt lat="43.64241" lon="5.3981">
        <ele>386</ele>
        <time>2019-11-30T14:54:54.000Z</time>
      </trkpt>
      <trkpt lat="43.64241" lon="5.3981">
        <ele>386</ele>
        <time>2019-11-30T14:54:55.000Z</time>
      </trkpt>
      <trkpt lat="43.64241" lon="5.3981">
        <ele>386</ele>
        <time>2019-11-30T14:54:56.000Z</time>
      </trkpt>
      <trkpt lat="43.64241" lon="5.3981">
        <ele>386</ele>
        <time>2019-11-30T14:54:57.000Z</time>
      </trkpt>
      <trkpt lat="43.64241" lon="5.3981">
        <ele>386</ele>
        <time>2019-11-30T14:54:58.000Z</time>
      </trkpt>
      <trkpt lat="43.64241" lon="5.3981">
        <ele>386</ele>
        <time>2019-11-30T14:54:59.000Z</time>
      </trkpt>
      <trkpt lat="43.64241" lon="5.3981">
        <ele>386</ele>
        <time>2019-11-30T14:55:00.000Z</time>
      </trkpt>
      <trkpt lat="43.64241" lon="5.3981">
        <ele>386</ele>
        <time>2019-11-30T14:55:01.000Z</time>
      </trkpt>
      <trkpt lat="43.64241" lon="5.3981">
        <ele>386</ele>
        <time>2019-11-30T14:55:02.000Z</time>
      </trkpt>
      <trkpt lat="43.64242" lon="5.3981">
        <ele>386</ele>
        <time>2019-11-30T14:55:03.000Z</time>
      </trkpt>
      <trkpt lat="43.64242" lon="5.39811">
        <ele>385.79998779297</ele>
        <time>2019-11-30T14:55:04.000Z</time>
      </trkpt>
      <trkpt lat="43.64242" lon="5.39811">
        <ele>385.79998779297</ele>
        <time>2019-11-30T14:55:05.000Z</time>
      </trkpt>
      <trkpt lat="43.64243" lon="5.39812">
        <ele>385.79998779297</ele>
        <time>2019-11-30T14:55:06.000Z</time>
      </trkpt>
      <trkpt lat="43.64243" lon="5.39812">
        <ele>385.79998779297</ele>
        <time>2019-11-30T14:55:07.000Z</time>
      </trkpt>
      <trkpt lat="43.64243" lon="5.39814">
        <ele>385.60000610352</ele>
        <time>2019-11-30T14:55:08.000Z</time>
      </trkpt>
      <trkpt lat="43.64243" lon="5.39815">
        <ele>385.60000610352</ele>
        <time>2019-11-30T14:55:09.000Z</time>
      </trkpt>
      <trkpt lat="43.64242" lon="5.39817">
        <ele>385.39999389648</ele>
        <time>2019-11-30T14:55:10.000Z</time>
      </trkpt>
      <trkpt lat="43.64243" lon="5.39818">
        <ele>385.20001220703</ele>
        <time>2019-11-30T14:55:11.000Z</time>
      </trkpt>
      <trkpt lat="43.64243" lon="5.39821">
        <ele>385</ele>
        <time>2019-11-30T14:55:12.000Z</time>
      </trkpt>
      <trkpt lat="43.64243" lon="5.39824">
        <ele>384.79998779297</ele>
        <time>2019-11-30T14:55:13.000Z</time>
      </trkpt>
      <trkpt lat="43.64245" lon="5.39826">
        <ele>384.60000610352</ele>
        <time>2019-11-30T14:55:14.000Z</time>
      </trkpt>
      <trkpt lat="43.64246" lon="5.39828">
        <ele>384.60000610352</ele>
        <time>2019-11-30T14:55:15.000Z</time>
      </trkpt>
      <trkpt lat="43.64247" lon="5.39829">
        <ele>384.60000610352</ele>
        <time>2019-11-30T14:55:16.000Z</time>
      </trkpt>
      <trkpt lat="43.64249" lon="5.39831">
        <ele>384.39999389648</ele>
        <time>2019-11-30T14:55:17.000Z</time>
      </trkpt>
      <trkpt lat="43.64249" lon="5.39833">
        <ele>384.20001220703</ele>
        <time>2019-11-30T14:55:18.000Z</time>
      </trkpt>
      <trkpt lat="43.64249" lon="5.39835">
        <ele>384</ele>
        <time>2019-11-30T14:55:19.000Z</time>
      </trkpt>
      <trkpt lat="43.64249" lon="5.39836">
        <ele>384</ele>
        <time>2019-11-30T14:55:20.000Z</time>
      </trkpt>
      <trkpt lat="43.64251" lon="5.39838">
        <ele>384</ele>
        <time>2019-11-30T14:55:21.000Z</time>
      </trkpt>
      <trkpt lat="43.64252" lon="5.3984">
        <ele>383.79998779297</ele>
        <time>2019-11-30T14:55:22.000Z</time>
      </trkpt>
      <trkpt lat="43.64254" lon="5.39843">
        <ele>383.60000610352</ele>
        <time>2019-11-30T14:55:23.000Z</time>
      </trkpt>
      <trkpt lat="43.64254" lon="5.39844">
        <ele>383.60000610352</ele>
        <time>2019-11-30T14:55:24.000Z</time>
      </trkpt>
      <trkpt lat="43.64255" lon="5.39845">
        <ele>383.60000610352</ele>
        <time>2019-11-30T14:55:25.000Z</time>
      </trkpt>
      <trkpt lat="43.64255" lon="5.39845">
        <ele>383.60000610352</ele>
        <time>2019-11-30T14:55:26.000Z</time>
      </trkpt>
      <trkpt lat="43.64256" lon="5.39846">
        <ele>383.39999389648</ele>
        <time>2019-11-30T14:55:27.000Z</time>
      </trkpt>
      <trkpt lat="43.64257" lon="5.39847">
        <ele>383.39999389648</ele>
        <time>2019-11-30T14:55:28.000Z</time>
      </trkpt>
      <trkpt lat="43.64257" lon="5.39847">
        <ele>383.39999389648</ele>
        <time>2019-11-30T14:55:29.000Z</time>
      </trkpt>
      <trkpt lat="43.64257" lon="5.39847">
        <ele>383.39999389648</ele>
        <time>2019-11-30T14:55:30.000Z</time>
      </trkpt>
      <trkpt lat="43.64257" lon="5.39847">
        <ele>383.39999389648</ele>
        <time>2019-11-30T14:55:31.000Z</time>
      </trkpt>
      <trkpt lat="43.64258" lon="5.39851">
        <ele>383.20001220703</ele>
        <time>2019-11-30T14:55:32.000Z</time>
      </trkpt>
      <trkpt lat="43.64259" lon="5.39853">
        <ele>383</ele>
        <time>2019-11-30T14:55:33.000Z</time>
      </trkpt>
      <trkpt lat="43.6426" lon="5.39856">
        <ele>382.79998779297</ele>
        <time>2019-11-30T14:55:34.000Z</time>
      </trkpt>
      <trkpt lat="43.64262" lon="5.39858">
        <ele>382.79998779297</ele>
        <time>2019-11-30T14:55:35.000Z</time>
      </trkpt>
      <trkpt lat="43.64263" lon="5.39859">
        <ele>382.60000610352</ele>
        <time>2019-11-30T14:55:36.000Z</time>
      </trkpt>
      <trkpt lat="43.64263" lon="5.3986">
        <ele>382.60000610352</ele>
        <time>2019-11-30T14:55:37.000Z</time>
      </trkpt>
      <trkpt lat="43.64264" lon="5.39861">
        <ele>382.60000610352</ele>
        <time>2019-11-30T14:55:38.000Z</time>
      </trkpt>
      <trkpt lat="43.64266" lon="5.39864">
        <ele>382.39999389648</ele>
        <time>2019-11-30T14:55:39.000Z</time>
      </trkpt>
      <trkpt lat="43.64267" lon="5.39866">
        <ele>382.39999389648</ele>
        <time>2019-11-30T14:55:40.000Z</time>
      </trkpt>
      <trkpt lat="43.64268" lon="5.39867">
        <ele>382.39999389648</ele>
        <time>2019-11-30T14:55:41.000Z</time>
      </trkpt>
      <trkpt lat="43.64268" lon="5.39868">
        <ele>382.20001220703</ele>
        <time>2019-11-30T14:55:42.000Z</time>
      </trkpt>
      <trkpt lat="43.64269" lon="5.39867">
        <ele>382.39999389648</ele>
        <time>2019-11-30T14:55:43.000Z</time>
      </trkpt>
      <trkpt lat="43.64269" lon="5.39867">
        <ele>382.39999389648</ele>
        <time>2019-11-30T14:55:44.000Z</time>
      </trkpt>
      <trkpt lat="43.64269" lon="5.39867">
        <ele>382.39999389648</ele>
        <time>2019-11-30T14:55:45.000Z</time>
      </trkpt>
      <trkpt lat="43.64269" lon="5.39867">
        <ele>382.39999389648</ele>
        <time>2019-11-30T14:55:46.000Z</time>
      </trkpt>
      <trkpt lat="43.64269" lon="5.39867">
        <ele>382.39999389648</ele>
        <time>2019-11-30T14:55:47.000Z</time>
      </trkpt>
      <trkpt lat="43.64269" lon="5.39866">
        <ele>382.39999389648</ele>
        <time>2019-11-30T14:55:48.000Z</time>
      </trkpt>
      <trkpt lat="43.64269" lon="5.39866">
        <ele>382.39999389648</ele>
        <time>2019-11-30T14:55:49.000Z</time>
      </trkpt>
      <trkpt lat="43.64269" lon="5.39866">
        <ele>382.39999389648</ele>
        <time>2019-11-30T14:55:50.000Z</time>
      </trkpt>
      <trkpt lat="43.64269" lon="5.39866">
        <ele>382.39999389648</ele>
        <time>2019-11-30T14:55:51.000Z</time>
      </trkpt>
      <trkpt lat="43.64269" lon="5.39866">
        <ele>382.39999389648</ele>
        <time>2019-11-30T14:55:52.000Z</time>
      </trkpt>
      <trkpt lat="43.64269" lon="5.39866">
        <ele>382.39999389648</ele>
        <time>2019-11-30T14:55:53.000Z</time>
      </trkpt>
      <trkpt lat="43.64269" lon="5.39866">
        <ele>382.39999389648</ele>
        <time>2019-11-30T14:55:54.000Z</time>
      </trkpt>
      <trkpt lat="43.64269" lon="5.39866">
        <ele>382.39999389648</ele>
        <time>2019-11-30T14:55:55.000Z</time>
      </trkpt>
      <trkpt lat="43.64269" lon="5.39866">
        <ele>382.39999389648</ele>
        <time>2019-11-30T14:55:56.000Z</time>
      </trkpt>
      <trkpt lat="43.64269" lon="5.39866">
        <ele>382.39999389648</ele>
        <time>2019-11-30T14:55:57.000Z</time>
      </trkpt>
      <trkpt lat="43.64269" lon="5.39866">
        <ele>382.39999389648</ele>
        <time>2019-11-30T14:55:58.000Z</time>
      </trkpt>
      <trkpt lat="43.64269" lon="5.39866">
        <ele>382.39999389648</ele>
        <time>2019-11-30T14:55:59.000Z</time>
      </trkpt>
      <trkpt lat="43.64269" lon="5.39866">
        <ele>382.39999389648</ele>
        <time>2019-11-30T14:56:00.000Z</time>
      </trkpt>
      <trkpt lat="43.64269" lon="5.39866">
        <ele>382.39999389648</ele>
        <time>2019-11-30T14:56:01.000Z</time>
      </trkpt>
      <trkpt lat="43.64269" lon="5.39866">
        <ele>382.39999389648</ele>
        <time>2019-11-30T14:56:02.000Z</time>
      </trkpt>
      <trkpt lat="43.64269" lon="5.39866">
        <ele>382.39999389648</ele>
        <time>2019-11-30T14:56:03.000Z</time>
      </trkpt>
      <trkpt lat="43.64269" lon="5.39866">
        <ele>382.39999389648</ele>
        <time>2019-11-30T14:56:04.000Z</time>
      </trkpt>
      <trkpt lat="43.64269" lon="5.39866">
        <ele>382.39999389648</ele>
        <time>2019-11-30T14:56:05.000Z</time>
      </trkpt>
      <trkpt lat="43.64269" lon="5.39866">
        <ele>382.39999389648</ele>
        <time>2019-11-30T14:56:06.000Z</time>
      </trkpt>
      <trkpt lat="43.64269" lon="5.39866">
        <ele>382.39999389648</ele>
        <time>2019-11-30T14:56:07.000Z</time>
      </trkpt>
      <trkpt lat="43.64269" lon="5.39866">
        <ele>382.39999389648</ele>
        <time>2019-11-30T14:56:08.000Z</time>
      </trkpt>
      <trkpt lat="43.64269" lon="5.39866">
        <ele>382.39999389648</ele>
        <time>2019-11-30T14:56:09.000Z</time>
      </trkpt>
      <trkpt lat="43.64269" lon="5.39866">
        <ele>382.39999389648</ele>
        <time>2019-11-30T14:56:10.000Z</time>
      </trkpt>
      <trkpt lat="43.64269" lon="5.39866">
        <ele>382.39999389648</ele>
        <time>2019-11-30T14:56:11.000Z</time>
      </trkpt>
      <trkpt lat="43.64269" lon="5.39866">
        <ele>382.39999389648</ele>
        <time>2019-11-30T14:56:12.000Z</time>
      </trkpt>
      <trkpt lat="43.64269" lon="5.39866">
        <ele>382.39999389648</ele>
        <time>2019-11-30T14:56:13.000Z</time>
      </trkpt>
      <trkpt lat="43.64269" lon="5.39866">
        <ele>382.39999389648</ele>
        <time>2019-11-30T14:56:14.000Z</time>
      </trkpt>
      <trkpt lat="43.64269" lon="5.39866">
        <ele>382.39999389648</ele>
        <time>2019-11-30T14:56:15.000Z</time>
      </trkpt>
      <trkpt lat="43.64269" lon="5.39866">
        <ele>382.39999389648</ele>
        <time>2019-11-30T14:56:16.000Z</time>
      </trkpt>
      <trkpt lat="43.64269" lon="5.39866">
        <ele>382.39999389648</ele>
        <time>2019-11-30T14:56:17.000Z</time>
      </trkpt>
      <trkpt lat="43.64268" lon="5.39865">
        <ele>382.39999389648</ele>
        <time>2019-11-30T14:56:18.000Z</time>
      </trkpt>
      <trkpt lat="43.64268" lon="5.39865">
        <ele>382.39999389648</ele>
        <time>2019-11-30T14:56:19.000Z</time>
      </trkpt>
      <trkpt lat="43.64267" lon="5.39865">
        <ele>382.39999389648</ele>
        <time>2019-11-30T14:56:20.000Z</time>
      </trkpt>
      <trkpt lat="43.64266" lon="5.39865">
        <ele>382.39999389648</ele>
        <time>2019-11-30T14:56:21.000Z</time>
      </trkpt>
      <trkpt lat="43.64265" lon="5.39865">
        <ele>382.20001220703</ele>
        <time>2019-11-30T14:56:22.000Z</time>
      </trkpt>
      <trkpt lat="43.64264" lon="5.39866">
        <ele>382.20001220703</ele>
        <time>2019-11-30T14:56:23.000Z</time>
      </trkpt>
      <trkpt lat="43.64264" lon="5.39867">
        <ele>382</ele>
        <time>2019-11-30T14:56:24.000Z</time>
      </trkpt>
      <trkpt lat="43.64264" lon="5.39867">
        <ele>382</ele>
        <time>2019-11-30T14:56:25.000Z</time>
      </trkpt>
      <trkpt lat="43.64265" lon="5.39868">
        <ele>382</ele>
        <time>2019-11-30T14:56:26.000Z</time>
      </trkpt>
      <trkpt lat="43.64265" lon="5.39868">
        <ele>382</ele>
        <time>2019-11-30T14:56:27.000Z</time>
      </trkpt>
      <trkpt lat="43.64265" lon="5.39869">
        <ele>381.79998779297</ele>
        <time>2019-11-30T14:56:28.000Z</time>
      </trkpt>
      <trkpt lat="43.64265" lon="5.39871">
        <ele>381.60000610352</ele>
        <time>2019-11-30T14:56:29.000Z</time>
      </trkpt>
      <trkpt lat="43.64265" lon="5.39873">
        <ele>381.60000610352</ele>
        <time>2019-11-30T14:56:30.000Z</time>
      </trkpt>
      <trkpt lat="43.64265" lon="5.39875">
        <ele>381.39999389648</ele>
        <time>2019-11-30T14:56:31.000Z</time>
      </trkpt>
      <trkpt lat="43.64266" lon="5.39877">
        <ele>381.20001220703</ele>
        <time>2019-11-30T14:56:32.000Z</time>
      </trkpt>
      <trkpt lat="43.64267" lon="5.39879">
        <ele>381</ele>
        <time>2019-11-30T14:56:33.000Z</time>
      </trkpt>
      <trkpt lat="43.64268" lon="5.39882">
        <ele>380.79998779297</ele>
        <time>2019-11-30T14:56:34.000Z</time>
      </trkpt>
      <trkpt lat="43.64269" lon="5.39884">
        <ele>380.79998779297</ele>
        <time>2019-11-30T14:56:35.000Z</time>
      </trkpt>
      <trkpt lat="43.64271" lon="5.39885">
        <ele>380.79998779297</ele>
        <time>2019-11-30T14:56:36.000Z</time>
      </trkpt>
      <trkpt lat="43.64272" lon="5.39886">
        <ele>381</ele>
        <time>2019-11-30T14:56:37.000Z</time>
      </trkpt>
      <trkpt lat="43.64273" lon="5.39886">
        <ele>381</ele>
        <time>2019-11-30T14:56:38.000Z</time>
      </trkpt>
      <trkpt lat="43.64273" lon="5.39887">
        <ele>381</ele>
        <time>2019-11-30T14:56:39.000Z</time>
      </trkpt>
      <trkpt lat="43.64274" lon="5.39889">
        <ele>380.79998779297</ele>
        <time>2019-11-30T14:56:40.000Z</time>
      </trkpt>
      <trkpt lat="43.64274" lon="5.39891">
        <ele>380.79998779297</ele>
        <time>2019-11-30T14:56:41.000Z</time>
      </trkpt>
      <trkpt lat="43.64274" lon="5.39893">
        <ele>380.60000610352</ele>
        <time>2019-11-30T14:56:42.000Z</time>
      </trkpt>
      <trkpt lat="43.64274" lon="5.39895">
        <ele>380.39999389648</ele>
        <time>2019-11-30T14:56:43.000Z</time>
      </trkpt>
      <trkpt lat="43.64275" lon="5.39897">
        <ele>380.39999389648</ele>
        <time>2019-11-30T14:56:44.000Z</time>
      </trkpt>
      <trkpt lat="43.64276" lon="5.39899">
        <ele>380.39999389648</ele>
        <time>2019-11-30T14:56:45.000Z</time>
      </trkpt>
      <trkpt lat="43.64276" lon="5.39899">
        <ele>380.39999389648</ele>
        <time>2019-11-30T14:56:46.000Z</time>
      </trkpt>
      <trkpt lat="43.64276" lon="5.39899">
        <ele>380.39999389648</ele>
        <time>2019-11-30T14:56:47.000Z</time>
      </trkpt>
      <trkpt lat="43.64276" lon="5.39899">
        <ele>380.39999389648</ele>
        <time>2019-11-30T14:56:48.000Z</time>
      </trkpt>
      <trkpt lat="43.64276" lon="5.39899">
        <ele>380.39999389648</ele>
        <time>2019-11-30T14:56:49.000Z</time>
      </trkpt>
      <trkpt lat="43.64276" lon="5.39899">
        <ele>380.39999389648</ele>
        <time>2019-11-30T14:56:50.000Z</time>
      </trkpt>
      <trkpt lat="43.64276" lon="5.39899">
        <ele>380.39999389648</ele>
        <time>2019-11-30T14:56:51.000Z</time>
      </trkpt>
      <trkpt lat="43.64277" lon="5.39901">
        <ele>380.20001220703</ele>
        <time>2019-11-30T14:56:52.000Z</time>
      </trkpt>
      <trkpt lat="43.64277" lon="5.39903">
        <ele>380.20001220703</ele>
        <time>2019-11-30T14:56:53.000Z</time>
      </trkpt>
      <trkpt lat="43.64276" lon="5.39904">
        <ele>380</ele>
        <time>2019-11-30T14:56:54.000Z</time>
      </trkpt>
      <trkpt lat="43.64276" lon="5.39905">
        <ele>379.79998779297</ele>
        <time>2019-11-30T14:56:55.000Z</time>
      </trkpt>
      <trkpt lat="43.64277" lon="5.39907">
        <ele>379.79998779297</ele>
        <time>2019-11-30T14:56:56.000Z</time>
      </trkpt>
      <trkpt lat="43.64277" lon="5.39907">
        <ele>379.79998779297</ele>
        <time>2019-11-30T14:56:57.000Z</time>
      </trkpt>
      <trkpt lat="43.64277" lon="5.39907">
        <ele>379.79998779297</ele>
        <time>2019-11-30T14:56:58.000Z</time>
      </trkpt>
      <trkpt lat="43.64277" lon="5.39907">
        <ele>379.79998779297</ele>
        <time>2019-11-30T14:56:59.000Z</time>
      </trkpt>
      <trkpt lat="43.64277" lon="5.39907">
        <ele>379.79998779297</ele>
        <time>2019-11-30T14:57:00.000Z</time>
      </trkpt>
      <trkpt lat="43.64277" lon="5.39907">
        <ele>379.79998779297</ele>
        <time>2019-11-30T14:57:01.000Z</time>
      </trkpt>
      <trkpt lat="43.64277" lon="5.39908">
        <ele>379.79998779297</ele>
        <time>2019-11-30T14:57:02.000Z</time>
      </trkpt>
      <trkpt lat="43.64278" lon="5.3991">
        <ele>379.60000610352</ele>
        <time>2019-11-30T14:57:03.000Z</time>
      </trkpt>
      <trkpt lat="43.64278" lon="5.39912">
        <ele>379.60000610352</ele>
        <time>2019-11-30T14:57:04.000Z</time>
      </trkpt>
      <trkpt lat="43.64278" lon="5.39914">
        <ele>379.39999389648</ele>
        <time>2019-11-30T14:57:05.000Z</time>
      </trkpt>
      <trkpt lat="43.64278" lon="5.39915">
        <ele>379.39999389648</ele>
        <time>2019-11-30T14:57:06.000Z</time>
      </trkpt>
      <trkpt lat="43.64278" lon="5.39916">
        <ele>379.20001220703</ele>
        <time>2019-11-30T14:57:07.000Z</time>
      </trkpt>
      <trkpt lat="43.64278" lon="5.39917">
        <ele>379.20001220703</ele>
        <time>2019-11-30T14:57:08.000Z</time>
      </trkpt>
      <trkpt lat="43.64278" lon="5.39919">
        <ele>379</ele>
        <time>2019-11-30T14:57:09.000Z</time>
      </trkpt>
      <trkpt lat="43.64279" lon="5.39921">
        <ele>379</ele>
        <time>2019-11-30T14:57:10.000Z</time>
      </trkpt>
      <trkpt lat="43.64279" lon="5.39922">
        <ele>379</ele>
        <time>2019-11-30T14:57:11.000Z</time>
      </trkpt>
      <trkpt lat="43.64279" lon="5.39923">
        <ele>378.79998779297</ele>
        <time>2019-11-30T14:57:12.000Z</time>
      </trkpt>
      <trkpt lat="43.64278" lon="5.39924">
        <ele>378.79998779297</ele>
        <time>2019-11-30T14:57:13.000Z</time>
      </trkpt>
      <trkpt lat="43.64278" lon="5.39924">
        <ele>378.79998779297</ele>
        <time>2019-11-30T14:57:14.000Z</time>
      </trkpt>
      <trkpt lat="43.64278" lon="5.39924">
        <ele>378.79998779297</ele>
        <time>2019-11-30T14:57:15.000Z</time>
      </trkpt>
      <trkpt lat="43.64278" lon="5.39924">
        <ele>378.79998779297</ele>
        <time>2019-11-30T14:57:16.000Z</time>
      </trkpt>
      <trkpt lat="43.64278" lon="5.39924">
        <ele>378.79998779297</ele>
        <time>2019-11-30T14:57:17.000Z</time>
      </trkpt>
      <trkpt lat="43.64277" lon="5.39924">
        <ele>378.60000610352</ele>
        <time>2019-11-30T14:57:18.000Z</time>
      </trkpt>
      <trkpt lat="43.64276" lon="5.39925">
        <ele>378.39999389648</ele>
        <time>2019-11-30T14:57:19.000Z</time>
      </trkpt>
      <trkpt lat="43.64276" lon="5.39926">
        <ele>378.39999389648</ele>
        <time>2019-11-30T14:57:20.000Z</time>
      </trkpt>
      <trkpt lat="43.64276" lon="5.39927">
        <ele>378.39999389648</ele>
        <time>2019-11-30T14:57:21.000Z</time>
      </trkpt>
      <trkpt lat="43.64277" lon="5.39928">
        <ele>378.20001220703</ele>
        <time>2019-11-30T14:57:22.000Z</time>
      </trkpt>
      <trkpt lat="43.64278" lon="5.3993">
        <ele>378.20001220703</ele>
        <time>2019-11-30T14:57:23.000Z</time>
      </trkpt>
      <trkpt lat="43.64278" lon="5.39931">
        <ele>378.20001220703</ele>
        <time>2019-11-30T14:57:24.000Z</time>
      </trkpt>
      <trkpt lat="43.64279" lon="5.39933">
        <ele>378.20001220703</ele>
        <time>2019-11-30T14:57:25.000Z</time>
      </trkpt>
      <trkpt lat="43.64279" lon="5.39934">
        <ele>378</ele>
        <time>2019-11-30T14:57:26.000Z</time>
      </trkpt>
      <trkpt lat="43.64279" lon="5.39934">
        <ele>378</ele>
        <time>2019-11-30T14:57:27.000Z</time>
      </trkpt>
      <trkpt lat="43.64279" lon="5.39934">
        <ele>378</ele>
        <time>2019-11-30T14:57:28.000Z</time>
      </trkpt>
      <trkpt lat="43.64279" lon="5.39934">
        <ele>378</ele>
        <time>2019-11-30T14:57:29.000Z</time>
      </trkpt>
      <trkpt lat="43.64279" lon="5.39934">
        <ele>378</ele>
        <time>2019-11-30T14:57:30.000Z</time>
      </trkpt>
      <trkpt lat="43.64279" lon="5.39934">
        <ele>378</ele>
        <time>2019-11-30T14:57:31.000Z</time>
      </trkpt>
      <trkpt lat="43.64279" lon="5.39934">
        <ele>378</ele>
        <time>2019-11-30T14:57:32.000Z</time>
      </trkpt>
      <trkpt lat="43.64279" lon="5.39934">
        <ele>378</ele>
        <time>2019-11-30T14:57:33.000Z</time>
      </trkpt>
      <trkpt lat="43.64279" lon="5.39935">
        <ele>378</ele>
        <time>2019-11-30T14:57:34.000Z</time>
      </trkpt>
      <trkpt lat="43.64278" lon="5.39937">
        <ele>377.79998779297</ele>
        <time>2019-11-30T14:57:35.000Z</time>
      </trkpt>
      <trkpt lat="43.64277" lon="5.39938">
        <ele>377.60000610352</ele>
        <time>2019-11-30T14:57:36.000Z</time>
      </trkpt>
      <trkpt lat="43.64276" lon="5.39939">
        <ele>377.39999389648</ele>
        <time>2019-11-30T14:57:37.000Z</time>
      </trkpt>
      <trkpt lat="43.64274" lon="5.39941">
        <ele>377.20001220703</ele>
        <time>2019-11-30T14:57:38.000Z</time>
      </trkpt>
      <trkpt lat="43.64272" lon="5.39943">
        <ele>376.79998779297</ele>
        <time>2019-11-30T14:57:39.000Z</time>
      </trkpt>
      <trkpt lat="43.64269" lon="5.39944">
        <ele>376.39999389648</ele>
        <time>2019-11-30T14:57:40.000Z</time>
      </trkpt>
      <trkpt lat="43.64266" lon="5.39947">
        <ele>376</ele>
        <time>2019-11-30T14:57:41.000Z</time>
      </trkpt>
      <trkpt lat="43.64264" lon="5.3995">
        <ele>375.60000610352</ele>
        <time>2019-11-30T14:57:42.000Z</time>
      </trkpt>
      <trkpt lat="43.6426" lon="5.39952">
        <ele>375.20001220703</ele>
        <time>2019-11-30T14:57:43.000Z</time>
      </trkpt>
      <trkpt lat="43.64257" lon="5.39955">
        <ele>374.60000610352</ele>
        <time>2019-11-30T14:57:44.000Z</time>
      </trkpt>
      <trkpt lat="43.64253" lon="5.39958">
        <ele>373.79998779297</ele>
        <time>2019-11-30T14:57:45.000Z</time>
      </trkpt>
      <trkpt lat="43.6425" lon="5.39961">
        <ele>373</ele>
        <time>2019-11-30T14:57:46.000Z</time>
      </trkpt>
      <trkpt lat="43.64247" lon="5.39964">
        <ele>372.20001220703</ele>
        <time>2019-11-30T14:57:47.000Z</time>
      </trkpt>
      <trkpt lat="43.64245" lon="5.39967">
        <ele>371.60000610352</ele>
        <time>2019-11-30T14:57:48.000Z</time>
      </trkpt>
      <trkpt lat="43.64243" lon="5.39972">
        <ele>371</ele>
        <time>2019-11-30T14:57:49.000Z</time>
      </trkpt>
      <trkpt lat="43.64242" lon="5.39976">
        <ele>370.60000610352</ele>
        <time>2019-11-30T14:57:50.000Z</time>
      </trkpt>
      <trkpt lat="43.64242" lon="5.39979">
        <ele>370.39999389648</ele>
        <time>2019-11-30T14:57:51.000Z</time>
      </trkpt>
      <trkpt lat="43.64244" lon="5.39982">
        <ele>370.39999389648</ele>
        <time>2019-11-30T14:57:52.000Z</time>
      </trkpt>
      <trkpt lat="43.64245" lon="5.39984">
        <ele>370.39999389648</ele>
        <time>2019-11-30T14:57:53.000Z</time>
      </trkpt>
      <trkpt lat="43.64246" lon="5.39987">
        <ele>370.39999389648</ele>
        <time>2019-11-30T14:57:54.000Z</time>
      </trkpt>
      <trkpt lat="43.64248" lon="5.39989">
        <ele>370.60000610352</ele>
        <time>2019-11-30T14:57:55.000Z</time>
      </trkpt>
      <trkpt lat="43.6425" lon="5.3999">
        <ele>370.60000610352</ele>
        <time>2019-11-30T14:57:56.000Z</time>
      </trkpt>
      <trkpt lat="43.64251" lon="5.39992">
        <ele>370.79998779297</ele>
        <time>2019-11-30T14:57:57.000Z</time>
      </trkpt>
      <trkpt lat="43.64253" lon="5.39993">
        <ele>370.79998779297</ele>
        <time>2019-11-30T14:57:58.000Z</time>
      </trkpt>
      <trkpt lat="43.64255" lon="5.39995">
        <ele>371</ele>
        <time>2019-11-30T14:57:59.000Z</time>
      </trkpt>
      <trkpt lat="43.64258" lon="5.39998">
        <ele>371</ele>
        <time>2019-11-30T14:58:00.000Z</time>
      </trkpt>
      <trkpt lat="43.6426" lon="5.40001">
        <ele>371.20001220703</ele>
        <time>2019-11-30T14:58:01.000Z</time>
      </trkpt>
      <trkpt lat="43.64262" lon="5.40005">
        <ele>371.20001220703</ele>
        <time>2019-11-30T14:58:02.000Z</time>
      </trkpt>
      <trkpt lat="43.64264" lon="5.40008">
        <ele>371.20001220703</ele>
        <time>2019-11-30T14:58:03.000Z</time>
      </trkpt>
      <trkpt lat="43.64266" lon="5.40011">
        <ele>371.20001220703</ele>
        <time>2019-11-30T14:58:04.000Z</time>
      </trkpt>
      <trkpt lat="43.64268" lon="5.40014">
        <ele>371.39999389648</ele>
        <time>2019-11-30T14:58:05.000Z</time>
      </trkpt>
      <trkpt lat="43.64269" lon="5.40016">
        <ele>371.39999389648</ele>
        <time>2019-11-30T14:58:06.000Z</time>
      </trkpt>
      <trkpt lat="43.64271" lon="5.40019">
        <ele>371.39999389648</ele>
        <time>2019-11-30T14:58:07.000Z</time>
      </trkpt>
      <trkpt lat="43.64272" lon="5.40021">
        <ele>371.20001220703</ele>
        <time>2019-11-30T14:58:08.000Z</time>
      </trkpt>
      <trkpt lat="43.64273" lon="5.40025">
        <ele>371.20001220703</ele>
        <time>2019-11-30T14:58:09.000Z</time>
      </trkpt>
      <trkpt lat="43.64274" lon="5.40028">
        <ele>371</ele>
        <time>2019-11-30T14:58:10.000Z</time>
      </trkpt>
      <trkpt lat="43.64275" lon="5.40032">
        <ele>371</ele>
        <time>2019-11-30T14:58:11.000Z</time>
      </trkpt>
      <trkpt lat="43.64276" lon="5.40035">
        <ele>370.79998779297</ele>
        <time>2019-11-30T14:58:12.000Z</time>
      </trkpt>
      <trkpt lat="43.64277" lon="5.40038">
        <ele>370.79998779297</ele>
        <time>2019-11-30T14:58:13.000Z</time>
      </trkpt>
      <trkpt lat="43.64279" lon="5.40042">
        <ele>370.60000610352</ele>
        <time>2019-11-30T14:58:14.000Z</time>
      </trkpt>
      <trkpt lat="43.6428" lon="5.40045">
        <ele>370.39999389648</ele>
        <time>2019-11-30T14:58:15.000Z</time>
      </trkpt>
      <trkpt lat="43.6428" lon="5.40049">
        <ele>370.39999389648</ele>
        <time>2019-11-30T14:58:16.000Z</time>
      </trkpt>
      <trkpt lat="43.64281" lon="5.40052">
        <ele>370.20001220703</ele>
        <time>2019-11-30T14:58:17.000Z</time>
      </trkpt>
      <trkpt lat="43.64282" lon="5.40056">
        <ele>370.20001220703</ele>
        <time>2019-11-30T14:58:18.000Z</time>
      </trkpt>
      <trkpt lat="43.64284" lon="5.4006">
        <ele>370</ele>
        <time>2019-11-30T14:58:19.000Z</time>
      </trkpt>
      <trkpt lat="43.64285" lon="5.40064">
        <ele>370</ele>
        <time>2019-11-30T14:58:20.000Z</time>
      </trkpt>
      <trkpt lat="43.64286" lon="5.40068">
        <ele>369.79998779297</ele>
        <time>2019-11-30T14:58:21.000Z</time>
      </trkpt>
      <trkpt lat="43.64287" lon="5.40072">
        <ele>369.39999389648</ele>
        <time>2019-11-30T14:58:22.000Z</time>
      </trkpt>
      <trkpt lat="43.64288" lon="5.40076">
        <ele>369.20001220703</ele>
        <time>2019-11-30T14:58:23.000Z</time>
      </trkpt>
      <trkpt lat="43.64289" lon="5.40081">
        <ele>369</ele>
        <time>2019-11-30T14:58:24.000Z</time>
      </trkpt>
      <trkpt lat="43.6429" lon="5.40085">
        <ele>368.79998779297</ele>
        <time>2019-11-30T14:58:25.000Z</time>
      </trkpt>
      <trkpt lat="43.64291" lon="5.40089">
        <ele>368.60000610352</ele>
        <time>2019-11-30T14:58:26.000Z</time>
      </trkpt>
      <trkpt lat="43.64292" lon="5.40094">
        <ele>368.20001220703</ele>
        <time>2019-11-30T14:58:27.000Z</time>
      </trkpt>
      <trkpt lat="43.64293" lon="5.40098">
        <ele>368</ele>
        <time>2019-11-30T14:58:28.000Z</time>
      </trkpt>
      <trkpt lat="43.64295" lon="5.40102">
        <ele>368</ele>
        <time>2019-11-30T14:58:29.000Z</time>
      </trkpt>
      <trkpt lat="43.64297" lon="5.40106">
        <ele>367.79998779297</ele>
        <time>2019-11-30T14:58:30.000Z</time>
      </trkpt>
      <trkpt lat="43.64298" lon="5.4011">
        <ele>367.60000610352</ele>
        <time>2019-11-30T14:58:31.000Z</time>
      </trkpt>
      <trkpt lat="43.643" lon="5.40113">
        <ele>367.60000610352</ele>
        <time>2019-11-30T14:58:32.000Z</time>
      </trkpt>
      <trkpt lat="43.64301" lon="5.40117">
        <ele>367.39999389648</ele>
        <time>2019-11-30T14:58:33.000Z</time>
      </trkpt>
      <trkpt lat="43.64302" lon="5.40121">
        <ele>367.20001220703</ele>
        <time>2019-11-30T14:58:34.000Z</time>
      </trkpt>
      <trkpt lat="43.64304" lon="5.40126">
        <ele>367</ele>
        <time>2019-11-30T14:58:35.000Z</time>
      </trkpt>
      <trkpt lat="43.64305" lon="5.4013">
        <ele>366.79998779297</ele>
        <time>2019-11-30T14:58:36.000Z</time>
      </trkpt>
      <trkpt lat="43.64306" lon="5.40135">
        <ele>366.20001220703</ele>
        <time>2019-11-30T14:58:37.000Z</time>
      </trkpt>
      <trkpt lat="43.64306" lon="5.4014">
        <ele>365.39999389648</ele>
        <time>2019-11-30T14:58:38.000Z</time>
      </trkpt>
      <trkpt lat="43.64307" lon="5.40145">
        <ele>364.60000610352</ele>
        <time>2019-11-30T14:58:39.000Z</time>
      </trkpt>
      <trkpt lat="43.64308" lon="5.4015">
        <ele>363.79998779297</ele>
        <time>2019-11-30T14:58:40.000Z</time>
      </trkpt>
      <trkpt lat="43.64309" lon="5.40155">
        <ele>363.20001220703</ele>
        <time>2019-11-30T14:58:41.000Z</time>
      </trkpt>
      <trkpt lat="43.6431" lon="5.40159">
        <ele>362.39999389648</ele>
        <time>2019-11-30T14:58:42.000Z</time>
      </trkpt>
      <trkpt lat="43.64312" lon="5.40163">
        <ele>362</ele>
        <time>2019-11-30T14:58:43.000Z</time>
      </trkpt>
      <trkpt lat="43.64313" lon="5.40167">
        <ele>361.39999389648</ele>
        <time>2019-11-30T14:58:44.000Z</time>
      </trkpt>
      <trkpt lat="43.64315" lon="5.4017">
        <ele>361.20001220703</ele>
        <time>2019-11-30T14:58:45.000Z</time>
      </trkpt>
      <trkpt lat="43.64317" lon="5.40171">
        <ele>361.39999389648</ele>
        <time>2019-11-30T14:58:46.000Z</time>
      </trkpt>
      <trkpt lat="43.64319" lon="5.4017">
        <ele>361.79998779297</ele>
        <time>2019-11-30T14:58:47.000Z</time>
      </trkpt>
      <trkpt lat="43.64319" lon="5.40168">
        <ele>362.20001220703</ele>
        <time>2019-11-30T14:58:48.000Z</time>
      </trkpt>
      <trkpt lat="43.6432" lon="5.40165">
        <ele>363</ele>
        <time>2019-11-30T14:58:49.000Z</time>
      </trkpt>
      <trkpt lat="43.64322" lon="5.40163">
        <ele>363.60000610352</ele>
        <time>2019-11-30T14:58:50.000Z</time>
      </trkpt>
      <trkpt lat="43.64324" lon="5.40161">
        <ele>364.39999389648</ele>
        <time>2019-11-30T14:58:51.000Z</time>
      </trkpt>
      <trkpt lat="43.64326" lon="5.40157">
        <ele>365.20001220703</ele>
        <time>2019-11-30T14:58:52.000Z</time>
      </trkpt>
      <trkpt lat="43.64328" lon="5.40156">
        <ele>365.79998779297</ele>
        <time>2019-11-30T14:58:53.000Z</time>
      </trkpt>
      <trkpt lat="43.64329" lon="5.40154">
        <ele>366.39999389648</ele>
        <time>2019-11-30T14:58:54.000Z</time>
      </trkpt>
      <trkpt lat="43.64332" lon="5.40151">
        <ele>367.39999389648</ele>
        <time>2019-11-30T14:58:55.000Z</time>
      </trkpt>
      <trkpt lat="43.64335" lon="5.40148">
        <ele>368.39999389648</ele>
        <time>2019-11-30T14:58:56.000Z</time>
      </trkpt>
      <trkpt lat="43.64338" lon="5.40145">
        <ele>369.39999389648</ele>
        <time>2019-11-30T14:58:57.000Z</time>
      </trkpt>
      <trkpt lat="43.64341" lon="5.40142">
        <ele>370.39999389648</ele>
        <time>2019-11-30T14:58:58.000Z</time>
      </trkpt>
      <trkpt lat="43.64344" lon="5.40139">
        <ele>371.20001220703</ele>
        <time>2019-11-30T14:58:59.000Z</time>
      </trkpt>
      <trkpt lat="43.64347" lon="5.40137">
        <ele>372.20001220703</ele>
        <time>2019-11-30T14:59:00.000Z</time>
      </trkpt>
      <trkpt lat="43.6435" lon="5.40134">
        <ele>373.20001220703</ele>
        <time>2019-11-30T14:59:01.000Z</time>
      </trkpt>
      <trkpt lat="43.64354" lon="5.40132">
        <ele>373.79998779297</ele>
        <time>2019-11-30T14:59:02.000Z</time>
      </trkpt>
      <trkpt lat="43.64357" lon="5.40129">
        <ele>373.60000610352</ele>
        <time>2019-11-30T14:59:03.000Z</time>
      </trkpt>
      <trkpt lat="43.64361" lon="5.40126">
        <ele>373.20001220703</ele>
        <time>2019-11-30T14:59:04.000Z</time>
      </trkpt>
      <trkpt lat="43.64365" lon="5.40124">
        <ele>373</ele>
        <time>2019-11-30T14:59:05.000Z</time>
      </trkpt>
      <trkpt lat="43.64369" lon="5.40121">
        <ele>372.79998779297</ele>
        <time>2019-11-30T14:59:06.000Z</time>
      </trkpt>
      <trkpt lat="43.64372" lon="5.40117">
        <ele>372.39999389648</ele>
        <time>2019-11-30T14:59:07.000Z</time>
      </trkpt>
      <trkpt lat="43.64376" lon="5.40114">
        <ele>372.20001220703</ele>
        <time>2019-11-30T14:59:08.000Z</time>
      </trkpt>
      <trkpt lat="43.64379" lon="5.4011">
        <ele>372</ele>
        <time>2019-11-30T14:59:09.000Z</time>
      </trkpt>
      <trkpt lat="43.64383" lon="5.40107">
        <ele>371.79998779297</ele>
        <time>2019-11-30T14:59:10.000Z</time>
      </trkpt>
      <trkpt lat="43.64386" lon="5.40104">
        <ele>371.60000610352</ele>
        <time>2019-11-30T14:59:11.000Z</time>
      </trkpt>
      <trkpt lat="43.64389" lon="5.40101">
        <ele>371.39999389648</ele>
        <time>2019-11-30T14:59:12.000Z</time>
      </trkpt>
      <trkpt lat="43.6439" lon="5.40101">
        <ele>371.39999389648</ele>
        <time>2019-11-30T14:59:13.000Z</time>
      </trkpt>
      <trkpt lat="43.6439" lon="5.40101">
        <ele>371.39999389648</ele>
        <time>2019-11-30T14:59:14.000Z</time>
      </trkpt>
      <trkpt lat="43.64389" lon="5.40101">
        <ele>371.39999389648</ele>
        <time>2019-11-30T14:59:15.000Z</time>
      </trkpt>
      <trkpt lat="43.64389" lon="5.40102">
        <ele>371.39999389648</ele>
        <time>2019-11-30T14:59:16.000Z</time>
      </trkpt>
      <trkpt lat="43.64389" lon="5.40102">
        <ele>371.39999389648</ele>
        <time>2019-11-30T14:59:17.000Z</time>
      </trkpt>
      <trkpt lat="43.64389" lon="5.40102">
        <ele>371.39999389648</ele>
        <time>2019-11-30T14:59:18.000Z</time>
      </trkpt>
      <trkpt lat="43.64389" lon="5.40102">
        <ele>371.39999389648</ele>
        <time>2019-11-30T14:59:19.000Z</time>
      </trkpt>
      <trkpt lat="43.64389" lon="5.40102">
        <ele>371.39999389648</ele>
        <time>2019-11-30T14:59:20.000Z</time>
      </trkpt>
      <trkpt lat="43.64389" lon="5.40102">
        <ele>371.39999389648</ele>
        <time>2019-11-30T14:59:21.000Z</time>
      </trkpt>
      <trkpt lat="43.64389" lon="5.40102">
        <ele>371.39999389648</ele>
        <time>2019-11-30T14:59:22.000Z</time>
      </trkpt>
      <trkpt lat="43.64389" lon="5.40102">
        <ele>371.39999389648</ele>
        <time>2019-11-30T14:59:23.000Z</time>
      </trkpt>
      <trkpt lat="43.64389" lon="5.40102">
        <ele>371.39999389648</ele>
        <time>2019-11-30T14:59:24.000Z</time>
      </trkpt>
      <trkpt lat="43.64389" lon="5.40102">
        <ele>371.39999389648</ele>
        <time>2019-11-30T14:59:25.000Z</time>
      </trkpt>
      <trkpt lat="43.64389" lon="5.40102">
        <ele>371.39999389648</ele>
        <time>2019-11-30T14:59:26.000Z</time>
      </trkpt>
      <trkpt lat="43.64389" lon="5.40102">
        <ele>371.39999389648</ele>
        <time>2019-11-30T14:59:27.000Z</time>
      </trkpt>
      <trkpt lat="43.64389" lon="5.40102">
        <ele>371.39999389648</ele>
        <time>2019-11-30T14:59:28.000Z</time>
      </trkpt>
      <trkpt lat="43.64389" lon="5.40102">
        <ele>371.39999389648</ele>
        <time>2019-11-30T14:59:29.000Z</time>
      </trkpt>
      <trkpt lat="43.64389" lon="5.40102">
        <ele>371.39999389648</ele>
        <time>2019-11-30T14:59:30.000Z</time>
      </trkpt>
      <trkpt lat="43.64389" lon="5.40102">
        <ele>371.39999389648</ele>
        <time>2019-11-30T14:59:31.000Z</time>
      </trkpt>
      <trkpt lat="43.64389" lon="5.40102">
        <ele>371.39999389648</ele>
        <time>2019-11-30T14:59:32.000Z</time>
      </trkpt>
      <trkpt lat="43.64389" lon="5.40102">
        <ele>371.39999389648</ele>
        <time>2019-11-30T14:59:33.000Z</time>
      </trkpt>
      <trkpt lat="43.64389" lon="5.40102">
        <ele>371.39999389648</ele>
        <time>2019-11-30T14:59:34.000Z</time>
      </trkpt>
      <trkpt lat="43.64389" lon="5.40102">
        <ele>371.39999389648</ele>
        <time>2019-11-30T14:59:35.000Z</time>
      </trkpt>
      <trkpt lat="43.64389" lon="5.40102">
        <ele>371.39999389648</ele>
        <time>2019-11-30T14:59:36.000Z</time>
      </trkpt>
      <trkpt lat="43.64389" lon="5.40102">
        <ele>371.39999389648</ele>
        <time>2019-11-30T14:59:37.000Z</time>
      </trkpt>
      <trkpt lat="43.64389" lon="5.40102">
        <ele>371.39999389648</ele>
        <time>2019-11-30T14:59:38.000Z</time>
      </trkpt>
      <trkpt lat="43.64389" lon="5.40102">
        <ele>371.39999389648</ele>
        <time>2019-11-30T14:59:39.000Z</time>
      </trkpt>
      <trkpt lat="43.64389" lon="5.40102">
        <ele>371.39999389648</ele>
        <time>2019-11-30T14:59:40.000Z</time>
      </trkpt>
      <trkpt lat="43.64389" lon="5.40102">
        <ele>371.39999389648</ele>
        <time>2019-11-30T14:59:41.000Z</time>
      </trkpt>
      <trkpt lat="43.64389" lon="5.40102">
        <ele>371.39999389648</ele>
        <time>2019-11-30T14:59:42.000Z</time>
      </trkpt>
      <trkpt lat="43.64389" lon="5.40102">
        <ele>371.39999389648</ele>
        <time>2019-11-30T14:59:43.000Z</time>
      </trkpt>
      <trkpt lat="43.64389" lon="5.40102">
        <ele>371.39999389648</ele>
        <time>2019-11-30T14:59:44.000Z</time>
      </trkpt>
      <trkpt lat="43.64389" lon="5.40102">
        <ele>371.39999389648</ele>
        <time>2019-11-30T14:59:45.000Z</time>
      </trkpt>
      <trkpt lat="43.64389" lon="5.40102">
        <ele>371.39999389648</ele>
        <time>2019-11-30T14:59:46.000Z</time>
      </trkpt>
      <trkpt lat="43.64389" lon="5.40102">
        <ele>371.39999389648</ele>
        <time>2019-11-30T14:59:47.000Z</time>
      </trkpt>
      <trkpt lat="43.64389" lon="5.40102">
        <ele>371.39999389648</ele>
        <time>2019-11-30T14:59:48.000Z</time>
      </trkpt>
      <trkpt lat="43.64389" lon="5.40102">
        <ele>371.39999389648</ele>
        <time>2019-11-30T14:59:49.000Z</time>
      </trkpt>
      <trkpt lat="43.64389" lon="5.40102">
        <ele>371.39999389648</ele>
        <time>2019-11-30T14:59:50.000Z</time>
      </trkpt>
      <trkpt lat="43.64389" lon="5.40102">
        <ele>371.39999389648</ele>
        <time>2019-11-30T14:59:51.000Z</time>
      </trkpt>
      <trkpt lat="43.64389" lon="5.40102">
        <ele>371.39999389648</ele>
        <time>2019-11-30T14:59:52.000Z</time>
      </trkpt>
      <trkpt lat="43.64389" lon="5.40102">
        <ele>371.39999389648</ele>
        <time>2019-11-30T14:59:53.000Z</time>
      </trkpt>
      <trkpt lat="43.64389" lon="5.40102">
        <ele>371.39999389648</ele>
        <time>2019-11-30T14:59:54.000Z</time>
      </trkpt>
      <trkpt lat="43.64389" lon="5.40102">
        <ele>371.39999389648</ele>
        <time>2019-11-30T14:59:55.000Z</time>
      </trkpt>
      <trkpt lat="43.64389" lon="5.40102">
        <ele>371.39999389648</ele>
        <time>2019-11-30T14:59:56.000Z</time>
      </trkpt>
      <trkpt lat="43.64389" lon="5.40102">
        <ele>371.39999389648</ele>
        <time>2019-11-30T14:59:57.000Z</time>
      </trkpt>
      <trkpt lat="43.64389" lon="5.40102">
        <ele>371.39999389648</ele>
        <time>2019-11-30T14:59:58.000Z</time>
      </trkpt>
      <trkpt lat="43.64389" lon="5.40102">
        <ele>371.39999389648</ele>
        <time>2019-11-30T14:59:59.000Z</time>
      </trkpt>
      <trkpt lat="43.64389" lon="5.40102">
        <ele>371.39999389648</ele>
        <time>2019-11-30T15:00:00.000Z</time>
      </trkpt>
      <trkpt lat="43.64389" lon="5.40102">
        <ele>371.39999389648</ele>
        <time>2019-11-30T15:00:01.000Z</time>
      </trkpt>
      <trkpt lat="43.64389" lon="5.40102">
        <ele>371.39999389648</ele>
        <time>2019-11-30T15:00:02.000Z</time>
      </trkpt>
      <trkpt lat="43.64389" lon="5.40102">
        <ele>371.39999389648</ele>
        <time>2019-11-30T15:00:03.000Z</time>
      </trkpt>
      <trkpt lat="43.64389" lon="5.40102">
        <ele>371.39999389648</ele>
        <time>2019-11-30T15:00:04.000Z</time>
      </trkpt>
      <trkpt lat="43.64389" lon="5.40102">
        <ele>371.39999389648</ele>
        <time>2019-11-30T15:00:05.000Z</time>
      </trkpt>
      <trkpt lat="43.64389" lon="5.40102">
        <ele>371.39999389648</ele>
        <time>2019-11-30T15:00:06.000Z</time>
      </trkpt>
      <trkpt lat="43.64389" lon="5.40102">
        <ele>371.39999389648</ele>
        <time>2019-11-30T15:00:07.000Z</time>
      </trkpt>
      <trkpt lat="43.64389" lon="5.40102">
        <ele>371.39999389648</ele>
        <time>2019-11-30T15:00:08.000Z</time>
      </trkpt>
      <trkpt lat="43.64389" lon="5.40102">
        <ele>371.39999389648</ele>
        <time>2019-11-30T15:00:09.000Z</time>
      </trkpt>
      <trkpt lat="43.64389" lon="5.40102">
        <ele>371.39999389648</ele>
        <time>2019-11-30T15:00:10.000Z</time>
      </trkpt>
      <trkpt lat="43.64389" lon="5.40102">
        <ele>371.39999389648</ele>
        <time>2019-11-30T15:00:11.000Z</time>
      </trkpt>
      <trkpt lat="43.64389" lon="5.40102">
        <ele>371.39999389648</ele>
        <time>2019-11-30T15:00:12.000Z</time>
      </trkpt>
      <trkpt lat="43.64389" lon="5.40102">
        <ele>371.39999389648</ele>
        <time>2019-11-30T15:00:13.000Z</time>
      </trkpt>
      <trkpt lat="43.64389" lon="5.40102">
        <ele>371.39999389648</ele>
        <time>2019-11-30T15:00:14.000Z</time>
      </trkpt>
      <trkpt lat="43.64389" lon="5.40102">
        <ele>371.39999389648</ele>
        <time>2019-11-30T15:00:15.000Z</time>
      </trkpt>
      <trkpt lat="43.64389" lon="5.40102">
        <ele>371.39999389648</ele>
        <time>2019-11-30T15:00:16.000Z</time>
      </trkpt>
      <trkpt lat="43.64389" lon="5.40102">
        <ele>371.39999389648</ele>
        <time>2019-11-30T15:00:17.000Z</time>
      </trkpt>
      <trkpt lat="43.64389" lon="5.40102">
        <ele>371.39999389648</ele>
        <time>2019-11-30T15:00:18.000Z</time>
      </trkpt>
      <trkpt lat="43.64389" lon="5.40102">
        <ele>371.39999389648</ele>
        <time>2019-11-30T15:00:19.000Z</time>
      </trkpt>
      <trkpt lat="43.64389" lon="5.40102">
        <ele>371.39999389648</ele>
        <time>2019-11-30T15:00:20.000Z</time>
      </trkpt>
      <trkpt lat="43.64389" lon="5.40102">
        <ele>371.39999389648</ele>
        <time>2019-11-30T15:00:21.000Z</time>
      </trkpt>
      <trkpt lat="43.64389" lon="5.40102">
        <ele>371.39999389648</ele>
        <time>2019-11-30T15:00:22.000Z</time>
      </trkpt>
      <trkpt lat="43.64389" lon="5.40102">
        <ele>371.39999389648</ele>
        <time>2019-11-30T15:00:23.000Z</time>
      </trkpt>
      <trkpt lat="43.64389" lon="5.40102">
        <ele>371.39999389648</ele>
        <time>2019-11-30T15:00:24.000Z</time>
      </trkpt>
      <trkpt lat="43.64389" lon="5.40102">
        <ele>371.39999389648</ele>
        <time>2019-11-30T15:00:25.000Z</time>
      </trkpt>
      <trkpt lat="43.64389" lon="5.40102">
        <ele>371.39999389648</ele>
        <time>2019-11-30T15:00:26.000Z</time>
      </trkpt>
      <trkpt lat="43.64389" lon="5.40102">
        <ele>371.39999389648</ele>
        <time>2019-11-30T15:00:27.000Z</time>
      </trkpt>
      <trkpt lat="43.64389" lon="5.40102">
        <ele>371.39999389648</ele>
        <time>2019-11-30T15:00:28.000Z</time>
      </trkpt>
      <trkpt lat="43.64389" lon="5.40102">
        <ele>371.39999389648</ele>
        <time>2019-11-30T15:00:29.000Z</time>
      </trkpt>
      <trkpt lat="43.64389" lon="5.40102">
        <ele>371.39999389648</ele>
        <time>2019-11-30T15:00:30.000Z</time>
      </trkpt>
      <trkpt lat="43.64389" lon="5.40102">
        <ele>371.39999389648</ele>
        <time>2019-11-30T15:00:31.000Z</time>
      </trkpt>
      <trkpt lat="43.64389" lon="5.40102">
        <ele>371.39999389648</ele>
        <time>2019-11-30T15:00:32.000Z</time>
      </trkpt>
      <trkpt lat="43.64389" lon="5.40102">
        <ele>371.39999389648</ele>
        <time>2019-11-30T15:00:33.000Z</time>
      </trkpt>
      <trkpt lat="43.64389" lon="5.40102">
        <ele>371.39999389648</ele>
        <time>2019-11-30T15:00:34.000Z</time>
      </trkpt>
      <trkpt lat="43.64389" lon="5.40102">
        <ele>371.39999389648</ele>
        <time>2019-11-30T15:00:35.000Z</time>
      </trkpt>
      <trkpt lat="43.64389" lon="5.40102">
        <ele>371.39999389648</ele>
        <time>2019-11-30T15:00:36.000Z</time>
      </trkpt>
      <trkpt lat="43.64389" lon="5.40102">
        <ele>371.39999389648</ele>
        <time>2019-11-30T15:00:37.000Z</time>
      </trkpt>
      <trkpt lat="43.64389" lon="5.40102">
        <ele>371.39999389648</ele>
        <time>2019-11-30T15:00:38.000Z</time>
      </trkpt>
      <trkpt lat="43.64389" lon="5.40102">
        <ele>371.39999389648</ele>
        <time>2019-11-30T15:00:39.000Z</time>
      </trkpt>
      <trkpt lat="43.64389" lon="5.40102">
        <ele>371.39999389648</ele>
        <time>2019-11-30T15:00:40.000Z</time>
      </trkpt>
      <trkpt lat="43.64389" lon="5.40102">
        <ele>371.39999389648</ele>
        <time>2019-11-30T15:00:41.000Z</time>
      </trkpt>
      <trkpt lat="43.64389" lon="5.40102">
        <ele>371.39999389648</ele>
        <time>2019-11-30T15:00:42.000Z</time>
      </trkpt>
      <trkpt lat="43.64389" lon="5.40102">
        <ele>371.39999389648</ele>
        <time>2019-11-30T15:00:43.000Z</time>
      </trkpt>
      <trkpt lat="43.64389" lon="5.40102">
        <ele>371.39999389648</ele>
        <time>2019-11-30T15:00:44.000Z</time>
      </trkpt>
      <trkpt lat="43.64389" lon="5.40102">
        <ele>371.39999389648</ele>
        <time>2019-11-30T15:00:45.000Z</time>
      </trkpt>
      <trkpt lat="43.64389" lon="5.40102">
        <ele>371.39999389648</ele>
        <time>2019-11-30T15:00:46.000Z</time>
      </trkpt>
      <trkpt lat="43.64389" lon="5.40102">
        <ele>371.39999389648</ele>
        <time>2019-11-30T15:00:47.000Z</time>
      </trkpt>
      <trkpt lat="43.64389" lon="5.40102">
        <ele>371.39999389648</ele>
        <time>2019-11-30T15:00:48.000Z</time>
      </trkpt>
      <trkpt lat="43.64389" lon="5.40102">
        <ele>371.39999389648</ele>
        <time>2019-11-30T15:00:49.000Z</time>
      </trkpt>
      <trkpt lat="43.64389" lon="5.40102">
        <ele>371.39999389648</ele>
        <time>2019-11-30T15:00:50.000Z</time>
      </trkpt>
      <trkpt lat="43.64389" lon="5.40102">
        <ele>371.39999389648</ele>
        <time>2019-11-30T15:00:51.000Z</time>
      </trkpt>
      <trkpt lat="43.64389" lon="5.40102">
        <ele>371.39999389648</ele>
        <time>2019-11-30T15:00:52.000Z</time>
      </trkpt>
      <trkpt lat="43.64389" lon="5.40102">
        <ele>371.39999389648</ele>
        <time>2019-11-30T15:00:53.000Z</time>
      </trkpt>
      <trkpt lat="43.64389" lon="5.40102">
        <ele>371.39999389648</ele>
        <time>2019-11-30T15:00:54.000Z</time>
      </trkpt>
      <trkpt lat="43.64389" lon="5.40102">
        <ele>371.39999389648</ele>
        <time>2019-11-30T15:00:55.000Z</time>
      </trkpt>
      <trkpt lat="43.64389" lon="5.40102">
        <ele>371.39999389648</ele>
        <time>2019-11-30T15:00:56.000Z</time>
      </trkpt>
      <trkpt lat="43.64389" lon="5.40102">
        <ele>371.39999389648</ele>
        <time>2019-11-30T15:00:57.000Z</time>
      </trkpt>
      <trkpt lat="43.64389" lon="5.40102">
        <ele>371.39999389648</ele>
        <time>2019-11-30T15:00:58.000Z</time>
      </trkpt>
      <trkpt lat="43.64389" lon="5.40102">
        <ele>371.39999389648</ele>
        <time>2019-11-30T15:00:59.000Z</time>
      </trkpt>
      <trkpt lat="43.64389" lon="5.40102">
        <ele>371.39999389648</ele>
        <time>2019-11-30T15:01:00.000Z</time>
      </trkpt>
      <trkpt lat="43.64389" lon="5.40102">
        <ele>371.39999389648</ele>
        <time>2019-11-30T15:01:01.000Z</time>
      </trkpt>
      <trkpt lat="43.64389" lon="5.40102">
        <ele>371.39999389648</ele>
        <time>2019-11-30T15:01:02.000Z</time>
      </trkpt>
      <trkpt lat="43.64389" lon="5.40102">
        <ele>371.39999389648</ele>
        <time>2019-11-30T15:01:03.000Z</time>
      </trkpt>
      <trkpt lat="43.64389" lon="5.40102">
        <ele>371.39999389648</ele>
        <time>2019-11-30T15:01:04.000Z</time>
      </trkpt>
      <trkpt lat="43.64389" lon="5.40102">
        <ele>371.39999389648</ele>
        <time>2019-11-30T15:01:05.000Z</time>
      </trkpt>
      <trkpt lat="43.64389" lon="5.40102">
        <ele>371.39999389648</ele>
        <time>2019-11-30T15:01:06.000Z</time>
      </trkpt>
      <trkpt lat="43.64389" lon="5.40102">
        <ele>371.39999389648</ele>
        <time>2019-11-30T15:01:07.000Z</time>
      </trkpt>
      <trkpt lat="43.64389" lon="5.40102">
        <ele>371.39999389648</ele>
        <time>2019-11-30T15:01:08.000Z</time>
      </trkpt>
      <trkpt lat="43.64389" lon="5.40102">
        <ele>371.39999389648</ele>
        <time>2019-11-30T15:01:09.000Z</time>
      </trkpt>
      <trkpt lat="43.64389" lon="5.40102">
        <ele>371.39999389648</ele>
        <time>2019-11-30T15:01:10.000Z</time>
      </trkpt>
      <trkpt lat="43.64389" lon="5.40102">
        <ele>371.39999389648</ele>
        <time>2019-11-30T15:01:11.000Z</time>
      </trkpt>
      <trkpt lat="43.64389" lon="5.40102">
        <ele>371.39999389648</ele>
        <time>2019-11-30T15:01:12.000Z</time>
      </trkpt>
      <trkpt lat="43.64389" lon="5.40102">
        <ele>371.39999389648</ele>
        <time>2019-11-30T15:01:13.000Z</time>
      </trkpt>
      <trkpt lat="43.64389" lon="5.40102">
        <ele>371.39999389648</ele>
        <time>2019-11-30T15:01:14.000Z</time>
      </trkpt>
      <trkpt lat="43.64389" lon="5.40102">
        <ele>371.39999389648</ele>
        <time>2019-11-30T15:01:15.000Z</time>
      </trkpt>
      <trkpt lat="43.64389" lon="5.40102">
        <ele>371.39999389648</ele>
        <time>2019-11-30T15:01:16.000Z</time>
      </trkpt>
      <trkpt lat="43.64389" lon="5.40102">
        <ele>371.39999389648</ele>
        <time>2019-11-30T15:01:17.000Z</time>
      </trkpt>
      <trkpt lat="43.64389" lon="5.40102">
        <ele>371.39999389648</ele>
        <time>2019-11-30T15:01:18.000Z</time>
      </trkpt>
      <trkpt lat="43.64389" lon="5.40102">
        <ele>371.39999389648</ele>
        <time>2019-11-30T15:01:19.000Z</time>
      </trkpt>
      <trkpt lat="43.64389" lon="5.40102">
        <ele>371.39999389648</ele>
        <time>2019-11-30T15:01:20.000Z</time>
      </trkpt>
      <trkpt lat="43.64389" lon="5.40102">
        <ele>371.39999389648</ele>
        <time>2019-11-30T15:01:21.000Z</time>
      </trkpt>
      <trkpt lat="43.64389" lon="5.40102">
        <ele>371.39999389648</ele>
        <time>2019-11-30T15:01:22.000Z</time>
      </trkpt>
      <trkpt lat="43.64389" lon="5.40102">
        <ele>371.39999389648</ele>
        <time>2019-11-30T15:01:23.000Z</time>
      </trkpt>
      <trkpt lat="43.64389" lon="5.40102">
        <ele>371.39999389648</ele>
        <time>2019-11-30T15:01:24.000Z</time>
      </trkpt>
      <trkpt lat="43.64389" lon="5.40102">
        <ele>371.39999389648</ele>
        <time>2019-11-30T15:01:25.000Z</time>
      </trkpt>
      <trkpt lat="43.64389" lon="5.40102">
        <ele>371.39999389648</ele>
        <time>2019-11-30T15:01:26.000Z</time>
      </trkpt>
      <trkpt lat="43.64389" lon="5.40102">
        <ele>371.39999389648</ele>
        <time>2019-11-30T15:01:27.000Z</time>
      </trkpt>
      <trkpt lat="43.64389" lon="5.40102">
        <ele>371.39999389648</ele>
        <time>2019-11-30T15:01:28.000Z</time>
      </trkpt>
      <trkpt lat="43.64389" lon="5.40102">
        <ele>371.39999389648</ele>
        <time>2019-11-30T15:01:29.000Z</time>
      </trkpt>
      <trkpt lat="43.64389" lon="5.40102">
        <ele>371.39999389648</ele>
        <time>2019-11-30T15:01:30.000Z</time>
      </trkpt>
      <trkpt lat="43.64389" lon="5.40102">
        <ele>371.39999389648</ele>
        <time>2019-11-30T15:01:31.000Z</time>
      </trkpt>
      <trkpt lat="43.64389" lon="5.40102">
        <ele>371.39999389648</ele>
        <time>2019-11-30T15:01:32.000Z</time>
      </trkpt>
      <trkpt lat="43.64389" lon="5.40102">
        <ele>371.39999389648</ele>
        <time>2019-11-30T15:01:33.000Z</time>
      </trkpt>
      <trkpt lat="43.6439" lon="5.40102">
        <ele>371.20001220703</ele>
        <time>2019-11-30T15:01:34.000Z</time>
      </trkpt>
      <trkpt lat="43.6439" lon="5.40102">
        <ele>371.20001220703</ele>
        <time>2019-11-30T15:01:35.000Z</time>
      </trkpt>
      <trkpt lat="43.6439" lon="5.40102">
        <ele>371.20001220703</ele>
        <time>2019-11-30T15:01:36.000Z</time>
      </trkpt>
      <trkpt lat="43.6439" lon="5.40102">
        <ele>371.20001220703</ele>
        <time>2019-11-30T15:01:37.000Z</time>
      </trkpt>
      <trkpt lat="43.6439" lon="5.40102">
        <ele>371.20001220703</ele>
        <time>2019-11-30T15:01:38.000Z</time>
      </trkpt>
      <trkpt lat="43.64391" lon="5.40101">
        <ele>371.20001220703</ele>
        <time>2019-11-30T15:01:39.000Z</time>
      </trkpt>
      <trkpt lat="43.64391" lon="5.401">
        <ele>371.20001220703</ele>
        <time>2019-11-30T15:01:40.000Z</time>
      </trkpt>
      <trkpt lat="43.64392" lon="5.401">
        <ele>371.20001220703</ele>
        <time>2019-11-30T15:01:41.000Z</time>
      </trkpt>
      <trkpt lat="43.64393" lon="5.40099">
        <ele>371</ele>
        <time>2019-11-30T15:01:42.000Z</time>
      </trkpt>
      <trkpt lat="43.64395" lon="5.40097">
        <ele>371</ele>
        <time>2019-11-30T15:01:43.000Z</time>
      </trkpt>
      <trkpt lat="43.64398" lon="5.40095">
        <ele>370.79998779297</ele>
        <time>2019-11-30T15:01:44.000Z</time>
      </trkpt>
      <trkpt lat="43.644" lon="5.40094">
        <ele>370.79998779297</ele>
        <time>2019-11-30T15:01:45.000Z</time>
      </trkpt>
      <trkpt lat="43.64403" lon="5.40091">
        <ele>371</ele>
        <time>2019-11-30T15:01:46.000Z</time>
      </trkpt>
      <trkpt lat="43.64406" lon="5.40089">
        <ele>371</ele>
        <time>2019-11-30T15:01:47.000Z</time>
      </trkpt>
      <trkpt lat="43.64409" lon="5.40087">
        <ele>371.20001220703</ele>
        <time>2019-11-30T15:01:48.000Z</time>
      </trkpt>
      <trkpt lat="43.64413" lon="5.40085">
        <ele>371.39999389648</ele>
        <time>2019-11-30T15:01:49.000Z</time>
      </trkpt>
      <trkpt lat="43.64416" lon="5.40082">
        <ele>371.60000610352</ele>
        <time>2019-11-30T15:01:50.000Z</time>
      </trkpt>
      <trkpt lat="43.64419" lon="5.40078">
        <ele>371.79998779297</ele>
        <time>2019-11-30T15:01:51.000Z</time>
      </trkpt>
      <trkpt lat="43.64422" lon="5.40075">
        <ele>372.20001220703</ele>
        <time>2019-11-30T15:01:52.000Z</time>
      </trkpt>
      <trkpt lat="43.64425" lon="5.40072">
        <ele>372.39999389648</ele>
        <time>2019-11-30T15:01:53.000Z</time>
      </trkpt>
      <trkpt lat="43.64428" lon="5.40069">
        <ele>372.60000610352</ele>
        <time>2019-11-30T15:01:54.000Z</time>
      </trkpt>
      <trkpt lat="43.64432" lon="5.40066">
        <ele>372.79998779297</ele>
        <time>2019-11-30T15:01:55.000Z</time>
      </trkpt>
      <trkpt lat="43.64435" lon="5.40064">
        <ele>373</ele>
        <time>2019-11-30T15:01:56.000Z</time>
      </trkpt>
      <trkpt lat="43.64437" lon="5.40062">
        <ele>373</ele>
        <time>2019-11-30T15:01:57.000Z</time>
      </trkpt>
      <trkpt lat="43.6444" lon="5.4006">
        <ele>372.79998779297</ele>
        <time>2019-11-30T15:01:58.000Z</time>
      </trkpt>
      <trkpt lat="43.64443" lon="5.40057">
        <ele>372.39999389648</ele>
        <time>2019-11-30T15:01:59.000Z</time>
      </trkpt>
      <trkpt lat="43.64445" lon="5.40055">
        <ele>372.39999389648</ele>
        <time>2019-11-30T15:02:00.000Z</time>
      </trkpt>
      <trkpt lat="43.64446" lon="5.40053">
        <ele>372.60000610352</ele>
        <time>2019-11-30T15:02:01.000Z</time>
      </trkpt>
      <trkpt lat="43.64447" lon="5.40051">
        <ele>372.79998779297</ele>
        <time>2019-11-30T15:02:02.000Z</time>
      </trkpt>
      <trkpt lat="43.64447" lon="5.40049">
        <ele>373.20001220703</ele>
        <time>2019-11-30T15:02:03.000Z</time>
      </trkpt>
      <trkpt lat="43.64446" lon="5.40049">
        <ele>373.20001220703</ele>
        <time>2019-11-30T15:02:04.000Z</time>
      </trkpt>
      <trkpt lat="43.64446" lon="5.40049">
        <ele>373.39999389648</ele>
        <time>2019-11-30T15:02:05.000Z</time>
      </trkpt>
      <trkpt lat="43.64446" lon="5.40049">
        <ele>373.39999389648</ele>
        <time>2019-11-30T15:02:06.000Z</time>
      </trkpt>
      <trkpt lat="43.64446" lon="5.40049">
        <ele>373.39999389648</ele>
        <time>2019-11-30T15:02:07.000Z</time>
      </trkpt>
      <trkpt lat="43.64446" lon="5.40049">
        <ele>373.39999389648</ele>
        <time>2019-11-30T15:02:08.000Z</time>
      </trkpt>
      <trkpt lat="43.64446" lon="5.40049">
        <ele>373.39999389648</ele>
        <time>2019-11-30T15:02:09.000Z</time>
      </trkpt>
      <trkpt lat="43.64446" lon="5.40049">
        <ele>373.39999389648</ele>
        <time>2019-11-30T15:02:10.000Z</time>
      </trkpt>
      <trkpt lat="43.64446" lon="5.40048">
        <ele>373.39999389648</ele>
        <time>2019-11-30T15:02:11.000Z</time>
      </trkpt>
      <trkpt lat="43.64446" lon="5.40047">
        <ele>373.39999389648</ele>
        <time>2019-11-30T15:02:12.000Z</time>
      </trkpt>
      <trkpt lat="43.64446" lon="5.40047">
        <ele>373.39999389648</ele>
        <time>2019-11-30T15:02:13.000Z</time>
      </trkpt>
      <trkpt lat="43.64446" lon="5.40047">
        <ele>373.39999389648</ele>
        <time>2019-11-30T15:02:14.000Z</time>
      </trkpt>
      <trkpt lat="43.64446" lon="5.40047">
        <ele>373.39999389648</ele>
        <time>2019-11-30T15:02:15.000Z</time>
      </trkpt>
      <trkpt lat="43.64447" lon="5.40048">
        <ele>373.39999389648</ele>
        <time>2019-11-30T15:02:16.000Z</time>
      </trkpt>
      <trkpt lat="43.64447" lon="5.40048">
        <ele>373.39999389648</ele>
        <time>2019-11-30T15:02:17.000Z</time>
      </trkpt>
      <trkpt lat="43.64447" lon="5.40048">
        <ele>373.39999389648</ele>
        <time>2019-11-30T15:02:18.000Z</time>
      </trkpt>
      <trkpt lat="43.64447" lon="5.40048">
        <ele>373.39999389648</ele>
        <time>2019-11-30T15:02:19.000Z</time>
      </trkpt>
      <trkpt lat="43.64447" lon="5.40048">
        <ele>373.39999389648</ele>
        <time>2019-11-30T15:02:20.000Z</time>
      </trkpt>
      <trkpt lat="43.64447" lon="5.40048">
        <ele>373.39999389648</ele>
        <time>2019-11-30T15:02:21.000Z</time>
      </trkpt>
      <trkpt lat="43.64447" lon="5.40048">
        <ele>373.39999389648</ele>
        <time>2019-11-30T15:02:22.000Z</time>
      </trkpt>
      <trkpt lat="43.64447" lon="5.40048">
        <ele>373.39999389648</ele>
        <time>2019-11-30T15:02:23.000Z</time>
      </trkpt>
      <trkpt lat="43.64447" lon="5.40048">
        <ele>373.39999389648</ele>
        <time>2019-11-30T15:02:24.000Z</time>
      </trkpt>
      <trkpt lat="43.64447" lon="5.40048">
        <ele>373.39999389648</ele>
        <time>2019-11-30T15:02:25.000Z</time>
      </trkpt>
      <trkpt lat="43.64447" lon="5.40048">
        <ele>373.39999389648</ele>
        <time>2019-11-30T15:02:26.000Z</time>
      </trkpt>
      <trkpt lat="43.64447" lon="5.40048">
        <ele>373.39999389648</ele>
        <time>2019-11-30T15:02:27.000Z</time>
      </trkpt>
      <trkpt lat="43.64447" lon="5.40048">
        <ele>373.39999389648</ele>
        <time>2019-11-30T15:02:28.000Z</time>
      </trkpt>
      <trkpt lat="43.64447" lon="5.40048">
        <ele>373.39999389648</ele>
        <time>2019-11-30T15:02:29.000Z</time>
      </trkpt>
      <trkpt lat="43.64447" lon="5.40048">
        <ele>373.39999389648</ele>
        <time>2019-11-30T15:02:30.000Z</time>
      </trkpt>
      <trkpt lat="43.64447" lon="5.40048">
        <ele>373.39999389648</ele>
        <time>2019-11-30T15:02:31.000Z</time>
      </trkpt>
      <trkpt lat="43.64447" lon="5.40048">
        <ele>373.39999389648</ele>
        <time>2019-11-30T15:02:32.000Z</time>
      </trkpt>
      <trkpt lat="43.64447" lon="5.40048">
        <ele>373.39999389648</ele>
        <time>2019-11-30T15:02:33.000Z</time>
      </trkpt>
      <trkpt lat="43.64447" lon="5.40048">
        <ele>373.39999389648</ele>
        <time>2019-11-30T15:02:34.000Z</time>
      </trkpt>
      <trkpt lat="43.64447" lon="5.40048">
        <ele>373.39999389648</ele>
        <time>2019-11-30T15:02:35.000Z</time>
      </trkpt>
      <trkpt lat="43.64447" lon="5.40048">
        <ele>373.39999389648</ele>
        <time>2019-11-30T15:02:36.000Z</time>
      </trkpt>
      <trkpt lat="43.64447" lon="5.40048">
        <ele>373.39999389648</ele>
        <time>2019-11-30T15:02:37.000Z</time>
      </trkpt>
      <trkpt lat="43.64447" lon="5.40048">
        <ele>373.39999389648</ele>
        <time>2019-11-30T15:02:38.000Z</time>
      </trkpt>
      <trkpt lat="43.64447" lon="5.40048">
        <ele>373.39999389648</ele>
        <time>2019-11-30T15:02:39.000Z</time>
      </trkpt>
      <trkpt lat="43.64447" lon="5.40048">
        <ele>373.39999389648</ele>
        <time>2019-11-30T15:02:40.000Z</time>
      </trkpt>
      <trkpt lat="43.64447" lon="5.40048">
        <ele>373.39999389648</ele>
        <time>2019-11-30T15:02:41.000Z</time>
      </trkpt>
      <trkpt lat="43.64447" lon="5.40048">
        <ele>373.39999389648</ele>
        <time>2019-11-30T15:02:42.000Z</time>
      </trkpt>
      <trkpt lat="43.64447" lon="5.40048">
        <ele>373.39999389648</ele>
        <time>2019-11-30T15:02:43.000Z</time>
      </trkpt>
      <trkpt lat="43.64447" lon="5.40048">
        <ele>373.39999389648</ele>
        <time>2019-11-30T15:02:44.000Z</time>
      </trkpt>
      <trkpt lat="43.64447" lon="5.40048">
        <ele>373.39999389648</ele>
        <time>2019-11-30T15:02:45.000Z</time>
      </trkpt>
      <trkpt lat="43.64447" lon="5.40048">
        <ele>373.39999389648</ele>
        <time>2019-11-30T15:02:46.000Z</time>
      </trkpt>
      <trkpt lat="43.64447" lon="5.40048">
        <ele>373.39999389648</ele>
        <time>2019-11-30T15:02:47.000Z</time>
      </trkpt>
      <trkpt lat="43.64447" lon="5.40048">
        <ele>373.39999389648</ele>
        <time>2019-11-30T15:02:48.000Z</time>
      </trkpt>
      <trkpt lat="43.64447" lon="5.40048">
        <ele>373.39999389648</ele>
        <time>2019-11-30T15:02:49.000Z</time>
      </trkpt>
      <trkpt lat="43.64447" lon="5.40048">
        <ele>373.39999389648</ele>
        <time>2019-11-30T15:02:50.000Z</time>
      </trkpt>
      <trkpt lat="43.64447" lon="5.40048">
        <ele>373.39999389648</ele>
        <time>2019-11-30T15:02:51.000Z</time>
      </trkpt>
      <trkpt lat="43.64447" lon="5.40048">
        <ele>373.39999389648</ele>
        <time>2019-11-30T15:02:52.000Z</time>
      </trkpt>
      <trkpt lat="43.64446" lon="5.40048">
        <ele>373.39999389648</ele>
        <time>2019-11-30T15:02:53.000Z</time>
      </trkpt>
      <trkpt lat="43.64445" lon="5.4005">
        <ele>373.39999389648</ele>
        <time>2019-11-30T15:02:54.000Z</time>
      </trkpt>
      <trkpt lat="43.64445" lon="5.4005">
        <ele>373.20001220703</ele>
        <time>2019-11-30T15:02:55.000Z</time>
      </trkpt>
      <trkpt lat="43.64445" lon="5.4005">
        <ele>373.20001220703</ele>
        <time>2019-11-30T15:02:56.000Z</time>
      </trkpt>
      <trkpt lat="43.64445" lon="5.4005">
        <ele>373.20001220703</ele>
        <time>2019-11-30T15:02:57.000Z</time>
      </trkpt>
      <trkpt lat="43.64445" lon="5.4005">
        <ele>373.20001220703</ele>
        <time>2019-11-30T15:02:58.000Z</time>
      </trkpt>
      <trkpt lat="43.64444" lon="5.40051">
        <ele>373.39999389648</ele>
        <time>2019-11-30T15:02:59.000Z</time>
      </trkpt>
      <trkpt lat="43.64443" lon="5.4005">
        <ele>373.60000610352</ele>
        <time>2019-11-30T15:03:00.000Z</time>
      </trkpt>
      <trkpt lat="43.64442" lon="5.40049">
        <ele>374</ele>
        <time>2019-11-30T15:03:01.000Z</time>
      </trkpt>
      <trkpt lat="43.64441" lon="5.40046">
        <ele>374.39999389648</ele>
        <time>2019-11-30T15:03:02.000Z</time>
      </trkpt>
      <trkpt lat="43.64441" lon="5.40043">
        <ele>374.39999389648</ele>
        <time>2019-11-30T15:03:03.000Z</time>
      </trkpt>
      <trkpt lat="43.64441" lon="5.4004">
        <ele>374.60000610352</ele>
        <time>2019-11-30T15:03:04.000Z</time>
      </trkpt>
      <trkpt lat="43.64441" lon="5.40037">
        <ele>374.79998779297</ele>
        <time>2019-11-30T15:03:05.000Z</time>
      </trkpt>
      <trkpt lat="43.64441" lon="5.40034">
        <ele>375</ele>
        <time>2019-11-30T15:03:06.000Z</time>
      </trkpt>
      <trkpt lat="43.6444" lon="5.40031">
        <ele>375.20001220703</ele>
        <time>2019-11-30T15:03:07.000Z</time>
      </trkpt>
      <trkpt lat="43.6444" lon="5.40028">
        <ele>375.39999389648</ele>
        <time>2019-11-30T15:03:08.000Z</time>
      </trkpt>
      <trkpt lat="43.64439" lon="5.40025">
        <ele>375.60000610352</ele>
        <time>2019-11-30T15:03:09.000Z</time>
      </trkpt>
      <trkpt lat="43.64439" lon="5.40022">
        <ele>375.79998779297</ele>
        <time>2019-11-30T15:03:10.000Z</time>
      </trkpt>
      <trkpt lat="43.64438" lon="5.40019">
        <ele>376</ele>
        <time>2019-11-30T15:03:11.000Z</time>
      </trkpt>
      <trkpt lat="43.64437" lon="5.40016">
        <ele>376.39999389648</ele>
        <time>2019-11-30T15:03:12.000Z</time>
      </trkpt>
      <trkpt lat="43.64436" lon="5.40014">
        <ele>376.60000610352</ele>
        <time>2019-11-30T15:03:13.000Z</time>
      </trkpt>
      <trkpt lat="43.64435" lon="5.40011">
        <ele>376.79998779297</ele>
        <time>2019-11-30T15:03:14.000Z</time>
      </trkpt>
      <trkpt lat="43.64435" lon="5.40008">
        <ele>377</ele>
        <time>2019-11-30T15:03:15.000Z</time>
      </trkpt>
      <trkpt lat="43.64434" lon="5.40005">
        <ele>377.20001220703</ele>
        <time>2019-11-30T15:03:16.000Z</time>
      </trkpt>
      <trkpt lat="43.64433" lon="5.40002">
        <ele>377.39999389648</ele>
        <time>2019-11-30T15:03:17.000Z</time>
      </trkpt>
      <trkpt lat="43.64433" lon="5.39999">
        <ele>377.39999389648</ele>
        <time>2019-11-30T15:03:18.000Z</time>
      </trkpt>
      <trkpt lat="43.64432" lon="5.39996">
        <ele>377.60000610352</ele>
        <time>2019-11-30T15:03:19.000Z</time>
      </trkpt>
      <trkpt lat="43.64431" lon="5.39993">
        <ele>377.79998779297</ele>
        <time>2019-11-30T15:03:20.000Z</time>
      </trkpt>
      <trkpt lat="43.6443" lon="5.3999">
        <ele>378</ele>
        <time>2019-11-30T15:03:21.000Z</time>
      </trkpt>
      <trkpt lat="43.64429" lon="5.39986">
        <ele>378.20001220703</ele>
        <time>2019-11-30T15:03:22.000Z</time>
      </trkpt>
      <trkpt lat="43.64428" lon="5.39983">
        <ele>378.39999389648</ele>
        <time>2019-11-30T15:03:23.000Z</time>
      </trkpt>
      <trkpt lat="43.64427" lon="5.3998">
        <ele>378.60000610352</ele>
        <time>2019-11-30T15:03:24.000Z</time>
      </trkpt>
      <trkpt lat="43.64427" lon="5.39976">
        <ele>378.79998779297</ele>
        <time>2019-11-30T15:03:25.000Z</time>
      </trkpt>
      <trkpt lat="43.64426" lon="5.39973">
        <ele>379</ele>
        <time>2019-11-30T15:03:26.000Z</time>
      </trkpt>
      <trkpt lat="43.64427" lon="5.3997">
        <ele>379</ele>
        <time>2019-11-30T15:03:27.000Z</time>
      </trkpt>
      <trkpt lat="43.64427" lon="5.39966">
        <ele>379.20001220703</ele>
        <time>2019-11-30T15:03:28.000Z</time>
      </trkpt>
      <trkpt lat="43.64428" lon="5.39964">
        <ele>379.39999389648</ele>
        <time>2019-11-30T15:03:29.000Z</time>
      </trkpt>
      <trkpt lat="43.64429" lon="5.39962">
        <ele>379.39999389648</ele>
        <time>2019-11-30T15:03:30.000Z</time>
      </trkpt>
      <trkpt lat="43.64429" lon="5.39959">
        <ele>379.60000610352</ele>
        <time>2019-11-30T15:03:31.000Z</time>
      </trkpt>
      <trkpt lat="43.64428" lon="5.39956">
        <ele>379.79998779297</ele>
        <time>2019-11-30T15:03:32.000Z</time>
      </trkpt>
      <trkpt lat="43.64428" lon="5.39953">
        <ele>379.79998779297</ele>
        <time>2019-11-30T15:03:33.000Z</time>
      </trkpt>
      <trkpt lat="43.64427" lon="5.39951">
        <ele>379.79998779297</ele>
        <time>2019-11-30T15:03:34.000Z</time>
      </trkpt>
      <trkpt lat="43.64427" lon="5.39949">
        <ele>379.79998779297</ele>
        <time>2019-11-30T15:03:35.000Z</time>
      </trkpt>
      <trkpt lat="43.64427" lon="5.39948">
        <ele>379.79998779297</ele>
        <time>2019-11-30T15:03:36.000Z</time>
      </trkpt>
      <trkpt lat="43.64427" lon="5.39947">
        <ele>379.79998779297</ele>
        <time>2019-11-30T15:03:37.000Z</time>
      </trkpt>
      <trkpt lat="43.64427" lon="5.39946">
        <ele>379.79998779297</ele>
        <time>2019-11-30T15:03:38.000Z</time>
      </trkpt>
      <trkpt lat="43.64427" lon="5.39946">
        <ele>379.79998779297</ele>
        <time>2019-11-30T15:03:39.000Z</time>
      </trkpt>
      <trkpt lat="43.64427" lon="5.39946">
        <ele>379.79998779297</ele>
        <time>2019-11-30T15:03:40.000Z</time>
      </trkpt>
      <trkpt lat="43.64427" lon="5.39946">
        <ele>379.79998779297</ele>
        <time>2019-11-30T15:03:41.000Z</time>
      </trkpt>
      <trkpt lat="43.64427" lon="5.39946">
        <ele>379.79998779297</ele>
        <time>2019-11-30T15:03:42.000Z</time>
      </trkpt>
      <trkpt lat="43.64427" lon="5.39946">
        <ele>379.79998779297</ele>
        <time>2019-11-30T15:03:43.000Z</time>
      </trkpt>
      <trkpt lat="43.64427" lon="5.39946">
        <ele>379.79998779297</ele>
        <time>2019-11-30T15:03:44.000Z</time>
      </trkpt>
      <trkpt lat="43.64427" lon="5.39946">
        <ele>379.79998779297</ele>
        <time>2019-11-30T15:03:45.000Z</time>
      </trkpt>
      <trkpt lat="43.64427" lon="5.39946">
        <ele>379.79998779297</ele>
        <time>2019-11-30T15:03:46.000Z</time>
      </trkpt>
      <trkpt lat="43.64427" lon="5.39946">
        <ele>379.79998779297</ele>
        <time>2019-11-30T15:03:47.000Z</time>
      </trkpt>
      <trkpt lat="43.64427" lon="5.39946">
        <ele>379.79998779297</ele>
        <time>2019-11-30T15:03:48.000Z</time>
      </trkpt>
      <trkpt lat="43.64427" lon="5.39946">
        <ele>379.79998779297</ele>
        <time>2019-11-30T15:03:49.000Z</time>
      </trkpt>
      <trkpt lat="43.64427" lon="5.39946">
        <ele>379.79998779297</ele>
        <time>2019-11-30T15:03:50.000Z</time>
      </trkpt>
      <trkpt lat="43.64427" lon="5.39946">
        <ele>379.79998779297</ele>
        <time>2019-11-30T15:03:51.000Z</time>
      </trkpt>
      <trkpt lat="43.64427" lon="5.39946">
        <ele>379.79998779297</ele>
        <time>2019-11-30T15:03:52.000Z</time>
      </trkpt>
      <trkpt lat="43.64427" lon="5.39946">
        <ele>379.79998779297</ele>
        <time>2019-11-30T15:03:53.000Z</time>
      </trkpt>
      <trkpt lat="43.64427" lon="5.39946">
        <ele>379.79998779297</ele>
        <time>2019-11-30T15:03:54.000Z</time>
      </trkpt>
      <trkpt lat="43.64427" lon="5.39946">
        <ele>379.79998779297</ele>
        <time>2019-11-30T15:03:55.000Z</time>
      </trkpt>
      <trkpt lat="43.64427" lon="5.39946">
        <ele>379.79998779297</ele>
        <time>2019-11-30T15:03:56.000Z</time>
      </trkpt>
      <trkpt lat="43.64427" lon="5.39946">
        <ele>379.79998779297</ele>
        <time>2019-11-30T15:03:57.000Z</time>
      </trkpt>
      <trkpt lat="43.64427" lon="5.39946">
        <ele>379.79998779297</ele>
        <time>2019-11-30T15:03:58.000Z</time>
      </trkpt>
      <trkpt lat="43.64427" lon="5.39946">
        <ele>379.79998779297</ele>
        <time>2019-11-30T15:03:59.000Z</time>
      </trkpt>
      <trkpt lat="43.64427" lon="5.39946">
        <ele>379.79998779297</ele>
        <time>2019-11-30T15:04:00.000Z</time>
      </trkpt>
      <trkpt lat="43.64427" lon="5.39946">
        <ele>379.79998779297</ele>
        <time>2019-11-30T15:04:01.000Z</time>
      </trkpt>
      <trkpt lat="43.64427" lon="5.39946">
        <ele>379.79998779297</ele>
        <time>2019-11-30T15:04:02.000Z</time>
      </trkpt>
      <trkpt lat="43.64427" lon="5.39946">
        <ele>379.79998779297</ele>
        <time>2019-11-30T15:04:03.000Z</time>
      </trkpt>
      <trkpt lat="43.64427" lon="5.39946">
        <ele>379.79998779297</ele>
        <time>2019-11-30T15:04:04.000Z</time>
      </trkpt>
      <trkpt lat="43.64427" lon="5.39946">
        <ele>379.79998779297</ele>
        <time>2019-11-30T15:04:05.000Z</time>
      </trkpt>
      <trkpt lat="43.64427" lon="5.39946">
        <ele>379.79998779297</ele>
        <time>2019-11-30T15:04:06.000Z</time>
      </trkpt>
      <trkpt lat="43.64427" lon="5.39946">
        <ele>379.79998779297</ele>
        <time>2019-11-30T15:04:07.000Z</time>
      </trkpt>
      <trkpt lat="43.64427" lon="5.39946">
        <ele>379.79998779297</ele>
        <time>2019-11-30T15:04:08.000Z</time>
      </trkpt>
      <trkpt lat="43.64427" lon="5.39946">
        <ele>379.79998779297</ele>
        <time>2019-11-30T15:04:09.000Z</time>
      </trkpt>
      <trkpt lat="43.64427" lon="5.39946">
        <ele>379.79998779297</ele>
        <time>2019-11-30T15:04:10.000Z</time>
      </trkpt>
      <trkpt lat="43.64427" lon="5.39946">
        <ele>379.79998779297</ele>
        <time>2019-11-30T15:04:11.000Z</time>
      </trkpt>
      <trkpt lat="43.64427" lon="5.39946">
        <ele>379.79998779297</ele>
        <time>2019-11-30T15:04:12.000Z</time>
      </trkpt>
      <trkpt lat="43.64427" lon="5.39946">
        <ele>379.79998779297</ele>
        <time>2019-11-30T15:04:13.000Z</time>
      </trkpt>
      <trkpt lat="43.64427" lon="5.39946">
        <ele>379.79998779297</ele>
        <time>2019-11-30T15:04:14.000Z</time>
      </trkpt>
      <trkpt lat="43.64427" lon="5.39946">
        <ele>379.79998779297</ele>
        <time>2019-11-30T15:04:15.000Z</time>
      </trkpt>
      <trkpt lat="43.64427" lon="5.39946">
        <ele>379.79998779297</ele>
        <time>2019-11-30T15:04:16.000Z</time>
      </trkpt>
      <trkpt lat="43.64427" lon="5.39946">
        <ele>379.79998779297</ele>
        <time>2019-11-30T15:04:17.000Z</time>
      </trkpt>
      <trkpt lat="43.64427" lon="5.39946">
        <ele>379.79998779297</ele>
        <time>2019-11-30T15:04:18.000Z</time>
      </trkpt>
      <trkpt lat="43.64427" lon="5.39946">
        <ele>379.79998779297</ele>
        <time>2019-11-30T15:04:19.000Z</time>
      </trkpt>
      <trkpt lat="43.64427" lon="5.39946">
        <ele>379.79998779297</ele>
        <time>2019-11-30T15:04:20.000Z</time>
      </trkpt>
      <trkpt lat="43.64427" lon="5.39946">
        <ele>379.79998779297</ele>
        <time>2019-11-30T15:04:21.000Z</time>
      </trkpt>
      <trkpt lat="43.64427" lon="5.39946">
        <ele>379.79998779297</ele>
        <time>2019-11-30T15:04:22.000Z</time>
      </trkpt>
      <trkpt lat="43.64427" lon="5.39946">
        <ele>379.79998779297</ele>
        <time>2019-11-30T15:04:23.000Z</time>
      </trkpt>
      <trkpt lat="43.64427" lon="5.39946">
        <ele>379.79998779297</ele>
        <time>2019-11-30T15:04:24.000Z</time>
      </trkpt>
      <trkpt lat="43.64427" lon="5.39946">
        <ele>379.79998779297</ele>
        <time>2019-11-30T15:04:25.000Z</time>
      </trkpt>
      <trkpt lat="43.64427" lon="5.39946">
        <ele>379.79998779297</ele>
        <time>2019-11-30T15:04:26.000Z</time>
      </trkpt>
      <trkpt lat="43.64427" lon="5.39946">
        <ele>379.79998779297</ele>
        <time>2019-11-30T15:04:27.000Z</time>
      </trkpt>
      <trkpt lat="43.64427" lon="5.39946">
        <ele>379.79998779297</ele>
        <time>2019-11-30T15:04:28.000Z</time>
      </trkpt>
      <trkpt lat="43.64427" lon="5.39946">
        <ele>379.79998779297</ele>
        <time>2019-11-30T15:04:29.000Z</time>
      </trkpt>
      <trkpt lat="43.64427" lon="5.39946">
        <ele>379.79998779297</ele>
        <time>2019-11-30T15:04:30.000Z</time>
      </trkpt>
      <trkpt lat="43.64427" lon="5.39946">
        <ele>379.79998779297</ele>
        <time>2019-11-30T15:04:31.000Z</time>
      </trkpt>
      <trkpt lat="43.64427" lon="5.39946">
        <ele>379.79998779297</ele>
        <time>2019-11-30T15:04:32.000Z</time>
      </trkpt>
      <trkpt lat="43.64427" lon="5.39946">
        <ele>379.79998779297</ele>
        <time>2019-11-30T15:04:33.000Z</time>
      </trkpt>
      <trkpt lat="43.64427" lon="5.39946">
        <ele>379.79998779297</ele>
        <time>2019-11-30T15:04:34.000Z</time>
      </trkpt>
      <trkpt lat="43.64427" lon="5.39946">
        <ele>379.79998779297</ele>
        <time>2019-11-30T15:04:35.000Z</time>
      </trkpt>
      <trkpt lat="43.64427" lon="5.39946">
        <ele>379.79998779297</ele>
        <time>2019-11-30T15:04:36.000Z</time>
      </trkpt>
      <trkpt lat="43.64427" lon="5.39946">
        <ele>379.79998779297</ele>
        <time>2019-11-30T15:04:37.000Z</time>
      </trkpt>
      <trkpt lat="43.64427" lon="5.39946">
        <ele>379.79998779297</ele>
        <time>2019-11-30T15:04:38.000Z</time>
      </trkpt>
      <trkpt lat="43.64427" lon="5.39946">
        <ele>379.79998779297</ele>
        <time>2019-11-30T15:04:39.000Z</time>
      </trkpt>
      <trkpt lat="43.64427" lon="5.39946">
        <ele>379.79998779297</ele>
        <time>2019-11-30T15:04:40.000Z</time>
      </trkpt>
      <trkpt lat="43.64427" lon="5.39946">
        <ele>379.79998779297</ele>
        <time>2019-11-30T15:04:41.000Z</time>
      </trkpt>
      <trkpt lat="43.64427" lon="5.39946">
        <ele>379.79998779297</ele>
        <time>2019-11-30T15:04:42.000Z</time>
      </trkpt>
      <trkpt lat="43.64427" lon="5.39946">
        <ele>379.79998779297</ele>
        <time>2019-11-30T15:04:43.000Z</time>
      </trkpt>
      <trkpt lat="43.64427" lon="5.39946">
        <ele>379.79998779297</ele>
        <time>2019-11-30T15:04:44.000Z</time>
      </trkpt>
      <trkpt lat="43.64426" lon="5.39946">
        <ele>380</ele>
        <time>2019-11-30T15:04:45.000Z</time>
      </trkpt>
      <trkpt lat="43.64425" lon="5.39943">
        <ele>380</ele>
        <time>2019-11-30T15:04:46.000Z</time>
      </trkpt>
      <trkpt lat="43.64424" lon="5.39941">
        <ele>380</ele>
        <time>2019-11-30T15:04:47.000Z</time>
      </trkpt>
      <trkpt lat="43.64423" lon="5.39938">
        <ele>380.20001220703</ele>
        <time>2019-11-30T15:04:48.000Z</time>
      </trkpt>
      <trkpt lat="43.64421" lon="5.39936">
        <ele>380.39999389648</ele>
        <time>2019-11-30T15:04:49.000Z</time>
      </trkpt>
      <trkpt lat="43.64419" lon="5.39933">
        <ele>380.60000610352</ele>
        <time>2019-11-30T15:04:50.000Z</time>
      </trkpt>
      <trkpt lat="43.64418" lon="5.39929">
        <ele>380.79998779297</ele>
        <time>2019-11-30T15:04:51.000Z</time>
      </trkpt>
      <trkpt lat="43.64417" lon="5.39926">
        <ele>380.79998779297</ele>
        <time>2019-11-30T15:04:52.000Z</time>
      </trkpt>
      <trkpt lat="43.64415" lon="5.39922">
        <ele>381</ele>
        <time>2019-11-30T15:04:53.000Z</time>
      </trkpt>
      <trkpt lat="43.64414" lon="5.39918">
        <ele>381</ele>
        <time>2019-11-30T15:04:54.000Z</time>
      </trkpt>
      <trkpt lat="43.64412" lon="5.39914">
        <ele>381.20001220703</ele>
        <time>2019-11-30T15:04:55.000Z</time>
      </trkpt>
      <trkpt lat="43.64411" lon="5.3991">
        <ele>381.39999389648</ele>
        <time>2019-11-30T15:04:56.000Z</time>
      </trkpt>
      <trkpt lat="43.6441" lon="5.39906">
        <ele>381.60000610352</ele>
        <time>2019-11-30T15:04:57.000Z</time>
      </trkpt>
      <trkpt lat="43.64408" lon="5.39902">
        <ele>381.60000610352</ele>
        <time>2019-11-30T15:04:58.000Z</time>
      </trkpt>
      <trkpt lat="43.64406" lon="5.39898">
        <ele>381.79998779297</ele>
        <time>2019-11-30T15:04:59.000Z</time>
      </trkpt>
      <trkpt lat="43.64405" lon="5.39894">
        <ele>382</ele>
        <time>2019-11-30T15:05:00.000Z</time>
      </trkpt>
      <trkpt lat="43.64403" lon="5.39891">
        <ele>382.20001220703</ele>
        <time>2019-11-30T15:05:01.000Z</time>
      </trkpt>
      <trkpt lat="43.64402" lon="5.39887">
        <ele>382.20001220703</ele>
        <time>2019-11-30T15:05:02.000Z</time>
      </trkpt>
      <trkpt lat="43.644" lon="5.39883">
        <ele>382.39999389648</ele>
        <time>2019-11-30T15:05:03.000Z</time>
      </trkpt>
      <trkpt lat="43.64398" lon="5.3988">
        <ele>382.79998779297</ele>
        <time>2019-11-30T15:05:04.000Z</time>
      </trkpt>
      <trkpt lat="43.64396" lon="5.39876">
        <ele>383.20001220703</ele>
        <time>2019-11-30T15:05:05.000Z</time>
      </trkpt>
      <trkpt lat="43.64395" lon="5.39872">
        <ele>383.79998779297</ele>
        <time>2019-11-30T15:05:06.000Z</time>
      </trkpt>
      <trkpt lat="43.64393" lon="5.39868">
        <ele>384.20001220703</ele>
        <time>2019-11-30T15:05:07.000Z</time>
      </trkpt>
      <trkpt lat="43.64392" lon="5.39864">
        <ele>384.60000610352</ele>
        <time>2019-11-30T15:05:08.000Z</time>
      </trkpt>
      <trkpt lat="43.64388" lon="5.39854">
        <ele>386</ele>
        <time>2019-11-30T15:05:09.000Z</time>
      </trkpt>
      <trkpt lat="43.64389" lon="5.39853">
        <ele>385.79998779297</ele>
        <time>2019-11-30T15:05:10.000Z</time>
      </trkpt>
      <trkpt lat="43.64391" lon="5.39852">
        <ele>385.79998779297</ele>
        <time>2019-11-30T15:05:11.000Z</time>
      </trkpt>
      <trkpt lat="43.64393" lon="5.39849">
        <ele>385.79998779297</ele>
        <time>2019-11-30T15:05:12.000Z</time>
      </trkpt>
      <trkpt lat="43.64397" lon="5.39846">
        <ele>385.79998779297</ele>
        <time>2019-11-30T15:05:13.000Z</time>
      </trkpt>
      <trkpt lat="43.64401" lon="5.39842">
        <ele>385.60000610352</ele>
        <time>2019-11-30T15:05:14.000Z</time>
      </trkpt>
      <trkpt lat="43.64405" lon="5.39838">
        <ele>385.20001220703</ele>
        <time>2019-11-30T15:05:15.000Z</time>
      </trkpt>
      <trkpt lat="43.6441" lon="5.39834">
        <ele>384.79998779297</ele>
        <time>2019-11-30T15:05:16.000Z</time>
      </trkpt>
      <trkpt lat="43.64414" lon="5.3983">
        <ele>384.39999389648</ele>
        <time>2019-11-30T15:05:17.000Z</time>
      </trkpt>
      <trkpt lat="43.64419" lon="5.39824">
        <ele>384</ele>
        <time>2019-11-30T15:05:18.000Z</time>
      </trkpt>
      <trkpt lat="43.64423" lon="5.39818">
        <ele>383.79998779297</ele>
        <time>2019-11-30T15:05:19.000Z</time>
      </trkpt>
      <trkpt lat="43.64427" lon="5.39812">
        <ele>383.39999389648</ele>
        <time>2019-11-30T15:05:20.000Z</time>
      </trkpt>
      <trkpt lat="43.64432" lon="5.39805">
        <ele>383.20001220703</ele>
        <time>2019-11-30T15:05:21.000Z</time>
      </trkpt>
      <trkpt lat="43.64436" lon="5.39799">
        <ele>383</ele>
        <time>2019-11-30T15:05:22.000Z</time>
      </trkpt>
      <trkpt lat="43.6444" lon="5.39793">
        <ele>383</ele>
        <time>2019-11-30T15:05:23.000Z</time>
      </trkpt>
      <trkpt lat="43.64445" lon="5.39786">
        <ele>383</ele>
        <time>2019-11-30T15:05:24.000Z</time>
      </trkpt>
      <trkpt lat="43.64449" lon="5.3978">
        <ele>383.20001220703</ele>
        <time>2019-11-30T15:05:25.000Z</time>
      </trkpt>
      <trkpt lat="43.64454" lon="5.39773">
        <ele>383.20001220703</ele>
        <time>2019-11-30T15:05:26.000Z</time>
      </trkpt>
      <trkpt lat="43.64458" lon="5.39766">
        <ele>383.39999389648</ele>
        <time>2019-11-30T15:05:27.000Z</time>
      </trkpt>
      <trkpt lat="43.64463" lon="5.3976">
        <ele>383.39999389648</ele>
        <time>2019-11-30T15:05:28.000Z</time>
      </trkpt>
      <trkpt lat="43.64467" lon="5.39754">
        <ele>383.60000610352</ele>
        <time>2019-11-30T15:05:29.000Z</time>
      </trkpt>
      <trkpt lat="43.64471" lon="5.39747">
        <ele>383.39999389648</ele>
        <time>2019-11-30T15:05:30.000Z</time>
      </trkpt>
      <trkpt lat="43.64474" lon="5.3974">
        <ele>382.79998779297</ele>
        <time>2019-11-30T15:05:31.000Z</time>
      </trkpt>
      <trkpt lat="43.64477" lon="5.39734">
        <ele>382.20001220703</ele>
        <time>2019-11-30T15:05:32.000Z</time>
      </trkpt>
      <trkpt lat="43.64479" lon="5.39728">
        <ele>381.60000610352</ele>
        <time>2019-11-30T15:05:33.000Z</time>
      </trkpt>
      <trkpt lat="43.64482" lon="5.39723">
        <ele>381.20001220703</ele>
        <time>2019-11-30T15:05:34.000Z</time>
      </trkpt>
      <trkpt lat="43.64485" lon="5.39718">
        <ele>380.60000610352</ele>
        <time>2019-11-30T15:05:35.000Z</time>
      </trkpt>
      <trkpt lat="43.64487" lon="5.39712">
        <ele>380.20001220703</ele>
        <time>2019-11-30T15:05:36.000Z</time>
      </trkpt>
      <trkpt lat="43.64489" lon="5.39707">
        <ele>379.60000610352</ele>
        <time>2019-11-30T15:05:37.000Z</time>
      </trkpt>
      <trkpt lat="43.64492" lon="5.39702">
        <ele>379</ele>
        <time>2019-11-30T15:05:38.000Z</time>
      </trkpt>
      <trkpt lat="43.64494" lon="5.39697">
        <ele>378.39999389648</ele>
        <time>2019-11-30T15:05:39.000Z</time>
      </trkpt>
      <trkpt lat="43.64497" lon="5.39692">
        <ele>378</ele>
        <time>2019-11-30T15:05:40.000Z</time>
      </trkpt>
      <trkpt lat="43.64499" lon="5.39687">
        <ele>378.20001220703</ele>
        <time>2019-11-30T15:05:41.000Z</time>
      </trkpt>
      <trkpt lat="43.64501" lon="5.39682">
        <ele>378.60000610352</ele>
        <time>2019-11-30T15:05:42.000Z</time>
      </trkpt>
      <trkpt lat="43.64504" lon="5.39677">
        <ele>378.79998779297</ele>
        <time>2019-11-30T15:05:43.000Z</time>
      </trkpt>
      <trkpt lat="43.64507" lon="5.39671">
        <ele>379</ele>
        <time>2019-11-30T15:05:44.000Z</time>
      </trkpt>
      <trkpt lat="43.64509" lon="5.39666">
        <ele>379.39999389648</ele>
        <time>2019-11-30T15:05:45.000Z</time>
      </trkpt>
      <trkpt lat="43.64512" lon="5.3966">
        <ele>379.60000610352</ele>
        <time>2019-11-30T15:05:46.000Z</time>
      </trkpt>
      <trkpt lat="43.64514" lon="5.39655">
        <ele>380</ele>
        <time>2019-11-30T15:05:47.000Z</time>
      </trkpt>
      <trkpt lat="43.64518" lon="5.3965">
        <ele>380</ele>
        <time>2019-11-30T15:05:48.000Z</time>
      </trkpt>
      <trkpt lat="43.64522" lon="5.39645">
        <ele>379.79998779297</ele>
        <time>2019-11-30T15:05:49.000Z</time>
      </trkpt>
      <trkpt lat="43.64526" lon="5.39641">
        <ele>379.60000610352</ele>
        <time>2019-11-30T15:05:50.000Z</time>
      </trkpt>
      <trkpt lat="43.6453" lon="5.39637">
        <ele>379.39999389648</ele>
        <time>2019-11-30T15:05:51.000Z</time>
      </trkpt>
      <trkpt lat="43.64534" lon="5.39632">
        <ele>379</ele>
        <time>2019-11-30T15:05:52.000Z</time>
      </trkpt>
      <trkpt lat="43.64538" lon="5.39628">
        <ele>378.60000610352</ele>
        <time>2019-11-30T15:05:53.000Z</time>
      </trkpt>
      <trkpt lat="43.64542" lon="5.39624">
        <ele>378.20001220703</ele>
        <time>2019-11-30T15:05:54.000Z</time>
      </trkpt>
      <trkpt lat="43.64546" lon="5.39619">
        <ele>377.79998779297</ele>
        <time>2019-11-30T15:05:55.000Z</time>
      </trkpt>
      <trkpt lat="43.6455" lon="5.39615">
        <ele>377.20001220703</ele>
        <time>2019-11-30T15:05:56.000Z</time>
      </trkpt>
      <trkpt lat="43.64554" lon="5.39611">
        <ele>376.79998779297</ele>
        <time>2019-11-30T15:05:57.000Z</time>
      </trkpt>
      <trkpt lat="43.64557" lon="5.39607">
        <ele>376.39999389648</ele>
        <time>2019-11-30T15:05:58.000Z</time>
      </trkpt>
      <trkpt lat="43.64561" lon="5.39603">
        <ele>376</ele>
        <time>2019-11-30T15:05:59.000Z</time>
      </trkpt>
      <trkpt lat="43.64565" lon="5.39599">
        <ele>375.39999389648</ele>
        <time>2019-11-30T15:06:00.000Z</time>
      </trkpt>
      <trkpt lat="43.6457" lon="5.39596">
        <ele>375</ele>
        <time>2019-11-30T15:06:01.000Z</time>
      </trkpt>
      <trkpt lat="43.64574" lon="5.39594">
        <ele>374.60000610352</ele>
        <time>2019-11-30T15:06:02.000Z</time>
      </trkpt>
      <trkpt lat="43.64577" lon="5.39591">
        <ele>374.39999389648</ele>
        <time>2019-11-30T15:06:03.000Z</time>
      </trkpt>
      <trkpt lat="43.64581" lon="5.39589">
        <ele>374.20001220703</ele>
        <time>2019-11-30T15:06:04.000Z</time>
      </trkpt>
      <trkpt lat="43.64585" lon="5.39587">
        <ele>374</ele>
        <time>2019-11-30T15:06:05.000Z</time>
      </trkpt>
      <trkpt lat="43.64588" lon="5.39584">
        <ele>373.79998779297</ele>
        <time>2019-11-30T15:06:06.000Z</time>
      </trkpt>
      <trkpt lat="43.64591" lon="5.39582">
        <ele>373.60000610352</ele>
        <time>2019-11-30T15:06:07.000Z</time>
      </trkpt>
      <trkpt lat="43.64595" lon="5.3958">
        <ele>373.20001220703</ele>
        <time>2019-11-30T15:06:08.000Z</time>
      </trkpt>
      <trkpt lat="43.64599" lon="5.39579">
        <ele>372.79998779297</ele>
        <time>2019-11-30T15:06:09.000Z</time>
      </trkpt>
      <trkpt lat="43.64602" lon="5.39578">
        <ele>372.39999389648</ele>
        <time>2019-11-30T15:06:10.000Z</time>
      </trkpt>
      <trkpt lat="43.64606" lon="5.39577">
        <ele>372.20001220703</ele>
        <time>2019-11-30T15:06:11.000Z</time>
      </trkpt>
      <trkpt lat="43.64609" lon="5.39576">
        <ele>372</ele>
        <time>2019-11-30T15:06:12.000Z</time>
      </trkpt>
      <trkpt lat="43.64613" lon="5.39575">
        <ele>371.60000610352</ele>
        <time>2019-11-30T15:06:13.000Z</time>
      </trkpt>
      <trkpt lat="43.64617" lon="5.39574">
        <ele>371.39999389648</ele>
        <time>2019-11-30T15:06:14.000Z</time>
      </trkpt>
      <trkpt lat="43.6462" lon="5.39573">
        <ele>371.20001220703</ele>
        <time>2019-11-30T15:06:15.000Z</time>
      </trkpt>
      <trkpt lat="43.64624" lon="5.39572">
        <ele>370.79998779297</ele>
        <time>2019-11-30T15:06:16.000Z</time>
      </trkpt>
      <trkpt lat="43.64628" lon="5.39571">
        <ele>370.60000610352</ele>
        <time>2019-11-30T15:06:17.000Z</time>
      </trkpt>
      <trkpt lat="43.64632" lon="5.3957">
        <ele>370.60000610352</ele>
        <time>2019-11-30T15:06:18.000Z</time>
      </trkpt>
      <trkpt lat="43.64636" lon="5.39569">
        <ele>370.60000610352</ele>
        <time>2019-11-30T15:06:19.000Z</time>
      </trkpt>
      <trkpt lat="43.6464" lon="5.39567">
        <ele>370.60000610352</ele>
        <time>2019-11-30T15:06:20.000Z</time>
      </trkpt>
      <trkpt lat="43.64645" lon="5.39566">
        <ele>370.39999389648</ele>
        <time>2019-11-30T15:06:21.000Z</time>
      </trkpt>
      <trkpt lat="43.6465" lon="5.39565">
        <ele>370.39999389648</ele>
        <time>2019-11-30T15:06:22.000Z</time>
      </trkpt>
      <trkpt lat="43.64655" lon="5.39563">
        <ele>370.39999389648</ele>
        <time>2019-11-30T15:06:23.000Z</time>
      </trkpt>
      <trkpt lat="43.6466" lon="5.39562">
        <ele>370.39999389648</ele>
        <time>2019-11-30T15:06:24.000Z</time>
      </trkpt>
      <trkpt lat="43.64664" lon="5.39561">
        <ele>370.20001220703</ele>
        <time>2019-11-30T15:06:25.000Z</time>
      </trkpt>
      <trkpt lat="43.64668" lon="5.39559">
        <ele>370.20001220703</ele>
        <time>2019-11-30T15:06:26.000Z</time>
      </trkpt>
      <trkpt lat="43.64672" lon="5.39558">
        <ele>370.20001220703</ele>
        <time>2019-11-30T15:06:27.000Z</time>
      </trkpt>
      <trkpt lat="43.64676" lon="5.39555">
        <ele>370.39999389648</ele>
        <time>2019-11-30T15:06:28.000Z</time>
      </trkpt>
      <trkpt lat="43.6468" lon="5.39552">
        <ele>370.79998779297</ele>
        <time>2019-11-30T15:06:29.000Z</time>
      </trkpt>
      <trkpt lat="43.64684" lon="5.39548">
        <ele>371.20001220703</ele>
        <time>2019-11-30T15:06:30.000Z</time>
      </trkpt>
      <trkpt lat="43.64688" lon="5.39544">
        <ele>371.20001220703</ele>
        <time>2019-11-30T15:06:31.000Z</time>
      </trkpt>
      <trkpt lat="43.64692" lon="5.39541">
        <ele>371</ele>
        <time>2019-11-30T15:06:32.000Z</time>
      </trkpt>
      <trkpt lat="43.64696" lon="5.39538">
        <ele>370.79998779297</ele>
        <time>2019-11-30T15:06:33.000Z</time>
      </trkpt>
      <trkpt lat="43.64699" lon="5.39534">
        <ele>370.79998779297</ele>
        <time>2019-11-30T15:06:34.000Z</time>
      </trkpt>
      <trkpt lat="43.64703" lon="5.3953">
        <ele>370.79998779297</ele>
        <time>2019-11-30T15:06:35.000Z</time>
      </trkpt>
      <trkpt lat="43.64706" lon="5.39526">
        <ele>370.79998779297</ele>
        <time>2019-11-30T15:06:36.000Z</time>
      </trkpt>
      <trkpt lat="43.64709" lon="5.39521">
        <ele>370.79998779297</ele>
        <time>2019-11-30T15:06:37.000Z</time>
      </trkpt>
      <trkpt lat="43.64712" lon="5.39517">
        <ele>370.79998779297</ele>
        <time>2019-11-30T15:06:38.000Z</time>
      </trkpt>
      <trkpt lat="43.64715" lon="5.39513">
        <ele>371</ele>
        <time>2019-11-30T15:06:39.000Z</time>
      </trkpt>
      <trkpt lat="43.64718" lon="5.39509">
        <ele>371</ele>
        <time>2019-11-30T15:06:40.000Z</time>
      </trkpt>
      <trkpt lat="43.64721" lon="5.39505">
        <ele>371</ele>
        <time>2019-11-30T15:06:41.000Z</time>
      </trkpt>
      <trkpt lat="43.64724" lon="5.395">
        <ele>371</ele>
        <time>2019-11-30T15:06:42.000Z</time>
      </trkpt>
      <trkpt lat="43.64728" lon="5.39496">
        <ele>371</ele>
        <time>2019-11-30T15:06:43.000Z</time>
      </trkpt>
      <trkpt lat="43.64731" lon="5.39491">
        <ele>370.79998779297</ele>
        <time>2019-11-30T15:06:44.000Z</time>
      </trkpt>
      <trkpt lat="43.64735" lon="5.39486">
        <ele>370.79998779297</ele>
        <time>2019-11-30T15:06:45.000Z</time>
      </trkpt>
      <trkpt lat="43.64738" lon="5.39481">
        <ele>370.79998779297</ele>
        <time>2019-11-30T15:06:46.000Z</time>
      </trkpt>
      <trkpt lat="43.64741" lon="5.39477">
        <ele>370.60000610352</ele>
        <time>2019-11-30T15:06:47.000Z</time>
      </trkpt>
      <trkpt lat="43.64744" lon="5.39473">
        <ele>370.60000610352</ele>
        <time>2019-11-30T15:06:48.000Z</time>
      </trkpt>
      <trkpt lat="43.64747" lon="5.39468">
        <ele>370.60000610352</ele>
        <time>2019-11-30T15:06:49.000Z</time>
      </trkpt>
      <trkpt lat="43.6475" lon="5.39464">
        <ele>370.39999389648</ele>
        <time>2019-11-30T15:06:50.000Z</time>
      </trkpt>
      <trkpt lat="43.64753" lon="5.3946">
        <ele>370.20001220703</ele>
        <time>2019-11-30T15:06:51.000Z</time>
      </trkpt>
      <trkpt lat="43.64756" lon="5.39456">
        <ele>369.79998779297</ele>
        <time>2019-11-30T15:06:52.000Z</time>
      </trkpt>
      <trkpt lat="43.64759" lon="5.39452">
        <ele>369.79998779297</ele>
        <time>2019-11-30T15:06:53.000Z</time>
      </trkpt>
      <trkpt lat="43.64762" lon="5.39448">
        <ele>370.20001220703</ele>
        <time>2019-11-30T15:06:54.000Z</time>
      </trkpt>
      <trkpt lat="43.64765" lon="5.39445">
        <ele>370.39999389648</ele>
        <time>2019-11-30T15:06:55.000Z</time>
      </trkpt>
      <trkpt lat="43.64768" lon="5.39441">
        <ele>370.60000610352</ele>
        <time>2019-11-30T15:06:56.000Z</time>
      </trkpt>
      <trkpt lat="43.6477" lon="5.39437">
        <ele>370.79998779297</ele>
        <time>2019-11-30T15:06:57.000Z</time>
      </trkpt>
      <trkpt lat="43.64773" lon="5.39433">
        <ele>371</ele>
        <time>2019-11-30T15:06:58.000Z</time>
      </trkpt>
      <trkpt lat="43.64776" lon="5.39431">
        <ele>370.79998779297</ele>
        <time>2019-11-30T15:06:59.000Z</time>
      </trkpt>
      <trkpt lat="43.6478" lon="5.39428">
        <ele>370.60000610352</ele>
        <time>2019-11-30T15:07:00.000Z</time>
      </trkpt>
      <trkpt lat="43.64784" lon="5.39425">
        <ele>370.39999389648</ele>
        <time>2019-11-30T15:07:01.000Z</time>
      </trkpt>
      <trkpt lat="43.64787" lon="5.39422">
        <ele>370.20001220703</ele>
        <time>2019-11-30T15:07:02.000Z</time>
      </trkpt>
      <trkpt lat="43.64791" lon="5.39418">
        <ele>370.20001220703</ele>
        <time>2019-11-30T15:07:03.000Z</time>
      </trkpt>
      <trkpt lat="43.64793" lon="5.39417">
        <ele>370</ele>
        <time>2019-11-30T15:07:04.000Z</time>
      </trkpt>
      <trkpt lat="43.64793" lon="5.39417">
        <ele>370</ele>
        <time>2019-11-30T15:07:05.000Z</time>
      </trkpt>
      <trkpt lat="43.64793" lon="5.39417">
        <ele>370</ele>
        <time>2019-11-30T15:07:06.000Z</time>
      </trkpt>
      <trkpt lat="43.64793" lon="5.39417">
        <ele>370</ele>
        <time>2019-11-30T15:07:07.000Z</time>
      </trkpt>
      <trkpt lat="43.64793" lon="5.39417">
        <ele>370</ele>
        <time>2019-11-30T15:07:08.000Z</time>
      </trkpt>
      <trkpt lat="43.64818" lon="5.39399">
        <ele>369</ele>
        <time>2019-11-30T15:07:09.000Z</time>
      </trkpt>
      <trkpt lat="43.64822" lon="5.39398">
        <ele>368.79998779297</ele>
        <time>2019-11-30T15:07:10.000Z</time>
      </trkpt>
      <trkpt lat="43.64826" lon="5.39396">
        <ele>368.60000610352</ele>
        <time>2019-11-30T15:07:11.000Z</time>
      </trkpt>
      <trkpt lat="43.6483" lon="5.39393">
        <ele>368.39999389648</ele>
        <time>2019-11-30T15:07:12.000Z</time>
      </trkpt>
      <trkpt lat="43.64834" lon="5.39391">
        <ele>368</ele>
        <time>2019-11-30T15:07:13.000Z</time>
      </trkpt>
      <trkpt lat="43.64838" lon="5.39389">
        <ele>367.79998779297</ele>
        <time>2019-11-30T15:07:14.000Z</time>
      </trkpt>
      <trkpt lat="43.64842" lon="5.39387">
        <ele>367.60000610352</ele>
        <time>2019-11-30T15:07:15.000Z</time>
      </trkpt>
      <trkpt lat="43.64846" lon="5.39384">
        <ele>367.39999389648</ele>
        <time>2019-11-30T15:07:16.000Z</time>
      </trkpt>
      <trkpt lat="43.6485" lon="5.39382">
        <ele>367.20001220703</ele>
        <time>2019-11-30T15:07:17.000Z</time>
      </trkpt>
      <trkpt lat="43.64854" lon="5.3938">
        <ele>367</ele>
        <time>2019-11-30T15:07:18.000Z</time>
      </trkpt>
      <trkpt lat="43.64859" lon="5.39378">
        <ele>366.79998779297</ele>
        <time>2019-11-30T15:07:19.000Z</time>
      </trkpt>
      <trkpt lat="43.64863" lon="5.39377">
        <ele>366.60000610352</ele>
        <time>2019-11-30T15:07:20.000Z</time>
      </trkpt>
      <trkpt lat="43.64868" lon="5.39375">
        <ele>366.20001220703</ele>
        <time>2019-11-30T15:07:21.000Z</time>
      </trkpt>
      <trkpt lat="43.64873" lon="5.39373">
        <ele>366</ele>
        <time>2019-11-30T15:07:22.000Z</time>
      </trkpt>
      <trkpt lat="43.64878" lon="5.39372">
        <ele>365.79998779297</ele>
        <time>2019-11-30T15:07:23.000Z</time>
      </trkpt>
      <trkpt lat="43.64884" lon="5.3937">
        <ele>365.39999389648</ele>
        <time>2019-11-30T15:07:24.000Z</time>
      </trkpt>
      <trkpt lat="43.64889" lon="5.39369">
        <ele>365</ele>
        <time>2019-11-30T15:07:25.000Z</time>
      </trkpt>
      <trkpt lat="43.64895" lon="5.39368">
        <ele>364.60000610352</ele>
        <time>2019-11-30T15:07:26.000Z</time>
      </trkpt>
      <trkpt lat="43.649" lon="5.39367">
        <ele>364.20001220703</ele>
        <time>2019-11-30T15:07:27.000Z</time>
      </trkpt>
      <trkpt lat="43.64905" lon="5.39366">
        <ele>364</ele>
        <time>2019-11-30T15:07:28.000Z</time>
      </trkpt>
      <trkpt lat="43.6491" lon="5.39364">
        <ele>363.60000610352</ele>
        <time>2019-11-30T15:07:29.000Z</time>
      </trkpt>
      <trkpt lat="43.64915" lon="5.39362">
        <ele>363.39999389648</ele>
        <time>2019-11-30T15:07:30.000Z</time>
      </trkpt>
      <trkpt lat="43.6492" lon="5.3936">
        <ele>363.20001220703</ele>
        <time>2019-11-30T15:07:31.000Z</time>
      </trkpt>
      <trkpt lat="43.64925" lon="5.39358">
        <ele>363.20001220703</ele>
        <time>2019-11-30T15:07:32.000Z</time>
      </trkpt>
      <trkpt lat="43.64929" lon="5.39356">
        <ele>363.20001220703</ele>
        <time>2019-11-30T15:07:33.000Z</time>
      </trkpt>
      <trkpt lat="43.64934" lon="5.39354">
        <ele>363.20001220703</ele>
        <time>2019-11-30T15:07:34.000Z</time>
      </trkpt>
      <trkpt lat="43.64938" lon="5.39352">
        <ele>363.20001220703</ele>
        <time>2019-11-30T15:07:35.000Z</time>
      </trkpt>
      <trkpt lat="43.64943" lon="5.39351">
        <ele>363.20001220703</ele>
        <time>2019-11-30T15:07:36.000Z</time>
      </trkpt>
      <trkpt lat="43.64947" lon="5.39348">
        <ele>363.20001220703</ele>
        <time>2019-11-30T15:07:37.000Z</time>
      </trkpt>
      <trkpt lat="43.64951" lon="5.39345">
        <ele>363.39999389648</ele>
        <time>2019-11-30T15:07:38.000Z</time>
      </trkpt>
      <trkpt lat="43.64956" lon="5.39342">
        <ele>363.79998779297</ele>
        <time>2019-11-30T15:07:39.000Z</time>
      </trkpt>
      <trkpt lat="43.64961" lon="5.39338">
        <ele>364</ele>
        <time>2019-11-30T15:07:40.000Z</time>
      </trkpt>
      <trkpt lat="43.64965" lon="5.39334">
        <ele>364.39999389648</ele>
        <time>2019-11-30T15:07:41.000Z</time>
      </trkpt>
      <trkpt lat="43.64968" lon="5.39329">
        <ele>364.79998779297</ele>
        <time>2019-11-30T15:07:42.000Z</time>
      </trkpt>
      <trkpt lat="43.64971" lon="5.39324">
        <ele>364.60000610352</ele>
        <time>2019-11-30T15:07:43.000Z</time>
      </trkpt>
      <trkpt lat="43.64974" lon="5.39319">
        <ele>364.20001220703</ele>
        <time>2019-11-30T15:07:44.000Z</time>
      </trkpt>
      <trkpt lat="43.64977" lon="5.39314">
        <ele>364</ele>
        <time>2019-11-30T15:07:45.000Z</time>
      </trkpt>
      <trkpt lat="43.6498" lon="5.39308">
        <ele>363.79998779297</ele>
        <time>2019-11-30T15:07:46.000Z</time>
      </trkpt>
      <trkpt lat="43.64983" lon="5.39303">
        <ele>363.60000610352</ele>
        <time>2019-11-30T15:07:47.000Z</time>
      </trkpt>
      <trkpt lat="43.64985" lon="5.39297">
        <ele>363.39999389648</ele>
        <time>2019-11-30T15:07:48.000Z</time>
      </trkpt>
      <trkpt lat="43.64987" lon="5.3929">
        <ele>363.60000610352</ele>
        <time>2019-11-30T15:07:49.000Z</time>
      </trkpt>
      <trkpt lat="43.64989" lon="5.39283">
        <ele>363.60000610352</ele>
        <time>2019-11-30T15:07:50.000Z</time>
      </trkpt>
      <trkpt lat="43.64992" lon="5.39276">
        <ele>363.60000610352</ele>
        <time>2019-11-30T15:07:51.000Z</time>
      </trkpt>
      <trkpt lat="43.64995" lon="5.3927">
        <ele>363.79998779297</ele>
        <time>2019-11-30T15:07:52.000Z</time>
      </trkpt>
      <trkpt lat="43.64998" lon="5.39264">
        <ele>364.20001220703</ele>
        <time>2019-11-30T15:07:53.000Z</time>
      </trkpt>
      <trkpt lat="43.65001" lon="5.39259">
        <ele>364.39999389648</ele>
        <time>2019-11-30T15:07:54.000Z</time>
      </trkpt>
      <trkpt lat="43.65005" lon="5.39254">
        <ele>364.60000610352</ele>
        <time>2019-11-30T15:07:55.000Z</time>
      </trkpt>
      <trkpt lat="43.65008" lon="5.3925">
        <ele>364.79998779297</ele>
        <time>2019-11-30T15:07:56.000Z</time>
      </trkpt>
      <trkpt lat="43.65012" lon="5.39246">
        <ele>365</ele>
        <time>2019-11-30T15:07:57.000Z</time>
      </trkpt>
      <trkpt lat="43.65015" lon="5.39243">
        <ele>365</ele>
        <time>2019-11-30T15:07:58.000Z</time>
      </trkpt>
      <trkpt lat="43.65019" lon="5.39239">
        <ele>365</ele>
        <time>2019-11-30T15:07:59.000Z</time>
      </trkpt>
      <trkpt lat="43.65023" lon="5.39236">
        <ele>365</ele>
        <time>2019-11-30T15:08:00.000Z</time>
      </trkpt>
      <trkpt lat="43.65027" lon="5.39233">
        <ele>365</ele>
        <time>2019-11-30T15:08:01.000Z</time>
      </trkpt>
      <trkpt lat="43.6503" lon="5.39229">
        <ele>365.20001220703</ele>
        <time>2019-11-30T15:08:02.000Z</time>
      </trkpt>
      <trkpt lat="43.65034" lon="5.39226">
        <ele>365</ele>
        <time>2019-11-30T15:08:03.000Z</time>
      </trkpt>
      <trkpt lat="43.65037" lon="5.39223">
        <ele>364.79998779297</ele>
        <time>2019-11-30T15:08:04.000Z</time>
      </trkpt>
      <trkpt lat="43.6504" lon="5.3922">
        <ele>364.60000610352</ele>
        <time>2019-11-30T15:08:05.000Z</time>
      </trkpt>
      <trkpt lat="43.65043" lon="5.39216">
        <ele>364.39999389648</ele>
        <time>2019-11-30T15:08:06.000Z</time>
      </trkpt>
      <trkpt lat="43.65046" lon="5.39213">
        <ele>364.20001220703</ele>
        <time>2019-11-30T15:08:07.000Z</time>
      </trkpt>
      <trkpt lat="43.65049" lon="5.39209">
        <ele>364.20001220703</ele>
        <time>2019-11-30T15:08:08.000Z</time>
      </trkpt>
      <trkpt lat="43.65051" lon="5.39205">
        <ele>364.39999389648</ele>
        <time>2019-11-30T15:08:09.000Z</time>
      </trkpt>
      <trkpt lat="43.65053" lon="5.39201">
        <ele>364.39999389648</ele>
        <time>2019-11-30T15:08:10.000Z</time>
      </trkpt>
      <trkpt lat="43.65055" lon="5.39198">
        <ele>364.60000610352</ele>
        <time>2019-11-30T15:08:11.000Z</time>
      </trkpt>
      <trkpt lat="43.65057" lon="5.39193">
        <ele>364.60000610352</ele>
        <time>2019-11-30T15:08:12.000Z</time>
      </trkpt>
      <trkpt lat="43.65058" lon="5.39189">
        <ele>364.79998779297</ele>
        <time>2019-11-30T15:08:13.000Z</time>
      </trkpt>
      <trkpt lat="43.65059" lon="5.39185">
        <ele>365.20001220703</ele>
        <time>2019-11-30T15:08:14.000Z</time>
      </trkpt>
      <trkpt lat="43.65061" lon="5.3918">
        <ele>365.39999389648</ele>
        <time>2019-11-30T15:08:15.000Z</time>
      </trkpt>
      <trkpt lat="43.65063" lon="5.39176">
        <ele>365.39999389648</ele>
        <time>2019-11-30T15:08:16.000Z</time>
      </trkpt>
      <trkpt lat="43.65064" lon="5.39172">
        <ele>365.79998779297</ele>
        <time>2019-11-30T15:08:17.000Z</time>
      </trkpt>
      <trkpt lat="43.65066" lon="5.39167">
        <ele>366</ele>
        <time>2019-11-30T15:08:18.000Z</time>
      </trkpt>
      <trkpt lat="43.65068" lon="5.39163">
        <ele>366.20001220703</ele>
        <time>2019-11-30T15:08:19.000Z</time>
      </trkpt>
      <trkpt lat="43.65071" lon="5.39159">
        <ele>366.20001220703</ele>
        <time>2019-11-30T15:08:20.000Z</time>
      </trkpt>
      <trkpt lat="43.65073" lon="5.39155">
        <ele>366.39999389648</ele>
        <time>2019-11-30T15:08:21.000Z</time>
      </trkpt>
      <trkpt lat="43.65075" lon="5.39151">
        <ele>366.39999389648</ele>
        <time>2019-11-30T15:08:22.000Z</time>
      </trkpt>
      <trkpt lat="43.65078" lon="5.39148">
        <ele>366.60000610352</ele>
        <time>2019-11-30T15:08:23.000Z</time>
      </trkpt>
      <trkpt lat="43.65081" lon="5.39144">
        <ele>366.39999389648</ele>
        <time>2019-11-30T15:08:24.000Z</time>
      </trkpt>
      <trkpt lat="43.65084" lon="5.39141">
        <ele>366.39999389648</ele>
        <time>2019-11-30T15:08:25.000Z</time>
      </trkpt>
      <trkpt lat="43.65087" lon="5.39139">
        <ele>366.20001220703</ele>
        <time>2019-11-30T15:08:26.000Z</time>
      </trkpt>
      <trkpt lat="43.6509" lon="5.39136">
        <ele>366.20001220703</ele>
        <time>2019-11-30T15:08:27.000Z</time>
      </trkpt>
      <trkpt lat="43.65094" lon="5.39132">
        <ele>366</ele>
        <time>2019-11-30T15:08:28.000Z</time>
      </trkpt>
      <trkpt lat="43.65097" lon="5.39129">
        <ele>365.79998779297</ele>
        <time>2019-11-30T15:08:29.000Z</time>
      </trkpt>
      <trkpt lat="43.65101" lon="5.39126">
        <ele>365.60000610352</ele>
        <time>2019-11-30T15:08:30.000Z</time>
      </trkpt>
      <trkpt lat="43.65105" lon="5.39124">
        <ele>365.20001220703</ele>
        <time>2019-11-30T15:08:31.000Z</time>
      </trkpt>
      <trkpt lat="43.65108" lon="5.39121">
        <ele>364.79998779297</ele>
        <time>2019-11-30T15:08:32.000Z</time>
      </trkpt>
      <trkpt lat="43.65112" lon="5.39117">
        <ele>364.39999389648</ele>
        <time>2019-11-30T15:08:33.000Z</time>
      </trkpt>
      <trkpt lat="43.65114" lon="5.39113">
        <ele>364.20001220703</ele>
        <time>2019-11-30T15:08:34.000Z</time>
      </trkpt>
      <trkpt lat="43.65117" lon="5.39108">
        <ele>364.20001220703</ele>
        <time>2019-11-30T15:08:35.000Z</time>
      </trkpt>
      <trkpt lat="43.6512" lon="5.39104">
        <ele>364</ele>
        <time>2019-11-30T15:08:36.000Z</time>
      </trkpt>
      <trkpt lat="43.65122" lon="5.39099">
        <ele>364</ele>
        <time>2019-11-30T15:08:37.000Z</time>
      </trkpt>
      <trkpt lat="43.65125" lon="5.39094">
        <ele>364</ele>
        <time>2019-11-30T15:08:38.000Z</time>
      </trkpt>
      <trkpt lat="43.65127" lon="5.39088">
        <ele>364</ele>
        <time>2019-11-30T15:08:39.000Z</time>
      </trkpt>
      <trkpt lat="43.65129" lon="5.39083">
        <ele>364</ele>
        <time>2019-11-30T15:08:40.000Z</time>
      </trkpt>
      <trkpt lat="43.65131" lon="5.39077">
        <ele>364</ele>
        <time>2019-11-30T15:08:41.000Z</time>
      </trkpt>
      <trkpt lat="43.65133" lon="5.39072">
        <ele>364.20001220703</ele>
        <time>2019-11-30T15:08:42.000Z</time>
      </trkpt>
      <trkpt lat="43.65136" lon="5.39062">
        <ele>364.20001220703</ele>
        <time>2019-11-30T15:08:43.000Z</time>
      </trkpt>
      <trkpt lat="43.65136" lon="5.39062">
        <ele>364.20001220703</ele>
        <time>2019-11-30T15:08:44.000Z</time>
      </trkpt>
      <trkpt lat="43.65137" lon="5.39058">
        <ele>364.20001220703</ele>
        <time>2019-11-30T15:08:45.000Z</time>
      </trkpt>
      <trkpt lat="43.65139" lon="5.39053">
        <ele>364.20001220703</ele>
        <time>2019-11-30T15:08:46.000Z</time>
      </trkpt>
      <trkpt lat="43.6514" lon="5.39048">
        <ele>364.39999389648</ele>
        <time>2019-11-30T15:08:47.000Z</time>
      </trkpt>
      <trkpt lat="43.65142" lon="5.39043">
        <ele>364.20001220703</ele>
        <time>2019-11-30T15:08:48.000Z</time>
      </trkpt>
      <trkpt lat="43.65143" lon="5.39038">
        <ele>364</ele>
        <time>2019-11-30T15:08:49.000Z</time>
      </trkpt>
      <trkpt lat="43.65145" lon="5.39031">
        <ele>363.79998779297</ele>
        <time>2019-11-30T15:08:50.000Z</time>
      </trkpt>
      <trkpt lat="43.65149" lon="5.39024">
        <ele>363.20001220703</ele>
        <time>2019-11-30T15:08:51.000Z</time>
      </trkpt>
      <trkpt lat="43.65152" lon="5.39018">
        <ele>362.60000610352</ele>
        <time>2019-11-30T15:08:52.000Z</time>
      </trkpt>
      <trkpt lat="43.65155" lon="5.39013">
        <ele>362.20001220703</ele>
        <time>2019-11-30T15:08:53.000Z</time>
      </trkpt>
      <trkpt lat="43.65158" lon="5.39008">
        <ele>361.79998779297</ele>
        <time>2019-11-30T15:08:54.000Z</time>
      </trkpt>
      <trkpt lat="43.65161" lon="5.39004">
        <ele>361.39999389648</ele>
        <time>2019-11-30T15:08:55.000Z</time>
      </trkpt>
      <trkpt lat="43.65163" lon="5.38999">
        <ele>361.20001220703</ele>
        <time>2019-11-30T15:08:56.000Z</time>
      </trkpt>
      <trkpt lat="43.65166" lon="5.38995">
        <ele>360.79998779297</ele>
        <time>2019-11-30T15:08:57.000Z</time>
      </trkpt>
      <trkpt lat="43.65168" lon="5.3899">
        <ele>360.60000610352</ele>
        <time>2019-11-30T15:08:58.000Z</time>
      </trkpt>
      <trkpt lat="43.65169" lon="5.38985">
        <ele>360.60000610352</ele>
        <time>2019-11-30T15:08:59.000Z</time>
      </trkpt>
      <trkpt lat="43.65169" lon="5.3898">
        <ele>360.60000610352</ele>
        <time>2019-11-30T15:09:00.000Z</time>
      </trkpt>
      <trkpt lat="43.6517" lon="5.38976">
        <ele>360.79998779297</ele>
        <time>2019-11-30T15:09:01.000Z</time>
      </trkpt>
      <trkpt lat="43.6517" lon="5.38971">
        <ele>360.79998779297</ele>
        <time>2019-11-30T15:09:02.000Z</time>
      </trkpt>
      <trkpt lat="43.6517" lon="5.38967">
        <ele>361</ele>
        <time>2019-11-30T15:09:03.000Z</time>
      </trkpt>
      <trkpt lat="43.65171" lon="5.38963">
        <ele>360.79998779297</ele>
        <time>2019-11-30T15:09:04.000Z</time>
      </trkpt>
      <trkpt lat="43.65171" lon="5.38958">
        <ele>360.60000610352</ele>
        <time>2019-11-30T15:09:05.000Z</time>
      </trkpt>
      <trkpt lat="43.65172" lon="5.38954">
        <ele>360.39999389648</ele>
        <time>2019-11-30T15:09:06.000Z</time>
      </trkpt>
      <trkpt lat="43.65172" lon="5.38949">
        <ele>360.20001220703</ele>
        <time>2019-11-30T15:09:07.000Z</time>
      </trkpt>
      <trkpt lat="43.65173" lon="5.38943">
        <ele>360</ele>
        <time>2019-11-30T15:09:08.000Z</time>
      </trkpt>
      <trkpt lat="43.65173" lon="5.38937">
        <ele>359.79998779297</ele>
        <time>2019-11-30T15:09:09.000Z</time>
      </trkpt>
      <trkpt lat="43.65174" lon="5.3893">
        <ele>359.60000610352</ele>
        <time>2019-11-30T15:09:10.000Z</time>
      </trkpt>
      <trkpt lat="43.65173" lon="5.38921">
        <ele>359.60000610352</ele>
        <time>2019-11-30T15:09:11.000Z</time>
      </trkpt>
      <trkpt lat="43.6517" lon="5.38913">
        <ele>360</ele>
        <time>2019-11-30T15:09:12.000Z</time>
      </trkpt>
      <trkpt lat="43.65168" lon="5.38906">
        <ele>360.39999389648</ele>
        <time>2019-11-30T15:09:13.000Z</time>
      </trkpt>
      <trkpt lat="43.65165" lon="5.38899">
        <ele>360.79998779297</ele>
        <time>2019-11-30T15:09:14.000Z</time>
      </trkpt>
      <trkpt lat="43.65162" lon="5.38892">
        <ele>361</ele>
        <time>2019-11-30T15:09:15.000Z</time>
      </trkpt>
      <trkpt lat="43.6516" lon="5.38885">
        <ele>361.39999389648</ele>
        <time>2019-11-30T15:09:16.000Z</time>
      </trkpt>
      <trkpt lat="43.65158" lon="5.38878">
        <ele>361.60000610352</ele>
        <time>2019-11-30T15:09:17.000Z</time>
      </trkpt>
      <trkpt lat="43.65155" lon="5.38872">
        <ele>361.79998779297</ele>
        <time>2019-11-30T15:09:18.000Z</time>
      </trkpt>
      <trkpt lat="43.65153" lon="5.38866">
        <ele>362</ele>
        <time>2019-11-30T15:09:19.000Z</time>
      </trkpt>
      <trkpt lat="43.65151" lon="5.3886">
        <ele>362</ele>
        <time>2019-11-30T15:09:20.000Z</time>
      </trkpt>
      <trkpt lat="43.65149" lon="5.38854">
        <ele>362.20001220703</ele>
        <time>2019-11-30T15:09:21.000Z</time>
      </trkpt>
      <trkpt lat="43.65147" lon="5.38849">
        <ele>362.39999389648</ele>
        <time>2019-11-30T15:09:22.000Z</time>
      </trkpt>
      <trkpt lat="43.65145" lon="5.38843">
        <ele>362.39999389648</ele>
        <time>2019-11-30T15:09:23.000Z</time>
      </trkpt>
      <trkpt lat="43.65143" lon="5.38837">
        <ele>362.60000610352</ele>
        <time>2019-11-30T15:09:24.000Z</time>
      </trkpt>
      <trkpt lat="43.65141" lon="5.3883">
        <ele>362.60000610352</ele>
        <time>2019-11-30T15:09:25.000Z</time>
      </trkpt>
      <trkpt lat="43.65138" lon="5.38824">
        <ele>362.60000610352</ele>
        <time>2019-11-30T15:09:26.000Z</time>
      </trkpt>
      <trkpt lat="43.65136" lon="5.38819">
        <ele>362.60000610352</ele>
        <time>2019-11-30T15:09:27.000Z</time>
      </trkpt>
      <trkpt lat="43.65134" lon="5.38813">
        <ele>362.60000610352</ele>
        <time>2019-11-30T15:09:28.000Z</time>
      </trkpt>
      <trkpt lat="43.65132" lon="5.38808">
        <ele>362.60000610352</ele>
        <time>2019-11-30T15:09:29.000Z</time>
      </trkpt>
      <trkpt lat="43.65131" lon="5.38803">
        <ele>362.60000610352</ele>
        <time>2019-11-30T15:09:30.000Z</time>
      </trkpt>
      <trkpt lat="43.65129" lon="5.38798">
        <ele>362.60000610352</ele>
        <time>2019-11-30T15:09:31.000Z</time>
      </trkpt>
      <trkpt lat="43.65127" lon="5.38793">
        <ele>363</ele>
        <time>2019-11-30T15:09:32.000Z</time>
      </trkpt>
      <trkpt lat="43.65126" lon="5.38789">
        <ele>363.39999389648</ele>
        <time>2019-11-30T15:09:33.000Z</time>
      </trkpt>
      <trkpt lat="43.65124" lon="5.38785">
        <ele>363.79998779297</ele>
        <time>2019-11-30T15:09:34.000Z</time>
      </trkpt>
      <trkpt lat="43.65124" lon="5.38782">
        <ele>364</ele>
        <time>2019-11-30T15:09:35.000Z</time>
      </trkpt>
      <trkpt lat="43.65123" lon="5.38776">
        <ele>364</ele>
        <time>2019-11-30T15:09:36.000Z</time>
      </trkpt>
      <trkpt lat="43.65123" lon="5.38771">
        <ele>364.20001220703</ele>
        <time>2019-11-30T15:09:37.000Z</time>
      </trkpt>
      <trkpt lat="43.65123" lon="5.38767">
        <ele>364.20001220703</ele>
        <time>2019-11-30T15:09:38.000Z</time>
      </trkpt>
      <trkpt lat="43.65123" lon="5.38762">
        <ele>364.39999389648</ele>
        <time>2019-11-30T15:09:39.000Z</time>
      </trkpt>
      <trkpt lat="43.65122" lon="5.38758">
        <ele>364.39999389648</ele>
        <time>2019-11-30T15:09:40.000Z</time>
      </trkpt>
      <trkpt lat="43.65122" lon="5.38754">
        <ele>364.60000610352</ele>
        <time>2019-11-30T15:09:41.000Z</time>
      </trkpt>
      <trkpt lat="43.65122" lon="5.3875">
        <ele>364.60000610352</ele>
        <time>2019-11-30T15:09:42.000Z</time>
      </trkpt>
      <trkpt lat="43.65122" lon="5.38746">
        <ele>364.60000610352</ele>
        <time>2019-11-30T15:09:43.000Z</time>
      </trkpt>
      <trkpt lat="43.65122" lon="5.38742">
        <ele>364.79998779297</ele>
        <time>2019-11-30T15:09:44.000Z</time>
      </trkpt>
      <trkpt lat="43.65122" lon="5.38739">
        <ele>364.79998779297</ele>
        <time>2019-11-30T15:09:45.000Z</time>
      </trkpt>
      <trkpt lat="43.65122" lon="5.38736">
        <ele>364.79998779297</ele>
        <time>2019-11-30T15:09:46.000Z</time>
      </trkpt>
      <trkpt lat="43.65121" lon="5.38733">
        <ele>365</ele>
        <time>2019-11-30T15:09:47.000Z</time>
      </trkpt>
      <trkpt lat="43.65121" lon="5.38729">
        <ele>365.20001220703</ele>
        <time>2019-11-30T15:09:48.000Z</time>
      </trkpt>
      <trkpt lat="43.65121" lon="5.38726">
        <ele>365.39999389648</ele>
        <time>2019-11-30T15:09:49.000Z</time>
      </trkpt>
      <trkpt lat="43.65121" lon="5.38723">
        <ele>365.60000610352</ele>
        <time>2019-11-30T15:09:50.000Z</time>
      </trkpt>
      <trkpt lat="43.65121" lon="5.3872">
        <ele>365.79998779297</ele>
        <time>2019-11-30T15:09:51.000Z</time>
      </trkpt>
      <trkpt lat="43.65121" lon="5.3872">
        <ele>365.60000610352</ele>
        <time>2019-11-30T15:09:52.000Z</time>
      </trkpt>
      <trkpt lat="43.65118" lon="5.38716">
        <ele>366.20001220703</ele>
        <time>2019-11-30T15:09:53.000Z</time>
      </trkpt>
      <trkpt lat="43.65117" lon="5.38713">
        <ele>366.60000610352</ele>
        <time>2019-11-30T15:09:54.000Z</time>
      </trkpt>
      <trkpt lat="43.65116" lon="5.38711">
        <ele>367</ele>
        <time>2019-11-30T15:09:55.000Z</time>
      </trkpt>
      <trkpt lat="43.65114" lon="5.38708">
        <ele>367.20001220703</ele>
        <time>2019-11-30T15:09:56.000Z</time>
      </trkpt>
      <trkpt lat="43.65113" lon="5.38706">
        <ele>367.60000610352</ele>
        <time>2019-11-30T15:09:57.000Z</time>
      </trkpt>
      <trkpt lat="43.65111" lon="5.38703">
        <ele>368</ele>
        <time>2019-11-30T15:09:58.000Z</time>
      </trkpt>
      <trkpt lat="43.6511" lon="5.387">
        <ele>368.39999389648</ele>
        <time>2019-11-30T15:09:59.000Z</time>
      </trkpt>
      <trkpt lat="43.65108" lon="5.38697">
        <ele>368.60000610352</ele>
        <time>2019-11-30T15:10:00.000Z</time>
      </trkpt>
      <trkpt lat="43.65107" lon="5.38695">
        <ele>369</ele>
        <time>2019-11-30T15:10:01.000Z</time>
      </trkpt>
      <trkpt lat="43.65105" lon="5.38692">
        <ele>369.39999389648</ele>
        <time>2019-11-30T15:10:02.000Z</time>
      </trkpt>
      <trkpt lat="43.65104" lon="5.38689">
        <ele>369.79998779297</ele>
        <time>2019-11-30T15:10:03.000Z</time>
      </trkpt>
      <trkpt lat="43.65102" lon="5.38687">
        <ele>370</ele>
        <time>2019-11-30T15:10:04.000Z</time>
      </trkpt>
      <trkpt lat="43.65101" lon="5.38685">
        <ele>370</ele>
        <time>2019-11-30T15:10:05.000Z</time>
      </trkpt>
      <trkpt lat="43.651" lon="5.38683">
        <ele>370</ele>
        <time>2019-11-30T15:10:06.000Z</time>
      </trkpt>
      <trkpt lat="43.651" lon="5.38683">
        <ele>370</ele>
        <time>2019-11-30T15:10:07.000Z</time>
      </trkpt>
      <trkpt lat="43.651" lon="5.38683">
        <ele>370</ele>
        <time>2019-11-30T15:10:08.000Z</time>
      </trkpt>
      <trkpt lat="43.65101" lon="5.38684">
        <ele>370</ele>
        <time>2019-11-30T15:10:09.000Z</time>
      </trkpt>
      <trkpt lat="43.651" lon="5.38683">
        <ele>370</ele>
        <time>2019-11-30T15:10:10.000Z</time>
      </trkpt>
      <trkpt lat="43.651" lon="5.38683">
        <ele>370</ele>
        <time>2019-11-30T15:10:11.000Z</time>
      </trkpt>
      <trkpt lat="43.651" lon="5.38683">
        <ele>370</ele>
        <time>2019-11-30T15:10:12.000Z</time>
      </trkpt>
      <trkpt lat="43.651" lon="5.38683">
        <ele>370</ele>
        <time>2019-11-30T15:10:13.000Z</time>
      </trkpt>
      <trkpt lat="43.65099" lon="5.38682">
        <ele>370.20001220703</ele>
        <time>2019-11-30T15:10:14.000Z</time>
      </trkpt>
      <trkpt lat="43.65099" lon="5.3868">
        <ele>370.20001220703</ele>
        <time>2019-11-30T15:10:15.000Z</time>
      </trkpt>
      <trkpt lat="43.65098" lon="5.38679">
        <ele>370.20001220703</ele>
        <time>2019-11-30T15:10:16.000Z</time>
      </trkpt>
      <trkpt lat="43.65097" lon="5.38678">
        <ele>370.20001220703</ele>
        <time>2019-11-30T15:10:17.000Z</time>
      </trkpt>
      <trkpt lat="43.65097" lon="5.38676">
        <ele>370.20001220703</ele>
        <time>2019-11-30T15:10:18.000Z</time>
      </trkpt>
      <trkpt lat="43.65096" lon="5.38675">
        <ele>370.20001220703</ele>
        <time>2019-11-30T15:10:19.000Z</time>
      </trkpt>
      <trkpt lat="43.65095" lon="5.38674">
        <ele>370.20001220703</ele>
        <time>2019-11-30T15:10:20.000Z</time>
      </trkpt>
      <trkpt lat="43.65095" lon="5.38673">
        <ele>370.39999389648</ele>
        <time>2019-11-30T15:10:21.000Z</time>
      </trkpt>
      <trkpt lat="43.65095" lon="5.38673">
        <ele>370.39999389648</ele>
        <time>2019-11-30T15:10:22.000Z</time>
      </trkpt>
      <trkpt lat="43.65095" lon="5.38673">
        <ele>370.39999389648</ele>
        <time>2019-11-30T15:10:23.000Z</time>
      </trkpt>
      <trkpt lat="43.65095" lon="5.38673">
        <ele>370.39999389648</ele>
        <time>2019-11-30T15:10:24.000Z</time>
      </trkpt>
      <trkpt lat="43.65095" lon="5.38673">
        <ele>370.39999389648</ele>
        <time>2019-11-30T15:10:25.000Z</time>
      </trkpt>
      <trkpt lat="43.65095" lon="5.38673">
        <ele>370.39999389648</ele>
        <time>2019-11-30T15:10:26.000Z</time>
      </trkpt>
      <trkpt lat="43.65095" lon="5.38673">
        <ele>370.39999389648</ele>
        <time>2019-11-30T15:10:27.000Z</time>
      </trkpt>
      <trkpt lat="43.65094" lon="5.38673">
        <ele>370.39999389648</ele>
        <time>2019-11-30T15:10:28.000Z</time>
      </trkpt>
      <trkpt lat="43.65094" lon="5.38672">
        <ele>370.39999389648</ele>
        <time>2019-11-30T15:10:29.000Z</time>
      </trkpt>
      <trkpt lat="43.65093" lon="5.3867">
        <ele>370.39999389648</ele>
        <time>2019-11-30T15:10:30.000Z</time>
      </trkpt>
      <trkpt lat="43.65091" lon="5.38667">
        <ele>370.39999389648</ele>
        <time>2019-11-30T15:10:31.000Z</time>
      </trkpt>
      <trkpt lat="43.6509" lon="5.38665">
        <ele>370.39999389648</ele>
        <time>2019-11-30T15:10:32.000Z</time>
      </trkpt>
      <trkpt lat="43.65089" lon="5.38664">
        <ele>370.60000610352</ele>
        <time>2019-11-30T15:10:33.000Z</time>
      </trkpt>
      <trkpt lat="43.65089" lon="5.38662">
        <ele>370.60000610352</ele>
        <time>2019-11-30T15:10:34.000Z</time>
      </trkpt>
      <trkpt lat="43.65089" lon="5.38661">
        <ele>370.60000610352</ele>
        <time>2019-11-30T15:10:35.000Z</time>
      </trkpt>
      <trkpt lat="43.65089" lon="5.38661">
        <ele>370.60000610352</ele>
        <time>2019-11-30T15:10:36.000Z</time>
      </trkpt>
      <trkpt lat="43.65089" lon="5.38661">
        <ele>370.60000610352</ele>
        <time>2019-11-30T15:10:37.000Z</time>
      </trkpt>
      <trkpt lat="43.65088" lon="5.3866">
        <ele>370.60000610352</ele>
        <time>2019-11-30T15:10:38.000Z</time>
      </trkpt>
      <trkpt lat="43.65088" lon="5.38659">
        <ele>370.60000610352</ele>
        <time>2019-11-30T15:10:39.000Z</time>
      </trkpt>
      <trkpt lat="43.65088" lon="5.38659">
        <ele>370.60000610352</ele>
        <time>2019-11-30T15:10:40.000Z</time>
      </trkpt>
      <trkpt lat="43.65088" lon="5.38658">
        <ele>370.60000610352</ele>
        <time>2019-11-30T15:10:41.000Z</time>
      </trkpt>
      <trkpt lat="43.65087" lon="5.38657">
        <ele>370.79998779297</ele>
        <time>2019-11-30T15:10:42.000Z</time>
      </trkpt>
      <trkpt lat="43.65093" lon="5.38653">
        <ele>371</ele>
        <time>2019-11-30T15:10:43.000Z</time>
      </trkpt>
      <trkpt lat="43.65094" lon="5.38651">
        <ele>371.20001220703</ele>
        <time>2019-11-30T15:10:44.000Z</time>
      </trkpt>
      <trkpt lat="43.65095" lon="5.38648">
        <ele>371.20001220703</ele>
        <time>2019-11-30T15:10:45.000Z</time>
      </trkpt>
      <trkpt lat="43.65096" lon="5.38645">
        <ele>371.39999389648</ele>
        <time>2019-11-30T15:10:46.000Z</time>
      </trkpt>
      <trkpt lat="43.65097" lon="5.38642">
        <ele>371.39999389648</ele>
        <time>2019-11-30T15:10:47.000Z</time>
      </trkpt>
      <trkpt lat="43.65098" lon="5.38639">
        <ele>371.60000610352</ele>
        <time>2019-11-30T15:10:48.000Z</time>
      </trkpt>
      <trkpt lat="43.65099" lon="5.38635">
        <ele>371.79998779297</ele>
        <time>2019-11-30T15:10:49.000Z</time>
      </trkpt>
      <trkpt lat="43.651" lon="5.3863">
        <ele>372</ele>
        <time>2019-11-30T15:10:50.000Z</time>
      </trkpt>
      <trkpt lat="43.65102" lon="5.38625">
        <ele>371.79998779297</ele>
        <time>2019-11-30T15:10:51.000Z</time>
      </trkpt>
      <trkpt lat="43.65103" lon="5.38619">
        <ele>371.79998779297</ele>
        <time>2019-11-30T15:10:52.000Z</time>
      </trkpt>
      <trkpt lat="43.65105" lon="5.38612">
        <ele>371.60000610352</ele>
        <time>2019-11-30T15:10:53.000Z</time>
      </trkpt>
      <trkpt lat="43.65106" lon="5.38606">
        <ele>371.60000610352</ele>
        <time>2019-11-30T15:10:54.000Z</time>
      </trkpt>
      <trkpt lat="43.65108" lon="5.386">
        <ele>371.39999389648</ele>
        <time>2019-11-30T15:10:55.000Z</time>
      </trkpt>
      <trkpt lat="43.65109" lon="5.38593">
        <ele>371.20001220703</ele>
        <time>2019-11-30T15:10:56.000Z</time>
      </trkpt>
      <trkpt lat="43.65111" lon="5.38587">
        <ele>371</ele>
        <time>2019-11-30T15:10:57.000Z</time>
      </trkpt>
      <trkpt lat="43.65112" lon="5.3858">
        <ele>371</ele>
        <time>2019-11-30T15:10:58.000Z</time>
      </trkpt>
      <trkpt lat="43.65114" lon="5.38574">
        <ele>370.79998779297</ele>
        <time>2019-11-30T15:10:59.000Z</time>
      </trkpt>
      <trkpt lat="43.65114" lon="5.38569">
        <ele>370.60000610352</ele>
        <time>2019-11-30T15:11:00.000Z</time>
      </trkpt>
      <trkpt lat="43.65116" lon="5.38562">
        <ele>370.60000610352</ele>
        <time>2019-11-30T15:11:01.000Z</time>
      </trkpt>
      <trkpt lat="43.65118" lon="5.38556">
        <ele>371</ele>
        <time>2019-11-30T15:11:02.000Z</time>
      </trkpt>
      <trkpt lat="43.65119" lon="5.38549">
        <ele>371.79998779297</ele>
        <time>2019-11-30T15:11:03.000Z</time>
      </trkpt>
      <trkpt lat="43.65121" lon="5.38543">
        <ele>371.79998779297</ele>
        <time>2019-11-30T15:11:04.000Z</time>
      </trkpt>
      <trkpt lat="43.65122" lon="5.38536">
        <ele>372</ele>
        <time>2019-11-30T15:11:05.000Z</time>
      </trkpt>
      <trkpt lat="43.65124" lon="5.3853">
        <ele>372</ele>
        <time>2019-11-30T15:11:06.000Z</time>
      </trkpt>
      <trkpt lat="43.65125" lon="5.38523">
        <ele>372</ele>
        <time>2019-11-30T15:11:07.000Z</time>
      </trkpt>
      <trkpt lat="43.65127" lon="5.38517">
        <ele>372.20001220703</ele>
        <time>2019-11-30T15:11:08.000Z</time>
      </trkpt>
      <trkpt lat="43.65128" lon="5.3851">
        <ele>372.20001220703</ele>
        <time>2019-11-30T15:11:09.000Z</time>
      </trkpt>
      <trkpt lat="43.6513" lon="5.38503">
        <ele>372.39999389648</ele>
        <time>2019-11-30T15:11:10.000Z</time>
      </trkpt>
      <trkpt lat="43.65132" lon="5.38496">
        <ele>372.39999389648</ele>
        <time>2019-11-30T15:11:11.000Z</time>
      </trkpt>
      <trkpt lat="43.65133" lon="5.38489">
        <ele>372.39999389648</ele>
        <time>2019-11-30T15:11:12.000Z</time>
      </trkpt>
      <trkpt lat="43.65135" lon="5.38481">
        <ele>372.60000610352</ele>
        <time>2019-11-30T15:11:13.000Z</time>
      </trkpt>
      <trkpt lat="43.65137" lon="5.38473">
        <ele>372.60000610352</ele>
        <time>2019-11-30T15:11:14.000Z</time>
      </trkpt>
      <trkpt lat="43.65139" lon="5.38466">
        <ele>372.79998779297</ele>
        <time>2019-11-30T15:11:15.000Z</time>
      </trkpt>
      <trkpt lat="43.65141" lon="5.38458">
        <ele>372.39999389648</ele>
        <time>2019-11-30T15:11:16.000Z</time>
      </trkpt>
      <trkpt lat="43.65142" lon="5.38451">
        <ele>372</ele>
        <time>2019-11-30T15:11:17.000Z</time>
      </trkpt>
      <trkpt lat="43.65144" lon="5.38444">
        <ele>371.60000610352</ele>
        <time>2019-11-30T15:11:18.000Z</time>
      </trkpt>
      <trkpt lat="43.65146" lon="5.38437">
        <ele>371</ele>
        <time>2019-11-30T15:11:19.000Z</time>
      </trkpt>
      <trkpt lat="43.65147" lon="5.38431">
        <ele>370.60000610352</ele>
        <time>2019-11-30T15:11:20.000Z</time>
      </trkpt>
      <trkpt lat="43.65149" lon="5.38424">
        <ele>370.39999389648</ele>
        <time>2019-11-30T15:11:21.000Z</time>
      </trkpt>
      <trkpt lat="43.6515" lon="5.38417">
        <ele>370.39999389648</ele>
        <time>2019-11-30T15:11:22.000Z</time>
      </trkpt>
      <trkpt lat="43.65152" lon="5.3841">
        <ele>370.39999389648</ele>
        <time>2019-11-30T15:11:23.000Z</time>
      </trkpt>
      <trkpt lat="43.65154" lon="5.38403">
        <ele>370.39999389648</ele>
        <time>2019-11-30T15:11:24.000Z</time>
      </trkpt>
      <trkpt lat="43.65155" lon="5.38398">
        <ele>370.39999389648</ele>
        <time>2019-11-30T15:11:25.000Z</time>
      </trkpt>
      <trkpt lat="43.65156" lon="5.38393">
        <ele>370.39999389648</ele>
        <time>2019-11-30T15:11:26.000Z</time>
      </trkpt>
      <trkpt lat="43.65158" lon="5.38387">
        <ele>370.39999389648</ele>
        <time>2019-11-30T15:11:27.000Z</time>
      </trkpt>
      <trkpt lat="43.65159" lon="5.3838">
        <ele>370.39999389648</ele>
        <time>2019-11-30T15:11:28.000Z</time>
      </trkpt>
      <trkpt lat="43.65161" lon="5.38373">
        <ele>370.20001220703</ele>
        <time>2019-11-30T15:11:29.000Z</time>
      </trkpt>
      <trkpt lat="43.65162" lon="5.38367">
        <ele>370</ele>
        <time>2019-11-30T15:11:30.000Z</time>
      </trkpt>
      <trkpt lat="43.65164" lon="5.3836">
        <ele>369.79998779297</ele>
        <time>2019-11-30T15:11:31.000Z</time>
      </trkpt>
      <trkpt lat="43.65166" lon="5.38353">
        <ele>369.79998779297</ele>
        <time>2019-11-30T15:11:32.000Z</time>
      </trkpt>
      <trkpt lat="43.65167" lon="5.38345">
        <ele>369.60000610352</ele>
        <time>2019-11-30T15:11:33.000Z</time>
      </trkpt>
      <trkpt lat="43.65169" lon="5.38338">
        <ele>369.60000610352</ele>
        <time>2019-11-30T15:11:34.000Z</time>
      </trkpt>
      <trkpt lat="43.65171" lon="5.38331">
        <ele>369.60000610352</ele>
        <time>2019-11-30T15:11:35.000Z</time>
      </trkpt>
      <trkpt lat="43.65173" lon="5.38324">
        <ele>369.39999389648</ele>
        <time>2019-11-30T15:11:36.000Z</time>
      </trkpt>
      <trkpt lat="43.65174" lon="5.38317">
        <ele>369.39999389648</ele>
        <time>2019-11-30T15:11:37.000Z</time>
      </trkpt>
      <trkpt lat="43.65176" lon="5.3831">
        <ele>369.39999389648</ele>
        <time>2019-11-30T15:11:38.000Z</time>
      </trkpt>
      <trkpt lat="43.65177" lon="5.38303">
        <ele>369.20001220703</ele>
        <time>2019-11-30T15:11:39.000Z</time>
      </trkpt>
      <trkpt lat="43.65179" lon="5.38296">
        <ele>369.20001220703</ele>
        <time>2019-11-30T15:11:40.000Z</time>
      </trkpt>
      <trkpt lat="43.65181" lon="5.38289">
        <ele>369.20001220703</ele>
        <time>2019-11-30T15:11:41.000Z</time>
      </trkpt>
      <trkpt lat="43.65182" lon="5.38282">
        <ele>369</ele>
        <time>2019-11-30T15:11:42.000Z</time>
      </trkpt>
      <trkpt lat="43.65184" lon="5.38276">
        <ele>369</ele>
        <time>2019-11-30T15:11:43.000Z</time>
      </trkpt>
      <trkpt lat="43.65185" lon="5.3827">
        <ele>369</ele>
        <time>2019-11-30T15:11:44.000Z</time>
      </trkpt>
      <trkpt lat="43.65186" lon="5.38265">
        <ele>368.79998779297</ele>
        <time>2019-11-30T15:11:45.000Z</time>
      </trkpt>
      <trkpt lat="43.65188" lon="5.3826">
        <ele>368.79998779297</ele>
        <time>2019-11-30T15:11:46.000Z</time>
      </trkpt>
      <trkpt lat="43.65189" lon="5.38254">
        <ele>368.79998779297</ele>
        <time>2019-11-30T15:11:47.000Z</time>
      </trkpt>
      <trkpt lat="43.6519" lon="5.38248">
        <ele>368.79998779297</ele>
        <time>2019-11-30T15:11:48.000Z</time>
      </trkpt>
      <trkpt lat="43.65192" lon="5.38243">
        <ele>369</ele>
        <time>2019-11-30T15:11:49.000Z</time>
      </trkpt>
      <trkpt lat="43.65193" lon="5.38237">
        <ele>368.79998779297</ele>
        <time>2019-11-30T15:11:50.000Z</time>
      </trkpt>
      <trkpt lat="43.65193" lon="5.38232">
        <ele>368.79998779297</ele>
        <time>2019-11-30T15:11:51.000Z</time>
      </trkpt>
      <trkpt lat="43.65194" lon="5.38226">
        <ele>368.79998779297</ele>
        <time>2019-11-30T15:11:52.000Z</time>
      </trkpt>
      <trkpt lat="43.65195" lon="5.38221">
        <ele>368.60000610352</ele>
        <time>2019-11-30T15:11:53.000Z</time>
      </trkpt>
      <trkpt lat="43.65196" lon="5.38215">
        <ele>368.60000610352</ele>
        <time>2019-11-30T15:11:54.000Z</time>
      </trkpt>
      <trkpt lat="43.65197" lon="5.38209">
        <ele>368.60000610352</ele>
        <time>2019-11-30T15:11:55.000Z</time>
      </trkpt>
      <trkpt lat="43.65198" lon="5.38203">
        <ele>368.60000610352</ele>
        <time>2019-11-30T15:11:56.000Z</time>
      </trkpt>
      <trkpt lat="43.65199" lon="5.38197">
        <ele>368.60000610352</ele>
        <time>2019-11-30T15:11:57.000Z</time>
      </trkpt>
      <trkpt lat="43.652" lon="5.38191">
        <ele>368.60000610352</ele>
        <time>2019-11-30T15:11:58.000Z</time>
      </trkpt>
      <trkpt lat="43.65201" lon="5.38184">
        <ele>368.60000610352</ele>
        <time>2019-11-30T15:11:59.000Z</time>
      </trkpt>
      <trkpt lat="43.65202" lon="5.38177">
        <ele>368.60000610352</ele>
        <time>2019-11-30T15:12:00.000Z</time>
      </trkpt>
      <trkpt lat="43.65203" lon="5.38172">
        <ele>368.60000610352</ele>
        <time>2019-11-30T15:12:01.000Z</time>
      </trkpt>
      <trkpt lat="43.65204" lon="5.38167">
        <ele>368.60000610352</ele>
        <time>2019-11-30T15:12:02.000Z</time>
      </trkpt>
      <trkpt lat="43.65205" lon="5.38161">
        <ele>368.60000610352</ele>
        <time>2019-11-30T15:12:03.000Z</time>
      </trkpt>
      <trkpt lat="43.65205" lon="5.38156">
        <ele>368.60000610352</ele>
        <time>2019-11-30T15:12:04.000Z</time>
      </trkpt>
      <trkpt lat="43.65206" lon="5.3815">
        <ele>368.60000610352</ele>
        <time>2019-11-30T15:12:05.000Z</time>
      </trkpt>
      <trkpt lat="43.65207" lon="5.38144">
        <ele>368.60000610352</ele>
        <time>2019-11-30T15:12:06.000Z</time>
      </trkpt>
      <trkpt lat="43.65209" lon="5.38139">
        <ele>368.60000610352</ele>
        <time>2019-11-30T15:12:07.000Z</time>
      </trkpt>
      <trkpt lat="43.6521" lon="5.38134">
        <ele>368.60000610352</ele>
        <time>2019-11-30T15:12:08.000Z</time>
      </trkpt>
      <trkpt lat="43.65211" lon="5.38128">
        <ele>368.60000610352</ele>
        <time>2019-11-30T15:12:09.000Z</time>
      </trkpt>
      <trkpt lat="43.65213" lon="5.38123">
        <ele>368.79998779297</ele>
        <time>2019-11-30T15:12:10.000Z</time>
      </trkpt>
      <trkpt lat="43.65214" lon="5.38118">
        <ele>368.79998779297</ele>
        <time>2019-11-30T15:12:11.000Z</time>
      </trkpt>
      <trkpt lat="43.65215" lon="5.38112">
        <ele>369</ele>
        <time>2019-11-30T15:12:12.000Z</time>
      </trkpt>
      <trkpt lat="43.65217" lon="5.38106">
        <ele>369.20001220703</ele>
        <time>2019-11-30T15:12:13.000Z</time>
      </trkpt>
      <trkpt lat="43.65218" lon="5.38101">
        <ele>369.20001220703</ele>
        <time>2019-11-30T15:12:14.000Z</time>
      </trkpt>
      <trkpt lat="43.65219" lon="5.38096">
        <ele>369.39999389648</ele>
        <time>2019-11-30T15:12:15.000Z</time>
      </trkpt>
      <trkpt lat="43.65221" lon="5.3809">
        <ele>369.60000610352</ele>
        <time>2019-11-30T15:12:16.000Z</time>
      </trkpt>
      <trkpt lat="43.65222" lon="5.38084">
        <ele>369.60000610352</ele>
        <time>2019-11-30T15:12:17.000Z</time>
      </trkpt>
      <trkpt lat="43.65224" lon="5.38077">
        <ele>369.20001220703</ele>
        <time>2019-11-30T15:12:18.000Z</time>
      </trkpt>
      <trkpt lat="43.65226" lon="5.3807">
        <ele>368.79998779297</ele>
        <time>2019-11-30T15:12:19.000Z</time>
      </trkpt>
      <trkpt lat="43.65228" lon="5.38063">
        <ele>368.20001220703</ele>
        <time>2019-11-30T15:12:20.000Z</time>
      </trkpt>
      <trkpt lat="43.65229" lon="5.38056">
        <ele>367.79998779297</ele>
        <time>2019-11-30T15:12:21.000Z</time>
      </trkpt>
      <trkpt lat="43.65231" lon="5.38049">
        <ele>367.39999389648</ele>
        <time>2019-11-30T15:12:22.000Z</time>
      </trkpt>
      <trkpt lat="43.6523" lon="5.38042">
        <ele>367.20001220703</ele>
        <time>2019-11-30T15:12:23.000Z</time>
      </trkpt>
      <trkpt lat="43.6523" lon="5.38035">
        <ele>367.20001220703</ele>
        <time>2019-11-30T15:12:24.000Z</time>
      </trkpt>
      <trkpt lat="43.65229" lon="5.38027">
        <ele>367.20001220703</ele>
        <time>2019-11-30T15:12:25.000Z</time>
      </trkpt>
      <trkpt lat="43.65229" lon="5.3802">
        <ele>367</ele>
        <time>2019-11-30T15:12:26.000Z</time>
      </trkpt>
      <trkpt lat="43.65228" lon="5.38013">
        <ele>367</ele>
        <time>2019-11-30T15:12:27.000Z</time>
      </trkpt>
      <trkpt lat="43.65228" lon="5.38005">
        <ele>367</ele>
        <time>2019-11-30T15:12:28.000Z</time>
      </trkpt>
      <trkpt lat="43.65227" lon="5.37997">
        <ele>366.60000610352</ele>
        <time>2019-11-30T15:12:29.000Z</time>
      </trkpt>
      <trkpt lat="43.65227" lon="5.37989">
        <ele>366.39999389648</ele>
        <time>2019-11-30T15:12:30.000Z</time>
      </trkpt>
      <trkpt lat="43.65226" lon="5.37981">
        <ele>366</ele>
        <time>2019-11-30T15:12:31.000Z</time>
      </trkpt>
      <trkpt lat="43.65226" lon="5.37973">
        <ele>365.79998779297</ele>
        <time>2019-11-30T15:12:32.000Z</time>
      </trkpt>
      <trkpt lat="43.65225" lon="5.37965">
        <ele>365.39999389648</ele>
        <time>2019-11-30T15:12:33.000Z</time>
      </trkpt>
      <trkpt lat="43.65224" lon="5.37957">
        <ele>365.20001220703</ele>
        <time>2019-11-30T15:12:34.000Z</time>
      </trkpt>
      <trkpt lat="43.65224" lon="5.37948">
        <ele>365.20001220703</ele>
        <time>2019-11-30T15:12:35.000Z</time>
      </trkpt>
      <trkpt lat="43.65223" lon="5.37939">
        <ele>365</ele>
        <time>2019-11-30T15:12:36.000Z</time>
      </trkpt>
      <trkpt lat="43.65224" lon="5.37929">
        <ele>365</ele>
        <time>2019-11-30T15:12:37.000Z</time>
      </trkpt>
      <trkpt lat="43.65224" lon="5.37919">
        <ele>364.79998779297</ele>
        <time>2019-11-30T15:12:38.000Z</time>
      </trkpt>
      <trkpt lat="43.65224" lon="5.3791">
        <ele>364.79998779297</ele>
        <time>2019-11-30T15:12:39.000Z</time>
      </trkpt>
      <trkpt lat="43.65224" lon="5.379">
        <ele>364.79998779297</ele>
        <time>2019-11-30T15:12:40.000Z</time>
      </trkpt>
      <trkpt lat="43.65224" lon="5.37889">
        <ele>364.79998779297</ele>
        <time>2019-11-30T15:12:41.000Z</time>
      </trkpt>
      <trkpt lat="43.65225" lon="5.37879">
        <ele>364.79998779297</ele>
        <time>2019-11-30T15:12:42.000Z</time>
      </trkpt>
      <trkpt lat="43.65225" lon="5.37868">
        <ele>364.60000610352</ele>
        <time>2019-11-30T15:12:43.000Z</time>
      </trkpt>
      <trkpt lat="43.65225" lon="5.37858">
        <ele>364.39999389648</ele>
        <time>2019-11-30T15:12:44.000Z</time>
      </trkpt>
      <trkpt lat="43.65225" lon="5.37847">
        <ele>364</ele>
        <time>2019-11-30T15:12:45.000Z</time>
      </trkpt>
      <trkpt lat="43.65225" lon="5.37837">
        <ele>363.79998779297</ele>
        <time>2019-11-30T15:12:46.000Z</time>
      </trkpt>
      <trkpt lat="43.65226" lon="5.37827">
        <ele>363.60000610352</ele>
        <time>2019-11-30T15:12:47.000Z</time>
      </trkpt>
      <trkpt lat="43.65226" lon="5.37816">
        <ele>363.39999389648</ele>
        <time>2019-11-30T15:12:48.000Z</time>
      </trkpt>
      <trkpt lat="43.65226" lon="5.37806">
        <ele>363.20001220703</ele>
        <time>2019-11-30T15:12:49.000Z</time>
      </trkpt>
      <trkpt lat="43.65226" lon="5.37796">
        <ele>363</ele>
        <time>2019-11-30T15:12:50.000Z</time>
      </trkpt>
      <trkpt lat="43.65226" lon="5.37786">
        <ele>362.79998779297</ele>
        <time>2019-11-30T15:12:51.000Z</time>
      </trkpt>
      <trkpt lat="43.65227" lon="5.37776">
        <ele>362.60000610352</ele>
        <time>2019-11-30T15:12:52.000Z</time>
      </trkpt>
      <trkpt lat="43.65227" lon="5.37764">
        <ele>362.60000610352</ele>
        <time>2019-11-30T15:12:53.000Z</time>
      </trkpt>
      <trkpt lat="43.65227" lon="5.37753">
        <ele>362.39999389648</ele>
        <time>2019-11-30T15:12:54.000Z</time>
      </trkpt>
      <trkpt lat="43.65227" lon="5.37742">
        <ele>362</ele>
        <time>2019-11-30T15:12:55.000Z</time>
      </trkpt>
      <trkpt lat="43.65228" lon="5.37731">
        <ele>361.60000610352</ele>
        <time>2019-11-30T15:12:56.000Z</time>
      </trkpt>
      <trkpt lat="43.65228" lon="5.3772">
        <ele>361.20001220703</ele>
        <time>2019-11-30T15:12:57.000Z</time>
      </trkpt>
      <trkpt lat="43.65228" lon="5.37709">
        <ele>360.79998779297</ele>
        <time>2019-11-30T15:12:58.000Z</time>
      </trkpt>
      <trkpt lat="43.65228" lon="5.37698">
        <ele>360.60000610352</ele>
        <time>2019-11-30T15:12:59.000Z</time>
      </trkpt>
      <trkpt lat="43.65228" lon="5.37687">
        <ele>360.39999389648</ele>
        <time>2019-11-30T15:13:00.000Z</time>
      </trkpt>
      <trkpt lat="43.65229" lon="5.37676">
        <ele>360</ele>
        <time>2019-11-30T15:13:01.000Z</time>
      </trkpt>
      <trkpt lat="43.65231" lon="5.37666">
        <ele>360</ele>
        <time>2019-11-30T15:13:02.000Z</time>
      </trkpt>
      <trkpt lat="43.65234" lon="5.37657">
        <ele>359.79998779297</ele>
        <time>2019-11-30T15:13:03.000Z</time>
      </trkpt>
      <trkpt lat="43.65238" lon="5.37646">
        <ele>359.60000610352</ele>
        <time>2019-11-30T15:13:04.000Z</time>
      </trkpt>
      <trkpt lat="43.65242" lon="5.37636">
        <ele>359.39999389648</ele>
        <time>2019-11-30T15:13:05.000Z</time>
      </trkpt>
      <trkpt lat="43.65245" lon="5.37626">
        <ele>359.20001220703</ele>
        <time>2019-11-30T15:13:06.000Z</time>
      </trkpt>
      <trkpt lat="43.65249" lon="5.37616">
        <ele>359</ele>
        <time>2019-11-30T15:13:07.000Z</time>
      </trkpt>
      <trkpt lat="43.65252" lon="5.37607">
        <ele>358.60000610352</ele>
        <time>2019-11-30T15:13:08.000Z</time>
      </trkpt>
      <trkpt lat="43.65256" lon="5.37597">
        <ele>358</ele>
        <time>2019-11-30T15:13:09.000Z</time>
      </trkpt>
      <trkpt lat="43.65259" lon="5.37588">
        <ele>357.39999389648</ele>
        <time>2019-11-30T15:13:10.000Z</time>
      </trkpt>
      <trkpt lat="43.65262" lon="5.37579">
        <ele>356.79998779297</ele>
        <time>2019-11-30T15:13:11.000Z</time>
      </trkpt>
      <trkpt lat="43.65266" lon="5.3757">
        <ele>356.39999389648</ele>
        <time>2019-11-30T15:13:12.000Z</time>
      </trkpt>
      <trkpt lat="43.65269" lon="5.37562">
        <ele>355.79998779297</ele>
        <time>2019-11-30T15:13:13.000Z</time>
      </trkpt>
      <trkpt lat="43.65272" lon="5.37554">
        <ele>355.39999389648</ele>
        <time>2019-11-30T15:13:14.000Z</time>
      </trkpt>
      <trkpt lat="43.65274" lon="5.37546">
        <ele>355.20001220703</ele>
        <time>2019-11-30T15:13:15.000Z</time>
      </trkpt>
      <trkpt lat="43.65277" lon="5.37538">
        <ele>355.20001220703</ele>
        <time>2019-11-30T15:13:16.000Z</time>
      </trkpt>
      <trkpt lat="43.6528" lon="5.37531">
        <ele>355.39999389648</ele>
        <time>2019-11-30T15:13:17.000Z</time>
      </trkpt>
      <trkpt lat="43.65283" lon="5.37523">
        <ele>355.39999389648</ele>
        <time>2019-11-30T15:13:18.000Z</time>
      </trkpt>
      <trkpt lat="43.65285" lon="5.37515">
        <ele>355.39999389648</ele>
        <time>2019-11-30T15:13:19.000Z</time>
      </trkpt>
      <trkpt lat="43.65288" lon="5.37508">
        <ele>355.39999389648</ele>
        <time>2019-11-30T15:13:20.000Z</time>
      </trkpt>
      <trkpt lat="43.65291" lon="5.37501">
        <ele>355.39999389648</ele>
        <time>2019-11-30T15:13:21.000Z</time>
      </trkpt>
      <trkpt lat="43.65293" lon="5.37493">
        <ele>355.60000610352</ele>
        <time>2019-11-30T15:13:22.000Z</time>
      </trkpt>
      <trkpt lat="43.65297" lon="5.37486">
        <ele>355.60000610352</ele>
        <time>2019-11-30T15:13:23.000Z</time>
      </trkpt>
      <trkpt lat="43.65301" lon="5.37479">
        <ele>355.60000610352</ele>
        <time>2019-11-30T15:13:24.000Z</time>
      </trkpt>
      <trkpt lat="43.65304" lon="5.37473">
        <ele>355.79998779297</ele>
        <time>2019-11-30T15:13:25.000Z</time>
      </trkpt>
      <trkpt lat="43.65307" lon="5.37467">
        <ele>355.79998779297</ele>
        <time>2019-11-30T15:13:26.000Z</time>
      </trkpt>
      <trkpt lat="43.6531" lon="5.37461">
        <ele>356</ele>
        <time>2019-11-30T15:13:27.000Z</time>
      </trkpt>
      <trkpt lat="43.65313" lon="5.37455">
        <ele>356.20001220703</ele>
        <time>2019-11-30T15:13:28.000Z</time>
      </trkpt>
      <trkpt lat="43.65317" lon="5.37448">
        <ele>356.20001220703</ele>
        <time>2019-11-30T15:13:29.000Z</time>
      </trkpt>
      <trkpt lat="43.6532" lon="5.37443">
        <ele>356.39999389648</ele>
        <time>2019-11-30T15:13:30.000Z</time>
      </trkpt>
      <trkpt lat="43.65323" lon="5.37437">
        <ele>356.60000610352</ele>
        <time>2019-11-30T15:13:31.000Z</time>
      </trkpt>
      <trkpt lat="43.65326" lon="5.37431">
        <ele>356.60000610352</ele>
        <time>2019-11-30T15:13:32.000Z</time>
      </trkpt>
      <trkpt lat="43.65329" lon="5.37425">
        <ele>356.60000610352</ele>
        <time>2019-11-30T15:13:33.000Z</time>
      </trkpt>
      <trkpt lat="43.65332" lon="5.37419">
        <ele>356.79998779297</ele>
        <time>2019-11-30T15:13:34.000Z</time>
      </trkpt>
      <trkpt lat="43.65335" lon="5.37414">
        <ele>356.79998779297</ele>
        <time>2019-11-30T15:13:35.000Z</time>
      </trkpt>
      <trkpt lat="43.65338" lon="5.37408">
        <ele>356.79998779297</ele>
        <time>2019-11-30T15:13:36.000Z</time>
      </trkpt>
      <trkpt lat="43.65341" lon="5.37403">
        <ele>356.79998779297</ele>
        <time>2019-11-30T15:13:37.000Z</time>
      </trkpt>
      <trkpt lat="43.65343" lon="5.37397">
        <ele>356.79998779297</ele>
        <time>2019-11-30T15:13:38.000Z</time>
      </trkpt>
      <trkpt lat="43.65346" lon="5.37392">
        <ele>356.79998779297</ele>
        <time>2019-11-30T15:13:39.000Z</time>
      </trkpt>
      <trkpt lat="43.65349" lon="5.37387">
        <ele>357</ele>
        <time>2019-11-30T15:13:40.000Z</time>
      </trkpt>
      <trkpt lat="43.65351" lon="5.37382">
        <ele>357</ele>
        <time>2019-11-30T15:13:41.000Z</time>
      </trkpt>
      <trkpt lat="43.65353" lon="5.37379">
        <ele>357</ele>
        <time>2019-11-30T15:13:42.000Z</time>
      </trkpt>
      <trkpt lat="43.65355" lon="5.37376">
        <ele>357.20001220703</ele>
        <time>2019-11-30T15:13:43.000Z</time>
      </trkpt>
      <trkpt lat="43.65352" lon="5.37375">
        <ele>357.20001220703</ele>
        <time>2019-11-30T15:13:44.000Z</time>
      </trkpt>
      <trkpt lat="43.65349" lon="5.37374">
        <ele>357</ele>
        <time>2019-11-30T15:13:45.000Z</time>
      </trkpt>
      <trkpt lat="43.65346" lon="5.37374">
        <ele>357</ele>
        <time>2019-11-30T15:13:46.000Z</time>
      </trkpt>
      <trkpt lat="43.65343" lon="5.37374">
        <ele>356.79998779297</ele>
        <time>2019-11-30T15:13:47.000Z</time>
      </trkpt>
      <trkpt lat="43.6534" lon="5.37374">
        <ele>356.79998779297</ele>
        <time>2019-11-30T15:13:48.000Z</time>
      </trkpt>
      <trkpt lat="43.65336" lon="5.37373">
        <ele>356.60000610352</ele>
        <time>2019-11-30T15:13:49.000Z</time>
      </trkpt>
      <trkpt lat="43.65333" lon="5.37373">
        <ele>356.39999389648</ele>
        <time>2019-11-30T15:13:50.000Z</time>
      </trkpt>
      <trkpt lat="43.65328" lon="5.37373">
        <ele>356.39999389648</ele>
        <time>2019-11-30T15:13:51.000Z</time>
      </trkpt>
      <trkpt lat="43.65323" lon="5.37372">
        <ele>356.20001220703</ele>
        <time>2019-11-30T15:13:52.000Z</time>
      </trkpt>
      <trkpt lat="43.65318" lon="5.37372">
        <ele>356</ele>
        <time>2019-11-30T15:13:53.000Z</time>
      </trkpt>
      <trkpt lat="43.65313" lon="5.37372">
        <ele>355.79998779297</ele>
        <time>2019-11-30T15:13:54.000Z</time>
      </trkpt>
      <trkpt lat="43.65307" lon="5.37371">
        <ele>355.60000610352</ele>
        <time>2019-11-30T15:13:55.000Z</time>
      </trkpt>
      <trkpt lat="43.65302" lon="5.37371">
        <ele>355.39999389648</ele>
        <time>2019-11-30T15:13:56.000Z</time>
      </trkpt>
      <trkpt lat="43.65297" lon="5.37371">
        <ele>355.20001220703</ele>
        <time>2019-11-30T15:13:57.000Z</time>
      </trkpt>
      <trkpt lat="43.65291" lon="5.3737">
        <ele>355</ele>
        <time>2019-11-30T15:13:58.000Z</time>
      </trkpt>
      <trkpt lat="43.65285" lon="5.3737">
        <ele>354.79998779297</ele>
        <time>2019-11-30T15:13:59.000Z</time>
      </trkpt>
      <trkpt lat="43.6528" lon="5.37369">
        <ele>354.60000610352</ele>
        <time>2019-11-30T15:14:00.000Z</time>
      </trkpt>
      <trkpt lat="43.65274" lon="5.37369">
        <ele>354.39999389648</ele>
        <time>2019-11-30T15:14:01.000Z</time>
      </trkpt>
      <trkpt lat="43.65268" lon="5.37369">
        <ele>354.20001220703</ele>
        <time>2019-11-30T15:14:02.000Z</time>
      </trkpt>
      <trkpt lat="43.65262" lon="5.37368">
        <ele>354</ele>
        <time>2019-11-30T15:14:03.000Z</time>
      </trkpt>
      <trkpt lat="43.65257" lon="5.37368">
        <ele>353.79998779297</ele>
        <time>2019-11-30T15:14:04.000Z</time>
      </trkpt>
      <trkpt lat="43.65251" lon="5.37367">
        <ele>353.60000610352</ele>
        <time>2019-11-30T15:14:05.000Z</time>
      </trkpt>
      <trkpt lat="43.65246" lon="5.37367">
        <ele>353.39999389648</ele>
        <time>2019-11-30T15:14:06.000Z</time>
      </trkpt>
      <trkpt lat="43.6524" lon="5.37367">
        <ele>353.20001220703</ele>
        <time>2019-11-30T15:14:07.000Z</time>
      </trkpt>
      <trkpt lat="43.65235" lon="5.37366">
        <ele>353</ele>
        <time>2019-11-30T15:14:08.000Z</time>
      </trkpt>
      <trkpt lat="43.6523" lon="5.37366">
        <ele>352.79998779297</ele>
        <time>2019-11-30T15:14:09.000Z</time>
      </trkpt>
      <trkpt lat="43.65224" lon="5.37366">
        <ele>352.60000610352</ele>
        <time>2019-11-30T15:14:10.000Z</time>
      </trkpt>
      <trkpt lat="43.65218" lon="5.37365">
        <ele>352.39999389648</ele>
        <time>2019-11-30T15:14:11.000Z</time>
      </trkpt>
      <trkpt lat="43.65211" lon="5.37365">
        <ele>352.20001220703</ele>
        <time>2019-11-30T15:14:12.000Z</time>
      </trkpt>
      <trkpt lat="43.65206" lon="5.37364">
        <ele>352</ele>
        <time>2019-11-30T15:14:13.000Z</time>
      </trkpt>
      <trkpt lat="43.652" lon="5.37364">
        <ele>351.79998779297</ele>
        <time>2019-11-30T15:14:14.000Z</time>
      </trkpt>
      <trkpt lat="43.65194" lon="5.37363">
        <ele>351.60000610352</ele>
        <time>2019-11-30T15:14:15.000Z</time>
      </trkpt>
      <trkpt lat="43.65188" lon="5.37363">
        <ele>351.39999389648</ele>
        <time>2019-11-30T15:14:16.000Z</time>
      </trkpt>
      <trkpt lat="43.65183" lon="5.37363">
        <ele>351.20001220703</ele>
        <time>2019-11-30T15:14:17.000Z</time>
      </trkpt>
      <trkpt lat="43.65177" lon="5.37362">
        <ele>351</ele>
        <time>2019-11-30T15:14:18.000Z</time>
      </trkpt>
      <trkpt lat="43.65172" lon="5.3736">
        <ele>350.79998779297</ele>
        <time>2019-11-30T15:14:19.000Z</time>
      </trkpt>
      <trkpt lat="43.65167" lon="5.37358">
        <ele>350.60000610352</ele>
        <time>2019-11-30T15:14:20.000Z</time>
      </trkpt>
      <trkpt lat="43.65162" lon="5.37356">
        <ele>350.39999389648</ele>
        <time>2019-11-30T15:14:21.000Z</time>
      </trkpt>
      <trkpt lat="43.65156" lon="5.37354">
        <ele>350.20001220703</ele>
        <time>2019-11-30T15:14:22.000Z</time>
      </trkpt>
      <trkpt lat="43.65151" lon="5.37352">
        <ele>350.20001220703</ele>
        <time>2019-11-30T15:14:23.000Z</time>
      </trkpt>
      <trkpt lat="43.65145" lon="5.3735">
        <ele>350</ele>
        <time>2019-11-30T15:14:24.000Z</time>
      </trkpt>
      <trkpt lat="43.65139" lon="5.37348">
        <ele>349.79998779297</ele>
        <time>2019-11-30T15:14:25.000Z</time>
      </trkpt>
      <trkpt lat="43.65133" lon="5.37346">
        <ele>349.79998779297</ele>
        <time>2019-11-30T15:14:26.000Z</time>
      </trkpt>
      <trkpt lat="43.65127" lon="5.37343">
        <ele>349.60000610352</ele>
        <time>2019-11-30T15:14:27.000Z</time>
      </trkpt>
      <trkpt lat="43.65121" lon="5.37339">
        <ele>349.39999389648</ele>
        <time>2019-11-30T15:14:28.000Z</time>
      </trkpt>
      <trkpt lat="43.65115" lon="5.37335">
        <ele>349.39999389648</ele>
        <time>2019-11-30T15:14:29.000Z</time>
      </trkpt>
      <trkpt lat="43.65109" lon="5.37331">
        <ele>349.20001220703</ele>
        <time>2019-11-30T15:14:30.000Z</time>
      </trkpt>
      <trkpt lat="43.65103" lon="5.37327">
        <ele>349</ele>
        <time>2019-11-30T15:14:31.000Z</time>
      </trkpt>
      <trkpt lat="43.65097" lon="5.37324">
        <ele>349</ele>
        <time>2019-11-30T15:14:32.000Z</time>
      </trkpt>
      <trkpt lat="43.65091" lon="5.3732">
        <ele>349.20001220703</ele>
        <time>2019-11-30T15:14:33.000Z</time>
      </trkpt>
      <trkpt lat="43.65086" lon="5.37316">
        <ele>349.20001220703</ele>
        <time>2019-11-30T15:14:34.000Z</time>
      </trkpt>
      <trkpt lat="43.6508" lon="5.37313">
        <ele>349.20001220703</ele>
        <time>2019-11-30T15:14:35.000Z</time>
      </trkpt>
      <trkpt lat="43.65075" lon="5.3731">
        <ele>349.39999389648</ele>
        <time>2019-11-30T15:14:36.000Z</time>
      </trkpt>
      <trkpt lat="43.6507" lon="5.37307">
        <ele>349.39999389648</ele>
        <time>2019-11-30T15:14:37.000Z</time>
      </trkpt>
      <trkpt lat="43.65067" lon="5.37305">
        <ele>349.39999389648</ele>
        <time>2019-11-30T15:14:38.000Z</time>
      </trkpt>
      <trkpt lat="43.65065" lon="5.37287">
        <ele>349</ele>
        <time>2019-11-30T15:14:39.000Z</time>
      </trkpt>
      <trkpt lat="43.65067" lon="5.37285">
        <ele>348.79998779297</ele>
        <time>2019-11-30T15:14:40.000Z</time>
      </trkpt>
      <trkpt lat="43.65069" lon="5.37282">
        <ele>348.60000610352</ele>
        <time>2019-11-30T15:14:41.000Z</time>
      </trkpt>
      <trkpt lat="43.65071" lon="5.37279">
        <ele>348.39999389648</ele>
        <time>2019-11-30T15:14:42.000Z</time>
      </trkpt>
      <trkpt lat="43.65074" lon="5.37276">
        <ele>348.20001220703</ele>
        <time>2019-11-30T15:14:43.000Z</time>
      </trkpt>
      <trkpt lat="43.65076" lon="5.37272">
        <ele>348</ele>
        <time>2019-11-30T15:14:44.000Z</time>
      </trkpt>
      <trkpt lat="43.65079" lon="5.37268">
        <ele>348.20001220703</ele>
        <time>2019-11-30T15:14:45.000Z</time>
      </trkpt>
      <trkpt lat="43.65083" lon="5.37264">
        <ele>348.20001220703</ele>
        <time>2019-11-30T15:14:46.000Z</time>
      </trkpt>
      <trkpt lat="43.65087" lon="5.37261">
        <ele>348.39999389648</ele>
        <time>2019-11-30T15:14:47.000Z</time>
      </trkpt>
      <trkpt lat="43.65091" lon="5.37258">
        <ele>348.60000610352</ele>
        <time>2019-11-30T15:14:48.000Z</time>
      </trkpt>
      <trkpt lat="43.65095" lon="5.37254">
        <ele>348.79998779297</ele>
        <time>2019-11-30T15:14:49.000Z</time>
      </trkpt>
      <trkpt lat="43.65099" lon="5.37251">
        <ele>348.79998779297</ele>
        <time>2019-11-30T15:14:50.000Z</time>
      </trkpt>
      <trkpt lat="43.65103" lon="5.37248">
        <ele>349</ele>
        <time>2019-11-30T15:14:51.000Z</time>
      </trkpt>
      <trkpt lat="43.65107" lon="5.37244">
        <ele>349.20001220703</ele>
        <time>2019-11-30T15:14:52.000Z</time>
      </trkpt>
      <trkpt lat="43.65112" lon="5.37241">
        <ele>349.39999389648</ele>
        <time>2019-11-30T15:14:53.000Z</time>
      </trkpt>
      <trkpt lat="43.65116" lon="5.37237">
        <ele>349.39999389648</ele>
        <time>2019-11-30T15:14:54.000Z</time>
      </trkpt>
      <trkpt lat="43.65121" lon="5.37234">
        <ele>349.60000610352</ele>
        <time>2019-11-30T15:14:55.000Z</time>
      </trkpt>
      <trkpt lat="43.65125" lon="5.3723">
        <ele>349.79998779297</ele>
        <time>2019-11-30T15:14:56.000Z</time>
      </trkpt>
      <trkpt lat="43.6513" lon="5.37226">
        <ele>349.79998779297</ele>
        <time>2019-11-30T15:14:57.000Z</time>
      </trkpt>
      <trkpt lat="43.65134" lon="5.37223">
        <ele>349.79998779297</ele>
        <time>2019-11-30T15:14:58.000Z</time>
      </trkpt>
      <trkpt lat="43.65138" lon="5.37219">
        <ele>350</ele>
        <time>2019-11-30T15:14:59.000Z</time>
      </trkpt>
      <trkpt lat="43.65143" lon="5.37216">
        <ele>350</ele>
        <time>2019-11-30T15:15:00.000Z</time>
      </trkpt>
      <trkpt lat="43.65147" lon="5.37213">
        <ele>350</ele>
        <time>2019-11-30T15:15:01.000Z</time>
      </trkpt>
      <trkpt lat="43.65152" lon="5.37209">
        <ele>350</ele>
        <time>2019-11-30T15:15:02.000Z</time>
      </trkpt>
      <trkpt lat="43.65157" lon="5.37205">
        <ele>350</ele>
        <time>2019-11-30T15:15:03.000Z</time>
      </trkpt>
      <trkpt lat="43.65161" lon="5.37201">
        <ele>350</ele>
        <time>2019-11-30T15:15:04.000Z</time>
      </trkpt>
      <trkpt lat="43.65166" lon="5.37197">
        <ele>350.20001220703</ele>
        <time>2019-11-30T15:15:05.000Z</time>
      </trkpt>
      <trkpt lat="43.65171" lon="5.37194">
        <ele>350</ele>
        <time>2019-11-30T15:15:06.000Z</time>
      </trkpt>
      <trkpt lat="43.65175" lon="5.3719">
        <ele>350</ele>
        <time>2019-11-30T15:15:07.000Z</time>
      </trkpt>
      <trkpt lat="43.65179" lon="5.37187">
        <ele>350</ele>
        <time>2019-11-30T15:15:08.000Z</time>
      </trkpt>
      <trkpt lat="43.65184" lon="5.37183">
        <ele>349.79998779297</ele>
        <time>2019-11-30T15:15:09.000Z</time>
      </trkpt>
      <trkpt lat="43.65189" lon="5.37179">
        <ele>349.79998779297</ele>
        <time>2019-11-30T15:15:10.000Z</time>
      </trkpt>
      <trkpt lat="43.65194" lon="5.37175">
        <ele>349.79998779297</ele>
        <time>2019-11-30T15:15:11.000Z</time>
      </trkpt>
      <trkpt lat="43.65199" lon="5.37171">
        <ele>349.79998779297</ele>
        <time>2019-11-30T15:15:12.000Z</time>
      </trkpt>
      <trkpt lat="43.65204" lon="5.37167">
        <ele>349.79998779297</ele>
        <time>2019-11-30T15:15:13.000Z</time>
      </trkpt>
      <trkpt lat="43.65209" lon="5.37163">
        <ele>349.60000610352</ele>
        <time>2019-11-30T15:15:14.000Z</time>
      </trkpt>
      <trkpt lat="43.65214" lon="5.37159">
        <ele>349.60000610352</ele>
        <time>2019-11-30T15:15:15.000Z</time>
      </trkpt>
      <trkpt lat="43.65219" lon="5.37155">
        <ele>349.60000610352</ele>
        <time>2019-11-30T15:15:16.000Z</time>
      </trkpt>
      <trkpt lat="43.65224" lon="5.37151">
        <ele>349.39999389648</ele>
        <time>2019-11-30T15:15:17.000Z</time>
      </trkpt>
      <trkpt lat="43.65229" lon="5.37147">
        <ele>349.20001220703</ele>
        <time>2019-11-30T15:15:18.000Z</time>
      </trkpt>
      <trkpt lat="43.65233" lon="5.37144">
        <ele>349.20001220703</ele>
        <time>2019-11-30T15:15:19.000Z</time>
      </trkpt>
      <trkpt lat="43.65238" lon="5.3714">
        <ele>349</ele>
        <time>2019-11-30T15:15:20.000Z</time>
      </trkpt>
      <trkpt lat="43.65242" lon="5.37136">
        <ele>349</ele>
        <time>2019-11-30T15:15:21.000Z</time>
      </trkpt>
      <trkpt lat="43.65247" lon="5.37133">
        <ele>348.79998779297</ele>
        <time>2019-11-30T15:15:22.000Z</time>
      </trkpt>
      <trkpt lat="43.65252" lon="5.37129">
        <ele>348.60000610352</ele>
        <time>2019-11-30T15:15:23.000Z</time>
      </trkpt>
      <trkpt lat="43.65256" lon="5.37126">
        <ele>348.60000610352</ele>
        <time>2019-11-30T15:15:24.000Z</time>
      </trkpt>
      <trkpt lat="43.6526" lon="5.37122">
        <ele>348.39999389648</ele>
        <time>2019-11-30T15:15:25.000Z</time>
      </trkpt>
      <trkpt lat="43.65265" lon="5.37119">
        <ele>348.60000610352</ele>
        <time>2019-11-30T15:15:26.000Z</time>
      </trkpt>
      <trkpt lat="43.65269" lon="5.37115">
        <ele>348.79998779297</ele>
        <time>2019-11-30T15:15:27.000Z</time>
      </trkpt>
      <trkpt lat="43.65273" lon="5.37112">
        <ele>349</ele>
        <time>2019-11-30T15:15:28.000Z</time>
      </trkpt>
      <trkpt lat="43.65277" lon="5.37109">
        <ele>349.20001220703</ele>
        <time>2019-11-30T15:15:29.000Z</time>
      </trkpt>
      <trkpt lat="43.65281" lon="5.37106">
        <ele>349.20001220703</ele>
        <time>2019-11-30T15:15:30.000Z</time>
      </trkpt>
      <trkpt lat="43.65285" lon="5.37103">
        <ele>349.39999389648</ele>
        <time>2019-11-30T15:15:31.000Z</time>
      </trkpt>
      <trkpt lat="43.65289" lon="5.37099">
        <ele>349.60000610352</ele>
        <time>2019-11-30T15:15:32.000Z</time>
      </trkpt>
      <trkpt lat="43.65293" lon="5.37096">
        <ele>349.60000610352</ele>
        <time>2019-11-30T15:15:33.000Z</time>
      </trkpt>
      <trkpt lat="43.65296" lon="5.37093">
        <ele>349.79998779297</ele>
        <time>2019-11-30T15:15:34.000Z</time>
      </trkpt>
      <trkpt lat="43.653" lon="5.3709">
        <ele>350</ele>
        <time>2019-11-30T15:15:35.000Z</time>
      </trkpt>
      <trkpt lat="43.65304" lon="5.37087">
        <ele>350.20001220703</ele>
        <time>2019-11-30T15:15:36.000Z</time>
      </trkpt>
      <trkpt lat="43.65308" lon="5.37084">
        <ele>350.20001220703</ele>
        <time>2019-11-30T15:15:37.000Z</time>
      </trkpt>
      <trkpt lat="43.65311" lon="5.37081">
        <ele>350</ele>
        <time>2019-11-30T15:15:38.000Z</time>
      </trkpt>
      <trkpt lat="43.65315" lon="5.37078">
        <ele>349.79998779297</ele>
        <time>2019-11-30T15:15:39.000Z</time>
      </trkpt>
      <trkpt lat="43.65319" lon="5.37075">
        <ele>349.60000610352</ele>
        <time>2019-11-30T15:15:40.000Z</time>
      </trkpt>
      <trkpt lat="43.65323" lon="5.37072">
        <ele>349.39999389648</ele>
        <time>2019-11-30T15:15:41.000Z</time>
      </trkpt>
      <trkpt lat="43.65327" lon="5.37068">
        <ele>349.20001220703</ele>
        <time>2019-11-30T15:15:42.000Z</time>
      </trkpt>
      <trkpt lat="43.65329" lon="5.37061">
        <ele>348.79998779297</ele>
        <time>2019-11-30T15:15:43.000Z</time>
      </trkpt>
      <trkpt lat="43.65331" lon="5.37054">
        <ele>348.39999389648</ele>
        <time>2019-11-30T15:15:44.000Z</time>
      </trkpt>
      <trkpt lat="43.65333" lon="5.37046">
        <ele>347.79998779297</ele>
        <time>2019-11-30T15:15:45.000Z</time>
      </trkpt>
      <trkpt lat="43.65335" lon="5.37037">
        <ele>347.20001220703</ele>
        <time>2019-11-30T15:15:46.000Z</time>
      </trkpt>
      <trkpt lat="43.65335" lon="5.37028">
        <ele>346.60000610352</ele>
        <time>2019-11-30T15:15:47.000Z</time>
      </trkpt>
      <trkpt lat="43.65336" lon="5.37019">
        <ele>346</ele>
        <time>2019-11-30T15:15:48.000Z</time>
      </trkpt>
      <trkpt lat="43.65336" lon="5.3701">
        <ele>345.60000610352</ele>
        <time>2019-11-30T15:15:49.000Z</time>
      </trkpt>
      <trkpt lat="43.65337" lon="5.37001">
        <ele>345</ele>
        <time>2019-11-30T15:15:50.000Z</time>
      </trkpt>
      <trkpt lat="43.65338" lon="5.36991">
        <ele>344.39999389648</ele>
        <time>2019-11-30T15:15:51.000Z</time>
      </trkpt>
      <trkpt lat="43.65338" lon="5.36981">
        <ele>343.79998779297</ele>
        <time>2019-11-30T15:15:52.000Z</time>
      </trkpt>
      <trkpt lat="43.65339" lon="5.36971">
        <ele>343.20001220703</ele>
        <time>2019-11-30T15:15:53.000Z</time>
      </trkpt>
      <trkpt lat="43.65339" lon="5.36961">
        <ele>342.60000610352</ele>
        <time>2019-11-30T15:15:54.000Z</time>
      </trkpt>
      <trkpt lat="43.6534" lon="5.3695">
        <ele>342</ele>
        <time>2019-11-30T15:15:55.000Z</time>
      </trkpt>
      <trkpt lat="43.65341" lon="5.3694">
        <ele>341.60000610352</ele>
        <time>2019-11-30T15:15:56.000Z</time>
      </trkpt>
      <trkpt lat="43.65341" lon="5.3693">
        <ele>341.39999389648</ele>
        <time>2019-11-30T15:15:57.000Z</time>
      </trkpt>
      <trkpt lat="43.65342" lon="5.36919">
        <ele>341.20001220703</ele>
        <time>2019-11-30T15:15:58.000Z</time>
      </trkpt>
      <trkpt lat="43.65343" lon="5.36909">
        <ele>341</ele>
        <time>2019-11-30T15:15:59.000Z</time>
      </trkpt>
      <trkpt lat="43.65345" lon="5.36899">
        <ele>341</ele>
        <time>2019-11-30T15:16:00.000Z</time>
      </trkpt>
      <trkpt lat="43.6535" lon="5.36889">
        <ele>341</ele>
        <time>2019-11-30T15:16:01.000Z</time>
      </trkpt>
      <trkpt lat="43.65354" lon="5.36879">
        <ele>340.79998779297</ele>
        <time>2019-11-30T15:16:02.000Z</time>
      </trkpt>
      <trkpt lat="43.65358" lon="5.3687">
        <ele>340.20001220703</ele>
        <time>2019-11-30T15:16:03.000Z</time>
      </trkpt>
      <trkpt lat="43.65363" lon="5.3686">
        <ele>339.60000610352</ele>
        <time>2019-11-30T15:16:04.000Z</time>
      </trkpt>
      <trkpt lat="43.65367" lon="5.3685">
        <ele>339</ele>
        <time>2019-11-30T15:16:05.000Z</time>
      </trkpt>
      <trkpt lat="43.65372" lon="5.3684">
        <ele>338.39999389648</ele>
        <time>2019-11-30T15:16:06.000Z</time>
      </trkpt>
      <trkpt lat="43.65376" lon="5.3683">
        <ele>337.60000610352</ele>
        <time>2019-11-30T15:16:07.000Z</time>
      </trkpt>
      <trkpt lat="43.6538" lon="5.3682">
        <ele>337.20001220703</ele>
        <time>2019-11-30T15:16:08.000Z</time>
      </trkpt>
      <trkpt lat="43.65385" lon="5.36811">
        <ele>337.20001220703</ele>
        <time>2019-11-30T15:16:09.000Z</time>
      </trkpt>
      <trkpt lat="43.65389" lon="5.36802">
        <ele>337</ele>
        <time>2019-11-30T15:16:10.000Z</time>
      </trkpt>
      <trkpt lat="43.65393" lon="5.36793">
        <ele>336.79998779297</ele>
        <time>2019-11-30T15:16:11.000Z</time>
      </trkpt>
      <trkpt lat="43.65396" lon="5.36784">
        <ele>336.20001220703</ele>
        <time>2019-11-30T15:16:12.000Z</time>
      </trkpt>
      <trkpt lat="43.65398" lon="5.36775">
        <ele>335.60000610352</ele>
        <time>2019-11-30T15:16:13.000Z</time>
      </trkpt>
      <trkpt lat="43.654" lon="5.36766">
        <ele>335</ele>
        <time>2019-11-30T15:16:14.000Z</time>
      </trkpt>
      <trkpt lat="43.65402" lon="5.36756">
        <ele>334.79998779297</ele>
        <time>2019-11-30T15:16:15.000Z</time>
      </trkpt>
      <trkpt lat="43.65403" lon="5.36748">
        <ele>334.79998779297</ele>
        <time>2019-11-30T15:16:16.000Z</time>
      </trkpt>
      <trkpt lat="43.65405" lon="5.36739">
        <ele>334.79998779297</ele>
        <time>2019-11-30T15:16:17.000Z</time>
      </trkpt>
      <trkpt lat="43.65407" lon="5.36731">
        <ele>334.79998779297</ele>
        <time>2019-11-30T15:16:18.000Z</time>
      </trkpt>
      <trkpt lat="43.65408" lon="5.36723">
        <ele>334.79998779297</ele>
        <time>2019-11-30T15:16:19.000Z</time>
      </trkpt>
      <trkpt lat="43.6541" lon="5.36715">
        <ele>334.79998779297</ele>
        <time>2019-11-30T15:16:20.000Z</time>
      </trkpt>
      <trkpt lat="43.65412" lon="5.36707">
        <ele>334.79998779297</ele>
        <time>2019-11-30T15:16:21.000Z</time>
      </trkpt>
      <trkpt lat="43.65413" lon="5.36699">
        <ele>334.79998779297</ele>
        <time>2019-11-30T15:16:22.000Z</time>
      </trkpt>
      <trkpt lat="43.65415" lon="5.36691">
        <ele>334.79998779297</ele>
        <time>2019-11-30T15:16:23.000Z</time>
      </trkpt>
      <trkpt lat="43.65416" lon="5.36683">
        <ele>335</ele>
        <time>2019-11-30T15:16:24.000Z</time>
      </trkpt>
      <trkpt lat="43.65418" lon="5.36676">
        <ele>335.20001220703</ele>
        <time>2019-11-30T15:16:25.000Z</time>
      </trkpt>
      <trkpt lat="43.65419" lon="5.36668">
        <ele>335.39999389648</ele>
        <time>2019-11-30T15:16:26.000Z</time>
      </trkpt>
      <trkpt lat="43.65421" lon="5.36661">
        <ele>335.60000610352</ele>
        <time>2019-11-30T15:16:27.000Z</time>
      </trkpt>
      <trkpt lat="43.65423" lon="5.36653">
        <ele>335.79998779297</ele>
        <time>2019-11-30T15:16:28.000Z</time>
      </trkpt>
      <trkpt lat="43.65424" lon="5.36645">
        <ele>336</ele>
        <time>2019-11-30T15:16:29.000Z</time>
      </trkpt>
      <trkpt lat="43.65426" lon="5.36638">
        <ele>336.20001220703</ele>
        <time>2019-11-30T15:16:30.000Z</time>
      </trkpt>
      <trkpt lat="43.65427" lon="5.3663">
        <ele>336.39999389648</ele>
        <time>2019-11-30T15:16:31.000Z</time>
      </trkpt>
      <trkpt lat="43.65429" lon="5.36623">
        <ele>336.79998779297</ele>
        <time>2019-11-30T15:16:32.000Z</time>
      </trkpt>
      <trkpt lat="43.6543" lon="5.36616">
        <ele>337.39999389648</ele>
        <time>2019-11-30T15:16:33.000Z</time>
      </trkpt>
      <trkpt lat="43.65431" lon="5.3661">
        <ele>338</ele>
        <time>2019-11-30T15:16:34.000Z</time>
      </trkpt>
      <trkpt lat="43.65432" lon="5.36604">
        <ele>338.60000610352</ele>
        <time>2019-11-30T15:16:35.000Z</time>
      </trkpt>
      <trkpt lat="43.65434" lon="5.36598">
        <ele>339.20001220703</ele>
        <time>2019-11-30T15:16:36.000Z</time>
      </trkpt>
      <trkpt lat="43.65435" lon="5.36592">
        <ele>339.79998779297</ele>
        <time>2019-11-30T15:16:37.000Z</time>
      </trkpt>
      <trkpt lat="43.65436" lon="5.36586">
        <ele>340.20001220703</ele>
        <time>2019-11-30T15:16:38.000Z</time>
      </trkpt>
      <trkpt lat="43.65437" lon="5.3658">
        <ele>340.79998779297</ele>
        <time>2019-11-30T15:16:39.000Z</time>
      </trkpt>
      <trkpt lat="43.65438" lon="5.36575">
        <ele>341.20001220703</ele>
        <time>2019-11-30T15:16:40.000Z</time>
      </trkpt>
      <trkpt lat="43.65439" lon="5.36569">
        <ele>341.60000610352</ele>
        <time>2019-11-30T15:16:41.000Z</time>
      </trkpt>
      <trkpt lat="43.6544" lon="5.36564">
        <ele>342</ele>
        <time>2019-11-30T15:16:42.000Z</time>
      </trkpt>
      <trkpt lat="43.65441" lon="5.36559">
        <ele>342.60000610352</ele>
        <time>2019-11-30T15:16:43.000Z</time>
      </trkpt>
      <trkpt lat="43.65443" lon="5.36554">
        <ele>343</ele>
        <time>2019-11-30T15:16:44.000Z</time>
      </trkpt>
      <trkpt lat="43.65444" lon="5.36548">
        <ele>343.39999389648</ele>
        <time>2019-11-30T15:16:45.000Z</time>
      </trkpt>
      <trkpt lat="43.65445" lon="5.36541">
        <ele>343.60000610352</ele>
        <time>2019-11-30T15:16:46.000Z</time>
      </trkpt>
      <trkpt lat="43.65447" lon="5.36535">
        <ele>343.60000610352</ele>
        <time>2019-11-30T15:16:47.000Z</time>
      </trkpt>
      <trkpt lat="43.6545" lon="5.36528">
        <ele>343.79998779297</ele>
        <time>2019-11-30T15:16:48.000Z</time>
      </trkpt>
      <trkpt lat="43.65452" lon="5.36521">
        <ele>344</ele>
        <time>2019-11-30T15:16:49.000Z</time>
      </trkpt>
      <trkpt lat="43.65454" lon="5.36514">
        <ele>344.20001220703</ele>
        <time>2019-11-30T15:16:50.000Z</time>
      </trkpt>
      <trkpt lat="43.65457" lon="5.36507">
        <ele>344.20001220703</ele>
        <time>2019-11-30T15:16:51.000Z</time>
      </trkpt>
      <trkpt lat="43.65459" lon="5.365">
        <ele>344.39999389648</ele>
        <time>2019-11-30T15:16:52.000Z</time>
      </trkpt>
      <trkpt lat="43.65462" lon="5.36492">
        <ele>344.60000610352</ele>
        <time>2019-11-30T15:16:53.000Z</time>
      </trkpt>
      <trkpt lat="43.65465" lon="5.36484">
        <ele>344.60000610352</ele>
        <time>2019-11-30T15:16:54.000Z</time>
      </trkpt>
      <trkpt lat="43.65468" lon="5.36475">
        <ele>344.60000610352</ele>
        <time>2019-11-30T15:16:55.000Z</time>
      </trkpt>
      <trkpt lat="43.65471" lon="5.36467">
        <ele>344.79998779297</ele>
        <time>2019-11-30T15:16:56.000Z</time>
      </trkpt>
      <trkpt lat="43.65474" lon="5.36459">
        <ele>344.60000610352</ele>
        <time>2019-11-30T15:16:57.000Z</time>
      </trkpt>
      <trkpt lat="43.65477" lon="5.3645">
        <ele>344.39999389648</ele>
        <time>2019-11-30T15:16:58.000Z</time>
      </trkpt>
      <trkpt lat="43.6548" lon="5.36441">
        <ele>344.20001220703</ele>
        <time>2019-11-30T15:16:59.000Z</time>
      </trkpt>
      <trkpt lat="43.65484" lon="5.36432">
        <ele>344.20001220703</ele>
        <time>2019-11-30T15:17:00.000Z</time>
      </trkpt>
      <trkpt lat="43.65487" lon="5.36422">
        <ele>343.79998779297</ele>
        <time>2019-11-30T15:17:01.000Z</time>
      </trkpt>
      <trkpt lat="43.6549" lon="5.36413">
        <ele>343.39999389648</ele>
        <time>2019-11-30T15:17:02.000Z</time>
      </trkpt>
      <trkpt lat="43.65494" lon="5.36404">
        <ele>343.20001220703</ele>
        <time>2019-11-30T15:17:03.000Z</time>
      </trkpt>
      <trkpt lat="43.65497" lon="5.36394">
        <ele>342.79998779297</ele>
        <time>2019-11-30T15:17:04.000Z</time>
      </trkpt>
      <trkpt lat="43.65501" lon="5.36384">
        <ele>342.39999389648</ele>
        <time>2019-11-30T15:17:05.000Z</time>
      </trkpt>
      <trkpt lat="43.65504" lon="5.36374">
        <ele>342.20001220703</ele>
        <time>2019-11-30T15:17:06.000Z</time>
      </trkpt>
      <trkpt lat="43.65508" lon="5.36364">
        <ele>342.20001220703</ele>
        <time>2019-11-30T15:17:07.000Z</time>
      </trkpt>
      <trkpt lat="43.65512" lon="5.36353">
        <ele>342.20001220703</ele>
        <time>2019-11-30T15:17:08.000Z</time>
      </trkpt>
      <trkpt lat="43.65515" lon="5.36343">
        <ele>342.20001220703</ele>
        <time>2019-11-30T15:17:09.000Z</time>
      </trkpt>
      <trkpt lat="43.65519" lon="5.36333">
        <ele>342.39999389648</ele>
        <time>2019-11-30T15:17:10.000Z</time>
      </trkpt>
      <trkpt lat="43.65523" lon="5.36322">
        <ele>342.39999389648</ele>
        <time>2019-11-30T15:17:11.000Z</time>
      </trkpt>
      <trkpt lat="43.65526" lon="5.36311">
        <ele>342.39999389648</ele>
        <time>2019-11-30T15:17:12.000Z</time>
      </trkpt>
      <trkpt lat="43.6553" lon="5.363">
        <ele>342.20001220703</ele>
        <time>2019-11-30T15:17:13.000Z</time>
      </trkpt>
      <trkpt lat="43.65534" lon="5.36289">
        <ele>341.60000610352</ele>
        <time>2019-11-30T15:17:14.000Z</time>
      </trkpt>
      <trkpt lat="43.65538" lon="5.36278">
        <ele>341</ele>
        <time>2019-11-30T15:17:15.000Z</time>
      </trkpt>
      <trkpt lat="43.65542" lon="5.36267">
        <ele>340.39999389648</ele>
        <time>2019-11-30T15:17:16.000Z</time>
      </trkpt>
      <trkpt lat="43.65546" lon="5.36257">
        <ele>339.79998779297</ele>
        <time>2019-11-30T15:17:17.000Z</time>
      </trkpt>
      <trkpt lat="43.6555" lon="5.36246">
        <ele>339.20001220703</ele>
        <time>2019-11-30T15:17:18.000Z</time>
      </trkpt>
      <trkpt lat="43.65553" lon="5.36236">
        <ele>338.60000610352</ele>
        <time>2019-11-30T15:17:19.000Z</time>
      </trkpt>
      <trkpt lat="43.65557" lon="5.36225">
        <ele>338</ele>
        <time>2019-11-30T15:17:20.000Z</time>
      </trkpt>
      <trkpt lat="43.65561" lon="5.36215">
        <ele>337.60000610352</ele>
        <time>2019-11-30T15:17:21.000Z</time>
      </trkpt>
      <trkpt lat="43.65564" lon="5.36205">
        <ele>336.79998779297</ele>
        <time>2019-11-30T15:17:22.000Z</time>
      </trkpt>
      <trkpt lat="43.65568" lon="5.36194">
        <ele>336.20001220703</ele>
        <time>2019-11-30T15:17:23.000Z</time>
      </trkpt>
      <trkpt lat="43.65572" lon="5.36184">
        <ele>335.39999389648</ele>
        <time>2019-11-30T15:17:24.000Z</time>
      </trkpt>
      <trkpt lat="43.65575" lon="5.36174">
        <ele>335</ele>
        <time>2019-11-30T15:17:25.000Z</time>
      </trkpt>
      <trkpt lat="43.65579" lon="5.36163">
        <ele>334.60000610352</ele>
        <time>2019-11-30T15:17:26.000Z</time>
      </trkpt>
      <trkpt lat="43.65583" lon="5.36153">
        <ele>334.39999389648</ele>
        <time>2019-11-30T15:17:27.000Z</time>
      </trkpt>
      <trkpt lat="43.65586" lon="5.36143">
        <ele>334</ele>
        <time>2019-11-30T15:17:28.000Z</time>
      </trkpt>
      <trkpt lat="43.6559" lon="5.36132">
        <ele>333.60000610352</ele>
        <time>2019-11-30T15:17:29.000Z</time>
      </trkpt>
      <trkpt lat="43.65594" lon="5.36121">
        <ele>332.60000610352</ele>
        <time>2019-11-30T15:17:30.000Z</time>
      </trkpt>
      <trkpt lat="43.65601" lon="5.36112">
        <ele>331.79998779297</ele>
        <time>2019-11-30T15:17:31.000Z</time>
      </trkpt>
      <trkpt lat="43.65609" lon="5.36104">
        <ele>330.79998779297</ele>
        <time>2019-11-30T15:17:32.000Z</time>
      </trkpt>
      <trkpt lat="43.65617" lon="5.36096">
        <ele>329.79998779297</ele>
        <time>2019-11-30T15:17:33.000Z</time>
      </trkpt>
      <trkpt lat="43.65625" lon="5.36088">
        <ele>328.60000610352</ele>
        <time>2019-11-30T15:17:34.000Z</time>
      </trkpt>
      <trkpt lat="43.65633" lon="5.3608">
        <ele>327.39999389648</ele>
        <time>2019-11-30T15:17:35.000Z</time>
      </trkpt>
      <trkpt lat="43.65641" lon="5.36071">
        <ele>326.79998779297</ele>
        <time>2019-11-30T15:17:36.000Z</time>
      </trkpt>
      <trkpt lat="43.65649" lon="5.36063">
        <ele>326.39999389648</ele>
        <time>2019-11-30T15:17:37.000Z</time>
      </trkpt>
      <trkpt lat="43.65657" lon="5.36055">
        <ele>326.20001220703</ele>
        <time>2019-11-30T15:17:38.000Z</time>
      </trkpt>
      <trkpt lat="43.65665" lon="5.36048">
        <ele>325.79998779297</ele>
        <time>2019-11-30T15:17:39.000Z</time>
      </trkpt>
      <trkpt lat="43.65672" lon="5.36041">
        <ele>325.20001220703</ele>
        <time>2019-11-30T15:17:40.000Z</time>
      </trkpt>
      <trkpt lat="43.65678" lon="5.36035">
        <ele>324.79998779297</ele>
        <time>2019-11-30T15:17:41.000Z</time>
      </trkpt>
      <trkpt lat="43.65685" lon="5.36034">
        <ele>325</ele>
        <time>2019-11-30T15:17:42.000Z</time>
      </trkpt>
      <trkpt lat="43.65691" lon="5.36033">
        <ele>325</ele>
        <time>2019-11-30T15:17:43.000Z</time>
      </trkpt>
      <trkpt lat="43.65694" lon="5.36022">
        <ele>324.20001220703</ele>
        <time>2019-11-30T15:17:44.000Z</time>
      </trkpt>
      <trkpt lat="43.65695" lon="5.36017">
        <ele>324</ele>
        <time>2019-11-30T15:17:45.000Z</time>
      </trkpt>
      <trkpt lat="43.65696" lon="5.36011">
        <ele>323.39999389648</ele>
        <time>2019-11-30T15:17:46.000Z</time>
      </trkpt>
      <trkpt lat="43.65698" lon="5.36003">
        <ele>323</ele>
        <time>2019-11-30T15:17:47.000Z</time>
      </trkpt>
      <trkpt lat="43.657" lon="5.35995">
        <ele>322.39999389648</ele>
        <time>2019-11-30T15:17:48.000Z</time>
      </trkpt>
      <trkpt lat="43.65702" lon="5.35986">
        <ele>321.79998779297</ele>
        <time>2019-11-30T15:17:49.000Z</time>
      </trkpt>
      <trkpt lat="43.65704" lon="5.35978">
        <ele>321.39999389648</ele>
        <time>2019-11-30T15:17:50.000Z</time>
      </trkpt>
      <trkpt lat="43.65707" lon="5.35969">
        <ele>321</ele>
        <time>2019-11-30T15:17:51.000Z</time>
      </trkpt>
      <trkpt lat="43.65709" lon="5.35959">
        <ele>320.60000610352</ele>
        <time>2019-11-30T15:17:52.000Z</time>
      </trkpt>
      <trkpt lat="43.65711" lon="5.35949">
        <ele>320.20001220703</ele>
        <time>2019-11-30T15:17:53.000Z</time>
      </trkpt>
      <trkpt lat="43.65714" lon="5.35941">
        <ele>319.79998779297</ele>
        <time>2019-11-30T15:17:54.000Z</time>
      </trkpt>
      <trkpt lat="43.65716" lon="5.35931">
        <ele>319.39999389648</ele>
        <time>2019-11-30T15:17:55.000Z</time>
      </trkpt>
      <trkpt lat="43.65718" lon="5.35921">
        <ele>319</ele>
        <time>2019-11-30T15:17:56.000Z</time>
      </trkpt>
      <trkpt lat="43.65721" lon="5.35909">
        <ele>318.60000610352</ele>
        <time>2019-11-30T15:17:57.000Z</time>
      </trkpt>
      <trkpt lat="43.65724" lon="5.35898">
        <ele>318</ele>
        <time>2019-11-30T15:17:58.000Z</time>
      </trkpt>
      <trkpt lat="43.65727" lon="5.35887">
        <ele>317.39999389648</ele>
        <time>2019-11-30T15:17:59.000Z</time>
      </trkpt>
      <trkpt lat="43.65729" lon="5.35876">
        <ele>317</ele>
        <time>2019-11-30T15:18:00.000Z</time>
      </trkpt>
      <trkpt lat="43.65732" lon="5.35865">
        <ele>316.79998779297</ele>
        <time>2019-11-30T15:18:01.000Z</time>
      </trkpt>
      <trkpt lat="43.65735" lon="5.35854">
        <ele>316.60000610352</ele>
        <time>2019-11-30T15:18:02.000Z</time>
      </trkpt>
      <trkpt lat="43.65737" lon="5.35843">
        <ele>316.39999389648</ele>
        <time>2019-11-30T15:18:03.000Z</time>
      </trkpt>
      <trkpt lat="43.6574" lon="5.35832">
        <ele>316.39999389648</ele>
        <time>2019-11-30T15:18:04.000Z</time>
      </trkpt>
      <trkpt lat="43.65743" lon="5.35821">
        <ele>316.39999389648</ele>
        <time>2019-11-30T15:18:05.000Z</time>
      </trkpt>
      <trkpt lat="43.65745" lon="5.35811">
        <ele>316.20001220703</ele>
        <time>2019-11-30T15:18:06.000Z</time>
      </trkpt>
      <trkpt lat="43.65748" lon="5.358">
        <ele>316.20001220703</ele>
        <time>2019-11-30T15:18:07.000Z</time>
      </trkpt>
      <trkpt lat="43.65751" lon="5.3579">
        <ele>316.20001220703</ele>
        <time>2019-11-30T15:18:08.000Z</time>
      </trkpt>
      <trkpt lat="43.65753" lon="5.35779">
        <ele>316</ele>
        <time>2019-11-30T15:18:09.000Z</time>
      </trkpt>
      <trkpt lat="43.65756" lon="5.35768">
        <ele>315.60000610352</ele>
        <time>2019-11-30T15:18:10.000Z</time>
      </trkpt>
      <trkpt lat="43.65758" lon="5.35758">
        <ele>315</ele>
        <time>2019-11-30T15:18:11.000Z</time>
      </trkpt>
      <trkpt lat="43.65761" lon="5.35747">
        <ele>314.60000610352</ele>
        <time>2019-11-30T15:18:12.000Z</time>
      </trkpt>
      <trkpt lat="43.65764" lon="5.35737">
        <ele>314</ele>
        <time>2019-11-30T15:18:13.000Z</time>
      </trkpt>
      <trkpt lat="43.65766" lon="5.35727">
        <ele>313.60000610352</ele>
        <time>2019-11-30T15:18:14.000Z</time>
      </trkpt>
      <trkpt lat="43.65769" lon="5.35716">
        <ele>313</ele>
        <time>2019-11-30T15:18:15.000Z</time>
      </trkpt>
      <trkpt lat="43.65771" lon="5.35706">
        <ele>313</ele>
        <time>2019-11-30T15:18:16.000Z</time>
      </trkpt>
      <trkpt lat="43.65774" lon="5.35696">
        <ele>312.79998779297</ele>
        <time>2019-11-30T15:18:17.000Z</time>
      </trkpt>
      <trkpt lat="43.65777" lon="5.35685">
        <ele>312.79998779297</ele>
        <time>2019-11-30T15:18:18.000Z</time>
      </trkpt>
      <trkpt lat="43.65779" lon="5.35675">
        <ele>312.60000610352</ele>
        <time>2019-11-30T15:18:19.000Z</time>
      </trkpt>
      <trkpt lat="43.65782" lon="5.35665">
        <ele>312.60000610352</ele>
        <time>2019-11-30T15:18:20.000Z</time>
      </trkpt>
      <trkpt lat="43.65784" lon="5.35655">
        <ele>312.39999389648</ele>
        <time>2019-11-30T15:18:21.000Z</time>
      </trkpt>
      <trkpt lat="43.65787" lon="5.35645">
        <ele>312.39999389648</ele>
        <time>2019-11-30T15:18:22.000Z</time>
      </trkpt>
      <trkpt lat="43.6579" lon="5.35635">
        <ele>312</ele>
        <time>2019-11-30T15:18:23.000Z</time>
      </trkpt>
      <trkpt lat="43.65792" lon="5.35625">
        <ele>312</ele>
        <time>2019-11-30T15:18:24.000Z</time>
      </trkpt>
      <trkpt lat="43.65795" lon="5.35614">
        <ele>312</ele>
        <time>2019-11-30T15:18:25.000Z</time>
      </trkpt>
      <trkpt lat="43.65798" lon="5.35604">
        <ele>312</ele>
        <time>2019-11-30T15:18:26.000Z</time>
      </trkpt>
      <trkpt lat="43.658" lon="5.35595">
        <ele>312</ele>
        <time>2019-11-30T15:18:27.000Z</time>
      </trkpt>
      <trkpt lat="43.65802" lon="5.35585">
        <ele>312</ele>
        <time>2019-11-30T15:18:28.000Z</time>
      </trkpt>
      <trkpt lat="43.65809" lon="5.35576">
        <ele>311.79998779297</ele>
        <time>2019-11-30T15:18:29.000Z</time>
      </trkpt>
      <trkpt lat="43.65814" lon="5.3557">
        <ele>311.39999389648</ele>
        <time>2019-11-30T15:18:30.000Z</time>
      </trkpt>
      <trkpt lat="43.65819" lon="5.35565">
        <ele>311.20001220703</ele>
        <time>2019-11-30T15:18:31.000Z</time>
      </trkpt>
      <trkpt lat="43.65821" lon="5.35557">
        <ele>311</ele>
        <time>2019-11-30T15:18:32.000Z</time>
      </trkpt>
      <trkpt lat="43.65823" lon="5.35548">
        <ele>310.79998779297</ele>
        <time>2019-11-30T15:18:33.000Z</time>
      </trkpt>
      <trkpt lat="43.65825" lon="5.3554">
        <ele>310.79998779297</ele>
        <time>2019-11-30T15:18:34.000Z</time>
      </trkpt>
      <trkpt lat="43.65826" lon="5.35532">
        <ele>311</ele>
        <time>2019-11-30T15:18:35.000Z</time>
      </trkpt>
      <trkpt lat="43.65827" lon="5.35524">
        <ele>311.20001220703</ele>
        <time>2019-11-30T15:18:36.000Z</time>
      </trkpt>
      <trkpt lat="43.6583" lon="5.35516">
        <ele>311.39999389648</ele>
        <time>2019-11-30T15:18:37.000Z</time>
      </trkpt>
      <trkpt lat="43.65834" lon="5.35511">
        <ele>311.60000610352</ele>
        <time>2019-11-30T15:18:38.000Z</time>
      </trkpt>
      <trkpt lat="43.65839" lon="5.35506">
        <ele>311.60000610352</ele>
        <time>2019-11-30T15:18:39.000Z</time>
      </trkpt>
      <trkpt lat="43.65843" lon="5.355">
        <ele>311.79998779297</ele>
        <time>2019-11-30T15:18:40.000Z</time>
      </trkpt>
      <trkpt lat="43.65848" lon="5.35495">
        <ele>312</ele>
        <time>2019-11-30T15:18:41.000Z</time>
      </trkpt>
      <trkpt lat="43.65852" lon="5.3549">
        <ele>312</ele>
        <time>2019-11-30T15:18:42.000Z</time>
      </trkpt>
      <trkpt lat="43.65856" lon="5.35485">
        <ele>312.20001220703</ele>
        <time>2019-11-30T15:18:43.000Z</time>
      </trkpt>
      <trkpt lat="43.6586" lon="5.3548">
        <ele>312.39999389648</ele>
        <time>2019-11-30T15:18:44.000Z</time>
      </trkpt>
      <trkpt lat="43.65865" lon="5.35475">
        <ele>312.39999389648</ele>
        <time>2019-11-30T15:18:45.000Z</time>
      </trkpt>
      <trkpt lat="43.65869" lon="5.3547">
        <ele>312.60000610352</ele>
        <time>2019-11-30T15:18:46.000Z</time>
      </trkpt>
      <trkpt lat="43.65873" lon="5.35465">
        <ele>312.79998779297</ele>
        <time>2019-11-30T15:18:47.000Z</time>
      </trkpt>
      <trkpt lat="43.65877" lon="5.3546">
        <ele>312.79998779297</ele>
        <time>2019-11-30T15:18:48.000Z</time>
      </trkpt>
      <trkpt lat="43.65881" lon="5.35455">
        <ele>312.79998779297</ele>
        <time>2019-11-30T15:18:49.000Z</time>
      </trkpt>
      <trkpt lat="43.65886" lon="5.35451">
        <ele>312.79998779297</ele>
        <time>2019-11-30T15:18:50.000Z</time>
      </trkpt>
      <trkpt lat="43.6589" lon="5.35447">
        <ele>312.79998779297</ele>
        <time>2019-11-30T15:18:51.000Z</time>
      </trkpt>
      <trkpt lat="43.65894" lon="5.35443">
        <ele>312.79998779297</ele>
        <time>2019-11-30T15:18:52.000Z</time>
      </trkpt>
      <trkpt lat="43.65899" lon="5.35439">
        <ele>312.79998779297</ele>
        <time>2019-11-30T15:18:53.000Z</time>
      </trkpt>
      <trkpt lat="43.65903" lon="5.35435">
        <ele>312.79998779297</ele>
        <time>2019-11-30T15:18:54.000Z</time>
      </trkpt>
      <trkpt lat="43.65908" lon="5.35431">
        <ele>312.79998779297</ele>
        <time>2019-11-30T15:18:55.000Z</time>
      </trkpt>
      <trkpt lat="43.65912" lon="5.35427">
        <ele>312.79998779297</ele>
        <time>2019-11-30T15:18:56.000Z</time>
      </trkpt>
      <trkpt lat="43.65916" lon="5.35423">
        <ele>313</ele>
        <time>2019-11-30T15:18:57.000Z</time>
      </trkpt>
      <trkpt lat="43.65921" lon="5.35419">
        <ele>313</ele>
        <time>2019-11-30T15:18:58.000Z</time>
      </trkpt>
      <trkpt lat="43.65925" lon="5.35415">
        <ele>313.20001220703</ele>
        <time>2019-11-30T15:18:59.000Z</time>
      </trkpt>
      <trkpt lat="43.6593" lon="5.35411">
        <ele>313.20001220703</ele>
        <time>2019-11-30T15:19:00.000Z</time>
      </trkpt>
      <trkpt lat="43.65935" lon="5.35407">
        <ele>313.39999389648</ele>
        <time>2019-11-30T15:19:01.000Z</time>
      </trkpt>
      <trkpt lat="43.65939" lon="5.35402">
        <ele>313.39999389648</ele>
        <time>2019-11-30T15:19:02.000Z</time>
      </trkpt>
      <trkpt lat="43.65944" lon="5.35398">
        <ele>313.39999389648</ele>
        <time>2019-11-30T15:19:03.000Z</time>
      </trkpt>
      <trkpt lat="43.65949" lon="5.35394">
        <ele>313.39999389648</ele>
        <time>2019-11-30T15:19:04.000Z</time>
      </trkpt>
      <trkpt lat="43.65953" lon="5.35389">
        <ele>313.39999389648</ele>
        <time>2019-11-30T15:19:05.000Z</time>
      </trkpt>
      <trkpt lat="43.65958" lon="5.35384">
        <ele>313.39999389648</ele>
        <time>2019-11-30T15:19:06.000Z</time>
      </trkpt>
      <trkpt lat="43.65962" lon="5.3538">
        <ele>313.39999389648</ele>
        <time>2019-11-30T15:19:07.000Z</time>
      </trkpt>
      <trkpt lat="43.65967" lon="5.35375">
        <ele>313.39999389648</ele>
        <time>2019-11-30T15:19:08.000Z</time>
      </trkpt>
      <trkpt lat="43.65971" lon="5.35371">
        <ele>313.20001220703</ele>
        <time>2019-11-30T15:19:09.000Z</time>
      </trkpt>
      <trkpt lat="43.65975" lon="5.35367">
        <ele>313.20001220703</ele>
        <time>2019-11-30T15:19:10.000Z</time>
      </trkpt>
      <trkpt lat="43.65979" lon="5.35363">
        <ele>313.20001220703</ele>
        <time>2019-11-30T15:19:11.000Z</time>
      </trkpt>
      <trkpt lat="43.65983" lon="5.35359">
        <ele>313.20001220703</ele>
        <time>2019-11-30T15:19:12.000Z</time>
      </trkpt>
      <trkpt lat="43.65987" lon="5.35355">
        <ele>313</ele>
        <time>2019-11-30T15:19:13.000Z</time>
      </trkpt>
      <trkpt lat="43.65991" lon="5.35351">
        <ele>313</ele>
        <time>2019-11-30T15:19:14.000Z</time>
      </trkpt>
      <trkpt lat="43.65995" lon="5.35346">
        <ele>313.20001220703</ele>
        <time>2019-11-30T15:19:15.000Z</time>
      </trkpt>
      <trkpt lat="43.66" lon="5.35342">
        <ele>313.39999389648</ele>
        <time>2019-11-30T15:19:16.000Z</time>
      </trkpt>
      <trkpt lat="43.66004" lon="5.35338">
        <ele>313.60000610352</ele>
        <time>2019-11-30T15:19:17.000Z</time>
      </trkpt>
      <trkpt lat="43.66008" lon="5.35334">
        <ele>313.60000610352</ele>
        <time>2019-11-30T15:19:18.000Z</time>
      </trkpt>
      <trkpt lat="43.66012" lon="5.3533">
        <ele>313.79998779297</ele>
        <time>2019-11-30T15:19:19.000Z</time>
      </trkpt>
      <trkpt lat="43.66016" lon="5.35326">
        <ele>314</ele>
        <time>2019-11-30T15:19:20.000Z</time>
      </trkpt>
      <trkpt lat="43.6602" lon="5.35322">
        <ele>314.20001220703</ele>
        <time>2019-11-30T15:19:21.000Z</time>
      </trkpt>
      <trkpt lat="43.66024" lon="5.35318">
        <ele>314.20001220703</ele>
        <time>2019-11-30T15:19:22.000Z</time>
      </trkpt>
      <trkpt lat="43.66028" lon="5.35314">
        <ele>314.39999389648</ele>
        <time>2019-11-30T15:19:23.000Z</time>
      </trkpt>
      <trkpt lat="43.66031" lon="5.3531">
        <ele>314.39999389648</ele>
        <time>2019-11-30T15:19:24.000Z</time>
      </trkpt>
      <trkpt lat="43.66035" lon="5.35306">
        <ele>314.39999389648</ele>
        <time>2019-11-30T15:19:25.000Z</time>
      </trkpt>
      <trkpt lat="43.66039" lon="5.35303">
        <ele>314.60000610352</ele>
        <time>2019-11-30T15:19:26.000Z</time>
      </trkpt>
      <trkpt lat="43.66042" lon="5.35299">
        <ele>314.60000610352</ele>
        <time>2019-11-30T15:19:27.000Z</time>
      </trkpt>
      <trkpt lat="43.66045" lon="5.35296">
        <ele>314.79998779297</ele>
        <time>2019-11-30T15:19:28.000Z</time>
      </trkpt>
      <trkpt lat="43.66049" lon="5.35293">
        <ele>314.79998779297</ele>
        <time>2019-11-30T15:19:29.000Z</time>
      </trkpt>
      <trkpt lat="43.66052" lon="5.35289">
        <ele>314.79998779297</ele>
        <time>2019-11-30T15:19:30.000Z</time>
      </trkpt>
      <trkpt lat="43.66055" lon="5.35286">
        <ele>314.79998779297</ele>
        <time>2019-11-30T15:19:31.000Z</time>
      </trkpt>
      <trkpt lat="43.66059" lon="5.35283">
        <ele>314.79998779297</ele>
        <time>2019-11-30T15:19:32.000Z</time>
      </trkpt>
      <trkpt lat="43.66062" lon="5.35279">
        <ele>315</ele>
        <time>2019-11-30T15:19:33.000Z</time>
      </trkpt>
      <trkpt lat="43.66065" lon="5.35276">
        <ele>315</ele>
        <time>2019-11-30T15:19:34.000Z</time>
      </trkpt>
      <trkpt lat="43.66069" lon="5.35272">
        <ele>315</ele>
        <time>2019-11-30T15:19:35.000Z</time>
      </trkpt>
      <trkpt lat="43.66072" lon="5.35269">
        <ele>315</ele>
        <time>2019-11-30T15:19:36.000Z</time>
      </trkpt>
      <trkpt lat="43.66075" lon="5.35266">
        <ele>315.20001220703</ele>
        <time>2019-11-30T15:19:37.000Z</time>
      </trkpt>
      <trkpt lat="43.66078" lon="5.35263">
        <ele>315.39999389648</ele>
        <time>2019-11-30T15:19:38.000Z</time>
      </trkpt>
      <trkpt lat="43.66082" lon="5.35259">
        <ele>315.60000610352</ele>
        <time>2019-11-30T15:19:39.000Z</time>
      </trkpt>
      <trkpt lat="43.66085" lon="5.35256">
        <ele>315.79998779297</ele>
        <time>2019-11-30T15:19:40.000Z</time>
      </trkpt>
      <trkpt lat="43.66088" lon="5.35253">
        <ele>316</ele>
        <time>2019-11-30T15:19:41.000Z</time>
      </trkpt>
      <trkpt lat="43.66091" lon="5.35249">
        <ele>316.20001220703</ele>
        <time>2019-11-30T15:19:42.000Z</time>
      </trkpt>
      <trkpt lat="43.66095" lon="5.35246">
        <ele>316.39999389648</ele>
        <time>2019-11-30T15:19:43.000Z</time>
      </trkpt>
      <trkpt lat="43.66098" lon="5.35243">
        <ele>316.60000610352</ele>
        <time>2019-11-30T15:19:44.000Z</time>
      </trkpt>
      <trkpt lat="43.66101" lon="5.3524">
        <ele>316.79998779297</ele>
        <time>2019-11-30T15:19:45.000Z</time>
      </trkpt>
      <trkpt lat="43.66104" lon="5.35237">
        <ele>317</ele>
        <time>2019-11-30T15:19:46.000Z</time>
      </trkpt>
      <trkpt lat="43.66107" lon="5.35234">
        <ele>317.20001220703</ele>
        <time>2019-11-30T15:19:47.000Z</time>
      </trkpt>
      <trkpt lat="43.66109" lon="5.35231">
        <ele>317.60000610352</ele>
        <time>2019-11-30T15:19:48.000Z</time>
      </trkpt>
      <trkpt lat="43.66112" lon="5.35229">
        <ele>317.79998779297</ele>
        <time>2019-11-30T15:19:49.000Z</time>
      </trkpt>
      <trkpt lat="43.66115" lon="5.35226">
        <ele>318</ele>
        <time>2019-11-30T15:19:50.000Z</time>
      </trkpt>
      <trkpt lat="43.66117" lon="5.35223">
        <ele>318.39999389648</ele>
        <time>2019-11-30T15:19:51.000Z</time>
      </trkpt>
      <trkpt lat="43.66119" lon="5.3522">
        <ele>318.60000610352</ele>
        <time>2019-11-30T15:19:52.000Z</time>
      </trkpt>
      <trkpt lat="43.66122" lon="5.35216">
        <ele>319</ele>
        <time>2019-11-30T15:19:53.000Z</time>
      </trkpt>
      <trkpt lat="43.66125" lon="5.35213">
        <ele>319.39999389648</ele>
        <time>2019-11-30T15:19:54.000Z</time>
      </trkpt>
      <trkpt lat="43.66128" lon="5.35209">
        <ele>319.60000610352</ele>
        <time>2019-11-30T15:19:55.000Z</time>
      </trkpt>
      <trkpt lat="43.66131" lon="5.35205">
        <ele>319.79998779297</ele>
        <time>2019-11-30T15:19:56.000Z</time>
      </trkpt>
      <trkpt lat="43.66134" lon="5.35201">
        <ele>320.20001220703</ele>
        <time>2019-11-30T15:19:57.000Z</time>
      </trkpt>
      <trkpt lat="43.66136" lon="5.35197">
        <ele>320.39999389648</ele>
        <time>2019-11-30T15:19:58.000Z</time>
      </trkpt>
      <trkpt lat="43.66139" lon="5.35194">
        <ele>320.60000610352</ele>
        <time>2019-11-30T15:19:59.000Z</time>
      </trkpt>
      <trkpt lat="43.66142" lon="5.3519">
        <ele>321</ele>
        <time>2019-11-30T15:20:00.000Z</time>
      </trkpt>
      <trkpt lat="43.66145" lon="5.35186">
        <ele>321.20001220703</ele>
        <time>2019-11-30T15:20:01.000Z</time>
      </trkpt>
      <trkpt lat="43.66147" lon="5.35183">
        <ele>321.39999389648</ele>
        <time>2019-11-30T15:20:02.000Z</time>
      </trkpt>
      <trkpt lat="43.6615" lon="5.35179">
        <ele>321.60000610352</ele>
        <time>2019-11-30T15:20:03.000Z</time>
      </trkpt>
      <trkpt lat="43.66153" lon="5.35176">
        <ele>321.79998779297</ele>
        <time>2019-11-30T15:20:04.000Z</time>
      </trkpt>
      <trkpt lat="43.66155" lon="5.35172">
        <ele>321.79998779297</ele>
        <time>2019-11-30T15:20:05.000Z</time>
      </trkpt>
      <trkpt lat="43.66158" lon="5.35169">
        <ele>321.79998779297</ele>
        <time>2019-11-30T15:20:06.000Z</time>
      </trkpt>
      <trkpt lat="43.6616" lon="5.35166">
        <ele>321.79998779297</ele>
        <time>2019-11-30T15:20:07.000Z</time>
      </trkpt>
      <trkpt lat="43.66163" lon="5.35162">
        <ele>321.79998779297</ele>
        <time>2019-11-30T15:20:08.000Z</time>
      </trkpt>
      <trkpt lat="43.66166" lon="5.35158">
        <ele>321.79998779297</ele>
        <time>2019-11-30T15:20:09.000Z</time>
      </trkpt>
      <trkpt lat="43.66168" lon="5.35155">
        <ele>321.79998779297</ele>
        <time>2019-11-30T15:20:10.000Z</time>
      </trkpt>
      <trkpt lat="43.6617" lon="5.35151">
        <ele>321.79998779297</ele>
        <time>2019-11-30T15:20:11.000Z</time>
      </trkpt>
      <trkpt lat="43.66172" lon="5.35146">
        <ele>321.79998779297</ele>
        <time>2019-11-30T15:20:12.000Z</time>
      </trkpt>
      <trkpt lat="43.66174" lon="5.35142">
        <ele>321.79998779297</ele>
        <time>2019-11-30T15:20:13.000Z</time>
      </trkpt>
      <trkpt lat="43.66177" lon="5.35138">
        <ele>321.79998779297</ele>
        <time>2019-11-30T15:20:14.000Z</time>
      </trkpt>
      <trkpt lat="43.66179" lon="5.35134">
        <ele>321.79998779297</ele>
        <time>2019-11-30T15:20:15.000Z</time>
      </trkpt>
      <trkpt lat="43.66181" lon="5.3513">
        <ele>322</ele>
        <time>2019-11-30T15:20:16.000Z</time>
      </trkpt>
      <trkpt lat="43.66184" lon="5.35125">
        <ele>322.20001220703</ele>
        <time>2019-11-30T15:20:17.000Z</time>
      </trkpt>
      <trkpt lat="43.66186" lon="5.3512">
        <ele>322.20001220703</ele>
        <time>2019-11-30T15:20:18.000Z</time>
      </trkpt>
      <trkpt lat="43.66188" lon="5.35116">
        <ele>322.60000610352</ele>
        <time>2019-11-30T15:20:19.000Z</time>
      </trkpt>
      <trkpt lat="43.66191" lon="5.35111">
        <ele>323</ele>
        <time>2019-11-30T15:20:20.000Z</time>
      </trkpt>
      <trkpt lat="43.66194" lon="5.35107">
        <ele>323.39999389648</ele>
        <time>2019-11-30T15:20:21.000Z</time>
      </trkpt>
      <trkpt lat="43.66196" lon="5.35102">
        <ele>323.79998779297</ele>
        <time>2019-11-30T15:20:22.000Z</time>
      </trkpt>
      <trkpt lat="43.66199" lon="5.35097">
        <ele>324.20001220703</ele>
        <time>2019-11-30T15:20:23.000Z</time>
      </trkpt>
      <trkpt lat="43.66201" lon="5.35092">
        <ele>324.60000610352</ele>
        <time>2019-11-30T15:20:24.000Z</time>
      </trkpt>
      <trkpt lat="43.66204" lon="5.35087">
        <ele>325</ele>
        <time>2019-11-30T15:20:25.000Z</time>
      </trkpt>
      <trkpt lat="43.66206" lon="5.35082">
        <ele>325.39999389648</ele>
        <time>2019-11-30T15:20:26.000Z</time>
      </trkpt>
      <trkpt lat="43.66209" lon="5.35077">
        <ele>325.79998779297</ele>
        <time>2019-11-30T15:20:27.000Z</time>
      </trkpt>
      <trkpt lat="43.66211" lon="5.35072">
        <ele>326</ele>
        <time>2019-11-30T15:20:28.000Z</time>
      </trkpt>
      <trkpt lat="43.66214" lon="5.35068">
        <ele>325.79998779297</ele>
        <time>2019-11-30T15:20:29.000Z</time>
      </trkpt>
      <trkpt lat="43.66217" lon="5.35062">
        <ele>325.39999389648</ele>
        <time>2019-11-30T15:20:30.000Z</time>
      </trkpt>
      <trkpt lat="43.66219" lon="5.35057">
        <ele>325</ele>
        <time>2019-11-30T15:20:31.000Z</time>
      </trkpt>
      <trkpt lat="43.66222" lon="5.35052">
        <ele>324.79998779297</ele>
        <time>2019-11-30T15:20:32.000Z</time>
      </trkpt>
      <trkpt lat="43.66225" lon="5.35047">
        <ele>324.39999389648</ele>
        <time>2019-11-30T15:20:33.000Z</time>
      </trkpt>
      <trkpt lat="43.66227" lon="5.35042">
        <ele>324.60000610352</ele>
        <time>2019-11-30T15:20:34.000Z</time>
      </trkpt>
      <trkpt lat="43.6623" lon="5.35037">
        <ele>324.60000610352</ele>
        <time>2019-11-30T15:20:35.000Z</time>
      </trkpt>
      <trkpt lat="43.66233" lon="5.35031">
        <ele>324.79998779297</ele>
        <time>2019-11-30T15:20:36.000Z</time>
      </trkpt>
      <trkpt lat="43.66236" lon="5.35025">
        <ele>324.79998779297</ele>
        <time>2019-11-30T15:20:37.000Z</time>
      </trkpt>
      <trkpt lat="43.66238" lon="5.35019">
        <ele>325</ele>
        <time>2019-11-30T15:20:38.000Z</time>
      </trkpt>
      <trkpt lat="43.66241" lon="5.35014">
        <ele>324.79998779297</ele>
        <time>2019-11-30T15:20:39.000Z</time>
      </trkpt>
      <trkpt lat="43.66244" lon="5.35008">
        <ele>324.60000610352</ele>
        <time>2019-11-30T15:20:40.000Z</time>
      </trkpt>
      <trkpt lat="43.66247" lon="5.35003">
        <ele>324.20001220703</ele>
        <time>2019-11-30T15:20:41.000Z</time>
      </trkpt>
      <trkpt lat="43.66249" lon="5.34997">
        <ele>324</ele>
        <time>2019-11-30T15:20:42.000Z</time>
      </trkpt>
      <trkpt lat="43.66252" lon="5.34991">
        <ele>323.60000610352</ele>
        <time>2019-11-30T15:20:43.000Z</time>
      </trkpt>
      <trkpt lat="43.66255" lon="5.34985">
        <ele>323.20001220703</ele>
        <time>2019-11-30T15:20:44.000Z</time>
      </trkpt>
      <trkpt lat="43.66258" lon="5.34979">
        <ele>323</ele>
        <time>2019-11-30T15:20:45.000Z</time>
      </trkpt>
      <trkpt lat="43.66261" lon="5.34973">
        <ele>322.60000610352</ele>
        <time>2019-11-30T15:20:46.000Z</time>
      </trkpt>
      <trkpt lat="43.66264" lon="5.34968">
        <ele>322.39999389648</ele>
        <time>2019-11-30T15:20:47.000Z</time>
      </trkpt>
      <trkpt lat="43.66267" lon="5.34963">
        <ele>322</ele>
        <time>2019-11-30T15:20:48.000Z</time>
      </trkpt>
      <trkpt lat="43.6627" lon="5.34959">
        <ele>321.79998779297</ele>
        <time>2019-11-30T15:20:49.000Z</time>
      </trkpt>
      <trkpt lat="43.66273" lon="5.34954">
        <ele>321.60000610352</ele>
        <time>2019-11-30T15:20:50.000Z</time>
      </trkpt>
      <trkpt lat="43.66276" lon="5.3495">
        <ele>321.39999389648</ele>
        <time>2019-11-30T15:20:51.000Z</time>
      </trkpt>
      <trkpt lat="43.66279" lon="5.34945">
        <ele>321.39999389648</ele>
        <time>2019-11-30T15:20:52.000Z</time>
      </trkpt>
      <trkpt lat="43.66283" lon="5.3494">
        <ele>321.20001220703</ele>
        <time>2019-11-30T15:20:53.000Z</time>
      </trkpt>
      <trkpt lat="43.66286" lon="5.34936">
        <ele>321</ele>
        <time>2019-11-30T15:20:54.000Z</time>
      </trkpt>
      <trkpt lat="43.66289" lon="5.34931">
        <ele>320.79998779297</ele>
        <time>2019-11-30T15:20:55.000Z</time>
      </trkpt>
      <trkpt lat="43.66292" lon="5.34927">
        <ele>320.79998779297</ele>
        <time>2019-11-30T15:20:56.000Z</time>
      </trkpt>
      <trkpt lat="43.66295" lon="5.34922">
        <ele>320.60000610352</ele>
        <time>2019-11-30T15:20:57.000Z</time>
      </trkpt>
      <trkpt lat="43.66298" lon="5.34918">
        <ele>320.39999389648</ele>
        <time>2019-11-30T15:20:58.000Z</time>
      </trkpt>
      <trkpt lat="43.66301" lon="5.34914">
        <ele>320.39999389648</ele>
        <time>2019-11-30T15:20:59.000Z</time>
      </trkpt>
      <trkpt lat="43.66303" lon="5.3491">
        <ele>320</ele>
        <time>2019-11-30T15:21:00.000Z</time>
      </trkpt>
      <trkpt lat="43.66305" lon="5.34908">
        <ele>319.79998779297</ele>
        <time>2019-11-30T15:21:01.000Z</time>
      </trkpt>
      <trkpt lat="43.66306" lon="5.34905">
        <ele>319.39999389648</ele>
        <time>2019-11-30T15:21:02.000Z</time>
      </trkpt>
      <trkpt lat="43.66308" lon="5.34903">
        <ele>319.20001220703</ele>
        <time>2019-11-30T15:21:03.000Z</time>
      </trkpt>
      <trkpt lat="43.66309" lon="5.34901">
        <ele>319</ele>
        <time>2019-11-30T15:21:04.000Z</time>
      </trkpt>
      <trkpt lat="43.66311" lon="5.34899">
        <ele>318.60000610352</ele>
        <time>2019-11-30T15:21:05.000Z</time>
      </trkpt>
      <trkpt lat="43.66313" lon="5.34896">
        <ele>318.39999389648</ele>
        <time>2019-11-30T15:21:06.000Z</time>
      </trkpt>
      <trkpt lat="43.66316" lon="5.34893">
        <ele>318</ele>
        <time>2019-11-30T15:21:07.000Z</time>
      </trkpt>
      <trkpt lat="43.66319" lon="5.34891">
        <ele>317.79998779297</ele>
        <time>2019-11-30T15:21:08.000Z</time>
      </trkpt>
      <trkpt lat="43.66323" lon="5.34888">
        <ele>317.39999389648</ele>
        <time>2019-11-30T15:21:09.000Z</time>
      </trkpt>
      <trkpt lat="43.66326" lon="5.3488">
        <ele>316.60000610352</ele>
        <time>2019-11-30T15:21:10.000Z</time>
      </trkpt>
      <trkpt lat="43.66327" lon="5.34875">
        <ele>316.60000610352</ele>
        <time>2019-11-30T15:21:11.000Z</time>
      </trkpt>
      <trkpt lat="43.66329" lon="5.3487">
        <ele>316.79998779297</ele>
        <time>2019-11-30T15:21:12.000Z</time>
      </trkpt>
      <trkpt lat="43.6633" lon="5.34865">
        <ele>316.79998779297</ele>
        <time>2019-11-30T15:21:13.000Z</time>
      </trkpt>
      <trkpt lat="43.66332" lon="5.3486">
        <ele>316.79998779297</ele>
        <time>2019-11-30T15:21:14.000Z</time>
      </trkpt>
      <trkpt lat="43.66333" lon="5.34855">
        <ele>317</ele>
        <time>2019-11-30T15:21:15.000Z</time>
      </trkpt>
      <trkpt lat="43.66335" lon="5.3485">
        <ele>317.20001220703</ele>
        <time>2019-11-30T15:21:16.000Z</time>
      </trkpt>
      <trkpt lat="43.66336" lon="5.34844">
        <ele>317.39999389648</ele>
        <time>2019-11-30T15:21:17.000Z</time>
      </trkpt>
      <trkpt lat="43.66338" lon="5.34839">
        <ele>317.39999389648</ele>
        <time>2019-11-30T15:21:18.000Z</time>
      </trkpt>
      <trkpt lat="43.66339" lon="5.34834">
        <ele>317.60000610352</ele>
        <time>2019-11-30T15:21:19.000Z</time>
      </trkpt>
      <trkpt lat="43.6634" lon="5.3483">
        <ele>317.79998779297</ele>
        <time>2019-11-30T15:21:20.000Z</time>
      </trkpt>
      <trkpt lat="43.66342" lon="5.34825">
        <ele>318</ele>
        <time>2019-11-30T15:21:21.000Z</time>
      </trkpt>
      <trkpt lat="43.66343" lon="5.3482">
        <ele>318.20001220703</ele>
        <time>2019-11-30T15:21:22.000Z</time>
      </trkpt>
      <trkpt lat="43.66345" lon="5.34815">
        <ele>318.39999389648</ele>
        <time>2019-11-30T15:21:23.000Z</time>
      </trkpt>
      <trkpt lat="43.66346" lon="5.34811">
        <ele>318.60000610352</ele>
        <time>2019-11-30T15:21:24.000Z</time>
      </trkpt>
      <trkpt lat="43.66347" lon="5.34806">
        <ele>318.79998779297</ele>
        <time>2019-11-30T15:21:25.000Z</time>
      </trkpt>
      <trkpt lat="43.66348" lon="5.34801">
        <ele>318.79998779297</ele>
        <time>2019-11-30T15:21:26.000Z</time>
      </trkpt>
      <trkpt lat="43.66349" lon="5.34796">
        <ele>319</ele>
        <time>2019-11-30T15:21:27.000Z</time>
      </trkpt>
      <trkpt lat="43.6635" lon="5.34792">
        <ele>319.39999389648</ele>
        <time>2019-11-30T15:21:28.000Z</time>
      </trkpt>
      <trkpt lat="43.66351" lon="5.34787">
        <ele>319.60000610352</ele>
        <time>2019-11-30T15:21:29.000Z</time>
      </trkpt>
      <trkpt lat="43.66352" lon="5.34782">
        <ele>320</ele>
        <time>2019-11-30T15:21:30.000Z</time>
      </trkpt>
      <trkpt lat="43.66353" lon="5.34777">
        <ele>320.20001220703</ele>
        <time>2019-11-30T15:21:31.000Z</time>
      </trkpt>
      <trkpt lat="43.66354" lon="5.34771">
        <ele>320.60000610352</ele>
        <time>2019-11-30T15:21:32.000Z</time>
      </trkpt>
      <trkpt lat="43.66355" lon="5.34766">
        <ele>320.79998779297</ele>
        <time>2019-11-30T15:21:33.000Z</time>
      </trkpt>
      <trkpt lat="43.66355" lon="5.34762">
        <ele>321</ele>
        <time>2019-11-30T15:21:34.000Z</time>
      </trkpt>
      <trkpt lat="43.66356" lon="5.34757">
        <ele>321.20001220703</ele>
        <time>2019-11-30T15:21:35.000Z</time>
      </trkpt>
      <trkpt lat="43.66357" lon="5.34753">
        <ele>321.60000610352</ele>
        <time>2019-11-30T15:21:36.000Z</time>
      </trkpt>
      <trkpt lat="43.66358" lon="5.34749">
        <ele>321.79998779297</ele>
        <time>2019-11-30T15:21:37.000Z</time>
      </trkpt>
      <trkpt lat="43.66358" lon="5.34744">
        <ele>322</ele>
        <time>2019-11-30T15:21:38.000Z</time>
      </trkpt>
      <trkpt lat="43.66358" lon="5.34741">
        <ele>322.20001220703</ele>
        <time>2019-11-30T15:21:39.000Z</time>
      </trkpt>
      <trkpt lat="43.66358" lon="5.34738">
        <ele>322.39999389648</ele>
        <time>2019-11-30T15:21:40.000Z</time>
      </trkpt>
      <trkpt lat="43.66359" lon="5.34734">
        <ele>322.60000610352</ele>
        <time>2019-11-30T15:21:41.000Z</time>
      </trkpt>
      <trkpt lat="43.66359" lon="5.34729">
        <ele>322.79998779297</ele>
        <time>2019-11-30T15:21:42.000Z</time>
      </trkpt>
      <trkpt lat="43.66359" lon="5.34725">
        <ele>323.20001220703</ele>
        <time>2019-11-30T15:21:43.000Z</time>
      </trkpt>
      <trkpt lat="43.66359" lon="5.34723">
        <ele>323.20001220703</ele>
        <time>2019-11-30T15:21:44.000Z</time>
      </trkpt>
      <trkpt lat="43.66359" lon="5.34721">
        <ele>323.39999389648</ele>
        <time>2019-11-30T15:21:45.000Z</time>
      </trkpt>
      <trkpt lat="43.66359" lon="5.34718">
        <ele>323.39999389648</ele>
        <time>2019-11-30T15:21:46.000Z</time>
      </trkpt>
      <trkpt lat="43.6636" lon="5.34714">
        <ele>323.60000610352</ele>
        <time>2019-11-30T15:21:47.000Z</time>
      </trkpt>
      <trkpt lat="43.6636" lon="5.34709">
        <ele>324</ele>
        <time>2019-11-30T15:21:48.000Z</time>
      </trkpt>
      <trkpt lat="43.6636" lon="5.34703">
        <ele>324.60000610352</ele>
        <time>2019-11-30T15:21:49.000Z</time>
      </trkpt>
      <trkpt lat="43.66361" lon="5.34699">
        <ele>325</ele>
        <time>2019-11-30T15:21:50.000Z</time>
      </trkpt>
      <trkpt lat="43.66362" lon="5.34695">
        <ele>325.39999389648</ele>
        <time>2019-11-30T15:21:51.000Z</time>
      </trkpt>
      <trkpt lat="43.66362" lon="5.34691">
        <ele>325.79998779297</ele>
        <time>2019-11-30T15:21:52.000Z</time>
      </trkpt>
      <trkpt lat="43.66362" lon="5.34687">
        <ele>326</ele>
        <time>2019-11-30T15:21:53.000Z</time>
      </trkpt>
      <trkpt lat="43.66363" lon="5.34683">
        <ele>326.39999389648</ele>
        <time>2019-11-30T15:21:54.000Z</time>
      </trkpt>
      <trkpt lat="43.66363" lon="5.34679">
        <ele>326.79998779297</ele>
        <time>2019-11-30T15:21:55.000Z</time>
      </trkpt>
      <trkpt lat="43.66364" lon="5.34675">
        <ele>327.20001220703</ele>
        <time>2019-11-30T15:21:56.000Z</time>
      </trkpt>
      <trkpt lat="43.66364" lon="5.3467">
        <ele>327.60000610352</ele>
        <time>2019-11-30T15:21:57.000Z</time>
      </trkpt>
      <trkpt lat="43.66365" lon="5.34666">
        <ele>328</ele>
        <time>2019-11-30T15:21:58.000Z</time>
      </trkpt>
      <trkpt lat="43.66365" lon="5.34662">
        <ele>328.20001220703</ele>
        <time>2019-11-30T15:21:59.000Z</time>
      </trkpt>
      <trkpt lat="43.66365" lon="5.34658">
        <ele>328.60000610352</ele>
        <time>2019-11-30T15:22:00.000Z</time>
      </trkpt>
      <trkpt lat="43.66366" lon="5.34654">
        <ele>329</ele>
        <time>2019-11-30T15:22:01.000Z</time>
      </trkpt>
      <trkpt lat="43.66366" lon="5.34649">
        <ele>329.39999389648</ele>
        <time>2019-11-30T15:22:02.000Z</time>
      </trkpt>
      <trkpt lat="43.66367" lon="5.34645">
        <ele>329.79998779297</ele>
        <time>2019-11-30T15:22:03.000Z</time>
      </trkpt>
      <trkpt lat="43.66367" lon="5.34641">
        <ele>330.20001220703</ele>
        <time>2019-11-30T15:22:04.000Z</time>
      </trkpt>
      <trkpt lat="43.66367" lon="5.34637">
        <ele>330.60000610352</ele>
        <time>2019-11-30T15:22:05.000Z</time>
      </trkpt>
      <trkpt lat="43.66368" lon="5.34633">
        <ele>331</ele>
        <time>2019-11-30T15:22:06.000Z</time>
      </trkpt>
      <trkpt lat="43.66368" lon="5.34629">
        <ele>331.20001220703</ele>
        <time>2019-11-30T15:22:07.000Z</time>
      </trkpt>
      <trkpt lat="43.66369" lon="5.34625">
        <ele>331.39999389648</ele>
        <time>2019-11-30T15:22:08.000Z</time>
      </trkpt>
      <trkpt lat="43.66369" lon="5.3462">
        <ele>331.60000610352</ele>
        <time>2019-11-30T15:22:09.000Z</time>
      </trkpt>
      <trkpt lat="43.66369" lon="5.34616">
        <ele>331.79998779297</ele>
        <time>2019-11-30T15:22:10.000Z</time>
      </trkpt>
      <trkpt lat="43.6637" lon="5.34612">
        <ele>332.20001220703</ele>
        <time>2019-11-30T15:22:11.000Z</time>
      </trkpt>
      <trkpt lat="43.6637" lon="5.34607">
        <ele>332.39999389648</ele>
        <time>2019-11-30T15:22:12.000Z</time>
      </trkpt>
      <trkpt lat="43.6637" lon="5.34603">
        <ele>332.60000610352</ele>
        <time>2019-11-30T15:22:13.000Z</time>
      </trkpt>
      <trkpt lat="43.66371" lon="5.34598">
        <ele>332.79998779297</ele>
        <time>2019-11-30T15:22:14.000Z</time>
      </trkpt>
      <trkpt lat="43.66371" lon="5.34593">
        <ele>333.20001220703</ele>
        <time>2019-11-30T15:22:15.000Z</time>
      </trkpt>
      <trkpt lat="43.66371" lon="5.34588">
        <ele>333.39999389648</ele>
        <time>2019-11-30T15:22:16.000Z</time>
      </trkpt>
      <trkpt lat="43.66372" lon="5.34583">
        <ele>333.79998779297</ele>
        <time>2019-11-30T15:22:17.000Z</time>
      </trkpt>
      <trkpt lat="43.66372" lon="5.34579">
        <ele>334</ele>
        <time>2019-11-30T15:22:18.000Z</time>
      </trkpt>
      <trkpt lat="43.66372" lon="5.34574">
        <ele>334.20001220703</ele>
        <time>2019-11-30T15:22:19.000Z</time>
      </trkpt>
      <trkpt lat="43.66373" lon="5.34569">
        <ele>334.60000610352</ele>
        <time>2019-11-30T15:22:20.000Z</time>
      </trkpt>
      <trkpt lat="43.66373" lon="5.34564">
        <ele>334.79998779297</ele>
        <time>2019-11-30T15:22:21.000Z</time>
      </trkpt>
      <trkpt lat="43.66374" lon="5.34559">
        <ele>335</ele>
        <time>2019-11-30T15:22:22.000Z</time>
      </trkpt>
      <trkpt lat="43.66374" lon="5.34554">
        <ele>335.39999389648</ele>
        <time>2019-11-30T15:22:23.000Z</time>
      </trkpt>
      <trkpt lat="43.66374" lon="5.34549">
        <ele>335.60000610352</ele>
        <time>2019-11-30T15:22:24.000Z</time>
      </trkpt>
      <trkpt lat="43.66375" lon="5.34544">
        <ele>336</ele>
        <time>2019-11-30T15:22:25.000Z</time>
      </trkpt>
      <trkpt lat="43.66375" lon="5.34538">
        <ele>336.60000610352</ele>
        <time>2019-11-30T15:22:26.000Z</time>
      </trkpt>
      <trkpt lat="43.66375" lon="5.34533">
        <ele>337.20001220703</ele>
        <time>2019-11-30T15:22:27.000Z</time>
      </trkpt>
      <trkpt lat="43.66376" lon="5.34527">
        <ele>337.79998779297</ele>
        <time>2019-11-30T15:22:28.000Z</time>
      </trkpt>
      <trkpt lat="43.66376" lon="5.34522">
        <ele>338.39999389648</ele>
        <time>2019-11-30T15:22:29.000Z</time>
      </trkpt>
      <trkpt lat="43.66377" lon="5.34517">
        <ele>338.79998779297</ele>
        <time>2019-11-30T15:22:30.000Z</time>
      </trkpt>
      <trkpt lat="43.66377" lon="5.34512">
        <ele>339.39999389648</ele>
        <time>2019-11-30T15:22:31.000Z</time>
      </trkpt>
      <trkpt lat="43.66377" lon="5.34507">
        <ele>340</ele>
        <time>2019-11-30T15:22:32.000Z</time>
      </trkpt>
      <trkpt lat="43.66378" lon="5.34503">
        <ele>340.39999389648</ele>
        <time>2019-11-30T15:22:33.000Z</time>
      </trkpt>
      <trkpt lat="43.66378" lon="5.34498">
        <ele>340.79998779297</ele>
        <time>2019-11-30T15:22:34.000Z</time>
      </trkpt>
      <trkpt lat="43.66378" lon="5.34493">
        <ele>341.39999389648</ele>
        <time>2019-11-30T15:22:35.000Z</time>
      </trkpt>
      <trkpt lat="43.66381" lon="5.34488">
        <ele>341.39999389648</ele>
        <time>2019-11-30T15:22:36.000Z</time>
      </trkpt>
      <trkpt lat="43.66383" lon="5.34483">
        <ele>341.39999389648</ele>
        <time>2019-11-30T15:22:37.000Z</time>
      </trkpt>
      <trkpt lat="43.66385" lon="5.34479">
        <ele>341.20001220703</ele>
        <time>2019-11-30T15:22:38.000Z</time>
      </trkpt>
      <trkpt lat="43.66387" lon="5.34474">
        <ele>341.20001220703</ele>
        <time>2019-11-30T15:22:39.000Z</time>
      </trkpt>
      <trkpt lat="43.66389" lon="5.3447">
        <ele>341</ele>
        <time>2019-11-30T15:22:40.000Z</time>
      </trkpt>
      <trkpt lat="43.66391" lon="5.34465">
        <ele>341</ele>
        <time>2019-11-30T15:22:41.000Z</time>
      </trkpt>
      <trkpt lat="43.66393" lon="5.3446">
        <ele>341</ele>
        <time>2019-11-30T15:22:42.000Z</time>
      </trkpt>
      <trkpt lat="43.66395" lon="5.34455">
        <ele>341.20001220703</ele>
        <time>2019-11-30T15:22:43.000Z</time>
      </trkpt>
      <trkpt lat="43.66397" lon="5.34451">
        <ele>341.39999389648</ele>
        <time>2019-11-30T15:22:44.000Z</time>
      </trkpt>
      <trkpt lat="43.66399" lon="5.34446">
        <ele>341.39999389648</ele>
        <time>2019-11-30T15:22:45.000Z</time>
      </trkpt>
      <trkpt lat="43.66401" lon="5.34441">
        <ele>341.60000610352</ele>
        <time>2019-11-30T15:22:46.000Z</time>
      </trkpt>
      <trkpt lat="43.66403" lon="5.34436">
        <ele>341.79998779297</ele>
        <time>2019-11-30T15:22:47.000Z</time>
      </trkpt>
      <trkpt lat="43.66405" lon="5.34431">
        <ele>341.60000610352</ele>
        <time>2019-11-30T15:22:48.000Z</time>
      </trkpt>
      <trkpt lat="43.66407" lon="5.34426">
        <ele>341.39999389648</ele>
        <time>2019-11-30T15:22:49.000Z</time>
      </trkpt>
      <trkpt lat="43.66409" lon="5.34422">
        <ele>341</ele>
        <time>2019-11-30T15:22:50.000Z</time>
      </trkpt>
      <trkpt lat="43.66411" lon="5.34417">
        <ele>340.60000610352</ele>
        <time>2019-11-30T15:22:51.000Z</time>
      </trkpt>
      <trkpt lat="43.66413" lon="5.34412">
        <ele>340.39999389648</ele>
        <time>2019-11-30T15:22:52.000Z</time>
      </trkpt>
      <trkpt lat="43.66415" lon="5.34408">
        <ele>340</ele>
        <time>2019-11-30T15:22:53.000Z</time>
      </trkpt>
      <trkpt lat="43.66416" lon="5.34403">
        <ele>339.79998779297</ele>
        <time>2019-11-30T15:22:54.000Z</time>
      </trkpt>
      <trkpt lat="43.66418" lon="5.34398">
        <ele>339.39999389648</ele>
        <time>2019-11-30T15:22:55.000Z</time>
      </trkpt>
      <trkpt lat="43.6642" lon="5.34394">
        <ele>339.20001220703</ele>
        <time>2019-11-30T15:22:56.000Z</time>
      </trkpt>
      <trkpt lat="43.66421" lon="5.3439">
        <ele>339</ele>
        <time>2019-11-30T15:22:57.000Z</time>
      </trkpt>
      <trkpt lat="43.66422" lon="5.34386">
        <ele>338.79998779297</ele>
        <time>2019-11-30T15:22:58.000Z</time>
      </trkpt>
      <trkpt lat="43.66421" lon="5.34381">
        <ele>339.20001220703</ele>
        <time>2019-11-30T15:22:59.000Z</time>
      </trkpt>
      <trkpt lat="43.66421" lon="5.34374">
        <ele>339.60000610352</ele>
        <time>2019-11-30T15:23:00.000Z</time>
      </trkpt>
      <trkpt lat="43.66421" lon="5.34367">
        <ele>340</ele>
        <time>2019-11-30T15:23:01.000Z</time>
      </trkpt>
      <trkpt lat="43.66421" lon="5.34361">
        <ele>340</ele>
        <time>2019-11-30T15:23:02.000Z</time>
      </trkpt>
      <trkpt lat="43.66421" lon="5.34354">
        <ele>340.20001220703</ele>
        <time>2019-11-30T15:23:03.000Z</time>
      </trkpt>
      <trkpt lat="43.66421" lon="5.34348">
        <ele>340.20001220703</ele>
        <time>2019-11-30T15:23:04.000Z</time>
      </trkpt>
      <trkpt lat="43.66421" lon="5.34342">
        <ele>340.20001220703</ele>
        <time>2019-11-30T15:23:05.000Z</time>
      </trkpt>
      <trkpt lat="43.66421" lon="5.34336">
        <ele>340.39999389648</ele>
        <time>2019-11-30T15:23:06.000Z</time>
      </trkpt>
      <trkpt lat="43.66421" lon="5.3433">
        <ele>340.39999389648</ele>
        <time>2019-11-30T15:23:07.000Z</time>
      </trkpt>
      <trkpt lat="43.66421" lon="5.34325">
        <ele>340.39999389648</ele>
        <time>2019-11-30T15:23:08.000Z</time>
      </trkpt>
      <trkpt lat="43.66421" lon="5.34321">
        <ele>340.39999389648</ele>
        <time>2019-11-30T15:23:09.000Z</time>
      </trkpt>
      <trkpt lat="43.66421" lon="5.34316">
        <ele>340.39999389648</ele>
        <time>2019-11-30T15:23:10.000Z</time>
      </trkpt>
      <trkpt lat="43.66421" lon="5.34311">
        <ele>340.60000610352</ele>
        <time>2019-11-30T15:23:11.000Z</time>
      </trkpt>
      <trkpt lat="43.66421" lon="5.34306">
        <ele>340.60000610352</ele>
        <time>2019-11-30T15:23:12.000Z</time>
      </trkpt>
      <trkpt lat="43.66422" lon="5.34301">
        <ele>340.60000610352</ele>
        <time>2019-11-30T15:23:13.000Z</time>
      </trkpt>
      <trkpt lat="43.66422" lon="5.34296">
        <ele>340.79998779297</ele>
        <time>2019-11-30T15:23:14.000Z</time>
      </trkpt>
      <trkpt lat="43.66422" lon="5.34291">
        <ele>340.79998779297</ele>
        <time>2019-11-30T15:23:15.000Z</time>
      </trkpt>
      <trkpt lat="43.66422" lon="5.34286">
        <ele>341</ele>
        <time>2019-11-30T15:23:16.000Z</time>
      </trkpt>
      <trkpt lat="43.66422" lon="5.34281">
        <ele>341.20001220703</ele>
        <time>2019-11-30T15:23:17.000Z</time>
      </trkpt>
      <trkpt lat="43.66422" lon="5.34276">
        <ele>341.60000610352</ele>
        <time>2019-11-30T15:23:18.000Z</time>
      </trkpt>
      <trkpt lat="43.66422" lon="5.34271">
        <ele>341.79998779297</ele>
        <time>2019-11-30T15:23:19.000Z</time>
      </trkpt>
      <trkpt lat="43.66422" lon="5.34265">
        <ele>342</ele>
        <time>2019-11-30T15:23:20.000Z</time>
      </trkpt>
      <trkpt lat="43.66422" lon="5.34261">
        <ele>342.20001220703</ele>
        <time>2019-11-30T15:23:21.000Z</time>
      </trkpt>
      <trkpt lat="43.66422" lon="5.34255">
        <ele>342.39999389648</ele>
        <time>2019-11-30T15:23:22.000Z</time>
      </trkpt>
      <trkpt lat="43.66422" lon="5.34249">
        <ele>342.60000610352</ele>
        <time>2019-11-30T15:23:23.000Z</time>
      </trkpt>
      <trkpt lat="43.66422" lon="5.34243">
        <ele>343</ele>
        <time>2019-11-30T15:23:24.000Z</time>
      </trkpt>
      <trkpt lat="43.66422" lon="5.34238">
        <ele>343.20001220703</ele>
        <time>2019-11-30T15:23:25.000Z</time>
      </trkpt>
      <trkpt lat="43.66422" lon="5.34233">
        <ele>343.39999389648</ele>
        <time>2019-11-30T15:23:26.000Z</time>
      </trkpt>
      <trkpt lat="43.66422" lon="5.34227">
        <ele>343.79998779297</ele>
        <time>2019-11-30T15:23:27.000Z</time>
      </trkpt>
      <trkpt lat="43.66422" lon="5.34222">
        <ele>344</ele>
        <time>2019-11-30T15:23:28.000Z</time>
      </trkpt>
      <trkpt lat="43.66422" lon="5.34216">
        <ele>344.20001220703</ele>
        <time>2019-11-30T15:23:29.000Z</time>
      </trkpt>
      <trkpt lat="43.66422" lon="5.3421">
        <ele>344.39999389648</ele>
        <time>2019-11-30T15:23:30.000Z</time>
      </trkpt>
      <trkpt lat="43.66422" lon="5.34204">
        <ele>344.60000610352</ele>
        <time>2019-11-30T15:23:31.000Z</time>
      </trkpt>
      <trkpt lat="43.66422" lon="5.34199">
        <ele>344.60000610352</ele>
        <time>2019-11-30T15:23:32.000Z</time>
      </trkpt>
      <trkpt lat="43.66423" lon="5.34193">
        <ele>344.79998779297</ele>
        <time>2019-11-30T15:23:33.000Z</time>
      </trkpt>
      <trkpt lat="43.66423" lon="5.34187">
        <ele>345</ele>
        <time>2019-11-30T15:23:34.000Z</time>
      </trkpt>
      <trkpt lat="43.66423" lon="5.34182">
        <ele>345.20001220703</ele>
        <time>2019-11-30T15:23:35.000Z</time>
      </trkpt>
      <trkpt lat="43.66423" lon="5.34177">
        <ele>345.39999389648</ele>
        <time>2019-11-30T15:23:36.000Z</time>
      </trkpt>
      <trkpt lat="43.66423" lon="5.34171">
        <ele>345.60000610352</ele>
        <time>2019-11-30T15:23:37.000Z</time>
      </trkpt>
      <trkpt lat="43.66423" lon="5.34166">
        <ele>345.79998779297</ele>
        <time>2019-11-30T15:23:38.000Z</time>
      </trkpt>
      <trkpt lat="43.66423" lon="5.3416">
        <ele>346</ele>
        <time>2019-11-30T15:23:39.000Z</time>
      </trkpt>
      <trkpt lat="43.66423" lon="5.34154">
        <ele>346.20001220703</ele>
        <time>2019-11-30T15:23:40.000Z</time>
      </trkpt>
      <trkpt lat="43.66423" lon="5.34148">
        <ele>346.39999389648</ele>
        <time>2019-11-30T15:23:41.000Z</time>
      </trkpt>
      <trkpt lat="43.66423" lon="5.34143">
        <ele>346.60000610352</ele>
        <time>2019-11-30T15:23:42.000Z</time>
      </trkpt>
      <trkpt lat="43.66423" lon="5.34137">
        <ele>346.60000610352</ele>
        <time>2019-11-30T15:23:43.000Z</time>
      </trkpt>
      <trkpt lat="43.66424" lon="5.34133">
        <ele>346.79998779297</ele>
        <time>2019-11-30T15:23:44.000Z</time>
      </trkpt>
      <trkpt lat="43.66424" lon="5.34128">
        <ele>346.79998779297</ele>
        <time>2019-11-30T15:23:45.000Z</time>
      </trkpt>
      <trkpt lat="43.66424" lon="5.34123">
        <ele>346.39999389648</ele>
        <time>2019-11-30T15:23:46.000Z</time>
      </trkpt>
      <trkpt lat="43.66424" lon="5.34118">
        <ele>346</ele>
        <time>2019-11-30T15:23:47.000Z</time>
      </trkpt>
      <trkpt lat="43.66424" lon="5.34113">
        <ele>346.20001220703</ele>
        <time>2019-11-30T15:23:48.000Z</time>
      </trkpt>
      <trkpt lat="43.66424" lon="5.34109">
        <ele>346.39999389648</ele>
        <time>2019-11-30T15:23:49.000Z</time>
      </trkpt>
      <trkpt lat="43.66424" lon="5.34104">
        <ele>346.60000610352</ele>
        <time>2019-11-30T15:23:50.000Z</time>
      </trkpt>
      <trkpt lat="43.66424" lon="5.34099">
        <ele>346.79998779297</ele>
        <time>2019-11-30T15:23:51.000Z</time>
      </trkpt>
      <trkpt lat="43.66425" lon="5.34094">
        <ele>346.79998779297</ele>
        <time>2019-11-30T15:23:52.000Z</time>
      </trkpt>
      <trkpt lat="43.66425" lon="5.34089">
        <ele>347</ele>
        <time>2019-11-30T15:23:53.000Z</time>
      </trkpt>
      <trkpt lat="43.66425" lon="5.34083">
        <ele>347.20001220703</ele>
        <time>2019-11-30T15:23:54.000Z</time>
      </trkpt>
      <trkpt lat="43.66425" lon="5.34078">
        <ele>347.39999389648</ele>
        <time>2019-11-30T15:23:55.000Z</time>
      </trkpt>
      <trkpt lat="43.66425" lon="5.34072">
        <ele>347.60000610352</ele>
        <time>2019-11-30T15:23:56.000Z</time>
      </trkpt>
      <trkpt lat="43.66425" lon="5.34066">
        <ele>347.79998779297</ele>
        <time>2019-11-30T15:23:57.000Z</time>
      </trkpt>
      <trkpt lat="43.66425" lon="5.34061">
        <ele>348</ele>
        <time>2019-11-30T15:23:58.000Z</time>
      </trkpt>
      <trkpt lat="43.66426" lon="5.34055">
        <ele>348.20001220703</ele>
        <time>2019-11-30T15:23:59.000Z</time>
      </trkpt>
      <trkpt lat="43.66426" lon="5.34051">
        <ele>348.20001220703</ele>
        <time>2019-11-30T15:24:00.000Z</time>
      </trkpt>
      <trkpt lat="43.66426" lon="5.34046">
        <ele>348.20001220703</ele>
        <time>2019-11-30T15:24:01.000Z</time>
      </trkpt>
      <trkpt lat="43.66426" lon="5.34042">
        <ele>347.79998779297</ele>
        <time>2019-11-30T15:24:02.000Z</time>
      </trkpt>
      <trkpt lat="43.66426" lon="5.34037">
        <ele>347.20001220703</ele>
        <time>2019-11-30T15:24:03.000Z</time>
      </trkpt>
      <trkpt lat="43.66426" lon="5.34032">
        <ele>347.20001220703</ele>
        <time>2019-11-30T15:24:04.000Z</time>
      </trkpt>
      <trkpt lat="43.66426" lon="5.34027">
        <ele>347.20001220703</ele>
        <time>2019-11-30T15:24:05.000Z</time>
      </trkpt>
      <trkpt lat="43.66426" lon="5.34021">
        <ele>347</ele>
        <time>2019-11-30T15:24:06.000Z</time>
      </trkpt>
      <trkpt lat="43.66427" lon="5.34016">
        <ele>347</ele>
        <time>2019-11-30T15:24:07.000Z</time>
      </trkpt>
      <trkpt lat="43.66427" lon="5.3401">
        <ele>346.79998779297</ele>
        <time>2019-11-30T15:24:08.000Z</time>
      </trkpt>
      <trkpt lat="43.66427" lon="5.34005">
        <ele>346.79998779297</ele>
        <time>2019-11-30T15:24:09.000Z</time>
      </trkpt>
      <trkpt lat="43.66427" lon="5.34">
        <ele>346.79998779297</ele>
        <time>2019-11-30T15:24:10.000Z</time>
      </trkpt>
      <trkpt lat="43.66426" lon="5.33994">
        <ele>346.79998779297</ele>
        <time>2019-11-30T15:24:11.000Z</time>
      </trkpt>
      <trkpt lat="43.66423" lon="5.3399">
        <ele>346.79998779297</ele>
        <time>2019-11-30T15:24:12.000Z</time>
      </trkpt>
      <trkpt lat="43.66421" lon="5.33987">
        <ele>346.79998779297</ele>
        <time>2019-11-30T15:24:13.000Z</time>
      </trkpt>
      <trkpt lat="43.66418" lon="5.33983">
        <ele>346.79998779297</ele>
        <time>2019-11-30T15:24:14.000Z</time>
      </trkpt>
      <trkpt lat="43.66416" lon="5.33979">
        <ele>347</ele>
        <time>2019-11-30T15:24:15.000Z</time>
      </trkpt>
      <trkpt lat="43.66413" lon="5.33975">
        <ele>347</ele>
        <time>2019-11-30T15:24:16.000Z</time>
      </trkpt>
      <trkpt lat="43.66411" lon="5.33971">
        <ele>347</ele>
        <time>2019-11-30T15:24:17.000Z</time>
      </trkpt>
      <trkpt lat="43.66407" lon="5.33968">
        <ele>347</ele>
        <time>2019-11-30T15:24:18.000Z</time>
      </trkpt>
      <trkpt lat="43.66403" lon="5.33966">
        <ele>347.20001220703</ele>
        <time>2019-11-30T15:24:19.000Z</time>
      </trkpt>
      <trkpt lat="43.66399" lon="5.33964">
        <ele>347.39999389648</ele>
        <time>2019-11-30T15:24:20.000Z</time>
      </trkpt>
      <trkpt lat="43.66394" lon="5.33962">
        <ele>347.20001220703</ele>
        <time>2019-11-30T15:24:21.000Z</time>
      </trkpt>
      <trkpt lat="43.66389" lon="5.3396">
        <ele>347.20001220703</ele>
        <time>2019-11-30T15:24:22.000Z</time>
      </trkpt>
      <trkpt lat="43.66383" lon="5.33957">
        <ele>347</ele>
        <time>2019-11-30T15:24:23.000Z</time>
      </trkpt>
      <trkpt lat="43.66377" lon="5.33955">
        <ele>347</ele>
        <time>2019-11-30T15:24:24.000Z</time>
      </trkpt>
      <trkpt lat="43.66371" lon="5.33952">
        <ele>346.79998779297</ele>
        <time>2019-11-30T15:24:25.000Z</time>
      </trkpt>
      <trkpt lat="43.66365" lon="5.33949">
        <ele>346.79998779297</ele>
        <time>2019-11-30T15:24:26.000Z</time>
      </trkpt>
      <trkpt lat="43.66359" lon="5.33946">
        <ele>346.60000610352</ele>
        <time>2019-11-30T15:24:27.000Z</time>
      </trkpt>
      <trkpt lat="43.66353" lon="5.33943">
        <ele>346.60000610352</ele>
        <time>2019-11-30T15:24:28.000Z</time>
      </trkpt>
      <trkpt lat="43.66346" lon="5.33941">
        <ele>346.60000610352</ele>
        <time>2019-11-30T15:24:29.000Z</time>
      </trkpt>
      <trkpt lat="43.6634" lon="5.33938">
        <ele>346.39999389648</ele>
        <time>2019-11-30T15:24:30.000Z</time>
      </trkpt>
      <trkpt lat="43.66333" lon="5.33935">
        <ele>346.39999389648</ele>
        <time>2019-11-30T15:24:31.000Z</time>
      </trkpt>
      <trkpt lat="43.66327" lon="5.33932">
        <ele>346.39999389648</ele>
        <time>2019-11-30T15:24:32.000Z</time>
      </trkpt>
      <trkpt lat="43.66321" lon="5.33927">
        <ele>346</ele>
        <time>2019-11-30T15:24:33.000Z</time>
      </trkpt>
      <trkpt lat="43.66315" lon="5.33921">
        <ele>345.60000610352</ele>
        <time>2019-11-30T15:24:34.000Z</time>
      </trkpt>
      <trkpt lat="43.6631" lon="5.33916">
        <ele>345.20001220703</ele>
        <time>2019-11-30T15:24:35.000Z</time>
      </trkpt>
      <trkpt lat="43.66305" lon="5.33911">
        <ele>345</ele>
        <time>2019-11-30T15:24:36.000Z</time>
      </trkpt>
      <trkpt lat="43.66301" lon="5.33905">
        <ele>344.39999389648</ele>
        <time>2019-11-30T15:24:37.000Z</time>
      </trkpt>
      <trkpt lat="43.66299" lon="5.33898">
        <ele>343.60000610352</ele>
        <time>2019-11-30T15:24:38.000Z</time>
      </trkpt>
      <trkpt lat="43.66297" lon="5.3389">
        <ele>342.79998779297</ele>
        <time>2019-11-30T15:24:39.000Z</time>
      </trkpt>
      <trkpt lat="43.66295" lon="5.33883">
        <ele>342</ele>
        <time>2019-11-30T15:24:40.000Z</time>
      </trkpt>
      <trkpt lat="43.66294" lon="5.33876">
        <ele>341.60000610352</ele>
        <time>2019-11-30T15:24:41.000Z</time>
      </trkpt>
      <trkpt lat="43.66293" lon="5.33868">
        <ele>341.60000610352</ele>
        <time>2019-11-30T15:24:42.000Z</time>
      </trkpt>
      <trkpt lat="43.66292" lon="5.3386">
        <ele>341.39999389648</ele>
        <time>2019-11-30T15:24:43.000Z</time>
      </trkpt>
      <trkpt lat="43.66291" lon="5.33853">
        <ele>341.20001220703</ele>
        <time>2019-11-30T15:24:44.000Z</time>
      </trkpt>
      <trkpt lat="43.6629" lon="5.33845">
        <ele>341.20001220703</ele>
        <time>2019-11-30T15:24:45.000Z</time>
      </trkpt>
      <trkpt lat="43.66289" lon="5.33836">
        <ele>341</ele>
        <time>2019-11-30T15:24:46.000Z</time>
      </trkpt>
      <trkpt lat="43.66287" lon="5.33828">
        <ele>340.79998779297</ele>
        <time>2019-11-30T15:24:47.000Z</time>
      </trkpt>
      <trkpt lat="43.66286" lon="5.3382">
        <ele>340.79998779297</ele>
        <time>2019-11-30T15:24:48.000Z</time>
      </trkpt>
      <trkpt lat="43.66285" lon="5.33811">
        <ele>340.79998779297</ele>
        <time>2019-11-30T15:24:49.000Z</time>
      </trkpt>
      <trkpt lat="43.66284" lon="5.33802">
        <ele>341</ele>
        <time>2019-11-30T15:24:50.000Z</time>
      </trkpt>
      <trkpt lat="43.66284" lon="5.33792">
        <ele>341</ele>
        <time>2019-11-30T15:24:51.000Z</time>
      </trkpt>
      <trkpt lat="43.66284" lon="5.33782">
        <ele>340.39999389648</ele>
        <time>2019-11-30T15:24:52.000Z</time>
      </trkpt>
      <trkpt lat="43.66284" lon="5.33772">
        <ele>340</ele>
        <time>2019-11-30T15:24:53.000Z</time>
      </trkpt>
      <trkpt lat="43.66285" lon="5.33762">
        <ele>339.60000610352</ele>
        <time>2019-11-30T15:24:54.000Z</time>
      </trkpt>
      <trkpt lat="43.66286" lon="5.33752">
        <ele>339</ele>
        <time>2019-11-30T15:24:55.000Z</time>
      </trkpt>
      <trkpt lat="43.66287" lon="5.33743">
        <ele>338.60000610352</ele>
        <time>2019-11-30T15:24:56.000Z</time>
      </trkpt>
      <trkpt lat="43.66289" lon="5.33733">
        <ele>338.20001220703</ele>
        <time>2019-11-30T15:24:57.000Z</time>
      </trkpt>
      <trkpt lat="43.66279" lon="5.33723">
        <ele>337.60000610352</ele>
        <time>2019-11-30T15:24:58.000Z</time>
      </trkpt>
      <trkpt lat="43.66276" lon="5.33712">
        <ele>337.20001220703</ele>
        <time>2019-11-30T15:24:59.000Z</time>
      </trkpt>
      <trkpt lat="43.66274" lon="5.33701">
        <ele>336.20001220703</ele>
        <time>2019-11-30T15:25:00.000Z</time>
      </trkpt>
      <trkpt lat="43.66271" lon="5.3369">
        <ele>335.39999389648</ele>
        <time>2019-11-30T15:25:01.000Z</time>
      </trkpt>
      <trkpt lat="43.66268" lon="5.33679">
        <ele>334.39999389648</ele>
        <time>2019-11-30T15:25:02.000Z</time>
      </trkpt>
      <trkpt lat="43.66265" lon="5.33668">
        <ele>333.79998779297</ele>
        <time>2019-11-30T15:25:03.000Z</time>
      </trkpt>
      <trkpt lat="43.66262" lon="5.33657">
        <ele>333.20001220703</ele>
        <time>2019-11-30T15:25:04.000Z</time>
      </trkpt>
      <trkpt lat="43.66258" lon="5.33647">
        <ele>332.39999389648</ele>
        <time>2019-11-30T15:25:05.000Z</time>
      </trkpt>
      <trkpt lat="43.66255" lon="5.33638">
        <ele>331.79998779297</ele>
        <time>2019-11-30T15:25:06.000Z</time>
      </trkpt>
      <trkpt lat="43.66252" lon="5.33629">
        <ele>331.39999389648</ele>
        <time>2019-11-30T15:25:07.000Z</time>
      </trkpt>
      <trkpt lat="43.66249" lon="5.3362">
        <ele>331.39999389648</ele>
        <time>2019-11-30T15:25:08.000Z</time>
      </trkpt>
      <trkpt lat="43.66246" lon="5.33612">
        <ele>331.39999389648</ele>
        <time>2019-11-30T15:25:09.000Z</time>
      </trkpt>
      <trkpt lat="43.66244" lon="5.33604">
        <ele>331.39999389648</ele>
        <time>2019-11-30T15:25:10.000Z</time>
      </trkpt>
      <trkpt lat="43.66241" lon="5.33597">
        <ele>331.39999389648</ele>
        <time>2019-11-30T15:25:11.000Z</time>
      </trkpt>
      <trkpt lat="43.66239" lon="5.3359">
        <ele>331.39999389648</ele>
        <time>2019-11-30T15:25:12.000Z</time>
      </trkpt>
      <trkpt lat="43.66237" lon="5.33584">
        <ele>331.39999389648</ele>
        <time>2019-11-30T15:25:13.000Z</time>
      </trkpt>
      <trkpt lat="43.66234" lon="5.33577">
        <ele>331.39999389648</ele>
        <time>2019-11-30T15:25:14.000Z</time>
      </trkpt>
      <trkpt lat="43.66232" lon="5.33571">
        <ele>331.39999389648</ele>
        <time>2019-11-30T15:25:15.000Z</time>
      </trkpt>
      <trkpt lat="43.6623" lon="5.33565">
        <ele>331.39999389648</ele>
        <time>2019-11-30T15:25:16.000Z</time>
      </trkpt>
      <trkpt lat="43.66228" lon="5.33558">
        <ele>331.39999389648</ele>
        <time>2019-11-30T15:25:17.000Z</time>
      </trkpt>
      <trkpt lat="43.66226" lon="5.33552">
        <ele>331.60000610352</ele>
        <time>2019-11-30T15:25:18.000Z</time>
      </trkpt>
      <trkpt lat="43.66223" lon="5.33545">
        <ele>331.60000610352</ele>
        <time>2019-11-30T15:25:19.000Z</time>
      </trkpt>
      <trkpt lat="43.66221" lon="5.33539">
        <ele>331.60000610352</ele>
        <time>2019-11-30T15:25:20.000Z</time>
      </trkpt>
      <trkpt lat="43.66219" lon="5.33532">
        <ele>331.60000610352</ele>
        <time>2019-11-30T15:25:21.000Z</time>
      </trkpt>
      <trkpt lat="43.66217" lon="5.33526">
        <ele>331.60000610352</ele>
        <time>2019-11-30T15:25:22.000Z</time>
      </trkpt>
      <trkpt lat="43.66213" lon="5.33519">
        <ele>331.60000610352</ele>
        <time>2019-11-30T15:25:23.000Z</time>
      </trkpt>
      <trkpt lat="43.6621" lon="5.33512">
        <ele>331.79998779297</ele>
        <time>2019-11-30T15:25:24.000Z</time>
      </trkpt>
      <trkpt lat="43.66206" lon="5.33505">
        <ele>331.79998779297</ele>
        <time>2019-11-30T15:25:25.000Z</time>
      </trkpt>
      <trkpt lat="43.66202" lon="5.33498">
        <ele>331.79998779297</ele>
        <time>2019-11-30T15:25:26.000Z</time>
      </trkpt>
      <trkpt lat="43.66198" lon="5.3349">
        <ele>331.79998779297</ele>
        <time>2019-11-30T15:25:27.000Z</time>
      </trkpt>
      <trkpt lat="43.66193" lon="5.33482">
        <ele>332</ele>
        <time>2019-11-30T15:25:28.000Z</time>
      </trkpt>
      <trkpt lat="43.66189" lon="5.33474">
        <ele>332</ele>
        <time>2019-11-30T15:25:29.000Z</time>
      </trkpt>
      <trkpt lat="43.66185" lon="5.33466">
        <ele>332</ele>
        <time>2019-11-30T15:25:30.000Z</time>
      </trkpt>
      <trkpt lat="43.66182" lon="5.33457">
        <ele>332</ele>
        <time>2019-11-30T15:25:31.000Z</time>
      </trkpt>
      <trkpt lat="43.6618" lon="5.33448">
        <ele>331.79998779297</ele>
        <time>2019-11-30T15:25:32.000Z</time>
      </trkpt>
      <trkpt lat="43.66179" lon="5.33439">
        <ele>331.60000610352</ele>
        <time>2019-11-30T15:25:33.000Z</time>
      </trkpt>
      <trkpt lat="43.66178" lon="5.33428">
        <ele>331.39999389648</ele>
        <time>2019-11-30T15:25:34.000Z</time>
      </trkpt>
      <trkpt lat="43.66177" lon="5.33418">
        <ele>331.20001220703</ele>
        <time>2019-11-30T15:25:35.000Z</time>
      </trkpt>
      <trkpt lat="43.66176" lon="5.33408">
        <ele>331</ele>
        <time>2019-11-30T15:25:36.000Z</time>
      </trkpt>
      <trkpt lat="43.66175" lon="5.33398">
        <ele>330.79998779297</ele>
        <time>2019-11-30T15:25:37.000Z</time>
      </trkpt>
      <trkpt lat="43.66174" lon="5.33388">
        <ele>330.60000610352</ele>
        <time>2019-11-30T15:25:38.000Z</time>
      </trkpt>
      <trkpt lat="43.66173" lon="5.33378">
        <ele>330.39999389648</ele>
        <time>2019-11-30T15:25:39.000Z</time>
      </trkpt>
      <trkpt lat="43.66172" lon="5.33369">
        <ele>330.20001220703</ele>
        <time>2019-11-30T15:25:40.000Z</time>
      </trkpt>
      <trkpt lat="43.66171" lon="5.33359">
        <ele>330</ele>
        <time>2019-11-30T15:25:41.000Z</time>
      </trkpt>
      <trkpt lat="43.6617" lon="5.3335">
        <ele>329.79998779297</ele>
        <time>2019-11-30T15:25:42.000Z</time>
      </trkpt>
      <trkpt lat="43.6617" lon="5.3334">
        <ele>329.60000610352</ele>
        <time>2019-11-30T15:25:43.000Z</time>
      </trkpt>
      <trkpt lat="43.66169" lon="5.3333">
        <ele>329.39999389648</ele>
        <time>2019-11-30T15:25:44.000Z</time>
      </trkpt>
      <trkpt lat="43.66168" lon="5.3332">
        <ele>329.20001220703</ele>
        <time>2019-11-30T15:25:45.000Z</time>
      </trkpt>
      <trkpt lat="43.66167" lon="5.3331">
        <ele>329</ele>
        <time>2019-11-30T15:25:46.000Z</time>
      </trkpt>
      <trkpt lat="43.66166" lon="5.333">
        <ele>328.79998779297</ele>
        <time>2019-11-30T15:25:47.000Z</time>
      </trkpt>
      <trkpt lat="43.66165" lon="5.3329">
        <ele>328.39999389648</ele>
        <time>2019-11-30T15:25:48.000Z</time>
      </trkpt>
      <trkpt lat="43.66164" lon="5.33281">
        <ele>328.20001220703</ele>
        <time>2019-11-30T15:25:49.000Z</time>
      </trkpt>
      <trkpt lat="43.66163" lon="5.33271">
        <ele>328</ele>
        <time>2019-11-30T15:25:50.000Z</time>
      </trkpt>
      <trkpt lat="43.66162" lon="5.33262">
        <ele>327.79998779297</ele>
        <time>2019-11-30T15:25:51.000Z</time>
      </trkpt>
      <trkpt lat="43.66162" lon="5.33254">
        <ele>327.60000610352</ele>
        <time>2019-11-30T15:25:52.000Z</time>
      </trkpt>
      <trkpt lat="43.6616" lon="5.33246">
        <ele>327.39999389648</ele>
        <time>2019-11-30T15:25:53.000Z</time>
      </trkpt>
      <trkpt lat="43.66157" lon="5.33239">
        <ele>327.20001220703</ele>
        <time>2019-11-30T15:25:54.000Z</time>
      </trkpt>
      <trkpt lat="43.66154" lon="5.33232">
        <ele>327.20001220703</ele>
        <time>2019-11-30T15:25:55.000Z</time>
      </trkpt>
      <trkpt lat="43.66151" lon="5.33225">
        <ele>327.20001220703</ele>
        <time>2019-11-30T15:25:56.000Z</time>
      </trkpt>
      <trkpt lat="43.66148" lon="5.33219">
        <ele>327</ele>
        <time>2019-11-30T15:25:57.000Z</time>
      </trkpt>
      <trkpt lat="43.66145" lon="5.33212">
        <ele>327</ele>
        <time>2019-11-30T15:25:58.000Z</time>
      </trkpt>
      <trkpt lat="43.66143" lon="5.33206">
        <ele>327</ele>
        <time>2019-11-30T15:25:59.000Z</time>
      </trkpt>
      <trkpt lat="43.66139" lon="5.33201">
        <ele>327</ele>
        <time>2019-11-30T15:26:00.000Z</time>
      </trkpt>
      <trkpt lat="43.66135" lon="5.33196">
        <ele>327</ele>
        <time>2019-11-30T15:26:01.000Z</time>
      </trkpt>
      <trkpt lat="43.66131" lon="5.3319">
        <ele>327</ele>
        <time>2019-11-30T15:26:02.000Z</time>
      </trkpt>
      <trkpt lat="43.66127" lon="5.33184">
        <ele>327</ele>
        <time>2019-11-30T15:26:03.000Z</time>
      </trkpt>
      <trkpt lat="43.66123" lon="5.33178">
        <ele>327</ele>
        <time>2019-11-30T15:26:04.000Z</time>
      </trkpt>
      <trkpt lat="43.66119" lon="5.33173">
        <ele>327.20001220703</ele>
        <time>2019-11-30T15:26:05.000Z</time>
      </trkpt>
      <trkpt lat="43.66115" lon="5.33167">
        <ele>327.20001220703</ele>
        <time>2019-11-30T15:26:06.000Z</time>
      </trkpt>
      <trkpt lat="43.66111" lon="5.33162">
        <ele>327.20001220703</ele>
        <time>2019-11-30T15:26:07.000Z</time>
      </trkpt>
      <trkpt lat="43.66107" lon="5.33156">
        <ele>327.20001220703</ele>
        <time>2019-11-30T15:26:08.000Z</time>
      </trkpt>
      <trkpt lat="43.66104" lon="5.33151">
        <ele>327.20001220703</ele>
        <time>2019-11-30T15:26:09.000Z</time>
      </trkpt>
      <trkpt lat="43.661" lon="5.33145">
        <ele>327.20001220703</ele>
        <time>2019-11-30T15:26:10.000Z</time>
      </trkpt>
      <trkpt lat="43.66096" lon="5.3314">
        <ele>327.39999389648</ele>
        <time>2019-11-30T15:26:11.000Z</time>
      </trkpt>
      <trkpt lat="43.66091" lon="5.33135">
        <ele>327.39999389648</ele>
        <time>2019-11-30T15:26:12.000Z</time>
      </trkpt>
      <trkpt lat="43.66087" lon="5.33132">
        <ele>327.60000610352</ele>
        <time>2019-11-30T15:26:13.000Z</time>
      </trkpt>
      <trkpt lat="43.66083" lon="5.33128">
        <ele>327.60000610352</ele>
        <time>2019-11-30T15:26:14.000Z</time>
      </trkpt>
      <trkpt lat="43.66079" lon="5.33124">
        <ele>327.60000610352</ele>
        <time>2019-11-30T15:26:15.000Z</time>
      </trkpt>
      <trkpt lat="43.66075" lon="5.3312">
        <ele>327.79998779297</ele>
        <time>2019-11-30T15:26:16.000Z</time>
      </trkpt>
      <trkpt lat="43.6607" lon="5.33115">
        <ele>327.79998779297</ele>
        <time>2019-11-30T15:26:17.000Z</time>
      </trkpt>
      <trkpt lat="43.66066" lon="5.33111">
        <ele>327.79998779297</ele>
        <time>2019-11-30T15:26:18.000Z</time>
      </trkpt>
      <trkpt lat="43.66063" lon="5.33104">
        <ele>327.79998779297</ele>
        <time>2019-11-30T15:26:19.000Z</time>
      </trkpt>
      <trkpt lat="43.66059" lon="5.33097">
        <ele>327.79998779297</ele>
        <time>2019-11-30T15:26:20.000Z</time>
      </trkpt>
      <trkpt lat="43.66056" lon="5.3309">
        <ele>327.79998779297</ele>
        <time>2019-11-30T15:26:21.000Z</time>
      </trkpt>
      <trkpt lat="43.66052" lon="5.33082">
        <ele>327.60000610352</ele>
        <time>2019-11-30T15:26:22.000Z</time>
      </trkpt>
      <trkpt lat="43.66048" lon="5.33075">
        <ele>327.60000610352</ele>
        <time>2019-11-30T15:26:23.000Z</time>
      </trkpt>
      <trkpt lat="43.66044" lon="5.33067">
        <ele>327.60000610352</ele>
        <time>2019-11-30T15:26:24.000Z</time>
      </trkpt>
      <trkpt lat="43.66041" lon="5.3306">
        <ele>327.60000610352</ele>
        <time>2019-11-30T15:26:25.000Z</time>
      </trkpt>
      <trkpt lat="43.66037" lon="5.33053">
        <ele>327.60000610352</ele>
        <time>2019-11-30T15:26:26.000Z</time>
      </trkpt>
      <trkpt lat="43.66034" lon="5.33046">
        <ele>327.60000610352</ele>
        <time>2019-11-30T15:26:27.000Z</time>
      </trkpt>
      <trkpt lat="43.6603" lon="5.33039">
        <ele>327.60000610352</ele>
        <time>2019-11-30T15:26:28.000Z</time>
      </trkpt>
      <trkpt lat="43.66027" lon="5.33032">
        <ele>327.39999389648</ele>
        <time>2019-11-30T15:26:29.000Z</time>
      </trkpt>
      <trkpt lat="43.66024" lon="5.33024">
        <ele>327.39999389648</ele>
        <time>2019-11-30T15:26:30.000Z</time>
      </trkpt>
      <trkpt lat="43.66024" lon="5.33016">
        <ele>327.20001220703</ele>
        <time>2019-11-30T15:26:31.000Z</time>
      </trkpt>
      <trkpt lat="43.66024" lon="5.33008">
        <ele>327</ele>
        <time>2019-11-30T15:26:32.000Z</time>
      </trkpt>
      <trkpt lat="43.66024" lon="5.33001">
        <ele>326.79998779297</ele>
        <time>2019-11-30T15:26:33.000Z</time>
      </trkpt>
      <trkpt lat="43.66024" lon="5.32994">
        <ele>326.60000610352</ele>
        <time>2019-11-30T15:26:34.000Z</time>
      </trkpt>
      <trkpt lat="43.66024" lon="5.32986">
        <ele>326.39999389648</ele>
        <time>2019-11-30T15:26:35.000Z</time>
      </trkpt>
      <trkpt lat="43.66024" lon="5.32979">
        <ele>326.20001220703</ele>
        <time>2019-11-30T15:26:36.000Z</time>
      </trkpt>
      <trkpt lat="43.66024" lon="5.32971">
        <ele>326</ele>
        <time>2019-11-30T15:26:37.000Z</time>
      </trkpt>
      <trkpt lat="43.66024" lon="5.32965">
        <ele>325.79998779297</ele>
        <time>2019-11-30T15:26:38.000Z</time>
      </trkpt>
      <trkpt lat="43.66024" lon="5.32959">
        <ele>325.60000610352</ele>
        <time>2019-11-30T15:26:39.000Z</time>
      </trkpt>
      <trkpt lat="43.66024" lon="5.32951">
        <ele>325.39999389648</ele>
        <time>2019-11-30T15:26:40.000Z</time>
      </trkpt>
      <trkpt lat="43.66024" lon="5.32943">
        <ele>325</ele>
        <time>2019-11-30T15:26:41.000Z</time>
      </trkpt>
      <trkpt lat="43.66024" lon="5.32935">
        <ele>324.79998779297</ele>
        <time>2019-11-30T15:26:42.000Z</time>
      </trkpt>
      <trkpt lat="43.66024" lon="5.32927">
        <ele>324.39999389648</ele>
        <time>2019-11-30T15:26:43.000Z</time>
      </trkpt>
      <trkpt lat="43.66024" lon="5.32918">
        <ele>324.20001220703</ele>
        <time>2019-11-30T15:26:44.000Z</time>
      </trkpt>
      <trkpt lat="43.66024" lon="5.32909">
        <ele>323.79998779297</ele>
        <time>2019-11-30T15:26:45.000Z</time>
      </trkpt>
      <trkpt lat="43.66023" lon="5.329">
        <ele>323.60000610352</ele>
        <time>2019-11-30T15:26:46.000Z</time>
      </trkpt>
      <trkpt lat="43.66022" lon="5.32891">
        <ele>323.20001220703</ele>
        <time>2019-11-30T15:26:47.000Z</time>
      </trkpt>
      <trkpt lat="43.66021" lon="5.32882">
        <ele>323</ele>
        <time>2019-11-30T15:26:48.000Z</time>
      </trkpt>
      <trkpt lat="43.6602" lon="5.32873">
        <ele>322.60000610352</ele>
        <time>2019-11-30T15:26:49.000Z</time>
      </trkpt>
      <trkpt lat="43.66019" lon="5.32864">
        <ele>322.20001220703</ele>
        <time>2019-11-30T15:26:50.000Z</time>
      </trkpt>
      <trkpt lat="43.66018" lon="5.32855">
        <ele>321.79998779297</ele>
        <time>2019-11-30T15:26:51.000Z</time>
      </trkpt>
      <trkpt lat="43.66017" lon="5.32846">
        <ele>321.39999389648</ele>
        <time>2019-11-30T15:26:52.000Z</time>
      </trkpt>
      <trkpt lat="43.66016" lon="5.32836">
        <ele>320.79998779297</ele>
        <time>2019-11-30T15:26:53.000Z</time>
      </trkpt>
      <trkpt lat="43.66015" lon="5.32826">
        <ele>320.39999389648</ele>
        <time>2019-11-30T15:26:54.000Z</time>
      </trkpt>
      <trkpt lat="43.66015" lon="5.32816">
        <ele>319.79998779297</ele>
        <time>2019-11-30T15:26:55.000Z</time>
      </trkpt>
      <trkpt lat="43.66014" lon="5.32806">
        <ele>319.39999389648</ele>
        <time>2019-11-30T15:26:56.000Z</time>
      </trkpt>
      <trkpt lat="43.66016" lon="5.32796">
        <ele>319</ele>
        <time>2019-11-30T15:26:57.000Z</time>
      </trkpt>
      <trkpt lat="43.66019" lon="5.32786">
        <ele>318.39999389648</ele>
        <time>2019-11-30T15:26:58.000Z</time>
      </trkpt>
      <trkpt lat="43.66022" lon="5.32776">
        <ele>317.60000610352</ele>
        <time>2019-11-30T15:26:59.000Z</time>
      </trkpt>
      <trkpt lat="43.66025" lon="5.32764">
        <ele>316.79998779297</ele>
        <time>2019-11-30T15:27:00.000Z</time>
      </trkpt>
      <trkpt lat="43.66027" lon="5.32752">
        <ele>316</ele>
        <time>2019-11-30T15:27:01.000Z</time>
      </trkpt>
      <trkpt lat="43.66028" lon="5.3274">
        <ele>315.20001220703</ele>
        <time>2019-11-30T15:27:02.000Z</time>
      </trkpt>
      <trkpt lat="43.6603" lon="5.32728">
        <ele>314.39999389648</ele>
        <time>2019-11-30T15:27:03.000Z</time>
      </trkpt>
      <trkpt lat="43.66028" lon="5.32716">
        <ele>314</ele>
        <time>2019-11-30T15:27:04.000Z</time>
      </trkpt>
      <trkpt lat="43.66024" lon="5.32705">
        <ele>313.60000610352</ele>
        <time>2019-11-30T15:27:05.000Z</time>
      </trkpt>
      <trkpt lat="43.6602" lon="5.32694">
        <ele>313.20001220703</ele>
        <time>2019-11-30T15:27:06.000Z</time>
      </trkpt>
      <trkpt lat="43.66016" lon="5.32686">
        <ele>313</ele>
        <time>2019-11-30T15:27:07.000Z</time>
      </trkpt>
      <trkpt lat="43.66009" lon="5.32678">
        <ele>313</ele>
        <time>2019-11-30T15:27:08.000Z</time>
      </trkpt>
      <trkpt lat="43.66003" lon="5.32671">
        <ele>312.79998779297</ele>
        <time>2019-11-30T15:27:09.000Z</time>
      </trkpt>
      <trkpt lat="43.65997" lon="5.32664">
        <ele>312.79998779297</ele>
        <time>2019-11-30T15:27:10.000Z</time>
      </trkpt>
      <trkpt lat="43.65991" lon="5.32657">
        <ele>312.60000610352</ele>
        <time>2019-11-30T15:27:11.000Z</time>
      </trkpt>
      <trkpt lat="43.65985" lon="5.3265">
        <ele>312.60000610352</ele>
        <time>2019-11-30T15:27:12.000Z</time>
      </trkpt>
      <trkpt lat="43.65979" lon="5.32643">
        <ele>312.39999389648</ele>
        <time>2019-11-30T15:27:13.000Z</time>
      </trkpt>
      <trkpt lat="43.65973" lon="5.32637">
        <ele>312.39999389648</ele>
        <time>2019-11-30T15:27:14.000Z</time>
      </trkpt>
      <trkpt lat="43.65968" lon="5.32631">
        <ele>312.20001220703</ele>
        <time>2019-11-30T15:27:15.000Z</time>
      </trkpt>
      <trkpt lat="43.65963" lon="5.32625">
        <ele>312.20001220703</ele>
        <time>2019-11-30T15:27:16.000Z</time>
      </trkpt>
      <trkpt lat="43.65958" lon="5.32619">
        <ele>312.20001220703</ele>
        <time>2019-11-30T15:27:17.000Z</time>
      </trkpt>
      <trkpt lat="43.65954" lon="5.32614">
        <ele>312.20001220703</ele>
        <time>2019-11-30T15:27:18.000Z</time>
      </trkpt>
      <trkpt lat="43.6595" lon="5.32609">
        <ele>312.20001220703</ele>
        <time>2019-11-30T15:27:19.000Z</time>
      </trkpt>
      <trkpt lat="43.65946" lon="5.32604">
        <ele>312.20001220703</ele>
        <time>2019-11-30T15:27:20.000Z</time>
      </trkpt>
      <trkpt lat="43.65943" lon="5.32599">
        <ele>312</ele>
        <time>2019-11-30T15:27:21.000Z</time>
      </trkpt>
      <trkpt lat="43.6594" lon="5.32594">
        <ele>312</ele>
        <time>2019-11-30T15:27:22.000Z</time>
      </trkpt>
      <trkpt lat="43.65936" lon="5.32588">
        <ele>312</ele>
        <time>2019-11-30T15:27:23.000Z</time>
      </trkpt>
      <trkpt lat="43.65933" lon="5.32583">
        <ele>311.79998779297</ele>
        <time>2019-11-30T15:27:24.000Z</time>
      </trkpt>
      <trkpt lat="43.6593" lon="5.32578">
        <ele>311.79998779297</ele>
        <time>2019-11-30T15:27:25.000Z</time>
      </trkpt>
      <trkpt lat="43.65927" lon="5.32572">
        <ele>311.60000610352</ele>
        <time>2019-11-30T15:27:26.000Z</time>
      </trkpt>
      <trkpt lat="43.65924" lon="5.32567">
        <ele>311.39999389648</ele>
        <time>2019-11-30T15:27:27.000Z</time>
      </trkpt>
      <trkpt lat="43.6592" lon="5.32562">
        <ele>311.39999389648</ele>
        <time>2019-11-30T15:27:28.000Z</time>
      </trkpt>
      <trkpt lat="43.65917" lon="5.32558">
        <ele>311.20001220703</ele>
        <time>2019-11-30T15:27:29.000Z</time>
      </trkpt>
      <trkpt lat="43.65913" lon="5.32553">
        <ele>311.20001220703</ele>
        <time>2019-11-30T15:27:30.000Z</time>
      </trkpt>
      <trkpt lat="43.65909" lon="5.32548">
        <ele>311</ele>
        <time>2019-11-30T15:27:31.000Z</time>
      </trkpt>
      <trkpt lat="43.65906" lon="5.32544">
        <ele>311</ele>
        <time>2019-11-30T15:27:32.000Z</time>
      </trkpt>
      <trkpt lat="43.65902" lon="5.32539">
        <ele>311</ele>
        <time>2019-11-30T15:27:33.000Z</time>
      </trkpt>
      <trkpt lat="43.65897" lon="5.32537">
        <ele>310.79998779297</ele>
        <time>2019-11-30T15:27:34.000Z</time>
      </trkpt>
      <trkpt lat="43.65892" lon="5.32535">
        <ele>310.79998779297</ele>
        <time>2019-11-30T15:27:35.000Z</time>
      </trkpt>
      <trkpt lat="43.65887" lon="5.32532">
        <ele>310.79998779297</ele>
        <time>2019-11-30T15:27:36.000Z</time>
      </trkpt>
      <trkpt lat="43.65881" lon="5.3253">
        <ele>310.79998779297</ele>
        <time>2019-11-30T15:27:37.000Z</time>
      </trkpt>
      <trkpt lat="43.65876" lon="5.32527">
        <ele>310.79998779297</ele>
        <time>2019-11-30T15:27:38.000Z</time>
      </trkpt>
      <trkpt lat="43.65871" lon="5.32524">
        <ele>310.79998779297</ele>
        <time>2019-11-30T15:27:39.000Z</time>
      </trkpt>
      <trkpt lat="43.65865" lon="5.32521">
        <ele>310.60000610352</ele>
        <time>2019-11-30T15:27:40.000Z</time>
      </trkpt>
      <trkpt lat="43.65859" lon="5.32518">
        <ele>310.60000610352</ele>
        <time>2019-11-30T15:27:41.000Z</time>
      </trkpt>
      <trkpt lat="43.65853" lon="5.32515">
        <ele>310.60000610352</ele>
        <time>2019-11-30T15:27:42.000Z</time>
      </trkpt>
      <trkpt lat="43.65847" lon="5.32512">
        <ele>310.39999389648</ele>
        <time>2019-11-30T15:27:43.000Z</time>
      </trkpt>
      <trkpt lat="43.65841" lon="5.32509">
        <ele>310.20001220703</ele>
        <time>2019-11-30T15:27:44.000Z</time>
      </trkpt>
      <trkpt lat="43.65835" lon="5.32506">
        <ele>309.79998779297</ele>
        <time>2019-11-30T15:27:45.000Z</time>
      </trkpt>
      <trkpt lat="43.6583" lon="5.32503">
        <ele>309.60000610352</ele>
        <time>2019-11-30T15:27:46.000Z</time>
      </trkpt>
      <trkpt lat="43.65824" lon="5.325">
        <ele>309.39999389648</ele>
        <time>2019-11-30T15:27:47.000Z</time>
      </trkpt>
      <trkpt lat="43.65818" lon="5.32497">
        <ele>309.20001220703</ele>
        <time>2019-11-30T15:27:48.000Z</time>
      </trkpt>
      <trkpt lat="43.65813" lon="5.32494">
        <ele>309</ele>
        <time>2019-11-30T15:27:49.000Z</time>
      </trkpt>
      <trkpt lat="43.65807" lon="5.32491">
        <ele>308.60000610352</ele>
        <time>2019-11-30T15:27:50.000Z</time>
      </trkpt>
      <trkpt lat="43.65801" lon="5.32487">
        <ele>308.39999389648</ele>
        <time>2019-11-30T15:27:51.000Z</time>
      </trkpt>
      <trkpt lat="43.65796" lon="5.32481">
        <ele>308.20001220703</ele>
        <time>2019-11-30T15:27:52.000Z</time>
      </trkpt>
      <trkpt lat="43.65791" lon="5.32475">
        <ele>308</ele>
        <time>2019-11-30T15:27:53.000Z</time>
      </trkpt>
      <trkpt lat="43.65786" lon="5.3247">
        <ele>307.60000610352</ele>
        <time>2019-11-30T15:27:54.000Z</time>
      </trkpt>
      <trkpt lat="43.65781" lon="5.32464">
        <ele>307.39999389648</ele>
        <time>2019-11-30T15:27:55.000Z</time>
      </trkpt>
      <trkpt lat="43.65777" lon="5.32457">
        <ele>307</ele>
        <time>2019-11-30T15:27:56.000Z</time>
      </trkpt>
      <trkpt lat="43.65773" lon="5.32449">
        <ele>306.79998779297</ele>
        <time>2019-11-30T15:27:57.000Z</time>
      </trkpt>
      <trkpt lat="43.65769" lon="5.32441">
        <ele>306.39999389648</ele>
        <time>2019-11-30T15:27:58.000Z</time>
      </trkpt>
      <trkpt lat="43.65765" lon="5.32433">
        <ele>306</ele>
        <time>2019-11-30T15:27:59.000Z</time>
      </trkpt>
      <trkpt lat="43.65761" lon="5.32424">
        <ele>305.79998779297</ele>
        <time>2019-11-30T15:28:00.000Z</time>
      </trkpt>
      <trkpt lat="43.65756" lon="5.32415">
        <ele>305.39999389648</ele>
        <time>2019-11-30T15:28:01.000Z</time>
      </trkpt>
      <trkpt lat="43.65754" lon="5.32405">
        <ele>305</ele>
        <time>2019-11-30T15:28:02.000Z</time>
      </trkpt>
      <trkpt lat="43.65752" lon="5.32395">
        <ele>304.79998779297</ele>
        <time>2019-11-30T15:28:03.000Z</time>
      </trkpt>
      <trkpt lat="43.6575" lon="5.32384">
        <ele>304.39999389648</ele>
        <time>2019-11-30T15:28:04.000Z</time>
      </trkpt>
      <trkpt lat="43.65748" lon="5.32372">
        <ele>304</ele>
        <time>2019-11-30T15:28:05.000Z</time>
      </trkpt>
      <trkpt lat="43.65746" lon="5.32362">
        <ele>303.79998779297</ele>
        <time>2019-11-30T15:28:06.000Z</time>
      </trkpt>
      <trkpt lat="43.65744" lon="5.3235">
        <ele>303.20001220703</ele>
        <time>2019-11-30T15:28:07.000Z</time>
      </trkpt>
      <trkpt lat="43.65742" lon="5.32339">
        <ele>302.60000610352</ele>
        <time>2019-11-30T15:28:08.000Z</time>
      </trkpt>
      <trkpt lat="43.6574" lon="5.32327">
        <ele>302</ele>
        <time>2019-11-30T15:28:09.000Z</time>
      </trkpt>
      <trkpt lat="43.65738" lon="5.32316">
        <ele>301.60000610352</ele>
        <time>2019-11-30T15:28:10.000Z</time>
      </trkpt>
      <trkpt lat="43.65736" lon="5.32304">
        <ele>301</ele>
        <time>2019-11-30T15:28:11.000Z</time>
      </trkpt>
      <trkpt lat="43.65733" lon="5.32293">
        <ele>300.39999389648</ele>
        <time>2019-11-30T15:28:12.000Z</time>
      </trkpt>
      <trkpt lat="43.65731" lon="5.32281">
        <ele>300.20001220703</ele>
        <time>2019-11-30T15:28:13.000Z</time>
      </trkpt>
      <trkpt lat="43.65729" lon="5.3227">
        <ele>299.79998779297</ele>
        <time>2019-11-30T15:28:14.000Z</time>
      </trkpt>
      <trkpt lat="43.65727" lon="5.32259">
        <ele>299.60000610352</ele>
        <time>2019-11-30T15:28:15.000Z</time>
      </trkpt>
      <trkpt lat="43.65725" lon="5.32248">
        <ele>299.20001220703</ele>
        <time>2019-11-30T15:28:16.000Z</time>
      </trkpt>
      <trkpt lat="43.65723" lon="5.32237">
        <ele>299</ele>
        <time>2019-11-30T15:28:17.000Z</time>
      </trkpt>
      <trkpt lat="43.65722" lon="5.32226">
        <ele>298.79998779297</ele>
        <time>2019-11-30T15:28:18.000Z</time>
      </trkpt>
      <trkpt lat="43.6572" lon="5.32214">
        <ele>298.39999389648</ele>
        <time>2019-11-30T15:28:19.000Z</time>
      </trkpt>
      <trkpt lat="43.65719" lon="5.32203">
        <ele>298.20001220703</ele>
        <time>2019-11-30T15:28:20.000Z</time>
      </trkpt>
      <trkpt lat="43.65718" lon="5.32191">
        <ele>297.79998779297</ele>
        <time>2019-11-30T15:28:21.000Z</time>
      </trkpt>
      <trkpt lat="43.65718" lon="5.32178">
        <ele>297.60000610352</ele>
        <time>2019-11-30T15:28:22.000Z</time>
      </trkpt>
      <trkpt lat="43.65719" lon="5.32166">
        <ele>297.20001220703</ele>
        <time>2019-11-30T15:28:23.000Z</time>
      </trkpt>
      <trkpt lat="43.6572" lon="5.32153">
        <ele>297.20001220703</ele>
        <time>2019-11-30T15:28:24.000Z</time>
      </trkpt>
      <trkpt lat="43.65718" lon="5.3214">
        <ele>297.20001220703</ele>
        <time>2019-11-30T15:28:25.000Z</time>
      </trkpt>
      <trkpt lat="43.65715" lon="5.32128">
        <ele>297</ele>
        <time>2019-11-30T15:28:26.000Z</time>
      </trkpt>
      <trkpt lat="43.65712" lon="5.32116">
        <ele>296.60000610352</ele>
        <time>2019-11-30T15:28:27.000Z</time>
      </trkpt>
      <trkpt lat="43.65709" lon="5.32105">
        <ele>296.20001220703</ele>
        <time>2019-11-30T15:28:28.000Z</time>
      </trkpt>
      <trkpt lat="43.65706" lon="5.32095">
        <ele>295.79998779297</ele>
        <time>2019-11-30T15:28:29.000Z</time>
      </trkpt>
      <trkpt lat="43.65701" lon="5.32085">
        <ele>295.39999389648</ele>
        <time>2019-11-30T15:28:30.000Z</time>
      </trkpt>
      <trkpt lat="43.65697" lon="5.32076">
        <ele>295</ele>
        <time>2019-11-30T15:28:31.000Z</time>
      </trkpt>
      <trkpt lat="43.65693" lon="5.32067">
        <ele>294.79998779297</ele>
        <time>2019-11-30T15:28:32.000Z</time>
      </trkpt>
      <trkpt lat="43.65688" lon="5.32057">
        <ele>294.39999389648</ele>
        <time>2019-11-30T15:28:33.000Z</time>
      </trkpt>
      <trkpt lat="43.65684" lon="5.32048">
        <ele>294</ele>
        <time>2019-11-30T15:28:34.000Z</time>
      </trkpt>
      <trkpt lat="43.65679" lon="5.32041">
        <ele>293.79998779297</ele>
        <time>2019-11-30T15:28:35.000Z</time>
      </trkpt>
      <trkpt lat="43.65673" lon="5.32034">
        <ele>293.60000610352</ele>
        <time>2019-11-30T15:28:36.000Z</time>
      </trkpt>
      <trkpt lat="43.65668" lon="5.32028">
        <ele>293.60000610352</ele>
        <time>2019-11-30T15:28:37.000Z</time>
      </trkpt>
      <trkpt lat="43.65665" lon="5.32025">
        <ele>293.60000610352</ele>
        <time>2019-11-30T15:28:38.000Z</time>
      </trkpt>
      <trkpt lat="43.65663" lon="5.32023">
        <ele>293.39999389648</ele>
        <time>2019-11-30T15:28:39.000Z</time>
      </trkpt>
      <trkpt lat="43.65662" lon="5.32022">
        <ele>293.39999389648</ele>
        <time>2019-11-30T15:28:40.000Z</time>
      </trkpt>
      <trkpt lat="43.65674" lon="5.32005">
        <ele>294.39999389648</ele>
        <time>2019-11-30T15:28:41.000Z</time>
      </trkpt>
      <trkpt lat="43.65673" lon="5.32003">
        <ele>294.39999389648</ele>
        <time>2019-11-30T15:28:42.000Z</time>
      </trkpt>
      <trkpt lat="43.65672" lon="5.32001">
        <ele>294.39999389648</ele>
        <time>2019-11-30T15:28:43.000Z</time>
      </trkpt>
      <trkpt lat="43.65671" lon="5.32">
        <ele>294.39999389648</ele>
        <time>2019-11-30T15:28:44.000Z</time>
      </trkpt>
      <trkpt lat="43.6567" lon="5.32001">
        <ele>294.39999389648</ele>
        <time>2019-11-30T15:28:45.000Z</time>
      </trkpt>
      <trkpt lat="43.65671" lon="5.31999">
        <ele>294.39999389648</ele>
        <time>2019-11-30T15:28:46.000Z</time>
      </trkpt>
      <trkpt lat="43.6567" lon="5.31997">
        <ele>294.39999389648</ele>
        <time>2019-11-30T15:28:47.000Z</time>
      </trkpt>
      <trkpt lat="43.65669" lon="5.31994">
        <ele>294.39999389648</ele>
        <time>2019-11-30T15:28:48.000Z</time>
      </trkpt>
      <trkpt lat="43.65667" lon="5.31991">
        <ele>294.39999389648</ele>
        <time>2019-11-30T15:28:49.000Z</time>
      </trkpt>
      <trkpt lat="43.65664" lon="5.31986">
        <ele>294.39999389648</ele>
        <time>2019-11-30T15:28:50.000Z</time>
      </trkpt>
      <trkpt lat="43.65661" lon="5.3198">
        <ele>294.39999389648</ele>
        <time>2019-11-30T15:28:51.000Z</time>
      </trkpt>
      <trkpt lat="43.65658" lon="5.31974">
        <ele>294.39999389648</ele>
        <time>2019-11-30T15:28:52.000Z</time>
      </trkpt>
      <trkpt lat="43.65655" lon="5.31967">
        <ele>294.39999389648</ele>
        <time>2019-11-30T15:28:53.000Z</time>
      </trkpt>
      <trkpt lat="43.65652" lon="5.31961">
        <ele>294.39999389648</ele>
        <time>2019-11-30T15:28:54.000Z</time>
      </trkpt>
      <trkpt lat="43.65649" lon="5.31955">
        <ele>294.20001220703</ele>
        <time>2019-11-30T15:28:55.000Z</time>
      </trkpt>
      <trkpt lat="43.65645" lon="5.31948">
        <ele>293.79998779297</ele>
        <time>2019-11-30T15:28:56.000Z</time>
      </trkpt>
      <trkpt lat="43.6564" lon="5.31944">
        <ele>293.60000610352</ele>
        <time>2019-11-30T15:28:57.000Z</time>
      </trkpt>
      <trkpt lat="43.65635" lon="5.3194">
        <ele>293.20001220703</ele>
        <time>2019-11-30T15:28:58.000Z</time>
      </trkpt>
      <trkpt lat="43.65631" lon="5.31936">
        <ele>293</ele>
        <time>2019-11-30T15:28:59.000Z</time>
      </trkpt>
      <trkpt lat="43.65626" lon="5.31933">
        <ele>292.79998779297</ele>
        <time>2019-11-30T15:29:00.000Z</time>
      </trkpt>
      <trkpt lat="43.65624" lon="5.3193">
        <ele>292.60000610352</ele>
        <time>2019-11-30T15:29:01.000Z</time>
      </trkpt>
      <trkpt lat="43.65624" lon="5.31924">
        <ele>292.60000610352</ele>
        <time>2019-11-30T15:29:02.000Z</time>
      </trkpt>
      <trkpt lat="43.65624" lon="5.31917">
        <ele>292.39999389648</ele>
        <time>2019-11-30T15:29:03.000Z</time>
      </trkpt>
      <trkpt lat="43.6562" lon="5.31911">
        <ele>292.20001220703</ele>
        <time>2019-11-30T15:29:04.000Z</time>
      </trkpt>
      <trkpt lat="43.65618" lon="5.31906">
        <ele>292</ele>
        <time>2019-11-30T15:29:05.000Z</time>
      </trkpt>
      <trkpt lat="43.65616" lon="5.31899">
        <ele>291.79998779297</ele>
        <time>2019-11-30T15:29:06.000Z</time>
      </trkpt>
      <trkpt lat="43.65617" lon="5.31892">
        <ele>291.79998779297</ele>
        <time>2019-11-30T15:29:07.000Z</time>
      </trkpt>
      <trkpt lat="43.65618" lon="5.31885">
        <ele>291.39999389648</ele>
        <time>2019-11-30T15:29:08.000Z</time>
      </trkpt>
      <trkpt lat="43.6562" lon="5.31877">
        <ele>291</ele>
        <time>2019-11-30T15:29:09.000Z</time>
      </trkpt>
      <trkpt lat="43.65621" lon="5.31869">
        <ele>290.79998779297</ele>
        <time>2019-11-30T15:29:10.000Z</time>
      </trkpt>
      <trkpt lat="43.65622" lon="5.3186">
        <ele>290.60000610352</ele>
        <time>2019-11-30T15:29:11.000Z</time>
      </trkpt>
      <trkpt lat="43.65624" lon="5.31852">
        <ele>290.20001220703</ele>
        <time>2019-11-30T15:29:12.000Z</time>
      </trkpt>
      <trkpt lat="43.65624" lon="5.31849">
        <ele>290.20001220703</ele>
        <time>2019-11-30T15:29:13.000Z</time>
      </trkpt>
      <trkpt lat="43.65632" lon="5.31839">
        <ele>289.79998779297</ele>
        <time>2019-11-30T15:29:14.000Z</time>
      </trkpt>
      <trkpt lat="43.65633" lon="5.31834">
        <ele>289.60000610352</ele>
        <time>2019-11-30T15:29:15.000Z</time>
      </trkpt>
      <trkpt lat="43.65631" lon="5.3182">
        <ele>289.20001220703</ele>
        <time>2019-11-30T15:29:16.000Z</time>
      </trkpt>
      <trkpt lat="43.65629" lon="5.31816">
        <ele>289</ele>
        <time>2019-11-30T15:29:17.000Z</time>
      </trkpt>
      <trkpt lat="43.65634" lon="5.31827">
        <ele>289.39999389648</ele>
        <time>2019-11-30T15:29:18.000Z</time>
      </trkpt>
      <trkpt lat="43.65623" lon="5.31811">
        <ele>288.79998779297</ele>
        <time>2019-11-30T15:29:19.000Z</time>
      </trkpt>
      <trkpt lat="43.65625" lon="5.31805">
        <ele>288.60000610352</ele>
        <time>2019-11-30T15:29:20.000Z</time>
      </trkpt>
      <trkpt lat="43.65623" lon="5.31799">
        <ele>288.39999389648</ele>
        <time>2019-11-30T15:29:21.000Z</time>
      </trkpt>
      <trkpt lat="43.6562" lon="5.31793">
        <ele>288</ele>
        <time>2019-11-30T15:29:22.000Z</time>
      </trkpt>
      <trkpt lat="43.65618" lon="5.31784">
        <ele>287.79998779297</ele>
        <time>2019-11-30T15:29:23.000Z</time>
      </trkpt>
      <trkpt lat="43.65619" lon="5.31776">
        <ele>287.39999389648</ele>
        <time>2019-11-30T15:29:24.000Z</time>
      </trkpt>
      <trkpt lat="43.6562" lon="5.31768">
        <ele>287.20001220703</ele>
        <time>2019-11-30T15:29:25.000Z</time>
      </trkpt>
      <trkpt lat="43.6562" lon="5.3176">
        <ele>286.79998779297</ele>
        <time>2019-11-30T15:29:26.000Z</time>
      </trkpt>
      <trkpt lat="43.65618" lon="5.31753">
        <ele>286.60000610352</ele>
        <time>2019-11-30T15:29:27.000Z</time>
      </trkpt>
      <trkpt lat="43.65616" lon="5.31745">
        <ele>286.20001220703</ele>
        <time>2019-11-30T15:29:28.000Z</time>
      </trkpt>
      <trkpt lat="43.65615" lon="5.31737">
        <ele>286</ele>
        <time>2019-11-30T15:29:29.000Z</time>
      </trkpt>
      <trkpt lat="43.65613" lon="5.3173">
        <ele>285.60000610352</ele>
        <time>2019-11-30T15:29:30.000Z</time>
      </trkpt>
      <trkpt lat="43.65611" lon="5.31723">
        <ele>285.39999389648</ele>
        <time>2019-11-30T15:29:31.000Z</time>
      </trkpt>
      <trkpt lat="43.6561" lon="5.31716">
        <ele>285.20001220703</ele>
        <time>2019-11-30T15:29:32.000Z</time>
      </trkpt>
      <trkpt lat="43.65608" lon="5.31709">
        <ele>284.79998779297</ele>
        <time>2019-11-30T15:29:33.000Z</time>
      </trkpt>
      <trkpt lat="43.65607" lon="5.31702">
        <ele>284.79998779297</ele>
        <time>2019-11-30T15:29:34.000Z</time>
      </trkpt>
      <trkpt lat="43.65605" lon="5.31696">
        <ele>284.60000610352</ele>
        <time>2019-11-30T15:29:35.000Z</time>
      </trkpt>
      <trkpt lat="43.65602" lon="5.31688">
        <ele>284.39999389648</ele>
        <time>2019-11-30T15:29:36.000Z</time>
      </trkpt>
      <trkpt lat="43.65598" lon="5.31682">
        <ele>284.39999389648</ele>
        <time>2019-11-30T15:29:37.000Z</time>
      </trkpt>
      <trkpt lat="43.65594" lon="5.31676">
        <ele>284.39999389648</ele>
        <time>2019-11-30T15:29:38.000Z</time>
      </trkpt>
      <trkpt lat="43.6559" lon="5.31671">
        <ele>284.20001220703</ele>
        <time>2019-11-30T15:29:39.000Z</time>
      </trkpt>
      <trkpt lat="43.65586" lon="5.31665">
        <ele>284.20001220703</ele>
        <time>2019-11-30T15:29:40.000Z</time>
      </trkpt>
      <trkpt lat="43.65582" lon="5.31659">
        <ele>284.20001220703</ele>
        <time>2019-11-30T15:29:41.000Z</time>
      </trkpt>
      <trkpt lat="43.65577" lon="5.31653">
        <ele>284.20001220703</ele>
        <time>2019-11-30T15:29:42.000Z</time>
      </trkpt>
      <trkpt lat="43.65573" lon="5.31647">
        <ele>284.20001220703</ele>
        <time>2019-11-30T15:29:43.000Z</time>
      </trkpt>
      <trkpt lat="43.65568" lon="5.31636">
        <ele>284</ele>
        <time>2019-11-30T15:29:44.000Z</time>
      </trkpt>
      <trkpt lat="43.65566" lon="5.31627">
        <ele>283.79998779297</ele>
        <time>2019-11-30T15:29:45.000Z</time>
      </trkpt>
      <trkpt lat="43.65566" lon="5.31615">
        <ele>283.39999389648</ele>
        <time>2019-11-30T15:29:46.000Z</time>
      </trkpt>
      <trkpt lat="43.65568" lon="5.31607">
        <ele>283</ele>
        <time>2019-11-30T15:29:47.000Z</time>
      </trkpt>
      <trkpt lat="43.65569" lon="5.31599">
        <ele>282.60000610352</ele>
        <time>2019-11-30T15:29:48.000Z</time>
      </trkpt>
      <trkpt lat="43.65571" lon="5.31591">
        <ele>282.39999389648</ele>
        <time>2019-11-30T15:29:49.000Z</time>
      </trkpt>
      <trkpt lat="43.65572" lon="5.31582">
        <ele>282</ele>
        <time>2019-11-30T15:29:50.000Z</time>
      </trkpt>
      <trkpt lat="43.65574" lon="5.31574">
        <ele>281.60000610352</ele>
        <time>2019-11-30T15:29:51.000Z</time>
      </trkpt>
      <trkpt lat="43.65575" lon="5.31566">
        <ele>281.39999389648</ele>
        <time>2019-11-30T15:29:52.000Z</time>
      </trkpt>
      <trkpt lat="43.65577" lon="5.31558">
        <ele>281</ele>
        <time>2019-11-30T15:29:53.000Z</time>
      </trkpt>
      <trkpt lat="43.65578" lon="5.3155">
        <ele>280.60000610352</ele>
        <time>2019-11-30T15:29:54.000Z</time>
      </trkpt>
      <trkpt lat="43.65579" lon="5.31542">
        <ele>280.60000610352</ele>
        <time>2019-11-30T15:29:55.000Z</time>
      </trkpt>
      <trkpt lat="43.65581" lon="5.31535">
        <ele>280.39999389648</ele>
        <time>2019-11-30T15:29:56.000Z</time>
      </trkpt>
      <trkpt lat="43.65582" lon="5.3153">
        <ele>280.20001220703</ele>
        <time>2019-11-30T15:29:57.000Z</time>
      </trkpt>
      <trkpt lat="43.65582" lon="5.31525">
        <ele>280.20001220703</ele>
        <time>2019-11-30T15:29:58.000Z</time>
      </trkpt>
      <trkpt lat="43.65583" lon="5.31519">
        <ele>280.39999389648</ele>
        <time>2019-11-30T15:29:59.000Z</time>
      </trkpt>
      <trkpt lat="43.65585" lon="5.31513">
        <ele>280.39999389648</ele>
        <time>2019-11-30T15:30:00.000Z</time>
      </trkpt>
      <trkpt lat="43.65586" lon="5.31505">
        <ele>280.39999389648</ele>
        <time>2019-11-30T15:30:01.000Z</time>
      </trkpt>
      <trkpt lat="43.65587" lon="5.31498">
        <ele>280.60000610352</ele>
        <time>2019-11-30T15:30:02.000Z</time>
      </trkpt>
      <trkpt lat="43.65588" lon="5.31491">
        <ele>280.60000610352</ele>
        <time>2019-11-30T15:30:03.000Z</time>
      </trkpt>
      <trkpt lat="43.65586" lon="5.31483">
        <ele>280.79998779297</ele>
        <time>2019-11-30T15:30:04.000Z</time>
      </trkpt>
      <trkpt lat="43.65585" lon="5.31475">
        <ele>280.79998779297</ele>
        <time>2019-11-30T15:30:05.000Z</time>
      </trkpt>
      <trkpt lat="43.65583" lon="5.31467">
        <ele>281</ele>
        <time>2019-11-30T15:30:06.000Z</time>
      </trkpt>
      <trkpt lat="43.6558" lon="5.31461">
        <ele>281</ele>
        <time>2019-11-30T15:30:07.000Z</time>
      </trkpt>
      <trkpt lat="43.65577" lon="5.31455">
        <ele>281</ele>
        <time>2019-11-30T15:30:08.000Z</time>
      </trkpt>
      <trkpt lat="43.65573" lon="5.31449">
        <ele>281.20001220703</ele>
        <time>2019-11-30T15:30:09.000Z</time>
      </trkpt>
      <trkpt lat="43.6557" lon="5.31444">
        <ele>281.20001220703</ele>
        <time>2019-11-30T15:30:10.000Z</time>
      </trkpt>
      <trkpt lat="43.65567" lon="5.31438">
        <ele>281.39999389648</ele>
        <time>2019-11-30T15:30:11.000Z</time>
      </trkpt>
      <trkpt lat="43.65564" lon="5.31432">
        <ele>281.39999389648</ele>
        <time>2019-11-30T15:30:12.000Z</time>
      </trkpt>
      <trkpt lat="43.65563" lon="5.3142">
        <ele>281.39999389648</ele>
        <time>2019-11-30T15:30:13.000Z</time>
      </trkpt>
      <trkpt lat="43.65564" lon="5.31414">
        <ele>281.39999389648</ele>
        <time>2019-11-30T15:30:14.000Z</time>
      </trkpt>
      <trkpt lat="43.65565" lon="5.31407">
        <ele>281.39999389648</ele>
        <time>2019-11-30T15:30:15.000Z</time>
      </trkpt>
      <trkpt lat="43.65566" lon="5.314">
        <ele>281.39999389648</ele>
        <time>2019-11-30T15:30:16.000Z</time>
      </trkpt>
      <trkpt lat="43.65567" lon="5.31393">
        <ele>281.39999389648</ele>
        <time>2019-11-30T15:30:17.000Z</time>
      </trkpt>
      <trkpt lat="43.65568" lon="5.31387">
        <ele>281.39999389648</ele>
        <time>2019-11-30T15:30:18.000Z</time>
      </trkpt>
      <trkpt lat="43.65568" lon="5.31376">
        <ele>281.39999389648</ele>
        <time>2019-11-30T15:30:19.000Z</time>
      </trkpt>
      <trkpt lat="43.65564" lon="5.31372">
        <ele>281.39999389648</ele>
        <time>2019-11-30T15:30:20.000Z</time>
      </trkpt>
      <trkpt lat="43.65561" lon="5.31367">
        <ele>281.39999389648</ele>
        <time>2019-11-30T15:30:21.000Z</time>
      </trkpt>
      <trkpt lat="43.65557" lon="5.31362">
        <ele>281.39999389648</ele>
        <time>2019-11-30T15:30:22.000Z</time>
      </trkpt>
      <trkpt lat="43.65553" lon="5.31357">
        <ele>281.39999389648</ele>
        <time>2019-11-30T15:30:23.000Z</time>
      </trkpt>
      <trkpt lat="43.65549" lon="5.31352">
        <ele>281.39999389648</ele>
        <time>2019-11-30T15:30:24.000Z</time>
      </trkpt>
      <trkpt lat="43.65544" lon="5.31346">
        <ele>281.20001220703</ele>
        <time>2019-11-30T15:30:25.000Z</time>
      </trkpt>
      <trkpt lat="43.65541" lon="5.31341">
        <ele>281.20001220703</ele>
        <time>2019-11-30T15:30:26.000Z</time>
      </trkpt>
      <trkpt lat="43.65538" lon="5.31335">
        <ele>281.20001220703</ele>
        <time>2019-11-30T15:30:27.000Z</time>
      </trkpt>
      <trkpt lat="43.65534" lon="5.31328">
        <ele>281.20001220703</ele>
        <time>2019-11-30T15:30:28.000Z</time>
      </trkpt>
      <trkpt lat="43.65531" lon="5.31322">
        <ele>281.20001220703</ele>
        <time>2019-11-30T15:30:29.000Z</time>
      </trkpt>
      <trkpt lat="43.65528" lon="5.31316">
        <ele>281.20001220703</ele>
        <time>2019-11-30T15:30:30.000Z</time>
      </trkpt>
      <trkpt lat="43.65525" lon="5.31309">
        <ele>281</ele>
        <time>2019-11-30T15:30:31.000Z</time>
      </trkpt>
      <trkpt lat="43.65522" lon="5.31302">
        <ele>281</ele>
        <time>2019-11-30T15:30:32.000Z</time>
      </trkpt>
      <trkpt lat="43.65518" lon="5.31295">
        <ele>280.79998779297</ele>
        <time>2019-11-30T15:30:33.000Z</time>
      </trkpt>
      <trkpt lat="43.65515" lon="5.31287">
        <ele>280.39999389648</ele>
        <time>2019-11-30T15:30:34.000Z</time>
      </trkpt>
      <trkpt lat="43.65511" lon="5.3128">
        <ele>280</ele>
        <time>2019-11-30T15:30:35.000Z</time>
      </trkpt>
      <trkpt lat="43.65506" lon="5.31275">
        <ele>279.79998779297</ele>
        <time>2019-11-30T15:30:36.000Z</time>
      </trkpt>
      <trkpt lat="43.655" lon="5.31271">
        <ele>279.39999389648</ele>
        <time>2019-11-30T15:30:37.000Z</time>
      </trkpt>
      <trkpt lat="43.65493" lon="5.31267">
        <ele>279</ele>
        <time>2019-11-30T15:30:38.000Z</time>
      </trkpt>
      <trkpt lat="43.65486" lon="5.31263">
        <ele>278.60000610352</ele>
        <time>2019-11-30T15:30:39.000Z</time>
      </trkpt>
      <trkpt lat="43.6548" lon="5.31259">
        <ele>278.20001220703</ele>
        <time>2019-11-30T15:30:40.000Z</time>
      </trkpt>
      <trkpt lat="43.65473" lon="5.31255">
        <ele>277.79998779297</ele>
        <time>2019-11-30T15:30:41.000Z</time>
      </trkpt>
      <trkpt lat="43.65467" lon="5.31251">
        <ele>277.39999389648</ele>
        <time>2019-11-30T15:30:42.000Z</time>
      </trkpt>
      <trkpt lat="43.65461" lon="5.31248">
        <ele>277</ele>
        <time>2019-11-30T15:30:43.000Z</time>
      </trkpt>
      <trkpt lat="43.65454" lon="5.31244">
        <ele>276.60000610352</ele>
        <time>2019-11-30T15:30:44.000Z</time>
      </trkpt>
      <trkpt lat="43.65451" lon="5.31242">
        <ele>276.39999389648</ele>
        <time>2019-11-30T15:30:45.000Z</time>
      </trkpt>
      <trkpt lat="43.65451" lon="5.31242">
        <ele>276.39999389648</ele>
        <time>2019-11-30T15:30:46.000Z</time>
      </trkpt>
      <trkpt lat="43.65451" lon="5.31242">
        <ele>276.39999389648</ele>
        <time>2019-11-30T15:30:47.000Z</time>
      </trkpt>
      <trkpt lat="43.65451" lon="5.31242">
        <ele>276.39999389648</ele>
        <time>2019-11-30T15:30:48.000Z</time>
      </trkpt>
      <trkpt lat="43.65451" lon="5.31242">
        <ele>276.39999389648</ele>
        <time>2019-11-30T15:30:49.000Z</time>
      </trkpt>
      <trkpt lat="43.65451" lon="5.31242">
        <ele>276.39999389648</ele>
        <time>2019-11-30T15:30:50.000Z</time>
      </trkpt>
      <trkpt lat="43.65426" lon="5.3127">
        <ele>276</ele>
        <time>2019-11-30T15:30:51.000Z</time>
      </trkpt>
      <trkpt lat="43.65423" lon="5.31274">
        <ele>276</ele>
        <time>2019-11-30T15:30:52.000Z</time>
      </trkpt>
      <trkpt lat="43.6542" lon="5.3128">
        <ele>276</ele>
        <time>2019-11-30T15:30:53.000Z</time>
      </trkpt>
      <trkpt lat="43.65419" lon="5.31287">
        <ele>276</ele>
        <time>2019-11-30T15:30:54.000Z</time>
      </trkpt>
      <trkpt lat="43.65418" lon="5.31295">
        <ele>276</ele>
        <time>2019-11-30T15:30:55.000Z</time>
      </trkpt>
      <trkpt lat="43.65416" lon="5.31302">
        <ele>276.20001220703</ele>
        <time>2019-11-30T15:30:56.000Z</time>
      </trkpt>
      <trkpt lat="43.65415" lon="5.3131">
        <ele>276.20001220703</ele>
        <time>2019-11-30T15:30:57.000Z</time>
      </trkpt>
      <trkpt lat="43.65413" lon="5.31318">
        <ele>276.39999389648</ele>
        <time>2019-11-30T15:30:58.000Z</time>
      </trkpt>
      <trkpt lat="43.65412" lon="5.31325">
        <ele>276.60000610352</ele>
        <time>2019-11-30T15:30:59.000Z</time>
      </trkpt>
      <trkpt lat="43.65409" lon="5.31333">
        <ele>276.60000610352</ele>
        <time>2019-11-30T15:31:00.000Z</time>
      </trkpt>
      <trkpt lat="43.65406" lon="5.31339">
        <ele>276.60000610352</ele>
        <time>2019-11-30T15:31:01.000Z</time>
      </trkpt>
      <trkpt lat="43.65401" lon="5.31343">
        <ele>276.39999389648</ele>
        <time>2019-11-30T15:31:02.000Z</time>
      </trkpt>
      <trkpt lat="43.65395" lon="5.31345">
        <ele>276.20001220703</ele>
        <time>2019-11-30T15:31:03.000Z</time>
      </trkpt>
      <trkpt lat="43.65388" lon="5.31345">
        <ele>276</ele>
        <time>2019-11-30T15:31:04.000Z</time>
      </trkpt>
      <trkpt lat="43.65382" lon="5.31346">
        <ele>275.79998779297</ele>
        <time>2019-11-30T15:31:05.000Z</time>
      </trkpt>
      <trkpt lat="43.65375" lon="5.31346">
        <ele>275.60000610352</ele>
        <time>2019-11-30T15:31:06.000Z</time>
      </trkpt>
      <trkpt lat="43.65369" lon="5.31347">
        <ele>275.39999389648</ele>
        <time>2019-11-30T15:31:07.000Z</time>
      </trkpt>
      <trkpt lat="43.65362" lon="5.31347">
        <ele>275.20001220703</ele>
        <time>2019-11-30T15:31:08.000Z</time>
      </trkpt>
      <trkpt lat="43.65355" lon="5.31347">
        <ele>274.79998779297</ele>
        <time>2019-11-30T15:31:09.000Z</time>
      </trkpt>
      <trkpt lat="43.65348" lon="5.31346">
        <ele>274.79998779297</ele>
        <time>2019-11-30T15:31:10.000Z</time>
      </trkpt>
      <trkpt lat="43.65341" lon="5.31345">
        <ele>274.79998779297</ele>
        <time>2019-11-30T15:31:11.000Z</time>
      </trkpt>
      <trkpt lat="43.65334" lon="5.31344">
        <ele>275</ele>
        <time>2019-11-30T15:31:12.000Z</time>
      </trkpt>
      <trkpt lat="43.65327" lon="5.31343">
        <ele>275</ele>
        <time>2019-11-30T15:31:13.000Z</time>
      </trkpt>
      <trkpt lat="43.6532" lon="5.31341">
        <ele>275</ele>
        <time>2019-11-30T15:31:14.000Z</time>
      </trkpt>
      <trkpt lat="43.65313" lon="5.3134">
        <ele>275</ele>
        <time>2019-11-30T15:31:15.000Z</time>
      </trkpt>
      <trkpt lat="43.65306" lon="5.3134">
        <ele>274.79998779297</ele>
        <time>2019-11-30T15:31:16.000Z</time>
      </trkpt>
      <trkpt lat="43.65299" lon="5.3134">
        <ele>274.79998779297</ele>
        <time>2019-11-30T15:31:17.000Z</time>
      </trkpt>
      <trkpt lat="43.65292" lon="5.31339">
        <ele>274.60000610352</ele>
        <time>2019-11-30T15:31:18.000Z</time>
      </trkpt>
      <trkpt lat="43.65285" lon="5.3134">
        <ele>274.39999389648</ele>
        <time>2019-11-30T15:31:19.000Z</time>
      </trkpt>
      <trkpt lat="43.65279" lon="5.31339">
        <ele>274.20001220703</ele>
        <time>2019-11-30T15:31:20.000Z</time>
      </trkpt>
      <trkpt lat="43.65274" lon="5.31341">
        <ele>274.20001220703</ele>
        <time>2019-11-30T15:31:21.000Z</time>
      </trkpt>
      <trkpt lat="43.65269" lon="5.31345">
        <ele>274</ele>
        <time>2019-11-30T15:31:22.000Z</time>
      </trkpt>
      <trkpt lat="43.65265" lon="5.3135">
        <ele>274</ele>
        <time>2019-11-30T15:31:23.000Z</time>
      </trkpt>
      <trkpt lat="43.65261" lon="5.31354">
        <ele>274.20001220703</ele>
        <time>2019-11-30T15:31:24.000Z</time>
      </trkpt>
      <trkpt lat="43.65257" lon="5.31355">
        <ele>274.20001220703</ele>
        <time>2019-11-30T15:31:25.000Z</time>
      </trkpt>
      <trkpt lat="43.65252" lon="5.31354">
        <ele>274.39999389648</ele>
        <time>2019-11-30T15:31:26.000Z</time>
      </trkpt>
      <trkpt lat="43.65248" lon="5.31353">
        <ele>274.60000610352</ele>
        <time>2019-11-30T15:31:27.000Z</time>
      </trkpt>
      <trkpt lat="43.65243" lon="5.31352">
        <ele>274.60000610352</ele>
        <time>2019-11-30T15:31:28.000Z</time>
      </trkpt>
      <trkpt lat="43.65238" lon="5.3135">
        <ele>274.79998779297</ele>
        <time>2019-11-30T15:31:29.000Z</time>
      </trkpt>
      <trkpt lat="43.65233" lon="5.31348">
        <ele>274.60000610352</ele>
        <time>2019-11-30T15:31:30.000Z</time>
      </trkpt>
      <trkpt lat="43.65228" lon="5.31346">
        <ele>274.60000610352</ele>
        <time>2019-11-30T15:31:31.000Z</time>
      </trkpt>
      <trkpt lat="43.65223" lon="5.31345">
        <ele>274.39999389648</ele>
        <time>2019-11-30T15:31:32.000Z</time>
      </trkpt>
      <trkpt lat="43.65218" lon="5.31343">
        <ele>274.39999389648</ele>
        <time>2019-11-30T15:31:33.000Z</time>
      </trkpt>
      <trkpt lat="43.65213" lon="5.31339">
        <ele>274.39999389648</ele>
        <time>2019-11-30T15:31:34.000Z</time>
      </trkpt>
      <trkpt lat="43.6521" lon="5.31333">
        <ele>274.79998779297</ele>
        <time>2019-11-30T15:31:35.000Z</time>
      </trkpt>
      <trkpt lat="43.65209" lon="5.31326">
        <ele>275.20001220703</ele>
        <time>2019-11-30T15:31:36.000Z</time>
      </trkpt>
      <trkpt lat="43.65209" lon="5.31318">
        <ele>275.39999389648</ele>
        <time>2019-11-30T15:31:37.000Z</time>
      </trkpt>
      <trkpt lat="43.6521" lon="5.3131">
        <ele>275.39999389648</ele>
        <time>2019-11-30T15:31:38.000Z</time>
      </trkpt>
      <trkpt lat="43.65211" lon="5.31302">
        <ele>275.39999389648</ele>
        <time>2019-11-30T15:31:39.000Z</time>
      </trkpt>
      <trkpt lat="43.65213" lon="5.31295">
        <ele>275.39999389648</ele>
        <time>2019-11-30T15:31:40.000Z</time>
      </trkpt>
      <trkpt lat="43.65215" lon="5.31287">
        <ele>275.60000610352</ele>
        <time>2019-11-30T15:31:41.000Z</time>
      </trkpt>
      <trkpt lat="43.65217" lon="5.3128">
        <ele>275.79998779297</ele>
        <time>2019-11-30T15:31:42.000Z</time>
      </trkpt>
      <trkpt lat="43.65219" lon="5.31272">
        <ele>276.20001220703</ele>
        <time>2019-11-30T15:31:43.000Z</time>
      </trkpt>
      <trkpt lat="43.65221" lon="5.31264">
        <ele>276.39999389648</ele>
        <time>2019-11-30T15:31:44.000Z</time>
      </trkpt>
      <trkpt lat="43.65224" lon="5.31257">
        <ele>276.60000610352</ele>
        <time>2019-11-30T15:31:45.000Z</time>
      </trkpt>
      <trkpt lat="43.65227" lon="5.31249">
        <ele>276.39999389648</ele>
        <time>2019-11-30T15:31:46.000Z</time>
      </trkpt>
      <trkpt lat="43.6523" lon="5.31242">
        <ele>276.20001220703</ele>
        <time>2019-11-30T15:31:47.000Z</time>
      </trkpt>
      <trkpt lat="43.65234" lon="5.31235">
        <ele>275.79998779297</ele>
        <time>2019-11-30T15:31:48.000Z</time>
      </trkpt>
      <trkpt lat="43.65236" lon="5.31228">
        <ele>275.60000610352</ele>
        <time>2019-11-30T15:31:49.000Z</time>
      </trkpt>
      <trkpt lat="43.65238" lon="5.31221">
        <ele>275.39999389648</ele>
        <time>2019-11-30T15:31:50.000Z</time>
      </trkpt>
      <trkpt lat="43.65239" lon="5.31214">
        <ele>275.20001220703</ele>
        <time>2019-11-30T15:31:51.000Z</time>
      </trkpt>
      <trkpt lat="43.65239" lon="5.31208">
        <ele>275</ele>
        <time>2019-11-30T15:31:52.000Z</time>
      </trkpt>
      <trkpt lat="43.65239" lon="5.31203">
        <ele>274.79998779297</ele>
        <time>2019-11-30T15:31:53.000Z</time>
      </trkpt>
      <trkpt lat="43.6524" lon="5.31199">
        <ele>274.60000610352</ele>
        <time>2019-11-30T15:31:54.000Z</time>
      </trkpt>
      <trkpt lat="43.6524" lon="5.31195">
        <ele>274.39999389648</ele>
        <time>2019-11-30T15:31:55.000Z</time>
      </trkpt>
      <trkpt lat="43.6524" lon="5.31193">
        <ele>274.39999389648</ele>
        <time>2019-11-30T15:31:56.000Z</time>
      </trkpt>
      <trkpt lat="43.6524" lon="5.31191">
        <ele>274.39999389648</ele>
        <time>2019-11-30T15:31:57.000Z</time>
      </trkpt>
      <trkpt lat="43.6524" lon="5.3119">
        <ele>274.20001220703</ele>
        <time>2019-11-30T15:31:58.000Z</time>
      </trkpt>
      <trkpt lat="43.65239" lon="5.31187">
        <ele>274.20001220703</ele>
        <time>2019-11-30T15:31:59.000Z</time>
      </trkpt>
      <trkpt lat="43.65239" lon="5.31183">
        <ele>274.20001220703</ele>
        <time>2019-11-30T15:32:00.000Z</time>
      </trkpt>
      <trkpt lat="43.65238" lon="5.3118">
        <ele>274</ele>
        <time>2019-11-30T15:32:01.000Z</time>
      </trkpt>
      <trkpt lat="43.65238" lon="5.31176">
        <ele>273.79998779297</ele>
        <time>2019-11-30T15:32:02.000Z</time>
      </trkpt>
      <trkpt lat="43.65238" lon="5.31171">
        <ele>273.79998779297</ele>
        <time>2019-11-30T15:32:03.000Z</time>
      </trkpt>
      <trkpt lat="43.65238" lon="5.31165">
        <ele>273.60000610352</ele>
        <time>2019-11-30T15:32:04.000Z</time>
      </trkpt>
      <trkpt lat="43.65238" lon="5.31159">
        <ele>273.20001220703</ele>
        <time>2019-11-30T15:32:05.000Z</time>
      </trkpt>
      <trkpt lat="43.65238" lon="5.31153">
        <ele>273</ele>
        <time>2019-11-30T15:32:06.000Z</time>
      </trkpt>
      <trkpt lat="43.65238" lon="5.31147">
        <ele>272.79998779297</ele>
        <time>2019-11-30T15:32:07.000Z</time>
      </trkpt>
      <trkpt lat="43.65238" lon="5.31144">
        <ele>272.79998779297</ele>
        <time>2019-11-30T15:32:08.000Z</time>
      </trkpt>
      <trkpt lat="43.65237" lon="5.3114">
        <ele>272.60000610352</ele>
        <time>2019-11-30T15:32:09.000Z</time>
      </trkpt>
      <trkpt lat="43.65237" lon="5.31137">
        <ele>272.60000610352</ele>
        <time>2019-11-30T15:32:10.000Z</time>
      </trkpt>
      <trkpt lat="43.65235" lon="5.31131">
        <ele>272.39999389648</ele>
        <time>2019-11-30T15:32:11.000Z</time>
      </trkpt>
      <trkpt lat="43.65232" lon="5.31126">
        <ele>272.39999389648</ele>
        <time>2019-11-30T15:32:12.000Z</time>
      </trkpt>
      <trkpt lat="43.65228" lon="5.31122">
        <ele>272.60000610352</ele>
        <time>2019-11-30T15:32:13.000Z</time>
      </trkpt>
      <trkpt lat="43.65223" lon="5.31119">
        <ele>272.79998779297</ele>
        <time>2019-11-30T15:32:14.000Z</time>
      </trkpt>
      <trkpt lat="43.65218" lon="5.31118">
        <ele>273.20001220703</ele>
        <time>2019-11-30T15:32:15.000Z</time>
      </trkpt>
      <trkpt lat="43.65213" lon="5.31117">
        <ele>273.39999389648</ele>
        <time>2019-11-30T15:32:16.000Z</time>
      </trkpt>
      <trkpt lat="43.65207" lon="5.31116">
        <ele>273.79998779297</ele>
        <time>2019-11-30T15:32:17.000Z</time>
      </trkpt>
      <trkpt lat="43.65202" lon="5.31114">
        <ele>274</ele>
        <time>2019-11-30T15:32:18.000Z</time>
      </trkpt>
      <trkpt lat="43.65198" lon="5.31112">
        <ele>274.20001220703</ele>
        <time>2019-11-30T15:32:19.000Z</time>
      </trkpt>
      <trkpt lat="43.65193" lon="5.3111">
        <ele>274.60000610352</ele>
        <time>2019-11-30T15:32:20.000Z</time>
      </trkpt>
      <trkpt lat="43.65188" lon="5.31108">
        <ele>274.79998779297</ele>
        <time>2019-11-30T15:32:21.000Z</time>
      </trkpt>
      <trkpt lat="43.65183" lon="5.31107">
        <ele>275</ele>
        <time>2019-11-30T15:32:22.000Z</time>
      </trkpt>
      <trkpt lat="43.65178" lon="5.31105">
        <ele>275.20001220703</ele>
        <time>2019-11-30T15:32:23.000Z</time>
      </trkpt>
      <trkpt lat="43.65172" lon="5.31103">
        <ele>275.39999389648</ele>
        <time>2019-11-30T15:32:24.000Z</time>
      </trkpt>
      <trkpt lat="43.65166" lon="5.31101">
        <ele>275.60000610352</ele>
        <time>2019-11-30T15:32:25.000Z</time>
      </trkpt>
      <trkpt lat="43.65161" lon="5.31098">
        <ele>275.60000610352</ele>
        <time>2019-11-30T15:32:26.000Z</time>
      </trkpt>
      <trkpt lat="43.65155" lon="5.31095">
        <ele>275.79998779297</ele>
        <time>2019-11-30T15:32:27.000Z</time>
      </trkpt>
      <trkpt lat="43.6515" lon="5.31092">
        <ele>275.79998779297</ele>
        <time>2019-11-30T15:32:28.000Z</time>
      </trkpt>
      <trkpt lat="43.65145" lon="5.31088">
        <ele>276</ele>
        <time>2019-11-30T15:32:29.000Z</time>
      </trkpt>
      <trkpt lat="43.65139" lon="5.31084">
        <ele>276</ele>
        <time>2019-11-30T15:32:30.000Z</time>
      </trkpt>
      <trkpt lat="43.65134" lon="5.3108">
        <ele>276</ele>
        <time>2019-11-30T15:32:31.000Z</time>
      </trkpt>
      <trkpt lat="43.65129" lon="5.31077">
        <ele>276</ele>
        <time>2019-11-30T15:32:32.000Z</time>
      </trkpt>
      <trkpt lat="43.65124" lon="5.31073">
        <ele>276</ele>
        <time>2019-11-30T15:32:33.000Z</time>
      </trkpt>
      <trkpt lat="43.65119" lon="5.3107">
        <ele>276</ele>
        <time>2019-11-30T15:32:34.000Z</time>
      </trkpt>
      <trkpt lat="43.65114" lon="5.31067">
        <ele>276.20001220703</ele>
        <time>2019-11-30T15:32:35.000Z</time>
      </trkpt>
      <trkpt lat="43.65109" lon="5.31063">
        <ele>276.20001220703</ele>
        <time>2019-11-30T15:32:36.000Z</time>
      </trkpt>
      <trkpt lat="43.65104" lon="5.3106">
        <ele>276.20001220703</ele>
        <time>2019-11-30T15:32:37.000Z</time>
      </trkpt>
      <trkpt lat="43.65099" lon="5.31057">
        <ele>276</ele>
        <time>2019-11-30T15:32:38.000Z</time>
      </trkpt>
      <trkpt lat="43.65095" lon="5.31055">
        <ele>276</ele>
        <time>2019-11-30T15:32:39.000Z</time>
      </trkpt>
      <trkpt lat="43.65091" lon="5.31053">
        <ele>275.79998779297</ele>
        <time>2019-11-30T15:32:40.000Z</time>
      </trkpt>
      <trkpt lat="43.65086" lon="5.31052">
        <ele>275.60000610352</ele>
        <time>2019-11-30T15:32:41.000Z</time>
      </trkpt>
      <trkpt lat="43.65081" lon="5.31051">
        <ele>275.60000610352</ele>
        <time>2019-11-30T15:32:42.000Z</time>
      </trkpt>
      <trkpt lat="43.65076" lon="5.3105">
        <ele>275.39999389648</ele>
        <time>2019-11-30T15:32:43.000Z</time>
      </trkpt>
      <trkpt lat="43.6507" lon="5.31049">
        <ele>275.20001220703</ele>
        <time>2019-11-30T15:32:44.000Z</time>
      </trkpt>
      <trkpt lat="43.65064" lon="5.31047">
        <ele>275</ele>
        <time>2019-11-30T15:32:45.000Z</time>
      </trkpt>
      <trkpt lat="43.65057" lon="5.31046">
        <ele>274.79998779297</ele>
        <time>2019-11-30T15:32:46.000Z</time>
      </trkpt>
      <trkpt lat="43.65052" lon="5.31043">
        <ele>274.60000610352</ele>
        <time>2019-11-30T15:32:47.000Z</time>
      </trkpt>
      <trkpt lat="43.65046" lon="5.31041">
        <ele>274.60000610352</ele>
        <time>2019-11-30T15:32:48.000Z</time>
      </trkpt>
      <trkpt lat="43.65041" lon="5.31038">
        <ele>274.39999389648</ele>
        <time>2019-11-30T15:32:49.000Z</time>
      </trkpt>
      <trkpt lat="43.65036" lon="5.31036">
        <ele>274.20001220703</ele>
        <time>2019-11-30T15:32:50.000Z</time>
      </trkpt>
      <trkpt lat="43.6503" lon="5.31034">
        <ele>274</ele>
        <time>2019-11-30T15:32:51.000Z</time>
      </trkpt>
      <trkpt lat="43.65025" lon="5.31032">
        <ele>273.79998779297</ele>
        <time>2019-11-30T15:32:52.000Z</time>
      </trkpt>
      <trkpt lat="43.65019" lon="5.3103">
        <ele>273.60000610352</ele>
        <time>2019-11-30T15:32:53.000Z</time>
      </trkpt>
      <trkpt lat="43.65015" lon="5.31029">
        <ele>273.60000610352</ele>
        <time>2019-11-30T15:32:54.000Z</time>
      </trkpt>
      <trkpt lat="43.6501" lon="5.31027">
        <ele>273.60000610352</ele>
        <time>2019-11-30T15:32:55.000Z</time>
      </trkpt>
      <trkpt lat="43.65005" lon="5.31026">
        <ele>273.39999389648</ele>
        <time>2019-11-30T15:32:56.000Z</time>
      </trkpt>
      <trkpt lat="43.64999" lon="5.31024">
        <ele>273.39999389648</ele>
        <time>2019-11-30T15:32:57.000Z</time>
      </trkpt>
      <trkpt lat="43.64995" lon="5.31021">
        <ele>273.39999389648</ele>
        <time>2019-11-30T15:32:58.000Z</time>
      </trkpt>
      <trkpt lat="43.6499" lon="5.31018">
        <ele>273.39999389648</ele>
        <time>2019-11-30T15:32:59.000Z</time>
      </trkpt>
      <trkpt lat="43.64986" lon="5.31016">
        <ele>273.20001220703</ele>
        <time>2019-11-30T15:33:00.000Z</time>
      </trkpt>
      <trkpt lat="43.64981" lon="5.31015">
        <ele>273</ele>
        <time>2019-11-30T15:33:01.000Z</time>
      </trkpt>
      <trkpt lat="43.64976" lon="5.31014">
        <ele>273</ele>
        <time>2019-11-30T15:33:02.000Z</time>
      </trkpt>
      <trkpt lat="43.64971" lon="5.31013">
        <ele>272.79998779297</ele>
        <time>2019-11-30T15:33:03.000Z</time>
      </trkpt>
      <trkpt lat="43.64966" lon="5.31012">
        <ele>272.79998779297</ele>
        <time>2019-11-30T15:33:04.000Z</time>
      </trkpt>
      <trkpt lat="43.64961" lon="5.31011">
        <ele>272.60000610352</ele>
        <time>2019-11-30T15:33:05.000Z</time>
      </trkpt>
      <trkpt lat="43.64956" lon="5.31009">
        <ele>272.39999389648</ele>
        <time>2019-11-30T15:33:06.000Z</time>
      </trkpt>
      <trkpt lat="43.64952" lon="5.31008">
        <ele>272.39999389648</ele>
        <time>2019-11-30T15:33:07.000Z</time>
      </trkpt>
      <trkpt lat="43.64947" lon="5.31007">
        <ele>272.20001220703</ele>
        <time>2019-11-30T15:33:08.000Z</time>
      </trkpt>
      <trkpt lat="43.64942" lon="5.31005">
        <ele>272.20001220703</ele>
        <time>2019-11-30T15:33:09.000Z</time>
      </trkpt>
      <trkpt lat="43.64937" lon="5.31005">
        <ele>272</ele>
        <time>2019-11-30T15:33:10.000Z</time>
      </trkpt>
      <trkpt lat="43.64932" lon="5.31004">
        <ele>271.60000610352</ele>
        <time>2019-11-30T15:33:11.000Z</time>
      </trkpt>
      <trkpt lat="43.64926" lon="5.31003">
        <ele>271.20001220703</ele>
        <time>2019-11-30T15:33:12.000Z</time>
      </trkpt>
      <trkpt lat="43.6492" lon="5.31002">
        <ele>270.79998779297</ele>
        <time>2019-11-30T15:33:13.000Z</time>
      </trkpt>
      <trkpt lat="43.64916" lon="5.31001">
        <ele>270.60000610352</ele>
        <time>2019-11-30T15:33:14.000Z</time>
      </trkpt>
      <trkpt lat="43.64911" lon="5.30998">
        <ele>270.20001220703</ele>
        <time>2019-11-30T15:33:15.000Z</time>
      </trkpt>
      <trkpt lat="43.64907" lon="5.30995">
        <ele>270</ele>
        <time>2019-11-30T15:33:16.000Z</time>
      </trkpt>
      <trkpt lat="43.64903" lon="5.30992">
        <ele>269.60000610352</ele>
        <time>2019-11-30T15:33:17.000Z</time>
      </trkpt>
      <trkpt lat="43.64899" lon="5.3099">
        <ele>269.39999389648</ele>
        <time>2019-11-30T15:33:18.000Z</time>
      </trkpt>
      <trkpt lat="43.64896" lon="5.3099">
        <ele>269.20001220703</ele>
        <time>2019-11-30T15:33:19.000Z</time>
      </trkpt>
      <trkpt lat="43.64892" lon="5.30991">
        <ele>268.79998779297</ele>
        <time>2019-11-30T15:33:20.000Z</time>
      </trkpt>
      <trkpt lat="43.64889" lon="5.30991">
        <ele>268.60000610352</ele>
        <time>2019-11-30T15:33:21.000Z</time>
      </trkpt>
      <trkpt lat="43.64886" lon="5.30991">
        <ele>268.39999389648</ele>
        <time>2019-11-30T15:33:22.000Z</time>
      </trkpt>
      <trkpt lat="43.64882" lon="5.3099">
        <ele>268.20001220703</ele>
        <time>2019-11-30T15:33:23.000Z</time>
      </trkpt>
      <trkpt lat="43.64879" lon="5.30989">
        <ele>267.79998779297</ele>
        <time>2019-11-30T15:33:24.000Z</time>
      </trkpt>
      <trkpt lat="43.64875" lon="5.30988">
        <ele>267.60000610352</ele>
        <time>2019-11-30T15:33:25.000Z</time>
      </trkpt>
      <trkpt lat="43.64871" lon="5.30987">
        <ele>267.39999389648</ele>
        <time>2019-11-30T15:33:26.000Z</time>
      </trkpt>
      <trkpt lat="43.64867" lon="5.30986">
        <ele>267.20001220703</ele>
        <time>2019-11-30T15:33:27.000Z</time>
      </trkpt>
      <trkpt lat="43.64863" lon="5.30985">
        <ele>267</ele>
        <time>2019-11-30T15:33:28.000Z</time>
      </trkpt>
      <trkpt lat="43.64858" lon="5.30984">
        <ele>266.79998779297</ele>
        <time>2019-11-30T15:33:29.000Z</time>
      </trkpt>
      <trkpt lat="43.64853" lon="5.30983">
        <ele>266.39999389648</ele>
        <time>2019-11-30T15:33:30.000Z</time>
      </trkpt>
      <trkpt lat="43.64848" lon="5.30982">
        <ele>266</ele>
        <time>2019-11-30T15:33:31.000Z</time>
      </trkpt>
      <trkpt lat="43.64842" lon="5.3098">
        <ele>265.60000610352</ele>
        <time>2019-11-30T15:33:32.000Z</time>
      </trkpt>
      <trkpt lat="43.64836" lon="5.30979">
        <ele>265.20001220703</ele>
        <time>2019-11-30T15:33:33.000Z</time>
      </trkpt>
      <trkpt lat="43.6483" lon="5.30979">
        <ele>264.79998779297</ele>
        <time>2019-11-30T15:33:34.000Z</time>
      </trkpt>
      <trkpt lat="43.64824" lon="5.30978">
        <ele>264.20001220703</ele>
        <time>2019-11-30T15:33:35.000Z</time>
      </trkpt>
      <trkpt lat="43.64818" lon="5.30977">
        <ele>263.79998779297</ele>
        <time>2019-11-30T15:33:36.000Z</time>
      </trkpt>
      <trkpt lat="43.64812" lon="5.30976">
        <ele>263.39999389648</ele>
        <time>2019-11-30T15:33:37.000Z</time>
      </trkpt>
      <trkpt lat="43.64807" lon="5.30974">
        <ele>263</ele>
        <time>2019-11-30T15:33:38.000Z</time>
      </trkpt>
      <trkpt lat="43.64801" lon="5.30972">
        <ele>262.39999389648</ele>
        <time>2019-11-30T15:33:39.000Z</time>
      </trkpt>
      <trkpt lat="43.64796" lon="5.30969">
        <ele>262</ele>
        <time>2019-11-30T15:33:40.000Z</time>
      </trkpt>
      <trkpt lat="43.6479" lon="5.30966">
        <ele>261.60000610352</ele>
        <time>2019-11-30T15:33:41.000Z</time>
      </trkpt>
      <trkpt lat="43.64785" lon="5.30964">
        <ele>261.20001220703</ele>
        <time>2019-11-30T15:33:42.000Z</time>
      </trkpt>
      <trkpt lat="43.64775" lon="5.30964">
        <ele>260.39999389648</ele>
        <time>2019-11-30T15:33:43.000Z</time>
      </trkpt>
      <trkpt lat="43.64775" lon="5.30964">
        <ele>260.39999389648</ele>
        <time>2019-11-30T15:33:44.000Z</time>
      </trkpt>
      <trkpt lat="43.64769" lon="5.30963">
        <ele>260</ele>
        <time>2019-11-30T15:33:45.000Z</time>
      </trkpt>
      <trkpt lat="43.64763" lon="5.30961">
        <ele>259.79998779297</ele>
        <time>2019-11-30T15:33:46.000Z</time>
      </trkpt>
      <trkpt lat="43.64756" lon="5.3096">
        <ele>259.39999389648</ele>
        <time>2019-11-30T15:33:47.000Z</time>
      </trkpt>
      <trkpt lat="43.6475" lon="5.30959">
        <ele>259.20001220703</ele>
        <time>2019-11-30T15:33:48.000Z</time>
      </trkpt>
      <trkpt lat="43.64746" lon="5.30952">
        <ele>259</ele>
        <time>2019-11-30T15:33:49.000Z</time>
      </trkpt>
      <trkpt lat="43.64742" lon="5.30945">
        <ele>258.79998779297</ele>
        <time>2019-11-30T15:33:50.000Z</time>
      </trkpt>
      <trkpt lat="43.64737" lon="5.30938">
        <ele>258.60000610352</ele>
        <time>2019-11-30T15:33:51.000Z</time>
      </trkpt>
      <trkpt lat="43.64733" lon="5.30931">
        <ele>258.39999389648</ele>
        <time>2019-11-30T15:33:52.000Z</time>
      </trkpt>
      <trkpt lat="43.64726" lon="5.30927">
        <ele>258</ele>
        <time>2019-11-30T15:33:53.000Z</time>
      </trkpt>
      <trkpt lat="43.6472" lon="5.30926">
        <ele>257.79998779297</ele>
        <time>2019-11-30T15:33:54.000Z</time>
      </trkpt>
      <trkpt lat="43.64713" lon="5.30925">
        <ele>257.60000610352</ele>
        <time>2019-11-30T15:33:55.000Z</time>
      </trkpt>
      <trkpt lat="43.64706" lon="5.30925">
        <ele>257.20001220703</ele>
        <time>2019-11-30T15:33:56.000Z</time>
      </trkpt>
      <trkpt lat="43.64699" lon="5.30925">
        <ele>257</ele>
        <time>2019-11-30T15:33:57.000Z</time>
      </trkpt>
      <trkpt lat="43.64692" lon="5.30924">
        <ele>256.79998779297</ele>
        <time>2019-11-30T15:33:58.000Z</time>
      </trkpt>
      <trkpt lat="43.64685" lon="5.30924">
        <ele>256.60000610352</ele>
        <time>2019-11-30T15:33:59.000Z</time>
      </trkpt>
      <trkpt lat="43.64679" lon="5.30924">
        <ele>256.20001220703</ele>
        <time>2019-11-30T15:34:00.000Z</time>
      </trkpt>
      <trkpt lat="43.64672" lon="5.30924">
        <ele>256</ele>
        <time>2019-11-30T15:34:01.000Z</time>
      </trkpt>
      <trkpt lat="43.6467" lon="5.30923">
        <ele>256</ele>
        <time>2019-11-30T15:34:02.000Z</time>
      </trkpt>
      <trkpt lat="43.64668" lon="5.30927">
        <ele>256</ele>
        <time>2019-11-30T15:34:03.000Z</time>
      </trkpt>
      <trkpt lat="43.64665" lon="5.30934">
        <ele>255.80000305176</ele>
        <time>2019-11-30T15:34:04.000Z</time>
      </trkpt>
      <trkpt lat="43.64661" lon="5.30941">
        <ele>256</ele>
        <time>2019-11-30T15:34:05.000Z</time>
      </trkpt>
      <trkpt lat="43.64659" lon="5.30947">
        <ele>256.39999389648</ele>
        <time>2019-11-30T15:34:06.000Z</time>
      </trkpt>
      <trkpt lat="43.64656" lon="5.30952">
        <ele>256.60000610352</ele>
        <time>2019-11-30T15:34:07.000Z</time>
      </trkpt>
      <trkpt lat="43.64654" lon="5.30957">
        <ele>257</ele>
        <time>2019-11-30T15:34:08.000Z</time>
      </trkpt>
      <trkpt lat="43.64647" lon="5.30957">
        <ele>257</ele>
        <time>2019-11-30T15:34:09.000Z</time>
      </trkpt>
      <trkpt lat="43.64646" lon="5.30957">
        <ele>257.20001220703</ele>
        <time>2019-11-30T15:34:10.000Z</time>
      </trkpt>
      <trkpt lat="43.64644" lon="5.30957">
        <ele>257.20001220703</ele>
        <time>2019-11-30T15:34:11.000Z</time>
      </trkpt>
      <trkpt lat="43.64643" lon="5.30957">
        <ele>257.20001220703</ele>
        <time>2019-11-30T15:34:12.000Z</time>
      </trkpt>
      <trkpt lat="43.64641" lon="5.30957">
        <ele>257.20001220703</ele>
        <time>2019-11-30T15:34:13.000Z</time>
      </trkpt>
      <trkpt lat="43.6464" lon="5.30957">
        <ele>257.20001220703</ele>
        <time>2019-11-30T15:34:14.000Z</time>
      </trkpt>
      <trkpt lat="43.64638" lon="5.30957">
        <ele>257.20001220703</ele>
        <time>2019-11-30T15:34:15.000Z</time>
      </trkpt>
      <trkpt lat="43.64637" lon="5.30957">
        <ele>257.20001220703</ele>
        <time>2019-11-30T15:34:16.000Z</time>
      </trkpt>
      <trkpt lat="43.64634" lon="5.30957">
        <ele>257.20001220703</ele>
        <time>2019-11-30T15:34:17.000Z</time>
      </trkpt>
      <trkpt lat="43.64632" lon="5.30956">
        <ele>257.20001220703</ele>
        <time>2019-11-30T15:34:18.000Z</time>
      </trkpt>
      <trkpt lat="43.6463" lon="5.30956">
        <ele>257.20001220703</ele>
        <time>2019-11-30T15:34:19.000Z</time>
      </trkpt>
      <trkpt lat="43.64627" lon="5.30956">
        <ele>257.20001220703</ele>
        <time>2019-11-30T15:34:20.000Z</time>
      </trkpt>
      <trkpt lat="43.64624" lon="5.30956">
        <ele>257.20001220703</ele>
        <time>2019-11-30T15:34:21.000Z</time>
      </trkpt>
      <trkpt lat="43.64621" lon="5.30956">
        <ele>257.39999389648</ele>
        <time>2019-11-30T15:34:22.000Z</time>
      </trkpt>
      <trkpt lat="43.64618" lon="5.30956">
        <ele>257.39999389648</ele>
        <time>2019-11-30T15:34:23.000Z</time>
      </trkpt>
      <trkpt lat="43.64615" lon="5.30955">
        <ele>257.39999389648</ele>
        <time>2019-11-30T15:34:24.000Z</time>
      </trkpt>
      <trkpt lat="43.64611" lon="5.30955">
        <ele>257.39999389648</ele>
        <time>2019-11-30T15:34:25.000Z</time>
      </trkpt>
      <trkpt lat="43.64607" lon="5.30955">
        <ele>257.39999389648</ele>
        <time>2019-11-30T15:34:26.000Z</time>
      </trkpt>
      <trkpt lat="43.64603" lon="5.30955">
        <ele>257.39999389648</ele>
        <time>2019-11-30T15:34:27.000Z</time>
      </trkpt>
      <trkpt lat="43.64599" lon="5.30954">
        <ele>257.39999389648</ele>
        <time>2019-11-30T15:34:28.000Z</time>
      </trkpt>
      <trkpt lat="43.64594" lon="5.30954">
        <ele>257.20001220703</ele>
        <time>2019-11-30T15:34:29.000Z</time>
      </trkpt>
      <trkpt lat="43.6459" lon="5.30954">
        <ele>256.79998779297</ele>
        <time>2019-11-30T15:34:30.000Z</time>
      </trkpt>
      <trkpt lat="43.64587" lon="5.30954">
        <ele>256.60000610352</ele>
        <time>2019-11-30T15:34:31.000Z</time>
      </trkpt>
      <trkpt lat="43.64583" lon="5.30953">
        <ele>256.39999389648</ele>
        <time>2019-11-30T15:34:32.000Z</time>
      </trkpt>
      <trkpt lat="43.64578" lon="5.30953">
        <ele>256</ele>
        <time>2019-11-30T15:34:33.000Z</time>
      </trkpt>
      <trkpt lat="43.64574" lon="5.30953">
        <ele>255.60000610352</ele>
        <time>2019-11-30T15:34:34.000Z</time>
      </trkpt>
      <trkpt lat="43.6457" lon="5.30953">
        <ele>255.39999389648</ele>
        <time>2019-11-30T15:34:35.000Z</time>
      </trkpt>
      <trkpt lat="43.64566" lon="5.30952">
        <ele>255</ele>
        <time>2019-11-30T15:34:36.000Z</time>
      </trkpt>
      <trkpt lat="43.64561" lon="5.30952">
        <ele>254.80000305176</ele>
        <time>2019-11-30T15:34:37.000Z</time>
      </trkpt>
      <trkpt lat="43.64557" lon="5.30952">
        <ele>254.39999389648</ele>
        <time>2019-11-30T15:34:38.000Z</time>
      </trkpt>
      <trkpt lat="43.64552" lon="5.30951">
        <ele>254</ele>
        <time>2019-11-30T15:34:39.000Z</time>
      </trkpt>
      <trkpt lat="43.64547" lon="5.30951">
        <ele>253.80000305176</ele>
        <time>2019-11-30T15:34:40.000Z</time>
      </trkpt>
      <trkpt lat="43.64543" lon="5.30951">
        <ele>253.39999389648</ele>
        <time>2019-11-30T15:34:41.000Z</time>
      </trkpt>
      <trkpt lat="43.64538" lon="5.30951">
        <ele>253</ele>
        <time>2019-11-30T15:34:42.000Z</time>
      </trkpt>
      <trkpt lat="43.64533" lon="5.3095">
        <ele>252.60000610352</ele>
        <time>2019-11-30T15:34:43.000Z</time>
      </trkpt>
      <trkpt lat="43.64528" lon="5.3095">
        <ele>252.39999389648</ele>
        <time>2019-11-30T15:34:44.000Z</time>
      </trkpt>
      <trkpt lat="43.64523" lon="5.3095">
        <ele>252</ele>
        <time>2019-11-30T15:34:45.000Z</time>
      </trkpt>
      <trkpt lat="43.64518" lon="5.30949">
        <ele>251.80000305176</ele>
        <time>2019-11-30T15:34:46.000Z</time>
      </trkpt>
      <trkpt lat="43.64512" lon="5.30949">
        <ele>252</ele>
        <time>2019-11-30T15:34:47.000Z</time>
      </trkpt>
      <trkpt lat="43.64507" lon="5.30949">
        <ele>252.19999694824</ele>
        <time>2019-11-30T15:34:48.000Z</time>
      </trkpt>
      <trkpt lat="43.64502" lon="5.30948">
        <ele>252.39999389648</ele>
        <time>2019-11-30T15:34:49.000Z</time>
      </trkpt>
      <trkpt lat="43.64497" lon="5.30948">
        <ele>252.60000610352</ele>
        <time>2019-11-30T15:34:50.000Z</time>
      </trkpt>
      <trkpt lat="43.64492" lon="5.30948">
        <ele>252.80000305176</ele>
        <time>2019-11-30T15:34:51.000Z</time>
      </trkpt>
      <trkpt lat="43.64487" lon="5.30947">
        <ele>253</ele>
        <time>2019-11-30T15:34:52.000Z</time>
      </trkpt>
      <trkpt lat="43.64482" lon="5.30947">
        <ele>253.19999694824</ele>
        <time>2019-11-30T15:34:53.000Z</time>
      </trkpt>
      <trkpt lat="43.64477" lon="5.30947">
        <ele>253.39999389648</ele>
        <time>2019-11-30T15:34:54.000Z</time>
      </trkpt>
      <trkpt lat="43.64472" lon="5.30946">
        <ele>253.39999389648</ele>
        <time>2019-11-30T15:34:55.000Z</time>
      </trkpt>
      <trkpt lat="43.64467" lon="5.30946">
        <ele>253.60000610352</ele>
        <time>2019-11-30T15:34:56.000Z</time>
      </trkpt>
      <trkpt lat="43.64462" lon="5.30946">
        <ele>253.80000305176</ele>
        <time>2019-11-30T15:34:57.000Z</time>
      </trkpt>
      <trkpt lat="43.64457" lon="5.30945">
        <ele>254</ele>
        <time>2019-11-30T15:34:58.000Z</time>
      </trkpt>
      <trkpt lat="43.64452" lon="5.30945">
        <ele>254.19999694824</ele>
        <time>2019-11-30T15:34:59.000Z</time>
      </trkpt>
      <trkpt lat="43.64447" lon="5.30945">
        <ele>254.39999389648</ele>
        <time>2019-11-30T15:35:00.000Z</time>
      </trkpt>
      <trkpt lat="43.64442" lon="5.30944">
        <ele>254.60000610352</ele>
        <time>2019-11-30T15:35:01.000Z</time>
      </trkpt>
      <trkpt lat="43.64438" lon="5.30944">
        <ele>254.60000610352</ele>
        <time>2019-11-30T15:35:02.000Z</time>
      </trkpt>
      <trkpt lat="43.64433" lon="5.30944">
        <ele>255</ele>
        <time>2019-11-30T15:35:03.000Z</time>
      </trkpt>
      <trkpt lat="43.64428" lon="5.30943">
        <ele>255.60000610352</ele>
        <time>2019-11-30T15:35:04.000Z</time>
      </trkpt>
      <trkpt lat="43.64423" lon="5.30943">
        <ele>256</ele>
        <time>2019-11-30T15:35:05.000Z</time>
      </trkpt>
      <trkpt lat="43.64419" lon="5.30943">
        <ele>256.60000610352</ele>
        <time>2019-11-30T15:35:06.000Z</time>
      </trkpt>
      <trkpt lat="43.64414" lon="5.30942">
        <ele>257</ele>
        <time>2019-11-30T15:35:07.000Z</time>
      </trkpt>
      <trkpt lat="43.64409" lon="5.30942">
        <ele>257.39999389648</ele>
        <time>2019-11-30T15:35:08.000Z</time>
      </trkpt>
      <trkpt lat="43.64404" lon="5.30942">
        <ele>257.60000610352</ele>
        <time>2019-11-30T15:35:09.000Z</time>
      </trkpt>
      <trkpt lat="43.64399" lon="5.30941">
        <ele>258</ele>
        <time>2019-11-30T15:35:10.000Z</time>
      </trkpt>
      <trkpt lat="43.64393" lon="5.30941">
        <ele>258.39999389648</ele>
        <time>2019-11-30T15:35:11.000Z</time>
      </trkpt>
      <trkpt lat="43.64388" lon="5.30941">
        <ele>258.60000610352</ele>
        <time>2019-11-30T15:35:12.000Z</time>
      </trkpt>
      <trkpt lat="43.64383" lon="5.3094">
        <ele>259</ele>
        <time>2019-11-30T15:35:13.000Z</time>
      </trkpt>
      <trkpt lat="43.64378" lon="5.3094">
        <ele>259.39999389648</ele>
        <time>2019-11-30T15:35:14.000Z</time>
      </trkpt>
      <trkpt lat="43.64373" lon="5.3094">
        <ele>259.60000610352</ele>
        <time>2019-11-30T15:35:15.000Z</time>
      </trkpt>
      <trkpt lat="43.64368" lon="5.30939">
        <ele>260</ele>
        <time>2019-11-30T15:35:16.000Z</time>
      </trkpt>
      <trkpt lat="43.64363" lon="5.30939">
        <ele>260.20001220703</ele>
        <time>2019-11-30T15:35:17.000Z</time>
      </trkpt>
      <trkpt lat="43.64358" lon="5.30939">
        <ele>260.60000610352</ele>
        <time>2019-11-30T15:35:18.000Z</time>
      </trkpt>
      <trkpt lat="43.64353" lon="5.30938">
        <ele>260.79998779297</ele>
        <time>2019-11-30T15:35:19.000Z</time>
      </trkpt>
      <trkpt lat="43.64349" lon="5.30938">
        <ele>261.39999389648</ele>
        <time>2019-11-30T15:35:20.000Z</time>
      </trkpt>
      <trkpt lat="43.64344" lon="5.30938">
        <ele>262</ele>
        <time>2019-11-30T15:35:21.000Z</time>
      </trkpt>
      <trkpt lat="43.6434" lon="5.30938">
        <ele>262.39999389648</ele>
        <time>2019-11-30T15:35:22.000Z</time>
      </trkpt>
      <trkpt lat="43.64335" lon="5.3094">
        <ele>263</ele>
        <time>2019-11-30T15:35:23.000Z</time>
      </trkpt>
      <trkpt lat="43.64331" lon="5.30942">
        <ele>263.39999389648</ele>
        <time>2019-11-30T15:35:24.000Z</time>
      </trkpt>
      <trkpt lat="43.64327" lon="5.30944">
        <ele>263.39999389648</ele>
        <time>2019-11-30T15:35:25.000Z</time>
      </trkpt>
      <trkpt lat="43.64322" lon="5.30946">
        <ele>263.60000610352</ele>
        <time>2019-11-30T15:35:26.000Z</time>
      </trkpt>
      <trkpt lat="43.64318" lon="5.30948">
        <ele>263.79998779297</ele>
        <time>2019-11-30T15:35:27.000Z</time>
      </trkpt>
      <trkpt lat="43.64313" lon="5.30951">
        <ele>263.79998779297</ele>
        <time>2019-11-30T15:35:28.000Z</time>
      </trkpt>
      <trkpt lat="43.64309" lon="5.30953">
        <ele>264</ele>
        <time>2019-11-30T15:35:29.000Z</time>
      </trkpt>
      <trkpt lat="43.64305" lon="5.30955">
        <ele>264.20001220703</ele>
        <time>2019-11-30T15:35:30.000Z</time>
      </trkpt>
      <trkpt lat="43.64301" lon="5.30957">
        <ele>264.20001220703</ele>
        <time>2019-11-30T15:35:31.000Z</time>
      </trkpt>
      <trkpt lat="43.64297" lon="5.30959">
        <ele>264.39999389648</ele>
        <time>2019-11-30T15:35:32.000Z</time>
      </trkpt>
      <trkpt lat="43.64292" lon="5.30961">
        <ele>264.60000610352</ele>
        <time>2019-11-30T15:35:33.000Z</time>
      </trkpt>
      <trkpt lat="43.64288" lon="5.30963">
        <ele>264.60000610352</ele>
        <time>2019-11-30T15:35:34.000Z</time>
      </trkpt>
      <trkpt lat="43.64284" lon="5.30965">
        <ele>264.79998779297</ele>
        <time>2019-11-30T15:35:35.000Z</time>
      </trkpt>
      <trkpt lat="43.6428" lon="5.30967">
        <ele>265.20001220703</ele>
        <time>2019-11-30T15:35:36.000Z</time>
      </trkpt>
      <trkpt lat="43.64276" lon="5.30969">
        <ele>265.39999389648</ele>
        <time>2019-11-30T15:35:37.000Z</time>
      </trkpt>
      <trkpt lat="43.64272" lon="5.30971">
        <ele>265.60000610352</ele>
        <time>2019-11-30T15:35:38.000Z</time>
      </trkpt>
      <trkpt lat="43.64268" lon="5.30973">
        <ele>265.60000610352</ele>
        <time>2019-11-30T15:35:39.000Z</time>
      </trkpt>
      <trkpt lat="43.64263" lon="5.30975">
        <ele>266</ele>
        <time>2019-11-30T15:35:40.000Z</time>
      </trkpt>
      <trkpt lat="43.64259" lon="5.30977">
        <ele>266.20001220703</ele>
        <time>2019-11-30T15:35:41.000Z</time>
      </trkpt>
      <trkpt lat="43.64255" lon="5.30979">
        <ele>266.39999389648</ele>
        <time>2019-11-30T15:35:42.000Z</time>
      </trkpt>
      <trkpt lat="43.64251" lon="5.30981">
        <ele>266.60000610352</ele>
        <time>2019-11-30T15:35:43.000Z</time>
      </trkpt>
      <trkpt lat="43.64247" lon="5.30983">
        <ele>267</ele>
        <time>2019-11-30T15:35:44.000Z</time>
      </trkpt>
      <trkpt lat="43.64243" lon="5.30985">
        <ele>267.20001220703</ele>
        <time>2019-11-30T15:35:45.000Z</time>
      </trkpt>
      <trkpt lat="43.64238" lon="5.30988">
        <ele>267.39999389648</ele>
        <time>2019-11-30T15:35:46.000Z</time>
      </trkpt>
      <trkpt lat="43.64234" lon="5.3099">
        <ele>267.60000610352</ele>
        <time>2019-11-30T15:35:47.000Z</time>
      </trkpt>
      <trkpt lat="43.6423" lon="5.30991">
        <ele>268</ele>
        <time>2019-11-30T15:35:48.000Z</time>
      </trkpt>
      <trkpt lat="43.64227" lon="5.30993">
        <ele>268.20001220703</ele>
        <time>2019-11-30T15:35:49.000Z</time>
      </trkpt>
      <trkpt lat="43.64223" lon="5.30995">
        <ele>268.39999389648</ele>
        <time>2019-11-30T15:35:50.000Z</time>
      </trkpt>
      <trkpt lat="43.64218" lon="5.30997">
        <ele>268.60000610352</ele>
        <time>2019-11-30T15:35:51.000Z</time>
      </trkpt>
      <trkpt lat="43.64214" lon="5.30999">
        <ele>268.60000610352</ele>
        <time>2019-11-30T15:35:52.000Z</time>
      </trkpt>
      <trkpt lat="43.6421" lon="5.31002">
        <ele>268.60000610352</ele>
        <time>2019-11-30T15:35:53.000Z</time>
      </trkpt>
      <trkpt lat="43.64205" lon="5.31004">
        <ele>268.60000610352</ele>
        <time>2019-11-30T15:35:54.000Z</time>
      </trkpt>
      <trkpt lat="43.64201" lon="5.31006">
        <ele>268.79998779297</ele>
        <time>2019-11-30T15:35:55.000Z</time>
      </trkpt>
      <trkpt lat="43.64196" lon="5.31008">
        <ele>268.79998779297</ele>
        <time>2019-11-30T15:35:56.000Z</time>
      </trkpt>
      <trkpt lat="43.64192" lon="5.3101">
        <ele>268.79998779297</ele>
        <time>2019-11-30T15:35:57.000Z</time>
      </trkpt>
      <trkpt lat="43.64188" lon="5.31012">
        <ele>268.79998779297</ele>
        <time>2019-11-30T15:35:58.000Z</time>
      </trkpt>
      <trkpt lat="43.64183" lon="5.31013">
        <ele>269</ele>
        <time>2019-11-30T15:35:59.000Z</time>
      </trkpt>
      <trkpt lat="43.64179" lon="5.31013">
        <ele>269.39999389648</ele>
        <time>2019-11-30T15:36:00.000Z</time>
      </trkpt>
      <trkpt lat="43.64174" lon="5.31012">
        <ele>269.79998779297</ele>
        <time>2019-11-30T15:36:01.000Z</time>
      </trkpt>
      <trkpt lat="43.64169" lon="5.31011">
        <ele>270.20001220703</ele>
        <time>2019-11-30T15:36:02.000Z</time>
      </trkpt>
      <trkpt lat="43.64165" lon="5.31011">
        <ele>270.60000610352</ele>
        <time>2019-11-30T15:36:03.000Z</time>
      </trkpt>
      <trkpt lat="43.64161" lon="5.3101">
        <ele>270.79998779297</ele>
        <time>2019-11-30T15:36:04.000Z</time>
      </trkpt>
      <trkpt lat="43.64157" lon="5.3101">
        <ele>271.20001220703</ele>
        <time>2019-11-30T15:36:05.000Z</time>
      </trkpt>
      <trkpt lat="43.64153" lon="5.31009">
        <ele>271.60000610352</ele>
        <time>2019-11-30T15:36:06.000Z</time>
      </trkpt>
      <trkpt lat="43.64148" lon="5.31009">
        <ele>272</ele>
        <time>2019-11-30T15:36:07.000Z</time>
      </trkpt>
      <trkpt lat="43.64143" lon="5.31008">
        <ele>272.39999389648</ele>
        <time>2019-11-30T15:36:08.000Z</time>
      </trkpt>
      <trkpt lat="43.64138" lon="5.31007">
        <ele>272.79998779297</ele>
        <time>2019-11-30T15:36:09.000Z</time>
      </trkpt>
      <trkpt lat="43.64134" lon="5.31007">
        <ele>273.20001220703</ele>
        <time>2019-11-30T15:36:10.000Z</time>
      </trkpt>
      <trkpt lat="43.64129" lon="5.31006">
        <ele>273.39999389648</ele>
        <time>2019-11-30T15:36:11.000Z</time>
      </trkpt>
      <trkpt lat="43.64125" lon="5.31006">
        <ele>273.79998779297</ele>
        <time>2019-11-30T15:36:12.000Z</time>
      </trkpt>
      <trkpt lat="43.6412" lon="5.31005">
        <ele>274.20001220703</ele>
        <time>2019-11-30T15:36:13.000Z</time>
      </trkpt>
      <trkpt lat="43.64116" lon="5.31004">
        <ele>274.60000610352</ele>
        <time>2019-11-30T15:36:14.000Z</time>
      </trkpt>
      <trkpt lat="43.64112" lon="5.31004">
        <ele>275</ele>
        <time>2019-11-30T15:36:15.000Z</time>
      </trkpt>
      <trkpt lat="43.64107" lon="5.31003">
        <ele>275.39999389648</ele>
        <time>2019-11-30T15:36:16.000Z</time>
      </trkpt>
      <trkpt lat="43.64102" lon="5.31003">
        <ele>275.79998779297</ele>
        <time>2019-11-30T15:36:17.000Z</time>
      </trkpt>
      <trkpt lat="43.64097" lon="5.31002">
        <ele>276</ele>
        <time>2019-11-30T15:36:18.000Z</time>
      </trkpt>
      <trkpt lat="43.64093" lon="5.31001">
        <ele>276.39999389648</ele>
        <time>2019-11-30T15:36:19.000Z</time>
      </trkpt>
      <trkpt lat="43.64088" lon="5.31001">
        <ele>276.79998779297</ele>
        <time>2019-11-30T15:36:20.000Z</time>
      </trkpt>
      <trkpt lat="43.64083" lon="5.31">
        <ele>277</ele>
        <time>2019-11-30T15:36:21.000Z</time>
      </trkpt>
      <trkpt lat="43.64079" lon="5.31">
        <ele>277.39999389648</ele>
        <time>2019-11-30T15:36:22.000Z</time>
      </trkpt>
      <trkpt lat="43.64076" lon="5.30999">
        <ele>277.60000610352</ele>
        <time>2019-11-30T15:36:23.000Z</time>
      </trkpt>
      <trkpt lat="43.64072" lon="5.30999">
        <ele>277.79998779297</ele>
        <time>2019-11-30T15:36:24.000Z</time>
      </trkpt>
      <trkpt lat="43.64068" lon="5.30998">
        <ele>278.20001220703</ele>
        <time>2019-11-30T15:36:25.000Z</time>
      </trkpt>
      <trkpt lat="43.64063" lon="5.30997">
        <ele>278.60000610352</ele>
        <time>2019-11-30T15:36:26.000Z</time>
      </trkpt>
      <trkpt lat="43.64059" lon="5.30994">
        <ele>279</ele>
        <time>2019-11-30T15:36:27.000Z</time>
      </trkpt>
      <trkpt lat="43.64055" lon="5.3099">
        <ele>279.60000610352</ele>
        <time>2019-11-30T15:36:28.000Z</time>
      </trkpt>
      <trkpt lat="43.64052" lon="5.30987">
        <ele>280</ele>
        <time>2019-11-30T15:36:29.000Z</time>
      </trkpt>
      <trkpt lat="43.64047" lon="5.30983">
        <ele>280.60000610352</ele>
        <time>2019-11-30T15:36:30.000Z</time>
      </trkpt>
      <trkpt lat="43.64043" lon="5.3098">
        <ele>281.20001220703</ele>
        <time>2019-11-30T15:36:31.000Z</time>
      </trkpt>
      <trkpt lat="43.64039" lon="5.30976">
        <ele>281.79998779297</ele>
        <time>2019-11-30T15:36:32.000Z</time>
      </trkpt>
      <trkpt lat="43.64035" lon="5.30975">
        <ele>282.20001220703</ele>
        <time>2019-11-30T15:36:33.000Z</time>
      </trkpt>
      <trkpt lat="43.64031" lon="5.30974">
        <ele>282.39999389648</ele>
        <time>2019-11-30T15:36:34.000Z</time>
      </trkpt>
      <trkpt lat="43.64027" lon="5.30974">
        <ele>282.79998779297</ele>
        <time>2019-11-30T15:36:35.000Z</time>
      </trkpt>
      <trkpt lat="43.64023" lon="5.30973">
        <ele>283.39999389648</ele>
        <time>2019-11-30T15:36:36.000Z</time>
      </trkpt>
      <trkpt lat="43.64018" lon="5.30973">
        <ele>283.79998779297</ele>
        <time>2019-11-30T15:36:37.000Z</time>
      </trkpt>
      <trkpt lat="43.64014" lon="5.30972">
        <ele>284.20001220703</ele>
        <time>2019-11-30T15:36:38.000Z</time>
      </trkpt>
      <trkpt lat="43.64009" lon="5.30972">
        <ele>284.60000610352</ele>
        <time>2019-11-30T15:36:39.000Z</time>
      </trkpt>
      <trkpt lat="43.64004" lon="5.30971">
        <ele>285.20001220703</ele>
        <time>2019-11-30T15:36:40.000Z</time>
      </trkpt>
      <trkpt lat="43.64" lon="5.3097">
        <ele>285.39999389648</ele>
        <time>2019-11-30T15:36:41.000Z</time>
      </trkpt>
      <trkpt lat="43.63994" lon="5.3097">
        <ele>286</ele>
        <time>2019-11-30T15:36:42.000Z</time>
      </trkpt>
      <trkpt lat="43.63989" lon="5.30969">
        <ele>286.39999389648</ele>
        <time>2019-11-30T15:36:43.000Z</time>
      </trkpt>
      <trkpt lat="43.63984" lon="5.30969">
        <ele>286.79998779297</ele>
        <time>2019-11-30T15:36:44.000Z</time>
      </trkpt>
      <trkpt lat="43.6398" lon="5.30968">
        <ele>287.20001220703</ele>
        <time>2019-11-30T15:36:45.000Z</time>
      </trkpt>
      <trkpt lat="43.63976" lon="5.30968">
        <ele>287.60000610352</ele>
        <time>2019-11-30T15:36:46.000Z</time>
      </trkpt>
      <trkpt lat="43.63972" lon="5.30967">
        <ele>287.79998779297</ele>
        <time>2019-11-30T15:36:47.000Z</time>
      </trkpt>
      <trkpt lat="43.63965" lon="5.30966">
        <ele>288.39999389648</ele>
        <time>2019-11-30T15:36:48.000Z</time>
      </trkpt>
      <trkpt lat="43.63962" lon="5.30964">
        <ele>288.79998779297</ele>
        <time>2019-11-30T15:36:49.000Z</time>
      </trkpt>
      <trkpt lat="43.63958" lon="5.30961">
        <ele>289</ele>
        <time>2019-11-30T15:36:50.000Z</time>
      </trkpt>
      <trkpt lat="43.63955" lon="5.30957">
        <ele>289.20001220703</ele>
        <time>2019-11-30T15:36:51.000Z</time>
      </trkpt>
      <trkpt lat="43.63951" lon="5.30954">
        <ele>289.20001220703</ele>
        <time>2019-11-30T15:36:52.000Z</time>
      </trkpt>
      <trkpt lat="43.63947" lon="5.30951">
        <ele>289.39999389648</ele>
        <time>2019-11-30T15:36:53.000Z</time>
      </trkpt>
      <trkpt lat="43.63943" lon="5.30947">
        <ele>289.60000610352</ele>
        <time>2019-11-30T15:36:54.000Z</time>
      </trkpt>
      <trkpt lat="43.63939" lon="5.30944">
        <ele>289.79998779297</ele>
        <time>2019-11-30T15:36:55.000Z</time>
      </trkpt>
      <trkpt lat="43.63935" lon="5.3094">
        <ele>290</ele>
        <time>2019-11-30T15:36:56.000Z</time>
      </trkpt>
      <trkpt lat="43.63931" lon="5.30937">
        <ele>290.20001220703</ele>
        <time>2019-11-30T15:36:57.000Z</time>
      </trkpt>
      <trkpt lat="43.63927" lon="5.30934">
        <ele>290.20001220703</ele>
        <time>2019-11-30T15:36:58.000Z</time>
      </trkpt>
      <trkpt lat="43.63923" lon="5.3093">
        <ele>290.39999389648</ele>
        <time>2019-11-30T15:36:59.000Z</time>
      </trkpt>
      <trkpt lat="43.6392" lon="5.30927">
        <ele>290.60000610352</ele>
        <time>2019-11-30T15:37:00.000Z</time>
      </trkpt>
      <trkpt lat="43.63916" lon="5.30924">
        <ele>290.79998779297</ele>
        <time>2019-11-30T15:37:01.000Z</time>
      </trkpt>
      <trkpt lat="43.63913" lon="5.30921">
        <ele>290.79998779297</ele>
        <time>2019-11-30T15:37:02.000Z</time>
      </trkpt>
      <trkpt lat="43.63911" lon="5.30919">
        <ele>291</ele>
        <time>2019-11-30T15:37:03.000Z</time>
      </trkpt>
      <trkpt lat="43.63909" lon="5.30918">
        <ele>291</ele>
        <time>2019-11-30T15:37:04.000Z</time>
      </trkpt>
      <trkpt lat="43.63906" lon="5.30915">
        <ele>291.20001220703</ele>
        <time>2019-11-30T15:37:05.000Z</time>
      </trkpt>
      <trkpt lat="43.63903" lon="5.30912">
        <ele>291.20001220703</ele>
        <time>2019-11-30T15:37:06.000Z</time>
      </trkpt>
      <trkpt lat="43.63899" lon="5.30909">
        <ele>291.39999389648</ele>
        <time>2019-11-30T15:37:07.000Z</time>
      </trkpt>
      <trkpt lat="43.63895" lon="5.30905">
        <ele>291.60000610352</ele>
        <time>2019-11-30T15:37:08.000Z</time>
      </trkpt>
      <trkpt lat="43.63891" lon="5.30902">
        <ele>291.79998779297</ele>
        <time>2019-11-30T15:37:09.000Z</time>
      </trkpt>
      <trkpt lat="43.63887" lon="5.30899">
        <ele>292</ele>
        <time>2019-11-30T15:37:10.000Z</time>
      </trkpt>
      <trkpt lat="43.63884" lon="5.30896">
        <ele>292</ele>
        <time>2019-11-30T15:37:11.000Z</time>
      </trkpt>
      <trkpt lat="43.6388" lon="5.30892">
        <ele>292.20001220703</ele>
        <time>2019-11-30T15:37:12.000Z</time>
      </trkpt>
      <trkpt lat="43.63876" lon="5.30888">
        <ele>292.39999389648</ele>
        <time>2019-11-30T15:37:13.000Z</time>
      </trkpt>
      <trkpt lat="43.63871" lon="5.30884">
        <ele>292.60000610352</ele>
        <time>2019-11-30T15:37:14.000Z</time>
      </trkpt>
      <trkpt lat="43.63866" lon="5.3088">
        <ele>292.79998779297</ele>
        <time>2019-11-30T15:37:15.000Z</time>
      </trkpt>
      <trkpt lat="43.63862" lon="5.30877">
        <ele>293</ele>
        <time>2019-11-30T15:37:16.000Z</time>
      </trkpt>
      <trkpt lat="43.6386" lon="5.30873">
        <ele>293.20001220703</ele>
        <time>2019-11-30T15:37:17.000Z</time>
      </trkpt>
      <trkpt lat="43.63857" lon="5.30868">
        <ele>293.20001220703</ele>
        <time>2019-11-30T15:37:18.000Z</time>
      </trkpt>
      <trkpt lat="43.63854" lon="5.30864">
        <ele>293.39999389648</ele>
        <time>2019-11-30T15:37:19.000Z</time>
      </trkpt>
      <trkpt lat="43.6385" lon="5.30859">
        <ele>293.39999389648</ele>
        <time>2019-11-30T15:37:20.000Z</time>
      </trkpt>
      <trkpt lat="43.63847" lon="5.30854">
        <ele>293.39999389648</ele>
        <time>2019-11-30T15:37:21.000Z</time>
      </trkpt>
      <trkpt lat="43.63844" lon="5.30849">
        <ele>293.60000610352</ele>
        <time>2019-11-30T15:37:22.000Z</time>
      </trkpt>
      <trkpt lat="43.63841" lon="5.30844">
        <ele>293.60000610352</ele>
        <time>2019-11-30T15:37:23.000Z</time>
      </trkpt>
      <trkpt lat="43.63837" lon="5.30839">
        <ele>293.79998779297</ele>
        <time>2019-11-30T15:37:24.000Z</time>
      </trkpt>
      <trkpt lat="43.63834" lon="5.30834">
        <ele>293.79998779297</ele>
        <time>2019-11-30T15:37:25.000Z</time>
      </trkpt>
      <trkpt lat="43.63831" lon="5.30829">
        <ele>294</ele>
        <time>2019-11-30T15:37:26.000Z</time>
      </trkpt>
      <trkpt lat="43.63828" lon="5.30825">
        <ele>294</ele>
        <time>2019-11-30T15:37:27.000Z</time>
      </trkpt>
      <trkpt lat="43.63825" lon="5.3082">
        <ele>294.20001220703</ele>
        <time>2019-11-30T15:37:28.000Z</time>
      </trkpt>
      <trkpt lat="43.63815" lon="5.30817">
        <ele>294.79998779297</ele>
        <time>2019-11-30T15:37:29.000Z</time>
      </trkpt>
      <trkpt lat="43.63812" lon="5.30815">
        <ele>295</ele>
        <time>2019-11-30T15:37:30.000Z</time>
      </trkpt>
      <trkpt lat="43.63807" lon="5.30812">
        <ele>295.39999389648</ele>
        <time>2019-11-30T15:37:31.000Z</time>
      </trkpt>
      <trkpt lat="43.63803" lon="5.30809">
        <ele>295.60000610352</ele>
        <time>2019-11-30T15:37:32.000Z</time>
      </trkpt>
      <trkpt lat="43.63799" lon="5.30806">
        <ele>295.79998779297</ele>
        <time>2019-11-30T15:37:33.000Z</time>
      </trkpt>
      <trkpt lat="43.63795" lon="5.30804">
        <ele>296</ele>
        <time>2019-11-30T15:37:34.000Z</time>
      </trkpt>
      <trkpt lat="43.63792" lon="5.30801">
        <ele>296.20001220703</ele>
        <time>2019-11-30T15:37:35.000Z</time>
      </trkpt>
      <trkpt lat="43.63788" lon="5.30799">
        <ele>296.39999389648</ele>
        <time>2019-11-30T15:37:36.000Z</time>
      </trkpt>
      <trkpt lat="43.63785" lon="5.30796">
        <ele>296.60000610352</ele>
        <time>2019-11-30T15:37:37.000Z</time>
      </trkpt>
      <trkpt lat="43.63783" lon="5.30795">
        <ele>296.79998779297</ele>
        <time>2019-11-30T15:37:38.000Z</time>
      </trkpt>
      <trkpt lat="43.63781" lon="5.30794">
        <ele>297</ele>
        <time>2019-11-30T15:37:39.000Z</time>
      </trkpt>
      <trkpt lat="43.63779" lon="5.30792">
        <ele>297</ele>
        <time>2019-11-30T15:37:40.000Z</time>
      </trkpt>
      <trkpt lat="43.63776" lon="5.30791">
        <ele>297.20001220703</ele>
        <time>2019-11-30T15:37:41.000Z</time>
      </trkpt>
      <trkpt lat="43.63774" lon="5.30789">
        <ele>297.39999389648</ele>
        <time>2019-11-30T15:37:42.000Z</time>
      </trkpt>
      <trkpt lat="43.63771" lon="5.30787">
        <ele>297.60000610352</ele>
        <time>2019-11-30T15:37:43.000Z</time>
      </trkpt>
      <trkpt lat="43.63754" lon="5.30819">
        <ele>297.60000610352</ele>
        <time>2019-11-30T15:37:44.000Z</time>
      </trkpt>
      <trkpt lat="43.63751" lon="5.3082">
        <ele>297.60000610352</ele>
        <time>2019-11-30T15:37:45.000Z</time>
      </trkpt>
      <trkpt lat="43.63748" lon="5.30823">
        <ele>297.60000610352</ele>
        <time>2019-11-30T15:37:46.000Z</time>
      </trkpt>
      <trkpt lat="43.63745" lon="5.30826">
        <ele>297.60000610352</ele>
        <time>2019-11-30T15:37:47.000Z</time>
      </trkpt>
      <trkpt lat="43.63742" lon="5.30829">
        <ele>297.60000610352</ele>
        <time>2019-11-30T15:37:48.000Z</time>
      </trkpt>
      <trkpt lat="43.6374" lon="5.30833">
        <ele>297.39999389648</ele>
        <time>2019-11-30T15:37:49.000Z</time>
      </trkpt>
      <trkpt lat="43.63738" lon="5.30838">
        <ele>297.20001220703</ele>
        <time>2019-11-30T15:37:50.000Z</time>
      </trkpt>
      <trkpt lat="43.63737" lon="5.30844">
        <ele>297</ele>
        <time>2019-11-30T15:37:51.000Z</time>
      </trkpt>
      <trkpt lat="43.63736" lon="5.3085">
        <ele>297</ele>
        <time>2019-11-30T15:37:52.000Z</time>
      </trkpt>
      <trkpt lat="43.63735" lon="5.30856">
        <ele>297.20001220703</ele>
        <time>2019-11-30T15:37:53.000Z</time>
      </trkpt>
      <trkpt lat="43.63734" lon="5.30863">
        <ele>297.39999389648</ele>
        <time>2019-11-30T15:37:54.000Z</time>
      </trkpt>
      <trkpt lat="43.63733" lon="5.30869">
        <ele>297.39999389648</ele>
        <time>2019-11-30T15:37:55.000Z</time>
      </trkpt>
      <trkpt lat="43.63731" lon="5.30875">
        <ele>297.60000610352</ele>
        <time>2019-11-30T15:37:56.000Z</time>
      </trkpt>
      <trkpt lat="43.6373" lon="5.30882">
        <ele>297.79998779297</ele>
        <time>2019-11-30T15:37:57.000Z</time>
      </trkpt>
      <trkpt lat="43.63728" lon="5.30888">
        <ele>298</ele>
        <time>2019-11-30T15:37:58.000Z</time>
      </trkpt>
      <trkpt lat="43.63727" lon="5.30892">
        <ele>298</ele>
        <time>2019-11-30T15:37:59.000Z</time>
      </trkpt>
      <trkpt lat="43.63725" lon="5.30898">
        <ele>298.20001220703</ele>
        <time>2019-11-30T15:38:00.000Z</time>
      </trkpt>
      <trkpt lat="43.63723" lon="5.30905">
        <ele>298.39999389648</ele>
        <time>2019-11-30T15:38:01.000Z</time>
      </trkpt>
      <trkpt lat="43.63722" lon="5.30911">
        <ele>298.39999389648</ele>
        <time>2019-11-30T15:38:02.000Z</time>
      </trkpt>
      <trkpt lat="43.6372" lon="5.30918">
        <ele>298.39999389648</ele>
        <time>2019-11-30T15:38:03.000Z</time>
      </trkpt>
      <trkpt lat="43.63717" lon="5.30925">
        <ele>298.39999389648</ele>
        <time>2019-11-30T15:38:04.000Z</time>
      </trkpt>
      <trkpt lat="43.63715" lon="5.30931">
        <ele>298.39999389648</ele>
        <time>2019-11-30T15:38:05.000Z</time>
      </trkpt>
      <trkpt lat="43.63714" lon="5.30938">
        <ele>298.20001220703</ele>
        <time>2019-11-30T15:38:06.000Z</time>
      </trkpt>
      <trkpt lat="43.63712" lon="5.30944">
        <ele>298.20001220703</ele>
        <time>2019-11-30T15:38:07.000Z</time>
      </trkpt>
      <trkpt lat="43.6371" lon="5.3095">
        <ele>298.20001220703</ele>
        <time>2019-11-30T15:38:08.000Z</time>
      </trkpt>
      <trkpt lat="43.63706" lon="5.30954">
        <ele>298.20001220703</ele>
        <time>2019-11-30T15:38:09.000Z</time>
      </trkpt>
      <trkpt lat="43.63703" lon="5.30959">
        <ele>298.20001220703</ele>
        <time>2019-11-30T15:38:10.000Z</time>
      </trkpt>
      <trkpt lat="43.63701" lon="5.30964">
        <ele>298.20001220703</ele>
        <time>2019-11-30T15:38:11.000Z</time>
      </trkpt>
      <trkpt lat="43.63699" lon="5.30969">
        <ele>298.20001220703</ele>
        <time>2019-11-30T15:38:12.000Z</time>
      </trkpt>
      <trkpt lat="43.63697" lon="5.30975">
        <ele>298</ele>
        <time>2019-11-30T15:38:13.000Z</time>
      </trkpt>
      <trkpt lat="43.63696" lon="5.3098">
        <ele>298</ele>
        <time>2019-11-30T15:38:14.000Z</time>
      </trkpt>
      <trkpt lat="43.63695" lon="5.30987">
        <ele>297.79998779297</ele>
        <time>2019-11-30T15:38:15.000Z</time>
      </trkpt>
      <trkpt lat="43.63694" lon="5.30994">
        <ele>297.79998779297</ele>
        <time>2019-11-30T15:38:16.000Z</time>
      </trkpt>
      <trkpt lat="43.63693" lon="5.31001">
        <ele>297.60000610352</ele>
        <time>2019-11-30T15:38:17.000Z</time>
      </trkpt>
      <trkpt lat="43.63691" lon="5.31009">
        <ele>297.60000610352</ele>
        <time>2019-11-30T15:38:18.000Z</time>
      </trkpt>
      <trkpt lat="43.6369" lon="5.31017">
        <ele>297.39999389648</ele>
        <time>2019-11-30T15:38:19.000Z</time>
      </trkpt>
      <trkpt lat="43.63688" lon="5.31024">
        <ele>297.39999389648</ele>
        <time>2019-11-30T15:38:20.000Z</time>
      </trkpt>
      <trkpt lat="43.63686" lon="5.31032">
        <ele>297.39999389648</ele>
        <time>2019-11-30T15:38:21.000Z</time>
      </trkpt>
      <trkpt lat="43.63685" lon="5.3104">
        <ele>297.20001220703</ele>
        <time>2019-11-30T15:38:22.000Z</time>
      </trkpt>
      <trkpt lat="43.63684" lon="5.31046">
        <ele>297</ele>
        <time>2019-11-30T15:38:23.000Z</time>
      </trkpt>
      <trkpt lat="43.63683" lon="5.31053">
        <ele>297</ele>
        <time>2019-11-30T15:38:24.000Z</time>
      </trkpt>
      <trkpt lat="43.63681" lon="5.3106">
        <ele>297</ele>
        <time>2019-11-30T15:38:25.000Z</time>
      </trkpt>
      <trkpt lat="43.63679" lon="5.31067">
        <ele>296.79998779297</ele>
        <time>2019-11-30T15:38:26.000Z</time>
      </trkpt>
      <trkpt lat="43.63678" lon="5.31074">
        <ele>296.79998779297</ele>
        <time>2019-11-30T15:38:27.000Z</time>
      </trkpt>
      <trkpt lat="43.63678" lon="5.31081">
        <ele>296.60000610352</ele>
        <time>2019-11-30T15:38:28.000Z</time>
      </trkpt>
      <trkpt lat="43.63677" lon="5.31088">
        <ele>296.60000610352</ele>
        <time>2019-11-30T15:38:29.000Z</time>
      </trkpt>
      <trkpt lat="43.63677" lon="5.31095">
        <ele>296.60000610352</ele>
        <time>2019-11-30T15:38:30.000Z</time>
      </trkpt>
      <trkpt lat="43.63676" lon="5.31101">
        <ele>296.39999389648</ele>
        <time>2019-11-30T15:38:31.000Z</time>
      </trkpt>
      <trkpt lat="43.63674" lon="5.31108">
        <ele>296.39999389648</ele>
        <time>2019-11-30T15:38:32.000Z</time>
      </trkpt>
      <trkpt lat="43.63672" lon="5.31114">
        <ele>296.39999389648</ele>
        <time>2019-11-30T15:38:33.000Z</time>
      </trkpt>
      <trkpt lat="43.63671" lon="5.31118">
        <ele>296.39999389648</ele>
        <time>2019-11-30T15:38:35.000Z</time>
      </trkpt>
      <trkpt lat="43.6367" lon="5.31124">
        <ele>296.39999389648</ele>
        <time>2019-11-30T15:38:36.000Z</time>
      </trkpt>
      <trkpt lat="43.63669" lon="5.31131">
        <ele>296.60000610352</ele>
        <time>2019-11-30T15:38:37.000Z</time>
      </trkpt>
      <trkpt lat="43.63668" lon="5.31138">
        <ele>297.20001220703</ele>
        <time>2019-11-30T15:38:38.000Z</time>
      </trkpt>
      <trkpt lat="43.63666" lon="5.31146">
        <ele>297.79998779297</ele>
        <time>2019-11-30T15:38:39.000Z</time>
      </trkpt>
      <trkpt lat="43.63664" lon="5.31153">
        <ele>298.39999389648</ele>
        <time>2019-11-30T15:38:40.000Z</time>
      </trkpt>
      <trkpt lat="43.63662" lon="5.3116">
        <ele>299</ele>
        <time>2019-11-30T15:38:41.000Z</time>
      </trkpt>
      <trkpt lat="43.63661" lon="5.31167">
        <ele>299.60000610352</ele>
        <time>2019-11-30T15:38:42.000Z</time>
      </trkpt>
      <trkpt lat="43.6366" lon="5.31174">
        <ele>300</ele>
        <time>2019-11-30T15:38:43.000Z</time>
      </trkpt>
      <trkpt lat="43.63659" lon="5.31181">
        <ele>300.60000610352</ele>
        <time>2019-11-30T15:38:44.000Z</time>
      </trkpt>
      <trkpt lat="43.63658" lon="5.31188">
        <ele>301</ele>
        <time>2019-11-30T15:38:45.000Z</time>
      </trkpt>
      <trkpt lat="43.63657" lon="5.31195">
        <ele>301.39999389648</ele>
        <time>2019-11-30T15:38:46.000Z</time>
      </trkpt>
      <trkpt lat="43.63656" lon="5.31203">
        <ele>301.60000610352</ele>
        <time>2019-11-30T15:38:47.000Z</time>
      </trkpt>
      <trkpt lat="43.63655" lon="5.3121">
        <ele>301.79998779297</ele>
        <time>2019-11-30T15:38:48.000Z</time>
      </trkpt>
      <trkpt lat="43.63654" lon="5.31217">
        <ele>302.39999389648</ele>
        <time>2019-11-30T15:38:49.000Z</time>
      </trkpt>
      <trkpt lat="43.63653" lon="5.31223">
        <ele>302.79998779297</ele>
        <time>2019-11-30T15:38:50.000Z</time>
      </trkpt>
      <trkpt lat="43.63651" lon="5.31229">
        <ele>303.39999389648</ele>
        <time>2019-11-30T15:38:51.000Z</time>
      </trkpt>
      <trkpt lat="43.63649" lon="5.31235">
        <ele>303.79998779297</ele>
        <time>2019-11-30T15:38:52.000Z</time>
      </trkpt>
      <trkpt lat="43.63647" lon="5.31241">
        <ele>304.20001220703</ele>
        <time>2019-11-30T15:38:53.000Z</time>
      </trkpt>
      <trkpt lat="43.63645" lon="5.31247">
        <ele>304.79998779297</ele>
        <time>2019-11-30T15:38:54.000Z</time>
      </trkpt>
      <trkpt lat="43.63643" lon="5.31253">
        <ele>305.39999389648</ele>
        <time>2019-11-30T15:38:55.000Z</time>
      </trkpt>
      <trkpt lat="43.63641" lon="5.31259">
        <ele>305.60000610352</ele>
        <time>2019-11-30T15:38:56.000Z</time>
      </trkpt>
      <trkpt lat="43.63639" lon="5.31265">
        <ele>306</ele>
        <time>2019-11-30T15:38:57.000Z</time>
      </trkpt>
      <trkpt lat="43.63637" lon="5.31269">
        <ele>306.20001220703</ele>
        <time>2019-11-30T15:38:58.000Z</time>
      </trkpt>
      <trkpt lat="43.63635" lon="5.31272">
        <ele>306.39999389648</ele>
        <time>2019-11-30T15:38:59.000Z</time>
      </trkpt>
      <trkpt lat="43.63634" lon="5.31276">
        <ele>306.39999389648</ele>
        <time>2019-11-30T15:39:00.000Z</time>
      </trkpt>
      <trkpt lat="43.63632" lon="5.31279">
        <ele>306.60000610352</ele>
        <time>2019-11-30T15:39:01.000Z</time>
      </trkpt>
      <trkpt lat="43.6363" lon="5.31283">
        <ele>306.79998779297</ele>
        <time>2019-11-30T15:39:02.000Z</time>
      </trkpt>
      <trkpt lat="43.6363" lon="5.31286">
        <ele>307</ele>
        <time>2019-11-30T15:39:03.000Z</time>
      </trkpt>
      <trkpt lat="43.63629" lon="5.3129">
        <ele>307.20001220703</ele>
        <time>2019-11-30T15:39:04.000Z</time>
      </trkpt>
      <trkpt lat="43.63629" lon="5.31293">
        <ele>307.39999389648</ele>
        <time>2019-11-30T15:39:05.000Z</time>
      </trkpt>
      <trkpt lat="43.63629" lon="5.31298">
        <ele>307.60000610352</ele>
        <time>2019-11-30T15:39:06.000Z</time>
      </trkpt>
      <trkpt lat="43.63629" lon="5.31302">
        <ele>307.60000610352</ele>
        <time>2019-11-30T15:39:07.000Z</time>
      </trkpt>
      <trkpt lat="43.63628" lon="5.31306">
        <ele>307.39999389648</ele>
        <time>2019-11-30T15:39:08.000Z</time>
      </trkpt>
      <trkpt lat="43.63627" lon="5.31311">
        <ele>307.39999389648</ele>
        <time>2019-11-30T15:39:09.000Z</time>
      </trkpt>
      <trkpt lat="43.63627" lon="5.31314">
        <ele>307.39999389648</ele>
        <time>2019-11-30T15:39:10.000Z</time>
      </trkpt>
      <trkpt lat="43.63626" lon="5.31318">
        <ele>307.39999389648</ele>
        <time>2019-11-30T15:39:11.000Z</time>
      </trkpt>
      <trkpt lat="43.63626" lon="5.31322">
        <ele>307.20001220703</ele>
        <time>2019-11-30T15:39:12.000Z</time>
      </trkpt>
      <trkpt lat="43.63625" lon="5.31327">
        <ele>307.39999389648</ele>
        <time>2019-11-30T15:39:13.000Z</time>
      </trkpt>
      <trkpt lat="43.63625" lon="5.31332">
        <ele>307.39999389648</ele>
        <time>2019-11-30T15:39:14.000Z</time>
      </trkpt>
      <trkpt lat="43.63624" lon="5.31337">
        <ele>307.39999389648</ele>
        <time>2019-11-30T15:39:15.000Z</time>
      </trkpt>
      <trkpt lat="43.63623" lon="5.31343">
        <ele>307.60000610352</ele>
        <time>2019-11-30T15:39:16.000Z</time>
      </trkpt>
      <trkpt lat="43.63623" lon="5.3135">
        <ele>307.60000610352</ele>
        <time>2019-11-30T15:39:17.000Z</time>
      </trkpt>
      <trkpt lat="43.63622" lon="5.31356">
        <ele>307.79998779297</ele>
        <time>2019-11-30T15:39:18.000Z</time>
      </trkpt>
      <trkpt lat="43.63621" lon="5.31363">
        <ele>307.79998779297</ele>
        <time>2019-11-30T15:39:19.000Z</time>
      </trkpt>
      <trkpt lat="43.6362" lon="5.31369">
        <ele>307.79998779297</ele>
        <time>2019-11-30T15:39:20.000Z</time>
      </trkpt>
      <trkpt lat="43.6362" lon="5.31374">
        <ele>308</ele>
        <time>2019-11-30T15:39:21.000Z</time>
      </trkpt>
      <trkpt lat="43.63619" lon="5.31378">
        <ele>308</ele>
        <time>2019-11-30T15:39:22.000Z</time>
      </trkpt>
      <trkpt lat="43.63619" lon="5.31383">
        <ele>308</ele>
        <time>2019-11-30T15:39:23.000Z</time>
      </trkpt>
      <trkpt lat="43.63619" lon="5.31388">
        <ele>307.79998779297</ele>
        <time>2019-11-30T15:39:24.000Z</time>
      </trkpt>
      <trkpt lat="43.63619" lon="5.31394">
        <ele>307.60000610352</ele>
        <time>2019-11-30T15:39:25.000Z</time>
      </trkpt>
      <trkpt lat="43.63619" lon="5.31399">
        <ele>307.60000610352</ele>
        <time>2019-11-30T15:39:26.000Z</time>
      </trkpt>
      <trkpt lat="43.63619" lon="5.31405">
        <ele>307.60000610352</ele>
        <time>2019-11-30T15:39:27.000Z</time>
      </trkpt>
      <trkpt lat="43.63618" lon="5.31411">
        <ele>307.60000610352</ele>
        <time>2019-11-30T15:39:28.000Z</time>
      </trkpt>
      <trkpt lat="43.63617" lon="5.31416">
        <ele>307.60000610352</ele>
        <time>2019-11-30T15:39:29.000Z</time>
      </trkpt>
      <trkpt lat="43.63616" lon="5.31422">
        <ele>307.60000610352</ele>
        <time>2019-11-30T15:39:30.000Z</time>
      </trkpt>
      <trkpt lat="43.63614" lon="5.31428">
        <ele>307.79998779297</ele>
        <time>2019-11-30T15:39:31.000Z</time>
      </trkpt>
      <trkpt lat="43.63613" lon="5.31433">
        <ele>307.79998779297</ele>
        <time>2019-11-30T15:39:32.000Z</time>
      </trkpt>
      <trkpt lat="43.63611" lon="5.31438">
        <ele>307.79998779297</ele>
        <time>2019-11-30T15:39:33.000Z</time>
      </trkpt>
      <trkpt lat="43.6361" lon="5.31443">
        <ele>307.79998779297</ele>
        <time>2019-11-30T15:39:34.000Z</time>
      </trkpt>
      <trkpt lat="43.63609" lon="5.31449">
        <ele>307.79998779297</ele>
        <time>2019-11-30T15:39:35.000Z</time>
      </trkpt>
      <trkpt lat="43.63608" lon="5.31455">
        <ele>307.79998779297</ele>
        <time>2019-11-30T15:39:36.000Z</time>
      </trkpt>
      <trkpt lat="43.63606" lon="5.31461">
        <ele>308</ele>
        <time>2019-11-30T15:39:37.000Z</time>
      </trkpt>
      <trkpt lat="43.63605" lon="5.31466">
        <ele>308</ele>
        <time>2019-11-30T15:39:38.000Z</time>
      </trkpt>
      <trkpt lat="43.63604" lon="5.31472">
        <ele>308.20001220703</ele>
        <time>2019-11-30T15:39:39.000Z</time>
      </trkpt>
      <trkpt lat="43.63602" lon="5.31478">
        <ele>308.39999389648</ele>
        <time>2019-11-30T15:39:40.000Z</time>
      </trkpt>
      <trkpt lat="43.636" lon="5.31483">
        <ele>308.60000610352</ele>
        <time>2019-11-30T15:39:41.000Z</time>
      </trkpt>
      <trkpt lat="43.63599" lon="5.31488">
        <ele>308.79998779297</ele>
        <time>2019-11-30T15:39:42.000Z</time>
      </trkpt>
      <trkpt lat="43.63598" lon="5.31492">
        <ele>309</ele>
        <time>2019-11-30T15:39:43.000Z</time>
      </trkpt>
      <trkpt lat="43.63597" lon="5.31497">
        <ele>309.20001220703</ele>
        <time>2019-11-30T15:39:44.000Z</time>
      </trkpt>
      <trkpt lat="43.63595" lon="5.31502">
        <ele>309.20001220703</ele>
        <time>2019-11-30T15:39:45.000Z</time>
      </trkpt>
      <trkpt lat="43.63593" lon="5.31506">
        <ele>309.39999389648</ele>
        <time>2019-11-30T15:39:46.000Z</time>
      </trkpt>
      <trkpt lat="43.63592" lon="5.31512">
        <ele>309.60000610352</ele>
        <time>2019-11-30T15:39:47.000Z</time>
      </trkpt>
      <trkpt lat="43.63591" lon="5.31517">
        <ele>309.79998779297</ele>
        <time>2019-11-30T15:39:48.000Z</time>
      </trkpt>
      <trkpt lat="43.6359" lon="5.31522">
        <ele>310</ele>
        <time>2019-11-30T15:39:49.000Z</time>
      </trkpt>
      <trkpt lat="43.63589" lon="5.31526">
        <ele>310</ele>
        <time>2019-11-30T15:39:50.000Z</time>
      </trkpt>
      <trkpt lat="43.63587" lon="5.31532">
        <ele>310.20001220703</ele>
        <time>2019-11-30T15:39:51.000Z</time>
      </trkpt>
      <trkpt lat="43.63586" lon="5.31537">
        <ele>310.60000610352</ele>
        <time>2019-11-30T15:39:52.000Z</time>
      </trkpt>
      <trkpt lat="43.63585" lon="5.31543">
        <ele>311</ele>
        <time>2019-11-30T15:39:53.000Z</time>
      </trkpt>
      <trkpt lat="43.63584" lon="5.31549">
        <ele>311.20001220703</ele>
        <time>2019-11-30T15:39:54.000Z</time>
      </trkpt>
      <trkpt lat="43.63582" lon="5.31555">
        <ele>311.60000610352</ele>
        <time>2019-11-30T15:39:55.000Z</time>
      </trkpt>
      <trkpt lat="43.63581" lon="5.3156">
        <ele>312</ele>
        <time>2019-11-30T15:39:56.000Z</time>
      </trkpt>
      <trkpt lat="43.6358" lon="5.31566">
        <ele>312.20001220703</ele>
        <time>2019-11-30T15:39:57.000Z</time>
      </trkpt>
      <trkpt lat="43.63579" lon="5.31572">
        <ele>312.39999389648</ele>
        <time>2019-11-30T15:39:58.000Z</time>
      </trkpt>
      <trkpt lat="43.63578" lon="5.31577">
        <ele>312.79998779297</ele>
        <time>2019-11-30T15:39:59.000Z</time>
      </trkpt>
      <trkpt lat="43.63577" lon="5.31581">
        <ele>313</ele>
        <time>2019-11-30T15:40:00.000Z</time>
      </trkpt>
      <trkpt lat="43.63576" lon="5.31586">
        <ele>313.20001220703</ele>
        <time>2019-11-30T15:40:01.000Z</time>
      </trkpt>
      <trkpt lat="43.63574" lon="5.31591">
        <ele>313.39999389648</ele>
        <time>2019-11-30T15:40:02.000Z</time>
      </trkpt>
      <trkpt lat="43.63574" lon="5.31596">
        <ele>313.60000610352</ele>
        <time>2019-11-30T15:40:03.000Z</time>
      </trkpt>
      <trkpt lat="43.63573" lon="5.31602">
        <ele>314</ele>
        <time>2019-11-30T15:40:04.000Z</time>
      </trkpt>
      <trkpt lat="43.63572" lon="5.31607">
        <ele>314.20001220703</ele>
        <time>2019-11-30T15:40:05.000Z</time>
      </trkpt>
      <trkpt lat="43.63571" lon="5.31612">
        <ele>314.39999389648</ele>
        <time>2019-11-30T15:40:06.000Z</time>
      </trkpt>
      <trkpt lat="43.6357" lon="5.31616">
        <ele>314.39999389648</ele>
        <time>2019-11-30T15:40:07.000Z</time>
      </trkpt>
      <trkpt lat="43.63569" lon="5.3162">
        <ele>314.60000610352</ele>
        <time>2019-11-30T15:40:08.000Z</time>
      </trkpt>
      <trkpt lat="43.63567" lon="5.31623">
        <ele>314.79998779297</ele>
        <time>2019-11-30T15:40:09.000Z</time>
      </trkpt>
      <trkpt lat="43.63565" lon="5.31625">
        <ele>314.79998779297</ele>
        <time>2019-11-30T15:40:10.000Z</time>
      </trkpt>
      <trkpt lat="43.63564" lon="5.31627">
        <ele>314.79998779297</ele>
        <time>2019-11-30T15:40:11.000Z</time>
      </trkpt>
      <trkpt lat="43.63562" lon="5.31628">
        <ele>315</ele>
        <time>2019-11-30T15:40:12.000Z</time>
      </trkpt>
      <trkpt lat="43.63559" lon="5.31627">
        <ele>314.79998779297</ele>
        <time>2019-11-30T15:40:13.000Z</time>
      </trkpt>
      <trkpt lat="43.63557" lon="5.31626">
        <ele>314.79998779297</ele>
        <time>2019-11-30T15:40:14.000Z</time>
      </trkpt>
      <trkpt lat="43.63554" lon="5.31624">
        <ele>314.79998779297</ele>
        <time>2019-11-30T15:40:15.000Z</time>
      </trkpt>
      <trkpt lat="43.6355" lon="5.31624">
        <ele>314.79998779297</ele>
        <time>2019-11-30T15:40:16.000Z</time>
      </trkpt>
      <trkpt lat="43.63547" lon="5.31623">
        <ele>314.79998779297</ele>
        <time>2019-11-30T15:40:17.000Z</time>
      </trkpt>
      <trkpt lat="43.63544" lon="5.31622">
        <ele>314.60000610352</ele>
        <time>2019-11-30T15:40:18.000Z</time>
      </trkpt>
      <trkpt lat="43.63541" lon="5.3162">
        <ele>314.60000610352</ele>
        <time>2019-11-30T15:40:19.000Z</time>
      </trkpt>
      <trkpt lat="43.63537" lon="5.31618">
        <ele>314.60000610352</ele>
        <time>2019-11-30T15:40:20.000Z</time>
      </trkpt>
      <trkpt lat="43.6353" lon="5.31623">
        <ele>314.79998779297</ele>
        <time>2019-11-30T15:40:21.000Z</time>
      </trkpt>
      <trkpt lat="43.63527" lon="5.31619">
        <ele>314.60000610352</ele>
        <time>2019-11-30T15:40:22.000Z</time>
      </trkpt>
      <trkpt lat="43.63525" lon="5.31616">
        <ele>314.39999389648</ele>
        <time>2019-11-30T15:40:23.000Z</time>
      </trkpt>
      <trkpt lat="43.63524" lon="5.31613">
        <ele>314.39999389648</ele>
        <time>2019-11-30T15:40:24.000Z</time>
      </trkpt>
      <trkpt lat="43.63522" lon="5.31609">
        <ele>314.20001220703</ele>
        <time>2019-11-30T15:40:25.000Z</time>
      </trkpt>
      <trkpt lat="43.6352" lon="5.31606">
        <ele>314.20001220703</ele>
        <time>2019-11-30T15:40:26.000Z</time>
      </trkpt>
      <trkpt lat="43.63518" lon="5.31602">
        <ele>314</ele>
        <time>2019-11-30T15:40:27.000Z</time>
      </trkpt>
      <trkpt lat="43.63515" lon="5.31597">
        <ele>313.60000610352</ele>
        <time>2019-11-30T15:40:28.000Z</time>
      </trkpt>
      <trkpt lat="43.63513" lon="5.31593">
        <ele>313.39999389648</ele>
        <time>2019-11-30T15:40:29.000Z</time>
      </trkpt>
      <trkpt lat="43.6351" lon="5.31589">
        <ele>313</ele>
        <time>2019-11-30T15:40:30.000Z</time>
      </trkpt>
      <trkpt lat="43.63508" lon="5.31584">
        <ele>312.79998779297</ele>
        <time>2019-11-30T15:40:31.000Z</time>
      </trkpt>
      <trkpt lat="43.63506" lon="5.3158">
        <ele>312.60000610352</ele>
        <time>2019-11-30T15:40:32.000Z</time>
      </trkpt>
      <trkpt lat="43.63504" lon="5.31577">
        <ele>312.39999389648</ele>
        <time>2019-11-30T15:40:33.000Z</time>
      </trkpt>
      <trkpt lat="43.63502" lon="5.31574">
        <ele>312.20001220703</ele>
        <time>2019-11-30T15:40:34.000Z</time>
      </trkpt>
      <trkpt lat="43.63475" lon="5.31597">
        <ele>311</ele>
        <time>2019-11-30T15:40:35.000Z</time>
      </trkpt>
      <trkpt lat="43.63471" lon="5.31598">
        <ele>310.60000610352</ele>
        <time>2019-11-30T15:40:36.000Z</time>
      </trkpt>
      <trkpt lat="43.63467" lon="5.316">
        <ele>310.20001220703</ele>
        <time>2019-11-30T15:40:37.000Z</time>
      </trkpt>
      <trkpt lat="43.63463" lon="5.31601">
        <ele>309.60000610352</ele>
        <time>2019-11-30T15:40:38.000Z</time>
      </trkpt>
      <trkpt lat="43.63458" lon="5.316">
        <ele>309.20001220703</ele>
        <time>2019-11-30T15:40:39.000Z</time>
      </trkpt>
      <trkpt lat="43.63455" lon="5.31598">
        <ele>308.79998779297</ele>
        <time>2019-11-30T15:40:40.000Z</time>
      </trkpt>
      <trkpt lat="43.63452" lon="5.31596">
        <ele>308.60000610352</ele>
        <time>2019-11-30T15:40:41.000Z</time>
      </trkpt>
      <trkpt lat="43.63449" lon="5.31593">
        <ele>308.39999389648</ele>
        <time>2019-11-30T15:40:42.000Z</time>
      </trkpt>
      <trkpt lat="43.63448" lon="5.31589">
        <ele>308.20001220703</ele>
        <time>2019-11-30T15:40:43.000Z</time>
      </trkpt>
      <trkpt lat="43.63447" lon="5.31585">
        <ele>308.39999389648</ele>
        <time>2019-11-30T15:40:44.000Z</time>
      </trkpt>
      <trkpt lat="43.63446" lon="5.31581">
        <ele>308.39999389648</ele>
        <time>2019-11-30T15:40:45.000Z</time>
      </trkpt>
      <trkpt lat="43.63444" lon="5.31578">
        <ele>308.20001220703</ele>
        <time>2019-11-30T15:40:46.000Z</time>
      </trkpt>
      <trkpt lat="43.63441" lon="5.31575">
        <ele>307.79998779297</ele>
        <time>2019-11-30T15:40:47.000Z</time>
      </trkpt>
      <trkpt lat="43.63438" lon="5.31573">
        <ele>307.60000610352</ele>
        <time>2019-11-30T15:40:48.000Z</time>
      </trkpt>
      <trkpt lat="43.63435" lon="5.3157">
        <ele>307.39999389648</ele>
        <time>2019-11-30T15:40:49.000Z</time>
      </trkpt>
      <trkpt lat="43.63432" lon="5.31569">
        <ele>307.20001220703</ele>
        <time>2019-11-30T15:40:50.000Z</time>
      </trkpt>
      <trkpt lat="43.63428" lon="5.31568">
        <ele>306.79998779297</ele>
        <time>2019-11-30T15:40:51.000Z</time>
      </trkpt>
      <trkpt lat="43.63425" lon="5.31567">
        <ele>306.60000610352</ele>
        <time>2019-11-30T15:40:52.000Z</time>
      </trkpt>
      <trkpt lat="43.63421" lon="5.31566">
        <ele>306.39999389648</ele>
        <time>2019-11-30T15:40:53.000Z</time>
      </trkpt>
      <trkpt lat="43.63418" lon="5.31567">
        <ele>306</ele>
        <time>2019-11-30T15:40:54.000Z</time>
      </trkpt>
      <trkpt lat="43.63414" lon="5.31567">
        <ele>305.79998779297</ele>
        <time>2019-11-30T15:40:55.000Z</time>
      </trkpt>
      <trkpt lat="43.63411" lon="5.31568">
        <ele>305.39999389648</ele>
        <time>2019-11-30T15:40:56.000Z</time>
      </trkpt>
      <trkpt lat="43.63409" lon="5.31567">
        <ele>305.20001220703</ele>
        <time>2019-11-30T15:40:57.000Z</time>
      </trkpt>
      <trkpt lat="43.63406" lon="5.31567">
        <ele>305</ele>
        <time>2019-11-30T15:40:58.000Z</time>
      </trkpt>
      <trkpt lat="43.63405" lon="5.3157">
        <ele>305</ele>
        <time>2019-11-30T15:40:59.000Z</time>
      </trkpt>
      <trkpt lat="43.63404" lon="5.31573">
        <ele>304.79998779297</ele>
        <time>2019-11-30T15:41:00.000Z</time>
      </trkpt>
      <trkpt lat="43.63401" lon="5.31576">
        <ele>304.39999389648</ele>
        <time>2019-11-30T15:41:01.000Z</time>
      </trkpt>
      <trkpt lat="43.634" lon="5.3158">
        <ele>304.20001220703</ele>
        <time>2019-11-30T15:41:02.000Z</time>
      </trkpt>
      <trkpt lat="43.63397" lon="5.31582">
        <ele>304</ele>
        <time>2019-11-30T15:41:03.000Z</time>
      </trkpt>
      <trkpt lat="43.63393" lon="5.31582">
        <ele>303.60000610352</ele>
        <time>2019-11-30T15:41:04.000Z</time>
      </trkpt>
      <trkpt lat="43.6339" lon="5.31583">
        <ele>303.20001220703</ele>
        <time>2019-11-30T15:41:05.000Z</time>
      </trkpt>
      <trkpt lat="43.63385" lon="5.31584">
        <ele>302.79998779297</ele>
        <time>2019-11-30T15:41:06.000Z</time>
      </trkpt>
      <trkpt lat="43.6338" lon="5.31585">
        <ele>302.39999389648</ele>
        <time>2019-11-30T15:41:07.000Z</time>
      </trkpt>
      <trkpt lat="43.63375" lon="5.31584">
        <ele>302</ele>
        <time>2019-11-30T15:41:08.000Z</time>
      </trkpt>
      <trkpt lat="43.6337" lon="5.31583">
        <ele>301.60000610352</ele>
        <time>2019-11-30T15:41:09.000Z</time>
      </trkpt>
      <trkpt lat="43.63365" lon="5.31582">
        <ele>301.20001220703</ele>
        <time>2019-11-30T15:41:10.000Z</time>
      </trkpt>
      <trkpt lat="43.6336" lon="5.31581">
        <ele>300.79998779297</ele>
        <time>2019-11-30T15:41:11.000Z</time>
      </trkpt>
      <trkpt lat="43.63355" lon="5.31582">
        <ele>300.39999389648</ele>
        <time>2019-11-30T15:41:12.000Z</time>
      </trkpt>
      <trkpt lat="43.6335" lon="5.31583">
        <ele>300</ele>
        <time>2019-11-30T15:41:13.000Z</time>
      </trkpt>
      <trkpt lat="43.63345" lon="5.3158">
        <ele>299.39999389648</ele>
        <time>2019-11-30T15:41:14.000Z</time>
      </trkpt>
      <trkpt lat="43.6334" lon="5.31578">
        <ele>299</ele>
        <time>2019-11-30T15:41:15.000Z</time>
      </trkpt>
      <trkpt lat="43.63334" lon="5.31575">
        <ele>298.60000610352</ele>
        <time>2019-11-30T15:41:16.000Z</time>
      </trkpt>
      <trkpt lat="43.63329" lon="5.31573">
        <ele>298.20001220703</ele>
        <time>2019-11-30T15:41:17.000Z</time>
      </trkpt>
      <trkpt lat="43.63323" lon="5.3157">
        <ele>297.60000610352</ele>
        <time>2019-11-30T15:41:18.000Z</time>
      </trkpt>
      <trkpt lat="43.63318" lon="5.31568">
        <ele>297.20001220703</ele>
        <time>2019-11-30T15:41:19.000Z</time>
      </trkpt>
      <trkpt lat="43.63312" lon="5.31567">
        <ele>296.60000610352</ele>
        <time>2019-11-30T15:41:20.000Z</time>
      </trkpt>
      <trkpt lat="43.63307" lon="5.31567">
        <ele>296.20001220703</ele>
        <time>2019-11-30T15:41:21.000Z</time>
      </trkpt>
      <trkpt lat="43.63301" lon="5.31568">
        <ele>295.60000610352</ele>
        <time>2019-11-30T15:41:22.000Z</time>
      </trkpt>
      <trkpt lat="43.63295" lon="5.3157">
        <ele>295</ele>
        <time>2019-11-30T15:41:23.000Z</time>
      </trkpt>
      <trkpt lat="43.63289" lon="5.3157">
        <ele>294.39999389648</ele>
        <time>2019-11-30T15:41:24.000Z</time>
      </trkpt>
      <trkpt lat="43.63283" lon="5.31567">
        <ele>294.20001220703</ele>
        <time>2019-11-30T15:41:25.000Z</time>
      </trkpt>
      <trkpt lat="43.63276" lon="5.31565">
        <ele>293.79998779297</ele>
        <time>2019-11-30T15:41:26.000Z</time>
      </trkpt>
      <trkpt lat="43.63269" lon="5.31566">
        <ele>293.39999389648</ele>
        <time>2019-11-30T15:41:27.000Z</time>
      </trkpt>
      <trkpt lat="43.63263" lon="5.31566">
        <ele>293</ele>
        <time>2019-11-30T15:41:28.000Z</time>
      </trkpt>
      <trkpt lat="43.63257" lon="5.31565">
        <ele>292.39999389648</ele>
        <time>2019-11-30T15:41:29.000Z</time>
      </trkpt>
      <trkpt lat="43.63251" lon="5.31564">
        <ele>291.79998779297</ele>
        <time>2019-11-30T15:41:30.000Z</time>
      </trkpt>
      <trkpt lat="43.63244" lon="5.31564">
        <ele>291.39999389648</ele>
        <time>2019-11-30T15:41:31.000Z</time>
      </trkpt>
      <trkpt lat="43.63238" lon="5.31564">
        <ele>290.79998779297</ele>
        <time>2019-11-30T15:41:32.000Z</time>
      </trkpt>
      <trkpt lat="43.63232" lon="5.31564">
        <ele>290.20001220703</ele>
        <time>2019-11-30T15:41:33.000Z</time>
      </trkpt>
      <trkpt lat="43.63225" lon="5.31563">
        <ele>289.79998779297</ele>
        <time>2019-11-30T15:41:34.000Z</time>
      </trkpt>
      <trkpt lat="43.63219" lon="5.3156">
        <ele>289.20001220703</ele>
        <time>2019-11-30T15:41:35.000Z</time>
      </trkpt>
      <trkpt lat="43.63214" lon="5.31558">
        <ele>288.60000610352</ele>
        <time>2019-11-30T15:41:36.000Z</time>
      </trkpt>
      <trkpt lat="43.63208" lon="5.3156">
        <ele>288.20001220703</ele>
        <time>2019-11-30T15:41:37.000Z</time>
      </trkpt>
      <trkpt lat="43.63203" lon="5.31562">
        <ele>287.79998779297</ele>
        <time>2019-11-30T15:41:38.000Z</time>
      </trkpt>
      <trkpt lat="43.63198" lon="5.31566">
        <ele>287.60000610352</ele>
        <time>2019-11-30T15:41:39.000Z</time>
      </trkpt>
      <trkpt lat="43.63193" lon="5.31572">
        <ele>287.39999389648</ele>
        <time>2019-11-30T15:41:40.000Z</time>
      </trkpt>
      <trkpt lat="43.63187" lon="5.31574">
        <ele>287</ele>
        <time>2019-11-30T15:41:41.000Z</time>
      </trkpt>
      <trkpt lat="43.63181" lon="5.31573">
        <ele>286.60000610352</ele>
        <time>2019-11-30T15:41:42.000Z</time>
      </trkpt>
      <trkpt lat="43.63175" lon="5.31569">
        <ele>286.20001220703</ele>
        <time>2019-11-30T15:41:43.000Z</time>
      </trkpt>
      <trkpt lat="43.63168" lon="5.31569">
        <ele>285.79998779297</ele>
        <time>2019-11-30T15:41:44.000Z</time>
      </trkpt>
      <trkpt lat="43.63161" lon="5.31567">
        <ele>285.20001220703</ele>
        <time>2019-11-30T15:41:45.000Z</time>
      </trkpt>
      <trkpt lat="43.63154" lon="5.31565">
        <ele>284.79998779297</ele>
        <time>2019-11-30T15:41:46.000Z</time>
      </trkpt>
      <trkpt lat="43.6315" lon="5.31562">
        <ele>284.39999389648</ele>
        <time>2019-11-30T15:41:47.000Z</time>
      </trkpt>
      <trkpt lat="43.63148" lon="5.31558">
        <ele>284.20001220703</ele>
        <time>2019-11-30T15:41:48.000Z</time>
      </trkpt>
      <trkpt lat="43.63149" lon="5.31554">
        <ele>284</ele>
        <time>2019-11-30T15:41:49.000Z</time>
      </trkpt>
      <trkpt lat="43.63147" lon="5.31551">
        <ele>283.79998779297</ele>
        <time>2019-11-30T15:41:50.000Z</time>
      </trkpt>
      <trkpt lat="43.63145" lon="5.31548">
        <ele>283.60000610352</ele>
        <time>2019-11-30T15:41:51.000Z</time>
      </trkpt>
      <trkpt lat="43.63141" lon="5.31546">
        <ele>283.20001220703</ele>
        <time>2019-11-30T15:41:52.000Z</time>
      </trkpt>
      <trkpt lat="43.63134" lon="5.31545">
        <ele>282.79998779297</ele>
        <time>2019-11-30T15:41:53.000Z</time>
      </trkpt>
      <trkpt lat="43.63122" lon="5.31542">
        <ele>282</ele>
        <time>2019-11-30T15:41:54.000Z</time>
      </trkpt>
      <trkpt lat="43.63114" lon="5.31541">
        <ele>281.60000610352</ele>
        <time>2019-11-30T15:41:55.000Z</time>
      </trkpt>
      <trkpt lat="43.63107" lon="5.3154">
        <ele>281.20001220703</ele>
        <time>2019-11-30T15:41:56.000Z</time>
      </trkpt>
      <trkpt lat="43.63103" lon="5.31539">
        <ele>280.79998779297</ele>
        <time>2019-11-30T15:41:57.000Z</time>
      </trkpt>
      <trkpt lat="43.63103" lon="5.31536">
        <ele>280.79998779297</ele>
        <time>2019-11-30T15:41:58.000Z</time>
      </trkpt>
      <trkpt lat="43.63104" lon="5.31531">
        <ele>280.60000610352</ele>
        <time>2019-11-30T15:41:59.000Z</time>
      </trkpt>
      <trkpt lat="43.63104" lon="5.31525">
        <ele>280.60000610352</ele>
        <time>2019-11-30T15:42:00.000Z</time>
      </trkpt>
      <trkpt lat="43.63105" lon="5.31517">
        <ele>280.39999389648</ele>
        <time>2019-11-30T15:42:01.000Z</time>
      </trkpt>
      <trkpt lat="43.63107" lon="5.3151">
        <ele>280.39999389648</ele>
        <time>2019-11-30T15:42:02.000Z</time>
      </trkpt>
      <trkpt lat="43.63108" lon="5.31502">
        <ele>280.20001220703</ele>
        <time>2019-11-30T15:42:03.000Z</time>
      </trkpt>
      <trkpt lat="43.6311" lon="5.31495">
        <ele>280.20001220703</ele>
        <time>2019-11-30T15:42:04.000Z</time>
      </trkpt>
      <trkpt lat="43.6311" lon="5.31488">
        <ele>280</ele>
        <time>2019-11-30T15:42:05.000Z</time>
      </trkpt>
      <trkpt lat="43.63111" lon="5.31479">
        <ele>279.79998779297</ele>
        <time>2019-11-30T15:42:06.000Z</time>
      </trkpt>
      <trkpt lat="43.63111" lon="5.31469">
        <ele>279.60000610352</ele>
        <time>2019-11-30T15:42:07.000Z</time>
      </trkpt>
      <trkpt lat="43.63111" lon="5.31459">
        <ele>279.20001220703</ele>
        <time>2019-11-30T15:42:08.000Z</time>
      </trkpt>
      <trkpt lat="43.63112" lon="5.31451">
        <ele>278.60000610352</ele>
        <time>2019-11-30T15:42:09.000Z</time>
      </trkpt>
      <trkpt lat="43.63114" lon="5.31445">
        <ele>278.20001220703</ele>
        <time>2019-11-30T15:42:10.000Z</time>
      </trkpt>
      <trkpt lat="43.63115" lon="5.31438">
        <ele>277.60000610352</ele>
        <time>2019-11-30T15:42:11.000Z</time>
      </trkpt>
      <trkpt lat="43.63116" lon="5.3143">
        <ele>277</ele>
        <time>2019-11-30T15:42:12.000Z</time>
      </trkpt>
      <trkpt lat="43.63115" lon="5.31423">
        <ele>276.39999389648</ele>
        <time>2019-11-30T15:42:13.000Z</time>
      </trkpt>
      <trkpt lat="43.63116" lon="5.31417">
        <ele>275.79998779297</ele>
        <time>2019-11-30T15:42:14.000Z</time>
      </trkpt>
      <trkpt lat="43.63114" lon="5.31413">
        <ele>275.39999389648</ele>
        <time>2019-11-30T15:42:15.000Z</time>
      </trkpt>
      <trkpt lat="43.63112" lon="5.31414">
        <ele>275.39999389648</ele>
        <time>2019-11-30T15:42:16.000Z</time>
      </trkpt>
      <trkpt lat="43.63109" lon="5.31415">
        <ele>275.39999389648</ele>
        <time>2019-11-30T15:42:17.000Z</time>
      </trkpt>
      <trkpt lat="43.63104" lon="5.31414">
        <ele>275</ele>
        <time>2019-11-30T15:42:18.000Z</time>
      </trkpt>
      <trkpt lat="43.631" lon="5.31411">
        <ele>274.39999389648</ele>
        <time>2019-11-30T15:42:19.000Z</time>
      </trkpt>
      <trkpt lat="43.63097" lon="5.3141">
        <ele>274</ele>
        <time>2019-11-30T15:42:20.000Z</time>
      </trkpt>
      <trkpt lat="43.63096" lon="5.31409">
        <ele>273.79998779297</ele>
        <time>2019-11-30T15:42:21.000Z</time>
      </trkpt>
      <trkpt lat="43.63096" lon="5.31409">
        <ele>273.79998779297</ele>
        <time>2019-11-30T15:42:22.000Z</time>
      </trkpt>
      <trkpt lat="43.63096" lon="5.31409">
        <ele>273.79998779297</ele>
        <time>2019-11-30T15:42:23.000Z</time>
      </trkpt>
      <trkpt lat="43.63096" lon="5.31407">
        <ele>273.60000610352</ele>
        <time>2019-11-30T15:42:24.000Z</time>
      </trkpt>
      <trkpt lat="43.63097" lon="5.31405">
        <ele>273.60000610352</ele>
        <time>2019-11-30T15:42:25.000Z</time>
      </trkpt>
      <trkpt lat="43.63098" lon="5.31404">
        <ele>273.60000610352</ele>
        <time>2019-11-30T15:42:26.000Z</time>
      </trkpt>
      <trkpt lat="43.631" lon="5.31402">
        <ele>273.60000610352</ele>
        <time>2019-11-30T15:42:27.000Z</time>
      </trkpt>
      <trkpt lat="43.63102" lon="5.31399">
        <ele>273.60000610352</ele>
        <time>2019-11-30T15:42:28.000Z</time>
      </trkpt>
      <trkpt lat="43.63105" lon="5.31394">
        <ele>273.39999389648</ele>
        <time>2019-11-30T15:42:29.000Z</time>
      </trkpt>
      <trkpt lat="43.63106" lon="5.31388">
        <ele>272.79998779297</ele>
        <time>2019-11-30T15:42:30.000Z</time>
      </trkpt>
      <trkpt lat="43.63105" lon="5.3138">
        <ele>272.20001220703</ele>
        <time>2019-11-30T15:42:31.000Z</time>
      </trkpt>
      <trkpt lat="43.63103" lon="5.31373">
        <ele>271.60000610352</ele>
        <time>2019-11-30T15:42:32.000Z</time>
      </trkpt>
      <trkpt lat="43.63101" lon="5.31366">
        <ele>271.20001220703</ele>
        <time>2019-11-30T15:42:33.000Z</time>
      </trkpt>
      <trkpt lat="43.63103" lon="5.31357">
        <ele>271</ele>
        <time>2019-11-30T15:42:34.000Z</time>
      </trkpt>
      <trkpt lat="43.63102" lon="5.3135">
        <ele>270.60000610352</ele>
        <time>2019-11-30T15:42:35.000Z</time>
      </trkpt>
      <trkpt lat="43.63101" lon="5.31342">
        <ele>270</ele>
        <time>2019-11-30T15:42:36.000Z</time>
      </trkpt>
      <trkpt lat="43.63099" lon="5.31333">
        <ele>269.60000610352</ele>
        <time>2019-11-30T15:42:37.000Z</time>
      </trkpt>
      <trkpt lat="43.631" lon="5.31324">
        <ele>269.20001220703</ele>
        <time>2019-11-30T15:42:38.000Z</time>
      </trkpt>
      <trkpt lat="43.63101" lon="5.31316">
        <ele>268.79998779297</ele>
        <time>2019-11-30T15:42:39.000Z</time>
      </trkpt>
      <trkpt lat="43.63104" lon="5.31309">
        <ele>268.60000610352</ele>
        <time>2019-11-30T15:42:40.000Z</time>
      </trkpt>
      <trkpt lat="43.63108" lon="5.31303">
        <ele>268.60000610352</ele>
        <time>2019-11-30T15:42:41.000Z</time>
      </trkpt>
      <trkpt lat="43.63112" lon="5.31297">
        <ele>269.20001220703</ele>
        <time>2019-11-30T15:42:42.000Z</time>
      </trkpt>
      <trkpt lat="43.63116" lon="5.31291">
        <ele>269.39999389648</ele>
        <time>2019-11-30T15:42:43.000Z</time>
      </trkpt>
      <trkpt lat="43.6312" lon="5.31285">
        <ele>269.79998779297</ele>
        <time>2019-11-30T15:42:44.000Z</time>
      </trkpt>
      <trkpt lat="43.63126" lon="5.31277">
        <ele>270</ele>
        <time>2019-11-30T15:42:45.000Z</time>
      </trkpt>
      <trkpt lat="43.63131" lon="5.3127">
        <ele>270.39999389648</ele>
        <time>2019-11-30T15:42:46.000Z</time>
      </trkpt>
      <trkpt lat="43.63135" lon="5.31263">
        <ele>270.79998779297</ele>
        <time>2019-11-30T15:42:47.000Z</time>
      </trkpt>
      <trkpt lat="43.6314" lon="5.31256">
        <ele>271</ele>
        <time>2019-11-30T15:42:48.000Z</time>
      </trkpt>
      <trkpt lat="43.63145" lon="5.3125">
        <ele>271</ele>
        <time>2019-11-30T15:42:49.000Z</time>
      </trkpt>
      <trkpt lat="43.63149" lon="5.31243">
        <ele>270.79998779297</ele>
        <time>2019-11-30T15:42:50.000Z</time>
      </trkpt>
      <trkpt lat="43.63153" lon="5.31232">
        <ele>270.20001220703</ele>
        <time>2019-11-30T15:42:51.000Z</time>
      </trkpt>
      <trkpt lat="43.63153" lon="5.31232">
        <ele>270.20001220703</ele>
        <time>2019-11-30T15:42:52.000Z</time>
      </trkpt>
      <trkpt lat="43.63153" lon="5.31232">
        <ele>270.20001220703</ele>
        <time>2019-11-30T15:42:53.000Z</time>
      </trkpt>
      <trkpt lat="43.63152" lon="5.3123">
        <ele>269.79998779297</ele>
        <time>2019-11-30T15:42:54.000Z</time>
      </trkpt>
      <trkpt lat="43.63151" lon="5.31228">
        <ele>269.60000610352</ele>
        <time>2019-11-30T15:42:55.000Z</time>
      </trkpt>
      <trkpt lat="43.63149" lon="5.31225">
        <ele>269.39999389648</ele>
        <time>2019-11-30T15:42:56.000Z</time>
      </trkpt>
      <trkpt lat="43.63147" lon="5.31219">
        <ele>268.60000610352</ele>
        <time>2019-11-30T15:42:57.000Z</time>
      </trkpt>
      <trkpt lat="43.63144" lon="5.31213">
        <ele>268</ele>
        <time>2019-11-30T15:42:58.000Z</time>
      </trkpt>
      <trkpt lat="43.63141" lon="5.31206">
        <ele>267.60000610352</ele>
        <time>2019-11-30T15:42:59.000Z</time>
      </trkpt>
      <trkpt lat="43.63137" lon="5.312">
        <ele>267.20001220703</ele>
        <time>2019-11-30T15:43:00.000Z</time>
      </trkpt>
      <trkpt lat="43.63134" lon="5.31193">
        <ele>266.79998779297</ele>
        <time>2019-11-30T15:43:01.000Z</time>
      </trkpt>
      <trkpt lat="43.63131" lon="5.31187">
        <ele>266.39999389648</ele>
        <time>2019-11-30T15:43:02.000Z</time>
      </trkpt>
      <trkpt lat="43.63128" lon="5.3118">
        <ele>266</ele>
        <time>2019-11-30T15:43:03.000Z</time>
      </trkpt>
      <trkpt lat="43.63123" lon="5.31175">
        <ele>265.60000610352</ele>
        <time>2019-11-30T15:43:04.000Z</time>
      </trkpt>
      <trkpt lat="43.63118" lon="5.3117">
        <ele>265</ele>
        <time>2019-11-30T15:43:05.000Z</time>
      </trkpt>
      <trkpt lat="43.63112" lon="5.31165">
        <ele>264.60000610352</ele>
        <time>2019-11-30T15:43:06.000Z</time>
      </trkpt>
      <trkpt lat="43.63106" lon="5.3116">
        <ele>264</ele>
        <time>2019-11-30T15:43:07.000Z</time>
      </trkpt>
      <trkpt lat="43.63101" lon="5.31154">
        <ele>263.60000610352</ele>
        <time>2019-11-30T15:43:08.000Z</time>
      </trkpt>
      <trkpt lat="43.63096" lon="5.31146">
        <ele>263.20001220703</ele>
        <time>2019-11-30T15:43:09.000Z</time>
      </trkpt>
      <trkpt lat="43.63091" lon="5.31139">
        <ele>263</ele>
        <time>2019-11-30T15:43:10.000Z</time>
      </trkpt>
      <trkpt lat="43.63085" lon="5.31131">
        <ele>262.60000610352</ele>
        <time>2019-11-30T15:43:11.000Z</time>
      </trkpt>
      <trkpt lat="43.6308" lon="5.31123">
        <ele>262.20001220703</ele>
        <time>2019-11-30T15:43:12.000Z</time>
      </trkpt>
      <trkpt lat="43.63074" lon="5.31116">
        <ele>261.60000610352</ele>
        <time>2019-11-30T15:43:13.000Z</time>
      </trkpt>
      <trkpt lat="43.63069" lon="5.31108">
        <ele>261.20001220703</ele>
        <time>2019-11-30T15:43:14.000Z</time>
      </trkpt>
      <trkpt lat="43.63065" lon="5.31099">
        <ele>260.60000610352</ele>
        <time>2019-11-30T15:43:15.000Z</time>
      </trkpt>
      <trkpt lat="43.63062" lon="5.31088">
        <ele>260</ele>
        <time>2019-11-30T15:43:16.000Z</time>
      </trkpt>
      <trkpt lat="43.63059" lon="5.31077">
        <ele>259.20001220703</ele>
        <time>2019-11-30T15:43:17.000Z</time>
      </trkpt>
      <trkpt lat="43.63056" lon="5.31066">
        <ele>258.39999389648</ele>
        <time>2019-11-30T15:43:18.000Z</time>
      </trkpt>
      <trkpt lat="43.63054" lon="5.31055">
        <ele>257.60000610352</ele>
        <time>2019-11-30T15:43:19.000Z</time>
      </trkpt>
      <trkpt lat="43.63051" lon="5.31044">
        <ele>256.79998779297</ele>
        <time>2019-11-30T15:43:20.000Z</time>
      </trkpt>
      <trkpt lat="43.63048" lon="5.31033">
        <ele>256</ele>
        <time>2019-11-30T15:43:21.000Z</time>
      </trkpt>
      <trkpt lat="43.63045" lon="5.31022">
        <ele>255.19999694824</ele>
        <time>2019-11-30T15:43:22.000Z</time>
      </trkpt>
      <trkpt lat="43.63042" lon="5.3101">
        <ele>254.39999389648</ele>
        <time>2019-11-30T15:43:23.000Z</time>
      </trkpt>
      <trkpt lat="43.63039" lon="5.30998">
        <ele>253.39999389648</ele>
        <time>2019-11-30T15:43:24.000Z</time>
      </trkpt>
      <trkpt lat="43.63036" lon="5.30985">
        <ele>252.60000610352</ele>
        <time>2019-11-30T15:43:25.000Z</time>
      </trkpt>
      <trkpt lat="43.63033" lon="5.30973">
        <ele>251.80000305176</ele>
        <time>2019-11-30T15:43:26.000Z</time>
      </trkpt>
      <trkpt lat="43.6303" lon="5.3096">
        <ele>251</ele>
        <time>2019-11-30T15:43:27.000Z</time>
      </trkpt>
      <trkpt lat="43.63027" lon="5.30948">
        <ele>250.60000610352</ele>
        <time>2019-11-30T15:43:28.000Z</time>
      </trkpt>
      <trkpt lat="43.63024" lon="5.30935">
        <ele>250</ele>
        <time>2019-11-30T15:43:29.000Z</time>
      </trkpt>
      <trkpt lat="43.63021" lon="5.30923">
        <ele>249.60000610352</ele>
        <time>2019-11-30T15:43:30.000Z</time>
      </trkpt>
      <trkpt lat="43.63017" lon="5.3091">
        <ele>249.19999694824</ele>
        <time>2019-11-30T15:43:31.000Z</time>
      </trkpt>
      <trkpt lat="43.63014" lon="5.30897">
        <ele>248.80000305176</ele>
        <time>2019-11-30T15:43:32.000Z</time>
      </trkpt>
      <trkpt lat="43.63011" lon="5.30884">
        <ele>248.39999389648</ele>
        <time>2019-11-30T15:43:33.000Z</time>
      </trkpt>
      <trkpt lat="43.63008" lon="5.30871">
        <ele>248</ele>
        <time>2019-11-30T15:43:34.000Z</time>
      </trkpt>
      <trkpt lat="43.63004" lon="5.30859">
        <ele>247.60000610352</ele>
        <time>2019-11-30T15:43:35.000Z</time>
      </trkpt>
      <trkpt lat="43.62999" lon="5.30847">
        <ele>247</ele>
        <time>2019-11-30T15:43:36.000Z</time>
      </trkpt>
      <trkpt lat="43.62995" lon="5.30835">
        <ele>246.60000610352</ele>
        <time>2019-11-30T15:43:37.000Z</time>
      </trkpt>
      <trkpt lat="43.62991" lon="5.30823">
        <ele>246.19999694824</ele>
        <time>2019-11-30T15:43:38.000Z</time>
      </trkpt>
      <trkpt lat="43.62988" lon="5.30811">
        <ele>245.80000305176</ele>
        <time>2019-11-30T15:43:39.000Z</time>
      </trkpt>
      <trkpt lat="43.62984" lon="5.30799">
        <ele>245.39999389648</ele>
        <time>2019-11-30T15:43:40.000Z</time>
      </trkpt>
      <trkpt lat="43.6298" lon="5.30788">
        <ele>245</ele>
        <time>2019-11-30T15:43:41.000Z</time>
      </trkpt>
      <trkpt lat="43.62976" lon="5.30777">
        <ele>244.80000305176</ele>
        <time>2019-11-30T15:43:42.000Z</time>
      </trkpt>
      <trkpt lat="43.62973" lon="5.30766">
        <ele>244.60000610352</ele>
        <time>2019-11-30T15:43:43.000Z</time>
      </trkpt>
      <trkpt lat="43.62969" lon="5.30755">
        <ele>244.19999694824</ele>
        <time>2019-11-30T15:43:44.000Z</time>
      </trkpt>
      <trkpt lat="43.62965" lon="5.30744">
        <ele>244</ele>
        <time>2019-11-30T15:43:45.000Z</time>
      </trkpt>
      <trkpt lat="43.62959" lon="5.30735">
        <ele>244</ele>
        <time>2019-11-30T15:43:46.000Z</time>
      </trkpt>
      <trkpt lat="43.62954" lon="5.30725">
        <ele>244</ele>
        <time>2019-11-30T15:43:47.000Z</time>
      </trkpt>
      <trkpt lat="43.62949" lon="5.30716">
        <ele>244</ele>
        <time>2019-11-30T15:43:48.000Z</time>
      </trkpt>
      <trkpt lat="43.62944" lon="5.30708">
        <ele>243.80000305176</ele>
        <time>2019-11-30T15:43:49.000Z</time>
      </trkpt>
      <trkpt lat="43.62939" lon="5.30699">
        <ele>243.39999389648</ele>
        <time>2019-11-30T15:43:50.000Z</time>
      </trkpt>
      <trkpt lat="43.62934" lon="5.3069">
        <ele>243.19999694824</ele>
        <time>2019-11-30T15:43:51.000Z</time>
      </trkpt>
      <trkpt lat="43.62929" lon="5.30681">
        <ele>242.80000305176</ele>
        <time>2019-11-30T15:43:52.000Z</time>
      </trkpt>
      <trkpt lat="43.62923" lon="5.30672">
        <ele>242.39999389648</ele>
        <time>2019-11-30T15:43:53.000Z</time>
      </trkpt>
      <trkpt lat="43.62917" lon="5.30665">
        <ele>242</ele>
        <time>2019-11-30T15:43:54.000Z</time>
      </trkpt>
      <trkpt lat="43.62911" lon="5.30658">
        <ele>241.80000305176</ele>
        <time>2019-11-30T15:43:55.000Z</time>
      </trkpt>
      <trkpt lat="43.62905" lon="5.30652">
        <ele>241.39999389648</ele>
        <time>2019-11-30T15:43:56.000Z</time>
      </trkpt>
      <trkpt lat="43.62899" lon="5.30645">
        <ele>241.19999694824</ele>
        <time>2019-11-30T15:43:57.000Z</time>
      </trkpt>
      <trkpt lat="43.62893" lon="5.30639">
        <ele>240.80000305176</ele>
        <time>2019-11-30T15:43:58.000Z</time>
      </trkpt>
      <trkpt lat="43.62888" lon="5.30633">
        <ele>240.60000610352</ele>
        <time>2019-11-30T15:43:59.000Z</time>
      </trkpt>
      <trkpt lat="43.62882" lon="5.30627">
        <ele>240.19999694824</ele>
        <time>2019-11-30T15:44:00.000Z</time>
      </trkpt>
      <trkpt lat="43.62877" lon="5.30621">
        <ele>240</ele>
        <time>2019-11-30T15:44:01.000Z</time>
      </trkpt>
      <trkpt lat="43.62876" lon="5.30614">
        <ele>240</ele>
        <time>2019-11-30T15:44:02.000Z</time>
      </trkpt>
      <trkpt lat="43.62877" lon="5.30606">
        <ele>239.80000305176</ele>
        <time>2019-11-30T15:44:03.000Z</time>
      </trkpt>
      <trkpt lat="43.62877" lon="5.30598">
        <ele>239.60000610352</ele>
        <time>2019-11-30T15:44:04.000Z</time>
      </trkpt>
      <trkpt lat="43.6288" lon="5.30591">
        <ele>239.39999389648</ele>
        <time>2019-11-30T15:44:05.000Z</time>
      </trkpt>
      <trkpt lat="43.62882" lon="5.30584">
        <ele>239.19999694824</ele>
        <time>2019-11-30T15:44:06.000Z</time>
      </trkpt>
      <trkpt lat="43.62885" lon="5.30578">
        <ele>239.19999694824</ele>
        <time>2019-11-30T15:44:07.000Z</time>
      </trkpt>
      <trkpt lat="43.62887" lon="5.30572">
        <ele>239</ele>
        <time>2019-11-30T15:44:08.000Z</time>
      </trkpt>
      <trkpt lat="43.62889" lon="5.30566">
        <ele>239</ele>
        <time>2019-11-30T15:44:09.000Z</time>
      </trkpt>
      <trkpt lat="43.62888" lon="5.30558">
        <ele>238.80000305176</ele>
        <time>2019-11-30T15:44:10.000Z</time>
      </trkpt>
      <trkpt lat="43.62885" lon="5.30552">
        <ele>238.60000610352</ele>
        <time>2019-11-30T15:44:11.000Z</time>
      </trkpt>
      <trkpt lat="43.62882" lon="5.30546">
        <ele>238.39999389648</ele>
        <time>2019-11-30T15:44:12.000Z</time>
      </trkpt>
      <trkpt lat="43.62879" lon="5.3054">
        <ele>238.19999694824</ele>
        <time>2019-11-30T15:44:13.000Z</time>
      </trkpt>
      <trkpt lat="43.62876" lon="5.30534">
        <ele>238</ele>
        <time>2019-11-30T15:44:14.000Z</time>
      </trkpt>
      <trkpt lat="43.62873" lon="5.30526">
        <ele>237.80000305176</ele>
        <time>2019-11-30T15:44:15.000Z</time>
      </trkpt>
      <trkpt lat="43.6287" lon="5.30519">
        <ele>237.60000610352</ele>
        <time>2019-11-30T15:44:16.000Z</time>
      </trkpt>
      <trkpt lat="43.62866" lon="5.30511">
        <ele>237.39999389648</ele>
        <time>2019-11-30T15:44:17.000Z</time>
      </trkpt>
      <trkpt lat="43.62863" lon="5.30503">
        <ele>237</ele>
        <time>2019-11-30T15:44:18.000Z</time>
      </trkpt>
      <trkpt lat="43.62859" lon="5.30495">
        <ele>236.80000305176</ele>
        <time>2019-11-30T15:44:19.000Z</time>
      </trkpt>
      <trkpt lat="43.62856" lon="5.30487">
        <ele>236.60000610352</ele>
        <time>2019-11-30T15:44:20.000Z</time>
      </trkpt>
      <trkpt lat="43.62852" lon="5.30479">
        <ele>236.39999389648</ele>
        <time>2019-11-30T15:44:21.000Z</time>
      </trkpt>
      <trkpt lat="43.62849" lon="5.30471">
        <ele>236.19999694824</ele>
        <time>2019-11-30T15:44:22.000Z</time>
      </trkpt>
      <trkpt lat="43.62845" lon="5.30463">
        <ele>235.80000305176</ele>
        <time>2019-11-30T15:44:23.000Z</time>
      </trkpt>
      <trkpt lat="43.62841" lon="5.30455">
        <ele>235.39999389648</ele>
        <time>2019-11-30T15:44:24.000Z</time>
      </trkpt>
      <trkpt lat="43.62838" lon="5.30446">
        <ele>235</ele>
        <time>2019-11-30T15:44:25.000Z</time>
      </trkpt>
      <trkpt lat="43.62834" lon="5.30438">
        <ele>234.60000610352</ele>
        <time>2019-11-30T15:44:26.000Z</time>
      </trkpt>
      <trkpt lat="43.62832" lon="5.30428">
        <ele>234</ele>
        <time>2019-11-30T15:44:27.000Z</time>
      </trkpt>
      <trkpt lat="43.62831" lon="5.30419">
        <ele>233.60000610352</ele>
        <time>2019-11-30T15:44:28.000Z</time>
      </trkpt>
      <trkpt lat="43.62831" lon="5.3041">
        <ele>233.19999694824</ele>
        <time>2019-11-30T15:44:29.000Z</time>
      </trkpt>
      <trkpt lat="43.62831" lon="5.30403">
        <ele>232.80000305176</ele>
        <time>2019-11-30T15:44:30.000Z</time>
      </trkpt>
      <trkpt lat="43.6283" lon="5.30398">
        <ele>232.60000610352</ele>
        <time>2019-11-30T15:44:31.000Z</time>
      </trkpt>
      <trkpt lat="43.6283" lon="5.30392">
        <ele>232.39999389648</ele>
        <time>2019-11-30T15:44:32.000Z</time>
      </trkpt>
      <trkpt lat="43.6283" lon="5.30389">
        <ele>232.19999694824</ele>
        <time>2019-11-30T15:44:33.000Z</time>
      </trkpt>
      <trkpt lat="43.6283" lon="5.30389">
        <ele>232.19999694824</ele>
        <time>2019-11-30T15:44:34.000Z</time>
      </trkpt>
      <trkpt lat="43.6283" lon="5.30389">
        <ele>232.19999694824</ele>
        <time>2019-11-30T15:44:35.000Z</time>
      </trkpt>
      <trkpt lat="43.62819" lon="5.30364">
        <ele>230.80000305176</ele>
        <time>2019-11-30T15:44:36.000Z</time>
      </trkpt>
      <trkpt lat="43.62814" lon="5.30359">
        <ele>230.60000610352</ele>
        <time>2019-11-30T15:44:37.000Z</time>
      </trkpt>
      <trkpt lat="43.62808" lon="5.30354">
        <ele>230.19999694824</ele>
        <time>2019-11-30T15:44:38.000Z</time>
      </trkpt>
      <trkpt lat="43.62802" lon="5.30349">
        <ele>229.80000305176</ele>
        <time>2019-11-30T15:44:39.000Z</time>
      </trkpt>
      <trkpt lat="43.62796" lon="5.30343">
        <ele>229.60000610352</ele>
        <time>2019-11-30T15:44:40.000Z</time>
      </trkpt>
      <trkpt lat="43.6279" lon="5.30337">
        <ele>229.19999694824</ele>
        <time>2019-11-30T15:44:41.000Z</time>
      </trkpt>
      <trkpt lat="43.62784" lon="5.30336">
        <ele>229</ele>
        <time>2019-11-30T15:44:42.000Z</time>
      </trkpt>
      <trkpt lat="43.6278" lon="5.30332">
        <ele>228.80000305176</ele>
        <time>2019-11-30T15:44:43.000Z</time>
      </trkpt>
      <trkpt lat="43.62774" lon="5.30327">
        <ele>228.60000610352</ele>
        <time>2019-11-30T15:44:44.000Z</time>
      </trkpt>
      <trkpt lat="43.62767" lon="5.30322">
        <ele>228.19999694824</ele>
        <time>2019-11-30T15:44:45.000Z</time>
      </trkpt>
      <trkpt lat="43.62762" lon="5.30317">
        <ele>228.39999389648</ele>
        <time>2019-11-30T15:44:46.000Z</time>
      </trkpt>
      <trkpt lat="43.62755" lon="5.30311">
        <ele>228.39999389648</ele>
        <time>2019-11-30T15:44:47.000Z</time>
      </trkpt>
      <trkpt lat="43.62749" lon="5.30306">
        <ele>228.39999389648</ele>
        <time>2019-11-30T15:44:48.000Z</time>
      </trkpt>
      <trkpt lat="43.62742" lon="5.30301">
        <ele>228.39999389648</ele>
        <time>2019-11-30T15:44:49.000Z</time>
      </trkpt>
      <trkpt lat="43.62736" lon="5.30295">
        <ele>228.60000610352</ele>
        <time>2019-11-30T15:44:50.000Z</time>
      </trkpt>
      <trkpt lat="43.6273" lon="5.3029">
        <ele>228.60000610352</ele>
        <time>2019-11-30T15:44:51.000Z</time>
      </trkpt>
      <trkpt lat="43.62723" lon="5.30284">
        <ele>228.80000305176</ele>
        <time>2019-11-30T15:44:52.000Z</time>
      </trkpt>
      <trkpt lat="43.62717" lon="5.30279">
        <ele>228.80000305176</ele>
        <time>2019-11-30T15:44:53.000Z</time>
      </trkpt>
      <trkpt lat="43.62711" lon="5.30273">
        <ele>229</ele>
        <time>2019-11-30T15:44:54.000Z</time>
      </trkpt>
      <trkpt lat="43.62704" lon="5.30268">
        <ele>229</ele>
        <time>2019-11-30T15:44:55.000Z</time>
      </trkpt>
      <trkpt lat="43.62697" lon="5.30262">
        <ele>229.19999694824</ele>
        <time>2019-11-30T15:44:56.000Z</time>
      </trkpt>
      <trkpt lat="43.62691" lon="5.30257">
        <ele>229.39999389648</ele>
        <time>2019-11-30T15:44:57.000Z</time>
      </trkpt>
      <trkpt lat="43.62684" lon="5.30251">
        <ele>229.39999389648</ele>
        <time>2019-11-30T15:44:58.000Z</time>
      </trkpt>
      <trkpt lat="43.62678" lon="5.30246">
        <ele>229</ele>
        <time>2019-11-30T15:44:59.000Z</time>
      </trkpt>
      <trkpt lat="43.62671" lon="5.30238">
        <ele>228.80000305176</ele>
        <time>2019-11-30T15:45:00.000Z</time>
      </trkpt>
      <trkpt lat="43.62666" lon="5.3023">
        <ele>228.39999389648</ele>
        <time>2019-11-30T15:45:01.000Z</time>
      </trkpt>
      <trkpt lat="43.62662" lon="5.30221">
        <ele>228</ele>
        <time>2019-11-30T15:45:02.000Z</time>
      </trkpt>
      <trkpt lat="43.62657" lon="5.30213">
        <ele>227.60000610352</ele>
        <time>2019-11-30T15:45:03.000Z</time>
      </trkpt>
      <trkpt lat="43.62652" lon="5.30204">
        <ele>227.39999389648</ele>
        <time>2019-11-30T15:45:04.000Z</time>
      </trkpt>
      <trkpt lat="43.62648" lon="5.30196">
        <ele>227.19999694824</ele>
        <time>2019-11-30T15:45:05.000Z</time>
      </trkpt>
      <trkpt lat="43.62643" lon="5.30187">
        <ele>226.80000305176</ele>
        <time>2019-11-30T15:45:06.000Z</time>
      </trkpt>
      <trkpt lat="43.62639" lon="5.30178">
        <ele>226.60000610352</ele>
        <time>2019-11-30T15:45:07.000Z</time>
      </trkpt>
      <trkpt lat="43.62636" lon="5.30168">
        <ele>226.39999389648</ele>
        <time>2019-11-30T15:45:08.000Z</time>
      </trkpt>
      <trkpt lat="43.62632" lon="5.30159">
        <ele>226</ele>
        <time>2019-11-30T15:45:09.000Z</time>
      </trkpt>
      <trkpt lat="43.62628" lon="5.3015">
        <ele>225.60000610352</ele>
        <time>2019-11-30T15:45:10.000Z</time>
      </trkpt>
      <trkpt lat="43.62625" lon="5.3014">
        <ele>225</ele>
        <time>2019-11-30T15:45:11.000Z</time>
      </trkpt>
      <trkpt lat="43.62621" lon="5.30131">
        <ele>224.60000610352</ele>
        <time>2019-11-30T15:45:12.000Z</time>
      </trkpt>
      <trkpt lat="43.62618" lon="5.30122">
        <ele>224.39999389648</ele>
        <time>2019-11-30T15:45:13.000Z</time>
      </trkpt>
      <trkpt lat="43.62614" lon="5.30114">
        <ele>224.19999694824</ele>
        <time>2019-11-30T15:45:14.000Z</time>
      </trkpt>
      <trkpt lat="43.62609" lon="5.30105">
        <ele>224</ele>
        <time>2019-11-30T15:45:15.000Z</time>
      </trkpt>
      <trkpt lat="43.62605" lon="5.30097">
        <ele>223.80000305176</ele>
        <time>2019-11-30T15:45:16.000Z</time>
      </trkpt>
      <trkpt lat="43.626" lon="5.30089">
        <ele>223.39999389648</ele>
        <time>2019-11-30T15:45:17.000Z</time>
      </trkpt>
      <trkpt lat="43.62596" lon="5.3008">
        <ele>223</ele>
        <time>2019-11-30T15:45:18.000Z</time>
      </trkpt>
      <trkpt lat="43.62591" lon="5.30072">
        <ele>222.60000610352</ele>
        <time>2019-11-30T15:45:19.000Z</time>
      </trkpt>
      <trkpt lat="43.62587" lon="5.30063">
        <ele>222.19999694824</ele>
        <time>2019-11-30T15:45:20.000Z</time>
      </trkpt>
      <trkpt lat="43.62582" lon="5.30055">
        <ele>221.80000305176</ele>
        <time>2019-11-30T15:45:21.000Z</time>
      </trkpt>
      <trkpt lat="43.62576" lon="5.30049">
        <ele>221.39999389648</ele>
        <time>2019-11-30T15:45:22.000Z</time>
      </trkpt>
      <trkpt lat="43.6257" lon="5.30042">
        <ele>221.19999694824</ele>
        <time>2019-11-30T15:45:23.000Z</time>
      </trkpt>
      <trkpt lat="43.62564" lon="5.30035">
        <ele>220.80000305176</ele>
        <time>2019-11-30T15:45:24.000Z</time>
      </trkpt>
      <trkpt lat="43.62558" lon="5.30029">
        <ele>220.60000610352</ele>
        <time>2019-11-30T15:45:25.000Z</time>
      </trkpt>
      <trkpt lat="43.62551" lon="5.30023">
        <ele>220.19999694824</ele>
        <time>2019-11-30T15:45:26.000Z</time>
      </trkpt>
      <trkpt lat="43.62545" lon="5.30019">
        <ele>220</ele>
        <time>2019-11-30T15:45:27.000Z</time>
      </trkpt>
      <trkpt lat="43.62538" lon="5.30014">
        <ele>219.60000610352</ele>
        <time>2019-11-30T15:45:28.000Z</time>
      </trkpt>
      <trkpt lat="43.62532" lon="5.3001">
        <ele>219.39999389648</ele>
        <time>2019-11-30T15:45:29.000Z</time>
      </trkpt>
      <trkpt lat="43.62525" lon="5.30005">
        <ele>219.19999694824</ele>
        <time>2019-11-30T15:45:30.000Z</time>
      </trkpt>
      <trkpt lat="43.62519" lon="5.30001">
        <ele>218.80000305176</ele>
        <time>2019-11-30T15:45:31.000Z</time>
      </trkpt>
      <trkpt lat="43.62512" lon="5.29996">
        <ele>218.60000610352</ele>
        <time>2019-11-30T15:45:32.000Z</time>
      </trkpt>
      <trkpt lat="43.62506" lon="5.29992">
        <ele>218.39999389648</ele>
        <time>2019-11-30T15:45:33.000Z</time>
      </trkpt>
      <trkpt lat="43.62498" lon="5.29989">
        <ele>218.19999694824</ele>
        <time>2019-11-30T15:45:34.000Z</time>
      </trkpt>
      <trkpt lat="43.62491" lon="5.29986">
        <ele>217.80000305176</ele>
        <time>2019-11-30T15:45:35.000Z</time>
      </trkpt>
      <trkpt lat="43.62484" lon="5.29982">
        <ele>217.60000610352</ele>
        <time>2019-11-30T15:45:36.000Z</time>
      </trkpt>
      <trkpt lat="43.62476" lon="5.29979">
        <ele>217.39999389648</ele>
        <time>2019-11-30T15:45:37.000Z</time>
      </trkpt>
      <trkpt lat="43.62469" lon="5.29976">
        <ele>217</ele>
        <time>2019-11-30T15:45:38.000Z</time>
      </trkpt>
      <trkpt lat="43.62461" lon="5.29972">
        <ele>216.80000305176</ele>
        <time>2019-11-30T15:45:39.000Z</time>
      </trkpt>
      <trkpt lat="43.62453" lon="5.29969">
        <ele>216.60000610352</ele>
        <time>2019-11-30T15:45:40.000Z</time>
      </trkpt>
      <trkpt lat="43.62445" lon="5.29965">
        <ele>216.19999694824</ele>
        <time>2019-11-30T15:45:41.000Z</time>
      </trkpt>
      <trkpt lat="43.62438" lon="5.29962">
        <ele>216</ele>
        <time>2019-11-30T15:45:42.000Z</time>
      </trkpt>
      <trkpt lat="43.6243" lon="5.29958">
        <ele>215.80000305176</ele>
        <time>2019-11-30T15:45:43.000Z</time>
      </trkpt>
      <trkpt lat="43.62422" lon="5.29954">
        <ele>215.60000610352</ele>
        <time>2019-11-30T15:45:44.000Z</time>
      </trkpt>
      <trkpt lat="43.62414" lon="5.29951">
        <ele>215.19999694824</ele>
        <time>2019-11-30T15:45:45.000Z</time>
      </trkpt>
      <trkpt lat="43.62406" lon="5.29947">
        <ele>215</ele>
        <time>2019-11-30T15:45:46.000Z</time>
      </trkpt>
      <trkpt lat="43.62398" lon="5.29944">
        <ele>214.60000610352</ele>
        <time>2019-11-30T15:45:47.000Z</time>
      </trkpt>
      <trkpt lat="43.62391" lon="5.2994">
        <ele>214.39999389648</ele>
        <time>2019-11-30T15:45:48.000Z</time>
      </trkpt>
      <trkpt lat="43.62383" lon="5.29937">
        <ele>214.19999694824</ele>
        <time>2019-11-30T15:45:49.000Z</time>
      </trkpt>
      <trkpt lat="43.62375" lon="5.29933">
        <ele>213.80000305176</ele>
        <time>2019-11-30T15:45:50.000Z</time>
      </trkpt>
      <trkpt lat="43.62368" lon="5.2993">
        <ele>213.60000610352</ele>
        <time>2019-11-30T15:45:51.000Z</time>
      </trkpt>
      <trkpt lat="43.62361" lon="5.29927">
        <ele>213.39999389648</ele>
        <time>2019-11-30T15:45:52.000Z</time>
      </trkpt>
      <trkpt lat="43.62354" lon="5.29923">
        <ele>213</ele>
        <time>2019-11-30T15:45:53.000Z</time>
      </trkpt>
      <trkpt lat="43.62347" lon="5.2992">
        <ele>213</ele>
        <time>2019-11-30T15:45:54.000Z</time>
      </trkpt>
      <trkpt lat="43.6234" lon="5.29917">
        <ele>212.80000305176</ele>
        <time>2019-11-30T15:45:55.000Z</time>
      </trkpt>
      <trkpt lat="43.62333" lon="5.29914">
        <ele>212.80000305176</ele>
        <time>2019-11-30T15:45:56.000Z</time>
      </trkpt>
      <trkpt lat="43.62326" lon="5.29911">
        <ele>212.60000610352</ele>
        <time>2019-11-30T15:45:57.000Z</time>
      </trkpt>
      <trkpt lat="43.62319" lon="5.29909">
        <ele>212.60000610352</ele>
        <time>2019-11-30T15:45:58.000Z</time>
      </trkpt>
      <trkpt lat="43.62312" lon="5.29906">
        <ele>212.60000610352</ele>
        <time>2019-11-30T15:45:59.000Z</time>
      </trkpt>
      <trkpt lat="43.62306" lon="5.29904">
        <ele>212.39999389648</ele>
        <time>2019-11-30T15:46:00.000Z</time>
      </trkpt>
      <trkpt lat="43.623" lon="5.29901">
        <ele>212.39999389648</ele>
        <time>2019-11-30T15:46:01.000Z</time>
      </trkpt>
      <trkpt lat="43.62294" lon="5.29899">
        <ele>212.19999694824</ele>
        <time>2019-11-30T15:46:02.000Z</time>
      </trkpt>
      <trkpt lat="43.62288" lon="5.29897">
        <ele>212.19999694824</ele>
        <time>2019-11-30T15:46:03.000Z</time>
      </trkpt>
      <trkpt lat="43.62282" lon="5.29894">
        <ele>212.19999694824</ele>
        <time>2019-11-30T15:46:04.000Z</time>
      </trkpt>
      <trkpt lat="43.62276" lon="5.29892">
        <ele>212.19999694824</ele>
        <time>2019-11-30T15:46:05.000Z</time>
      </trkpt>
      <trkpt lat="43.6227" lon="5.29889">
        <ele>212.19999694824</ele>
        <time>2019-11-30T15:46:06.000Z</time>
      </trkpt>
      <trkpt lat="43.62264" lon="5.29886">
        <ele>212</ele>
        <time>2019-11-30T15:46:07.000Z</time>
      </trkpt>
      <trkpt lat="43.62257" lon="5.29883">
        <ele>212</ele>
        <time>2019-11-30T15:46:08.000Z</time>
      </trkpt>
      <trkpt lat="43.62251" lon="5.2988">
        <ele>211.80000305176</ele>
        <time>2019-11-30T15:46:09.000Z</time>
      </trkpt>
      <trkpt lat="43.62245" lon="5.29877">
        <ele>211.80000305176</ele>
        <time>2019-11-30T15:46:10.000Z</time>
      </trkpt>
      <trkpt lat="43.62239" lon="5.29875">
        <ele>211.60000610352</ele>
        <time>2019-11-30T15:46:11.000Z</time>
      </trkpt>
      <trkpt lat="43.62233" lon="5.29872">
        <ele>211.60000610352</ele>
        <time>2019-11-30T15:46:12.000Z</time>
      </trkpt>
      <trkpt lat="43.62227" lon="5.29869">
        <ele>211.39999389648</ele>
        <time>2019-11-30T15:46:13.000Z</time>
      </trkpt>
      <trkpt lat="43.62221" lon="5.29867">
        <ele>211.39999389648</ele>
        <time>2019-11-30T15:46:14.000Z</time>
      </trkpt>
      <trkpt lat="43.62215" lon="5.29864">
        <ele>211.39999389648</ele>
        <time>2019-11-30T15:46:15.000Z</time>
      </trkpt>
      <trkpt lat="43.62209" lon="5.29862">
        <ele>211.19999694824</ele>
        <time>2019-11-30T15:46:16.000Z</time>
      </trkpt>
      <trkpt lat="43.62203" lon="5.29859">
        <ele>211.19999694824</ele>
        <time>2019-11-30T15:46:17.000Z</time>
      </trkpt>
      <trkpt lat="43.62197" lon="5.29856">
        <ele>211.19999694824</ele>
        <time>2019-11-30T15:46:18.000Z</time>
      </trkpt>
      <trkpt lat="43.62191" lon="5.29852">
        <ele>211</ele>
        <time>2019-11-30T15:46:19.000Z</time>
      </trkpt>
      <trkpt lat="43.62185" lon="5.29849">
        <ele>211</ele>
        <time>2019-11-30T15:46:20.000Z</time>
      </trkpt>
      <trkpt lat="43.62179" lon="5.29846">
        <ele>211</ele>
        <time>2019-11-30T15:46:21.000Z</time>
      </trkpt>
      <trkpt lat="43.62174" lon="5.29843">
        <ele>211.19999694824</ele>
        <time>2019-11-30T15:46:22.000Z</time>
      </trkpt>
      <trkpt lat="43.62168" lon="5.2984">
        <ele>211.19999694824</ele>
        <time>2019-11-30T15:46:23.000Z</time>
      </trkpt>
      <trkpt lat="43.62161" lon="5.29837">
        <ele>211.19999694824</ele>
        <time>2019-11-30T15:46:24.000Z</time>
      </trkpt>
      <trkpt lat="43.62155" lon="5.29834">
        <ele>211.39999389648</ele>
        <time>2019-11-30T15:46:25.000Z</time>
      </trkpt>
      <trkpt lat="43.62149" lon="5.2983">
        <ele>211.39999389648</ele>
        <time>2019-11-30T15:46:26.000Z</time>
      </trkpt>
      <trkpt lat="43.62143" lon="5.29827">
        <ele>211.60000610352</ele>
        <time>2019-11-30T15:46:27.000Z</time>
      </trkpt>
      <trkpt lat="43.62137" lon="5.29824">
        <ele>211.60000610352</ele>
        <time>2019-11-30T15:46:28.000Z</time>
      </trkpt>
      <trkpt lat="43.62132" lon="5.29821">
        <ele>211.60000610352</ele>
        <time>2019-11-30T15:46:29.000Z</time>
      </trkpt>
      <trkpt lat="43.62127" lon="5.29818">
        <ele>211.80000305176</ele>
        <time>2019-11-30T15:46:30.000Z</time>
      </trkpt>
      <trkpt lat="43.62123" lon="5.29816">
        <ele>211.80000305176</ele>
        <time>2019-11-30T15:46:31.000Z</time>
      </trkpt>
      <trkpt lat="43.6212" lon="5.29815">
        <ele>211.80000305176</ele>
        <time>2019-11-30T15:46:32.000Z</time>
      </trkpt>
      <trkpt lat="43.62119" lon="5.29814">
        <ele>211.80000305176</ele>
        <time>2019-11-30T15:46:33.000Z</time>
      </trkpt>
      <trkpt lat="43.62119" lon="5.29814">
        <ele>211.80000305176</ele>
        <time>2019-11-30T15:46:34.000Z</time>
      </trkpt>
      <trkpt lat="43.62118" lon="5.29814">
        <ele>211.80000305176</ele>
        <time>2019-11-30T15:46:35.000Z</time>
      </trkpt>
      <trkpt lat="43.62119" lon="5.29814">
        <ele>211.80000305176</ele>
        <time>2019-11-30T15:46:36.000Z</time>
      </trkpt>
      <trkpt lat="43.62112" lon="5.29807">
        <ele>211.80000305176</ele>
        <time>2019-11-30T15:46:37.000Z</time>
      </trkpt>
      <trkpt lat="43.62111" lon="5.29808">
        <ele>211.80000305176</ele>
        <time>2019-11-30T15:46:38.000Z</time>
      </trkpt>
      <trkpt lat="43.6211" lon="5.2981">
        <ele>211.80000305176</ele>
        <time>2019-11-30T15:46:39.000Z</time>
      </trkpt>
      <trkpt lat="43.62119" lon="5.29815">
        <ele>211.80000305176</ele>
        <time>2019-11-30T15:46:40.000Z</time>
      </trkpt>
      <trkpt lat="43.62118" lon="5.29814">
        <ele>211.80000305176</ele>
        <time>2019-11-30T15:46:41.000Z</time>
      </trkpt>
      <trkpt lat="43.62105" lon="5.29819">
        <ele>211.80000305176</ele>
        <time>2019-11-30T15:46:42.000Z</time>
      </trkpt>
      <trkpt lat="43.62102" lon="5.29823">
        <ele>211.60000610352</ele>
        <time>2019-11-30T15:46:43.000Z</time>
      </trkpt>
      <trkpt lat="43.62101" lon="5.29826">
        <ele>211.60000610352</ele>
        <time>2019-11-30T15:46:44.000Z</time>
      </trkpt>
      <trkpt lat="43.62098" lon="5.29827">
        <ele>211.39999389648</ele>
        <time>2019-11-30T15:46:45.000Z</time>
      </trkpt>
      <trkpt lat="43.62094" lon="5.29827">
        <ele>211.39999389648</ele>
        <time>2019-11-30T15:46:46.000Z</time>
      </trkpt>
      <trkpt lat="43.62091" lon="5.29826">
        <ele>211.19999694824</ele>
        <time>2019-11-30T15:46:47.000Z</time>
      </trkpt>
      <trkpt lat="43.62088" lon="5.29826">
        <ele>211.19999694824</ele>
        <time>2019-11-30T15:46:48.000Z</time>
      </trkpt>
      <trkpt lat="43.62085" lon="5.29825">
        <ele>211</ele>
        <time>2019-11-30T15:46:49.000Z</time>
      </trkpt>
      <trkpt lat="43.62083" lon="5.29825">
        <ele>211</ele>
        <time>2019-11-30T15:46:50.000Z</time>
      </trkpt>
      <trkpt lat="43.6208" lon="5.29825">
        <ele>210.80000305176</ele>
        <time>2019-11-30T15:46:51.000Z</time>
      </trkpt>
      <trkpt lat="43.62078" lon="5.29824">
        <ele>210.80000305176</ele>
        <time>2019-11-30T15:46:52.000Z</time>
      </trkpt>
      <trkpt lat="43.62075" lon="5.29824">
        <ele>210.60000610352</ele>
        <time>2019-11-30T15:46:53.000Z</time>
      </trkpt>
      <trkpt lat="43.62071" lon="5.29824">
        <ele>210.60000610352</ele>
        <time>2019-11-30T15:46:54.000Z</time>
      </trkpt>
      <trkpt lat="43.62068" lon="5.29823">
        <ele>210.39999389648</ele>
        <time>2019-11-30T15:46:55.000Z</time>
      </trkpt>
      <trkpt lat="43.62065" lon="5.29823">
        <ele>210.39999389648</ele>
        <time>2019-11-30T15:46:56.000Z</time>
      </trkpt>
      <trkpt lat="43.62061" lon="5.29822">
        <ele>210.19999694824</ele>
        <time>2019-11-30T15:46:57.000Z</time>
      </trkpt>
      <trkpt lat="43.62057" lon="5.29822">
        <ele>210</ele>
        <time>2019-11-30T15:46:58.000Z</time>
      </trkpt>
      <trkpt lat="43.62054" lon="5.29821">
        <ele>210</ele>
        <time>2019-11-30T15:46:59.000Z</time>
      </trkpt>
      <trkpt lat="43.62049" lon="5.29821">
        <ele>209.80000305176</ele>
        <time>2019-11-30T15:47:00.000Z</time>
      </trkpt>
      <trkpt lat="43.62045" lon="5.2982">
        <ele>209.60000610352</ele>
        <time>2019-11-30T15:47:01.000Z</time>
      </trkpt>
      <trkpt lat="43.6204" lon="5.2982">
        <ele>209.60000610352</ele>
        <time>2019-11-30T15:47:02.000Z</time>
      </trkpt>
      <trkpt lat="43.62036" lon="5.29821">
        <ele>209.39999389648</ele>
        <time>2019-11-30T15:47:03.000Z</time>
      </trkpt>
      <trkpt lat="43.62032" lon="5.29822">
        <ele>209.39999389648</ele>
        <time>2019-11-30T15:47:04.000Z</time>
      </trkpt>
      <trkpt lat="43.62029" lon="5.29823">
        <ele>209.39999389648</ele>
        <time>2019-11-30T15:47:05.000Z</time>
      </trkpt>
      <trkpt lat="43.62026" lon="5.29825">
        <ele>209.39999389648</ele>
        <time>2019-11-30T15:47:06.000Z</time>
      </trkpt>
      <trkpt lat="43.62022" lon="5.29827">
        <ele>209.39999389648</ele>
        <time>2019-11-30T15:47:07.000Z</time>
      </trkpt>
      <trkpt lat="43.62017" lon="5.2983">
        <ele>209.39999389648</ele>
        <time>2019-11-30T15:47:08.000Z</time>
      </trkpt>
      <trkpt lat="43.62011" lon="5.29833">
        <ele>209</ele>
        <time>2019-11-30T15:47:09.000Z</time>
      </trkpt>
      <trkpt lat="43.62006" lon="5.29835">
        <ele>208.80000305176</ele>
        <time>2019-11-30T15:47:10.000Z</time>
      </trkpt>
      <trkpt lat="43.62" lon="5.29838">
        <ele>208.60000610352</ele>
        <time>2019-11-30T15:47:11.000Z</time>
      </trkpt>
      <trkpt lat="43.61995" lon="5.29841">
        <ele>208.39999389648</ele>
        <time>2019-11-30T15:47:12.000Z</time>
      </trkpt>
      <trkpt lat="43.6199" lon="5.29844">
        <ele>208.19999694824</ele>
        <time>2019-11-30T15:47:13.000Z</time>
      </trkpt>
      <trkpt lat="43.61985" lon="5.29847">
        <ele>208</ele>
        <time>2019-11-30T15:47:14.000Z</time>
      </trkpt>
      <trkpt lat="43.61979" lon="5.2985">
        <ele>207.80000305176</ele>
        <time>2019-11-30T15:47:15.000Z</time>
      </trkpt>
      <trkpt lat="43.61974" lon="5.29853">
        <ele>207.60000610352</ele>
        <time>2019-11-30T15:47:16.000Z</time>
      </trkpt>
      <trkpt lat="43.61967" lon="5.29856">
        <ele>207.19999694824</ele>
        <time>2019-11-30T15:47:17.000Z</time>
      </trkpt>
      <trkpt lat="43.6196" lon="5.2986">
        <ele>207</ele>
        <time>2019-11-30T15:47:18.000Z</time>
      </trkpt>
      <trkpt lat="43.61952" lon="5.29859">
        <ele>206.60000610352</ele>
        <time>2019-11-30T15:47:19.000Z</time>
      </trkpt>
      <trkpt lat="43.61944" lon="5.29858">
        <ele>206.19999694824</ele>
        <time>2019-11-30T15:47:20.000Z</time>
      </trkpt>
      <trkpt lat="43.61936" lon="5.29858">
        <ele>205.80000305176</ele>
        <time>2019-11-30T15:47:21.000Z</time>
      </trkpt>
      <trkpt lat="43.61929" lon="5.29857">
        <ele>205.39999389648</ele>
        <time>2019-11-30T15:47:22.000Z</time>
      </trkpt>
      <trkpt lat="43.61921" lon="5.29856">
        <ele>205.19999694824</ele>
        <time>2019-11-30T15:47:23.000Z</time>
      </trkpt>
      <trkpt lat="43.61914" lon="5.29856">
        <ele>205</ele>
        <time>2019-11-30T15:47:24.000Z</time>
      </trkpt>
      <trkpt lat="43.61906" lon="5.29855">
        <ele>204.60000610352</ele>
        <time>2019-11-30T15:47:25.000Z</time>
      </trkpt>
      <trkpt lat="43.61899" lon="5.29855">
        <ele>204.19999694824</ele>
        <time>2019-11-30T15:47:26.000Z</time>
      </trkpt>
      <trkpt lat="43.61893" lon="5.29854">
        <ele>204</ele>
        <time>2019-11-30T15:47:27.000Z</time>
      </trkpt>
      <trkpt lat="43.61886" lon="5.29854">
        <ele>203.60000610352</ele>
        <time>2019-11-30T15:47:28.000Z</time>
      </trkpt>
      <trkpt lat="43.61879" lon="5.29854">
        <ele>203.39999389648</ele>
        <time>2019-11-30T15:47:29.000Z</time>
      </trkpt>
      <trkpt lat="43.61873" lon="5.29853">
        <ele>203</ele>
        <time>2019-11-30T15:47:30.000Z</time>
      </trkpt>
      <trkpt lat="43.61866" lon="5.29853">
        <ele>202.60000610352</ele>
        <time>2019-11-30T15:47:31.000Z</time>
      </trkpt>
      <trkpt lat="43.6186" lon="5.29852">
        <ele>202.39999389648</ele>
        <time>2019-11-30T15:47:32.000Z</time>
      </trkpt>
      <trkpt lat="43.61853" lon="5.29852">
        <ele>202</ele>
        <time>2019-11-30T15:47:33.000Z</time>
      </trkpt>
      <trkpt lat="43.61847" lon="5.29852">
        <ele>202.19999694824</ele>
        <time>2019-11-30T15:47:34.000Z</time>
      </trkpt>
      <trkpt lat="43.6184" lon="5.29851">
        <ele>202.19999694824</ele>
        <time>2019-11-30T15:47:35.000Z</time>
      </trkpt>
      <trkpt lat="43.61832" lon="5.29851">
        <ele>202.39999389648</ele>
        <time>2019-11-30T15:47:36.000Z</time>
      </trkpt>
      <trkpt lat="43.61824" lon="5.2985">
        <ele>202.60000610352</ele>
        <time>2019-11-30T15:47:37.000Z</time>
      </trkpt>
      <trkpt lat="43.61817" lon="5.2985">
        <ele>202.80000305176</ele>
        <time>2019-11-30T15:47:38.000Z</time>
      </trkpt>
      <trkpt lat="43.6181" lon="5.29849">
        <ele>202.80000305176</ele>
        <time>2019-11-30T15:47:39.000Z</time>
      </trkpt>
      <trkpt lat="43.61804" lon="5.29848">
        <ele>202.80000305176</ele>
        <time>2019-11-30T15:47:40.000Z</time>
      </trkpt>
      <trkpt lat="43.61797" lon="5.29847">
        <ele>202.80000305176</ele>
        <time>2019-11-30T15:47:41.000Z</time>
      </trkpt>
      <trkpt lat="43.61791" lon="5.29846">
        <ele>202.80000305176</ele>
        <time>2019-11-30T15:47:42.000Z</time>
      </trkpt>
      <trkpt lat="43.61785" lon="5.29845">
        <ele>202.80000305176</ele>
        <time>2019-11-30T15:47:43.000Z</time>
      </trkpt>
      <trkpt lat="43.61779" lon="5.29844">
        <ele>202.80000305176</ele>
        <time>2019-11-30T15:47:44.000Z</time>
      </trkpt>
      <trkpt lat="43.61773" lon="5.29843">
        <ele>202.80000305176</ele>
        <time>2019-11-30T15:47:45.000Z</time>
      </trkpt>
      <trkpt lat="43.61767" lon="5.29843">
        <ele>203</ele>
        <time>2019-11-30T15:47:46.000Z</time>
      </trkpt>
      <trkpt lat="43.61761" lon="5.29845">
        <ele>203.19999694824</ele>
        <time>2019-11-30T15:47:47.000Z</time>
      </trkpt>
      <trkpt lat="43.61756" lon="5.29847">
        <ele>203.19999694824</ele>
        <time>2019-11-30T15:47:48.000Z</time>
      </trkpt>
      <trkpt lat="43.61751" lon="5.29849">
        <ele>203.39999389648</ele>
        <time>2019-11-30T15:47:49.000Z</time>
      </trkpt>
      <trkpt lat="43.61747" lon="5.29851">
        <ele>203.39999389648</ele>
        <time>2019-11-30T15:47:50.000Z</time>
      </trkpt>
      <trkpt lat="43.61742" lon="5.29853">
        <ele>203.60000610352</ele>
        <time>2019-11-30T15:47:51.000Z</time>
      </trkpt>
      <trkpt lat="43.61737" lon="5.29855">
        <ele>203.80000305176</ele>
        <time>2019-11-30T15:47:52.000Z</time>
      </trkpt>
      <trkpt lat="43.61732" lon="5.29857">
        <ele>204</ele>
        <time>2019-11-30T15:47:53.000Z</time>
      </trkpt>
      <trkpt lat="43.61726" lon="5.29859">
        <ele>204.19999694824</ele>
        <time>2019-11-30T15:47:54.000Z</time>
      </trkpt>
      <trkpt lat="43.61721" lon="5.29861">
        <ele>204.60000610352</ele>
        <time>2019-11-30T15:47:55.000Z</time>
      </trkpt>
      <trkpt lat="43.61716" lon="5.29863">
        <ele>204.80000305176</ele>
        <time>2019-11-30T15:47:56.000Z</time>
      </trkpt>
      <trkpt lat="43.61711" lon="5.29865">
        <ele>205</ele>
        <time>2019-11-30T15:47:57.000Z</time>
      </trkpt>
      <trkpt lat="43.61705" lon="5.29867">
        <ele>205.19999694824</ele>
        <time>2019-11-30T15:47:58.000Z</time>
      </trkpt>
      <trkpt lat="43.617" lon="5.29869">
        <ele>205.39999389648</ele>
        <time>2019-11-30T15:47:59.000Z</time>
      </trkpt>
      <trkpt lat="43.61696" lon="5.29871">
        <ele>205.60000610352</ele>
        <time>2019-11-30T15:48:00.000Z</time>
      </trkpt>
      <trkpt lat="43.61691" lon="5.29873">
        <ele>205.80000305176</ele>
        <time>2019-11-30T15:48:01.000Z</time>
      </trkpt>
      <trkpt lat="43.61686" lon="5.29875">
        <ele>206</ele>
        <time>2019-11-30T15:48:02.000Z</time>
      </trkpt>
      <trkpt lat="43.6168" lon="5.29877">
        <ele>206</ele>
        <time>2019-11-30T15:48:03.000Z</time>
      </trkpt>
      <trkpt lat="43.61675" lon="5.29879">
        <ele>206.19999694824</ele>
        <time>2019-11-30T15:48:04.000Z</time>
      </trkpt>
      <trkpt lat="43.61671" lon="5.29881">
        <ele>206.19999694824</ele>
        <time>2019-11-30T15:48:05.000Z</time>
      </trkpt>
      <trkpt lat="43.61666" lon="5.29883">
        <ele>206.19999694824</ele>
        <time>2019-11-30T15:48:06.000Z</time>
      </trkpt>
      <trkpt lat="43.61661" lon="5.29885">
        <ele>206.39999389648</ele>
        <time>2019-11-30T15:48:07.000Z</time>
      </trkpt>
      <trkpt lat="43.61656" lon="5.29887">
        <ele>206.39999389648</ele>
        <time>2019-11-30T15:48:08.000Z</time>
      </trkpt>
      <trkpt lat="43.61651" lon="5.29889">
        <ele>206.60000610352</ele>
        <time>2019-11-30T15:48:09.000Z</time>
      </trkpt>
      <trkpt lat="43.61646" lon="5.29891">
        <ele>206.60000610352</ele>
        <time>2019-11-30T15:48:10.000Z</time>
      </trkpt>
      <trkpt lat="43.61641" lon="5.29893">
        <ele>206.60000610352</ele>
        <time>2019-11-30T15:48:11.000Z</time>
      </trkpt>
      <trkpt lat="43.61636" lon="5.29895">
        <ele>206.80000305176</ele>
        <time>2019-11-30T15:48:12.000Z</time>
      </trkpt>
      <trkpt lat="43.61631" lon="5.29897">
        <ele>206.80000305176</ele>
        <time>2019-11-30T15:48:13.000Z</time>
      </trkpt>
      <trkpt lat="43.61626" lon="5.29899">
        <ele>207</ele>
        <time>2019-11-30T15:48:14.000Z</time>
      </trkpt>
      <trkpt lat="43.61621" lon="5.29901">
        <ele>207</ele>
      </trkpt>
      <trkpt lat="43.61616" lon="5.29903">
        <ele>207.19999694824</ele>
      </trkpt>
      <trkpt lat="43.61612" lon="5.29905">
        <ele>207.19999694824</ele>
      </trkpt>
      <trkpt lat="43.61607" lon="5.29907">
        <ele>207.19999694824</ele>
      </trkpt>
      <trkpt lat="43.61602" lon="5.29909">
        <ele>207.39999389648</ele>
      </trkpt>
    </trkseg>
  </trk>
</gpx>